<?xml version='1.0' encoding='UTF-8'?><gpx version="1.1" creator="JPX - https://github.com/jenetics/jpx" xmlns="http://www.topografix.com/GPX/1/1"><trk><trkseg><trkpt lat="43.6145725" lon="11.4998796"><ele>124.99999999999999</ele><time>2026-05-01T07:11:07.204Z</time></trkpt><trkpt lat="43.6147017" lon="11.4998467"><ele>125.0</ele><time>2026-05-01T07:13:32.203Z</time></trkpt><trkpt lat="43.61464" lon="11.499825"><ele>125.0</ele><time>2026-05-01T07:13:47.206Z</time></trkpt><trkpt lat="43.6145883" lon="11.4999117"><ele>125.0</ele><time>2026-05-01T07:13:57.204Z</time></trkpt><trkpt lat="43.61453" lon="11.4999667"><ele>124.99999999999999</ele><time>2026-05-01T07:13:59.205Z</time></trkpt><trkpt lat="43.6144567" lon="11.5000167"><ele>125.0</ele><time>2026-05-01T07:14:01.204Z</time></trkpt><trkpt lat="43.6143517" lon="11.5000733"><ele>124.8</ele><time>2026-05-01T07:14:03.204Z</time></trkpt><trkpt lat="43.614245" lon="11.5001283"><ele>124.6</ele><time>2026-05-01T07:14:05.204Z</time></trkpt><trkpt lat="43.6141417" lon="11.50021"><ele>124.4</ele><time>2026-05-01T07:14:07.204Z</time></trkpt><trkpt lat="43.6140417" lon="11.500265"><ele>124.2</ele><time>2026-05-01T07:14:09.208Z</time></trkpt><trkpt lat="43.6139683" lon="11.500295"><ele>124.0</ele><time>2026-05-01T07:14:10.206Z</time></trkpt><trkpt lat="43.6138517" lon="11.5003483"><ele>124.00000000000001</ele><time>2026-05-01T07:14:12.209Z</time></trkpt><trkpt lat="43.6137717" lon="11.5003683"><ele>124.0</ele><time>2026-05-01T07:14:13.207Z</time></trkpt><trkpt lat="43.6136983" lon="11.5004017"><ele>124.0</ele><time>2026-05-01T07:14:14.207Z</time></trkpt><trkpt lat="43.61363" lon="11.500425"><ele>124.0</ele><time>2026-05-01T07:14:15.206Z</time></trkpt><trkpt lat="43.61356" lon="11.5004533"><ele>124.00000000000001</ele><time>2026-05-01T07:14:16.208Z</time></trkpt><trkpt lat="43.6134733" lon="11.5004833"><ele>124.0</ele><time>2026-05-01T07:14:17.208Z</time></trkpt><trkpt lat="43.613395" lon="11.5005083"><ele>124.33333333333334</ele><time>2026-05-01T07:14:18.207Z</time></trkpt><trkpt lat="43.6133217" lon="11.5005317"><ele>124.66666666666667</ele><time>2026-05-01T07:14:19.209Z</time></trkpt><trkpt lat="43.6132433" lon="11.5005567"><ele>125.0</ele><time>2026-05-01T07:14:20.208Z</time></trkpt><trkpt lat="43.613165" lon="11.500585"><ele>125.33333333333334</ele><time>2026-05-01T07:14:21.207Z</time></trkpt><trkpt lat="43.613085" lon="11.5006083"><ele>125.66666666666667</ele><time>2026-05-01T07:14:22.209Z</time></trkpt><trkpt lat="43.6130067" lon="11.50063"><ele>126.0</ele><time>2026-05-01T07:14:23.207Z</time></trkpt><trkpt lat="43.6129233" lon="11.5006517"><ele>126.0</ele><time>2026-05-01T07:14:24.209Z</time></trkpt><trkpt lat="43.6128383" lon="11.50067"><ele>126.0</ele><time>2026-05-01T07:14:25.207Z</time></trkpt><trkpt lat="43.61276" lon="11.5006917"><ele>126.0</ele><time>2026-05-01T07:14:26.207Z</time></trkpt><trkpt lat="43.6126767" lon="11.5007133"><ele>126.0</ele><time>2026-05-01T07:14:27.207Z</time></trkpt><trkpt lat="43.6125983" lon="11.5007383"><ele>126.0</ele><time>2026-05-01T07:14:28.207Z</time></trkpt><trkpt lat="43.6125217" lon="11.5007617"><ele>126.0</ele><time>2026-05-01T07:14:29.208Z</time></trkpt><trkpt lat="43.612445" lon="11.5007833"><ele>126.0</ele><time>2026-05-01T07:14:30.208Z</time></trkpt><trkpt lat="43.6123683" lon="11.500805"><ele>126.0</ele><time>2026-05-01T07:14:31.208Z</time></trkpt><trkpt lat="43.6122917" lon="11.5008283"><ele>126.0</ele><time>2026-05-01T07:14:32.207Z</time></trkpt><trkpt lat="43.612215" lon="11.50085"><ele>126.0</ele><time>2026-05-01T07:14:33.206Z</time></trkpt><trkpt lat="43.6121417" lon="11.50087"><ele>126.0</ele><time>2026-05-01T07:14:34.208Z</time></trkpt><trkpt lat="43.61207" lon="11.5008883"><ele>126.0</ele><time>2026-05-01T07:14:35.208Z</time></trkpt><trkpt lat="43.6119967" lon="11.5009117"><ele>125.66666666666667</ele><time>2026-05-01T07:14:36.207Z</time></trkpt><trkpt lat="43.6119233" lon="11.5009317"><ele>125.33333333333334</ele><time>2026-05-01T07:14:37.208Z</time></trkpt><trkpt lat="43.6118533" lon="11.5009567"><ele>125.0</ele><time>2026-05-01T07:14:38.207Z</time></trkpt><trkpt lat="43.61178" lon="11.500985"><ele>124.66666666666667</ele><time>2026-05-01T07:14:39.207Z</time></trkpt><trkpt lat="43.6117083" lon="11.501015"><ele>124.33333333333334</ele><time>2026-05-01T07:14:40.207Z</time></trkpt><trkpt lat="43.6116333" lon="11.50104"><ele>124.0</ele><time>2026-05-01T07:14:41.205Z</time></trkpt><trkpt lat="43.6115583" lon="11.5010617"><ele>124.00000000000001</ele><time>2026-05-01T07:14:42.208Z</time></trkpt><trkpt lat="43.6114833" lon="11.5010867"><ele>124.0</ele><time>2026-05-01T07:14:43.208Z</time></trkpt><trkpt lat="43.6114083" lon="11.50111"><ele>124.0</ele><time>2026-05-01T07:14:44.208Z</time></trkpt><trkpt lat="43.611335" lon="11.501135"><ele>124.0</ele><time>2026-05-01T07:14:45.207Z</time></trkpt><trkpt lat="43.6112617" lon="11.501165"><ele>124.00000000000001</ele><time>2026-05-01T07:14:46.206Z</time></trkpt><trkpt lat="43.611185" lon="11.5012033"><ele>124.0</ele><time>2026-05-01T07:14:47.208Z</time></trkpt><trkpt lat="43.6111067" lon="11.5012467"><ele>124.50000000000001</ele><time>2026-05-01T07:14:48.209Z</time></trkpt><trkpt lat="43.611025" lon="11.5012883"><ele>125.0</ele><time>2026-05-01T07:14:49.208Z</time></trkpt><trkpt lat="43.6109467" lon="11.5013267"><ele>125.5</ele><time>2026-05-01T07:14:50.205Z</time></trkpt><trkpt lat="43.6108667" lon="11.501365"><ele>126.0</ele><time>2026-05-01T07:14:51.209Z</time></trkpt><trkpt lat="43.610785" lon="11.501405"><ele>126.50000000000001</ele><time>2026-05-01T07:14:52.209Z</time></trkpt><trkpt lat="43.6107033" lon="11.501445"><ele>127.0</ele><time>2026-05-01T07:14:53.207Z</time></trkpt><trkpt lat="43.61062" lon="11.5014833"><ele>127.00000000000001</ele><time>2026-05-01T07:14:54.207Z</time></trkpt><trkpt lat="43.6105383" lon="11.50152"><ele>127.0</ele><time>2026-05-01T07:14:55.209Z</time></trkpt><trkpt lat="43.61046" lon="11.5015583"><ele>127.0</ele><time>2026-05-01T07:14:56.208Z</time></trkpt><trkpt lat="43.6103833" lon="11.5015933"><ele>127.0</ele><time>2026-05-01T07:14:57.207Z</time></trkpt><trkpt lat="43.610305" lon="11.50163"><ele>127.00000000000001</ele><time>2026-05-01T07:14:58.208Z</time></trkpt><trkpt lat="43.6102283" lon="11.5016633"><ele>127.0</ele><time>2026-05-01T07:14:59.207Z</time></trkpt><trkpt lat="43.6101517" lon="11.5017"><ele>126.83333333333334</ele><time>2026-05-01T07:15:00.207Z</time></trkpt><trkpt lat="43.6100717" lon="11.5017383"><ele>126.66666666666667</ele><time>2026-05-01T07:15:01.208Z</time></trkpt><trkpt lat="43.6099933" lon="11.501775"><ele>126.5</ele><time>2026-05-01T07:15:02.209Z</time></trkpt><trkpt lat="43.6099167" lon="11.5018133"><ele>126.33333333333334</ele><time>2026-05-01T07:15:03.209Z</time></trkpt><trkpt lat="43.609835" lon="11.50185"><ele>126.16666666666667</ele><time>2026-05-01T07:15:04.208Z</time></trkpt><trkpt lat="43.6097617" lon="11.501885"><ele>126.0</ele><time>2026-05-01T07:15:05.207Z</time></trkpt><trkpt lat="43.60969" lon="11.5019233"><ele>126.0</ele><time>2026-05-01T07:15:06.209Z</time></trkpt><trkpt lat="43.609615" lon="11.5019567"><ele>126.0</ele><time>2026-05-01T07:15:07.208Z</time></trkpt><trkpt lat="43.6095383" lon="11.5019883"><ele>126.0</ele><time>2026-05-01T07:15:08.207Z</time></trkpt><trkpt lat="43.609455" lon="11.5020233"><ele>126.0</ele><time>2026-05-01T07:15:09.207Z</time></trkpt><trkpt lat="43.609375" lon="11.5020617"><ele>126.0</ele><time>2026-05-01T07:15:10.205Z</time></trkpt><trkpt lat="43.6092967" lon="11.5021067"><ele>126.0</ele><time>2026-05-01T07:15:11.207Z</time></trkpt><trkpt lat="43.6092283" lon="11.502155"><ele>126.16666666666667</ele><time>2026-05-01T07:15:12.206Z</time></trkpt><trkpt lat="43.609155" lon="11.5022117"><ele>126.33333333333334</ele><time>2026-05-01T07:15:13.209Z</time></trkpt><trkpt lat="43.60909" lon="11.502275"><ele>126.5</ele><time>2026-05-01T07:15:14.208Z</time></trkpt><trkpt lat="43.6090267" lon="11.502345"><ele>126.66666666666667</ele><time>2026-05-01T07:15:15.208Z</time></trkpt><trkpt lat="43.6089683" lon="11.50242"><ele>126.83333333333334</ele><time>2026-05-01T07:15:16.206Z</time></trkpt><trkpt lat="43.6089117" lon="11.502495"><ele>127.0</ele><time>2026-05-01T07:15:17.21Z</time></trkpt><trkpt lat="43.6088517" lon="11.5025667"><ele>127.00000000000001</ele><time>2026-05-01T07:15:18.208Z</time></trkpt><trkpt lat="43.6087917" lon="11.5026383"><ele>127.0</ele><time>2026-05-01T07:15:19.209Z</time></trkpt><trkpt lat="43.6087283" lon="11.5027117"><ele>127.0</ele><time>2026-05-01T07:15:20.207Z</time></trkpt><trkpt lat="43.6086667" lon="11.5027817"><ele>127.0</ele><time>2026-05-01T07:15:21.209Z</time></trkpt><trkpt lat="43.6086" lon="11.5028483"><ele>127.00000000000001</ele><time>2026-05-01T07:15:22.208Z</time></trkpt><trkpt lat="43.6085283" lon="11.50291"><ele>127.0</ele><time>2026-05-01T07:15:23.209Z</time></trkpt><trkpt lat="43.608455" lon="11.5029683"><ele>127.00000000000001</ele><time>2026-05-01T07:15:24.211Z</time></trkpt><trkpt lat="43.608385" lon="11.5030267"><ele>127.0</ele><time>2026-05-01T07:15:25.208Z</time></trkpt><trkpt lat="43.6083133" lon="11.5030867"><ele>127.0</ele><time>2026-05-01T07:15:26.207Z</time></trkpt><trkpt lat="43.6082433" lon="11.5031483"><ele>127.0</ele><time>2026-05-01T07:15:27.209Z</time></trkpt><trkpt lat="43.6081767" lon="11.5032083"><ele>127.00000000000001</ele><time>2026-05-01T07:15:28.208Z</time></trkpt><trkpt lat="43.6081117" lon="11.5032667"><ele>127.0</ele><time>2026-05-01T07:15:29.208Z</time></trkpt><trkpt lat="43.6080433" lon="11.50332"><ele>127.00000000000001</ele><time>2026-05-01T07:15:30.208Z</time></trkpt><trkpt lat="43.6079683" lon="11.50337"><ele>127.0</ele><time>2026-05-01T07:15:31.207Z</time></trkpt><trkpt lat="43.607895" lon="11.50341"><ele>127.0</ele><time>2026-05-01T07:15:32.208Z</time></trkpt><trkpt lat="43.60782" lon="11.5034383"><ele>127.0</ele><time>2026-05-01T07:15:33.207Z</time></trkpt><trkpt lat="43.6077533" lon="11.5034583"><ele>127.00000000000001</ele><time>2026-05-01T07:15:34.208Z</time></trkpt><trkpt lat="43.6076767" lon="11.5034667"><ele>127.0</ele><time>2026-05-01T07:15:35.209Z</time></trkpt><trkpt lat="43.6075967" lon="11.50347"><ele>127.50000000000001</ele><time>2026-05-01T07:15:36.207Z</time></trkpt><trkpt lat="43.60752" lon="11.503475"><ele>128.0</ele><time>2026-05-01T07:15:37.209Z</time></trkpt><trkpt lat="43.60744" lon="11.5034817"><ele>128.5</ele><time>2026-05-01T07:15:38.207Z</time></trkpt><trkpt lat="43.60736" lon="11.503485"><ele>129.0</ele><time>2026-05-01T07:15:39.208Z</time></trkpt><trkpt lat="43.60728" lon="11.50349"><ele>129.5</ele><time>2026-05-01T07:15:40.207Z</time></trkpt><trkpt lat="43.6071967" lon="11.503495"><ele>130.0</ele><time>2026-05-01T07:15:41.209Z</time></trkpt><trkpt lat="43.6071183" lon="11.5035033"><ele>130.0</ele><time>2026-05-01T07:15:42.21Z</time></trkpt><trkpt lat="43.6070367" lon="11.50351"><ele>130.0</ele><time>2026-05-01T07:15:43.208Z</time></trkpt><trkpt lat="43.60696" lon="11.5035233"><ele>130.0</ele><time>2026-05-01T07:15:44.208Z</time></trkpt><trkpt lat="43.6068867" lon="11.5035367"><ele>130.0</ele><time>2026-05-01T07:15:45.209Z</time></trkpt><trkpt lat="43.6068067" lon="11.5035533"><ele>130.0</ele><time>2026-05-01T07:15:46.207Z</time></trkpt><trkpt lat="43.606735" lon="11.5035817"><ele>130.0</ele><time>2026-05-01T07:15:47.208Z</time></trkpt><trkpt lat="43.6066617" lon="11.5036233"><ele>129.83333333333334</ele><time>2026-05-01T07:15:48.208Z</time></trkpt><trkpt lat="43.6065867" lon="11.5036667"><ele>129.66666666666669</ele><time>2026-05-01T07:15:49.207Z</time></trkpt><trkpt lat="43.60651" lon="11.5037167"><ele>129.5</ele><time>2026-05-01T07:15:50.207Z</time></trkpt><trkpt lat="43.60643" lon="11.50377"><ele>129.33333333333334</ele><time>2026-05-01T07:15:51.21Z</time></trkpt><trkpt lat="43.606355" lon="11.5038267"><ele>129.16666666666666</ele><time>2026-05-01T07:15:52.207Z</time></trkpt><trkpt lat="43.6062767" lon="11.5038883"><ele>129.0</ele><time>2026-05-01T07:15:53.208Z</time></trkpt><trkpt lat="43.6062033" lon="11.5039467"><ele>129.4</ele><time>2026-05-01T07:15:54.208Z</time></trkpt><trkpt lat="43.60611" lon="11.5040267"><ele>129.8</ele><time>2026-05-01T07:15:55.208Z</time></trkpt><trkpt lat="43.6060367" lon="11.5040967"><ele>130.2</ele><time>2026-05-01T07:15:56.21Z</time></trkpt><trkpt lat="43.60596" lon="11.50417"><ele>130.6</ele><time>2026-05-01T07:15:57.208Z</time></trkpt><trkpt lat="43.6058867" lon="11.5042367"><ele>131.0</ele><time>2026-05-01T07:15:58.208Z</time></trkpt><trkpt lat="43.60582" lon="11.5043083"><ele>131.0</ele><time>2026-05-01T07:15:59.207Z</time></trkpt><trkpt lat="43.6057517" lon="11.5043883"><ele>131.0</ele><time>2026-05-01T07:16:00.208Z</time></trkpt><trkpt lat="43.6056867" lon="11.50447"><ele>131.0</ele><time>2026-05-01T07:16:01.207Z</time></trkpt><trkpt lat="43.60562" lon="11.504555"><ele>131.0</ele><time>2026-05-01T07:16:02.208Z</time></trkpt><trkpt lat="43.605555" lon="11.5046367"><ele>131.0</ele><time>2026-05-01T07:16:03.209Z</time></trkpt><trkpt lat="43.6054917" lon="11.5047167"><ele>131.0</ele><time>2026-05-01T07:16:04.208Z</time></trkpt><trkpt lat="43.6054283" lon="11.504795"><ele>130.5</ele><time>2026-05-01T07:16:05.207Z</time></trkpt><trkpt lat="43.605365" lon="11.504875"><ele>130.0</ele><time>2026-05-01T07:16:06.207Z</time></trkpt><trkpt lat="43.6053033" lon="11.5049533"><ele>129.5</ele><time>2026-05-01T07:16:07.21Z</time></trkpt><trkpt lat="43.6052417" lon="11.5050317"><ele>129.0</ele><time>2026-05-01T07:16:08.207Z</time></trkpt><trkpt lat="43.6051783" lon="11.5051117"><ele>128.5</ele><time>2026-05-01T07:16:09.207Z</time></trkpt><trkpt lat="43.605115" lon="11.505195"><ele>128.0</ele><time>2026-05-01T07:16:10.207Z</time></trkpt><trkpt lat="43.605055" lon="11.50528"><ele>128.0</ele><time>2026-05-01T07:16:11.21Z</time></trkpt><trkpt lat="43.6049917" lon="11.5053683"><ele>128.0</ele><time>2026-05-01T07:16:12.207Z</time></trkpt><trkpt lat="43.60493" lon="11.50546"><ele>128.0</ele><time>2026-05-01T07:16:13.206Z</time></trkpt><trkpt lat="43.60487" lon="11.505555"><ele>128.0</ele><time>2026-05-01T07:16:14.207Z</time></trkpt><trkpt lat="43.6048083" lon="11.5056483"><ele>128.0</ele><time>2026-05-01T07:16:15.208Z</time></trkpt><trkpt lat="43.6047483" lon="11.5057433"><ele>127.60000000000001</ele><time>2026-05-01T07:16:16.207Z</time></trkpt><trkpt lat="43.604685" lon="11.5058433"><ele>127.20000000000002</ele><time>2026-05-01T07:16:17.207Z</time></trkpt><trkpt lat="43.6046167" lon="11.5059417"><ele>126.8</ele><time>2026-05-01T07:16:18.21Z</time></trkpt><trkpt lat="43.6045483" lon="11.506035"><ele>126.4</ele><time>2026-05-01T07:16:19.208Z</time></trkpt><trkpt lat="43.6044883" lon="11.5061317"><ele>126.0</ele><time>2026-05-01T07:16:20.207Z</time></trkpt><trkpt lat="43.6044333" lon="11.50623"><ele>126.33333333333333</ele><time>2026-05-01T07:16:21.207Z</time></trkpt><trkpt lat="43.6043883" lon="11.50633"><ele>126.66666666666666</ele><time>2026-05-01T07:16:22.207Z</time></trkpt><trkpt lat="43.6043467" lon="11.5064417"><ele>127.0</ele><time>2026-05-01T07:16:23.209Z</time></trkpt><trkpt lat="43.6043133" lon="11.5065533"><ele>127.33333333333333</ele><time>2026-05-01T07:16:24.209Z</time></trkpt><trkpt lat="43.6042833" lon="11.5066733"><ele>127.66666666666666</ele><time>2026-05-01T07:16:25.21Z</time></trkpt><trkpt lat="43.6042583" lon="11.5067867"><ele>128.0</ele><time>2026-05-01T07:16:26.208Z</time></trkpt><trkpt lat="43.604235" lon="11.5069067"><ele>127.99999999999999</ele><time>2026-05-01T07:16:27.207Z</time></trkpt><trkpt lat="43.6042117" lon="11.507025"><ele>128.0</ele><time>2026-05-01T07:16:28.209Z</time></trkpt><trkpt lat="43.6041883" lon="11.507145"><ele>128.0</ele><time>2026-05-01T07:16:29.207Z</time></trkpt><trkpt lat="43.6041683" lon="11.5072633"><ele>128.0</ele><time>2026-05-01T07:16:30.207Z</time></trkpt><trkpt lat="43.6041467" lon="11.50738"><ele>127.99999999999999</ele><time>2026-05-01T07:16:31.207Z</time></trkpt><trkpt lat="43.604125" lon="11.5074983"><ele>128.0</ele><time>2026-05-01T07:16:32.21Z</time></trkpt><trkpt lat="43.6041033" lon="11.5076117"><ele>128.5</ele><time>2026-05-01T07:16:33.207Z</time></trkpt><trkpt lat="43.60408" lon="11.5077233"><ele>129.0</ele><time>2026-05-01T07:16:34.207Z</time></trkpt><trkpt lat="43.6040533" lon="11.5078333"><ele>129.5</ele><time>2026-05-01T07:16:35.208Z</time></trkpt><trkpt lat="43.604025" lon="11.5079467"><ele>130.0</ele><time>2026-05-01T07:16:36.209Z</time></trkpt><trkpt lat="43.603995" lon="11.508055"><ele>130.5</ele><time>2026-05-01T07:16:37.208Z</time></trkpt><trkpt lat="43.6039633" lon="11.5081683"><ele>131.0</ele><time>2026-05-01T07:16:38.209Z</time></trkpt><trkpt lat="43.6039267" lon="11.50828"><ele>131.2</ele><time>2026-05-01T07:16:39.208Z</time></trkpt><trkpt lat="43.6038883" lon="11.50839"><ele>131.39999999999998</ele><time>2026-05-01T07:16:40.208Z</time></trkpt><trkpt lat="43.603845" lon="11.5084983"><ele>131.6</ele><time>2026-05-01T07:16:41.207Z</time></trkpt><trkpt lat="43.6037967" lon="11.508605"><ele>131.79999999999998</ele><time>2026-05-01T07:16:42.209Z</time></trkpt><trkpt lat="43.6037417" lon="11.5087067"><ele>132.0</ele><time>2026-05-01T07:16:43.207Z</time></trkpt><trkpt lat="43.60368" lon="11.5087983"><ele>131.6</ele><time>2026-05-01T07:16:44.208Z</time></trkpt><trkpt lat="43.603615" lon="11.508885"><ele>131.2</ele><time>2026-05-01T07:16:45.207Z</time></trkpt><trkpt lat="43.603545" lon="11.5089667"><ele>130.8</ele><time>2026-05-01T07:16:46.207Z</time></trkpt><trkpt lat="43.6034767" lon="11.5090467"><ele>130.4</ele><time>2026-05-01T07:16:47.209Z</time></trkpt><trkpt lat="43.6034083" lon="11.5091267"><ele>130.0</ele><time>2026-05-01T07:16:48.207Z</time></trkpt><trkpt lat="43.6033417" lon="11.5092083"><ele>130.0</ele><time>2026-05-01T07:16:49.208Z</time></trkpt><trkpt lat="43.6032817" lon="11.509295"><ele>130.0</ele><time>2026-05-01T07:16:50.208Z</time></trkpt><trkpt lat="43.60323" lon="11.5093867"><ele>130.0</ele><time>2026-05-01T07:16:51.208Z</time></trkpt><trkpt lat="43.6031817" lon="11.50949"><ele>130.0</ele><time>2026-05-01T07:16:52.205Z</time></trkpt><trkpt lat="43.6031367" lon="11.5095933"><ele>130.0</ele><time>2026-05-01T07:16:53.207Z</time></trkpt><trkpt lat="43.603095" lon="11.5097033"><ele>130.0</ele><time>2026-05-01T07:16:54.207Z</time></trkpt><trkpt lat="43.6030583" lon="11.5098133"><ele>129.83333333333334</ele><time>2026-05-01T07:16:55.208Z</time></trkpt><trkpt lat="43.60302" lon="11.5099217"><ele>129.66666666666669</ele><time>2026-05-01T07:16:56.207Z</time></trkpt><trkpt lat="43.6029817" lon="11.510025"><ele>129.5</ele><time>2026-05-01T07:16:57.207Z</time></trkpt><trkpt lat="43.6029417" lon="11.51011"><ele>129.33333333333334</ele><time>2026-05-01T07:16:58.208Z</time></trkpt><trkpt lat="43.6029" lon="11.5101967"><ele>129.16666666666666</ele><time>2026-05-01T07:16:59.207Z</time></trkpt><trkpt lat="43.6028567" lon="11.51028"><ele>129.0</ele><time>2026-05-01T07:17:00.207Z</time></trkpt><trkpt lat="43.6028067" lon="11.510355"><ele>129.33333333333334</ele><time>2026-05-01T07:17:01.208Z</time></trkpt><trkpt lat="43.6027483" lon="11.5104217"><ele>129.66666666666666</ele><time>2026-05-01T07:17:02.208Z</time></trkpt><trkpt lat="43.602685" lon="11.51049"><ele>130.0</ele><time>2026-05-01T07:17:03.207Z</time></trkpt><trkpt lat="43.6026183" lon="11.5105517"><ele>130.33333333333331</ele><time>2026-05-01T07:17:04.207Z</time></trkpt><trkpt lat="43.6025467" lon="11.51061"><ele>130.66666666666666</ele><time>2026-05-01T07:17:05.207Z</time></trkpt><trkpt lat="43.6024733" lon="11.51067"><ele>131.0</ele><time>2026-05-01T07:17:06.207Z</time></trkpt><trkpt lat="43.6023967" lon="11.5107317"><ele>131.0</ele><time>2026-05-01T07:17:07.207Z</time></trkpt><trkpt lat="43.6023267" lon="11.5107883"><ele>131.0</ele><time>2026-05-01T07:17:08.209Z</time></trkpt><trkpt lat="43.602255" lon="11.510845"><ele>131.0</ele><time>2026-05-01T07:17:09.207Z</time></trkpt><trkpt lat="43.6021833" lon="11.5109017"><ele>131.0</ele><time>2026-05-01T07:17:10.208Z</time></trkpt><trkpt lat="43.60211" lon="11.5109583"><ele>131.0</ele><time>2026-05-01T07:17:11.208Z</time></trkpt><trkpt lat="43.602035" lon="11.5110183"><ele>131.0</ele><time>2026-05-01T07:17:12.207Z</time></trkpt><trkpt lat="43.60196" lon="11.5110783"><ele>131.16666666666666</ele><time>2026-05-01T07:17:13.208Z</time></trkpt><trkpt lat="43.6018867" lon="11.511135"><ele>131.33333333333331</ele><time>2026-05-01T07:17:14.208Z</time></trkpt><trkpt lat="43.6018133" lon="11.51119"><ele>131.5</ele><time>2026-05-01T07:17:15.209Z</time></trkpt><trkpt lat="43.6017433" lon="11.5112433"><ele>131.66666666666666</ele><time>2026-05-01T07:17:16.207Z</time></trkpt><trkpt lat="43.601675" lon="11.5112917"><ele>131.83333333333334</ele><time>2026-05-01T07:17:17.206Z</time></trkpt><trkpt lat="43.601605" lon="11.5113417"><ele>132.0</ele><time>2026-05-01T07:17:18.207Z</time></trkpt><trkpt lat="43.6015333" lon="11.5114067"><ele>132.0</ele><time>2026-05-01T07:17:19.207Z</time></trkpt><trkpt lat="43.601465" lon="11.511465"><ele>132.0</ele><time>2026-05-01T07:17:20.208Z</time></trkpt><trkpt lat="43.6013967" lon="11.5115233"><ele>132.0</ele><time>2026-05-01T07:17:21.207Z</time></trkpt><trkpt lat="43.60133" lon="11.51158"><ele>132.0</ele><time>2026-05-01T07:17:22.207Z</time></trkpt><trkpt lat="43.6012617" lon="11.5116383"><ele>132.0</ele><time>2026-05-01T07:17:23.207Z</time></trkpt><trkpt lat="43.601195" lon="11.511695"><ele>132.0</ele><time>2026-05-01T07:17:24.207Z</time></trkpt><trkpt lat="43.6011317" lon="11.5117633"><ele>132.33333333333334</ele><time>2026-05-01T07:17:25.209Z</time></trkpt><trkpt lat="43.6010683" lon="11.5118417"><ele>132.66666666666666</ele><time>2026-05-01T07:17:26.207Z</time></trkpt><trkpt lat="43.6010067" lon="11.5119217"><ele>133.0</ele><time>2026-05-01T07:17:27.209Z</time></trkpt><trkpt lat="43.600945" lon="11.5119983"><ele>133.33333333333331</ele><time>2026-05-01T07:17:28.207Z</time></trkpt><trkpt lat="43.6008867" lon="11.5120733"><ele>133.66666666666666</ele><time>2026-05-01T07:17:29.207Z</time></trkpt><trkpt lat="43.6008317" lon="11.5121517"><ele>134.0</ele><time>2026-05-01T07:17:30.208Z</time></trkpt><trkpt lat="43.6007817" lon="11.5122267"><ele>134.0</ele><time>2026-05-01T07:17:31.206Z</time></trkpt><trkpt lat="43.6007283" lon="11.5122967"><ele>134.0</ele><time>2026-05-01T07:17:32.207Z</time></trkpt><trkpt lat="43.6006733" lon="11.5123667"><ele>134.0</ele><time>2026-05-01T07:17:33.209Z</time></trkpt><trkpt lat="43.60062" lon="11.5124383"><ele>134.0</ele><time>2026-05-01T07:17:34.205Z</time></trkpt><trkpt lat="43.6005617" lon="11.5125067"><ele>134.0</ele><time>2026-05-01T07:17:35.207Z</time></trkpt><trkpt lat="43.6005" lon="11.5125767"><ele>134.0</ele><time>2026-05-01T07:17:36.207Z</time></trkpt><trkpt lat="43.60044" lon="11.5126367"><ele>134.0</ele><time>2026-05-01T07:17:37.21Z</time></trkpt><trkpt lat="43.6003767" lon="11.512695"><ele>134.0</ele><time>2026-05-01T07:17:38.208Z</time></trkpt><trkpt lat="43.6003117" lon="11.5127483"><ele>134.0</ele><time>2026-05-01T07:17:39.209Z</time></trkpt><trkpt lat="43.6002467" lon="11.5128067"><ele>134.0</ele><time>2026-05-01T07:17:40.207Z</time></trkpt><trkpt lat="43.6001817" lon="11.512865"><ele>134.0</ele><time>2026-05-01T07:17:41.208Z</time></trkpt><trkpt lat="43.60012" lon="11.512925"><ele>134.0</ele><time>2026-05-01T07:17:42.209Z</time></trkpt><trkpt lat="43.6000583" lon="11.5129817"><ele>134.16666666666666</ele><time>2026-05-01T07:17:43.208Z</time></trkpt><trkpt lat="43.599995" lon="11.51304"><ele>134.33333333333331</ele><time>2026-05-01T07:17:44.208Z</time></trkpt><trkpt lat="43.5999317" lon="11.5130967"><ele>134.5</ele><time>2026-05-01T07:17:45.206Z</time></trkpt><trkpt lat="43.59987" lon="11.5131567"><ele>134.66666666666666</ele><time>2026-05-01T07:17:46.207Z</time></trkpt><trkpt lat="43.5998117" lon="11.513215"><ele>134.83333333333334</ele><time>2026-05-01T07:17:47.206Z</time></trkpt><trkpt lat="43.5997483" lon="11.5132733"><ele>135.0</ele><time>2026-05-01T07:17:48.21Z</time></trkpt><trkpt lat="43.599685" lon="11.5133283"><ele>135.0</ele><time>2026-05-01T07:17:49.208Z</time></trkpt><trkpt lat="43.5996217" lon="11.5133883"><ele>135.0</ele><time>2026-05-01T07:17:50.209Z</time></trkpt><trkpt lat="43.5995617" lon="11.5134483"><ele>135.0</ele><time>2026-05-01T07:17:51.208Z</time></trkpt><trkpt lat="43.5995033" lon="11.5135017"><ele>135.0</ele><time>2026-05-01T07:17:52.207Z</time></trkpt><trkpt lat="43.5994467" lon="11.513555"><ele>135.0</ele><time>2026-05-01T07:17:53.205Z</time></trkpt><trkpt lat="43.5993883" lon="11.5136117"><ele>135.0</ele><time>2026-05-01T07:17:54.21Z</time></trkpt><trkpt lat="43.599325" lon="11.51367"><ele>135.0</ele><time>2026-05-01T07:17:55.207Z</time></trkpt><trkpt lat="43.5992683" lon="11.513725"><ele>135.33333333333334</ele><time>2026-05-01T07:17:56.207Z</time></trkpt><trkpt lat="43.5992033" lon="11.5137867"><ele>135.66666666666666</ele><time>2026-05-01T07:17:57.207Z</time></trkpt><trkpt lat="43.5991333" lon="11.5138583"><ele>136.0</ele><time>2026-05-01T07:17:58.209Z</time></trkpt><trkpt lat="43.5990683" lon="11.5139217"><ele>136.33333333333331</ele><time>2026-05-01T07:17:59.207Z</time></trkpt><trkpt lat="43.5990033" lon="11.5139867"><ele>136.66666666666666</ele><time>2026-05-01T07:18:00.207Z</time></trkpt><trkpt lat="43.59893" lon="11.5140483"><ele>137.0</ele><time>2026-05-01T07:18:01.207Z</time></trkpt><trkpt lat="43.5988483" lon="11.5141117"><ele>137.0</ele><time>2026-05-01T07:18:02.207Z</time></trkpt><trkpt lat="43.5987667" lon="11.5141633"><ele>137.0</ele><time>2026-05-01T07:18:03.207Z</time></trkpt><trkpt lat="43.5986967" lon="11.51421"><ele>137.0</ele><time>2026-05-01T07:18:04.207Z</time></trkpt><trkpt lat="43.598625" lon="11.51426"><ele>137.0</ele><time>2026-05-01T07:18:05.208Z</time></trkpt><trkpt lat="43.5985533" lon="11.514315"><ele>137.0</ele><time>2026-05-01T07:18:06.207Z</time></trkpt><trkpt lat="43.59849" lon="11.5143733"><ele>137.0</ele><time>2026-05-01T07:18:07.207Z</time></trkpt><trkpt lat="43.59843" lon="11.5144417"><ele>136.83333333333331</ele><time>2026-05-01T07:18:08.207Z</time></trkpt><trkpt lat="43.59837" lon="11.514515"><ele>136.66666666666666</ele><time>2026-05-01T07:18:09.207Z</time></trkpt><trkpt lat="43.5983133" lon="11.514585"><ele>136.5</ele><time>2026-05-01T07:18:10.205Z</time></trkpt><trkpt lat="43.598245" lon="11.5146433"><ele>136.33333333333334</ele><time>2026-05-01T07:18:11.207Z</time></trkpt><trkpt lat="43.598185" lon="11.5147067"><ele>136.16666666666669</ele><time>2026-05-01T07:18:12.207Z</time></trkpt><trkpt lat="43.59812" lon="11.5147667"><ele>136.0</ele><time>2026-05-01T07:18:13.207Z</time></trkpt><trkpt lat="43.59805" lon="11.5148433"><ele>136.0</ele><time>2026-05-01T07:18:14.208Z</time></trkpt><trkpt lat="43.59798" lon="11.5149133"><ele>136.0</ele><time>2026-05-01T07:18:15.208Z</time></trkpt><trkpt lat="43.5979033" lon="11.5149817"><ele>136.0</ele><time>2026-05-01T07:18:16.206Z</time></trkpt><trkpt lat="43.5978267" lon="11.515045"><ele>136.0</ele><time>2026-05-01T07:18:17.21Z</time></trkpt><trkpt lat="43.5977583" lon="11.5151117"><ele>136.0</ele><time>2026-05-01T07:18:18.209Z</time></trkpt><trkpt lat="43.597695" lon="11.51518"><ele>136.0</ele><time>2026-05-01T07:18:19.207Z</time></trkpt><trkpt lat="43.5976383" lon="11.5152467"><ele>135.5</ele><time>2026-05-01T07:18:20.207Z</time></trkpt><trkpt lat="43.597575" lon="11.515305"><ele>135.0</ele><time>2026-05-01T07:18:21.207Z</time></trkpt><trkpt lat="43.5975067" lon="11.5153633"><ele>134.5</ele><time>2026-05-01T07:18:22.207Z</time></trkpt><trkpt lat="43.5974367" lon="11.5154233"><ele>134.0</ele><time>2026-05-01T07:18:23.208Z</time></trkpt><trkpt lat="43.5973683" lon="11.5154833"><ele>133.5</ele><time>2026-05-01T07:18:24.208Z</time></trkpt><trkpt lat="43.5973067" lon="11.51554"><ele>133.0</ele><time>2026-05-01T07:18:25.207Z</time></trkpt><trkpt lat="43.5972467" lon="11.5155967"><ele>133.85714285714286</ele><time>2026-05-01T07:18:26.21Z</time></trkpt><trkpt lat="43.59718" lon="11.5156517"><ele>134.71428571428572</ele><time>2026-05-01T07:18:27.209Z</time></trkpt><trkpt lat="43.59712" lon="11.5157033"><ele>135.57142857142856</ele><time>2026-05-01T07:18:28.208Z</time></trkpt><trkpt lat="43.5970583" lon="11.5157517"><ele>136.42857142857144</ele><time>2026-05-01T07:18:29.207Z</time></trkpt><trkpt lat="43.597" lon="11.5158"><ele>137.28571428571428</ele><time>2026-05-01T07:18:30.208Z</time></trkpt><trkpt lat="43.596945" lon="11.5158467"><ele>138.14285714285714</ele><time>2026-05-01T07:18:31.208Z</time></trkpt><trkpt lat="43.5968817" lon="11.5159017"><ele>139.0</ele><time>2026-05-01T07:18:32.207Z</time></trkpt><trkpt lat="43.59682" lon="11.5159567"><ele>139.0</ele><time>2026-05-01T07:18:33.208Z</time></trkpt><trkpt lat="43.5967617" lon="11.5160117"><ele>139.0</ele><time>2026-05-01T07:18:34.208Z</time></trkpt><trkpt lat="43.5967033" lon="11.5160617"><ele>139.0</ele><time>2026-05-01T07:18:35.207Z</time></trkpt><trkpt lat="43.5966417" lon="11.5161083"><ele>139.0</ele><time>2026-05-01T07:18:36.207Z</time></trkpt><trkpt lat="43.5965817" lon="11.5161583"><ele>139.0</ele><time>2026-05-01T07:18:37.207Z</time></trkpt><trkpt lat="43.5965183" lon="11.5162067"><ele>139.0</ele><time>2026-05-01T07:18:38.209Z</time></trkpt><trkpt lat="43.5964567" lon="11.516245"><ele>139.0</ele><time>2026-05-01T07:18:39.208Z</time></trkpt><trkpt lat="43.5963817" lon="11.516285"><ele>139.0</ele><time>2026-05-01T07:18:40.207Z</time></trkpt><trkpt lat="43.5963117" lon="11.5163217"><ele>139.0</ele><time>2026-05-01T07:18:41.207Z</time></trkpt><trkpt lat="43.596245" lon="11.5163633"><ele>139.0</ele><time>2026-05-01T07:18:42.209Z</time></trkpt><trkpt lat="43.5961817" lon="11.5164067"><ele>139.0</ele><time>2026-05-01T07:18:43.209Z</time></trkpt><trkpt lat="43.5961117" lon="11.5164483"><ele>139.0</ele><time>2026-05-01T07:18:44.207Z</time></trkpt><trkpt lat="43.5960417" lon="11.516485"><ele>139.0</ele><time>2026-05-01T07:18:45.207Z</time></trkpt><trkpt lat="43.5959733" lon="11.51652"><ele>139.0</ele><time>2026-05-01T07:18:46.207Z</time></trkpt><trkpt lat="43.5959067" lon="11.5165517"><ele>139.0</ele><time>2026-05-01T07:18:47.207Z</time></trkpt><trkpt lat="43.5958383" lon="11.51658"><ele>139.0</ele><time>2026-05-01T07:18:48.208Z</time></trkpt><trkpt lat="43.5957583" lon="11.5165967"><ele>139.0</ele><time>2026-05-01T07:18:49.208Z</time></trkpt><trkpt lat="43.5956883" lon="11.5166067"><ele>139.0</ele><time>2026-05-01T07:18:50.206Z</time></trkpt><trkpt lat="43.59562" lon="11.5166183"><ele>139.0</ele><time>2026-05-01T07:18:51.207Z</time></trkpt><trkpt lat="43.59555" lon="11.5166217"><ele>139.0</ele><time>2026-05-01T07:18:52.209Z</time></trkpt><trkpt lat="43.595485" lon="11.5166283"><ele>139.0</ele><time>2026-05-01T07:18:53.207Z</time></trkpt><trkpt lat="43.5953683" lon="11.51664"><ele>138.66666666666669</ele><time>2026-05-01T07:18:55.21Z</time></trkpt><trkpt lat="43.5953017" lon="11.5166483"><ele>138.33333333333334</ele><time>2026-05-01T07:18:56.207Z</time></trkpt><trkpt lat="43.59523" lon="11.5166517"><ele>138.0</ele><time>2026-05-01T07:18:57.208Z</time></trkpt><trkpt lat="43.5951533" lon="11.5166617"><ele>137.66666666666666</ele><time>2026-05-01T07:18:58.207Z</time></trkpt><trkpt lat="43.595075" lon="11.51667"><ele>137.33333333333331</ele><time>2026-05-01T07:18:59.209Z</time></trkpt><trkpt lat="43.5949967" lon="11.51668"><ele>137.0</ele><time>2026-05-01T07:19:00.207Z</time></trkpt><trkpt lat="43.594915" lon="11.5166917"><ele>137.0</ele><time>2026-05-01T07:19:01.209Z</time></trkpt><trkpt lat="43.594825" lon="11.516705"><ele>137.0</ele><time>2026-05-01T07:19:02.209Z</time></trkpt><trkpt lat="43.5947367" lon="11.5167217"><ele>137.0</ele><time>2026-05-01T07:19:03.209Z</time></trkpt><trkpt lat="43.594635" lon="11.516735"><ele>137.0</ele><time>2026-05-01T07:19:04.207Z</time></trkpt><trkpt lat="43.59453" lon="11.5167433"><ele>137.0</ele><time>2026-05-01T07:19:05.207Z</time></trkpt><trkpt lat="43.5944317" lon="11.516745"><ele>136.4</ele><time>2026-05-01T07:19:06.21Z</time></trkpt><trkpt lat="43.5943333" lon="11.5167383"><ele>135.79999999999998</ele><time>2026-05-01T07:19:07.208Z</time></trkpt><trkpt lat="43.594235" lon="11.5167183"><ele>135.2</ele><time>2026-05-01T07:19:08.209Z</time></trkpt><trkpt lat="43.5941333" lon="11.5166933"><ele>134.6</ele><time>2026-05-01T07:19:09.207Z</time></trkpt><trkpt lat="43.5940267" lon="11.516665"><ele>134.0</ele><time>2026-05-01T07:19:10.206Z</time></trkpt><trkpt lat="43.5939133" lon="11.5166333"><ele>134.0</ele><time>2026-05-01T07:19:11.209Z</time></trkpt><trkpt lat="43.5938117" lon="11.516585"><ele>134.0</ele><time>2026-05-01T07:19:12.207Z</time></trkpt><trkpt lat="43.59372" lon="11.5165333"><ele>134.0</ele><time>2026-05-01T07:19:13.209Z</time></trkpt><trkpt lat="43.59363" lon="11.5164733"><ele>134.0</ele><time>2026-05-01T07:19:14.208Z</time></trkpt><trkpt lat="43.5935433" lon="11.516415"><ele>134.0</ele><time>2026-05-01T07:19:15.208Z</time></trkpt><trkpt lat="43.5934567" lon="11.51636"><ele>133.66666666666666</ele><time>2026-05-01T07:19:16.208Z</time></trkpt><trkpt lat="43.5933717" lon="11.5163167"><ele>133.33333333333331</ele><time>2026-05-01T07:19:17.208Z</time></trkpt><trkpt lat="43.5932783" lon="11.516295"><ele>133.0</ele><time>2026-05-01T07:19:18.207Z</time></trkpt><trkpt lat="43.5931867" lon="11.516305"><ele>132.66666666666666</ele><time>2026-05-01T07:19:19.208Z</time></trkpt><trkpt lat="43.5931117" lon="11.5163483"><ele>132.33333333333334</ele><time>2026-05-01T07:19:20.207Z</time></trkpt><trkpt lat="43.59304" lon="11.5164083"><ele>132.0</ele><time>2026-05-01T07:19:21.207Z</time></trkpt><trkpt lat="43.5929667" lon="11.51647"><ele>132.0</ele><time>2026-05-01T07:19:22.207Z</time></trkpt><trkpt lat="43.5928967" lon="11.5165283"><ele>132.0</ele><time>2026-05-01T07:19:23.209Z</time></trkpt><trkpt lat="43.5928267" lon="11.5165767"><ele>132.0</ele><time>2026-05-01T07:19:24.208Z</time></trkpt><trkpt lat="43.59275" lon="11.51661"><ele>132.0</ele><time>2026-05-01T07:19:25.209Z</time></trkpt><trkpt lat="43.5926783" lon="11.5166233"><ele>132.0</ele><time>2026-05-01T07:19:26.208Z</time></trkpt><trkpt lat="43.5926033" lon="11.5166217"><ele>132.0</ele><time>2026-05-01T07:19:27.209Z</time></trkpt><trkpt lat="43.5925283" lon="11.5165983"><ele>132.14285714285714</ele><time>2026-05-01T07:19:28.207Z</time></trkpt><trkpt lat="43.5924633" lon="11.5165517"><ele>132.28571428571428</ele><time>2026-05-01T07:19:29.207Z</time></trkpt><trkpt lat="43.5924133" lon="11.5164767"><ele>132.42857142857144</ele><time>2026-05-01T07:19:30.21Z</time></trkpt><trkpt lat="43.5923833" lon="11.516385"><ele>132.57142857142856</ele><time>2026-05-01T07:19:31.207Z</time></trkpt><trkpt lat="43.5923617" lon="11.51629"><ele>132.71428571428572</ele><time>2026-05-01T07:19:32.208Z</time></trkpt><trkpt lat="43.5923333" lon="11.5162017"><ele>132.85714285714286</ele><time>2026-05-01T07:19:33.207Z</time></trkpt><trkpt lat="43.592285" lon="11.516135"><ele>133.0</ele><time>2026-05-01T07:19:34.209Z</time></trkpt><trkpt lat="43.5922267" lon="11.5160867"><ele>133.33333333333334</ele><time>2026-05-01T07:19:35.207Z</time></trkpt><trkpt lat="43.5921583" lon="11.5160683"><ele>133.66666666666669</ele><time>2026-05-01T07:19:36.208Z</time></trkpt><trkpt lat="43.5920917" lon="11.5160833"><ele>134.0</ele><time>2026-05-01T07:19:37.207Z</time></trkpt><trkpt lat="43.5920217" lon="11.5161167"><ele>134.33333333333334</ele><time>2026-05-01T07:19:38.209Z</time></trkpt><trkpt lat="43.5919483" lon="11.51614"><ele>134.66666666666666</ele><time>2026-05-01T07:19:39.209Z</time></trkpt><trkpt lat="43.591865" lon="11.51614"><ele>135.0</ele><time>2026-05-01T07:19:40.208Z</time></trkpt><trkpt lat="43.5917833" lon="11.5161183"><ele>135.0</ele><time>2026-05-01T07:19:41.207Z</time></trkpt><trkpt lat="43.59171" lon="11.5160683"><ele>135.0</ele><time>2026-05-01T07:19:42.208Z</time></trkpt><trkpt lat="43.59165" lon="11.51599"><ele>135.0</ele><time>2026-05-01T07:19:43.207Z</time></trkpt><trkpt lat="43.5915883" lon="11.5159067"><ele>135.0</ele><time>2026-05-01T07:19:44.21Z</time></trkpt><trkpt lat="43.5915233" lon="11.5158283"><ele>135.0</ele><time>2026-05-01T07:19:45.209Z</time></trkpt><trkpt lat="43.59146" lon="11.5157533"><ele>135.0</ele><time>2026-05-01T07:19:46.209Z</time></trkpt><trkpt lat="43.5913983" lon="11.5156817"><ele>135.0</ele><time>2026-05-01T07:19:47.207Z</time></trkpt><trkpt lat="43.591335" lon="11.515615"><ele>135.0</ele><time>2026-05-01T07:19:48.209Z</time></trkpt><trkpt lat="43.5912717" lon="11.5155483"><ele>135.0</ele><time>2026-05-01T07:19:49.209Z</time></trkpt><trkpt lat="43.5912067" lon="11.5154833"><ele>135.0</ele><time>2026-05-01T07:19:50.208Z</time></trkpt><trkpt lat="43.59114" lon="11.5154217"><ele>135.0</ele><time>2026-05-01T07:19:51.207Z</time></trkpt><trkpt lat="43.5910717" lon="11.5153617"><ele>135.0</ele><time>2026-05-01T07:19:52.207Z</time></trkpt><trkpt lat="43.5910017" lon="11.5153067"><ele>134.33333333333334</ele><time>2026-05-01T07:19:53.208Z</time></trkpt><trkpt lat="43.59093" lon="11.5152533"><ele>133.66666666666666</ele><time>2026-05-01T07:19:54.207Z</time></trkpt><trkpt lat="43.590855" lon="11.51521"><ele>133.0</ele><time>2026-05-01T07:19:55.209Z</time></trkpt><trkpt lat="43.5907783" lon="11.5151683"><ele>132.33333333333331</ele><time>2026-05-01T07:19:56.209Z</time></trkpt><trkpt lat="43.5907017" lon="11.51513"><ele>131.66666666666666</ele><time>2026-05-01T07:19:57.208Z</time></trkpt><trkpt lat="43.5906217" lon="11.5150983"><ele>131.0</ele><time>2026-05-01T07:19:58.207Z</time></trkpt><trkpt lat="43.5905433" lon="11.515075"><ele>131.0</ele><time>2026-05-01T07:19:59.208Z</time></trkpt><trkpt lat="43.590465" lon="11.5150583"><ele>131.0</ele><time>2026-05-01T07:20:00.207Z</time></trkpt><trkpt lat="43.5903833" lon="11.5150483"><ele>131.0</ele><time>2026-05-01T07:20:01.206Z</time></trkpt><trkpt lat="43.5903" lon="11.5150433"><ele>131.0</ele><time>2026-05-01T07:20:02.209Z</time></trkpt><trkpt lat="43.59022" lon="11.5150483"><ele>131.0</ele><time>2026-05-01T07:20:03.207Z</time></trkpt><trkpt lat="43.5901417" lon="11.51506"><ele>131.0</ele><time>2026-05-01T07:20:04.207Z</time></trkpt><trkpt lat="43.59006" lon="11.51508"><ele>131.16666666666666</ele><time>2026-05-01T07:20:05.209Z</time></trkpt><trkpt lat="43.58998" lon="11.5151033"><ele>131.33333333333331</ele><time>2026-05-01T07:20:06.208Z</time></trkpt><trkpt lat="43.589905" lon="11.515135"><ele>131.5</ele><time>2026-05-01T07:20:07.207Z</time></trkpt><trkpt lat="43.589835" lon="11.5151733"><ele>131.66666666666666</ele><time>2026-05-01T07:20:08.208Z</time></trkpt><trkpt lat="43.5897583" lon="11.5152217"><ele>131.83333333333334</ele><time>2026-05-01T07:20:09.206Z</time></trkpt><trkpt lat="43.589685" lon="11.515275"><ele>132.0</ele><time>2026-05-01T07:20:10.206Z</time></trkpt><trkpt lat="43.589615" lon="11.5153317"><ele>132.0</ele><time>2026-05-01T07:20:11.206Z</time></trkpt><trkpt lat="43.58955" lon="11.51539"><ele>132.0</ele><time>2026-05-01T07:20:12.207Z</time></trkpt><trkpt lat="43.5894783" lon="11.5154533"><ele>132.0</ele><time>2026-05-01T07:20:13.208Z</time></trkpt><trkpt lat="43.5894117" lon="11.5155217"><ele>132.0</ele><time>2026-05-01T07:20:14.21Z</time></trkpt><trkpt lat="43.5893467" lon="11.5155933"><ele>132.0</ele><time>2026-05-01T07:20:15.207Z</time></trkpt><trkpt lat="43.5892817" lon="11.5156717"><ele>132.0</ele><time>2026-05-01T07:20:16.206Z</time></trkpt><trkpt lat="43.589215" lon="11.5157467"><ele>132.33333333333334</ele><time>2026-05-01T07:20:17.208Z</time></trkpt><trkpt lat="43.5891467" lon="11.5158267"><ele>132.66666666666666</ele><time>2026-05-01T07:20:18.21Z</time></trkpt><trkpt lat="43.5890817" lon="11.5159117"><ele>133.0</ele><time>2026-05-01T07:20:19.206Z</time></trkpt><trkpt lat="43.58902" lon="11.5159967"><ele>133.33333333333331</ele><time>2026-05-01T07:20:20.207Z</time></trkpt><trkpt lat="43.5889583" lon="11.5160833"><ele>133.66666666666666</ele><time>2026-05-01T07:20:21.208Z</time></trkpt><trkpt lat="43.58889" lon="11.5161717"><ele>134.0</ele><time>2026-05-01T07:20:22.206Z</time></trkpt><trkpt lat="43.5888267" lon="11.5162583"><ele>133.6</ele><time>2026-05-01T07:20:23.207Z</time></trkpt><trkpt lat="43.588765" lon="11.5163433"><ele>133.2</ele><time>2026-05-01T07:20:24.209Z</time></trkpt><trkpt lat="43.5886983" lon="11.51643"><ele>132.79999999999998</ele><time>2026-05-01T07:20:25.206Z</time></trkpt><trkpt lat="43.5886333" lon="11.51652"><ele>132.4</ele><time>2026-05-01T07:20:26.207Z</time></trkpt><trkpt lat="43.5885667" lon="11.5166067"><ele>132.0</ele><time>2026-05-01T07:20:27.207Z</time></trkpt><trkpt lat="43.5885033" lon="11.5166917"><ele>132.0</ele><time>2026-05-01T07:20:28.206Z</time></trkpt><trkpt lat="43.5884367" lon="11.51678"><ele>132.0</ele><time>2026-05-01T07:20:29.208Z</time></trkpt><trkpt lat="43.5883717" lon="11.516865"><ele>132.0</ele><time>2026-05-01T07:20:30.207Z</time></trkpt><trkpt lat="43.5883083" lon="11.5169517"><ele>132.0</ele><time>2026-05-01T07:20:31.206Z</time></trkpt><trkpt lat="43.5882467" lon="11.51704"><ele>132.0</ele><time>2026-05-01T07:20:32.207Z</time></trkpt><trkpt lat="43.5881833" lon="11.5171333"><ele>132.2</ele><time>2026-05-01T07:20:33.207Z</time></trkpt><trkpt lat="43.5881183" lon="11.5172233"><ele>132.39999999999998</ele><time>2026-05-01T07:20:34.209Z</time></trkpt><trkpt lat="43.5880533" lon="11.5173117"><ele>132.60000000000002</ele><time>2026-05-01T07:20:35.207Z</time></trkpt><trkpt lat="43.58799" lon="11.5174"><ele>132.8</ele><time>2026-05-01T07:20:36.207Z</time></trkpt><trkpt lat="43.587925" lon="11.5174867"><ele>133.0</ele><time>2026-05-01T07:20:37.206Z</time></trkpt><trkpt lat="43.58786" lon="11.5175733"><ele>132.66666666666669</ele><time>2026-05-01T07:20:38.206Z</time></trkpt><trkpt lat="43.5877983" lon="11.517665"><ele>132.33333333333334</ele><time>2026-05-01T07:20:39.206Z</time></trkpt><trkpt lat="43.5877383" lon="11.517755"><ele>132.0</ele><time>2026-05-01T07:20:40.207Z</time></trkpt><trkpt lat="43.5876717" lon="11.5178417"><ele>131.66666666666666</ele><time>2026-05-01T07:20:41.208Z</time></trkpt><trkpt lat="43.5876067" lon="11.5179283"><ele>131.33333333333331</ele><time>2026-05-01T07:20:42.208Z</time></trkpt><trkpt lat="43.5875483" lon="11.5180183"><ele>131.0</ele><time>2026-05-01T07:20:43.208Z</time></trkpt><trkpt lat="43.5874867" lon="11.5181067"><ele>131.0</ele><time>2026-05-01T07:20:44.208Z</time></trkpt><trkpt lat="43.5874283" lon="11.5181917"><ele>131.0</ele><time>2026-05-01T07:20:45.206Z</time></trkpt><trkpt lat="43.5873667" lon="11.5182817"><ele>131.0</ele><time>2026-05-01T07:20:46.207Z</time></trkpt><trkpt lat="43.5873033" lon="11.51837"><ele>131.0</ele><time>2026-05-01T07:20:47.208Z</time></trkpt><trkpt lat="43.58724" lon="11.5184583"><ele>131.0</ele><time>2026-05-01T07:20:48.208Z</time></trkpt><trkpt lat="43.5871767" lon="11.518545"><ele>131.0</ele><time>2026-05-01T07:20:49.206Z</time></trkpt><trkpt lat="43.5871133" lon="11.5186367"><ele>131.0</ele><time>2026-05-01T07:20:50.206Z</time></trkpt><trkpt lat="43.5870533" lon="11.518725"><ele>131.0</ele><time>2026-05-01T07:20:51.207Z</time></trkpt><trkpt lat="43.5869883" lon="11.518815"><ele>131.0</ele><time>2026-05-01T07:20:52.207Z</time></trkpt><trkpt lat="43.586925" lon="11.518905"><ele>131.0</ele><time>2026-05-01T07:20:53.206Z</time></trkpt><trkpt lat="43.5868617" lon="11.518995"><ele>131.0</ele><time>2026-05-01T07:20:54.206Z</time></trkpt><trkpt lat="43.5867983" lon="11.5190867"><ele>130.83333333333331</ele><time>2026-05-01T07:20:55.206Z</time></trkpt><trkpt lat="43.586735" lon="11.5191733"><ele>130.66666666666666</ele><time>2026-05-01T07:20:56.207Z</time></trkpt><trkpt lat="43.5866733" lon="11.51926"><ele>130.5</ele><time>2026-05-01T07:20:57.206Z</time></trkpt><trkpt lat="43.5866117" lon="11.519345"><ele>130.33333333333334</ele><time>2026-05-01T07:20:58.204Z</time></trkpt><trkpt lat="43.58655" lon="11.519435"><ele>130.16666666666669</ele><time>2026-05-01T07:20:59.207Z</time></trkpt><trkpt lat="43.586485" lon="11.5195233"><ele>130.0</ele><time>2026-05-01T07:21:00.208Z</time></trkpt><trkpt lat="43.5864217" lon="11.5196083"><ele>130.33333333333334</ele><time>2026-05-01T07:21:01.207Z</time></trkpt><trkpt lat="43.5863583" lon="11.5196967"><ele>130.66666666666669</ele><time>2026-05-01T07:21:02.208Z</time></trkpt><trkpt lat="43.5862983" lon="11.5197833"><ele>131.0</ele><time>2026-05-01T07:21:03.206Z</time></trkpt><trkpt lat="43.5862333" lon="11.5198717"><ele>131.33333333333334</ele><time>2026-05-01T07:21:04.208Z</time></trkpt><trkpt lat="43.5861683" lon="11.51996"><ele>131.66666666666666</ele><time>2026-05-01T07:21:05.207Z</time></trkpt><trkpt lat="43.5861067" lon="11.5200467"><ele>132.0</ele><time>2026-05-01T07:21:06.207Z</time></trkpt><trkpt lat="43.5860467" lon="11.520135"><ele>132.0</ele><time>2026-05-01T07:21:07.204Z</time></trkpt><trkpt lat="43.5859833" lon="11.52022"><ele>132.0</ele><time>2026-05-01T07:21:08.206Z</time></trkpt><trkpt lat="43.58592" lon="11.5203083"><ele>132.0</ele><time>2026-05-01T07:21:09.208Z</time></trkpt><trkpt lat="43.5858567" lon="11.520395"><ele>132.0</ele><time>2026-05-01T07:21:10.208Z</time></trkpt><trkpt lat="43.5857933" lon="11.5204833"><ele>132.0</ele><time>2026-05-01T07:21:11.206Z</time></trkpt><trkpt lat="43.5857267" lon="11.5205717"><ele>132.4</ele><time>2026-05-01T07:21:12.208Z</time></trkpt><trkpt lat="43.5856617" lon="11.5206617"><ele>132.79999999999998</ele><time>2026-05-01T07:21:13.206Z</time></trkpt><trkpt lat="43.5855983" lon="11.52075"><ele>133.2</ele><time>2026-05-01T07:21:14.206Z</time></trkpt><trkpt lat="43.5855367" lon="11.5208417"><ele>133.6</ele><time>2026-05-01T07:21:15.207Z</time></trkpt><trkpt lat="43.585475" lon="11.5209317"><ele>134.0</ele><time>2026-05-01T07:21:16.204Z</time></trkpt><trkpt lat="43.5854117" lon="11.5210217"><ele>134.0</ele><time>2026-05-01T07:21:17.208Z</time></trkpt><trkpt lat="43.5853467" lon="11.5211083"><ele>134.0</ele><time>2026-05-01T07:21:18.206Z</time></trkpt><trkpt lat="43.5852833" lon="11.5212"><ele>134.0</ele><time>2026-05-01T07:21:19.209Z</time></trkpt><trkpt lat="43.5852167" lon="11.5212917"><ele>134.0</ele><time>2026-05-01T07:21:20.208Z</time></trkpt><trkpt lat="43.5851483" lon="11.5213817"><ele>134.0</ele><time>2026-05-01T07:21:21.207Z</time></trkpt><trkpt lat="43.5850833" lon="11.5214717"><ele>133.6</ele><time>2026-05-01T07:21:22.206Z</time></trkpt><trkpt lat="43.5850167" lon="11.521565"><ele>133.2</ele><time>2026-05-01T07:21:23.207Z</time></trkpt><trkpt lat="43.584955" lon="11.521655"><ele>132.79999999999998</ele><time>2026-05-01T07:21:24.208Z</time></trkpt><trkpt lat="43.58489" lon="11.52175"><ele>132.4</ele><time>2026-05-01T07:21:25.209Z</time></trkpt><trkpt lat="43.584825" lon="11.52184"><ele>132.0</ele><time>2026-05-01T07:21:26.208Z</time></trkpt><trkpt lat="43.5847583" lon="11.52193"><ele>132.0</ele><time>2026-05-01T07:21:27.208Z</time></trkpt><trkpt lat="43.584695" lon="11.52202"><ele>132.0</ele><time>2026-05-01T07:21:28.206Z</time></trkpt><trkpt lat="43.58463" lon="11.5221117"><ele>132.0</ele><time>2026-05-01T07:21:29.206Z</time></trkpt><trkpt lat="43.5845667" lon="11.5222017"><ele>132.0</ele><time>2026-05-01T07:21:30.208Z</time></trkpt><trkpt lat="43.5845033" lon="11.52229"><ele>132.0</ele><time>2026-05-01T07:21:31.207Z</time></trkpt><trkpt lat="43.5844367" lon="11.5223783"><ele>131.79999999999998</ele><time>2026-05-01T07:21:32.206Z</time></trkpt><trkpt lat="43.5843717" lon="11.5224683"><ele>131.6</ele><time>2026-05-01T07:21:33.206Z</time></trkpt><trkpt lat="43.5843067" lon="11.5225583"><ele>131.39999999999998</ele><time>2026-05-01T07:21:34.207Z</time></trkpt><trkpt lat="43.5842433" lon="11.5226483"><ele>131.2</ele><time>2026-05-01T07:21:35.205Z</time></trkpt><trkpt lat="43.5841783" lon="11.5227383"><ele>131.0</ele><time>2026-05-01T07:21:36.205Z</time></trkpt><trkpt lat="43.5841133" lon="11.52283"><ele>131.66666666666666</ele><time>2026-05-01T07:21:37.207Z</time></trkpt><trkpt lat="43.5840517" lon="11.5229217"><ele>132.33333333333331</ele><time>2026-05-01T07:21:38.207Z</time></trkpt><trkpt lat="43.5839917" lon="11.5230133"><ele>133.0</ele><time>2026-05-01T07:21:39.207Z</time></trkpt><trkpt lat="43.58393" lon="11.5231033"><ele>133.66666666666666</ele><time>2026-05-01T07:21:40.208Z</time></trkpt><trkpt lat="43.5838683" lon="11.5231917"><ele>134.33333333333334</ele><time>2026-05-01T07:21:41.21Z</time></trkpt><trkpt lat="43.583805" lon="11.52328"><ele>135.0</ele><time>2026-05-01T07:21:42.208Z</time></trkpt><trkpt lat="43.58374" lon="11.5233683"><ele>134.66666666666666</ele><time>2026-05-01T07:21:43.209Z</time></trkpt><trkpt lat="43.58368" lon="11.523455"><ele>134.33333333333334</ele><time>2026-05-01T07:21:44.207Z</time></trkpt><trkpt lat="43.58362" lon="11.5235433"><ele>134.0</ele><time>2026-05-01T07:21:45.207Z</time></trkpt><trkpt lat="43.58356" lon="11.5236317"><ele>133.66666666666669</ele><time>2026-05-01T07:21:46.207Z</time></trkpt><trkpt lat="43.5834967" lon="11.52372"><ele>133.33333333333334</ele><time>2026-05-01T07:21:47.208Z</time></trkpt><trkpt lat="43.5834333" lon="11.52381"><ele>133.0</ele><time>2026-05-01T07:21:48.207Z</time></trkpt><trkpt lat="43.5833717" lon="11.5239017"><ele>133.0</ele><time>2026-05-01T07:21:49.206Z</time></trkpt><trkpt lat="43.5833067" lon="11.5239933"><ele>133.0</ele><time>2026-05-01T07:21:50.21Z</time></trkpt><trkpt lat="43.583245" lon="11.5240833"><ele>133.0</ele><time>2026-05-01T07:21:51.208Z</time></trkpt><trkpt lat="43.5831833" lon="11.524175"><ele>133.0</ele><time>2026-05-01T07:21:52.206Z</time></trkpt><trkpt lat="43.5831217" lon="11.524265"><ele>133.0</ele><time>2026-05-01T07:21:53.208Z</time></trkpt><trkpt lat="43.58306" lon="11.5243517"><ele>133.0</ele><time>2026-05-01T07:21:54.207Z</time></trkpt><trkpt lat="43.5829983" lon="11.52444"><ele>133.0</ele><time>2026-05-01T07:21:55.206Z</time></trkpt><trkpt lat="43.58294" lon="11.52453"><ele>133.0</ele><time>2026-05-01T07:21:56.207Z</time></trkpt><trkpt lat="43.5828817" lon="11.52462"><ele>133.0</ele><time>2026-05-01T07:21:57.206Z</time></trkpt><trkpt lat="43.5828233" lon="11.52471"><ele>133.0</ele><time>2026-05-01T07:21:58.209Z</time></trkpt><trkpt lat="43.5827633" lon="11.5248"><ele>133.0</ele><time>2026-05-01T07:21:59.207Z</time></trkpt><trkpt lat="43.582705" lon="11.5248933"><ele>132.83333333333334</ele><time>2026-05-01T07:22:00.207Z</time></trkpt><trkpt lat="43.582645" lon="11.524985"><ele>132.66666666666669</ele><time>2026-05-01T07:22:01.206Z</time></trkpt><trkpt lat="43.58259" lon="11.5250783"><ele>132.5</ele><time>2026-05-01T07:22:02.208Z</time></trkpt><trkpt lat="43.58253" lon="11.5251733"><ele>132.33333333333334</ele><time>2026-05-01T07:22:03.206Z</time></trkpt><trkpt lat="43.5824717" lon="11.52527"><ele>132.16666666666666</ele><time>2026-05-01T07:22:04.207Z</time></trkpt><trkpt lat="43.5824167" lon="11.5253683"><ele>132.0</ele><time>2026-05-01T07:22:05.207Z</time></trkpt><trkpt lat="43.5823617" lon="11.525465"><ele>132.5</ele><time>2026-05-01T07:22:06.208Z</time></trkpt><trkpt lat="43.5823067" lon="11.52556"><ele>133.0</ele><time>2026-05-01T07:22:07.208Z</time></trkpt><trkpt lat="43.5822533" lon="11.525655"><ele>133.5</ele><time>2026-05-01T07:22:08.208Z</time></trkpt><trkpt lat="43.5821967" lon="11.525755"><ele>134.0</ele><time>2026-05-01T07:22:09.207Z</time></trkpt><trkpt lat="43.5821467" lon="11.525855"><ele>134.5</ele><time>2026-05-01T07:22:10.207Z</time></trkpt><trkpt lat="43.5820933" lon="11.5259617"><ele>135.0</ele><time>2026-05-01T07:22:11.207Z</time></trkpt><trkpt lat="43.5820433" lon="11.5260617"><ele>134.6</ele><time>2026-05-01T07:22:12.207Z</time></trkpt><trkpt lat="43.581995" lon="11.5261667"><ele>134.2</ele><time>2026-05-01T07:22:13.205Z</time></trkpt><trkpt lat="43.5819433" lon="11.5262717"><ele>133.8</ele><time>2026-05-01T07:22:14.206Z</time></trkpt><trkpt lat="43.5818933" lon="11.526375"><ele>133.4</ele><time>2026-05-01T07:22:15.207Z</time></trkpt><trkpt lat="43.581845" lon="11.52648"><ele>133.0</ele><time>2026-05-01T07:22:16.206Z</time></trkpt><trkpt lat="43.5817967" lon="11.5265867"><ele>133.0</ele><time>2026-05-01T07:22:17.208Z</time></trkpt><trkpt lat="43.58175" lon="11.5266917"><ele>133.0</ele><time>2026-05-01T07:22:18.206Z</time></trkpt><trkpt lat="43.5817033" lon="11.5267967"><ele>133.0</ele><time>2026-05-01T07:22:19.208Z</time></trkpt><trkpt lat="43.5816533" lon="11.526905"><ele>133.0</ele><time>2026-05-01T07:22:20.21Z</time></trkpt><trkpt lat="43.5816083" lon="11.5270133"><ele>133.0</ele><time>2026-05-01T07:22:21.206Z</time></trkpt><trkpt lat="43.5815617" lon="11.5271233"><ele>133.20000000000002</ele><time>2026-05-01T07:22:22.207Z</time></trkpt><trkpt lat="43.5815167" lon="11.527235"><ele>133.4</ele><time>2026-05-01T07:22:23.208Z</time></trkpt><trkpt lat="43.5814733" lon="11.527345"><ele>133.60000000000002</ele><time>2026-05-01T07:22:24.209Z</time></trkpt><trkpt lat="43.58143" lon="11.5274583"><ele>133.8</ele><time>2026-05-01T07:22:25.206Z</time></trkpt><trkpt lat="43.5813867" lon="11.5275717"><ele>134.0</ele><time>2026-05-01T07:22:26.205Z</time></trkpt><trkpt lat="43.5813467" lon="11.5276833"><ele>134.0</ele><time>2026-05-01T07:22:27.206Z</time></trkpt><trkpt lat="43.5813083" lon="11.5278"><ele>134.0</ele><time>2026-05-01T07:22:28.206Z</time></trkpt><trkpt lat="43.5812683" lon="11.5279183"><ele>134.0</ele><time>2026-05-01T07:22:29.207Z</time></trkpt><trkpt lat="43.5812283" lon="11.528035"><ele>134.0</ele><time>2026-05-01T07:22:30.209Z</time></trkpt><trkpt lat="43.58119" lon="11.5281517"><ele>134.0</ele><time>2026-05-01T07:22:31.207Z</time></trkpt><trkpt lat="43.5811517" lon="11.5282717"><ele>133.4</ele><time>2026-05-01T07:22:32.208Z</time></trkpt><trkpt lat="43.58111" lon="11.52839"><ele>132.8</ele><time>2026-05-01T07:22:33.207Z</time></trkpt><trkpt lat="43.58107" lon="11.5285083"><ele>132.2</ele><time>2026-05-01T07:22:34.207Z</time></trkpt><trkpt lat="43.5810267" lon="11.52863"><ele>131.6</ele><time>2026-05-01T07:22:35.206Z</time></trkpt><trkpt lat="43.5809833" lon="11.5287517"><ele>131.0</ele><time>2026-05-01T07:22:36.205Z</time></trkpt><trkpt lat="43.5809417" lon="11.5288683"><ele>130.6</ele><time>2026-05-01T07:22:37.208Z</time></trkpt><trkpt lat="43.5808967" lon="11.5289833"><ele>130.2</ele><time>2026-05-01T07:22:38.208Z</time></trkpt><trkpt lat="43.5808483" lon="11.5290917"><ele>129.8</ele><time>2026-05-01T07:22:39.207Z</time></trkpt><trkpt lat="43.580795" lon="11.5291983"><ele>129.4</ele><time>2026-05-01T07:22:40.206Z</time></trkpt><trkpt lat="43.5807383" lon="11.5292983"><ele>129.0</ele><time>2026-05-01T07:22:41.207Z</time></trkpt><trkpt lat="43.5806767" lon="11.529395"><ele>129.0</ele><time>2026-05-01T07:22:42.207Z</time></trkpt><trkpt lat="43.5806133" lon="11.5294867"><ele>129.0</ele><time>2026-05-01T07:22:43.207Z</time></trkpt><trkpt lat="43.5805483" lon="11.5295767"><ele>129.0</ele><time>2026-05-01T07:22:44.208Z</time></trkpt><trkpt lat="43.5804783" lon="11.52966"><ele>129.0</ele><time>2026-05-01T07:22:45.207Z</time></trkpt><trkpt lat="43.5804017" lon="11.5297367"><ele>129.0</ele><time>2026-05-01T07:22:46.207Z</time></trkpt><trkpt lat="43.5803233" lon="11.5298033"><ele>129.0</ele><time>2026-05-01T07:22:47.205Z</time></trkpt><trkpt lat="43.58024" lon="11.5298667"><ele>129.0</ele><time>2026-05-01T07:22:48.208Z</time></trkpt><trkpt lat="43.5801617" lon="11.5299317"><ele>129.0</ele><time>2026-05-01T07:22:49.208Z</time></trkpt><trkpt lat="43.5800867" lon="11.53"><ele>129.0</ele><time>2026-05-01T07:22:50.207Z</time></trkpt><trkpt lat="43.5800133" lon="11.53007"><ele>129.0</ele><time>2026-05-01T07:22:51.206Z</time></trkpt><trkpt lat="43.5799417" lon="11.530145"><ele>129.0</ele><time>2026-05-01T07:22:52.206Z</time></trkpt><trkpt lat="43.57987" lon="11.5302233"><ele>129.0</ele><time>2026-05-01T07:22:53.207Z</time></trkpt><trkpt lat="43.579805" lon="11.5303083"><ele>129.0</ele><time>2026-05-01T07:22:54.207Z</time></trkpt><trkpt lat="43.5797417" lon="11.5303983"><ele>129.0</ele><time>2026-05-01T07:22:55.209Z</time></trkpt><trkpt lat="43.5796783" lon="11.53049"><ele>129.0</ele><time>2026-05-01T07:22:56.207Z</time></trkpt><trkpt lat="43.57962" lon="11.5305833"><ele>129.0</ele><time>2026-05-01T07:22:57.207Z</time></trkpt><trkpt lat="43.57956" lon="11.5306817"><ele>129.0</ele><time>2026-05-01T07:22:58.206Z</time></trkpt><trkpt lat="43.5795033" lon="11.5307867"><ele>129.0</ele><time>2026-05-01T07:22:59.208Z</time></trkpt><trkpt lat="43.5794483" lon="11.5308883"><ele>129.0</ele><time>2026-05-01T07:23:00.207Z</time></trkpt><trkpt lat="43.5793933" lon="11.5309883"><ele>129.0</ele><time>2026-05-01T07:23:01.208Z</time></trkpt><trkpt lat="43.5793367" lon="11.53109"><ele>129.4</ele><time>2026-05-01T07:23:02.207Z</time></trkpt><trkpt lat="43.5792817" lon="11.53119"><ele>129.8</ele><time>2026-05-01T07:23:03.206Z</time></trkpt><trkpt lat="43.5792283" lon="11.53129"><ele>130.2</ele><time>2026-05-01T07:23:04.207Z</time></trkpt><trkpt lat="43.5791733" lon="11.53139"><ele>130.6</ele><time>2026-05-01T07:23:05.21Z</time></trkpt><trkpt lat="43.57912" lon="11.5314917"><ele>131.0</ele><time>2026-05-01T07:23:06.207Z</time></trkpt><trkpt lat="43.5790683" lon="11.53159"><ele>131.0</ele><time>2026-05-01T07:23:07.207Z</time></trkpt><trkpt lat="43.579015" lon="11.5316883"><ele>131.0</ele><time>2026-05-01T07:23:08.207Z</time></trkpt><trkpt lat="43.578965" lon="11.5317867"><ele>131.0</ele><time>2026-05-01T07:23:09.206Z</time></trkpt><trkpt lat="43.5789117" lon="11.5318867"><ele>131.0</ele><time>2026-05-01T07:23:10.208Z</time></trkpt><trkpt lat="43.5788617" lon="11.531985"><ele>131.0</ele><time>2026-05-01T07:23:11.205Z</time></trkpt><trkpt lat="43.5788083" lon="11.5320833"><ele>131.0</ele><time>2026-05-01T07:23:12.206Z</time></trkpt><trkpt lat="43.5787567" lon="11.53218"><ele>130.83333333333331</ele><time>2026-05-01T07:23:13.206Z</time></trkpt><trkpt lat="43.5787017" lon="11.5322817"><ele>130.66666666666666</ele><time>2026-05-01T07:23:14.206Z</time></trkpt><trkpt lat="43.5786533" lon="11.532375"><ele>130.5</ele><time>2026-05-01T07:23:15.208Z</time></trkpt><trkpt lat="43.578605" lon="11.5324683"><ele>130.33333333333334</ele><time>2026-05-01T07:23:16.204Z</time></trkpt><trkpt lat="43.5785567" lon="11.5325617"><ele>130.16666666666669</ele><time>2026-05-01T07:23:17.206Z</time></trkpt><trkpt lat="43.5785083" lon="11.532655"><ele>130.0</ele><time>2026-05-01T07:23:18.207Z</time></trkpt><trkpt lat="43.5784583" lon="11.5327483"><ele>130.5</ele><time>2026-05-01T07:23:19.208Z</time></trkpt><trkpt lat="43.5784133" lon="11.53284"><ele>131.0</ele><time>2026-05-01T07:23:20.209Z</time></trkpt><trkpt lat="43.5783683" lon="11.5329283"><ele>131.5</ele><time>2026-05-01T07:23:21.208Z</time></trkpt><trkpt lat="43.5783233" lon="11.5330183"><ele>132.0</ele><time>2026-05-01T07:23:22.205Z</time></trkpt><trkpt lat="43.57828" lon="11.5331083"><ele>132.5</ele><time>2026-05-01T07:23:23.207Z</time></trkpt><trkpt lat="43.5782383" lon="11.5332"><ele>133.0</ele><time>2026-05-01T07:23:24.207Z</time></trkpt><trkpt lat="43.5781983" lon="11.5332883"><ele>133.0</ele><time>2026-05-01T07:23:25.207Z</time></trkpt><trkpt lat="43.578155" lon="11.53338"><ele>133.0</ele><time>2026-05-01T07:23:26.208Z</time></trkpt><trkpt lat="43.578115" lon="11.5334733"><ele>133.0</ele><time>2026-05-01T07:23:27.207Z</time></trkpt><trkpt lat="43.5780767" lon="11.5335717"><ele>133.0</ele><time>2026-05-01T07:23:28.207Z</time></trkpt><trkpt lat="43.57804" lon="11.53367"><ele>133.0</ele><time>2026-05-01T07:23:29.207Z</time></trkpt><trkpt lat="43.5779983" lon="11.533775"><ele>133.0</ele><time>2026-05-01T07:23:30.207Z</time></trkpt><trkpt lat="43.5779517" lon="11.5338733"><ele>133.5</ele><time>2026-05-01T07:23:31.207Z</time></trkpt><trkpt lat="43.577895" lon="11.5339583"><ele>134.0</ele><time>2026-05-01T07:23:32.207Z</time></trkpt><trkpt lat="43.5778233" lon="11.5340317"><ele>134.5</ele><time>2026-05-01T07:23:33.21Z</time></trkpt><trkpt lat="43.577755" lon="11.5340983"><ele>135.0</ele><time>2026-05-01T07:23:34.207Z</time></trkpt><trkpt lat="43.5776883" lon="11.5341783"><ele>135.5</ele><time>2026-05-01T07:23:35.208Z</time></trkpt><trkpt lat="43.5776383" lon="11.53427"><ele>136.0</ele><time>2026-05-01T07:23:36.207Z</time></trkpt><trkpt lat="43.5776017" lon="11.5343717"><ele>136.0</ele><time>2026-05-01T07:23:37.206Z</time></trkpt><trkpt lat="43.57757" lon="11.53448"><ele>136.0</ele><time>2026-05-01T07:23:38.209Z</time></trkpt><trkpt lat="43.5775333" lon="11.534585"><ele>136.0</ele><time>2026-05-01T07:23:39.207Z</time></trkpt><trkpt lat="43.5774867" lon="11.5346817"><ele>136.0</ele><time>2026-05-01T07:23:40.207Z</time></trkpt><trkpt lat="43.57743" lon="11.534765"><ele>136.0</ele><time>2026-05-01T07:23:41.207Z</time></trkpt><trkpt lat="43.5773667" lon="11.5348383"><ele>136.0</ele><time>2026-05-01T07:23:42.208Z</time></trkpt><trkpt lat="43.5773017" lon="11.5349083"><ele>136.0</ele><time>2026-05-01T07:23:43.207Z</time></trkpt><trkpt lat="43.5772383" lon="11.534985"><ele>136.0</ele><time>2026-05-01T07:23:44.207Z</time></trkpt><trkpt lat="43.577175" lon="11.5350583"><ele>136.0</ele><time>2026-05-01T07:23:45.207Z</time></trkpt><trkpt lat="43.5771117" lon="11.5351317"><ele>136.0</ele><time>2026-05-01T07:23:46.206Z</time></trkpt><trkpt lat="43.5770467" lon="11.5352033"><ele>136.0</ele><time>2026-05-01T07:23:47.205Z</time></trkpt><trkpt lat="43.576985" lon="11.5352767"><ele>136.0</ele><time>2026-05-01T07:23:48.209Z</time></trkpt><trkpt lat="43.576925" lon="11.535345"><ele>135.83333333333334</ele><time>2026-05-01T07:23:49.207Z</time></trkpt><trkpt lat="43.5768617" lon="11.53541"><ele>135.66666666666669</ele><time>2026-05-01T07:23:50.207Z</time></trkpt><trkpt lat="43.5768017" lon="11.53548"><ele>135.5</ele><time>2026-05-01T07:23:51.207Z</time></trkpt><trkpt lat="43.576745" lon="11.5355483"><ele>135.33333333333334</ele><time>2026-05-01T07:23:52.206Z</time></trkpt><trkpt lat="43.5766867" lon="11.5356167"><ele>135.16666666666666</ele><time>2026-05-01T07:23:53.207Z</time></trkpt><trkpt lat="43.5766283" lon="11.5356833"><ele>135.0</ele><time>2026-05-01T07:23:54.208Z</time></trkpt><trkpt lat="43.57657" lon="11.535745"><ele>135.0</ele><time>2026-05-01T07:23:55.208Z</time></trkpt><trkpt lat="43.5765133" lon="11.5358133"><ele>135.0</ele><time>2026-05-01T07:23:56.208Z</time></trkpt><trkpt lat="43.5764583" lon="11.53588"><ele>135.0</ele><time>2026-05-01T07:23:57.206Z</time></trkpt><trkpt lat="43.5764067" lon="11.535945"><ele>135.0</ele><time>2026-05-01T07:23:58.208Z</time></trkpt><trkpt lat="43.5763533" lon="11.53601"><ele>135.0</ele><time>2026-05-01T07:23:59.207Z</time></trkpt><trkpt lat="43.5763017" lon="11.5360767"><ele>135.0</ele><time>2026-05-01T07:24:00.207Z</time></trkpt><trkpt lat="43.5762517" lon="11.5361433"><ele>135.0</ele><time>2026-05-01T07:24:01.21Z</time></trkpt><trkpt lat="43.5761983" lon="11.5362033"><ele>135.66666666666666</ele><time>2026-05-01T07:24:02.209Z</time></trkpt><trkpt lat="43.5761433" lon="11.5362633"><ele>136.33333333333334</ele><time>2026-05-01T07:24:03.208Z</time></trkpt><trkpt lat="43.5760867" lon="11.5363267"><ele>137.0</ele><time>2026-05-01T07:24:04.206Z</time></trkpt><trkpt lat="43.5760267" lon="11.5363917"><ele>137.66666666666669</ele><time>2026-05-01T07:24:05.21Z</time></trkpt><trkpt lat="43.5759633" lon="11.5364583"><ele>138.33333333333334</ele><time>2026-05-01T07:24:06.207Z</time></trkpt><trkpt lat="43.5758967" lon="11.5365267"><ele>139.0</ele><time>2026-05-01T07:24:07.208Z</time></trkpt><trkpt lat="43.5758317" lon="11.5366017"><ele>139.0</ele><time>2026-05-01T07:24:08.207Z</time></trkpt><trkpt lat="43.5757633" lon="11.53668"><ele>139.0</ele><time>2026-05-01T07:24:09.206Z</time></trkpt><trkpt lat="43.575695" lon="11.5367617"><ele>139.0</ele><time>2026-05-01T07:24:10.205Z</time></trkpt><trkpt lat="43.575625" lon="11.536845"><ele>139.0</ele><time>2026-05-01T07:24:11.208Z</time></trkpt><trkpt lat="43.5755533" lon="11.5369267"><ele>139.0</ele><time>2026-05-01T07:24:12.207Z</time></trkpt><trkpt lat="43.57548" lon="11.5370083"><ele>139.0</ele><time>2026-05-01T07:24:13.209Z</time></trkpt><trkpt lat="43.57541" lon="11.53709"><ele>139.0</ele><time>2026-05-01T07:24:14.207Z</time></trkpt><trkpt lat="43.575335" lon="11.537175"><ele>139.0</ele><time>2026-05-01T07:24:15.206Z</time></trkpt><trkpt lat="43.5752583" lon="11.5372583"><ele>139.0</ele><time>2026-05-01T07:24:16.208Z</time></trkpt><trkpt lat="43.5751833" lon="11.5373417"><ele>139.0</ele><time>2026-05-01T07:24:17.208Z</time></trkpt><trkpt lat="43.5751083" lon="11.5374283"><ele>139.0</ele><time>2026-05-01T07:24:18.207Z</time></trkpt><trkpt lat="43.5750317" lon="11.5375183"><ele>139.0</ele><time>2026-05-01T07:24:19.208Z</time></trkpt><trkpt lat="43.5749533" lon="11.5376083"><ele>139.0</ele><time>2026-05-01T07:24:20.207Z</time></trkpt><trkpt lat="43.5748783" lon="11.537695"><ele>139.0</ele><time>2026-05-01T07:24:21.207Z</time></trkpt><trkpt lat="43.5748017" lon="11.53778"><ele>139.0</ele><time>2026-05-01T07:24:22.208Z</time></trkpt><trkpt lat="43.574725" lon="11.537865"><ele>139.6</ele><time>2026-05-01T07:24:23.208Z</time></trkpt><trkpt lat="43.5746483" lon="11.53795"><ele>140.2</ele><time>2026-05-01T07:24:24.208Z</time></trkpt><trkpt lat="43.574575" lon="11.538035"><ele>140.79999999999998</ele><time>2026-05-01T07:24:25.207Z</time></trkpt><trkpt lat="43.5745017" lon="11.5381217"><ele>141.4</ele><time>2026-05-01T07:24:26.207Z</time></trkpt><trkpt lat="43.5744267" lon="11.53821"><ele>142.0</ele><time>2026-05-01T07:24:27.208Z</time></trkpt><trkpt lat="43.5743533" lon="11.5382983"><ele>140.79999999999998</ele><time>2026-05-01T07:24:28.207Z</time></trkpt><trkpt lat="43.5742767" lon="11.538385"><ele>139.6</ele><time>2026-05-01T07:24:29.207Z</time></trkpt><trkpt lat="43.5742017" lon="11.5384683"><ele>138.39999999999998</ele><time>2026-05-01T07:24:30.208Z</time></trkpt><trkpt lat="43.5741333" lon="11.5385567"><ele>137.2</ele><time>2026-05-01T07:24:31.208Z</time></trkpt><trkpt lat="43.5740617" lon="11.5386417"><ele>136.0</ele><time>2026-05-01T07:24:32.208Z</time></trkpt><trkpt lat="43.5739883" lon="11.538725"><ele>136.0</ele><time>2026-05-01T07:24:33.206Z</time></trkpt><trkpt lat="43.5739183" lon="11.5388083"><ele>136.0</ele><time>2026-05-01T07:24:34.208Z</time></trkpt><trkpt lat="43.57385" lon="11.538895"><ele>136.0</ele><time>2026-05-01T07:24:35.208Z</time></trkpt><trkpt lat="43.5737833" lon="11.5389833"><ele>136.0</ele><time>2026-05-01T07:24:36.207Z</time></trkpt><trkpt lat="43.5737133" lon="11.53907"><ele>136.0</ele><time>2026-05-01T07:24:37.207Z</time></trkpt><trkpt lat="43.5736417" lon="11.5391583"><ele>135.8</ele><time>2026-05-01T07:24:38.209Z</time></trkpt><trkpt lat="43.5735733" lon="11.539245"><ele>135.6</ele><time>2026-05-01T07:24:39.206Z</time></trkpt><trkpt lat="43.5735017" lon="11.5393317"><ele>135.4</ele><time>2026-05-01T07:24:40.206Z</time></trkpt><trkpt lat="43.5734333" lon="11.5394183"><ele>135.2</ele><time>2026-05-01T07:24:41.206Z</time></trkpt><trkpt lat="43.5733683" lon="11.5395083"><ele>135.0</ele><time>2026-05-01T07:24:42.207Z</time></trkpt><trkpt lat="43.5732967" lon="11.539595"><ele>135.0</ele><time>2026-05-01T07:24:43.207Z</time></trkpt><trkpt lat="43.5732283" lon="11.5396817"><ele>135.0</ele><time>2026-05-01T07:24:44.207Z</time></trkpt><trkpt lat="43.57316" lon="11.5397683"><ele>135.0</ele><time>2026-05-01T07:24:45.208Z</time></trkpt><trkpt lat="43.5730883" lon="11.53986"><ele>135.0</ele><time>2026-05-01T07:24:46.207Z</time></trkpt><trkpt lat="43.57302" lon="11.5399483"><ele>135.0</ele><time>2026-05-01T07:24:47.208Z</time></trkpt><trkpt lat="43.572955" lon="11.54004"><ele>135.0</ele><time>2026-05-01T07:24:48.207Z</time></trkpt><trkpt lat="43.5728933" lon="11.5401383"><ele>135.0</ele><time>2026-05-01T07:24:49.206Z</time></trkpt><trkpt lat="43.572835" lon="11.5402383"><ele>135.0</ele><time>2026-05-01T07:24:50.207Z</time></trkpt><trkpt lat="43.5727733" lon="11.5403383"><ele>135.0</ele><time>2026-05-01T07:24:51.207Z</time></trkpt><trkpt lat="43.57271" lon="11.540435"><ele>135.0</ele><time>2026-05-01T07:24:52.207Z</time></trkpt><trkpt lat="43.5726483" lon="11.54053"><ele>135.0</ele><time>2026-05-01T07:24:53.208Z</time></trkpt><trkpt lat="43.572585" lon="11.540625"><ele>135.0</ele><time>2026-05-01T07:24:54.208Z</time></trkpt><trkpt lat="43.5725233" lon="11.54072"><ele>135.0</ele><time>2026-05-01T07:24:55.207Z</time></trkpt><trkpt lat="43.57246" lon="11.5408133"><ele>135.0</ele><time>2026-05-01T07:24:56.207Z</time></trkpt><trkpt lat="43.572395" lon="11.5409017"><ele>135.0</ele><time>2026-05-01T07:24:57.206Z</time></trkpt><trkpt lat="43.57233" lon="11.54099"><ele>135.0</ele><time>2026-05-01T07:24:58.207Z</time></trkpt><trkpt lat="43.5722633" lon="11.5410767"><ele>135.0</ele><time>2026-05-01T07:24:59.207Z</time></trkpt><trkpt lat="43.5721933" lon="11.5411617"><ele>135.0</ele><time>2026-05-01T07:25:00.207Z</time></trkpt><trkpt lat="43.5721267" lon="11.5412433"><ele>135.0</ele><time>2026-05-01T07:25:01.207Z</time></trkpt><trkpt lat="43.5720567" lon="11.5413233"><ele>135.0</ele><time>2026-05-01T07:25:02.209Z</time></trkpt><trkpt lat="43.571985" lon="11.5413983"><ele>135.33333333333334</ele><time>2026-05-01T07:25:03.208Z</time></trkpt><trkpt lat="43.571915" lon="11.5414717"><ele>135.66666666666666</ele><time>2026-05-01T07:25:04.207Z</time></trkpt><trkpt lat="43.5718467" lon="11.541545"><ele>136.0</ele><time>2026-05-01T07:25:05.208Z</time></trkpt><trkpt lat="43.5717717" lon="11.5416167"><ele>136.33333333333331</ele><time>2026-05-01T07:25:06.208Z</time></trkpt><trkpt lat="43.5716967" lon="11.5416817"><ele>136.66666666666666</ele><time>2026-05-01T07:25:07.208Z</time></trkpt><trkpt lat="43.5716233" lon="11.5417483"><ele>137.0</ele><time>2026-05-01T07:25:08.205Z</time></trkpt><trkpt lat="43.5715467" lon="11.5418067"><ele>137.0</ele><time>2026-05-01T07:25:09.207Z</time></trkpt><trkpt lat="43.57147" lon="11.5418667"><ele>137.0</ele><time>2026-05-01T07:25:10.206Z</time></trkpt><trkpt lat="43.5714067" lon="11.5419317"><ele>137.0</ele><time>2026-05-01T07:25:11.205Z</time></trkpt><trkpt lat="43.57134" lon="11.5419967"><ele>137.0</ele><time>2026-05-01T07:25:12.207Z</time></trkpt><trkpt lat="43.5712733" lon="11.5420617"><ele>137.0</ele><time>2026-05-01T07:25:13.208Z</time></trkpt><trkpt lat="43.571205" lon="11.542125"><ele>137.0</ele><time>2026-05-01T07:25:14.206Z</time></trkpt><trkpt lat="43.5711383" lon="11.5421917"><ele>137.16666666666666</ele><time>2026-05-01T07:25:15.207Z</time></trkpt><trkpt lat="43.57107" lon="11.5422567"><ele>137.33333333333331</ele><time>2026-05-01T07:25:16.204Z</time></trkpt><trkpt lat="43.5710083" lon="11.5423283"><ele>137.5</ele><time>2026-05-01T07:25:17.208Z</time></trkpt><trkpt lat="43.570945" lon="11.5424"><ele>137.66666666666666</ele><time>2026-05-01T07:25:18.207Z</time></trkpt><trkpt lat="43.5708817" lon="11.5424683"><ele>137.83333333333334</ele><time>2026-05-01T07:25:19.206Z</time></trkpt><trkpt lat="43.570815" lon="11.5425367"><ele>138.0</ele><time>2026-05-01T07:25:20.209Z</time></trkpt><trkpt lat="43.570745" lon="11.542605"><ele>138.0</ele><time>2026-05-01T07:25:21.207Z</time></trkpt><trkpt lat="43.5706783" lon="11.542675"><ele>138.0</ele><time>2026-05-01T07:25:22.205Z</time></trkpt><trkpt lat="43.5706133" lon="11.5427433"><ele>138.0</ele><time>2026-05-01T07:25:23.209Z</time></trkpt><trkpt lat="43.5705483" lon="11.5428133"><ele>138.0</ele><time>2026-05-01T07:25:24.207Z</time></trkpt><trkpt lat="43.5704833" lon="11.54288"><ele>138.0</ele><time>2026-05-01T07:25:25.209Z</time></trkpt><trkpt lat="43.570415" lon="11.542945"><ele>138.0</ele><time>2026-05-01T07:25:26.207Z</time></trkpt><trkpt lat="43.5703433" lon="11.5430017"><ele>137.66666666666666</ele><time>2026-05-01T07:25:27.206Z</time></trkpt><trkpt lat="43.5702683" lon="11.5430517"><ele>137.33333333333334</ele><time>2026-05-01T07:25:28.208Z</time></trkpt><trkpt lat="43.5701917" lon="11.54309"><ele>137.0</ele><time>2026-05-01T07:25:29.206Z</time></trkpt><trkpt lat="43.570105" lon="11.5431183"><ele>136.66666666666669</ele><time>2026-05-01T07:25:30.207Z</time></trkpt><trkpt lat="43.570025" lon="11.5431333"><ele>136.33333333333334</ele><time>2026-05-01T07:25:31.206Z</time></trkpt><trkpt lat="43.5699467" lon="11.5431383"><ele>136.0</ele><time>2026-05-01T07:25:32.208Z</time></trkpt><trkpt lat="43.5698667" lon="11.54313"><ele>135.99999999999997</ele><time>2026-05-01T07:25:33.207Z</time></trkpt><trkpt lat="43.5697883" lon="11.5431167"><ele>136.0</ele><time>2026-05-01T07:25:34.208Z</time></trkpt><trkpt lat="43.569715" lon="11.5430967"><ele>136.0</ele><time>2026-05-01T07:25:35.208Z</time></trkpt><trkpt lat="43.5696383" lon="11.5430717"><ele>136.0</ele><time>2026-05-01T07:25:36.207Z</time></trkpt><trkpt lat="43.5695667" lon="11.5430433"><ele>136.0</ele><time>2026-05-01T07:25:37.208Z</time></trkpt><trkpt lat="43.5694967" lon="11.5430183"><ele>135.99999999999997</ele><time>2026-05-01T07:25:38.207Z</time></trkpt><trkpt lat="43.56943" lon="11.542995"><ele>136.0</ele><time>2026-05-01T07:25:39.207Z</time></trkpt><trkpt lat="43.5693617" lon="11.5429767"><ele>136.4</ele><time>2026-05-01T07:25:40.205Z</time></trkpt><trkpt lat="43.5692983" lon="11.542965"><ele>136.8</ele><time>2026-05-01T07:25:41.207Z</time></trkpt><trkpt lat="43.5691983" lon="11.5429517"><ele>137.20000000000002</ele><time>2026-05-01T07:25:43.209Z</time></trkpt><trkpt lat="43.569095" lon="11.54294"><ele>137.6</ele><time>2026-05-01T07:25:45.207Z</time></trkpt><trkpt lat="43.5689967" lon="11.5429417"><ele>138.0</ele><time>2026-05-01T07:25:47.208Z</time></trkpt><trkpt lat="43.56889" lon="11.5429517"><ele>138.0</ele><time>2026-05-01T07:25:49.206Z</time></trkpt><trkpt lat="43.5687767" lon="11.54297"><ele>138.0</ele><time>2026-05-01T07:25:51.207Z</time></trkpt><trkpt lat="43.5686617" lon="11.5429867"><ele>138.0</ele><time>2026-05-01T07:25:53.21Z</time></trkpt><trkpt lat="43.56854" lon="11.5430183"><ele>138.0</ele><time>2026-05-01T07:25:55.207Z</time></trkpt><trkpt lat="43.568475" lon="11.5430367"><ele>138.0</ele><time>2026-05-01T07:25:56.209Z</time></trkpt><trkpt lat="43.5684083" lon="11.5430583"><ele>138.0</ele><time>2026-05-01T07:25:57.209Z</time></trkpt><trkpt lat="43.5683417" lon="11.5430783"><ele>138.0</ele><time>2026-05-01T07:25:58.209Z</time></trkpt><trkpt lat="43.5682733" lon="11.5431017"><ele>138.0</ele><time>2026-05-01T07:25:59.208Z</time></trkpt><trkpt lat="43.5682067" lon="11.5431233"><ele>138.0</ele><time>2026-05-01T07:26:00.208Z</time></trkpt><trkpt lat="43.5681383" lon="11.543145"><ele>138.0</ele><time>2026-05-01T07:26:01.208Z</time></trkpt><trkpt lat="43.56807" lon="11.5431633"><ele>138.0</ele><time>2026-05-01T07:26:02.206Z</time></trkpt><trkpt lat="43.5680033" lon="11.5431833"><ele>138.0</ele><time>2026-05-01T07:26:03.205Z</time></trkpt><trkpt lat="43.5679333" lon="11.5432017"><ele>138.0</ele><time>2026-05-01T07:26:04.208Z</time></trkpt><trkpt lat="43.5678617" lon="11.54322"><ele>138.0</ele><time>2026-05-01T07:26:05.207Z</time></trkpt><trkpt lat="43.5677917" lon="11.5432367"><ele>138.0</ele><time>2026-05-01T07:26:06.207Z</time></trkpt><trkpt lat="43.56772" lon="11.5432517"><ele>138.0</ele><time>2026-05-01T07:26:07.207Z</time></trkpt><trkpt lat="43.5676483" lon="11.543265"><ele>138.0</ele><time>2026-05-01T07:26:08.207Z</time></trkpt><trkpt lat="43.56757" lon="11.5432733"><ele>138.0</ele><time>2026-05-01T07:26:09.207Z</time></trkpt><trkpt lat="43.56749" lon="11.543275"><ele>138.0</ele><time>2026-05-01T07:26:10.208Z</time></trkpt><trkpt lat="43.567405" lon="11.5432733"><ele>138.5</ele><time>2026-05-01T07:26:11.208Z</time></trkpt><trkpt lat="43.5673167" lon="11.5432717"><ele>139.0</ele><time>2026-05-01T07:26:12.207Z</time></trkpt><trkpt lat="43.5672267" lon="11.5432667"><ele>139.5</ele><time>2026-05-01T07:26:13.208Z</time></trkpt><trkpt lat="43.5671333" lon="11.5432617"><ele>140.0</ele><time>2026-05-01T07:26:14.207Z</time></trkpt><trkpt lat="43.5670467" lon="11.54325"><ele>140.5</ele><time>2026-05-01T07:26:15.207Z</time></trkpt><trkpt lat="43.5669617" lon="11.5432367"><ele>141.0</ele><time>2026-05-01T07:26:16.205Z</time></trkpt><trkpt lat="43.5668733" lon="11.5432267"><ele>141.66666666666666</ele><time>2026-05-01T07:26:17.207Z</time></trkpt><trkpt lat="43.56679" lon="11.5432183"><ele>142.33333333333334</ele><time>2026-05-01T07:26:18.21Z</time></trkpt><trkpt lat="43.5667017" lon="11.5432083"><ele>143.0</ele><time>2026-05-01T07:26:19.209Z</time></trkpt><trkpt lat="43.56661" lon="11.5432"><ele>143.66666666666669</ele><time>2026-05-01T07:26:20.209Z</time></trkpt><trkpt lat="43.5665217" lon="11.5431917"><ele>144.33333333333334</ele><time>2026-05-01T07:26:21.207Z</time></trkpt><trkpt lat="43.5664317" lon="11.5431817"><ele>145.0</ele><time>2026-05-01T07:26:22.207Z</time></trkpt><trkpt lat="43.56634" lon="11.54317"><ele>145.0</ele><time>2026-05-01T07:26:23.206Z</time></trkpt><trkpt lat="43.5662467" lon="11.5431583"><ele>145.0</ele><time>2026-05-01T07:26:24.206Z</time></trkpt><trkpt lat="43.5661517" lon="11.5431483"><ele>145.0</ele><time>2026-05-01T07:26:25.207Z</time></trkpt><trkpt lat="43.566055" lon="11.5431367"><ele>145.0</ele><time>2026-05-01T07:26:26.207Z</time></trkpt><trkpt lat="43.5659617" lon="11.543125"><ele>145.0</ele><time>2026-05-01T07:26:27.207Z</time></trkpt><trkpt lat="43.5658667" lon="11.5431117"><ele>144.6</ele><time>2026-05-01T07:26:28.206Z</time></trkpt><trkpt lat="43.5657733" lon="11.5431"><ele>144.2</ele><time>2026-05-01T07:26:29.207Z</time></trkpt><trkpt lat="43.5656783" lon="11.54309"><ele>143.8</ele><time>2026-05-01T07:26:30.207Z</time></trkpt><trkpt lat="43.5655817" lon="11.5430833"><ele>143.4</ele><time>2026-05-01T07:26:31.208Z</time></trkpt><trkpt lat="43.5654867" lon="11.5430733"><ele>143.0</ele><time>2026-05-01T07:26:32.207Z</time></trkpt><trkpt lat="43.5653917" lon="11.5430633"><ele>142.0</ele><time>2026-05-01T07:26:33.207Z</time></trkpt><trkpt lat="43.565295" lon="11.5430533"><ele>141.0</ele><time>2026-05-01T07:26:34.207Z</time></trkpt><trkpt lat="43.5652" lon="11.5430433"><ele>140.0</ele><time>2026-05-01T07:26:35.208Z</time></trkpt><trkpt lat="43.565105" lon="11.5430317"><ele>139.0</ele><time>2026-05-01T07:26:36.207Z</time></trkpt><trkpt lat="43.56501" lon="11.54302"><ele>138.0</ele><time>2026-05-01T07:26:37.208Z</time></trkpt><trkpt lat="43.5649183" lon="11.5430133"><ele>138.0</ele><time>2026-05-01T07:26:38.207Z</time></trkpt><trkpt lat="43.564825" lon="11.543005"><ele>138.0</ele><time>2026-05-01T07:26:39.206Z</time></trkpt><trkpt lat="43.56473" lon="11.5429983"><ele>138.0</ele><time>2026-05-01T07:26:40.206Z</time></trkpt><trkpt lat="43.564635" lon="11.5429933"><ele>138.0</ele><time>2026-05-01T07:26:41.207Z</time></trkpt><trkpt lat="43.56454" lon="11.5429867"><ele>138.0</ele><time>2026-05-01T07:26:42.207Z</time></trkpt><trkpt lat="43.5644467" lon="11.5429833"><ele>137.8</ele><time>2026-05-01T07:26:43.206Z</time></trkpt><trkpt lat="43.5643533" lon="11.54298"><ele>137.60000000000002</ele><time>2026-05-01T07:26:44.206Z</time></trkpt><trkpt lat="43.5642617" lon="11.5429783"><ele>137.39999999999998</ele><time>2026-05-01T07:26:45.208Z</time></trkpt><trkpt lat="43.56417" lon="11.5429783"><ele>137.2</ele><time>2026-05-01T07:26:46.208Z</time></trkpt><trkpt lat="43.5640783" lon="11.5429767"><ele>137.0</ele><time>2026-05-01T07:26:47.206Z</time></trkpt><trkpt lat="43.56399" lon="11.54298"><ele>137.0</ele><time>2026-05-01T07:26:48.206Z</time></trkpt><trkpt lat="43.563905" lon="11.542985"><ele>137.0</ele><time>2026-05-01T07:26:49.208Z</time></trkpt><trkpt lat="43.5638183" lon="11.5429917"><ele>137.0</ele><time>2026-05-01T07:26:50.209Z</time></trkpt><trkpt lat="43.56373" lon="11.54299"><ele>137.0</ele><time>2026-05-01T07:26:51.207Z</time></trkpt><trkpt lat="43.5636417" lon="11.5429783"><ele>137.0</ele><time>2026-05-01T07:26:52.208Z</time></trkpt><trkpt lat="43.563555" lon="11.542965"><ele>137.0</ele><time>2026-05-01T07:26:53.207Z</time></trkpt><trkpt lat="43.5634717" lon="11.542955"><ele>137.0</ele><time>2026-05-01T07:26:54.207Z</time></trkpt><trkpt lat="43.5633867" lon="11.5429533"><ele>137.0</ele><time>2026-05-01T07:26:55.209Z</time></trkpt><trkpt lat="43.563305" lon="11.5429583"><ele>137.0</ele><time>2026-05-01T07:26:56.207Z</time></trkpt><trkpt lat="43.5632217" lon="11.542965"><ele>137.0</ele><time>2026-05-01T07:26:57.207Z</time></trkpt><trkpt lat="43.5631417" lon="11.5429633"><ele>137.0</ele><time>2026-05-01T07:26:58.207Z</time></trkpt><trkpt lat="43.56306" lon="11.5429467"><ele>137.0</ele><time>2026-05-01T07:26:59.207Z</time></trkpt><trkpt lat="43.5629817" lon="11.5429283"><ele>137.0</ele><time>2026-05-01T07:27:00.209Z</time></trkpt><trkpt lat="43.5629033" lon="11.5429067"><ele>137.0</ele><time>2026-05-01T07:27:01.206Z</time></trkpt><trkpt lat="43.5628267" lon="11.5428867"><ele>137.0</ele><time>2026-05-01T07:27:02.207Z</time></trkpt><trkpt lat="43.56275" lon="11.5428683"><ele>137.0</ele><time>2026-05-01T07:27:03.207Z</time></trkpt><trkpt lat="43.5626733" lon="11.54285"><ele>137.0</ele><time>2026-05-01T07:27:04.208Z</time></trkpt><trkpt lat="43.562595" lon="11.54283"><ele>137.0</ele><time>2026-05-01T07:27:05.207Z</time></trkpt><trkpt lat="43.5625167" lon="11.54281"><ele>136.66666666666666</ele><time>2026-05-01T07:27:06.207Z</time></trkpt><trkpt lat="43.562435" lon="11.5427917"><ele>136.33333333333331</ele><time>2026-05-01T07:27:07.207Z</time></trkpt><trkpt lat="43.562355" lon="11.5427767"><ele>136.0</ele><time>2026-05-01T07:27:08.209Z</time></trkpt><trkpt lat="43.5622767" lon="11.542765"><ele>135.66666666666666</ele><time>2026-05-01T07:27:09.207Z</time></trkpt><trkpt lat="43.562195" lon="11.5427567"><ele>135.33333333333334</ele><time>2026-05-01T07:27:10.208Z</time></trkpt><trkpt lat="43.562115" lon="11.542745"><ele>135.0</ele><time>2026-05-01T07:27:11.209Z</time></trkpt><trkpt lat="43.5620333" lon="11.542735"><ele>135.0</ele><time>2026-05-01T07:27:12.208Z</time></trkpt><trkpt lat="43.5619483" lon="11.5427267"><ele>135.0</ele><time>2026-05-01T07:27:13.207Z</time></trkpt><trkpt lat="43.5618683" lon="11.542715"><ele>135.0</ele><time>2026-05-01T07:27:14.207Z</time></trkpt><trkpt lat="43.561785" lon="11.5427033"><ele>135.0</ele><time>2026-05-01T07:27:15.209Z</time></trkpt><trkpt lat="43.5617033" lon="11.5426917"><ele>135.0</ele><time>2026-05-01T07:27:16.207Z</time></trkpt><trkpt lat="43.56162" lon="11.54268"><ele>135.0</ele><time>2026-05-01T07:27:17.207Z</time></trkpt><trkpt lat="43.561535" lon="11.5426683"><ele>135.0</ele><time>2026-05-01T07:27:18.207Z</time></trkpt><trkpt lat="43.561455" lon="11.5426583"><ele>135.0</ele><time>2026-05-01T07:27:19.207Z</time></trkpt><trkpt lat="43.5613717" lon="11.5426467"><ele>135.0</ele><time>2026-05-01T07:27:20.208Z</time></trkpt><trkpt lat="43.56129" lon="11.542635"><ele>135.0</ele><time>2026-05-01T07:27:21.208Z</time></trkpt><trkpt lat="43.5612067" lon="11.542625"><ele>135.0</ele><time>2026-05-01T07:27:22.208Z</time></trkpt><trkpt lat="43.561125" lon="11.542615"><ele>135.0</ele><time>2026-05-01T07:27:23.207Z</time></trkpt><trkpt lat="43.561045" lon="11.5426067"><ele>134.83333333333334</ele><time>2026-05-01T07:27:24.208Z</time></trkpt><trkpt lat="43.5609633" lon="11.542595"><ele>134.66666666666666</ele><time>2026-05-01T07:27:25.209Z</time></trkpt><trkpt lat="43.5608817" lon="11.542585"><ele>134.5</ele><time>2026-05-01T07:27:26.21Z</time></trkpt><trkpt lat="43.5608017" lon="11.5425783"><ele>134.33333333333331</ele><time>2026-05-01T07:27:27.207Z</time></trkpt><trkpt lat="43.5607183" lon="11.542575"><ele>134.16666666666666</ele><time>2026-05-01T07:27:28.207Z</time></trkpt><trkpt lat="43.560635" lon="11.54257"><ele>134.0</ele><time>2026-05-01T07:27:29.208Z</time></trkpt><trkpt lat="43.560555" lon="11.5425667"><ele>134.0</ele><time>2026-05-01T07:27:30.207Z</time></trkpt><trkpt lat="43.5604717" lon="11.5425633"><ele>134.0</ele><time>2026-05-01T07:27:31.208Z</time></trkpt><trkpt lat="43.5603883" lon="11.5425583"><ele>134.0</ele><time>2026-05-01T07:27:32.208Z</time></trkpt><trkpt lat="43.560305" lon="11.5425517"><ele>134.0</ele><time>2026-05-01T07:27:33.209Z</time></trkpt><trkpt lat="43.5602267" lon="11.5425467"><ele>134.0</ele><time>2026-05-01T07:27:34.208Z</time></trkpt><trkpt lat="43.5601433" lon="11.54254"><ele>134.0</ele><time>2026-05-01T07:27:35.207Z</time></trkpt><trkpt lat="43.5600617" lon="11.5425383"><ele>134.16666666666666</ele><time>2026-05-01T07:27:36.209Z</time></trkpt><trkpt lat="43.55998" lon="11.5425367"><ele>134.33333333333331</ele><time>2026-05-01T07:27:37.207Z</time></trkpt><trkpt lat="43.5599" lon="11.5425367"><ele>134.5</ele><time>2026-05-01T07:27:38.207Z</time></trkpt><trkpt lat="43.5598233" lon="11.54254"><ele>134.66666666666666</ele><time>2026-05-01T07:27:39.209Z</time></trkpt><trkpt lat="43.5597467" lon="11.5425433"><ele>134.83333333333334</ele><time>2026-05-01T07:27:40.207Z</time></trkpt><trkpt lat="43.5596683" lon="11.542545"><ele>135.0</ele><time>2026-05-01T07:27:41.206Z</time></trkpt><trkpt lat="43.5595917" lon="11.5425533"><ele>135.33333333333334</ele><time>2026-05-01T07:27:42.207Z</time></trkpt><trkpt lat="43.5595133" lon="11.5425617"><ele>135.66666666666666</ele><time>2026-05-01T07:27:43.209Z</time></trkpt><trkpt lat="43.5594367" lon="11.54257"><ele>136.0</ele><time>2026-05-01T07:27:44.21Z</time></trkpt><trkpt lat="43.5593617" lon="11.542585"><ele>136.33333333333331</ele><time>2026-05-01T07:27:45.207Z</time></trkpt><trkpt lat="43.559285" lon="11.5426017"><ele>136.66666666666666</ele><time>2026-05-01T07:27:46.206Z</time></trkpt><trkpt lat="43.5592117" lon="11.54262"><ele>137.0</ele><time>2026-05-01T07:27:47.209Z</time></trkpt><trkpt lat="43.55914" lon="11.54264"><ele>137.0</ele><time>2026-05-01T07:27:48.207Z</time></trkpt><trkpt lat="43.559065" lon="11.5426617"><ele>137.0</ele><time>2026-05-01T07:27:49.207Z</time></trkpt><trkpt lat="43.5589917" lon="11.5426883"><ele>137.0</ele><time>2026-05-01T07:27:50.208Z</time></trkpt><trkpt lat="43.5589183" lon="11.542715"><ele>137.0</ele><time>2026-05-01T07:27:51.206Z</time></trkpt><trkpt lat="43.558845" lon="11.5427483"><ele>137.0</ele><time>2026-05-01T07:27:52.207Z</time></trkpt><trkpt lat="43.558775" lon="11.5427833"><ele>137.0</ele><time>2026-05-01T07:27:53.207Z</time></trkpt><trkpt lat="43.5587083" lon="11.5428233"><ele>137.00000000000003</ele><time>2026-05-01T07:27:54.207Z</time></trkpt><trkpt lat="43.5586467" lon="11.542865"><ele>137.0</ele><time>2026-05-01T07:27:55.207Z</time></trkpt><trkpt lat="43.5585817" lon="11.542905"><ele>137.0</ele><time>2026-05-01T07:27:56.208Z</time></trkpt><trkpt lat="43.5585217" lon="11.5429483"><ele>137.0</ele><time>2026-05-01T07:27:57.207Z</time></trkpt><trkpt lat="43.5584633" lon="11.5429967"><ele>137.0</ele><time>2026-05-01T07:27:58.209Z</time></trkpt><trkpt lat="43.5584067" lon="11.54305"><ele>137.00000000000003</ele><time>2026-05-01T07:27:59.207Z</time></trkpt><trkpt lat="43.558345" lon="11.5431033"><ele>137.0</ele><time>2026-05-01T07:28:00.209Z</time></trkpt><trkpt lat="43.5582883" lon="11.5431567"><ele>137.00000000000003</ele><time>2026-05-01T07:28:01.207Z</time></trkpt><trkpt lat="43.5582333" lon="11.543215"><ele>137.0</ele><time>2026-05-01T07:28:02.207Z</time></trkpt><trkpt lat="43.5581767" lon="11.5432733"><ele>137.0</ele><time>2026-05-01T07:28:03.207Z</time></trkpt><trkpt lat="43.55812" lon="11.5433283"><ele>137.0</ele><time>2026-05-01T07:28:04.21Z</time></trkpt><trkpt lat="43.5580667" lon="11.5433867"><ele>137.0</ele><time>2026-05-01T07:28:05.21Z</time></trkpt><trkpt lat="43.5580167" lon="11.5434433"><ele>137.00000000000003</ele><time>2026-05-01T07:28:06.208Z</time></trkpt><trkpt lat="43.55797" lon="11.5435033"><ele>137.0</ele><time>2026-05-01T07:28:07.208Z</time></trkpt><trkpt lat="43.55792" lon="11.5435667"><ele>137.00000000000003</ele><time>2026-05-01T07:28:08.207Z</time></trkpt><trkpt lat="43.5578717" lon="11.54363"><ele>137.0</ele><time>2026-05-01T07:28:09.209Z</time></trkpt><trkpt lat="43.5578217" lon="11.54369"><ele>137.0</ele><time>2026-05-01T07:28:10.206Z</time></trkpt><trkpt lat="43.5577717" lon="11.54375"><ele>137.0</ele><time>2026-05-01T07:28:11.207Z</time></trkpt><trkpt lat="43.5577233" lon="11.5438117"><ele>137.0</ele><time>2026-05-01T07:28:12.207Z</time></trkpt><trkpt lat="43.5576717" lon="11.5438733"><ele>137.00000000000003</ele><time>2026-05-01T07:28:13.207Z</time></trkpt><trkpt lat="43.5576217" lon="11.5439333"><ele>137.0</ele><time>2026-05-01T07:28:14.208Z</time></trkpt><trkpt lat="43.557575" lon="11.5439917"><ele>137.42857142857144</ele><time>2026-05-01T07:28:15.207Z</time></trkpt><trkpt lat="43.5575283" lon="11.544055"><ele>137.85714285714286</ele><time>2026-05-01T07:28:16.206Z</time></trkpt><trkpt lat="43.5574783" lon="11.5441183"><ele>138.28571428571428</ele><time>2026-05-01T07:28:17.207Z</time></trkpt><trkpt lat="43.5574283" lon="11.544185"><ele>138.71428571428572</ele><time>2026-05-01T07:28:18.207Z</time></trkpt><trkpt lat="43.55738" lon="11.54425"><ele>139.14285714285714</ele><time>2026-05-01T07:28:19.208Z</time></trkpt><trkpt lat="43.5573283" lon="11.5443183"><ele>139.57142857142858</ele><time>2026-05-01T07:28:20.208Z</time></trkpt><trkpt lat="43.55728" lon="11.544385"><ele>140.0</ele><time>2026-05-01T07:28:21.207Z</time></trkpt><trkpt lat="43.55723" lon="11.5444517"><ele>140.0</ele><time>2026-05-01T07:28:22.207Z</time></trkpt><trkpt lat="43.55718" lon="11.54452"><ele>140.0</ele><time>2026-05-01T07:28:23.207Z</time></trkpt><trkpt lat="43.55713" lon="11.5445883"><ele>140.0</ele><time>2026-05-01T07:28:24.208Z</time></trkpt><trkpt lat="43.5570767" lon="11.5446583"><ele>140.0</ele><time>2026-05-01T07:28:25.208Z</time></trkpt><trkpt lat="43.557025" lon="11.5447283"><ele>140.0</ele><time>2026-05-01T07:28:26.208Z</time></trkpt><trkpt lat="43.55697" lon="11.5448"><ele>140.0</ele><time>2026-05-01T07:28:27.207Z</time></trkpt><trkpt lat="43.556915" lon="11.544875"><ele>140.0</ele><time>2026-05-01T07:28:28.208Z</time></trkpt><trkpt lat="43.5568617" lon="11.5449483"><ele>140.16666666666666</ele><time>2026-05-01T07:28:29.207Z</time></trkpt><trkpt lat="43.556805" lon="11.5450233"><ele>140.33333333333331</ele><time>2026-05-01T07:28:30.207Z</time></trkpt><trkpt lat="43.5567483" lon="11.5450983"><ele>140.5</ele><time>2026-05-01T07:28:31.206Z</time></trkpt><trkpt lat="43.5566917" lon="11.545175"><ele>140.66666666666666</ele><time>2026-05-01T07:28:32.206Z</time></trkpt><trkpt lat="43.556635" lon="11.5452567"><ele>140.83333333333334</ele><time>2026-05-01T07:28:33.208Z</time></trkpt><trkpt lat="43.55658" lon="11.5453417"><ele>141.0</ele><time>2026-05-01T07:28:34.208Z</time></trkpt><trkpt lat="43.5565233" lon="11.5454233"><ele>140.5</ele><time>2026-05-01T07:28:35.206Z</time></trkpt><trkpt lat="43.5564667" lon="11.54551"><ele>140.0</ele><time>2026-05-01T07:28:36.207Z</time></trkpt><trkpt lat="43.55641" lon="11.5456"><ele>139.5</ele><time>2026-05-01T07:28:37.207Z</time></trkpt><trkpt lat="43.5563533" lon="11.5456917"><ele>139.0</ele><time>2026-05-01T07:28:38.208Z</time></trkpt><trkpt lat="43.556295" lon="11.5457867"><ele>138.5</ele><time>2026-05-01T07:28:39.209Z</time></trkpt><trkpt lat="43.5562333" lon="11.5458833"><ele>138.0</ele><time>2026-05-01T07:28:40.207Z</time></trkpt><trkpt lat="43.5561717" lon="11.5459883"><ele>138.0</ele><time>2026-05-01T07:28:41.206Z</time></trkpt><trkpt lat="43.55611" lon="11.5460967"><ele>138.0</ele><time>2026-05-01T07:28:42.209Z</time></trkpt><trkpt lat="43.55605" lon="11.5462067"><ele>138.0</ele><time>2026-05-01T07:28:43.207Z</time></trkpt><trkpt lat="43.5559883" lon="11.5463167"><ele>138.0</ele><time>2026-05-01T07:28:44.207Z</time></trkpt><trkpt lat="43.555925" lon="11.5464317"><ele>138.0</ele><time>2026-05-01T07:28:45.209Z</time></trkpt><trkpt lat="43.5558633" lon="11.54654"><ele>139.0</ele><time>2026-05-01T07:28:46.208Z</time></trkpt><trkpt lat="43.5557983" lon="11.5466517"><ele>140.0</ele><time>2026-05-01T07:28:47.209Z</time></trkpt><trkpt lat="43.555735" lon="11.5467667"><ele>141.0</ele><time>2026-05-01T07:28:48.209Z</time></trkpt><trkpt lat="43.5556733" lon="11.5468817"><ele>142.0</ele><time>2026-05-01T07:28:49.209Z</time></trkpt><trkpt lat="43.55561" lon="11.5469967"><ele>143.0</ele><time>2026-05-01T07:28:50.207Z</time></trkpt><trkpt lat="43.5555467" lon="11.5471133"><ele>143.0</ele><time>2026-05-01T07:28:51.208Z</time></trkpt><trkpt lat="43.5554833" lon="11.54723"><ele>143.0</ele><time>2026-05-01T07:28:52.207Z</time></trkpt><trkpt lat="43.5554183" lon="11.547345"><ele>143.0</ele><time>2026-05-01T07:28:53.207Z</time></trkpt><trkpt lat="43.5553533" lon="11.5474617"><ele>143.0</ele><time>2026-05-01T07:28:54.208Z</time></trkpt><trkpt lat="43.55529" lon="11.5475783"><ele>143.0</ele><time>2026-05-01T07:28:55.209Z</time></trkpt><trkpt lat="43.5552233" lon="11.5476933"><ele>141.8</ele><time>2026-05-01T07:28:56.209Z</time></trkpt><trkpt lat="43.55516" lon="11.5478083"><ele>140.60000000000002</ele><time>2026-05-01T07:28:57.207Z</time></trkpt><trkpt lat="43.5550967" lon="11.547925"><ele>139.39999999999998</ele><time>2026-05-01T07:28:58.208Z</time></trkpt><trkpt lat="43.5550367" lon="11.54804"><ele>138.2</ele><time>2026-05-01T07:28:59.209Z</time></trkpt><trkpt lat="43.5549767" lon="11.5481567"><ele>137.0</ele><time>2026-05-01T07:29:00.208Z</time></trkpt><trkpt lat="43.5549133" lon="11.5482733"><ele>137.0</ele><time>2026-05-01T07:29:01.207Z</time></trkpt><trkpt lat="43.55485" lon="11.5483867"><ele>137.0</ele><time>2026-05-01T07:29:02.207Z</time></trkpt><trkpt lat="43.5547883" lon="11.5485"><ele>137.0</ele><time>2026-05-01T07:29:03.209Z</time></trkpt><trkpt lat="43.5547233" lon="11.5486117"><ele>137.0</ele><time>2026-05-01T07:29:04.207Z</time></trkpt><trkpt lat="43.5546583" lon="11.5487217"><ele>137.0</ele><time>2026-05-01T07:29:05.208Z</time></trkpt><trkpt lat="43.5545967" lon="11.548835"><ele>136.4</ele><time>2026-05-01T07:29:06.208Z</time></trkpt><trkpt lat="43.5545367" lon="11.548945"><ele>135.79999999999998</ele><time>2026-05-01T07:29:07.207Z</time></trkpt><trkpt lat="43.5544767" lon="11.549055"><ele>135.2</ele><time>2026-05-01T07:29:08.208Z</time></trkpt><trkpt lat="43.554415" lon="11.5491633"><ele>134.6</ele><time>2026-05-01T07:29:09.207Z</time></trkpt><trkpt lat="43.554355" lon="11.5492717"><ele>134.0</ele><time>2026-05-01T07:29:10.208Z</time></trkpt><trkpt lat="43.5542933" lon="11.5493767"><ele>134.0</ele><time>2026-05-01T07:29:11.208Z</time></trkpt><trkpt lat="43.5542317" lon="11.54948"><ele>134.0</ele><time>2026-05-01T07:29:12.209Z</time></trkpt><trkpt lat="43.554175" lon="11.549585"><ele>134.0</ele><time>2026-05-01T07:29:13.208Z</time></trkpt><trkpt lat="43.5541167" lon="11.5496917"><ele>134.0</ele><time>2026-05-01T07:29:14.209Z</time></trkpt><trkpt lat="43.5540567" lon="11.5497967"><ele>134.0</ele><time>2026-05-01T07:29:15.207Z</time></trkpt><trkpt lat="43.554" lon="11.5499017"><ele>134.4</ele><time>2026-05-01T07:29:16.207Z</time></trkpt><trkpt lat="43.5539383" lon="11.5500083"><ele>134.8</ele><time>2026-05-01T07:29:17.208Z</time></trkpt><trkpt lat="43.5538783" lon="11.550115"><ele>135.2</ele><time>2026-05-01T07:29:18.209Z</time></trkpt><trkpt lat="43.5538183" lon="11.55022"><ele>135.6</ele><time>2026-05-01T07:29:19.207Z</time></trkpt><trkpt lat="43.55376" lon="11.5503233"><ele>136.0</ele><time>2026-05-01T07:29:20.208Z</time></trkpt><trkpt lat="43.5537" lon="11.5504283"><ele>136.0</ele><time>2026-05-01T07:29:21.207Z</time></trkpt><trkpt lat="43.55364" lon="11.5505317"><ele>136.0</ele><time>2026-05-01T07:29:22.208Z</time></trkpt><trkpt lat="43.5535817" lon="11.5506367"><ele>136.0</ele><time>2026-05-01T07:29:23.209Z</time></trkpt><trkpt lat="43.5535233" lon="11.5507383"><ele>136.0</ele><time>2026-05-01T07:29:24.207Z</time></trkpt><trkpt lat="43.5534667" lon="11.5508383"><ele>136.0</ele><time>2026-05-01T07:29:25.209Z</time></trkpt><trkpt lat="43.5534083" lon="11.5509383"><ele>136.0</ele><time>2026-05-01T07:29:26.207Z</time></trkpt><trkpt lat="43.55335" lon="11.551035"><ele>136.0</ele><time>2026-05-01T07:29:27.209Z</time></trkpt><trkpt lat="43.5532917" lon="11.5511317"><ele>136.0</ele><time>2026-05-01T07:29:28.209Z</time></trkpt><trkpt lat="43.55323" lon="11.5512283"><ele>136.0</ele><time>2026-05-01T07:29:29.207Z</time></trkpt><trkpt lat="43.55317" lon="11.5513233"><ele>136.0</ele><time>2026-05-01T07:29:30.207Z</time></trkpt><trkpt lat="43.5531117" lon="11.55142"><ele>135.8</ele><time>2026-05-01T07:29:31.207Z</time></trkpt><trkpt lat="43.5530517" lon="11.551515"><ele>135.6</ele><time>2026-05-01T07:29:32.209Z</time></trkpt><trkpt lat="43.55299" lon="11.5516083"><ele>135.4</ele><time>2026-05-01T07:29:33.207Z</time></trkpt><trkpt lat="43.55293" lon="11.5517017"><ele>135.2</ele><time>2026-05-01T07:29:34.207Z</time></trkpt><trkpt lat="43.5528667" lon="11.551795"><ele>135.0</ele><time>2026-05-01T07:29:35.21Z</time></trkpt><trkpt lat="43.552805" lon="11.5518883"><ele>135.0</ele><time>2026-05-01T07:29:36.207Z</time></trkpt><trkpt lat="43.55274" lon="11.5519783"><ele>135.0</ele><time>2026-05-01T07:29:37.207Z</time></trkpt><trkpt lat="43.552675" lon="11.55207"><ele>135.0</ele><time>2026-05-01T07:29:38.209Z</time></trkpt><trkpt lat="43.55261" lon="11.5521633"><ele>135.0</ele><time>2026-05-01T07:29:39.209Z</time></trkpt><trkpt lat="43.5525467" lon="11.552255"><ele>135.0</ele><time>2026-05-01T07:29:40.207Z</time></trkpt><trkpt lat="43.5524817" lon="11.5523467"><ele>135.33333333333334</ele><time>2026-05-01T07:29:41.209Z</time></trkpt><trkpt lat="43.5524167" lon="11.5524383"><ele>135.66666666666666</ele><time>2026-05-01T07:29:42.207Z</time></trkpt><trkpt lat="43.5523567" lon="11.552525"><ele>136.0</ele><time>2026-05-01T07:29:43.208Z</time></trkpt><trkpt lat="43.5522933" lon="11.55261"><ele>136.33333333333331</ele><time>2026-05-01T07:29:44.208Z</time></trkpt><trkpt lat="43.5522283" lon="11.5526983"><ele>136.66666666666666</ele><time>2026-05-01T07:29:45.207Z</time></trkpt><trkpt lat="43.552165" lon="11.552785"><ele>137.0</ele><time>2026-05-01T07:29:46.207Z</time></trkpt><trkpt lat="43.5521" lon="11.5528683"><ele>137.0</ele><time>2026-05-01T07:29:47.21Z</time></trkpt><trkpt lat="43.55204" lon="11.5529533"><ele>137.0</ele><time>2026-05-01T07:29:48.207Z</time></trkpt><trkpt lat="43.55198" lon="11.55304"><ele>137.0</ele><time>2026-05-01T07:29:49.208Z</time></trkpt><trkpt lat="43.5519233" lon="11.55313"><ele>137.0</ele><time>2026-05-01T07:29:50.21Z</time></trkpt><trkpt lat="43.5518667" lon="11.5532267"><ele>137.0</ele><time>2026-05-01T07:29:51.207Z</time></trkpt><trkpt lat="43.5518133" lon="11.5533267"><ele>137.0</ele><time>2026-05-01T07:29:52.207Z</time></trkpt><trkpt lat="43.55176" lon="11.5534317"><ele>137.16666666666666</ele><time>2026-05-01T07:29:53.207Z</time></trkpt><trkpt lat="43.55171" lon="11.5535383"><ele>137.33333333333331</ele><time>2026-05-01T07:29:54.208Z</time></trkpt><trkpt lat="43.551665" lon="11.55365"><ele>137.5</ele><time>2026-05-01T07:29:55.207Z</time></trkpt><trkpt lat="43.5516283" lon="11.5537583"><ele>137.66666666666666</ele><time>2026-05-01T07:29:56.209Z</time></trkpt><trkpt lat="43.5515933" lon="11.5538717"><ele>137.83333333333334</ele><time>2026-05-01T07:29:57.208Z</time></trkpt><trkpt lat="43.5515567" lon="11.5539833"><ele>138.0</ele><time>2026-05-01T07:29:58.206Z</time></trkpt><trkpt lat="43.5515217" lon="11.5540967"><ele>138.33333333333334</ele><time>2026-05-01T07:29:59.207Z</time></trkpt><trkpt lat="43.55149" lon="11.5542067"><ele>138.66666666666666</ele><time>2026-05-01T07:30:00.208Z</time></trkpt><trkpt lat="43.55146" lon="11.5543167"><ele>139.0</ele><time>2026-05-01T07:30:01.207Z</time></trkpt><trkpt lat="43.5514317" lon="11.55443"><ele>139.33333333333331</ele><time>2026-05-01T07:30:02.208Z</time></trkpt><trkpt lat="43.551405" lon="11.5545483"><ele>139.66666666666666</ele><time>2026-05-01T07:30:03.207Z</time></trkpt><trkpt lat="43.55138" lon="11.5546667"><ele>140.0</ele><time>2026-05-01T07:30:04.207Z</time></trkpt><trkpt lat="43.551355" lon="11.5547783"><ele>140.0</ele><time>2026-05-01T07:30:05.208Z</time></trkpt><trkpt lat="43.55133" lon="11.5548917"><ele>140.0</ele><time>2026-05-01T07:30:06.21Z</time></trkpt><trkpt lat="43.5513033" lon="11.555005"><ele>140.0</ele><time>2026-05-01T07:30:07.207Z</time></trkpt><trkpt lat="43.5512783" lon="11.5551217"><ele>140.0</ele><time>2026-05-01T07:30:08.207Z</time></trkpt><trkpt lat="43.551255" lon="11.5552333"><ele>140.0</ele><time>2026-05-01T07:30:09.208Z</time></trkpt><trkpt lat="43.5512317" lon="11.5553483"><ele>140.0</ele><time>2026-05-01T07:30:10.209Z</time></trkpt><trkpt lat="43.5512117" lon="11.5554667"><ele>139.2</ele><time>2026-05-01T07:30:11.209Z</time></trkpt><trkpt lat="43.551195" lon="11.5555883"><ele>138.4</ele><time>2026-05-01T07:30:12.208Z</time></trkpt><trkpt lat="43.551185" lon="11.5557133"><ele>137.6</ele><time>2026-05-01T07:30:13.207Z</time></trkpt><trkpt lat="43.5511833" lon="11.5558367"><ele>136.8</ele><time>2026-05-01T07:30:14.207Z</time></trkpt><trkpt lat="43.5511867" lon="11.5559633"><ele>136.0</ele><time>2026-05-01T07:30:15.207Z</time></trkpt><trkpt lat="43.55119" lon="11.556095"><ele>136.8</ele><time>2026-05-01T07:30:16.207Z</time></trkpt><trkpt lat="43.5511917" lon="11.5562217"><ele>137.6</ele><time>2026-05-01T07:30:17.207Z</time></trkpt><trkpt lat="43.5511917" lon="11.5563533"><ele>138.4</ele><time>2026-05-01T07:30:18.208Z</time></trkpt><trkpt lat="43.551185" lon="11.55649"><ele>139.2</ele><time>2026-05-01T07:30:19.207Z</time></trkpt><trkpt lat="43.5511717" lon="11.5566283"><ele>140.0</ele><time>2026-05-01T07:30:20.207Z</time></trkpt><trkpt lat="43.551145" lon="11.556775"><ele>140.0</ele><time>2026-05-01T07:30:21.208Z</time></trkpt><trkpt lat="43.5511133" lon="11.5569017"><ele>140.0</ele><time>2026-05-01T07:30:22.209Z</time></trkpt><trkpt lat="43.5510767" lon="11.5570133"><ele>140.0</ele><time>2026-05-01T07:30:23.207Z</time></trkpt><trkpt lat="43.5510317" lon="11.5571167"><ele>140.0</ele><time>2026-05-01T07:30:24.209Z</time></trkpt><trkpt lat="43.5509833" lon="11.557215"><ele>140.0</ele><time>2026-05-01T07:30:25.209Z</time></trkpt><trkpt lat="43.5509367" lon="11.5573083"><ele>140.0</ele><time>2026-05-01T07:30:26.207Z</time></trkpt><trkpt lat="43.5508933" lon="11.557405"><ele>140.0</ele><time>2026-05-01T07:30:27.207Z</time></trkpt><trkpt lat="43.55085" lon="11.5575017"><ele>140.0</ele><time>2026-05-01T07:30:28.209Z</time></trkpt><trkpt lat="43.55081" lon="11.5576"><ele>140.0</ele><time>2026-05-01T07:30:29.209Z</time></trkpt><trkpt lat="43.5507783" lon="11.55769"><ele>140.0</ele><time>2026-05-01T07:30:30.208Z</time></trkpt><trkpt lat="43.55075" lon="11.5577733"><ele>140.0</ele><time>2026-05-01T07:30:31.207Z</time></trkpt><trkpt lat="43.5507017" lon="11.5579267"><ele>140.0</ele><time>2026-05-01T07:30:33.209Z</time></trkpt><trkpt lat="43.5506567" lon="11.5580733"><ele>140.16666666666666</ele><time>2026-05-01T07:30:35.207Z</time></trkpt><trkpt lat="43.5506133" lon="11.5582317"><ele>140.33333333333331</ele><time>2026-05-01T07:30:37.208Z</time></trkpt><trkpt lat="43.55059" lon="11.5583183"><ele>140.5</ele><time>2026-05-01T07:30:38.207Z</time></trkpt><trkpt lat="43.55057" lon="11.558415"><ele>140.66666666666666</ele><time>2026-05-01T07:30:39.21Z</time></trkpt><trkpt lat="43.5505517" lon="11.5585217"><ele>140.83333333333334</ele><time>2026-05-01T07:30:40.209Z</time></trkpt><trkpt lat="43.55053" lon="11.55864"><ele>141.0</ele><time>2026-05-01T07:30:41.207Z</time></trkpt><trkpt lat="43.550505" lon="11.5587617"><ele>141.0</ele><time>2026-05-01T07:30:42.206Z</time></trkpt><trkpt lat="43.5504767" lon="11.55889"><ele>141.0</ele><time>2026-05-01T07:30:43.207Z</time></trkpt><trkpt lat="43.5504433" lon="11.5590217"><ele>141.0</ele><time>2026-05-01T07:30:44.208Z</time></trkpt><trkpt lat="43.5504133" lon="11.559155"><ele>141.0</ele><time>2026-05-01T07:30:45.208Z</time></trkpt><trkpt lat="43.5503767" lon="11.55929"><ele>141.0</ele><time>2026-05-01T07:30:46.208Z</time></trkpt><trkpt lat="43.5503367" lon="11.5594267"><ele>140.8</ele><time>2026-05-01T07:30:47.207Z</time></trkpt><trkpt lat="43.550295" lon="11.5595617"><ele>140.6</ele><time>2026-05-01T07:30:48.209Z</time></trkpt><trkpt lat="43.550255" lon="11.5597033"><ele>140.4</ele><time>2026-05-01T07:30:49.208Z</time></trkpt><trkpt lat="43.5502183" lon="11.5598467"><ele>140.2</ele><time>2026-05-01T07:30:50.209Z</time></trkpt><trkpt lat="43.55018" lon="11.5599933"><ele>140.0</ele><time>2026-05-01T07:30:51.208Z</time></trkpt><trkpt lat="43.550145" lon="11.5601317"><ele>140.0</ele><time>2026-05-01T07:30:52.207Z</time></trkpt><trkpt lat="43.5501067" lon="11.5602717"><ele>140.0</ele><time>2026-05-01T07:30:53.207Z</time></trkpt><trkpt lat="43.5500717" lon="11.5603983"><ele>140.0</ele><time>2026-05-01T07:30:54.209Z</time></trkpt><trkpt lat="43.5500417" lon="11.560515"><ele>140.0</ele><time>2026-05-01T07:30:55.209Z</time></trkpt><trkpt lat="43.5500117" lon="11.5606267"><ele>140.0</ele><time>2026-05-01T07:30:56.207Z</time></trkpt><trkpt lat="43.5499783" lon="11.5607383"><ele>140.0</ele><time>2026-05-01T07:30:57.206Z</time></trkpt><trkpt lat="43.5499467" lon="11.560845"><ele>140.0</ele><time>2026-05-01T07:30:58.205Z</time></trkpt><trkpt lat="43.549915" lon="11.5609517"><ele>140.0</ele><time>2026-05-01T07:30:59.209Z</time></trkpt><trkpt lat="43.5498833" lon="11.5610617"><ele>140.0</ele><time>2026-05-01T07:31:00.209Z</time></trkpt><trkpt lat="43.5498517" lon="11.561175"><ele>140.0</ele><time>2026-05-01T07:31:01.208Z</time></trkpt><trkpt lat="43.5498183" lon="11.5612883"><ele>140.0</ele><time>2026-05-01T07:31:02.209Z</time></trkpt><trkpt lat="43.549785" lon="11.5613983"><ele>140.16666666666666</ele><time>2026-05-01T07:31:03.208Z</time></trkpt><trkpt lat="43.5497483" lon="11.561515"><ele>140.33333333333331</ele><time>2026-05-01T07:31:04.207Z</time></trkpt><trkpt lat="43.5497117" lon="11.5616283"><ele>140.5</ele><time>2026-05-01T07:31:05.207Z</time></trkpt><trkpt lat="43.5496733" lon="11.5617417"><ele>140.66666666666666</ele><time>2026-05-01T07:31:06.208Z</time></trkpt><trkpt lat="43.5496333" lon="11.56185"><ele>140.83333333333334</ele><time>2026-05-01T07:31:07.208Z</time></trkpt><trkpt lat="43.549595" lon="11.5619567"><ele>141.0</ele><time>2026-05-01T07:31:08.209Z</time></trkpt><trkpt lat="43.5495567" lon="11.562065"><ele>140.33333333333334</ele><time>2026-05-01T07:31:09.209Z</time></trkpt><trkpt lat="43.5495183" lon="11.56217"><ele>139.66666666666666</ele><time>2026-05-01T07:31:10.206Z</time></trkpt><trkpt lat="43.5494833" lon="11.5622733"><ele>139.0</ele><time>2026-05-01T07:31:11.206Z</time></trkpt><trkpt lat="43.5494483" lon="11.562375"><ele>138.33333333333331</ele><time>2026-05-01T07:31:12.204Z</time></trkpt><trkpt lat="43.5494067" lon="11.5624767"><ele>137.66666666666666</ele><time>2026-05-01T07:31:13.205Z</time></trkpt><trkpt lat="43.5493683" lon="11.5625733"><ele>137.0</ele><time>2026-05-01T07:31:14.205Z</time></trkpt><trkpt lat="43.549335" lon="11.562675"><ele>137.0</ele><time>2026-05-01T07:31:15.205Z</time></trkpt><trkpt lat="43.5493" lon="11.5627817"><ele>137.0</ele><time>2026-05-01T07:31:16.204Z</time></trkpt><trkpt lat="43.549265" lon="11.562885"><ele>137.0</ele><time>2026-05-01T07:31:17.205Z</time></trkpt><trkpt lat="43.5492267" lon="11.56299"><ele>137.0</ele><time>2026-05-01T07:31:18.204Z</time></trkpt><trkpt lat="43.5491883" lon="11.5630933"><ele>137.0</ele><time>2026-05-01T07:31:19.205Z</time></trkpt><trkpt lat="43.549155" lon="11.5631967"><ele>137.0</ele><time>2026-05-01T07:31:20.206Z</time></trkpt><trkpt lat="43.549115" lon="11.5633017"><ele>137.5</ele><time>2026-05-01T07:31:21.208Z</time></trkpt><trkpt lat="43.5490733" lon="11.563405"><ele>138.0</ele><time>2026-05-01T07:31:22.208Z</time></trkpt><trkpt lat="43.54903" lon="11.5635133"><ele>138.5</ele><time>2026-05-01T07:31:23.209Z</time></trkpt><trkpt lat="43.5489883" lon="11.563625"><ele>139.0</ele><time>2026-05-01T07:31:24.209Z</time></trkpt><trkpt lat="43.548945" lon="11.563735"><ele>139.5</ele><time>2026-05-01T07:31:25.208Z</time></trkpt><trkpt lat="43.5489067" lon="11.5638433"><ele>140.0</ele><time>2026-05-01T07:31:26.209Z</time></trkpt><trkpt lat="43.548865" lon="11.56395"><ele>140.0</ele><time>2026-05-01T07:31:27.209Z</time></trkpt><trkpt lat="43.5488233" lon="11.5640567"><ele>140.0</ele><time>2026-05-01T07:31:28.207Z</time></trkpt><trkpt lat="43.548785" lon="11.5641617"><ele>140.0</ele><time>2026-05-01T07:31:29.207Z</time></trkpt><trkpt lat="43.5487467" lon="11.5642683"><ele>140.0</ele><time>2026-05-01T07:31:30.209Z</time></trkpt><trkpt lat="43.54871" lon="11.564375"><ele>140.0</ele><time>2026-05-01T07:31:31.208Z</time></trkpt><trkpt lat="43.5486733" lon="11.5644783"><ele>140.0</ele><time>2026-05-01T07:31:32.207Z</time></trkpt><trkpt lat="43.5486317" lon="11.5645817"><ele>140.0</ele><time>2026-05-01T07:31:33.207Z</time></trkpt><trkpt lat="43.54859" lon="11.564685"><ele>140.0</ele><time>2026-05-01T07:31:34.209Z</time></trkpt><trkpt lat="43.5485483" lon="11.56479"><ele>140.0</ele><time>2026-05-01T07:31:35.209Z</time></trkpt><trkpt lat="43.5485083" lon="11.5648983"><ele>140.0</ele><time>2026-05-01T07:31:36.208Z</time></trkpt><trkpt lat="43.5484667" lon="11.5650033"><ele>140.0</ele><time>2026-05-01T07:31:37.209Z</time></trkpt><trkpt lat="43.54842" lon="11.56511"><ele>140.0</ele><time>2026-05-01T07:31:38.208Z</time></trkpt><trkpt lat="43.5483767" lon="11.56522"><ele>140.0</ele><time>2026-05-01T07:31:39.207Z</time></trkpt><trkpt lat="43.548335" lon="11.565325"><ele>140.0</ele><time>2026-05-01T07:31:40.207Z</time></trkpt><trkpt lat="43.5482967" lon="11.56543"><ele>140.0</ele><time>2026-05-01T07:31:41.209Z</time></trkpt><trkpt lat="43.5482583" lon="11.565535"><ele>140.0</ele><time>2026-05-01T07:31:42.208Z</time></trkpt><trkpt lat="43.548215" lon="11.56564"><ele>140.0</ele><time>2026-05-01T07:31:43.207Z</time></trkpt><trkpt lat="43.548175" lon="11.565745"><ele>140.0</ele><time>2026-05-01T07:31:44.207Z</time></trkpt><trkpt lat="43.54813" lon="11.56585"><ele>140.16666666666666</ele><time>2026-05-01T07:31:45.207Z</time></trkpt><trkpt lat="43.5480833" lon="11.5659533"><ele>140.33333333333331</ele><time>2026-05-01T07:31:46.207Z</time></trkpt><trkpt lat="43.5480417" lon="11.5660533"><ele>140.5</ele><time>2026-05-01T07:31:47.206Z</time></trkpt><trkpt lat="43.548005" lon="11.5661483"><ele>140.66666666666666</ele><time>2026-05-01T07:31:48.208Z</time></trkpt><trkpt lat="43.547965" lon="11.5662483"><ele>140.83333333333334</ele><time>2026-05-01T07:31:49.206Z</time></trkpt><trkpt lat="43.5479233" lon="11.5663483"><ele>141.0</ele><time>2026-05-01T07:31:50.208Z</time></trkpt><trkpt lat="43.547885" lon="11.5664467"><ele>141.0</ele><time>2026-05-01T07:31:51.207Z</time></trkpt><trkpt lat="43.547845" lon="11.56655"><ele>141.0</ele><time>2026-05-01T07:31:52.206Z</time></trkpt><trkpt lat="43.5478067" lon="11.5666533"><ele>141.0</ele><time>2026-05-01T07:31:53.209Z</time></trkpt><trkpt lat="43.547775" lon="11.5667567"><ele>141.0</ele><time>2026-05-01T07:31:54.208Z</time></trkpt><trkpt lat="43.54774" lon="11.5668633"><ele>141.0</ele><time>2026-05-01T07:31:55.207Z</time></trkpt><trkpt lat="43.5477033" lon="11.5669683"><ele>141.0</ele><time>2026-05-01T07:31:56.207Z</time></trkpt><trkpt lat="43.5476617" lon="11.56707"><ele>141.0</ele><time>2026-05-01T07:31:57.208Z</time></trkpt><trkpt lat="43.5476217" lon="11.5671717"><ele>141.0</ele><time>2026-05-01T07:31:58.207Z</time></trkpt><trkpt lat="43.5475817" lon="11.567265"><ele>141.0</ele><time>2026-05-01T07:31:59.207Z</time></trkpt><trkpt lat="43.54754" lon="11.5673667"><ele>141.0</ele><time>2026-05-01T07:32:00.207Z</time></trkpt><trkpt lat="43.5475" lon="11.5674733"><ele>141.0</ele><time>2026-05-01T07:32:01.208Z</time></trkpt><trkpt lat="43.5474567" lon="11.567585"><ele>141.0</ele><time>2026-05-01T07:32:02.209Z</time></trkpt><trkpt lat="43.5474167" lon="11.5676967"><ele>141.0</ele><time>2026-05-01T07:32:03.21Z</time></trkpt><trkpt lat="43.547375" lon="11.5678033"><ele>141.0</ele><time>2026-05-01T07:32:04.209Z</time></trkpt><trkpt lat="43.5473333" lon="11.56791"><ele>141.0</ele><time>2026-05-01T07:32:05.208Z</time></trkpt><trkpt lat="43.5472917" lon="11.5680183"><ele>141.0</ele><time>2026-05-01T07:32:06.207Z</time></trkpt><trkpt lat="43.5472483" lon="11.5681283"><ele>141.0</ele><time>2026-05-01T07:32:07.209Z</time></trkpt><trkpt lat="43.5472083" lon="11.56824"><ele>141.0</ele><time>2026-05-01T07:32:08.209Z</time></trkpt><trkpt lat="43.5471683" lon="11.5683483"><ele>141.0</ele><time>2026-05-01T07:32:09.207Z</time></trkpt><trkpt lat="43.5471283" lon="11.5684567"><ele>141.0</ele><time>2026-05-01T07:32:10.206Z</time></trkpt><trkpt lat="43.5470867" lon="11.5685667"><ele>141.0</ele><time>2026-05-01T07:32:11.207Z</time></trkpt><trkpt lat="43.547045" lon="11.5686733"><ele>141.0</ele><time>2026-05-01T07:32:12.208Z</time></trkpt><trkpt lat="43.547005" lon="11.5687833"><ele>141.0</ele><time>2026-05-01T07:32:13.207Z</time></trkpt><trkpt lat="43.546965" lon="11.5688883"><ele>141.0</ele><time>2026-05-01T07:32:14.21Z</time></trkpt><trkpt lat="43.5469283" lon="11.5689883"><ele>140.83333333333334</ele><time>2026-05-01T07:32:15.207Z</time></trkpt><trkpt lat="43.54689" lon="11.5690867"><ele>140.66666666666666</ele><time>2026-05-01T07:32:16.207Z</time></trkpt><trkpt lat="43.5468533" lon="11.5691883"><ele>140.5</ele><time>2026-05-01T07:32:17.207Z</time></trkpt><trkpt lat="43.5468167" lon="11.5692917"><ele>140.33333333333331</ele><time>2026-05-01T07:32:18.208Z</time></trkpt><trkpt lat="43.5467767" lon="11.5693933"><ele>140.16666666666666</ele><time>2026-05-01T07:32:19.209Z</time></trkpt><trkpt lat="43.5467367" lon="11.5694967"><ele>140.0</ele><time>2026-05-01T07:32:20.207Z</time></trkpt><trkpt lat="43.546695" lon="11.5696"><ele>140.33333333333331</ele><time>2026-05-01T07:32:21.208Z</time></trkpt><trkpt lat="43.546655" lon="11.5697"><ele>140.66666666666666</ele><time>2026-05-01T07:32:22.208Z</time></trkpt><trkpt lat="43.5466183" lon="11.5697983"><ele>141.0</ele><time>2026-05-01T07:32:23.208Z</time></trkpt><trkpt lat="43.5465817" lon="11.5698967"><ele>141.33333333333334</ele><time>2026-05-01T07:32:24.208Z</time></trkpt><trkpt lat="43.5465467" lon="11.569995"><ele>141.66666666666669</ele><time>2026-05-01T07:32:25.209Z</time></trkpt><trkpt lat="43.5465083" lon="11.570095"><ele>142.0</ele><time>2026-05-01T07:32:26.209Z</time></trkpt><trkpt lat="43.5464733" lon="11.57019"><ele>142.0</ele><time>2026-05-01T07:32:27.208Z</time></trkpt><trkpt lat="43.54644" lon="11.5702867"><ele>142.0</ele><time>2026-05-01T07:32:28.207Z</time></trkpt><trkpt lat="43.546405" lon="11.5703883"><ele>142.0</ele><time>2026-05-01T07:32:29.208Z</time></trkpt><trkpt lat="43.54637" lon="11.5704883"><ele>142.0</ele><time>2026-05-01T07:32:30.208Z</time></trkpt><trkpt lat="43.5463333" lon="11.57059"><ele>142.0</ele><time>2026-05-01T07:32:31.208Z</time></trkpt><trkpt lat="43.5462967" lon="11.570685"><ele>142.0</ele><time>2026-05-01T07:32:32.209Z</time></trkpt><trkpt lat="43.5462467" lon="11.5707717"><ele>141.66666666666669</ele><time>2026-05-01T07:32:33.207Z</time></trkpt><trkpt lat="43.5461883" lon="11.5708417"><ele>141.33333333333334</ele><time>2026-05-01T07:32:34.208Z</time></trkpt><trkpt lat="43.5461267" lon="11.5708983"><ele>141.0</ele><time>2026-05-01T07:32:35.208Z</time></trkpt><trkpt lat="43.54606" lon="11.5709417"><ele>140.66666666666666</ele><time>2026-05-01T07:32:36.209Z</time></trkpt><trkpt lat="43.5459883" lon="11.5709733"><ele>140.33333333333331</ele><time>2026-05-01T07:32:37.207Z</time></trkpt><trkpt lat="43.54591" lon="11.5710017"><ele>140.0</ele><time>2026-05-01T07:32:38.208Z</time></trkpt><trkpt lat="43.5458317" lon="11.57102"><ele>140.0</ele><time>2026-05-01T07:32:39.208Z</time></trkpt><trkpt lat="43.545745" lon="11.571035"><ele>140.0</ele><time>2026-05-01T07:32:40.209Z</time></trkpt><trkpt lat="43.5456567" lon="11.5710533"><ele>140.0</ele><time>2026-05-01T07:32:41.208Z</time></trkpt><trkpt lat="43.545565" lon="11.5710733"><ele>140.0</ele><time>2026-05-01T07:32:42.208Z</time></trkpt><trkpt lat="43.545475" lon="11.5710867"><ele>140.0</ele><time>2026-05-01T07:32:43.208Z</time></trkpt><trkpt lat="43.5453833" lon="11.5710933"><ele>140.2</ele><time>2026-05-01T07:32:44.206Z</time></trkpt><trkpt lat="43.5453" lon="11.5710967"><ele>140.4</ele><time>2026-05-01T07:32:45.206Z</time></trkpt><trkpt lat="43.5452067" lon="11.571105"><ele>140.6</ele><time>2026-05-01T07:32:46.206Z</time></trkpt><trkpt lat="43.54511" lon="11.5711183"><ele>140.8</ele><time>2026-05-01T07:32:47.209Z</time></trkpt><trkpt lat="43.5450167" lon="11.57114"><ele>141.0</ele><time>2026-05-01T07:32:48.21Z</time></trkpt><trkpt lat="43.5449267" lon="11.5711717"><ele>141.0</ele><time>2026-05-01T07:32:49.208Z</time></trkpt><trkpt lat="43.5448417" lon="11.5712083"><ele>141.0</ele><time>2026-05-01T07:32:50.208Z</time></trkpt><trkpt lat="43.544755" lon="11.5712533"><ele>141.0</ele><time>2026-05-01T07:32:51.208Z</time></trkpt><trkpt lat="43.5446683" lon="11.5713033"><ele>141.0</ele><time>2026-05-01T07:32:52.206Z</time></trkpt><trkpt lat="43.5445867" lon="11.5713567"><ele>141.0</ele><time>2026-05-01T07:32:53.21Z</time></trkpt><trkpt lat="43.5445133" lon="11.5714267"><ele>141.0</ele><time>2026-05-01T07:32:54.206Z</time></trkpt><trkpt lat="43.544465" lon="11.57152"><ele>141.0</ele><time>2026-05-01T07:32:55.206Z</time></trkpt><trkpt lat="43.5444317" lon="11.5716267"><ele>141.0</ele><time>2026-05-01T07:32:56.209Z</time></trkpt><trkpt lat="43.544435" lon="11.57175"><ele>141.0</ele><time>2026-05-01T07:32:57.206Z</time></trkpt><trkpt lat="43.5444583" lon="11.57187"><ele>141.0</ele><time>2026-05-01T07:32:58.208Z</time></trkpt><trkpt lat="43.54451" lon="11.5719783"><ele>141.0</ele><time>2026-05-01T07:32:59.206Z</time></trkpt><trkpt lat="43.54456" lon="11.57209"><ele>142.16666666666666</ele><time>2026-05-01T07:33:00.207Z</time></trkpt><trkpt lat="43.5446133" lon="11.5721983"><ele>143.33333333333334</ele><time>2026-05-01T07:33:01.207Z</time></trkpt><trkpt lat="43.5446633" lon="11.572305"><ele>144.5</ele><time>2026-05-01T07:33:02.209Z</time></trkpt><trkpt lat="43.544715" lon="11.5723983"><ele>145.66666666666669</ele><time>2026-05-01T07:33:03.208Z</time></trkpt><trkpt lat="43.5447617" lon="11.5724833"><ele>146.83333333333334</ele><time>2026-05-01T07:33:04.206Z</time></trkpt><trkpt lat="43.5448083" lon="11.5725683"><ele>148.0</ele><time>2026-05-01T07:33:05.209Z</time></trkpt><trkpt lat="43.5448583" lon="11.5726533"><ele>148.0</ele><time>2026-05-01T07:33:06.207Z</time></trkpt><trkpt lat="43.5449083" lon="11.5727383"><ele>148.0</ele><time>2026-05-01T07:33:07.207Z</time></trkpt><trkpt lat="43.5449567" lon="11.5728283"><ele>148.0</ele><time>2026-05-01T07:33:08.208Z</time></trkpt><trkpt lat="43.545005" lon="11.5729083"><ele>148.0</ele><time>2026-05-01T07:33:09.207Z</time></trkpt><trkpt lat="43.5450517" lon="11.5729883"><ele>148.0</ele><time>2026-05-01T07:33:10.208Z</time></trkpt><trkpt lat="43.54511" lon="11.5730767"><ele>148.0</ele><time>2026-05-01T07:33:11.206Z</time></trkpt><trkpt lat="43.5451667" lon="11.573175"><ele>147.4</ele><time>2026-05-01T07:33:12.209Z</time></trkpt><trkpt lat="43.545225" lon="11.5732733"><ele>146.8</ele><time>2026-05-01T07:33:13.206Z</time></trkpt><trkpt lat="43.5452833" lon="11.5733717"><ele>146.2</ele><time>2026-05-01T07:33:14.205Z</time></trkpt><trkpt lat="43.54534" lon="11.5734717"><ele>145.6</ele><time>2026-05-01T07:33:15.207Z</time></trkpt><trkpt lat="43.5453967" lon="11.5735683"><ele>145.0</ele><time>2026-05-01T07:33:16.207Z</time></trkpt><trkpt lat="43.545455" lon="11.5736617"><ele>144.33333333333334</ele><time>2026-05-01T07:33:17.209Z</time></trkpt><trkpt lat="43.5455133" lon="11.57375"><ele>143.66666666666669</ele><time>2026-05-01T07:33:18.206Z</time></trkpt><trkpt lat="43.5455717" lon="11.5738233"><ele>143.0</ele><time>2026-05-01T07:33:19.206Z</time></trkpt><trkpt lat="43.54563" lon="11.5739"><ele>142.33333333333334</ele><time>2026-05-01T07:33:20.208Z</time></trkpt><trkpt lat="43.5456883" lon="11.5739817"><ele>141.66666666666666</ele><time>2026-05-01T07:33:21.206Z</time></trkpt><trkpt lat="43.545745" lon="11.5740583"><ele>141.0</ele><time>2026-05-01T07:33:22.206Z</time></trkpt><trkpt lat="43.5458" lon="11.5741367"><ele>141.0</ele><time>2026-05-01T07:33:23.207Z</time></trkpt><trkpt lat="43.5458567" lon="11.5742183"><ele>141.0</ele><time>2026-05-01T07:33:24.209Z</time></trkpt><trkpt lat="43.5459117" lon="11.5743033"><ele>141.0</ele><time>2026-05-01T07:33:25.207Z</time></trkpt><trkpt lat="43.5459683" lon="11.574385"><ele>141.0</ele><time>2026-05-01T07:33:26.208Z</time></trkpt><trkpt lat="43.5460233" lon="11.5744733"><ele>141.0</ele><time>2026-05-01T07:33:27.203Z</time></trkpt><trkpt lat="43.5460767" lon="11.5745567"><ele>141.0</ele><time>2026-05-01T07:33:28.205Z</time></trkpt><trkpt lat="43.54613" lon="11.5746333"><ele>141.0</ele><time>2026-05-01T07:33:29.204Z</time></trkpt><trkpt lat="43.54618" lon="11.5747083"><ele>141.0</ele><time>2026-05-01T07:33:30.203Z</time></trkpt><trkpt lat="43.54623" lon="11.5747883"><ele>141.0</ele><time>2026-05-01T07:33:31.205Z</time></trkpt><trkpt lat="43.54628" lon="11.5748683"><ele>141.0</ele><time>2026-05-01T07:33:32.204Z</time></trkpt><trkpt lat="43.54633" lon="11.57495"><ele>141.0</ele><time>2026-05-01T07:33:33.205Z</time></trkpt><trkpt lat="43.54638" lon="11.5750317"><ele>141.0</ele><time>2026-05-01T07:33:34.204Z</time></trkpt><trkpt lat="43.5464283" lon="11.5751183"><ele>140.83333333333334</ele><time>2026-05-01T07:33:35.205Z</time></trkpt><trkpt lat="43.5464767" lon="11.5752033"><ele>140.66666666666666</ele><time>2026-05-01T07:33:36.206Z</time></trkpt><trkpt lat="43.546525" lon="11.5752917"><ele>140.5</ele><time>2026-05-01T07:33:37.209Z</time></trkpt><trkpt lat="43.5465717" lon="11.5753817"><ele>140.33333333333331</ele><time>2026-05-01T07:33:38.208Z</time></trkpt><trkpt lat="43.5466183" lon="11.57547"><ele>140.16666666666666</ele><time>2026-05-01T07:33:39.209Z</time></trkpt><trkpt lat="43.5466667" lon="11.5755583"><ele>140.0</ele><time>2026-05-01T07:33:40.206Z</time></trkpt><trkpt lat="43.5467167" lon="11.5756483"><ele>140.33333333333331</ele><time>2026-05-01T07:33:41.207Z</time></trkpt><trkpt lat="43.546765" lon="11.5757417"><ele>140.66666666666666</ele><time>2026-05-01T07:33:42.208Z</time></trkpt><trkpt lat="43.5468117" lon="11.5758333"><ele>141.0</ele><time>2026-05-01T07:33:43.206Z</time></trkpt><trkpt lat="43.5468567" lon="11.575925"><ele>141.33333333333334</ele><time>2026-05-01T07:33:44.207Z</time></trkpt><trkpt lat="43.5469" lon="11.5760133"><ele>141.66666666666669</ele><time>2026-05-01T07:33:45.208Z</time></trkpt><trkpt lat="43.546945" lon="11.5761017"><ele>142.0</ele><time>2026-05-01T07:33:46.207Z</time></trkpt><trkpt lat="43.5469883" lon="11.5761933"><ele>142.0</ele><time>2026-05-01T07:33:47.207Z</time></trkpt><trkpt lat="43.5470283" lon="11.5762883"><ele>142.0</ele><time>2026-05-01T07:33:48.205Z</time></trkpt><trkpt lat="43.547065" lon="11.5763833"><ele>142.0</ele><time>2026-05-01T07:33:49.206Z</time></trkpt><trkpt lat="43.5471" lon="11.57648"><ele>142.0</ele><time>2026-05-01T07:33:50.205Z</time></trkpt><trkpt lat="43.5471333" lon="11.57658"><ele>142.0</ele><time>2026-05-01T07:33:51.205Z</time></trkpt><trkpt lat="43.54716" lon="11.576685"><ele>142.0</ele><time>2026-05-01T07:33:52.208Z</time></trkpt><trkpt lat="43.547175" lon="11.5767917"><ele>142.16666666666669</ele><time>2026-05-01T07:33:53.207Z</time></trkpt><trkpt lat="43.54717" lon="11.5768983"><ele>142.33333333333334</ele><time>2026-05-01T07:33:54.209Z</time></trkpt><trkpt lat="43.5471533" lon="11.577"><ele>142.5</ele><time>2026-05-01T07:33:55.207Z</time></trkpt><trkpt lat="43.5471383" lon="11.577105"><ele>142.66666666666666</ele><time>2026-05-01T07:33:56.207Z</time></trkpt><trkpt lat="43.5471217" lon="11.5772083"><ele>142.83333333333331</ele><time>2026-05-01T07:33:57.208Z</time></trkpt><trkpt lat="43.547115" lon="11.5773133"><ele>143.0</ele><time>2026-05-01T07:33:58.207Z</time></trkpt><trkpt lat="43.5471183" lon="11.57742"><ele>143.0</ele><time>2026-05-01T07:33:59.208Z</time></trkpt><trkpt lat="43.5471333" lon="11.577525"><ele>143.0</ele><time>2026-05-01T07:34:00.206Z</time></trkpt><trkpt lat="43.5471583" lon="11.5776267"><ele>143.0</ele><time>2026-05-01T07:34:01.206Z</time></trkpt><trkpt lat="43.5471867" lon="11.577725"><ele>143.0</ele><time>2026-05-01T07:34:02.207Z</time></trkpt><trkpt lat="43.54722" lon="11.5778217"><ele>143.0</ele><time>2026-05-01T07:34:03.21Z</time></trkpt><trkpt lat="43.547265" lon="11.5779117"><ele>143.0</ele><time>2026-05-01T07:34:04.204Z</time></trkpt><trkpt lat="43.54732" lon="11.5779917"><ele>143.0</ele><time>2026-05-01T07:34:05.208Z</time></trkpt><trkpt lat="43.5473817" lon="11.578055"><ele>143.0</ele><time>2026-05-01T07:34:06.206Z</time></trkpt><trkpt lat="43.54745" lon="11.5781017"><ele>143.0</ele><time>2026-05-01T07:34:07.207Z</time></trkpt><trkpt lat="43.54752" lon="11.5781417"><ele>143.0</ele><time>2026-05-01T07:34:08.207Z</time></trkpt><trkpt lat="43.5475917" lon="11.5781817"><ele>143.0</ele><time>2026-05-01T07:34:09.206Z</time></trkpt><trkpt lat="43.5476583" lon="11.5782333"><ele>143.0</ele><time>2026-05-01T07:34:10.205Z</time></trkpt><trkpt lat="43.5477167" lon="11.578305"><ele>143.0</ele><time>2026-05-01T07:34:11.206Z</time></trkpt><trkpt lat="43.54776" lon="11.578395"><ele>143.0</ele><time>2026-05-01T07:34:12.206Z</time></trkpt><trkpt lat="43.5477933" lon="11.5784933"><ele>143.0</ele><time>2026-05-01T07:34:13.206Z</time></trkpt><trkpt lat="43.54782" lon="11.5785983"><ele>143.0</ele><time>2026-05-01T07:34:14.208Z</time></trkpt><trkpt lat="43.547845" lon="11.5787083"><ele>143.0</ele><time>2026-05-01T07:34:15.208Z</time></trkpt><trkpt lat="43.54787" lon="11.5788133"><ele>143.0</ele><time>2026-05-01T07:34:16.207Z</time></trkpt><trkpt lat="43.547895" lon="11.5789217"><ele>143.33333333333331</ele><time>2026-05-01T07:34:17.208Z</time></trkpt><trkpt lat="43.5479217" lon="11.5790267"><ele>143.66666666666666</ele><time>2026-05-01T07:34:18.207Z</time></trkpt><trkpt lat="43.5479483" lon="11.5791333"><ele>144.0</ele><time>2026-05-01T07:34:19.206Z</time></trkpt><trkpt lat="43.5479733" lon="11.579235"><ele>144.33333333333334</ele><time>2026-05-01T07:34:20.207Z</time></trkpt><trkpt lat="43.5479983" lon="11.57934"><ele>144.66666666666669</ele><time>2026-05-01T07:34:21.208Z</time></trkpt><trkpt lat="43.5480217" lon="11.57944"><ele>145.0</ele><time>2026-05-01T07:34:22.207Z</time></trkpt><trkpt lat="43.548045" lon="11.57954"><ele>145.0</ele><time>2026-05-01T07:34:23.208Z</time></trkpt><trkpt lat="43.5480667" lon="11.57964"><ele>145.0</ele><time>2026-05-01T07:34:24.206Z</time></trkpt><trkpt lat="43.5480867" lon="11.57974"><ele>145.0</ele><time>2026-05-01T07:34:25.207Z</time></trkpt><trkpt lat="43.5481033" lon="11.5798433"><ele>145.0</ele><time>2026-05-01T07:34:26.21Z</time></trkpt><trkpt lat="43.54812" lon="11.5799517"><ele>145.0</ele><time>2026-05-01T07:34:27.208Z</time></trkpt><trkpt lat="43.548135" lon="11.58006"><ele>145.0</ele><time>2026-05-01T07:34:28.206Z</time></trkpt><trkpt lat="43.5481483" lon="11.580165"><ele>145.0</ele><time>2026-05-01T07:34:29.207Z</time></trkpt><trkpt lat="43.548165" lon="11.58026"><ele>145.0</ele><time>2026-05-01T07:34:30.209Z</time></trkpt><trkpt lat="43.5481767" lon="11.5803617"><ele>145.0</ele><time>2026-05-01T07:34:31.207Z</time></trkpt><trkpt lat="43.54819" lon="11.5804567"><ele>145.0</ele><time>2026-05-01T07:34:32.206Z</time></trkpt><trkpt lat="43.5482017" lon="11.5805583"><ele>145.0</ele><time>2026-05-01T07:34:33.206Z</time></trkpt><trkpt lat="43.5482133" lon="11.5806617"><ele>145.0</ele><time>2026-05-01T07:34:34.208Z</time></trkpt><trkpt lat="43.548225" lon="11.580765"><ele>145.0</ele><time>2026-05-01T07:34:35.207Z</time></trkpt><trkpt lat="43.5482367" lon="11.580865"><ele>145.0</ele><time>2026-05-01T07:34:36.208Z</time></trkpt><trkpt lat="43.5482467" lon="11.580965"><ele>145.0</ele><time>2026-05-01T07:34:37.205Z</time></trkpt><trkpt lat="43.5482567" lon="11.5810667"><ele>145.0</ele><time>2026-05-01T07:34:38.207Z</time></trkpt><trkpt lat="43.5482667" lon="11.5811683"><ele>145.0</ele><time>2026-05-01T07:34:39.206Z</time></trkpt><trkpt lat="43.54828" lon="11.5812717"><ele>145.0</ele><time>2026-05-01T07:34:40.205Z</time></trkpt><trkpt lat="43.548295" lon="11.5813767"><ele>145.0</ele><time>2026-05-01T07:34:41.208Z</time></trkpt><trkpt lat="43.5483083" lon="11.5814783"><ele>145.0</ele><time>2026-05-01T07:34:42.211Z</time></trkpt><trkpt lat="43.5483183" lon="11.58158"><ele>145.0</ele><time>2026-05-01T07:34:43.208Z</time></trkpt><trkpt lat="43.54833" lon="11.5816833"><ele>145.0</ele><time>2026-05-01T07:34:44.207Z</time></trkpt><trkpt lat="43.5483383" lon="11.5817883"><ele>145.0</ele><time>2026-05-01T07:34:45.207Z</time></trkpt><trkpt lat="43.5483483" lon="11.5818917"><ele>145.0</ele><time>2026-05-01T07:34:46.206Z</time></trkpt><trkpt lat="43.5483567" lon="11.581995"><ele>145.0</ele><time>2026-05-01T07:34:47.208Z</time></trkpt><trkpt lat="43.548365" lon="11.5821"><ele>145.16666666666669</ele><time>2026-05-01T07:34:48.206Z</time></trkpt><trkpt lat="43.548375" lon="11.5822017"><ele>145.33333333333334</ele><time>2026-05-01T07:34:49.208Z</time></trkpt><trkpt lat="43.54839" lon="11.5823017"><ele>145.5</ele><time>2026-05-01T07:34:50.206Z</time></trkpt><trkpt lat="43.5484083" lon="11.5824017"><ele>145.66666666666666</ele><time>2026-05-01T07:34:51.207Z</time></trkpt><trkpt lat="43.5484267" lon="11.582505"><ele>145.83333333333331</ele><time>2026-05-01T07:34:52.207Z</time></trkpt><trkpt lat="43.5484467" lon="11.5826083"><ele>146.0</ele><time>2026-05-01T07:34:53.207Z</time></trkpt><trkpt lat="43.548465" lon="11.58271"><ele>146.0</ele><time>2026-05-01T07:34:54.207Z</time></trkpt><trkpt lat="43.5484817" lon="11.5828133"><ele>146.0</ele><time>2026-05-01T07:34:55.208Z</time></trkpt><trkpt lat="43.5484983" lon="11.5829067"><ele>146.0</ele><time>2026-05-01T07:34:56.208Z</time></trkpt><trkpt lat="43.54852" lon="11.5829967"><ele>146.0</ele><time>2026-05-01T07:34:57.205Z</time></trkpt><trkpt lat="43.54854" lon="11.5830817"><ele>146.0</ele><time>2026-05-01T07:34:58.207Z</time></trkpt><trkpt lat="43.5485583" lon="11.5831667"><ele>146.0</ele><time>2026-05-01T07:34:59.208Z</time></trkpt><trkpt lat="43.54858" lon="11.583255"><ele>146.0</ele><time>2026-05-01T07:35:00.206Z</time></trkpt><trkpt lat="43.5486017" lon="11.5833417"><ele>146.14285714285714</ele><time>2026-05-01T07:35:01.208Z</time></trkpt><trkpt lat="43.548625" lon="11.5834267"><ele>146.28571428571428</ele><time>2026-05-01T07:35:02.207Z</time></trkpt><trkpt lat="43.54865" lon="11.583515"><ele>146.42857142857144</ele><time>2026-05-01T07:35:03.208Z</time></trkpt><trkpt lat="43.54868" lon="11.5836017"><ele>146.57142857142856</ele><time>2026-05-01T07:35:04.207Z</time></trkpt><trkpt lat="43.54871" lon="11.5836883"><ele>146.71428571428572</ele><time>2026-05-01T07:35:05.208Z</time></trkpt><trkpt lat="43.54874" lon="11.5837717"><ele>146.85714285714286</ele><time>2026-05-01T07:35:06.208Z</time></trkpt><trkpt lat="43.5487667" lon="11.58386"><ele>147.0</ele><time>2026-05-01T07:35:07.209Z</time></trkpt><trkpt lat="43.5487933" lon="11.583945"><ele>147.4</ele><time>2026-05-01T07:35:08.206Z</time></trkpt><trkpt lat="43.5488217" lon="11.584025"><ele>147.79999999999998</ele><time>2026-05-01T07:35:09.207Z</time></trkpt><trkpt lat="43.54888" lon="11.5841717"><ele>148.2</ele><time>2026-05-01T07:35:11.206Z</time></trkpt><trkpt lat="43.5489317" lon="11.58431"><ele>148.6</ele><time>2026-05-01T07:35:13.209Z</time></trkpt><trkpt lat="43.5489683" lon="11.5844233"><ele>149.0</ele><time>2026-05-01T07:35:15.207Z</time></trkpt><trkpt lat="43.549" lon="11.5845317"><ele>149.16666666666666</ele><time>2026-05-01T07:35:17.206Z</time></trkpt><trkpt lat="43.5490333" lon="11.5846333"><ele>149.33333333333331</ele><time>2026-05-01T07:35:20.206Z</time></trkpt><trkpt lat="43.549075" lon="11.58472"><ele>149.5</ele><time>2026-05-01T07:35:26.207Z</time></trkpt><trkpt lat="43.54911" lon="11.5848117"><ele>149.66666666666666</ele><time>2026-05-01T07:35:29.209Z</time></trkpt><trkpt lat="43.5491483" lon="11.58491"><ele>149.83333333333334</ele><time>2026-05-01T07:35:31.209Z</time></trkpt><trkpt lat="43.5492033" lon="11.5850317"><ele>150.0</ele><time>2026-05-01T07:35:33.207Z</time></trkpt><trkpt lat="43.5492667" lon="11.5851717"><ele>150.0</ele><time>2026-05-01T07:35:35.207Z</time></trkpt><trkpt lat="43.5493283" lon="11.5853167"><ele>150.0</ele><time>2026-05-01T07:35:37.207Z</time></trkpt><trkpt lat="43.5493583" lon="11.585395"><ele>150.0</ele><time>2026-05-01T07:35:38.207Z</time></trkpt><trkpt lat="43.54939" lon="11.585475"><ele>150.0</ele><time>2026-05-01T07:35:39.207Z</time></trkpt><trkpt lat="43.5494217" lon="11.5855567"><ele>150.0</ele><time>2026-05-01T07:35:40.208Z</time></trkpt><trkpt lat="43.5494583" lon="11.585635"><ele>150.0</ele><time>2026-05-01T07:35:41.208Z</time></trkpt><trkpt lat="43.5494967" lon="11.5857117"><ele>149.99999999999997</ele><time>2026-05-01T07:35:42.209Z</time></trkpt><trkpt lat="43.5495367" lon="11.5858"><ele>150.0</ele><time>2026-05-01T07:35:43.206Z</time></trkpt><trkpt lat="43.549575" lon="11.5858933"><ele>150.0</ele><time>2026-05-01T07:35:44.207Z</time></trkpt><trkpt lat="43.54961" lon="11.5859833"><ele>150.0</ele><time>2026-05-01T07:35:45.207Z</time></trkpt><trkpt lat="43.5496433" lon="11.586075"><ele>150.0</ele><time>2026-05-01T07:35:46.206Z</time></trkpt><trkpt lat="43.549675" lon="11.5861633"><ele>149.99999999999997</ele><time>2026-05-01T07:35:47.208Z</time></trkpt><trkpt lat="43.5497017" lon="11.5862433"><ele>150.0</ele><time>2026-05-01T07:35:48.206Z</time></trkpt><trkpt lat="43.5497383" lon="11.586375"><ele>150.16666666666666</ele><time>2026-05-01T07:35:50.207Z</time></trkpt><trkpt lat="43.5497717" lon="11.5864583"><ele>150.33333333333334</ele><time>2026-05-01T07:35:52.207Z</time></trkpt><trkpt lat="43.5498033" lon="11.5865467"><ele>150.5</ele><time>2026-05-01T07:35:55.206Z</time></trkpt><trkpt lat="43.5498683" lon="11.58663"><ele>150.66666666666669</ele><time>2026-05-01T07:36:23.204Z</time></trkpt><trkpt lat="43.5499183" lon="11.5867317"><ele>150.83333333333334</ele><time>2026-05-01T07:36:27.203Z</time></trkpt><trkpt lat="43.54995" lon="11.586855"><ele>151.0</ele><time>2026-05-01T07:36:29.207Z</time></trkpt><trkpt lat="43.5499967" lon="11.5869933"><ele>151.0</ele><time>2026-05-01T07:36:31.207Z</time></trkpt><trkpt lat="43.5500483" lon="11.5871283"><ele>151.0</ele><time>2026-05-01T07:36:33.206Z</time></trkpt><trkpt lat="43.5501083" lon="11.587265"><ele>151.0</ele><time>2026-05-01T07:36:35.207Z</time></trkpt><trkpt lat="43.5501417" lon="11.5873417"><ele>151.0</ele><time>2026-05-01T07:36:36.205Z</time></trkpt><trkpt lat="43.5501767" lon="11.58742"><ele>151.0</ele><time>2026-05-01T07:36:37.209Z</time></trkpt><trkpt lat="43.5502083" lon="11.5874967"><ele>151.0</ele><time>2026-05-01T07:36:38.207Z</time></trkpt><trkpt lat="43.55027" lon="11.5876417"><ele>151.0</ele><time>2026-05-01T07:36:40.207Z</time></trkpt><trkpt lat="43.55033" lon="11.5877933"><ele>151.0</ele><time>2026-05-01T07:36:42.207Z</time></trkpt><trkpt lat="43.5503617" lon="11.58787"><ele>151.0</ele><time>2026-05-01T07:36:43.208Z</time></trkpt><trkpt lat="43.5503933" lon="11.5879533"><ele>151.0</ele><time>2026-05-01T07:36:44.209Z</time></trkpt><trkpt lat="43.5504233" lon="11.5880367"><ele>151.0</ele><time>2026-05-01T07:36:45.209Z</time></trkpt><trkpt lat="43.550455" lon="11.5881217"><ele>151.0</ele><time>2026-05-01T07:36:46.204Z</time></trkpt><trkpt lat="43.5504867" lon="11.5882083"><ele>151.00000000000003</ele><time>2026-05-01T07:36:47.208Z</time></trkpt><trkpt lat="43.55052" lon="11.58829"><ele>151.0</ele><time>2026-05-01T07:36:48.207Z</time></trkpt><trkpt lat="43.5505517" lon="11.588375"><ele>151.0</ele><time>2026-05-01T07:36:49.209Z</time></trkpt><trkpt lat="43.5505817" lon="11.5884567"><ele>151.0</ele><time>2026-05-01T07:36:50.207Z</time></trkpt><trkpt lat="43.550615" lon="11.5885417"><ele>151.0</ele><time>2026-05-01T07:36:51.207Z</time></trkpt><trkpt lat="43.5506483" lon="11.5886283"><ele>151.00000000000003</ele><time>2026-05-01T07:36:52.206Z</time></trkpt><trkpt lat="43.5506817" lon="11.58871"><ele>151.0</ele><time>2026-05-01T07:36:53.206Z</time></trkpt><trkpt lat="43.5507133" lon="11.588795"><ele>151.00000000000003</ele><time>2026-05-01T07:36:54.207Z</time></trkpt><trkpt lat="43.5507467" lon="11.5888783"><ele>151.0</ele><time>2026-05-01T07:36:55.207Z</time></trkpt><trkpt lat="43.5507817" lon="11.5889617"><ele>151.0</ele><time>2026-05-01T07:36:56.207Z</time></trkpt><trkpt lat="43.5508183" lon="11.589045"><ele>151.0</ele><time>2026-05-01T07:36:57.207Z</time></trkpt><trkpt lat="43.5508517" lon="11.5891333"><ele>151.0</ele><time>2026-05-01T07:36:58.206Z</time></trkpt><trkpt lat="43.5508883" lon="11.5892217"><ele>151.00000000000003</ele><time>2026-05-01T07:36:59.21Z</time></trkpt><trkpt lat="43.5509283" lon="11.5893083"><ele>151.0</ele><time>2026-05-01T07:37:00.207Z</time></trkpt><trkpt lat="43.5509683" lon="11.5893917"><ele>151.00000000000003</ele><time>2026-05-01T07:37:01.206Z</time></trkpt><trkpt lat="43.5510133" lon="11.5894783"><ele>151.0</ele><time>2026-05-01T07:37:02.206Z</time></trkpt><trkpt lat="43.5510617" lon="11.589555"><ele>151.0</ele><time>2026-05-01T07:37:03.207Z</time></trkpt><trkpt lat="43.55111" lon="11.58964"><ele>151.0</ele><time>2026-05-01T07:37:04.206Z</time></trkpt><trkpt lat="43.5511617" lon="11.5897167"><ele>151.0</ele><time>2026-05-01T07:37:05.207Z</time></trkpt><trkpt lat="43.55121" lon="11.589785"><ele>151.00000000000003</ele><time>2026-05-01T07:37:06.21Z</time></trkpt><trkpt lat="43.5512583" lon="11.5898467"><ele>151.0</ele><time>2026-05-01T07:37:07.207Z</time></trkpt><trkpt lat="43.55131" lon="11.58991"><ele>151.2857142857143</ele><time>2026-05-01T07:37:08.207Z</time></trkpt><trkpt lat="43.5513633" lon="11.58997"><ele>151.57142857142858</ele><time>2026-05-01T07:37:09.207Z</time></trkpt><trkpt lat="43.5514183" lon="11.5900317"><ele>151.85714285714286</ele><time>2026-05-01T07:37:10.209Z</time></trkpt><trkpt lat="43.55148" lon="11.5900933"><ele>152.14285714285717</ele><time>2026-05-01T07:37:11.207Z</time></trkpt><trkpt lat="43.55154" lon="11.59015"><ele>152.42857142857144</ele><time>2026-05-01T07:37:12.207Z</time></trkpt><trkpt lat="43.5516033" lon="11.5902067"><ele>152.71428571428572</ele><time>2026-05-01T07:37:13.207Z</time></trkpt><trkpt lat="43.5516667" lon="11.590265"><ele>153.0</ele><time>2026-05-01T07:37:14.209Z</time></trkpt><trkpt lat="43.55173" lon="11.5903267"><ele>152.85714285714286</ele><time>2026-05-01T07:37:15.208Z</time></trkpt><trkpt lat="43.5517917" lon="11.5903867"><ele>152.71428571428572</ele><time>2026-05-01T07:37:16.207Z</time></trkpt><trkpt lat="43.5518517" lon="11.5904467"><ele>152.57142857142856</ele><time>2026-05-01T07:37:17.208Z</time></trkpt><trkpt lat="43.5519117" lon="11.5905017"><ele>152.42857142857144</ele><time>2026-05-01T07:37:18.209Z</time></trkpt><trkpt lat="43.5519683" lon="11.5905567"><ele>152.2857142857143</ele><time>2026-05-01T07:37:19.206Z</time></trkpt><trkpt lat="43.5520233" lon="11.5906117"><ele>152.14285714285714</ele><time>2026-05-01T07:37:20.205Z</time></trkpt><trkpt lat="43.5520767" lon="11.59067"><ele>152.0</ele><time>2026-05-01T07:37:21.207Z</time></trkpt><trkpt lat="43.5521283" lon="11.5907283"><ele>151.85714285714286</ele><time>2026-05-01T07:37:22.208Z</time></trkpt><trkpt lat="43.5521867" lon="11.590785"><ele>151.71428571428572</ele><time>2026-05-01T07:37:23.207Z</time></trkpt><trkpt lat="43.552245" lon="11.5908433"><ele>151.57142857142858</ele><time>2026-05-01T07:37:24.208Z</time></trkpt><trkpt lat="43.5523067" lon="11.5909067"><ele>151.42857142857144</ele><time>2026-05-01T07:37:25.208Z</time></trkpt><trkpt lat="43.552365" lon="11.5909667"><ele>151.28571428571428</ele><time>2026-05-01T07:37:26.209Z</time></trkpt><trkpt lat="43.5524183" lon="11.5910267"><ele>151.14285714285717</ele><time>2026-05-01T07:37:27.208Z</time></trkpt><trkpt lat="43.5524683" lon="11.591085"><ele>151.0</ele><time>2026-05-01T07:37:28.206Z</time></trkpt><trkpt lat="43.552525" lon="11.591145"><ele>151.14285714285717</ele><time>2026-05-01T07:37:29.207Z</time></trkpt><trkpt lat="43.5525817" lon="11.5912017"><ele>151.28571428571428</ele><time>2026-05-01T07:37:30.207Z</time></trkpt><trkpt lat="43.5526367" lon="11.5912567"><ele>151.42857142857144</ele><time>2026-05-01T07:37:31.207Z</time></trkpt><trkpt lat="43.5526933" lon="11.5913167"><ele>151.57142857142858</ele><time>2026-05-01T07:37:32.207Z</time></trkpt><trkpt lat="43.5527483" lon="11.5913717"><ele>151.71428571428572</ele><time>2026-05-01T07:37:33.207Z</time></trkpt><trkpt lat="43.5528033" lon="11.5914333"><ele>151.85714285714286</ele><time>2026-05-01T07:37:34.207Z</time></trkpt><trkpt lat="43.5528583" lon="11.5914933"><ele>152.0</ele><time>2026-05-01T07:37:35.208Z</time></trkpt><trkpt lat="43.5529167" lon="11.5915517"><ele>152.0</ele><time>2026-05-01T07:37:36.208Z</time></trkpt><trkpt lat="43.552975" lon="11.59161"><ele>152.0</ele><time>2026-05-01T07:37:37.206Z</time></trkpt><trkpt lat="43.5530333" lon="11.5916767"><ele>152.0</ele><time>2026-05-01T07:37:38.207Z</time></trkpt><trkpt lat="43.5530933" lon="11.5917417"><ele>152.0</ele><time>2026-05-01T07:37:39.208Z</time></trkpt><trkpt lat="43.5531533" lon="11.5918117"><ele>152.0</ele><time>2026-05-01T07:37:40.205Z</time></trkpt><trkpt lat="43.55321" lon="11.591875"><ele>152.0</ele><time>2026-05-01T07:37:41.206Z</time></trkpt><trkpt lat="43.55327" lon="11.59194"><ele>152.0</ele><time>2026-05-01T07:37:42.207Z</time></trkpt><trkpt lat="43.5533267" lon="11.592"><ele>152.0</ele><time>2026-05-01T07:37:43.208Z</time></trkpt><trkpt lat="43.5533883" lon="11.5920683"><ele>152.0</ele><time>2026-05-01T07:37:44.207Z</time></trkpt><trkpt lat="43.5534483" lon="11.5921367"><ele>152.0</ele><time>2026-05-01T07:37:45.207Z</time></trkpt><trkpt lat="43.55351" lon="11.5922"><ele>152.0</ele><time>2026-05-01T07:37:46.209Z</time></trkpt><trkpt lat="43.55357" lon="11.5922617"><ele>152.0</ele><time>2026-05-01T07:37:47.206Z</time></trkpt><trkpt lat="43.5536317" lon="11.592325"><ele>151.85714285714286</ele><time>2026-05-01T07:37:48.206Z</time></trkpt><trkpt lat="43.5536883" lon="11.5923883"><ele>151.71428571428572</ele><time>2026-05-01T07:37:49.204Z</time></trkpt><trkpt lat="43.553745" lon="11.5924517"><ele>151.57142857142858</ele><time>2026-05-01T07:37:50.204Z</time></trkpt><trkpt lat="43.5538017" lon="11.5925183"><ele>151.42857142857144</ele><time>2026-05-01T07:37:51.204Z</time></trkpt><trkpt lat="43.553855" lon="11.59259"><ele>151.28571428571428</ele><time>2026-05-01T07:37:52.204Z</time></trkpt><trkpt lat="43.553905" lon="11.592665"><ele>151.14285714285717</ele><time>2026-05-01T07:37:53.204Z</time></trkpt><trkpt lat="43.55395" lon="11.592745"><ele>151.0</ele><time>2026-05-01T07:37:54.204Z</time></trkpt><trkpt lat="43.55399" lon="11.5928267"><ele>151.5</ele><time>2026-05-01T07:37:55.204Z</time></trkpt><trkpt lat="43.554035" lon="11.5929233"><ele>152.0</ele><time>2026-05-01T07:37:56.204Z</time></trkpt><trkpt lat="43.5540817" lon="11.5930167"><ele>152.5</ele><time>2026-05-01T07:37:57.204Z</time></trkpt><trkpt lat="43.5541267" lon="11.5931033"><ele>153.0</ele><time>2026-05-01T07:37:58.206Z</time></trkpt><trkpt lat="43.5541617" lon="11.5931967"><ele>153.5</ele><time>2026-05-01T07:37:59.208Z</time></trkpt><trkpt lat="43.5541983" lon="11.5932933"><ele>154.0</ele><time>2026-05-01T07:38:00.209Z</time></trkpt><trkpt lat="43.5542333" lon="11.59339"><ele>154.0</ele><time>2026-05-01T07:38:01.209Z</time></trkpt><trkpt lat="43.5542683" lon="11.5934867"><ele>154.0</ele><time>2026-05-01T07:38:02.209Z</time></trkpt><trkpt lat="43.554305" lon="11.59358"><ele>154.0</ele><time>2026-05-01T07:38:03.205Z</time></trkpt><trkpt lat="43.5543433" lon="11.5936733"><ele>154.0</ele><time>2026-05-01T07:38:04.207Z</time></trkpt><trkpt lat="43.55438" lon="11.59376"><ele>154.0</ele><time>2026-05-01T07:38:05.208Z</time></trkpt><trkpt lat="43.5544133" lon="11.5938433"><ele>154.0</ele><time>2026-05-01T07:38:06.208Z</time></trkpt><trkpt lat="43.55445" lon="11.5939333"><ele>154.0</ele><time>2026-05-01T07:38:07.207Z</time></trkpt><trkpt lat="43.55449" lon="11.5940183"><ele>154.0</ele><time>2026-05-01T07:38:08.207Z</time></trkpt><trkpt lat="43.5545267" lon="11.5941067"><ele>154.0</ele><time>2026-05-01T07:38:09.206Z</time></trkpt><trkpt lat="43.5545617" lon="11.5941917"><ele>154.0</ele><time>2026-05-01T07:38:10.205Z</time></trkpt><trkpt lat="43.5545983" lon="11.5942767"><ele>154.0</ele><time>2026-05-01T07:38:11.206Z</time></trkpt><trkpt lat="43.5546333" lon="11.594355"><ele>154.0</ele><time>2026-05-01T07:38:12.207Z</time></trkpt><trkpt lat="43.55467" lon="11.5944367"><ele>154.0</ele><time>2026-05-01T07:38:13.206Z</time></trkpt><trkpt lat="43.554705" lon="11.5945167"><ele>154.0</ele><time>2026-05-01T07:38:14.207Z</time></trkpt><trkpt lat="43.55474" lon="11.594595"><ele>154.0</ele><time>2026-05-01T07:38:15.207Z</time></trkpt><trkpt lat="43.5547733" lon="11.5946733"><ele>154.0</ele><time>2026-05-01T07:38:16.208Z</time></trkpt><trkpt lat="43.5548367" lon="11.59482"><ele>154.0</ele><time>2026-05-01T07:38:18.206Z</time></trkpt><trkpt lat="43.5548933" lon="11.5949783"><ele>154.0</ele><time>2026-05-01T07:38:20.207Z</time></trkpt><trkpt lat="43.5549517" lon="11.59513"><ele>154.0</ele><time>2026-05-01T07:38:22.209Z</time></trkpt><trkpt lat="43.55501" lon="11.5952733"><ele>154.0</ele><time>2026-05-01T07:38:24.209Z</time></trkpt><trkpt lat="43.5550717" lon="11.5954067"><ele>154.0</ele><time>2026-05-01T07:38:26.205Z</time></trkpt><trkpt lat="43.5551167" lon="11.595505"><ele>154.0</ele><time>2026-05-01T07:38:28.204Z</time></trkpt><trkpt lat="43.555155" lon="11.5956033"><ele>154.0</ele><time>2026-05-01T07:38:31.205Z</time></trkpt><trkpt lat="43.55517" lon="11.5956983"><ele>154.0</ele><time>2026-05-01T07:44:59.207Z</time></trkpt><trkpt lat="43.5551983" lon="11.5957833"><ele>154.0</ele><time>2026-05-01T07:45:02.207Z</time></trkpt><trkpt lat="43.555235" lon="11.595895"><ele>154.0</ele><time>2026-05-01T07:45:05.206Z</time></trkpt><trkpt lat="43.5552667" lon="11.5959767"><ele>154.0</ele><time>2026-05-01T07:45:07.207Z</time></trkpt><trkpt lat="43.555305" lon="11.5960867"><ele>154.0</ele><time>2026-05-01T07:45:09.206Z</time></trkpt><trkpt lat="43.5553533" lon="11.5962083"><ele>154.0</ele><time>2026-05-01T07:45:11.207Z</time></trkpt><trkpt lat="43.5553967" lon="11.596325"><ele>154.0</ele><time>2026-05-01T07:45:13.205Z</time></trkpt><trkpt lat="43.555435" lon="11.5964283"><ele>154.0</ele><time>2026-05-01T07:45:15.203Z</time></trkpt><trkpt lat="43.5554717" lon="11.5965433"><ele>154.0</ele><time>2026-05-01T07:45:17.205Z</time></trkpt><trkpt lat="43.5554767" lon="11.596675"><ele>154.0</ele><time>2026-05-01T07:45:19.208Z</time></trkpt><trkpt lat="43.5554383" lon="11.5967983"><ele>154.0</ele><time>2026-05-01T07:45:21.206Z</time></trkpt><trkpt lat="43.5553617" lon="11.5968833"><ele>154.0</ele><time>2026-05-01T07:45:23.206Z</time></trkpt><trkpt lat="43.555275" lon="11.5969533"><ele>154.0</ele><time>2026-05-01T07:45:25.207Z</time></trkpt><trkpt lat="43.5551833" lon="11.5970367"><ele>154.0</ele><time>2026-05-01T07:45:27.203Z</time></trkpt><trkpt lat="43.555095" lon="11.5971383"><ele>154.0</ele><time>2026-05-01T07:45:29.207Z</time></trkpt><trkpt lat="43.5550467" lon="11.5972783"><ele>154.0</ele><time>2026-05-01T07:45:31.206Z</time></trkpt><trkpt lat="43.5550417" lon="11.5974367"><ele>154.0</ele><time>2026-05-01T07:45:33.205Z</time></trkpt><trkpt lat="43.5550767" lon="11.597585"><ele>154.0</ele><time>2026-05-01T07:45:35.205Z</time></trkpt><trkpt lat="43.55515" lon="11.5976967"><ele>154.0</ele><time>2026-05-01T07:45:37.207Z</time></trkpt><trkpt lat="43.55525" lon="11.5977867"><ele>154.0</ele><time>2026-05-01T07:45:39.209Z</time></trkpt><trkpt lat="43.555375" lon="11.59781"><ele>154.28571428571428</ele><time>2026-05-01T07:45:41.208Z</time></trkpt><trkpt lat="43.555445" lon="11.5977967"><ele>154.57142857142856</ele><time>2026-05-01T07:45:42.207Z</time></trkpt><trkpt lat="43.5555067" lon="11.5977633"><ele>154.85714285714286</ele><time>2026-05-01T07:45:43.208Z</time></trkpt><trkpt lat="43.5555717" lon="11.597725"><ele>155.14285714285714</ele><time>2026-05-01T07:45:44.205Z</time></trkpt><trkpt lat="43.5556367" lon="11.59769"><ele>155.42857142857142</ele><time>2026-05-01T07:45:45.205Z</time></trkpt><trkpt lat="43.55571" lon="11.5976717"><ele>155.71428571428572</ele><time>2026-05-01T07:45:46.205Z</time></trkpt><trkpt lat="43.5557833" lon="11.5976733"><ele>156.0</ele><time>2026-05-01T07:45:47.205Z</time></trkpt><trkpt lat="43.5558633" lon="11.5976883"><ele>156.0</ele><time>2026-05-01T07:45:48.206Z</time></trkpt><trkpt lat="43.5559433" lon="11.5977083"><ele>156.0</ele><time>2026-05-01T07:45:49.205Z</time></trkpt><trkpt lat="43.55602" lon="11.5977267"><ele>156.0</ele><time>2026-05-01T07:45:50.205Z</time></trkpt><trkpt lat="43.5560967" lon="11.5977467"><ele>156.0</ele><time>2026-05-01T07:45:51.207Z</time></trkpt><trkpt lat="43.556175" lon="11.5977633"><ele>156.0</ele><time>2026-05-01T07:45:52.206Z</time></trkpt><trkpt lat="43.5562567" lon="11.597775"><ele>156.0</ele><time>2026-05-01T07:45:53.208Z</time></trkpt><trkpt lat="43.5563417" lon="11.597785"><ele>156.0</ele><time>2026-05-01T07:45:54.207Z</time></trkpt><trkpt lat="43.5564283" lon="11.5977883"><ele>156.0</ele><time>2026-05-01T07:45:55.207Z</time></trkpt><trkpt lat="43.5565067" lon="11.5977867"><ele>156.0</ele><time>2026-05-01T07:45:56.207Z</time></trkpt><trkpt lat="43.5565867" lon="11.59779"><ele>156.0</ele><time>2026-05-01T07:45:57.207Z</time></trkpt><trkpt lat="43.556665" lon="11.5977983"><ele>156.0</ele><time>2026-05-01T07:45:58.206Z</time></trkpt><trkpt lat="43.556745" lon="11.59781"><ele>156.0</ele><time>2026-05-01T07:45:59.208Z</time></trkpt><trkpt lat="43.55682" lon="11.5978183"><ele>156.0</ele><time>2026-05-01T07:46:00.208Z</time></trkpt><trkpt lat="43.5568983" lon="11.5978217"><ele>156.0</ele><time>2026-05-01T07:46:01.207Z</time></trkpt><trkpt lat="43.5569767" lon="11.5978233"><ele>156.0</ele><time>2026-05-01T07:46:02.207Z</time></trkpt><trkpt lat="43.5570533" lon="11.5978267"><ele>156.0</ele><time>2026-05-01T07:46:03.207Z</time></trkpt><trkpt lat="43.5571317" lon="11.59783"><ele>156.0</ele><time>2026-05-01T07:46:04.207Z</time></trkpt><trkpt lat="43.5572117" lon="11.5978317"><ele>156.0</ele><time>2026-05-01T07:46:05.207Z</time></trkpt><trkpt lat="43.5572867" lon="11.5978333"><ele>156.14285714285714</ele><time>2026-05-01T07:46:06.207Z</time></trkpt><trkpt lat="43.55736" lon="11.5978367"><ele>156.28571428571428</ele><time>2026-05-01T07:46:07.206Z</time></trkpt><trkpt lat="43.5574317" lon="11.5978383"><ele>156.42857142857142</ele><time>2026-05-01T07:46:08.207Z</time></trkpt><trkpt lat="43.5575017" lon="11.5978467"><ele>156.57142857142856</ele><time>2026-05-01T07:46:09.208Z</time></trkpt><trkpt lat="43.557575" lon="11.59786"><ele>156.71428571428572</ele><time>2026-05-01T07:46:10.207Z</time></trkpt><trkpt lat="43.557645" lon="11.5978817"><ele>156.85714285714283</ele><time>2026-05-01T07:46:11.207Z</time></trkpt><trkpt lat="43.5577167" lon="11.5979117"><ele>157.0</ele><time>2026-05-01T07:46:12.207Z</time></trkpt><trkpt lat="43.557785" lon="11.5979533"><ele>156.99999999999997</ele><time>2026-05-01T07:46:13.208Z</time></trkpt><trkpt lat="43.5578517" lon="11.5979983"><ele>157.0</ele><time>2026-05-01T07:46:14.207Z</time></trkpt><trkpt lat="43.557915" lon="11.598045"><ele>157.0</ele><time>2026-05-01T07:46:15.206Z</time></trkpt><trkpt lat="43.55798" lon="11.598095"><ele>157.0</ele><time>2026-05-01T07:46:16.207Z</time></trkpt><trkpt lat="43.5580417" lon="11.5981433"><ele>157.0</ele><time>2026-05-01T07:46:17.207Z</time></trkpt><trkpt lat="43.5581067" lon="11.5981967"><ele>156.99999999999997</ele><time>2026-05-01T07:46:18.207Z</time></trkpt><trkpt lat="43.5581683" lon="11.5982467"><ele>157.0</ele><time>2026-05-01T07:46:19.207Z</time></trkpt><trkpt lat="43.5582283" lon="11.5982967"><ele>157.16666666666669</ele><time>2026-05-01T07:46:20.208Z</time></trkpt><trkpt lat="43.5582933" lon="11.5983517"><ele>157.33333333333334</ele><time>2026-05-01T07:46:21.207Z</time></trkpt><trkpt lat="43.5583583" lon="11.5984017"><ele>157.5</ele><time>2026-05-01T07:46:22.207Z</time></trkpt><trkpt lat="43.5584233" lon="11.5984533"><ele>157.66666666666666</ele><time>2026-05-01T07:46:23.208Z</time></trkpt><trkpt lat="43.5584883" lon="11.5985083"><ele>157.83333333333331</ele><time>2026-05-01T07:46:24.211Z</time></trkpt><trkpt lat="43.55855" lon="11.598565"><ele>158.0</ele><time>2026-05-01T07:46:25.207Z</time></trkpt><trkpt lat="43.5586133" lon="11.5986183"><ele>158.0</ele><time>2026-05-01T07:46:26.208Z</time></trkpt><trkpt lat="43.5586767" lon="11.5986717"><ele>158.0</ele><time>2026-05-01T07:46:27.206Z</time></trkpt><trkpt lat="43.5587417" lon="11.5987217"><ele>158.0</ele><time>2026-05-01T07:46:28.206Z</time></trkpt><trkpt lat="43.5588067" lon="11.5987717"><ele>158.0</ele><time>2026-05-01T07:46:29.206Z</time></trkpt><trkpt lat="43.558875" lon="11.59883"><ele>158.0</ele><time>2026-05-01T07:46:30.207Z</time></trkpt><trkpt lat="43.558945" lon="11.5988883"><ele>158.0</ele><time>2026-05-01T07:46:31.206Z</time></trkpt><trkpt lat="43.5590117" lon="11.5989467"><ele>158.60000000000002</ele><time>2026-05-01T07:46:32.207Z</time></trkpt><trkpt lat="43.559075" lon="11.5989983"><ele>159.20000000000002</ele><time>2026-05-01T07:46:33.207Z</time></trkpt><trkpt lat="43.55913" lon="11.5990467"><ele>159.8</ele><time>2026-05-01T07:46:34.206Z</time></trkpt><trkpt lat="43.5592217" lon="11.5991267"><ele>160.4</ele><time>2026-05-01T07:46:36.208Z</time></trkpt><trkpt lat="43.55931" lon="11.5992"><ele>161.0</ele><time>2026-05-01T07:46:38.206Z</time></trkpt><trkpt lat="43.559405" lon="11.5992767"><ele>161.0</ele><time>2026-05-01T07:46:40.205Z</time></trkpt><trkpt lat="43.5594967" lon="11.59936"><ele>161.0</ele><time>2026-05-01T07:46:42.207Z</time></trkpt><trkpt lat="43.5595933" lon="11.5994483"><ele>161.0</ele><time>2026-05-01T07:46:44.208Z</time></trkpt><trkpt lat="43.5596867" lon="11.599525"><ele>161.0</ele><time>2026-05-01T07:46:46.207Z</time></trkpt><trkpt lat="43.559795" lon="11.5996183"><ele>162.20000000000002</ele><time>2026-05-01T07:46:48.207Z</time></trkpt><trkpt lat="43.55985" lon="11.5996667"><ele>163.4</ele><time>2026-05-01T07:46:49.206Z</time></trkpt><trkpt lat="43.5599467" lon="11.5997533"><ele>164.6</ele><time>2026-05-01T07:46:51.207Z</time></trkpt><trkpt lat="43.56005" lon="11.5998383"><ele>165.8</ele><time>2026-05-01T07:46:53.207Z</time></trkpt><trkpt lat="43.560155" lon="11.599925"><ele>167.0</ele><time>2026-05-01T07:46:55.206Z</time></trkpt><trkpt lat="43.5602533" lon="11.6000167"><ele>167.0</ele><time>2026-05-01T07:46:57.206Z</time></trkpt><trkpt lat="43.56035" lon="11.6001017"><ele>167.0</ele><time>2026-05-01T07:46:59.207Z</time></trkpt><trkpt lat="43.5604433" lon="11.6001817"><ele>167.0</ele><time>2026-05-01T07:47:01.207Z</time></trkpt><trkpt lat="43.5604983" lon="11.600225"><ele>167.0</ele><time>2026-05-01T07:47:02.208Z</time></trkpt><trkpt lat="43.560585" lon="11.6003033"><ele>167.0</ele><time>2026-05-01T07:47:04.206Z</time></trkpt><trkpt lat="43.56067" lon="11.600375"><ele>167.5</ele><time>2026-05-01T07:47:06.207Z</time></trkpt><trkpt lat="43.56075" lon="11.6004433"><ele>168.0</ele><time>2026-05-01T07:47:08.208Z</time></trkpt><trkpt lat="43.5608233" lon="11.6005017"><ele>168.5</ele><time>2026-05-01T07:47:10.206Z</time></trkpt><trkpt lat="43.5608917" lon="11.6005567"><ele>169.0</ele><time>2026-05-01T07:47:12.207Z</time></trkpt><trkpt lat="43.5609717" lon="11.6006183"><ele>169.5</ele><time>2026-05-01T07:47:14.207Z</time></trkpt><trkpt lat="43.5610483" lon="11.60068"><ele>170.0</ele><time>2026-05-01T07:47:16.205Z</time></trkpt><trkpt lat="43.561125" lon="11.6007417"><ele>171.4</ele><time>2026-05-01T07:47:18.206Z</time></trkpt><trkpt lat="43.5612" lon="11.600805"><ele>172.8</ele><time>2026-05-01T07:47:20.207Z</time></trkpt><trkpt lat="43.561275" lon="11.6008717"><ele>174.2</ele><time>2026-05-01T07:47:22.206Z</time></trkpt><trkpt lat="43.5613483" lon="11.6009383"><ele>175.6</ele><time>2026-05-01T07:47:24.207Z</time></trkpt><trkpt lat="43.56143" lon="11.60101"><ele>177.0</ele><time>2026-05-01T07:47:26.206Z</time></trkpt><trkpt lat="43.56151" lon="11.60108"><ele>177.0</ele><time>2026-05-01T07:47:28.206Z</time></trkpt><trkpt lat="43.5615883" lon="11.601145"><ele>177.0</ele><time>2026-05-01T07:47:30.207Z</time></trkpt><trkpt lat="43.5616733" lon="11.6012183"><ele>177.0</ele><time>2026-05-01T07:47:32.207Z</time></trkpt><trkpt lat="43.5617567" lon="11.6012933"><ele>177.0</ele><time>2026-05-01T07:47:34.207Z</time></trkpt><trkpt lat="43.56184" lon="11.60137"><ele>177.0</ele><time>2026-05-01T07:47:36.207Z</time></trkpt><trkpt lat="43.56193" lon="11.60145"><ele>176.5</ele><time>2026-05-01T07:47:38.206Z</time></trkpt><trkpt lat="43.5620233" lon="11.60153"><ele>176.0</ele><time>2026-05-01T07:47:40.206Z</time></trkpt><trkpt lat="43.5621233" lon="11.6016133"><ele>175.5</ele><time>2026-05-01T07:47:42.206Z</time></trkpt><trkpt lat="43.5622233" lon="11.6016967"><ele>175.0</ele><time>2026-05-01T07:47:44.206Z</time></trkpt><trkpt lat="43.56233" lon="11.6017867"><ele>175.16666666666669</ele><time>2026-05-01T07:47:46.206Z</time></trkpt><trkpt lat="43.562385" lon="11.6018333"><ele>175.33333333333334</ele><time>2026-05-01T07:47:47.207Z</time></trkpt><trkpt lat="43.56244" lon="11.60188"><ele>175.5</ele><time>2026-05-01T07:47:48.207Z</time></trkpt><trkpt lat="43.5624983" lon="11.6019283"><ele>175.66666666666666</ele><time>2026-05-01T07:47:49.205Z</time></trkpt><trkpt lat="43.562555" lon="11.601975"><ele>175.83333333333331</ele><time>2026-05-01T07:47:50.209Z</time></trkpt><trkpt lat="43.56261" lon="11.6020233"><ele>176.0</ele><time>2026-05-01T07:47:51.206Z</time></trkpt><trkpt lat="43.56272" lon="11.602115"><ele>176.0</ele><time>2026-05-01T07:47:53.206Z</time></trkpt><trkpt lat="43.56278" lon="11.6021667"><ele>176.0</ele><time>2026-05-01T07:47:54.206Z</time></trkpt><trkpt lat="43.56284" lon="11.60222"><ele>176.0</ele><time>2026-05-01T07:47:55.205Z</time></trkpt><trkpt lat="43.5629" lon="11.6022717"><ele>176.0</ele><time>2026-05-01T07:47:56.207Z</time></trkpt><trkpt lat="43.5629567" lon="11.6023217"><ele>176.0</ele><time>2026-05-01T07:47:57.207Z</time></trkpt><trkpt lat="43.563015" lon="11.60237"><ele>176.0</ele><time>2026-05-01T07:47:58.205Z</time></trkpt><trkpt lat="43.5630733" lon="11.60242"><ele>176.0</ele><time>2026-05-01T07:47:59.206Z</time></trkpt><trkpt lat="43.56313" lon="11.602465"><ele>176.28571428571428</ele><time>2026-05-01T07:48:00.207Z</time></trkpt><trkpt lat="43.5631867" lon="11.6025117"><ele>176.57142857142856</ele><time>2026-05-01T07:48:01.206Z</time></trkpt><trkpt lat="43.5632467" lon="11.60256"><ele>176.85714285714283</ele><time>2026-05-01T07:48:02.206Z</time></trkpt><trkpt lat="43.5633083" lon="11.60261"><ele>177.14285714285714</ele><time>2026-05-01T07:48:03.206Z</time></trkpt><trkpt lat="43.5633667" lon="11.6026583"><ele>177.42857142857142</ele><time>2026-05-01T07:48:04.205Z</time></trkpt><trkpt lat="43.5634267" lon="11.6027083"><ele>177.7142857142857</ele><time>2026-05-01T07:48:05.207Z</time></trkpt><trkpt lat="43.5634867" lon="11.60276"><ele>178.0</ele><time>2026-05-01T07:48:06.206Z</time></trkpt><trkpt lat="43.5635517" lon="11.6028133"><ele>177.99999999999997</ele><time>2026-05-01T07:48:07.206Z</time></trkpt><trkpt lat="43.5636117" lon="11.6028617"><ele>178.0</ele><time>2026-05-01T07:48:08.207Z</time></trkpt><trkpt lat="43.5636717" lon="11.6029133"><ele>178.0</ele><time>2026-05-01T07:48:09.207Z</time></trkpt><trkpt lat="43.5637317" lon="11.6029667"><ele>178.0</ele><time>2026-05-01T07:48:10.208Z</time></trkpt><trkpt lat="43.56379" lon="11.6030217"><ele>178.0</ele><time>2026-05-01T07:48:11.206Z</time></trkpt><trkpt lat="43.5638433" lon="11.6030717"><ele>177.99999999999997</ele><time>2026-05-01T07:48:12.206Z</time></trkpt><trkpt lat="43.5638983" lon="11.60312"><ele>178.0</ele><time>2026-05-01T07:48:13.208Z</time></trkpt><trkpt lat="43.5639533" lon="11.6031683"><ele>177.99999999999997</ele><time>2026-05-01T07:48:14.206Z</time></trkpt><trkpt lat="43.5640067" lon="11.6032167"><ele>178.0</ele><time>2026-05-01T07:48:15.207Z</time></trkpt><trkpt lat="43.5640633" lon="11.603265"><ele>178.0</ele><time>2026-05-01T07:48:16.206Z</time></trkpt><trkpt lat="43.56412" lon="11.603315"><ele>178.0</ele><time>2026-05-01T07:48:17.206Z</time></trkpt><trkpt lat="43.5641783" lon="11.603365"><ele>178.0</ele><time>2026-05-01T07:48:18.207Z</time></trkpt><trkpt lat="43.5642367" lon="11.6034133"><ele>177.99999999999997</ele><time>2026-05-01T07:48:19.208Z</time></trkpt><trkpt lat="43.5642933" lon="11.603465"><ele>178.0</ele><time>2026-05-01T07:48:20.206Z</time></trkpt><trkpt lat="43.56435" lon="11.60352"><ele>177.99999999999997</ele><time>2026-05-01T07:48:21.206Z</time></trkpt><trkpt lat="43.564405" lon="11.6035817"><ele>178.0</ele><time>2026-05-01T07:48:22.207Z</time></trkpt><trkpt lat="43.5644567" lon="11.6036467"><ele>178.0</ele><time>2026-05-01T07:48:23.207Z</time></trkpt><trkpt lat="43.564505" lon="11.6037167"><ele>178.0</ele><time>2026-05-01T07:48:24.206Z</time></trkpt><trkpt lat="43.5645483" lon="11.6037883"><ele>178.0</ele><time>2026-05-01T07:48:25.207Z</time></trkpt><trkpt lat="43.5645867" lon="11.603865"><ele>177.99999999999997</ele><time>2026-05-01T07:48:26.208Z</time></trkpt><trkpt lat="43.5646233" lon="11.60394"><ele>178.0</ele><time>2026-05-01T07:48:27.206Z</time></trkpt><trkpt lat="43.5646883" lon="11.6040883"><ele>179.0</ele><time>2026-05-01T07:48:29.21Z</time></trkpt><trkpt lat="43.5647517" lon="11.60424"><ele>180.0</ele><time>2026-05-01T07:48:31.206Z</time></trkpt><trkpt lat="43.56482" lon="11.6043883"><ele>181.0</ele><time>2026-05-01T07:48:33.207Z</time></trkpt><trkpt lat="43.5648567" lon="11.604465"><ele>182.0</ele><time>2026-05-01T07:48:34.208Z</time></trkpt><trkpt lat="43.5648917" lon="11.6045417"><ele>183.0</ele><time>2026-05-01T07:48:35.208Z</time></trkpt><trkpt lat="43.5649567" lon="11.604685"><ele>183.0</ele><time>2026-05-01T07:48:37.207Z</time></trkpt><trkpt lat="43.56499" lon="11.60476"><ele>183.0</ele><time>2026-05-01T07:48:38.208Z</time></trkpt><trkpt lat="43.56505" lon="11.604905"><ele>183.0</ele><time>2026-05-01T07:48:40.206Z</time></trkpt><trkpt lat="43.5651067" lon="11.6050433"><ele>183.0</ele><time>2026-05-01T07:48:42.207Z</time></trkpt><trkpt lat="43.565165" lon="11.6051983"><ele>183.0</ele><time>2026-05-01T07:48:44.206Z</time></trkpt><trkpt lat="43.5652267" lon="11.6053467"><ele>182.75</ele><time>2026-05-01T07:48:46.206Z</time></trkpt><trkpt lat="43.5652817" lon="11.6054783"><ele>182.5</ele><time>2026-05-01T07:48:48.207Z</time></trkpt><trkpt lat="43.5653417" lon="11.60561"><ele>182.25</ele><time>2026-05-01T07:48:50.206Z</time></trkpt><trkpt lat="43.5654033" lon="11.6057583"><ele>182.0</ele><time>2026-05-01T07:48:52.206Z</time></trkpt><trkpt lat="43.5654667" lon="11.6059"><ele>183.0</ele><time>2026-05-01T07:48:54.208Z</time></trkpt><trkpt lat="43.5655233" lon="11.6060317"><ele>184.0</ele><time>2026-05-01T07:48:56.207Z</time></trkpt><trkpt lat="43.5655817" lon="11.606165"><ele>185.0</ele><time>2026-05-01T07:48:58.205Z</time></trkpt><trkpt lat="43.5656417" lon="11.6063067"><ele>186.0</ele><time>2026-05-01T07:49:00.208Z</time></trkpt><trkpt lat="43.565705" lon="11.6064583"><ele>186.0</ele><time>2026-05-01T07:49:02.206Z</time></trkpt><trkpt lat="43.5657683" lon="11.6066067"><ele>186.0</ele><time>2026-05-01T07:49:04.206Z</time></trkpt><trkpt lat="43.5658317" lon="11.6067517"><ele>186.0</ele><time>2026-05-01T07:49:06.207Z</time></trkpt><trkpt lat="43.5658883" lon="11.6068917"><ele>186.0</ele><time>2026-05-01T07:49:08.207Z</time></trkpt><trkpt lat="43.56595" lon="11.6070367"><ele>186.25</ele><time>2026-05-01T07:49:10.207Z</time></trkpt><trkpt lat="43.5660133" lon="11.60718"><ele>186.5</ele><time>2026-05-01T07:49:12.206Z</time></trkpt><trkpt lat="43.566075" lon="11.6073183"><ele>186.75</ele><time>2026-05-01T07:49:14.207Z</time></trkpt><trkpt lat="43.566145" lon="11.6074317"><ele>187.0</ele><time>2026-05-01T07:49:16.206Z</time></trkpt><trkpt lat="43.5662333" lon="11.6075533"><ele>188.0</ele><time>2026-05-01T07:49:18.206Z</time></trkpt><trkpt lat="43.5663183" lon="11.607645"><ele>189.0</ele><time>2026-05-01T07:49:20.208Z</time></trkpt><trkpt lat="43.566405" lon="11.60772"><ele>190.0</ele><time>2026-05-01T07:49:22.207Z</time></trkpt><trkpt lat="43.56649" lon="11.60777"><ele>191.0</ele><time>2026-05-01T07:49:24.208Z</time></trkpt><trkpt lat="43.5666183" lon="11.6078167"><ele>192.0</ele><time>2026-05-01T07:49:27.206Z</time></trkpt><trkpt lat="43.5666983" lon="11.6078467"><ele>192.2</ele><time>2026-05-01T07:49:29.207Z</time></trkpt><trkpt lat="43.5667833" lon="11.6078733"><ele>192.39999999999998</ele><time>2026-05-01T07:49:31.208Z</time></trkpt><trkpt lat="43.5668717" lon="11.6079083"><ele>192.60000000000002</ele><time>2026-05-01T07:49:33.207Z</time></trkpt><trkpt lat="43.5669583" lon="11.6079783"><ele>192.8</ele><time>2026-05-01T07:49:35.209Z</time></trkpt><trkpt lat="43.5670217" lon="11.6080917"><ele>193.0</ele><time>2026-05-01T07:49:37.208Z</time></trkpt><trkpt lat="43.567085" lon="11.608215"><ele>194.4</ele><time>2026-05-01T07:49:39.209Z</time></trkpt><trkpt lat="43.56717" lon="11.6083117"><ele>195.8</ele><time>2026-05-01T07:49:41.207Z</time></trkpt><trkpt lat="43.5672733" lon="11.60834"><ele>197.2</ele><time>2026-05-01T07:49:43.206Z</time></trkpt><trkpt lat="43.56737" lon="11.6083117"><ele>198.6</ele><time>2026-05-01T07:49:45.207Z</time></trkpt><trkpt lat="43.5674733" lon="11.6082583"><ele>200.0</ele><time>2026-05-01T07:49:47.208Z</time></trkpt><trkpt lat="43.5675733" lon="11.6081967"><ele>200.00000000000003</ele><time>2026-05-01T07:49:49.207Z</time></trkpt><trkpt lat="43.5676767" lon="11.60815"><ele>200.0</ele><time>2026-05-01T07:49:51.207Z</time></trkpt><trkpt lat="43.5677667" lon="11.608145"><ele>200.0</ele><time>2026-05-01T07:49:53.207Z</time></trkpt><trkpt lat="43.5678417" lon="11.6081667"><ele>200.0</ele><time>2026-05-01T07:49:55.207Z</time></trkpt><trkpt lat="43.5679183" lon="11.608185"><ele>200.00000000000003</ele><time>2026-05-01T07:49:57.207Z</time></trkpt><trkpt lat="43.5679983" lon="11.6081883"><ele>200.0</ele><time>2026-05-01T07:49:59.208Z</time></trkpt><trkpt lat="43.5680783" lon="11.60817"><ele>202.83333333333334</ele><time>2026-05-01T07:50:01.207Z</time></trkpt><trkpt lat="43.56815" lon="11.6081383"><ele>205.66666666666669</ele><time>2026-05-01T07:50:03.208Z</time></trkpt><trkpt lat="43.568215" lon="11.608095"><ele>208.5</ele><time>2026-05-01T07:50:05.207Z</time></trkpt><trkpt lat="43.56829" lon="11.6080283"><ele>211.33333333333331</ele><time>2026-05-01T07:50:08.211Z</time></trkpt><trkpt lat="43.5683617" lon="11.60795"><ele>214.16666666666666</ele><time>2026-05-01T07:50:11.209Z</time></trkpt><trkpt lat="43.5683883" lon="11.6078517"><ele>217.0</ele><time>2026-05-01T07:50:14.207Z</time></trkpt><trkpt lat="43.5684217" lon="11.6077333"><ele>217.49999999999997</ele><time>2026-05-01T07:50:17.208Z</time></trkpt><trkpt lat="43.5685033" lon="11.6076367"><ele>218.0</ele><time>2026-05-01T07:50:19.208Z</time></trkpt><trkpt lat="43.5685667" lon="11.6075983"><ele>218.5</ele><time>2026-05-01T07:50:20.209Z</time></trkpt><trkpt lat="43.5686417" lon="11.6075667"><ele>219.0</ele><time>2026-05-01T07:50:21.208Z</time></trkpt><trkpt lat="43.5687217" lon="11.6075483"><ele>219.49999999999997</ele><time>2026-05-01T07:50:22.207Z</time></trkpt><trkpt lat="43.5687983" lon="11.6075317"><ele>220.0</ele><time>2026-05-01T07:50:23.208Z</time></trkpt><trkpt lat="43.5688817" lon="11.6075067"><ele>220.4</ele><time>2026-05-01T07:50:24.208Z</time></trkpt><trkpt lat="43.568965" lon="11.6074883"><ele>220.8</ele><time>2026-05-01T07:50:25.208Z</time></trkpt><trkpt lat="43.5690983" lon="11.6074933"><ele>221.2</ele><time>2026-05-01T07:50:26.21Z</time></trkpt><trkpt lat="43.5691833" lon="11.6074283"><ele>221.6</ele><time>2026-05-01T07:50:27.21Z</time></trkpt><trkpt lat="43.569255" lon="11.607345"><ele>222.0</ele><time>2026-05-01T07:50:28.206Z</time></trkpt><trkpt lat="43.5693067" lon="11.607255"><ele>222.0</ele><time>2026-05-01T07:50:29.209Z</time></trkpt><trkpt lat="43.5693683" lon="11.607145"><ele>222.0</ele><time>2026-05-01T07:50:30.21Z</time></trkpt><trkpt lat="43.5694317" lon="11.6070333"><ele>222.0</ele><time>2026-05-01T07:50:31.207Z</time></trkpt><trkpt lat="43.5694983" lon="11.6069133"><ele>222.0</ele><time>2026-05-01T07:50:32.209Z</time></trkpt><trkpt lat="43.5695467" lon="11.606795"><ele>222.0</ele><time>2026-05-01T07:50:33.208Z</time></trkpt><trkpt lat="43.5695967" lon="11.6066683"><ele>221.39999999999998</ele><time>2026-05-01T07:50:34.21Z</time></trkpt><trkpt lat="43.5696467" lon="11.60654"><ele>220.79999999999998</ele><time>2026-05-01T07:50:35.209Z</time></trkpt><trkpt lat="43.569695" lon="11.606405"><ele>220.2</ele><time>2026-05-01T07:50:36.209Z</time></trkpt><trkpt lat="43.5697433" lon="11.6062683"><ele>219.6</ele><time>2026-05-01T07:50:37.208Z</time></trkpt><trkpt lat="43.5697967" lon="11.606145"><ele>219.0</ele><time>2026-05-01T07:50:38.208Z</time></trkpt><trkpt lat="43.56985" lon="11.606035"><ele>218.6</ele><time>2026-05-01T07:50:39.208Z</time></trkpt><trkpt lat="43.569895" lon="11.6059033"><ele>218.2</ele><time>2026-05-01T07:50:40.208Z</time></trkpt><trkpt lat="43.56994" lon="11.60577"><ele>217.79999999999998</ele><time>2026-05-01T07:50:41.208Z</time></trkpt><trkpt lat="43.5699967" lon="11.6056367"><ele>217.39999999999998</ele><time>2026-05-01T07:50:42.209Z</time></trkpt><trkpt lat="43.57005" lon="11.6054983"><ele>217.0</ele><time>2026-05-01T07:50:43.209Z</time></trkpt><trkpt lat="43.5701017" lon="11.6053583"><ele>217.0</ele><time>2026-05-01T07:50:44.21Z</time></trkpt><trkpt lat="43.5701517" lon="11.6052317"><ele>217.0</ele><time>2026-05-01T07:50:45.208Z</time></trkpt><trkpt lat="43.5701983" lon="11.6051"><ele>217.0</ele><time>2026-05-01T07:50:46.209Z</time></trkpt><trkpt lat="43.570255" lon="11.6049717"><ele>217.0</ele><time>2026-05-01T07:50:47.208Z</time></trkpt><trkpt lat="43.5702967" lon="11.604835"><ele>217.0</ele><time>2026-05-01T07:50:48.209Z</time></trkpt><trkpt lat="43.5703433" lon="11.6047017"><ele>214.8</ele><time>2026-05-01T07:50:49.209Z</time></trkpt><trkpt lat="43.570385" lon="11.6045733"><ele>212.6</ele><time>2026-05-01T07:50:50.21Z</time></trkpt><trkpt lat="43.5704167" lon="11.6044383"><ele>210.4</ele><time>2026-05-01T07:50:51.209Z</time></trkpt><trkpt lat="43.5704233" lon="11.604305"><ele>208.20000000000002</ele><time>2026-05-01T07:50:52.207Z</time></trkpt><trkpt lat="43.5704267" lon="11.6041483"><ele>206.0</ele><time>2026-05-01T07:50:53.208Z</time></trkpt><trkpt lat="43.5704283" lon="11.6039867"><ele>206.0</ele><time>2026-05-01T07:50:54.208Z</time></trkpt><trkpt lat="43.5704217" lon="11.60383"><ele>206.0</ele><time>2026-05-01T07:50:55.21Z</time></trkpt><trkpt lat="43.5704117" lon="11.6036783"><ele>206.0</ele><time>2026-05-01T07:50:56.21Z</time></trkpt><trkpt lat="43.5704" lon="11.60353"><ele>206.0</ele><time>2026-05-01T07:50:57.209Z</time></trkpt><trkpt lat="43.57039" lon="11.6033833"><ele>206.0</ele><time>2026-05-01T07:50:58.209Z</time></trkpt><trkpt lat="43.57038" lon="11.6032417"><ele>206.0</ele><time>2026-05-01T07:50:59.208Z</time></trkpt><trkpt lat="43.5703717" lon="11.6031"><ele>206.0</ele><time>2026-05-01T07:51:00.21Z</time></trkpt><trkpt lat="43.570365" lon="11.6029583"><ele>206.0</ele><time>2026-05-01T07:51:01.209Z</time></trkpt><trkpt lat="43.5703583" lon="11.6028167"><ele>206.0</ele><time>2026-05-01T07:51:02.209Z</time></trkpt><trkpt lat="43.5703467" lon="11.60267"><ele>206.0</ele><time>2026-05-01T07:51:03.209Z</time></trkpt><trkpt lat="43.5703317" lon="11.602535"><ele>205.8</ele><time>2026-05-01T07:51:04.206Z</time></trkpt><trkpt lat="43.570315" lon="11.6024033"><ele>205.60000000000002</ele><time>2026-05-01T07:51:05.208Z</time></trkpt><trkpt lat="43.5703017" lon="11.6022683"><ele>205.4</ele><time>2026-05-01T07:51:06.207Z</time></trkpt><trkpt lat="43.57029" lon="11.6021333"><ele>205.2</ele><time>2026-05-01T07:51:07.207Z</time></trkpt><trkpt lat="43.5702783" lon="11.6019967"><ele>205.0</ele><time>2026-05-01T07:51:08.208Z</time></trkpt><trkpt lat="43.570265" lon="11.6018633"><ele>204.0</ele><time>2026-05-01T07:51:09.206Z</time></trkpt><trkpt lat="43.5702517" lon="11.601725"><ele>203.0</ele><time>2026-05-01T07:51:10.207Z</time></trkpt><trkpt lat="43.5702367" lon="11.601585"><ele>202.0</ele><time>2026-05-01T07:51:11.209Z</time></trkpt><trkpt lat="43.5702217" lon="11.601445"><ele>201.0</ele><time>2026-05-01T07:51:12.208Z</time></trkpt><trkpt lat="43.57021" lon="11.6013033"><ele>200.0</ele><time>2026-05-01T07:51:13.205Z</time></trkpt><trkpt lat="43.570205" lon="11.601165"><ele>200.0</ele><time>2026-05-01T07:51:14.207Z</time></trkpt><trkpt lat="43.57021" lon="11.60103"><ele>200.0</ele><time>2026-05-01T07:51:15.208Z</time></trkpt><trkpt lat="43.5702167" lon="11.6009"><ele>200.0</ele><time>2026-05-01T07:51:16.205Z</time></trkpt><trkpt lat="43.5702233" lon="11.6007733"><ele>200.0</ele><time>2026-05-01T07:51:17.207Z</time></trkpt><trkpt lat="43.5702283" lon="11.60064"><ele>200.0</ele><time>2026-05-01T07:51:18.206Z</time></trkpt><trkpt lat="43.570235" lon="11.60051"><ele>200.0</ele><time>2026-05-01T07:51:19.207Z</time></trkpt><trkpt lat="43.5702417" lon="11.600375"><ele>200.0</ele><time>2026-05-01T07:51:20.207Z</time></trkpt><trkpt lat="43.57025" lon="11.60024"><ele>200.0</ele><time>2026-05-01T07:51:21.207Z</time></trkpt><trkpt lat="43.5702583" lon="11.6001017"><ele>200.0</ele><time>2026-05-01T07:51:22.207Z</time></trkpt><trkpt lat="43.5702717" lon="11.5999633"><ele>200.0</ele><time>2026-05-01T07:51:23.207Z</time></trkpt><trkpt lat="43.5702817" lon="11.599825"><ele>199.4</ele><time>2026-05-01T07:51:24.208Z</time></trkpt><trkpt lat="43.5702867" lon="11.5996867"><ele>198.8</ele><time>2026-05-01T07:51:25.207Z</time></trkpt><trkpt lat="43.570295" lon="11.5995517"><ele>198.2</ele><time>2026-05-01T07:51:26.207Z</time></trkpt><trkpt lat="43.5703033" lon="11.5994183"><ele>197.6</ele><time>2026-05-01T07:51:27.208Z</time></trkpt><trkpt lat="43.5703117" lon="11.599295"><ele>197.0</ele><time>2026-05-01T07:51:28.208Z</time></trkpt><trkpt lat="43.5703217" lon="11.5991633"><ele>197.2</ele><time>2026-05-01T07:51:29.207Z</time></trkpt><trkpt lat="43.5703317" lon="11.5990317"><ele>197.39999999999998</ele><time>2026-05-01T07:51:30.208Z</time></trkpt><trkpt lat="43.57034" lon="11.59891"><ele>197.60000000000002</ele><time>2026-05-01T07:51:31.207Z</time></trkpt><trkpt lat="43.5703467" lon="11.59879"><ele>197.8</ele><time>2026-05-01T07:51:32.208Z</time></trkpt><trkpt lat="43.570355" lon="11.598665"><ele>198.0</ele><time>2026-05-01T07:51:33.208Z</time></trkpt><trkpt lat="43.570365" lon="11.5985367"><ele>198.0</ele><time>2026-05-01T07:51:34.209Z</time></trkpt><trkpt lat="43.5703767" lon="11.5984033"><ele>198.0</ele><time>2026-05-01T07:51:35.207Z</time></trkpt><trkpt lat="43.5703817" lon="11.5982817"><ele>198.0</ele><time>2026-05-01T07:51:36.208Z</time></trkpt><trkpt lat="43.570385" lon="11.5981533"><ele>198.0</ele><time>2026-05-01T07:51:37.204Z</time></trkpt><trkpt lat="43.5703917" lon="11.598025"><ele>198.0</ele><time>2026-05-01T07:51:38.206Z</time></trkpt><trkpt lat="43.5703983" lon="11.5978967"><ele>197.60000000000002</ele><time>2026-05-01T07:51:39.206Z</time></trkpt><trkpt lat="43.5704" lon="11.597775"><ele>197.20000000000002</ele><time>2026-05-01T07:51:40.209Z</time></trkpt><trkpt lat="43.5704117" lon="11.5976433"><ele>196.8</ele><time>2026-05-01T07:51:41.207Z</time></trkpt><trkpt lat="43.5704233" lon="11.597515"><ele>196.4</ele><time>2026-05-01T07:51:42.207Z</time></trkpt><trkpt lat="43.5704317" lon="11.5973867"><ele>196.0</ele><time>2026-05-01T07:51:43.209Z</time></trkpt><trkpt lat="43.57044" lon="11.5972567"><ele>196.0</ele><time>2026-05-01T07:51:44.207Z</time></trkpt><trkpt lat="43.5704483" lon="11.5971267"><ele>196.0</ele><time>2026-05-01T07:51:45.207Z</time></trkpt><trkpt lat="43.5704567" lon="11.597"><ele>196.0</ele><time>2026-05-01T07:51:46.206Z</time></trkpt><trkpt lat="43.5704667" lon="11.5968767"><ele>196.0</ele><time>2026-05-01T07:51:47.207Z</time></trkpt><trkpt lat="43.570475" lon="11.5967567"><ele>196.0</ele><time>2026-05-01T07:51:48.208Z</time></trkpt><trkpt lat="43.5704883" lon="11.596635"><ele>194.8</ele><time>2026-05-01T07:51:49.208Z</time></trkpt><trkpt lat="43.570505" lon="11.5965183"><ele>193.60000000000002</ele><time>2026-05-01T07:51:50.207Z</time></trkpt><trkpt lat="43.5705283" lon="11.5964"><ele>192.4</ele><time>2026-05-01T07:51:51.207Z</time></trkpt><trkpt lat="43.5705617" lon="11.5962733"><ele>191.2</ele><time>2026-05-01T07:51:52.207Z</time></trkpt><trkpt lat="43.5706" lon="11.596155"><ele>190.0</ele><time>2026-05-01T07:51:53.208Z</time></trkpt><trkpt lat="43.5706433" lon="11.5960417"><ele>189.66666666666669</ele><time>2026-05-01T07:51:54.208Z</time></trkpt><trkpt lat="43.5706833" lon="11.5959333"><ele>189.33333333333334</ele><time>2026-05-01T07:51:55.208Z</time></trkpt><trkpt lat="43.5707267" lon="11.5958217"><ele>189.0</ele><time>2026-05-01T07:51:56.208Z</time></trkpt><trkpt lat="43.57077" lon="11.59571"><ele>188.66666666666666</ele><time>2026-05-01T07:51:57.208Z</time></trkpt><trkpt lat="43.5708117" lon="11.5956017"><ele>188.33333333333331</ele><time>2026-05-01T07:51:58.207Z</time></trkpt><trkpt lat="43.5708517" lon="11.5954933"><ele>188.0</ele><time>2026-05-01T07:51:59.207Z</time></trkpt><trkpt lat="43.5708917" lon="11.5953883"><ele>188.0</ele><time>2026-05-01T07:52:00.207Z</time></trkpt><trkpt lat="43.5709317" lon="11.595275"><ele>188.0</ele><time>2026-05-01T07:52:01.208Z</time></trkpt><trkpt lat="43.5709733" lon="11.59516"><ele>188.0</ele><time>2026-05-01T07:52:02.207Z</time></trkpt><trkpt lat="43.5710167" lon="11.59505"><ele>188.0</ele><time>2026-05-01T07:52:03.208Z</time></trkpt><trkpt lat="43.57106" lon="11.5949317"><ele>188.0</ele><time>2026-05-01T07:52:04.208Z</time></trkpt><trkpt lat="43.571105" lon="11.594815"><ele>188.0</ele><time>2026-05-01T07:52:05.207Z</time></trkpt><trkpt lat="43.5711483" lon="11.5946983"><ele>188.0</ele><time>2026-05-01T07:52:06.207Z</time></trkpt><trkpt lat="43.571195" lon="11.59458"><ele>188.0</ele><time>2026-05-01T07:52:07.207Z</time></trkpt><trkpt lat="43.5712383" lon="11.5944683"><ele>188.0</ele><time>2026-05-01T07:52:08.211Z</time></trkpt><trkpt lat="43.57128" lon="11.5943617"><ele>188.0</ele><time>2026-05-01T07:52:09.207Z</time></trkpt><trkpt lat="43.5713233" lon="11.5942533"><ele>187.8</ele><time>2026-05-01T07:52:10.208Z</time></trkpt><trkpt lat="43.5713683" lon="11.5941417"><ele>187.60000000000002</ele><time>2026-05-01T07:52:11.207Z</time></trkpt><trkpt lat="43.5714133" lon="11.594025"><ele>187.39999999999998</ele><time>2026-05-01T07:52:12.207Z</time></trkpt><trkpt lat="43.571455" lon="11.5939083"><ele>187.2</ele><time>2026-05-01T07:52:13.207Z</time></trkpt><trkpt lat="43.5714967" lon="11.59379"><ele>187.0</ele><time>2026-05-01T07:52:14.208Z</time></trkpt><trkpt lat="43.5715383" lon="11.5936667"><ele>186.39999999999998</ele><time>2026-05-01T07:52:15.207Z</time></trkpt><trkpt lat="43.571575" lon="11.5935533"><ele>185.79999999999998</ele><time>2026-05-01T07:52:16.206Z</time></trkpt><trkpt lat="43.5716117" lon="11.5934283"><ele>185.2</ele><time>2026-05-01T07:52:17.208Z</time></trkpt><trkpt lat="43.57164" lon="11.593305"><ele>184.6</ele><time>2026-05-01T07:52:18.208Z</time></trkpt><trkpt lat="43.5716633" lon="11.5931767"><ele>184.0</ele><time>2026-05-01T07:52:19.207Z</time></trkpt><trkpt lat="43.57168" lon="11.5930517"><ele>184.0</ele><time>2026-05-01T07:52:20.207Z</time></trkpt><trkpt lat="43.5716933" lon="11.592935"><ele>184.0</ele><time>2026-05-01T07:52:21.207Z</time></trkpt><trkpt lat="43.57171" lon="11.5928117"><ele>184.0</ele><time>2026-05-01T07:52:22.208Z</time></trkpt><trkpt lat="43.57173" lon="11.5926867"><ele>184.0</ele><time>2026-05-01T07:52:23.207Z</time></trkpt><trkpt lat="43.5717533" lon="11.5925633"><ele>184.0</ele><time>2026-05-01T07:52:24.208Z</time></trkpt><trkpt lat="43.5717817" lon="11.5924367"><ele>184.0</ele><time>2026-05-01T07:52:25.207Z</time></trkpt><trkpt lat="43.5718117" lon="11.5923117"><ele>184.0</ele><time>2026-05-01T07:52:26.209Z</time></trkpt><trkpt lat="43.5718333" lon="11.59221"><ele>184.0</ele><time>2026-05-01T07:52:27.208Z</time></trkpt><trkpt lat="43.57186" lon="11.5920833"><ele>184.0</ele><time>2026-05-01T07:52:28.205Z</time></trkpt><trkpt lat="43.57188" lon="11.59199"><ele>184.0</ele><time>2026-05-01T07:52:29.207Z</time></trkpt><trkpt lat="43.57191" lon="11.59188"><ele>184.0</ele><time>2026-05-01T07:52:30.207Z</time></trkpt><trkpt lat="43.5719483" lon="11.5917467"><ele>183.5</ele><time>2026-05-01T07:52:31.207Z</time></trkpt><trkpt lat="43.5719833" lon="11.5915983"><ele>183.0</ele><time>2026-05-01T07:52:32.207Z</time></trkpt><trkpt lat="43.5720133" lon="11.5914517"><ele>182.5</ele><time>2026-05-01T07:52:33.21Z</time></trkpt><trkpt lat="43.5720467" lon="11.5912983"><ele>182.0</ele><time>2026-05-01T07:52:34.207Z</time></trkpt><trkpt lat="43.5720817" lon="11.5911533"><ele>182.0</ele><time>2026-05-01T07:52:35.207Z</time></trkpt><trkpt lat="43.5721183" lon="11.5910183"><ele>182.0</ele><time>2026-05-01T07:52:36.207Z</time></trkpt><trkpt lat="43.5721617" lon="11.590875"><ele>182.0</ele><time>2026-05-01T07:52:37.208Z</time></trkpt><trkpt lat="43.5722017" lon="11.59074"><ele>182.0</ele><time>2026-05-01T07:52:38.208Z</time></trkpt><trkpt lat="43.5722433" lon="11.5906"><ele>182.0</ele><time>2026-05-01T07:52:39.207Z</time></trkpt><trkpt lat="43.57229" lon="11.5904633"><ele>181.2</ele><time>2026-05-01T07:52:40.206Z</time></trkpt><trkpt lat="43.5723383" lon="11.5903333"><ele>180.39999999999998</ele><time>2026-05-01T07:52:41.21Z</time></trkpt><trkpt lat="43.572385" lon="11.5902167"><ele>179.60000000000002</ele><time>2026-05-01T07:52:42.208Z</time></trkpt><trkpt lat="43.5724333" lon="11.5900983"><ele>178.8</ele><time>2026-05-01T07:52:43.207Z</time></trkpt><trkpt lat="43.572485" lon="11.5899767"><ele>178.0</ele><time>2026-05-01T07:52:44.209Z</time></trkpt><trkpt lat="43.5725367" lon="11.589855"><ele>178.0</ele><time>2026-05-01T07:52:45.206Z</time></trkpt><trkpt lat="43.5725917" lon="11.589735"><ele>178.0</ele><time>2026-05-01T07:52:46.207Z</time></trkpt><trkpt lat="43.5726483" lon="11.5896133"><ele>178.0</ele><time>2026-05-01T07:52:47.207Z</time></trkpt><trkpt lat="43.5727083" lon="11.58949"><ele>178.0</ele><time>2026-05-01T07:52:48.207Z</time></trkpt><trkpt lat="43.5727683" lon="11.5893767"><ele>178.0</ele><time>2026-05-01T07:52:49.208Z</time></trkpt><trkpt lat="43.5728267" lon="11.589265"><ele>179.2</ele><time>2026-05-01T07:52:50.207Z</time></trkpt><trkpt lat="43.57289" lon="11.5891617"><ele>180.4</ele><time>2026-05-01T07:52:51.21Z</time></trkpt><trkpt lat="43.572955" lon="11.58907"><ele>181.6</ele><time>2026-05-01T07:52:52.207Z</time></trkpt><trkpt lat="43.5730233" lon="11.588975"><ele>182.79999999999998</ele><time>2026-05-01T07:52:53.208Z</time></trkpt><trkpt lat="43.573095" lon="11.588885"><ele>184.0</ele><time>2026-05-01T07:52:54.207Z</time></trkpt><trkpt lat="43.5731667" lon="11.588795"><ele>184.0</ele><time>2026-05-01T07:52:55.207Z</time></trkpt><trkpt lat="43.5732367" lon="11.5887133"><ele>184.0</ele><time>2026-05-01T07:52:56.207Z</time></trkpt><trkpt lat="43.5733167" lon="11.5886417"><ele>184.0</ele><time>2026-05-01T07:52:57.207Z</time></trkpt><trkpt lat="43.57339" lon="11.5885633"><ele>184.0</ele><time>2026-05-01T07:52:58.208Z</time></trkpt><trkpt lat="43.5734717" lon="11.588495"><ele>184.0</ele><time>2026-05-01T07:52:59.207Z</time></trkpt><trkpt lat="43.5735467" lon="11.58843"><ele>183.79999999999998</ele><time>2026-05-01T07:53:00.207Z</time></trkpt><trkpt lat="43.5736217" lon="11.5883667"><ele>183.6</ele><time>2026-05-01T07:53:01.208Z</time></trkpt><trkpt lat="43.5737017" lon="11.588305"><ele>183.4</ele><time>2026-05-01T07:53:02.207Z</time></trkpt><trkpt lat="43.5737917" lon="11.5882417"><ele>183.2</ele><time>2026-05-01T07:53:03.208Z</time></trkpt><trkpt lat="43.573875" lon="11.5881733"><ele>183.0</ele><time>2026-05-01T07:53:04.207Z</time></trkpt><trkpt lat="43.5739533" lon="11.5881017"><ele>183.0</ele><time>2026-05-01T07:53:05.207Z</time></trkpt><trkpt lat="43.5740283" lon="11.588035"><ele>183.0</ele><time>2026-05-01T07:53:06.208Z</time></trkpt><trkpt lat="43.5741083" lon="11.587975"><ele>183.0</ele><time>2026-05-01T07:53:07.208Z</time></trkpt><trkpt lat="43.5741867" lon="11.5879117"><ele>183.0</ele><time>2026-05-01T07:53:08.209Z</time></trkpt><trkpt lat="43.5742683" lon="11.5878317"><ele>183.0</ele><time>2026-05-01T07:53:09.207Z</time></trkpt><trkpt lat="43.5743467" lon="11.5877567"><ele>181.60000000000002</ele><time>2026-05-01T07:53:10.208Z</time></trkpt><trkpt lat="43.5744333" lon="11.5876833"><ele>180.20000000000002</ele><time>2026-05-01T07:53:11.206Z</time></trkpt><trkpt lat="43.5745117" lon="11.5876"><ele>178.8</ele><time>2026-05-01T07:53:12.208Z</time></trkpt><trkpt lat="43.5745833" lon="11.5874983"><ele>177.4</ele><time>2026-05-01T07:53:13.209Z</time></trkpt><trkpt lat="43.57465" lon="11.5874017"><ele>176.0</ele><time>2026-05-01T07:53:14.208Z</time></trkpt><trkpt lat="43.5747183" lon="11.587305"><ele>176.0</ele><time>2026-05-01T07:53:15.207Z</time></trkpt><trkpt lat="43.5747883" lon="11.5872083"><ele>176.0</ele><time>2026-05-01T07:53:16.207Z</time></trkpt><trkpt lat="43.5748633" lon="11.5870983"><ele>176.0</ele><time>2026-05-01T07:53:17.208Z</time></trkpt><trkpt lat="43.5749367" lon="11.587"><ele>176.0</ele><time>2026-05-01T07:53:18.207Z</time></trkpt><trkpt lat="43.5750083" lon="11.586895"><ele>176.0</ele><time>2026-05-01T07:53:19.206Z</time></trkpt><trkpt lat="43.5750733" lon="11.5867983"><ele>176.0</ele><time>2026-05-01T07:53:20.207Z</time></trkpt><trkpt lat="43.57514" lon="11.586685"><ele>176.0</ele><time>2026-05-01T07:53:21.208Z</time></trkpt><trkpt lat="43.575205" lon="11.5865717"><ele>176.0</ele><time>2026-05-01T07:53:22.208Z</time></trkpt><trkpt lat="43.57527" lon="11.586465"><ele>176.0</ele><time>2026-05-01T07:53:23.206Z</time></trkpt><trkpt lat="43.5753317" lon="11.5863617"><ele>176.0</ele><time>2026-05-01T07:53:24.208Z</time></trkpt><trkpt lat="43.575395" lon="11.5862667"><ele>177.20000000000002</ele><time>2026-05-01T07:53:25.209Z</time></trkpt><trkpt lat="43.575455" lon="11.5861733"><ele>178.4</ele><time>2026-05-01T07:53:26.207Z</time></trkpt><trkpt lat="43.575515" lon="11.5860767"><ele>179.6</ele><time>2026-05-01T07:53:27.207Z</time></trkpt><trkpt lat="43.575575" lon="11.585985"><ele>180.8</ele><time>2026-05-01T07:53:28.208Z</time></trkpt><trkpt lat="43.5756333" lon="11.5858883"><ele>182.0</ele><time>2026-05-01T07:53:29.208Z</time></trkpt><trkpt lat="43.5756917" lon="11.5857917"><ele>182.0</ele><time>2026-05-01T07:53:30.208Z</time></trkpt><trkpt lat="43.5757567" lon="11.5856933"><ele>182.0</ele><time>2026-05-01T07:53:31.207Z</time></trkpt><trkpt lat="43.5758183" lon="11.5855933"><ele>182.0</ele><time>2026-05-01T07:53:32.208Z</time></trkpt><trkpt lat="43.57588" lon="11.5854967"><ele>182.0</ele><time>2026-05-01T07:53:33.209Z</time></trkpt><trkpt lat="43.5759383" lon="11.5854017"><ele>182.0</ele><time>2026-05-01T07:53:34.207Z</time></trkpt><trkpt lat="43.5759917" lon="11.585305"><ele>181.8</ele><time>2026-05-01T07:53:35.208Z</time></trkpt><trkpt lat="43.5760483" lon="11.5852083"><ele>181.6</ele><time>2026-05-01T07:53:36.206Z</time></trkpt><trkpt lat="43.5761017" lon="11.5851133"><ele>181.4</ele><time>2026-05-01T07:53:37.207Z</time></trkpt><trkpt lat="43.57616" lon="11.585015"><ele>181.20000000000002</ele><time>2026-05-01T07:53:38.209Z</time></trkpt><trkpt lat="43.5762233" lon="11.58492"><ele>181.0</ele><time>2026-05-01T07:53:39.208Z</time></trkpt><trkpt lat="43.5762933" lon="11.5848317"><ele>181.0</ele><time>2026-05-01T07:53:40.207Z</time></trkpt><trkpt lat="43.5763667" lon="11.584745"><ele>181.0</ele><time>2026-05-01T07:53:41.207Z</time></trkpt><trkpt lat="43.5764433" lon="11.584665"><ele>181.0</ele><time>2026-05-01T07:53:42.208Z</time></trkpt><trkpt lat="43.576525" lon="11.5845933"><ele>181.0</ele><time>2026-05-01T07:53:43.207Z</time></trkpt><trkpt lat="43.5766083" lon="11.5845217"><ele>181.0</ele><time>2026-05-01T07:53:44.209Z</time></trkpt><trkpt lat="43.5766917" lon="11.5844533"><ele>178.60000000000002</ele><time>2026-05-01T07:53:45.207Z</time></trkpt><trkpt lat="43.5767683" lon="11.5843933"><ele>176.2</ele><time>2026-05-01T07:53:46.207Z</time></trkpt><trkpt lat="43.576845" lon="11.5843167"><ele>173.8</ele><time>2026-05-01T07:53:47.209Z</time></trkpt><trkpt lat="43.5769333" lon="11.5842383"><ele>171.39999999999998</ele><time>2026-05-01T07:53:48.208Z</time></trkpt><trkpt lat="43.5770167" lon="11.5841583"><ele>169.0</ele><time>2026-05-01T07:53:49.207Z</time></trkpt><trkpt lat="43.5770983" lon="11.584075"><ele>168.79999999999998</ele><time>2026-05-01T07:53:50.208Z</time></trkpt><trkpt lat="43.5771767" lon="11.5839867"><ele>168.6</ele><time>2026-05-01T07:53:51.207Z</time></trkpt><trkpt lat="43.5772533" lon="11.5839017"><ele>168.4</ele><time>2026-05-01T07:53:52.208Z</time></trkpt><trkpt lat="43.5773267" lon="11.5838167"><ele>168.2</ele><time>2026-05-01T07:53:53.209Z</time></trkpt><trkpt lat="43.5773983" lon="11.58372"><ele>168.0</ele><time>2026-05-01T07:53:54.208Z</time></trkpt><trkpt lat="43.5774667" lon="11.5836233"><ele>167.8</ele><time>2026-05-01T07:53:55.21Z</time></trkpt><trkpt lat="43.577535" lon="11.5835217"><ele>167.60000000000002</ele><time>2026-05-01T07:53:56.207Z</time></trkpt><trkpt lat="43.5776033" lon="11.58343"><ele>167.39999999999998</ele><time>2026-05-01T07:53:57.207Z</time></trkpt><trkpt lat="43.5776783" lon="11.5833417"><ele>167.2</ele><time>2026-05-01T07:53:58.207Z</time></trkpt><trkpt lat="43.577755" lon="11.58327"><ele>167.0</ele><time>2026-05-01T07:53:59.207Z</time></trkpt><trkpt lat="43.5778333" lon="11.5832133"><ele>167.2</ele><time>2026-05-01T07:54:00.207Z</time></trkpt><trkpt lat="43.57792" lon="11.5831567"><ele>167.39999999999998</ele><time>2026-05-01T07:54:01.208Z</time></trkpt><trkpt lat="43.578005" lon="11.583105"><ele>167.60000000000002</ele><time>2026-05-01T07:54:02.208Z</time></trkpt><trkpt lat="43.578095" lon="11.58306"><ele>167.8</ele><time>2026-05-01T07:54:03.209Z</time></trkpt><trkpt lat="43.5781867" lon="11.5830183"><ele>168.0</ele><time>2026-05-01T07:54:04.208Z</time></trkpt><trkpt lat="43.578275" lon="11.58298"><ele>168.0</ele><time>2026-05-01T07:54:05.208Z</time></trkpt><trkpt lat="43.578365" lon="11.5829483"><ele>168.0</ele><time>2026-05-01T07:54:06.208Z</time></trkpt><trkpt lat="43.5784533" lon="11.5829167"><ele>168.0</ele><time>2026-05-01T07:54:07.207Z</time></trkpt><trkpt lat="43.5785383" lon="11.5828883"><ele>168.0</ele><time>2026-05-01T07:54:08.209Z</time></trkpt><trkpt lat="43.5786183" lon="11.5828617"><ele>168.0</ele><time>2026-05-01T07:54:09.208Z</time></trkpt><trkpt lat="43.5787017" lon="11.5828333"><ele>168.0</ele><time>2026-05-01T07:54:10.208Z</time></trkpt><trkpt lat="43.5787833" lon="11.5828083"><ele>167.66666666666666</ele><time>2026-05-01T07:54:11.207Z</time></trkpt><trkpt lat="43.5788717" lon="11.5827817"><ele>167.33333333333334</ele><time>2026-05-01T07:54:12.209Z</time></trkpt><trkpt lat="43.57896" lon="11.5827517"><ele>167.0</ele><time>2026-05-01T07:54:13.207Z</time></trkpt><trkpt lat="43.579045" lon="11.5827267"><ele>166.66666666666669</ele><time>2026-05-01T07:54:14.208Z</time></trkpt><trkpt lat="43.5791283" lon="11.5826967"><ele>166.33333333333334</ele><time>2026-05-01T07:54:15.207Z</time></trkpt><trkpt lat="43.579215" lon="11.5826667"><ele>166.0</ele><time>2026-05-01T07:54:16.207Z</time></trkpt><trkpt lat="43.579305" lon="11.5826383"><ele>166.0</ele><time>2026-05-01T07:54:17.207Z</time></trkpt><trkpt lat="43.579395" lon="11.5826083"><ele>166.0</ele><time>2026-05-01T07:54:18.208Z</time></trkpt><trkpt lat="43.5794867" lon="11.5825833"><ele>166.0</ele><time>2026-05-01T07:54:19.209Z</time></trkpt><trkpt lat="43.579575" lon="11.5825533"><ele>166.0</ele><time>2026-05-01T07:54:20.209Z</time></trkpt><trkpt lat="43.5796633" lon="11.5825217"><ele>166.0</ele><time>2026-05-01T07:54:21.209Z</time></trkpt><trkpt lat="43.579755" lon="11.5824933"><ele>166.20000000000002</ele><time>2026-05-01T07:54:22.207Z</time></trkpt><trkpt lat="43.5798433" lon="11.5824667"><ele>166.4</ele><time>2026-05-01T07:54:23.207Z</time></trkpt><trkpt lat="43.5799317" lon="11.5824383"><ele>166.6</ele><time>2026-05-01T07:54:24.209Z</time></trkpt><trkpt lat="43.58002" lon="11.58241"><ele>166.8</ele><time>2026-05-01T07:54:25.211Z</time></trkpt><trkpt lat="43.5801067" lon="11.5823817"><ele>167.0</ele><time>2026-05-01T07:54:26.208Z</time></trkpt><trkpt lat="43.580195" lon="11.582355"><ele>167.0</ele><time>2026-05-01T07:54:27.207Z</time></trkpt><trkpt lat="43.58028" lon="11.582325"><ele>167.0</ele><time>2026-05-01T07:54:28.208Z</time></trkpt><trkpt lat="43.5803683" lon="11.5822967"><ele>167.0</ele><time>2026-05-01T07:54:29.207Z</time></trkpt><trkpt lat="43.58046" lon="11.5822667"><ele>167.0</ele><time>2026-05-01T07:54:30.206Z</time></trkpt><trkpt lat="43.5805483" lon="11.5822367"><ele>167.0</ele><time>2026-05-01T07:54:31.207Z</time></trkpt><trkpt lat="43.5806283" lon="11.582205"><ele>167.0</ele><time>2026-05-01T07:54:32.207Z</time></trkpt><trkpt lat="43.58071" lon="11.582185"><ele>166.66666666666666</ele><time>2026-05-01T07:54:33.206Z</time></trkpt><trkpt lat="43.580795" lon="11.5821683"><ele>166.33333333333331</ele><time>2026-05-01T07:54:34.207Z</time></trkpt><trkpt lat="43.5808817" lon="11.582145"><ele>166.0</ele><time>2026-05-01T07:54:35.209Z</time></trkpt><trkpt lat="43.5809683" lon="11.5821167"><ele>165.66666666666666</ele><time>2026-05-01T07:54:36.208Z</time></trkpt><trkpt lat="43.5810533" lon="11.58209"><ele>165.33333333333334</ele><time>2026-05-01T07:54:37.208Z</time></trkpt><trkpt lat="43.5811417" lon="11.5820617"><ele>165.0</ele><time>2026-05-01T07:54:38.207Z</time></trkpt><trkpt lat="43.581205" lon="11.5819917"><ele>165.0</ele><time>2026-05-01T07:54:39.207Z</time></trkpt><trkpt lat="43.5812567" lon="11.5819033"><ele>165.0</ele><time>2026-05-01T07:54:40.208Z</time></trkpt><trkpt lat="43.5813" lon="11.581795"><ele>165.0</ele><time>2026-05-01T07:54:41.207Z</time></trkpt><trkpt lat="43.5813433" lon="11.58167"><ele>165.0</ele><time>2026-05-01T07:54:42.209Z</time></trkpt><trkpt lat="43.5814" lon="11.5815567"><ele>165.0</ele><time>2026-05-01T07:54:43.208Z</time></trkpt><trkpt lat="43.5814533" lon="11.5814367"><ele>165.0</ele><time>2026-05-01T07:54:44.207Z</time></trkpt><trkpt lat="43.5815033" lon="11.5813167"><ele>165.0</ele><time>2026-05-01T07:54:45.207Z</time></trkpt><trkpt lat="43.581555" lon="11.581195"><ele>165.0</ele><time>2026-05-01T07:54:46.207Z</time></trkpt><trkpt lat="43.581605" lon="11.5810717"><ele>165.0</ele><time>2026-05-01T07:54:47.208Z</time></trkpt><trkpt lat="43.5816533" lon="11.5809583"><ele>165.0</ele><time>2026-05-01T07:54:48.208Z</time></trkpt><trkpt lat="43.5817033" lon="11.5808383"><ele>164.6</ele><time>2026-05-01T07:54:49.209Z</time></trkpt><trkpt lat="43.581755" lon="11.580715"><ele>164.2</ele><time>2026-05-01T07:54:50.208Z</time></trkpt><trkpt lat="43.581805" lon="11.5806067"><ele>163.8</ele><time>2026-05-01T07:54:51.208Z</time></trkpt><trkpt lat="43.58185" lon="11.580505"><ele>163.4</ele><time>2026-05-01T07:54:52.207Z</time></trkpt><trkpt lat="43.5818983" lon="11.5803933"><ele>163.0</ele><time>2026-05-01T07:54:53.208Z</time></trkpt><trkpt lat="43.5819467" lon="11.5802767"><ele>162.8</ele><time>2026-05-01T07:54:54.207Z</time></trkpt><trkpt lat="43.5820017" lon="11.5801567"><ele>162.60000000000002</ele><time>2026-05-01T07:54:55.208Z</time></trkpt><trkpt lat="43.5820583" lon="11.58006"><ele>162.39999999999998</ele><time>2026-05-01T07:54:56.206Z</time></trkpt><trkpt lat="43.58212" lon="11.5799617"><ele>162.2</ele><time>2026-05-01T07:54:57.208Z</time></trkpt><trkpt lat="43.5821867" lon="11.5798717"><ele>162.0</ele><time>2026-05-01T07:54:58.206Z</time></trkpt><trkpt lat="43.582255" lon="11.5797883"><ele>162.0</ele><time>2026-05-01T07:54:59.207Z</time></trkpt><trkpt lat="43.582325" lon="11.5797067"><ele>162.0</ele><time>2026-05-01T07:55:00.208Z</time></trkpt><trkpt lat="43.582385" lon="11.57963"><ele>162.0</ele><time>2026-05-01T07:55:01.207Z</time></trkpt><trkpt lat="43.5824483" lon="11.57956"><ele>162.0</ele><time>2026-05-01T07:55:02.209Z</time></trkpt><trkpt lat="43.5825233" lon="11.5794933"><ele>162.0</ele><time>2026-05-01T07:55:03.207Z</time></trkpt><trkpt lat="43.5825983" lon="11.5794167"><ele>162.0</ele><time>2026-05-01T07:55:04.207Z</time></trkpt><trkpt lat="43.5826717" lon="11.5793433"><ele>162.0</ele><time>2026-05-01T07:55:05.207Z</time></trkpt><trkpt lat="43.582745" lon="11.5792767"><ele>162.0</ele><time>2026-05-01T07:55:06.207Z</time></trkpt><trkpt lat="43.5828167" lon="11.57921"><ele>162.0</ele><time>2026-05-01T07:55:07.208Z</time></trkpt><trkpt lat="43.5828917" lon="11.57914"><ele>162.0</ele><time>2026-05-01T07:55:08.207Z</time></trkpt><trkpt lat="43.582965" lon="11.5790667"><ele>162.0</ele><time>2026-05-01T07:55:09.208Z</time></trkpt><trkpt lat="43.5830367" lon="11.5789983"><ele>162.0</ele><time>2026-05-01T07:55:10.21Z</time></trkpt><trkpt lat="43.5831067" lon="11.5789267"><ele>162.0</ele><time>2026-05-01T07:55:11.208Z</time></trkpt><trkpt lat="43.5831733" lon="11.5788517"><ele>162.0</ele><time>2026-05-01T07:55:12.207Z</time></trkpt><trkpt lat="43.583245" lon="11.57878"><ele>162.0</ele><time>2026-05-01T07:55:13.207Z</time></trkpt><trkpt lat="43.58332" lon="11.57871"><ele>162.0</ele><time>2026-05-01T07:55:14.207Z</time></trkpt><trkpt lat="43.5833967" lon="11.578635"><ele>162.0</ele><time>2026-05-01T07:55:15.209Z</time></trkpt><trkpt lat="43.5834717" lon="11.57856"><ele>161.4</ele><time>2026-05-01T07:55:16.207Z</time></trkpt><trkpt lat="43.583545" lon="11.5784933"><ele>160.79999999999998</ele><time>2026-05-01T07:55:17.207Z</time></trkpt><trkpt lat="43.5836267" lon="11.5784117"><ele>160.2</ele><time>2026-05-01T07:55:18.208Z</time></trkpt><trkpt lat="43.583705" lon="11.578335"><ele>159.6</ele><time>2026-05-01T07:55:19.21Z</time></trkpt><trkpt lat="43.5837817" lon="11.57826"><ele>159.0</ele><time>2026-05-01T07:55:20.209Z</time></trkpt><trkpt lat="43.58386" lon="11.5781717"><ele>159.0</ele><time>2026-05-01T07:55:21.209Z</time></trkpt><trkpt lat="43.583935" lon="11.5780983"><ele>159.0</ele><time>2026-05-01T07:55:22.208Z</time></trkpt><trkpt lat="43.58401" lon="11.57802"><ele>159.0</ele><time>2026-05-01T07:55:23.21Z</time></trkpt><trkpt lat="43.5840833" lon="11.5779533"><ele>159.0</ele><time>2026-05-01T07:55:24.209Z</time></trkpt><trkpt lat="43.584155" lon="11.577895"><ele>159.0</ele><time>2026-05-01T07:55:25.209Z</time></trkpt><trkpt lat="43.5842317" lon="11.5778367"><ele>159.0</ele><time>2026-05-01T07:55:26.211Z</time></trkpt><trkpt lat="43.5843117" lon="11.57778"><ele>159.0</ele><time>2026-05-01T07:55:27.209Z</time></trkpt><trkpt lat="43.58439" lon="11.5777283"><ele>159.0</ele><time>2026-05-01T07:55:28.207Z</time></trkpt><trkpt lat="43.5844683" lon="11.5776767"><ele>159.0</ele><time>2026-05-01T07:55:29.207Z</time></trkpt><trkpt lat="43.58455" lon="11.577625"><ele>159.0</ele><time>2026-05-01T07:55:30.207Z</time></trkpt><trkpt lat="43.5846317" lon="11.577575"><ele>159.0</ele><time>2026-05-01T07:55:31.209Z</time></trkpt><trkpt lat="43.584715" lon="11.5775267"><ele>159.0</ele><time>2026-05-01T07:55:32.207Z</time></trkpt><trkpt lat="43.5848" lon="11.5774767"><ele>158.8</ele><time>2026-05-01T07:55:33.207Z</time></trkpt><trkpt lat="43.5848867" lon="11.577425"><ele>158.60000000000002</ele><time>2026-05-01T07:55:34.209Z</time></trkpt><trkpt lat="43.5849683" lon="11.5773783"><ele>158.4</ele><time>2026-05-01T07:55:35.209Z</time></trkpt><trkpt lat="43.5850483" lon="11.5773317"><ele>158.20000000000002</ele><time>2026-05-01T07:55:36.208Z</time></trkpt><trkpt lat="43.5851283" lon="11.5772783"><ele>158.0</ele><time>2026-05-01T07:55:37.208Z</time></trkpt><trkpt lat="43.5852117" lon="11.5772233"><ele>158.0</ele><time>2026-05-01T07:55:38.209Z</time></trkpt><trkpt lat="43.5852983" lon="11.5771667"><ele>158.0</ele><time>2026-05-01T07:55:39.208Z</time></trkpt><trkpt lat="43.585385" lon="11.5771117"><ele>158.0</ele><time>2026-05-01T07:55:40.207Z</time></trkpt><trkpt lat="43.5854733" lon="11.577055"><ele>158.0</ele><time>2026-05-01T07:55:41.207Z</time></trkpt><trkpt lat="43.5855583" lon="11.5769983"><ele>158.0</ele><time>2026-05-01T07:55:42.208Z</time></trkpt><trkpt lat="43.5856417" lon="11.5769383"><ele>157.8</ele><time>2026-05-01T07:55:43.207Z</time></trkpt><trkpt lat="43.5857233" lon="11.5768733"><ele>157.60000000000002</ele><time>2026-05-01T07:55:44.207Z</time></trkpt><trkpt lat="43.5858033" lon="11.5768067"><ele>157.39999999999998</ele><time>2026-05-01T07:55:45.207Z</time></trkpt><trkpt lat="43.5858783" lon="11.5767417"><ele>157.2</ele><time>2026-05-01T07:55:46.206Z</time></trkpt><trkpt lat="43.585955" lon="11.5766717"><ele>157.0</ele><time>2026-05-01T07:55:47.208Z</time></trkpt><trkpt lat="43.5860333" lon="11.5766"><ele>157.0</ele><time>2026-05-01T07:55:48.207Z</time></trkpt><trkpt lat="43.58611" lon="11.5765233"><ele>157.0</ele><time>2026-05-01T07:55:49.208Z</time></trkpt><trkpt lat="43.5861917" lon="11.576445"><ele>157.0</ele><time>2026-05-01T07:55:50.208Z</time></trkpt><trkpt lat="43.58627" lon="11.5763733"><ele>157.0</ele><time>2026-05-01T07:55:51.208Z</time></trkpt><trkpt lat="43.58635" lon="11.576295"><ele>157.0</ele><time>2026-05-01T07:55:52.207Z</time></trkpt><trkpt lat="43.586425" lon="11.57622"><ele>157.0</ele><time>2026-05-01T07:55:53.208Z</time></trkpt><trkpt lat="43.5865" lon="11.5761383"><ele>157.0</ele><time>2026-05-01T07:55:54.208Z</time></trkpt><trkpt lat="43.5865733" lon="11.5760533"><ele>157.0</ele><time>2026-05-01T07:55:55.208Z</time></trkpt><trkpt lat="43.5866483" lon="11.575965"><ele>157.0</ele><time>2026-05-01T07:55:56.207Z</time></trkpt><trkpt lat="43.58672" lon="11.57588"><ele>157.0</ele><time>2026-05-01T07:55:57.207Z</time></trkpt><trkpt lat="43.5867917" lon="11.5757867"><ele>157.0</ele><time>2026-05-01T07:55:58.209Z</time></trkpt><trkpt lat="43.58686" lon="11.575695"><ele>157.0</ele><time>2026-05-01T07:55:59.207Z</time></trkpt><trkpt lat="43.5869267" lon="11.575605"><ele>157.0</ele><time>2026-05-01T07:56:00.209Z</time></trkpt><trkpt lat="43.586995" lon="11.575515"><ele>157.0</ele><time>2026-05-01T07:56:01.207Z</time></trkpt><trkpt lat="43.5870633" lon="11.57542"><ele>157.0</ele><time>2026-05-01T07:56:02.209Z</time></trkpt><trkpt lat="43.587125" lon="11.5753317"><ele>157.2</ele><time>2026-05-01T07:56:03.208Z</time></trkpt><trkpt lat="43.5871817" lon="11.57524"><ele>157.39999999999998</ele><time>2026-05-01T07:56:04.207Z</time></trkpt><trkpt lat="43.5872383" lon="11.575145"><ele>157.60000000000002</ele><time>2026-05-01T07:56:05.207Z</time></trkpt><trkpt lat="43.5872933" lon="11.5750417"><ele>157.8</ele><time>2026-05-01T07:56:06.207Z</time></trkpt><trkpt lat="43.587345" lon="11.5749383"><ele>158.0</ele><time>2026-05-01T07:56:07.209Z</time></trkpt><trkpt lat="43.5873967" lon="11.57483"><ele>158.0</ele><time>2026-05-01T07:56:08.211Z</time></trkpt><trkpt lat="43.5874467" lon="11.57472"><ele>158.0</ele><time>2026-05-01T07:56:09.207Z</time></trkpt><trkpt lat="43.5874967" lon="11.5746083"><ele>158.0</ele><time>2026-05-01T07:56:10.208Z</time></trkpt><trkpt lat="43.5875467" lon="11.574495"><ele>158.0</ele><time>2026-05-01T07:56:11.208Z</time></trkpt><trkpt lat="43.5875967" lon="11.57439"><ele>158.0</ele><time>2026-05-01T07:56:12.207Z</time></trkpt><trkpt lat="43.5876483" lon="11.574275"><ele>158.0</ele><time>2026-05-01T07:56:13.208Z</time></trkpt><trkpt lat="43.5876967" lon="11.5741617"><ele>158.0</ele><time>2026-05-01T07:56:14.207Z</time></trkpt><trkpt lat="43.5877467" lon="11.57404"><ele>158.0</ele><time>2026-05-01T07:56:15.207Z</time></trkpt><trkpt lat="43.5877967" lon="11.5739233"><ele>158.0</ele><time>2026-05-01T07:56:16.207Z</time></trkpt><trkpt lat="43.5878483" lon="11.5738083"><ele>158.0</ele><time>2026-05-01T07:56:17.208Z</time></trkpt><trkpt lat="43.5879" lon="11.5737033"><ele>157.20000000000002</ele><time>2026-05-01T07:56:18.209Z</time></trkpt><trkpt lat="43.587955" lon="11.5735883"><ele>156.4</ele><time>2026-05-01T07:56:19.207Z</time></trkpt><trkpt lat="43.5880083" lon="11.5734767"><ele>155.60000000000002</ele><time>2026-05-01T07:56:20.208Z</time></trkpt><trkpt lat="43.5880617" lon="11.5733583"><ele>154.8</ele><time>2026-05-01T07:56:21.208Z</time></trkpt><trkpt lat="43.5881167" lon="11.57324"><ele>154.0</ele><time>2026-05-01T07:56:22.207Z</time></trkpt><trkpt lat="43.5881733" lon="11.573125"><ele>154.0</ele><time>2026-05-01T07:56:23.208Z</time></trkpt><trkpt lat="43.5882267" lon="11.5730167"><ele>154.0</ele><time>2026-05-01T07:56:24.209Z</time></trkpt><trkpt lat="43.5882817" lon="11.5729067"><ele>154.0</ele><time>2026-05-01T07:56:25.207Z</time></trkpt><trkpt lat="43.5883333" lon="11.572805"><ele>154.0</ele><time>2026-05-01T07:56:26.207Z</time></trkpt><trkpt lat="43.5883833" lon="11.5727017"><ele>154.0</ele><time>2026-05-01T07:56:27.208Z</time></trkpt><trkpt lat="43.5884333" lon="11.5725983"><ele>154.0</ele><time>2026-05-01T07:56:28.207Z</time></trkpt><trkpt lat="43.5884867" lon="11.572495"><ele>154.0</ele><time>2026-05-01T07:56:29.208Z</time></trkpt><trkpt lat="43.5885367" lon="11.5723933"><ele>154.0</ele><time>2026-05-01T07:56:30.206Z</time></trkpt><trkpt lat="43.5885833" lon="11.5722917"><ele>154.0</ele><time>2026-05-01T07:56:31.207Z</time></trkpt><trkpt lat="43.5886283" lon="11.57219"><ele>154.0</ele><time>2026-05-01T07:56:32.208Z</time></trkpt><trkpt lat="43.588675" lon="11.5720817"><ele>154.0</ele><time>2026-05-01T07:56:33.208Z</time></trkpt><trkpt lat="43.58872" lon="11.5719767"><ele>154.16666666666669</ele><time>2026-05-01T07:56:34.208Z</time></trkpt><trkpt lat="43.5887667" lon="11.57187"><ele>154.33333333333334</ele><time>2026-05-01T07:56:35.208Z</time></trkpt><trkpt lat="43.5888117" lon="11.5717633"><ele>154.5</ele><time>2026-05-01T07:56:36.207Z</time></trkpt><trkpt lat="43.588855" lon="11.5716583"><ele>154.66666666666666</ele><time>2026-05-01T07:56:37.207Z</time></trkpt><trkpt lat="43.5888983" lon="11.5715517"><ele>154.83333333333331</ele><time>2026-05-01T07:56:38.208Z</time></trkpt><trkpt lat="43.5889433" lon="11.5714433"><ele>155.0</ele><time>2026-05-01T07:56:39.208Z</time></trkpt><trkpt lat="43.5889933" lon="11.5713317"><ele>155.0</ele><time>2026-05-01T07:56:40.206Z</time></trkpt><trkpt lat="43.58904" lon="11.5712217"><ele>155.0</ele><time>2026-05-01T07:56:41.209Z</time></trkpt><trkpt lat="43.5890883" lon="11.571115"><ele>155.0</ele><time>2026-05-01T07:56:42.209Z</time></trkpt><trkpt lat="43.5891333" lon="11.5710133"><ele>155.0</ele><time>2026-05-01T07:56:43.207Z</time></trkpt><trkpt lat="43.5891767" lon="11.5709083"><ele>155.0</ele><time>2026-05-01T07:56:44.207Z</time></trkpt><trkpt lat="43.589215" lon="11.5707967"><ele>155.0</ele><time>2026-05-01T07:56:45.207Z</time></trkpt><trkpt lat="43.5892467" lon="11.5706767"><ele>154.83333333333331</ele><time>2026-05-01T07:56:46.207Z</time></trkpt><trkpt lat="43.5892683" lon="11.5705583"><ele>154.66666666666666</ele><time>2026-05-01T07:56:47.207Z</time></trkpt><trkpt lat="43.5892767" lon="11.57044"><ele>154.5</ele><time>2026-05-01T07:56:48.209Z</time></trkpt><trkpt lat="43.5892817" lon="11.5703133"><ele>154.33333333333334</ele><time>2026-05-01T07:56:49.208Z</time></trkpt><trkpt lat="43.589275" lon="11.5701883"><ele>154.16666666666669</ele><time>2026-05-01T07:56:50.207Z</time></trkpt><trkpt lat="43.5892583" lon="11.5700667"><ele>154.0</ele><time>2026-05-01T07:56:51.207Z</time></trkpt><trkpt lat="43.589225" lon="11.5699483"><ele>153.66666666666669</ele><time>2026-05-01T07:56:52.207Z</time></trkpt><trkpt lat="43.5891767" lon="11.569855"><ele>153.33333333333334</ele><time>2026-05-01T07:56:53.207Z</time></trkpt><trkpt lat="43.5891217" lon="11.5697567"><ele>153.0</ele><time>2026-05-01T07:56:54.209Z</time></trkpt><trkpt lat="43.5890633" lon="11.5696683"><ele>152.66666666666666</ele><time>2026-05-01T07:56:55.207Z</time></trkpt><trkpt lat="43.5889983" lon="11.569575"><ele>152.33333333333331</ele><time>2026-05-01T07:56:56.208Z</time></trkpt><trkpt lat="43.5889383" lon="11.5694833"><ele>152.0</ele><time>2026-05-01T07:56:57.207Z</time></trkpt><trkpt lat="43.5888883" lon="11.56938"><ele>151.79999999999998</ele><time>2026-05-01T07:56:58.209Z</time></trkpt><trkpt lat="43.58884" lon="11.5692767"><ele>151.6</ele><time>2026-05-01T07:56:59.208Z</time></trkpt><trkpt lat="43.5887933" lon="11.56917"><ele>151.39999999999998</ele><time>2026-05-01T07:57:00.207Z</time></trkpt><trkpt lat="43.5887467" lon="11.56906"><ele>151.2</ele><time>2026-05-01T07:57:01.207Z</time></trkpt><trkpt lat="43.5886967" lon="11.5689483"><ele>151.0</ele><time>2026-05-01T07:57:02.209Z</time></trkpt><trkpt lat="43.58865" lon="11.5688483"><ele>151.16666666666669</ele><time>2026-05-01T07:57:03.209Z</time></trkpt><trkpt lat="43.5886033" lon="11.568745"><ele>151.33333333333334</ele><time>2026-05-01T07:57:04.207Z</time></trkpt><trkpt lat="43.5885567" lon="11.56864"><ele>151.5</ele><time>2026-05-01T07:57:05.207Z</time></trkpt><trkpt lat="43.588515" lon="11.56854"><ele>151.66666666666666</ele><time>2026-05-01T07:57:06.207Z</time></trkpt><trkpt lat="43.58847" lon="11.5684333"><ele>151.83333333333331</ele><time>2026-05-01T07:57:07.208Z</time></trkpt><trkpt lat="43.58842" lon="11.5683367"><ele>152.0</ele><time>2026-05-01T07:57:08.207Z</time></trkpt><trkpt lat="43.58837" lon="11.5682317"><ele>152.0</ele><time>2026-05-01T07:57:09.21Z</time></trkpt><trkpt lat="43.5883167" lon="11.568135"><ele>152.0</ele><time>2026-05-01T07:57:10.208Z</time></trkpt><trkpt lat="43.5882633" lon="11.5680333"><ele>152.0</ele><time>2026-05-01T07:57:11.207Z</time></trkpt><trkpt lat="43.5882083" lon="11.5679333"><ele>152.0</ele><time>2026-05-01T07:57:12.208Z</time></trkpt><trkpt lat="43.5881567" lon="11.5678367"><ele>152.0</ele><time>2026-05-01T07:57:13.209Z</time></trkpt><trkpt lat="43.588105" lon="11.5677367"><ele>152.0</ele><time>2026-05-01T07:57:14.211Z</time></trkpt><trkpt lat="43.5880567" lon="11.5676367"><ele>152.0</ele><time>2026-05-01T07:57:15.208Z</time></trkpt><trkpt lat="43.5880067" lon="11.5675333"><ele>152.0</ele><time>2026-05-01T07:57:16.209Z</time></trkpt><trkpt lat="43.5879567" lon="11.5674283"><ele>152.0</ele><time>2026-05-01T07:57:17.208Z</time></trkpt><trkpt lat="43.5879067" lon="11.567325"><ele>152.0</ele><time>2026-05-01T07:57:18.21Z</time></trkpt><trkpt lat="43.5878583" lon="11.5672217"><ele>152.0</ele><time>2026-05-01T07:57:19.208Z</time></trkpt><trkpt lat="43.5878133" lon="11.567105"><ele>151.6</ele><time>2026-05-01T07:57:20.209Z</time></trkpt><trkpt lat="43.5877733" lon="11.5669933"><ele>151.2</ele><time>2026-05-01T07:57:21.208Z</time></trkpt><trkpt lat="43.5877383" lon="11.566875"><ele>150.8</ele><time>2026-05-01T07:57:22.207Z</time></trkpt><trkpt lat="43.587705" lon="11.566755"><ele>150.4</ele><time>2026-05-01T07:57:23.208Z</time></trkpt><trkpt lat="43.58767" lon="11.5666467"><ele>150.0</ele><time>2026-05-01T07:57:24.208Z</time></trkpt><trkpt lat="43.58764" lon="11.56653"><ele>150.0</ele><time>2026-05-01T07:57:25.21Z</time></trkpt><trkpt lat="43.587615" lon="11.5664067"><ele>150.0</ele><time>2026-05-01T07:57:26.207Z</time></trkpt><trkpt lat="43.5875883" lon="11.5662833"><ele>150.0</ele><time>2026-05-01T07:57:27.208Z</time></trkpt><trkpt lat="43.5875583" lon="11.5661633"><ele>150.0</ele><time>2026-05-01T07:57:28.207Z</time></trkpt><trkpt lat="43.58753" lon="11.5660467"><ele>150.0</ele><time>2026-05-01T07:57:29.21Z</time></trkpt><trkpt lat="43.5875033" lon="11.5659267"><ele>149.6</ele><time>2026-05-01T07:57:30.206Z</time></trkpt><trkpt lat="43.587475" lon="11.565805"><ele>149.2</ele><time>2026-05-01T07:57:31.207Z</time></trkpt><trkpt lat="43.5874467" lon="11.5656833"><ele>148.8</ele><time>2026-05-01T07:57:32.208Z</time></trkpt><trkpt lat="43.58742" lon="11.5655633"><ele>148.4</ele><time>2026-05-01T07:57:33.209Z</time></trkpt><trkpt lat="43.5873883" lon="11.5654383"><ele>148.0</ele><time>2026-05-01T07:57:34.207Z</time></trkpt><trkpt lat="43.58736" lon="11.5653267"><ele>147.83333333333334</ele><time>2026-05-01T07:57:35.208Z</time></trkpt><trkpt lat="43.5873283" lon="11.5652133"><ele>147.66666666666669</ele><time>2026-05-01T07:57:36.207Z</time></trkpt><trkpt lat="43.5872983" lon="11.5650967"><ele>147.5</ele><time>2026-05-01T07:57:37.207Z</time></trkpt><trkpt lat="43.5872667" lon="11.5649783"><ele>147.33333333333334</ele><time>2026-05-01T07:57:38.206Z</time></trkpt><trkpt lat="43.587235" lon="11.56486"><ele>147.16666666666666</ele><time>2026-05-01T07:57:39.208Z</time></trkpt><trkpt lat="43.5872033" lon="11.5647517"><ele>147.0</ele><time>2026-05-01T07:57:40.209Z</time></trkpt><trkpt lat="43.58717" lon="11.5646383"><ele>147.0</ele><time>2026-05-01T07:57:41.209Z</time></trkpt><trkpt lat="43.5871317" lon="11.5645333"><ele>147.0</ele><time>2026-05-01T07:57:42.208Z</time></trkpt><trkpt lat="43.58709" lon="11.5644233"><ele>147.0</ele><time>2026-05-01T07:57:43.209Z</time></trkpt><trkpt lat="43.5870483" lon="11.5643133"><ele>147.0</ele><time>2026-05-01T07:57:44.209Z</time></trkpt><trkpt lat="43.5870067" lon="11.5642017"><ele>147.0</ele><time>2026-05-01T07:57:45.208Z</time></trkpt><trkpt lat="43.5869633" lon="11.5640883"><ele>147.0</ele><time>2026-05-01T07:57:46.207Z</time></trkpt><trkpt lat="43.58692" lon="11.5639783"><ele>147.0</ele><time>2026-05-01T07:57:47.208Z</time></trkpt><trkpt lat="43.58688" lon="11.5638783"><ele>147.0</ele><time>2026-05-01T07:57:48.209Z</time></trkpt><trkpt lat="43.58684" lon="11.5637717"><ele>147.0</ele><time>2026-05-01T07:57:49.208Z</time></trkpt><trkpt lat="43.5867983" lon="11.5636683"><ele>147.0</ele><time>2026-05-01T07:57:50.207Z</time></trkpt><trkpt lat="43.5867567" lon="11.563565"><ele>147.0</ele><time>2026-05-01T07:57:51.207Z</time></trkpt><trkpt lat="43.58671" lon="11.563455"><ele>147.0</ele><time>2026-05-01T07:57:52.207Z</time></trkpt><trkpt lat="43.586665" lon="11.5633467"><ele>147.0</ele><time>2026-05-01T07:57:53.207Z</time></trkpt><trkpt lat="43.5866183" lon="11.56324"><ele>147.0</ele><time>2026-05-01T07:57:54.209Z</time></trkpt><trkpt lat="43.5865667" lon="11.5631333"><ele>147.0</ele><time>2026-05-01T07:57:55.208Z</time></trkpt><trkpt lat="43.5865133" lon="11.5630267"><ele>147.0</ele><time>2026-05-01T07:57:56.209Z</time></trkpt><trkpt lat="43.5864583" lon="11.5629217"><ele>147.0</ele><time>2026-05-01T07:57:57.208Z</time></trkpt><trkpt lat="43.5864" lon="11.56282"><ele>147.0</ele><time>2026-05-01T07:57:58.207Z</time></trkpt><trkpt lat="43.58634" lon="11.5627133"><ele>147.0</ele><time>2026-05-01T07:57:59.211Z</time></trkpt><trkpt lat="43.5862817" lon="11.5626"><ele>147.0</ele><time>2026-05-01T07:58:00.207Z</time></trkpt><trkpt lat="43.5862217" lon="11.5624933"><ele>147.0</ele><time>2026-05-01T07:58:01.207Z</time></trkpt><trkpt lat="43.5861667" lon="11.56239"><ele>147.0</ele><time>2026-05-01T07:58:02.208Z</time></trkpt><trkpt lat="43.5861117" lon="11.562285"><ele>147.0</ele><time>2026-05-01T07:58:03.209Z</time></trkpt><trkpt lat="43.5860567" lon="11.5621817"><ele>147.0</ele><time>2026-05-01T07:58:04.207Z</time></trkpt><trkpt lat="43.5860017" lon="11.5620783"><ele>147.0</ele><time>2026-05-01T07:58:05.208Z</time></trkpt><trkpt lat="43.5859467" lon="11.5619767"><ele>147.0</ele><time>2026-05-01T07:58:06.208Z</time></trkpt><trkpt lat="43.5858867" lon="11.5618783"><ele>147.0</ele><time>2026-05-01T07:58:07.21Z</time></trkpt><trkpt lat="43.5858317" lon="11.5617733"><ele>147.0</ele><time>2026-05-01T07:58:08.208Z</time></trkpt><trkpt lat="43.585775" lon="11.56167"><ele>147.0</ele><time>2026-05-01T07:58:09.209Z</time></trkpt><trkpt lat="43.5857183" lon="11.5615667"><ele>147.0</ele><time>2026-05-01T07:58:10.208Z</time></trkpt><trkpt lat="43.58566" lon="11.561465"><ele>147.0</ele><time>2026-05-01T07:58:11.208Z</time></trkpt><trkpt lat="43.5856" lon="11.5613617"><ele>147.0</ele><time>2026-05-01T07:58:12.207Z</time></trkpt><trkpt lat="43.5855417" lon="11.561255"><ele>147.2</ele><time>2026-05-01T07:58:13.209Z</time></trkpt><trkpt lat="43.5854817" lon="11.5611533"><ele>147.39999999999998</ele><time>2026-05-01T07:58:14.208Z</time></trkpt><trkpt lat="43.5854233" lon="11.5610517"><ele>147.60000000000002</ele><time>2026-05-01T07:58:15.207Z</time></trkpt><trkpt lat="43.5853633" lon="11.56095"><ele>147.8</ele><time>2026-05-01T07:58:16.211Z</time></trkpt><trkpt lat="43.5853017" lon="11.560845"><ele>148.0</ele><time>2026-05-01T07:58:17.208Z</time></trkpt><trkpt lat="43.5852383" lon="11.560745"><ele>147.20000000000002</ele><time>2026-05-01T07:58:18.209Z</time></trkpt><trkpt lat="43.585175" lon="11.5606417"><ele>146.4</ele><time>2026-05-01T07:58:19.207Z</time></trkpt><trkpt lat="43.5851117" lon="11.5605433"><ele>145.60000000000002</ele><time>2026-05-01T07:58:20.208Z</time></trkpt><trkpt lat="43.5850483" lon="11.5604417"><ele>144.8</ele><time>2026-05-01T07:58:21.209Z</time></trkpt><trkpt lat="43.584985" lon="11.5603367"><ele>144.0</ele><time>2026-05-01T07:58:22.207Z</time></trkpt><trkpt lat="43.5849217" lon="11.5602367"><ele>144.0</ele><time>2026-05-01T07:58:23.208Z</time></trkpt><trkpt lat="43.58486" lon="11.5601383"><ele>144.0</ele><time>2026-05-01T07:58:24.206Z</time></trkpt><trkpt lat="43.584795" lon="11.56004"><ele>144.0</ele><time>2026-05-01T07:58:25.207Z</time></trkpt><trkpt lat="43.5847333" lon="11.5599367"><ele>144.0</ele><time>2026-05-01T07:58:26.21Z</time></trkpt><trkpt lat="43.58467" lon="11.559835"><ele>144.0</ele><time>2026-05-01T07:58:27.207Z</time></trkpt><trkpt lat="43.5846083" lon="11.559735"><ele>144.0</ele><time>2026-05-01T07:58:28.207Z</time></trkpt><trkpt lat="43.5845483" lon="11.5596333"><ele>144.0</ele><time>2026-05-01T07:58:29.207Z</time></trkpt><trkpt lat="43.5844883" lon="11.55953"><ele>144.0</ele><time>2026-05-01T07:58:30.207Z</time></trkpt><trkpt lat="43.5844367" lon="11.5594233"><ele>144.0</ele><time>2026-05-01T07:58:31.207Z</time></trkpt><trkpt lat="43.5843833" lon="11.559315"><ele>144.0</ele><time>2026-05-01T07:58:32.207Z</time></trkpt><trkpt lat="43.5843317" lon="11.55921"><ele>144.0</ele><time>2026-05-01T07:58:33.207Z</time></trkpt><trkpt lat="43.58428" lon="11.5591017"><ele>144.0</ele><time>2026-05-01T07:58:34.207Z</time></trkpt><trkpt lat="43.5842267" lon="11.5589933"><ele>144.0</ele><time>2026-05-01T07:58:35.207Z</time></trkpt><trkpt lat="43.5841733" lon="11.5588867"><ele>144.0</ele><time>2026-05-01T07:58:36.208Z</time></trkpt><trkpt lat="43.58412" lon="11.55878"><ele>144.0</ele><time>2026-05-01T07:58:37.206Z</time></trkpt><trkpt lat="43.5840717" lon="11.55867"><ele>144.6</ele><time>2026-05-01T07:58:38.207Z</time></trkpt><trkpt lat="43.5840267" lon="11.5585617"><ele>145.2</ele><time>2026-05-01T07:58:39.207Z</time></trkpt><trkpt lat="43.5839833" lon="11.5584533"><ele>145.79999999999998</ele><time>2026-05-01T07:58:40.206Z</time></trkpt><trkpt lat="43.58394" lon="11.55834"><ele>146.4</ele><time>2026-05-01T07:58:41.208Z</time></trkpt><trkpt lat="43.583895" lon="11.5582233"><ele>147.0</ele><time>2026-05-01T07:58:42.209Z</time></trkpt><trkpt lat="43.5838617" lon="11.5581"><ele>147.0</ele><time>2026-05-01T07:58:43.207Z</time></trkpt><trkpt lat="43.5838383" lon="11.557975"><ele>147.0</ele><time>2026-05-01T07:58:44.207Z</time></trkpt><trkpt lat="43.5838217" lon="11.5578483"><ele>147.0</ele><time>2026-05-01T07:58:45.208Z</time></trkpt><trkpt lat="43.5838117" lon="11.55772"><ele>147.0</ele><time>2026-05-01T07:58:46.207Z</time></trkpt><trkpt lat="43.5838083" lon="11.5576"><ele>147.0</ele><time>2026-05-01T07:58:47.207Z</time></trkpt><trkpt lat="43.5838183" lon="11.55748"><ele>146.83333333333334</ele><time>2026-05-01T07:58:48.208Z</time></trkpt><trkpt lat="43.5838367" lon="11.55736"><ele>146.66666666666666</ele><time>2026-05-01T07:58:49.207Z</time></trkpt><trkpt lat="43.5838617" lon="11.5572383"><ele>146.5</ele><time>2026-05-01T07:58:50.206Z</time></trkpt><trkpt lat="43.583885" lon="11.5571267"><ele>146.33333333333331</ele><time>2026-05-01T07:58:51.207Z</time></trkpt><trkpt lat="43.583915" lon="11.557015"><ele>146.16666666666666</ele><time>2026-05-01T07:58:52.206Z</time></trkpt><trkpt lat="43.58395" lon="11.5569083"><ele>146.0</ele><time>2026-05-01T07:58:53.209Z</time></trkpt><trkpt lat="43.5839867" lon="11.5568083"><ele>145.8</ele><time>2026-05-01T07:58:54.208Z</time></trkpt><trkpt lat="43.5840333" lon="11.5567017"><ele>145.6</ele><time>2026-05-01T07:58:55.207Z</time></trkpt><trkpt lat="43.584085" lon="11.5566"><ele>145.4</ele><time>2026-05-01T07:58:56.207Z</time></trkpt><trkpt lat="43.5841383" lon="11.5565017"><ele>145.2</ele><time>2026-05-01T07:58:57.207Z</time></trkpt><trkpt lat="43.5841983" lon="11.5564033"><ele>145.0</ele><time>2026-05-01T07:58:58.208Z</time></trkpt><trkpt lat="43.5842583" lon="11.55631"><ele>145.0</ele><time>2026-05-01T07:58:59.209Z</time></trkpt><trkpt lat="43.58432" lon="11.5562117"><ele>145.0</ele><time>2026-05-01T07:59:00.208Z</time></trkpt><trkpt lat="43.58438" lon="11.556115"><ele>145.0</ele><time>2026-05-01T07:59:01.207Z</time></trkpt><trkpt lat="43.58444" lon="11.5560217"><ele>145.0</ele><time>2026-05-01T07:59:02.207Z</time></trkpt><trkpt lat="43.5845" lon="11.555925"><ele>145.0</ele><time>2026-05-01T07:59:03.208Z</time></trkpt><trkpt lat="43.5845633" lon="11.5558283"><ele>144.83333333333334</ele><time>2026-05-01T07:59:04.207Z</time></trkpt><trkpt lat="43.5846233" lon="11.5557333"><ele>144.66666666666669</ele><time>2026-05-01T07:59:05.207Z</time></trkpt><trkpt lat="43.58468" lon="11.5556417"><ele>144.5</ele><time>2026-05-01T07:59:06.207Z</time></trkpt><trkpt lat="43.5847317" lon="11.555555"><ele>144.33333333333334</ele><time>2026-05-01T07:59:07.209Z</time></trkpt><trkpt lat="43.5847817" lon="11.55547"><ele>144.16666666666666</ele><time>2026-05-01T07:59:08.208Z</time></trkpt><trkpt lat="43.5848317" lon="11.5553867"><ele>144.0</ele><time>2026-05-01T07:59:09.208Z</time></trkpt><trkpt lat="43.5848783" lon="11.5553083"><ele>143.57142857142858</ele><time>2026-05-01T07:59:10.206Z</time></trkpt><trkpt lat="43.5849267" lon="11.5552283"><ele>143.14285714285714</ele><time>2026-05-01T07:59:11.207Z</time></trkpt><trkpt lat="43.5849717" lon="11.55515"><ele>142.71428571428572</ele><time>2026-05-01T07:59:12.207Z</time></trkpt><trkpt lat="43.5850183" lon="11.5550733"><ele>142.28571428571428</ele><time>2026-05-01T07:59:13.206Z</time></trkpt><trkpt lat="43.585065" lon="11.554995"><ele>141.85714285714286</ele><time>2026-05-01T07:59:14.209Z</time></trkpt><trkpt lat="43.5851083" lon="11.5549167"><ele>141.42857142857144</ele><time>2026-05-01T07:59:15.206Z</time></trkpt><trkpt lat="43.5851483" lon="11.5548367"><ele>141.0</ele><time>2026-05-01T07:59:16.206Z</time></trkpt><trkpt lat="43.58519" lon="11.55475"><ele>141.0</ele><time>2026-05-01T07:59:17.207Z</time></trkpt><trkpt lat="43.5852267" lon="11.5546633"><ele>141.0</ele><time>2026-05-01T07:59:18.209Z</time></trkpt><trkpt lat="43.5852617" lon="11.5545733"><ele>141.0</ele><time>2026-05-01T07:59:19.208Z</time></trkpt><trkpt lat="43.5852967" lon="11.554485"><ele>141.0</ele><time>2026-05-01T07:59:20.209Z</time></trkpt><trkpt lat="43.58533" lon="11.5543983"><ele>141.0</ele><time>2026-05-01T07:59:21.207Z</time></trkpt><trkpt lat="43.5853633" lon="11.5543167"><ele>141.0</ele><time>2026-05-01T07:59:22.206Z</time></trkpt><trkpt lat="43.5854217" lon="11.5541967"><ele>140.83333333333334</ele><time>2026-05-01T07:59:24.206Z</time></trkpt><trkpt lat="43.5854717" lon="11.5541233"><ele>140.66666666666666</ele><time>2026-05-01T07:59:26.206Z</time></trkpt><trkpt lat="43.5855467" lon="11.5540617"><ele>140.5</ele><time>2026-05-01T07:59:29.206Z</time></trkpt><trkpt lat="43.5856067" lon="11.554035"><ele>140.33333333333331</ele><time>2026-05-01T07:59:31.208Z</time></trkpt><trkpt lat="43.5856767" lon="11.553995"><ele>140.16666666666666</ele><time>2026-05-01T07:59:33.207Z</time></trkpt><trkpt lat="43.5857667" lon="11.553985"><ele>140.0</ele><time>2026-05-01T07:59:35.209Z</time></trkpt><trkpt lat="43.5858933" lon="11.5540217"><ele>140.0</ele><time>2026-05-01T07:59:37.209Z</time></trkpt><trkpt lat="43.5859633" lon="11.554055"><ele>140.0</ele><time>2026-05-01T07:59:38.207Z</time></trkpt><trkpt lat="43.5860417" lon="11.554095"><ele>140.0</ele><time>2026-05-01T07:59:39.207Z</time></trkpt><trkpt lat="43.5861267" lon="11.5541317"><ele>140.0</ele><time>2026-05-01T07:59:40.208Z</time></trkpt><trkpt lat="43.586215" lon="11.5541717"><ele>140.0</ele><time>2026-05-01T07:59:41.208Z</time></trkpt><trkpt lat="43.5863067" lon="11.554215"><ele>140.0</ele><time>2026-05-01T07:59:42.209Z</time></trkpt><trkpt lat="43.5864017" lon="11.55426"><ele>140.6</ele><time>2026-05-01T07:59:43.206Z</time></trkpt><trkpt lat="43.5865017" lon="11.5543183"><ele>141.2</ele><time>2026-05-01T07:59:44.209Z</time></trkpt><trkpt lat="43.5866017" lon="11.5543867"><ele>141.8</ele><time>2026-05-01T07:59:45.207Z</time></trkpt><trkpt lat="43.5867017" lon="11.5544633"><ele>142.4</ele><time>2026-05-01T07:59:46.206Z</time></trkpt><trkpt lat="43.5868" lon="11.554545"><ele>143.0</ele><time>2026-05-01T07:59:47.208Z</time></trkpt><trkpt lat="43.5868967" lon="11.5546267"><ele>143.0</ele><time>2026-05-01T07:59:48.207Z</time></trkpt><trkpt lat="43.586995" lon="11.5547067"><ele>143.0</ele><time>2026-05-01T07:59:49.205Z</time></trkpt><trkpt lat="43.5870933" lon="11.5547817"><ele>143.0</ele><time>2026-05-01T07:59:50.209Z</time></trkpt><trkpt lat="43.5871883" lon="11.5548483"><ele>143.0</ele><time>2026-05-01T07:59:51.208Z</time></trkpt><trkpt lat="43.5872783" lon="11.5549083"><ele>143.0</ele><time>2026-05-01T07:59:52.206Z</time></trkpt><trkpt lat="43.5873583" lon="11.5549617"><ele>143.0</ele><time>2026-05-01T07:59:53.208Z</time></trkpt><trkpt lat="43.5874367" lon="11.555005"><ele>143.0</ele><time>2026-05-01T07:59:54.207Z</time></trkpt><trkpt lat="43.587515" lon="11.5550433"><ele>143.0</ele><time>2026-05-01T07:59:55.207Z</time></trkpt><trkpt lat="43.58759" lon="11.5550733"><ele>143.0</ele><time>2026-05-01T07:59:56.207Z</time></trkpt><trkpt lat="43.587665" lon="11.5551017"><ele>143.0</ele><time>2026-05-01T07:59:57.207Z</time></trkpt><trkpt lat="43.587735" lon="11.5551233"><ele>143.0</ele><time>2026-05-01T07:59:58.208Z</time></trkpt><trkpt lat="43.587805" lon="11.5551467"><ele>143.57142857142856</ele><time>2026-05-01T07:59:59.208Z</time></trkpt><trkpt lat="43.5878717" lon="11.5551683"><ele>144.14285714285714</ele><time>2026-05-01T08:00:00.207Z</time></trkpt><trkpt lat="43.58794" lon="11.5551867"><ele>144.71428571428572</ele><time>2026-05-01T08:00:01.208Z</time></trkpt><trkpt lat="43.5880067" lon="11.5552117"><ele>145.28571428571428</ele><time>2026-05-01T08:00:02.208Z</time></trkpt><trkpt lat="43.5880767" lon="11.55524"><ele>145.85714285714286</ele><time>2026-05-01T08:00:03.207Z</time></trkpt><trkpt lat="43.5881517" lon="11.5552683"><ele>146.42857142857142</ele><time>2026-05-01T08:00:04.207Z</time></trkpt><trkpt lat="43.5882233" lon="11.5552933"><ele>147.0</ele><time>2026-05-01T08:00:05.206Z</time></trkpt><trkpt lat="43.5882917" lon="11.55532"><ele>147.0</ele><time>2026-05-01T08:00:06.207Z</time></trkpt><trkpt lat="43.5883667" lon="11.55535"><ele>147.0</ele><time>2026-05-01T08:00:07.206Z</time></trkpt><trkpt lat="43.5884417" lon="11.5553817"><ele>147.0</ele><time>2026-05-01T08:00:08.208Z</time></trkpt><trkpt lat="43.5885133" lon="11.5554183"><ele>147.0</ele><time>2026-05-01T08:00:09.206Z</time></trkpt><trkpt lat="43.588585" lon="11.555465"><ele>147.0</ele><time>2026-05-01T08:00:10.206Z</time></trkpt><trkpt lat="43.5886517" lon="11.5555167"><ele>147.0</ele><time>2026-05-01T08:00:11.207Z</time></trkpt><trkpt lat="43.58871" lon="11.5555733"><ele>146.71428571428572</ele><time>2026-05-01T08:00:12.21Z</time></trkpt><trkpt lat="43.5887667" lon="11.5556283"><ele>146.42857142857144</ele><time>2026-05-01T08:00:13.207Z</time></trkpt><trkpt lat="43.5888267" lon="11.555685"><ele>146.14285714285714</ele><time>2026-05-01T08:00:14.208Z</time></trkpt><trkpt lat="43.5888883" lon="11.5557367"><ele>145.85714285714286</ele><time>2026-05-01T08:00:15.207Z</time></trkpt><trkpt lat="43.5889517" lon="11.555785"><ele>145.57142857142858</ele><time>2026-05-01T08:00:16.206Z</time></trkpt><trkpt lat="43.5890167" lon="11.555825"><ele>145.28571428571428</ele><time>2026-05-01T08:00:17.206Z</time></trkpt><trkpt lat="43.5890833" lon="11.5558617"><ele>145.0</ele><time>2026-05-01T08:00:18.207Z</time></trkpt><trkpt lat="43.5891517" lon="11.5558967"><ele>145.0</ele><time>2026-05-01T08:00:19.208Z</time></trkpt><trkpt lat="43.5892183" lon="11.5559267"><ele>145.0</ele><time>2026-05-01T08:00:20.208Z</time></trkpt><trkpt lat="43.5892867" lon="11.5559617"><ele>145.0</ele><time>2026-05-01T08:00:21.208Z</time></trkpt><trkpt lat="43.5893567" lon="11.555995"><ele>145.0</ele><time>2026-05-01T08:00:22.208Z</time></trkpt><trkpt lat="43.5894233" lon="11.5560267"><ele>145.0</ele><time>2026-05-01T08:00:23.207Z</time></trkpt><trkpt lat="43.5894917" lon="11.5560533"><ele>145.0</ele><time>2026-05-01T08:00:24.208Z</time></trkpt><trkpt lat="43.5895583" lon="11.55608"><ele>145.0</ele><time>2026-05-01T08:00:25.208Z</time></trkpt><trkpt lat="43.5896217" lon="11.5561017"><ele>145.16666666666669</ele><time>2026-05-01T08:00:26.207Z</time></trkpt><trkpt lat="43.589685" lon="11.5561233"><ele>145.33333333333334</ele><time>2026-05-01T08:00:27.207Z</time></trkpt><trkpt lat="43.5898033" lon="11.556145"><ele>145.5</ele><time>2026-05-01T08:00:29.207Z</time></trkpt><trkpt lat="43.5898683" lon="11.55615"><ele>145.66666666666666</ele><time>2026-05-01T08:00:30.208Z</time></trkpt><trkpt lat="43.58994" lon="11.55616"><ele>145.83333333333331</ele><time>2026-05-01T08:00:31.209Z</time></trkpt><trkpt lat="43.5900117" lon="11.5561717"><ele>146.0</ele><time>2026-05-01T08:00:32.209Z</time></trkpt><trkpt lat="43.5900883" lon="11.5561817"><ele>146.33333333333331</ele><time>2026-05-01T08:00:33.208Z</time></trkpt><trkpt lat="43.590165" lon="11.5562033"><ele>146.66666666666666</ele><time>2026-05-01T08:00:34.208Z</time></trkpt><trkpt lat="43.5902333" lon="11.5562367"><ele>147.0</ele><time>2026-05-01T08:00:35.207Z</time></trkpt><trkpt lat="43.590295" lon="11.55629"><ele>147.33333333333334</ele><time>2026-05-01T08:00:36.207Z</time></trkpt><trkpt lat="43.59035" lon="11.5563617"><ele>147.66666666666669</ele><time>2026-05-01T08:00:37.208Z</time></trkpt><trkpt lat="43.590405" lon="11.5564467"><ele>148.0</ele><time>2026-05-01T08:00:38.208Z</time></trkpt><trkpt lat="43.5904517" lon="11.55653"><ele>148.4</ele><time>2026-05-01T08:00:39.209Z</time></trkpt><trkpt lat="43.5904917" lon="11.5566083"><ele>148.8</ele><time>2026-05-01T08:00:40.208Z</time></trkpt><trkpt lat="43.5905283" lon="11.5566833"><ele>149.2</ele><time>2026-05-01T08:00:41.207Z</time></trkpt><trkpt lat="43.5905733" lon="11.5567533"><ele>149.6</ele><time>2026-05-01T08:00:42.209Z</time></trkpt><trkpt lat="43.590665" lon="11.5568583"><ele>150.0</ele><time>2026-05-01T08:00:44.208Z</time></trkpt><trkpt lat="43.59079" lon="11.556925"><ele>150.0</ele><time>2026-05-01T08:00:46.207Z</time></trkpt><trkpt lat="43.590865" lon="11.55695"><ele>150.0</ele><time>2026-05-01T08:00:47.21Z</time></trkpt><trkpt lat="43.590945" lon="11.5569733"><ele>150.0</ele><time>2026-05-01T08:00:48.207Z</time></trkpt><trkpt lat="43.591025" lon="11.5569933"><ele>150.0</ele><time>2026-05-01T08:00:49.207Z</time></trkpt><trkpt lat="43.5911033" lon="11.5570133"><ele>150.0</ele><time>2026-05-01T08:00:50.209Z</time></trkpt><trkpt lat="43.59118" lon="11.5570367"><ele>150.0</ele><time>2026-05-01T08:00:51.207Z</time></trkpt><trkpt lat="43.591255" lon="11.557055"><ele>149.83333333333334</ele><time>2026-05-01T08:00:52.208Z</time></trkpt><trkpt lat="43.591325" lon="11.5570933"><ele>149.66666666666666</ele><time>2026-05-01T08:00:53.207Z</time></trkpt><trkpt lat="43.5913917" lon="11.5571467"><ele>149.5</ele><time>2026-05-01T08:00:54.207Z</time></trkpt><trkpt lat="43.591445" lon="11.5572083"><ele>149.33333333333331</ele><time>2026-05-01T08:00:55.207Z</time></trkpt><trkpt lat="43.5915083" lon="11.55728"><ele>149.16666666666666</ele><time>2026-05-01T08:00:56.207Z</time></trkpt><trkpt lat="43.5915667" lon="11.5573533"><ele>149.0</ele><time>2026-05-01T08:00:57.207Z</time></trkpt><trkpt lat="43.5916217" lon="11.557425"><ele>149.0</ele><time>2026-05-01T08:00:58.208Z</time></trkpt><trkpt lat="43.591675" lon="11.5574983"><ele>149.0</ele><time>2026-05-01T08:00:59.207Z</time></trkpt><trkpt lat="43.5917217" lon="11.5575717"><ele>149.0</ele><time>2026-05-01T08:01:00.207Z</time></trkpt><trkpt lat="43.5917867" lon="11.5576517"><ele>149.0</ele><time>2026-05-01T08:01:01.207Z</time></trkpt><trkpt lat="43.59183" lon="11.5577233"><ele>149.0</ele><time>2026-05-01T08:01:02.207Z</time></trkpt><trkpt lat="43.5918767" lon="11.5577983"><ele>149.0</ele><time>2026-05-01T08:01:03.208Z</time></trkpt><trkpt lat="43.5919217" lon="11.5578733"><ele>149.0</ele><time>2026-05-01T08:01:04.207Z</time></trkpt><trkpt lat="43.5919633" lon="11.5579433"><ele>149.33333333333331</ele><time>2026-05-01T08:01:05.209Z</time></trkpt><trkpt lat="43.5920017" lon="11.5580133"><ele>149.66666666666666</ele><time>2026-05-01T08:01:06.206Z</time></trkpt><trkpt lat="43.5920883" lon="11.5581567"><ele>150.0</ele><time>2026-05-01T08:01:08.207Z</time></trkpt><trkpt lat="43.5921383" lon="11.558235"><ele>150.33333333333334</ele><time>2026-05-01T08:01:09.206Z</time></trkpt><trkpt lat="43.5921883" lon="11.558305"><ele>150.66666666666669</ele><time>2026-05-01T08:01:10.207Z</time></trkpt><trkpt lat="43.5922417" lon="11.5583733"><ele>151.0</ele><time>2026-05-01T08:01:11.207Z</time></trkpt><trkpt lat="43.5923033" lon="11.5584333"><ele>151.2857142857143</ele><time>2026-05-01T08:01:12.207Z</time></trkpt><trkpt lat="43.592365" lon="11.5584833"><ele>151.57142857142858</ele><time>2026-05-01T08:01:13.208Z</time></trkpt><trkpt lat="43.59243" lon="11.5585317"><ele>151.85714285714286</ele><time>2026-05-01T08:01:14.206Z</time></trkpt><trkpt lat="43.5924933" lon="11.5585717"><ele>152.14285714285717</ele><time>2026-05-01T08:01:15.207Z</time></trkpt><trkpt lat="43.59256" lon="11.5586017"><ele>152.42857142857144</ele><time>2026-05-01T08:01:16.207Z</time></trkpt><trkpt lat="43.5926267" lon="11.558625"><ele>152.71428571428572</ele><time>2026-05-01T08:01:17.207Z</time></trkpt><trkpt lat="43.5927" lon="11.5586367"><ele>153.0</ele><time>2026-05-01T08:01:18.207Z</time></trkpt><trkpt lat="43.5927767" lon="11.5586433"><ele>153.28571428571428</ele><time>2026-05-01T08:01:19.207Z</time></trkpt><trkpt lat="43.59285" lon="11.5586467"><ele>153.57142857142858</ele><time>2026-05-01T08:01:20.208Z</time></trkpt><trkpt lat="43.592925" lon="11.558655"><ele>153.85714285714286</ele><time>2026-05-01T08:01:21.207Z</time></trkpt><trkpt lat="43.5929967" lon="11.55866"><ele>154.14285714285714</ele><time>2026-05-01T08:01:22.208Z</time></trkpt><trkpt lat="43.5930683" lon="11.5586633"><ele>154.42857142857142</ele><time>2026-05-01T08:01:23.208Z</time></trkpt><trkpt lat="43.59314" lon="11.558665"><ele>154.71428571428572</ele><time>2026-05-01T08:01:24.207Z</time></trkpt><trkpt lat="43.593215" lon="11.5586667"><ele>155.0</ele><time>2026-05-01T08:01:25.208Z</time></trkpt><trkpt lat="43.593285" lon="11.558665"><ele>155.0</ele><time>2026-05-01T08:01:26.207Z</time></trkpt><trkpt lat="43.5933583" lon="11.5586617"><ele>155.0</ele><time>2026-05-01T08:01:27.208Z</time></trkpt><trkpt lat="43.593435" lon="11.55866"><ele>155.0</ele><time>2026-05-01T08:01:28.207Z</time></trkpt><trkpt lat="43.5935067" lon="11.55865"><ele>155.0</ele><time>2026-05-01T08:01:29.207Z</time></trkpt><trkpt lat="43.5935733" lon="11.558635"><ele>155.0</ele><time>2026-05-01T08:01:30.208Z</time></trkpt><trkpt lat="43.5936417" lon="11.5586217"><ele>155.0</ele><time>2026-05-01T08:01:31.21Z</time></trkpt><trkpt lat="43.5937117" lon="11.5586067"><ele>155.0</ele><time>2026-05-01T08:01:32.208Z</time></trkpt><trkpt lat="43.5937833" lon="11.55859"><ele>155.0</ele><time>2026-05-01T08:01:33.208Z</time></trkpt><trkpt lat="43.5938533" lon="11.55858"><ele>155.0</ele><time>2026-05-01T08:01:34.207Z</time></trkpt><trkpt lat="43.5939217" lon="11.55857"><ele>155.0</ele><time>2026-05-01T08:01:35.21Z</time></trkpt><trkpt lat="43.593985" lon="11.5585533"><ele>155.0</ele><time>2026-05-01T08:01:36.208Z</time></trkpt><trkpt lat="43.5940467" lon="11.558535"><ele>155.0</ele><time>2026-05-01T08:01:37.207Z</time></trkpt><trkpt lat="43.5941667" lon="11.5584967"><ele>155.0</ele><time>2026-05-01T08:01:39.208Z</time></trkpt><trkpt lat="43.59423" lon="11.5584767"><ele>155.0</ele><time>2026-05-01T08:01:40.207Z</time></trkpt><trkpt lat="43.5943467" lon="11.5584283"><ele>155.0</ele><time>2026-05-01T08:01:42.207Z</time></trkpt><trkpt lat="43.5944083" lon="11.5584033"><ele>155.0</ele><time>2026-05-01T08:01:43.206Z</time></trkpt><trkpt lat="43.5945283" lon="11.558355"><ele>155.0</ele><time>2026-05-01T08:01:45.208Z</time></trkpt><trkpt lat="43.5946483" lon="11.55831"><ele>155.0</ele><time>2026-05-01T08:01:47.207Z</time></trkpt><trkpt lat="43.594765" lon="11.5582667"><ele>154.66666666666666</ele><time>2026-05-01T08:01:49.208Z</time></trkpt><trkpt lat="43.594825" lon="11.5582383"><ele>154.33333333333331</ele><time>2026-05-01T08:01:50.21Z</time></trkpt><trkpt lat="43.5948867" lon="11.5582133"><ele>154.0</ele><time>2026-05-01T08:01:51.209Z</time></trkpt><trkpt lat="43.5949483" lon="11.5581833"><ele>153.66666666666666</ele><time>2026-05-01T08:01:52.207Z</time></trkpt><trkpt lat="43.5950083" lon="11.558155"><ele>153.33333333333334</ele><time>2026-05-01T08:01:53.207Z</time></trkpt><trkpt lat="43.595125" lon="11.5581067"><ele>153.0</ele><time>2026-05-01T08:01:55.209Z</time></trkpt><trkpt lat="43.5952483" lon="11.5580817"><ele>153.0</ele><time>2026-05-01T08:01:57.208Z</time></trkpt><trkpt lat="43.5953117" lon="11.5580783"><ele>153.0</ele><time>2026-05-01T08:01:58.206Z</time></trkpt><trkpt lat="43.5953767" lon="11.5580767"><ele>153.0</ele><time>2026-05-01T08:01:59.207Z</time></trkpt><trkpt lat="43.5955017" lon="11.5580783"><ele>153.0</ele><time>2026-05-01T08:02:01.207Z</time></trkpt><trkpt lat="43.5955683" lon="11.5580767"><ele>153.0</ele><time>2026-05-01T08:02:02.209Z</time></trkpt><trkpt lat="43.5956367" lon="11.5580717"><ele>153.0</ele><time>2026-05-01T08:02:03.207Z</time></trkpt><trkpt lat="43.5957083" lon="11.55807"><ele>153.33333333333334</ele><time>2026-05-01T08:02:04.207Z</time></trkpt><trkpt lat="43.5957833" lon="11.5580717"><ele>153.66666666666666</ele><time>2026-05-01T08:02:05.207Z</time></trkpt><trkpt lat="43.5958567" lon="11.55807"><ele>154.0</ele><time>2026-05-01T08:02:06.207Z</time></trkpt><trkpt lat="43.5959317" lon="11.5580733"><ele>154.33333333333331</ele><time>2026-05-01T08:02:07.208Z</time></trkpt><trkpt lat="43.5960083" lon="11.5580733"><ele>154.66666666666666</ele><time>2026-05-01T08:02:08.207Z</time></trkpt><trkpt lat="43.5960883" lon="11.5580733"><ele>155.0</ele><time>2026-05-01T08:02:09.207Z</time></trkpt><trkpt lat="43.5961683" lon="11.558075"><ele>155.5</ele><time>2026-05-01T08:02:10.207Z</time></trkpt><trkpt lat="43.596245" lon="11.55808"><ele>156.0</ele><time>2026-05-01T08:02:11.207Z</time></trkpt><trkpt lat="43.5963133" lon="11.5580867"><ele>156.5</ele><time>2026-05-01T08:02:12.208Z</time></trkpt><trkpt lat="43.596385" lon="11.558095"><ele>157.0</ele><time>2026-05-01T08:02:13.208Z</time></trkpt><trkpt lat="43.5964617" lon="11.55811"><ele>157.5</ele><time>2026-05-01T08:02:14.208Z</time></trkpt><trkpt lat="43.5965383" lon="11.55813"><ele>158.0</ele><time>2026-05-01T08:02:15.207Z</time></trkpt><trkpt lat="43.596615" lon="11.55815"><ele>158.0</ele><time>2026-05-01T08:02:16.207Z</time></trkpt><trkpt lat="43.5966867" lon="11.5581667"><ele>158.0</ele><time>2026-05-01T08:02:17.209Z</time></trkpt><trkpt lat="43.59676" lon="11.55819"><ele>158.0</ele><time>2026-05-01T08:02:18.207Z</time></trkpt><trkpt lat="43.5968333" lon="11.5582133"><ele>158.0</ele><time>2026-05-01T08:02:19.208Z</time></trkpt><trkpt lat="43.5969017" lon="11.5582333"><ele>158.0</ele><time>2026-05-01T08:02:20.207Z</time></trkpt><trkpt lat="43.5969733" lon="11.55825"><ele>158.0</ele><time>2026-05-01T08:02:21.208Z</time></trkpt><trkpt lat="43.5971" lon="11.558285"><ele>158.5</ele><time>2026-05-01T08:02:23.208Z</time></trkpt><trkpt lat="43.597165" lon="11.5583033"><ele>159.0</ele><time>2026-05-01T08:02:24.21Z</time></trkpt><trkpt lat="43.5972283" lon="11.55832"><ele>159.5</ele><time>2026-05-01T08:02:25.208Z</time></trkpt><trkpt lat="43.59735" lon="11.558355"><ele>160.0</ele><time>2026-05-01T08:02:27.208Z</time></trkpt><trkpt lat="43.597475" lon="11.5583883"><ele>160.5</ele><time>2026-05-01T08:02:29.207Z</time></trkpt><trkpt lat="43.5975367" lon="11.5584067"><ele>161.0</ele><time>2026-05-01T08:02:30.209Z</time></trkpt><trkpt lat="43.5976017" lon="11.55842"><ele>161.0</ele><time>2026-05-01T08:02:31.208Z</time></trkpt><trkpt lat="43.5976667" lon="11.5584317"><ele>161.0</ele><time>2026-05-01T08:02:32.207Z</time></trkpt><trkpt lat="43.5977367" lon="11.5584433"><ele>161.0</ele><time>2026-05-01T08:02:33.207Z</time></trkpt><trkpt lat="43.5978017" lon="11.5584517"><ele>161.0</ele><time>2026-05-01T08:02:34.208Z</time></trkpt><trkpt lat="43.597865" lon="11.558455"><ele>161.0</ele><time>2026-05-01T08:02:35.209Z</time></trkpt><trkpt lat="43.5979333" lon="11.5584633"><ele>161.0</ele><time>2026-05-01T08:02:36.207Z</time></trkpt><trkpt lat="43.5980467" lon="11.5584883"><ele>161.0</ele><time>2026-05-01T08:02:38.207Z</time></trkpt><trkpt lat="43.5981083" lon="11.5585083"><ele>161.14285714285714</ele><time>2026-05-01T08:02:39.208Z</time></trkpt><trkpt lat="43.5981817" lon="11.5585333"><ele>161.28571428571428</ele><time>2026-05-01T08:02:40.209Z</time></trkpt><trkpt lat="43.5982533" lon="11.55856"><ele>161.42857142857144</ele><time>2026-05-01T08:02:41.208Z</time></trkpt><trkpt lat="43.5983217" lon="11.558585"><ele>161.57142857142856</ele><time>2026-05-01T08:02:42.208Z</time></trkpt><trkpt lat="43.5983883" lon="11.5586117"><ele>161.71428571428572</ele><time>2026-05-01T08:02:43.207Z</time></trkpt><trkpt lat="43.5984533" lon="11.5586383"><ele>161.85714285714286</ele><time>2026-05-01T08:02:44.209Z</time></trkpt><trkpt lat="43.5985133" lon="11.558665"><ele>162.0</ele><time>2026-05-01T08:02:45.207Z</time></trkpt><trkpt lat="43.59863" lon="11.5587317"><ele>158.0</ele><time>2026-05-01T08:02:47.207Z</time></trkpt><trkpt lat="43.5966867" lon="11.5581667"><ele>158.0</ele><time>2026-05-01T08:02:17.209Z</time></trkpt><trkpt lat="43.59676" lon="11.55819"><ele>158.0</ele><time>2026-05-01T08:02:18.207Z</time></trkpt><trkpt lat="43.5968333" lon="11.5582133"><ele>158.0</ele><time>2026-05-01T08:02:19.208Z</time></trkpt><trkpt lat="43.5969017" lon="11.5582333"><ele>158.0</ele><time>2026-05-01T08:02:20.207Z</time></trkpt><trkpt lat="43.5969733" lon="11.55825"><ele>158.0</ele><time>2026-05-01T08:02:21.208Z</time></trkpt><trkpt lat="43.5971" lon="11.558285"><ele>158.0</ele><time>2026-05-01T08:02:23.208Z</time></trkpt><trkpt lat="43.597165" lon="11.5583033"><ele>158.5</ele><time>2026-05-01T08:02:24.21Z</time></trkpt><trkpt lat="43.5972283" lon="11.55832"><ele>159.0</ele><time>2026-05-01T08:02:25.208Z</time></trkpt><trkpt lat="43.59735" lon="11.558355"><ele>159.5</ele><time>2026-05-01T08:02:27.208Z</time></trkpt><trkpt lat="43.597475" lon="11.5583883"><ele>160.0</ele><time>2026-05-01T08:02:29.207Z</time></trkpt><trkpt lat="43.5975367" lon="11.5584067"><ele>160.5</ele><time>2026-05-01T08:02:30.209Z</time></trkpt><trkpt lat="43.5976017" lon="11.55842"><ele>161.0</ele><time>2026-05-01T08:02:31.208Z</time></trkpt><trkpt lat="43.5976667" lon="11.5584317"><ele>161.0</ele><time>2026-05-01T08:02:32.207Z</time></trkpt><trkpt lat="43.5977367" lon="11.5584433"><ele>161.0</ele><time>2026-05-01T08:02:33.207Z</time></trkpt><trkpt lat="43.5978017" lon="11.5584517"><ele>161.0</ele><time>2026-05-01T08:02:34.208Z</time></trkpt><trkpt lat="43.597865" lon="11.558455"><ele>161.0</ele><time>2026-05-01T08:02:35.209Z</time></trkpt><trkpt lat="43.5979333" lon="11.5584633"><ele>161.0</ele><time>2026-05-01T08:02:36.207Z</time></trkpt><trkpt lat="43.5980467" lon="11.5584883"><ele>161.0</ele><time>2026-05-01T08:02:38.207Z</time></trkpt><trkpt lat="43.5981083" lon="11.5585083"><ele>161.0</ele><time>2026-05-01T08:02:39.208Z</time></trkpt><trkpt lat="43.5981817" lon="11.5585333"><ele>161.16666666666666</ele><time>2026-05-01T08:02:40.209Z</time></trkpt><trkpt lat="43.5982533" lon="11.55856"><ele>161.33333333333331</ele><time>2026-05-01T08:02:41.208Z</time></trkpt><trkpt lat="43.5983217" lon="11.558585"><ele>161.5</ele><time>2026-05-01T08:02:42.208Z</time></trkpt><trkpt lat="43.5983883" lon="11.5586117"><ele>161.66666666666666</ele><time>2026-05-01T08:02:43.207Z</time></trkpt><trkpt lat="43.5984533" lon="11.5586383"><ele>161.83333333333334</ele><time>2026-05-01T08:02:44.209Z</time></trkpt><trkpt lat="43.5985133" lon="11.558665"><ele>162.0</ele><time>2026-05-01T08:02:45.207Z</time></trkpt><trkpt lat="43.59863" lon="11.5587317"><ele>162.0</ele><time>2026-05-01T08:02:47.207Z</time></trkpt><trkpt lat="43.5986883" lon="11.5587683"><ele>162.0</ele><time>2026-05-01T08:02:48.207Z</time></trkpt><trkpt lat="43.598755" lon="11.5588117"><ele>162.0</ele><time>2026-05-01T08:02:49.207Z</time></trkpt><trkpt lat="43.598815" lon="11.5588533"><ele>162.0</ele><time>2026-05-01T08:02:50.206Z</time></trkpt><trkpt lat="43.5988767" lon="11.558895"><ele>162.0</ele><time>2026-05-01T08:02:51.207Z</time></trkpt><trkpt lat="43.598935" lon="11.55893"><ele>162.0</ele><time>2026-05-01T08:02:52.208Z</time></trkpt><trkpt lat="43.5989933" lon="11.5589683"><ele>162.0</ele><time>2026-05-01T08:02:53.207Z</time></trkpt><trkpt lat="43.5991067" lon="11.55904"><ele>162.0</ele><time>2026-05-01T08:02:55.206Z</time></trkpt><trkpt lat="43.5992283" lon="11.5591117"><ele>162.0</ele><time>2026-05-01T08:02:57.207Z</time></trkpt><trkpt lat="43.59929" lon="11.5591467"><ele>162.0</ele><time>2026-05-01T08:02:58.207Z</time></trkpt><trkpt lat="43.599355" lon="11.5591817"><ele>162.0</ele><time>2026-05-01T08:02:59.207Z</time></trkpt><trkpt lat="43.5994167" lon="11.5592183"><ele>162.0</ele><time>2026-05-01T08:03:00.207Z</time></trkpt><trkpt lat="43.59948" lon="11.5592583"><ele>162.0</ele><time>2026-05-01T08:03:01.208Z</time></trkpt><trkpt lat="43.59954" lon="11.5592983"><ele>162.33333333333334</ele><time>2026-05-01T08:03:02.208Z</time></trkpt><trkpt lat="43.5995967" lon="11.55934"><ele>162.66666666666666</ele><time>2026-05-01T08:03:03.207Z</time></trkpt><trkpt lat="43.599655" lon="11.55938"><ele>163.0</ele><time>2026-05-01T08:03:04.206Z</time></trkpt><trkpt lat="43.59976" lon="11.5594583"><ele>163.33333333333331</ele><time>2026-05-01T08:03:06.21Z</time></trkpt><trkpt lat="43.5998183" lon="11.5595067"><ele>163.66666666666666</ele><time>2026-05-01T08:03:07.209Z</time></trkpt><trkpt lat="43.5998767" lon="11.5595583"><ele>164.0</ele><time>2026-05-01T08:03:08.209Z</time></trkpt><trkpt lat="43.59993" lon="11.55961"><ele>164.0</ele><time>2026-05-01T08:03:09.209Z</time></trkpt><trkpt lat="43.60003" lon="11.559705"><ele>164.0</ele><time>2026-05-01T08:03:11.207Z</time></trkpt><trkpt lat="43.60013" lon="11.5598017"><ele>164.0</ele><time>2026-05-01T08:03:13.208Z</time></trkpt><trkpt lat="43.60022" lon="11.559905"><ele>164.0</ele><time>2026-05-01T08:03:15.207Z</time></trkpt><trkpt lat="43.60031" lon="11.5599983"><ele>165.2</ele><time>2026-05-01T08:03:17.207Z</time></trkpt><trkpt lat="43.600395" lon="11.5600883"><ele>166.39999999999998</ele><time>2026-05-01T08:03:19.209Z</time></trkpt><trkpt lat="43.6004667" lon="11.560165"><ele>167.6</ele><time>2026-05-01T08:03:21.208Z</time></trkpt><trkpt lat="43.6005383" lon="11.5602267"><ele>168.8</ele><time>2026-05-01T08:03:23.207Z</time></trkpt><trkpt lat="43.6006133" lon="11.5602883"><ele>170.0</ele><time>2026-05-01T08:03:25.206Z</time></trkpt><trkpt lat="43.6006833" lon="11.5603533"><ele>170.0</ele><time>2026-05-01T08:03:27.206Z</time></trkpt><trkpt lat="43.600755" lon="11.5603883"><ele>170.0</ele><time>2026-05-01T08:03:29.207Z</time></trkpt><trkpt lat="43.6008317" lon="11.5604083"><ele>170.0</ele><time>2026-05-01T08:03:31.207Z</time></trkpt><trkpt lat="43.6009033" lon="11.5604117"><ele>170.0</ele><time>2026-05-01T08:03:33.206Z</time></trkpt><trkpt lat="43.6009917" lon="11.5604017"><ele>170.0</ele><time>2026-05-01T08:03:36.206Z</time></trkpt><trkpt lat="43.6010517" lon="11.560365"><ele>170.0</ele><time>2026-05-01T08:03:39.207Z</time></trkpt><trkpt lat="43.6011383" lon="11.5603417"><ele>171.83333333333331</ele><time>2026-05-01T08:03:42.207Z</time></trkpt><trkpt lat="43.601215" lon="11.5603367"><ele>173.66666666666666</ele><time>2026-05-01T08:03:45.207Z</time></trkpt><trkpt lat="43.6013133" lon="11.5603483"><ele>175.5</ele><time>2026-05-01T08:03:48.207Z</time></trkpt><trkpt lat="43.6014133" lon="11.560335"><ele>177.33333333333334</ele><time>2026-05-01T08:03:51.208Z</time></trkpt><trkpt lat="43.6014967" lon="11.56034"><ele>179.16666666666669</ele><time>2026-05-01T08:03:53.207Z</time></trkpt><trkpt lat="43.601575" lon="11.5603267"><ele>181.0</ele><time>2026-05-01T08:03:56.208Z</time></trkpt><trkpt lat="43.6016433" lon="11.5602967"><ele>181.0</ele><time>2026-05-01T08:04:00.208Z</time></trkpt><trkpt lat="43.6017133" lon="11.5602517"><ele>181.0</ele><time>2026-05-01T08:04:03.209Z</time></trkpt><trkpt lat="43.6017867" lon="11.560225"><ele>181.0</ele><time>2026-05-01T08:04:06.207Z</time></trkpt><trkpt lat="43.601865" lon="11.560185"><ele>181.0</ele><time>2026-05-01T08:04:10.207Z</time></trkpt><trkpt lat="43.6019233" lon="11.5601517"><ele>181.0</ele><time>2026-05-01T08:04:13.208Z</time></trkpt><trkpt lat="43.6020017" lon="11.56012"><ele>181.0</ele><time>2026-05-01T08:04:17.206Z</time></trkpt><trkpt lat="43.6020733" lon="11.56009"><ele>182.5</ele><time>2026-05-01T08:04:20.207Z</time></trkpt><trkpt lat="43.6021533" lon="11.5600667"><ele>184.0</ele><time>2026-05-01T08:04:23.207Z</time></trkpt><trkpt lat="43.6022283" lon="11.5600433"><ele>185.5</ele><time>2026-05-01T08:04:26.209Z</time></trkpt><trkpt lat="43.6023033" lon="11.56001"><ele>187.0</ele><time>2026-05-01T08:04:29.207Z</time></trkpt><trkpt lat="43.60237" lon="11.55998"><ele>188.5</ele><time>2026-05-01T08:04:32.206Z</time></trkpt><trkpt lat="43.6024367" lon="11.5599483"><ele>190.0</ele><time>2026-05-01T08:04:35.208Z</time></trkpt><trkpt lat="43.6025067" lon="11.5598917"><ele>190.0</ele><time>2026-05-01T08:04:38.206Z</time></trkpt><trkpt lat="43.6025733" lon="11.5598617"><ele>190.0</ele><time>2026-05-01T08:04:41.208Z</time></trkpt><trkpt lat="43.6026417" lon="11.5598083"><ele>190.0</ele><time>2026-05-01T08:04:45.207Z</time></trkpt><trkpt lat="43.6027017" lon="11.55976"><ele>190.0</ele><time>2026-05-01T08:04:48.207Z</time></trkpt><trkpt lat="43.6027617" lon="11.559715"><ele>190.0</ele><time>2026-05-01T08:04:51.207Z</time></trkpt><trkpt lat="43.602825" lon="11.55968"><ele>190.0</ele><time>2026-05-01T08:04:54.204Z</time></trkpt><trkpt lat="43.6028917" lon="11.5596467"><ele>190.0</ele><time>2026-05-01T08:04:57.207Z</time></trkpt><trkpt lat="43.6029683" lon="11.5596067"><ele>190.57142857142858</ele><time>2026-05-01T08:05:00.207Z</time></trkpt><trkpt lat="43.603035" lon="11.559565"><ele>191.14285714285717</ele><time>2026-05-01T08:05:03.205Z</time></trkpt><trkpt lat="43.6031017" lon="11.559535"><ele>191.71428571428572</ele><time>2026-05-01T08:05:06.207Z</time></trkpt><trkpt lat="43.6031767" lon="11.5594833"><ele>192.28571428571428</ele><time>2026-05-01T08:05:09.207Z</time></trkpt><trkpt lat="43.6032417" lon="11.55945"><ele>192.85714285714286</ele><time>2026-05-01T08:05:12.207Z</time></trkpt><trkpt lat="43.603305" lon="11.5594117"><ele>193.42857142857142</ele><time>2026-05-01T08:05:15.206Z</time></trkpt><trkpt lat="43.6033783" lon="11.5593683"><ele>194.0</ele><time>2026-05-01T08:05:19.207Z</time></trkpt><trkpt lat="43.603445" lon="11.5593483"><ele>195.83333333333334</ele><time>2026-05-01T08:05:22.207Z</time></trkpt><trkpt lat="43.6035233" lon="11.5593183"><ele>197.66666666666669</ele><time>2026-05-01T08:05:25.207Z</time></trkpt><trkpt lat="43.6035883" lon="11.5592917"><ele>199.5</ele><time>2026-05-01T08:05:28.207Z</time></trkpt><trkpt lat="43.60366" lon="11.5592767"><ele>201.33333333333331</ele><time>2026-05-01T08:05:31.209Z</time></trkpt><trkpt lat="43.60374" lon="11.5592667"><ele>203.16666666666666</ele><time>2026-05-01T08:05:35.207Z</time></trkpt><trkpt lat="43.60383" lon="11.5592667"><ele>205.0</ele><time>2026-05-01T08:05:40.207Z</time></trkpt><trkpt lat="43.6038983" lon="11.55928"><ele>205.0</ele><time>2026-05-01T08:05:44.205Z</time></trkpt><trkpt lat="43.6039733" lon="11.5593067"><ele>205.0</ele><time>2026-05-01T08:05:48.206Z</time></trkpt><trkpt lat="43.60403" lon="11.55935"><ele>205.0</ele><time>2026-05-01T08:05:51.205Z</time></trkpt><trkpt lat="43.6040817" lon="11.55941"><ele>205.0</ele><time>2026-05-01T08:05:54.206Z</time></trkpt><trkpt lat="43.6041467" lon="11.55948"><ele>205.0</ele><time>2026-05-01T08:05:57.204Z</time></trkpt><trkpt lat="43.6042117" lon="11.559545"><ele>205.0</ele><time>2026-05-01T08:06:01.206Z</time></trkpt><trkpt lat="43.6042667" lon="11.5595933"><ele>205.0</ele><time>2026-05-01T08:06:04.207Z</time></trkpt><trkpt lat="43.6043483" lon="11.5596183"><ele>205.0</ele><time>2026-05-01T08:06:09.207Z</time></trkpt><trkpt lat="43.60442" lon="11.5596383"><ele>205.0</ele><time>2026-05-01T08:06:12.204Z</time></trkpt><trkpt lat="43.6044867" lon="11.5596583"><ele>205.0</ele><time>2026-05-01T08:06:15.206Z</time></trkpt><trkpt lat="43.6045533" lon="11.5596783"><ele>205.0</ele><time>2026-05-01T08:06:18.207Z</time></trkpt><trkpt lat="43.6046167" lon="11.55969"><ele>205.0</ele><time>2026-05-01T08:06:21.205Z</time></trkpt><trkpt lat="43.6046933" lon="11.5597017"><ele>205.0</ele><time>2026-05-01T08:06:24.208Z</time></trkpt><trkpt lat="43.604765" lon="11.559715"><ele>205.0</ele><time>2026-05-01T08:06:28.204Z</time></trkpt><trkpt lat="43.604845" lon="11.5597383"><ele>208.49999999999997</ele><time>2026-05-01T08:06:32.204Z</time></trkpt><trkpt lat="43.6049133" lon="11.55977"><ele>212.0</ele><time>2026-05-01T08:06:35.203Z</time></trkpt><trkpt lat="43.6049867" lon="11.5597883"><ele>215.5</ele><time>2026-05-01T08:06:39.206Z</time></trkpt><trkpt lat="43.6050583" lon="11.55983"><ele>219.0</ele><time>2026-05-01T08:06:43.206Z</time></trkpt><trkpt lat="43.6051417" lon="11.55986"><ele>222.49999999999997</ele><time>2026-05-01T08:06:46.208Z</time></trkpt><trkpt lat="43.60521" lon="11.5598967"><ele>226.0</ele><time>2026-05-01T08:06:49.207Z</time></trkpt><trkpt lat="43.6052683" lon="11.55994"><ele>226.0</ele><time>2026-05-01T08:06:52.207Z</time></trkpt><trkpt lat="43.6053133" lon="11.56002"><ele>226.0</ele><time>2026-05-01T08:06:56.209Z</time></trkpt><trkpt lat="43.6053567" lon="11.56011"><ele>226.0</ele><time>2026-05-01T08:07:00.208Z</time></trkpt><trkpt lat="43.605405" lon="11.56019"><ele>226.0</ele><time>2026-05-01T08:07:04.207Z</time></trkpt><trkpt lat="43.6054567" lon="11.5602617"><ele>226.0</ele><time>2026-05-01T08:07:08.209Z</time></trkpt><trkpt lat="43.6055" lon="11.5603367"><ele>226.0</ele><time>2026-05-01T08:07:11.21Z</time></trkpt><trkpt lat="43.60555" lon="11.560405"><ele>226.0</ele><time>2026-05-01T08:07:14.206Z</time></trkpt><trkpt lat="43.6056017" lon="11.560475"><ele>227.99999999999997</ele><time>2026-05-01T08:07:18.209Z</time></trkpt><trkpt lat="43.6056533" lon="11.5605517"><ele>230.0</ele><time>2026-05-01T08:07:22.207Z</time></trkpt><trkpt lat="43.60572" lon="11.5606083"><ele>232.0</ele><time>2026-05-01T08:07:25.207Z</time></trkpt><trkpt lat="43.6057983" lon="11.5606783"><ele>234.0</ele><time>2026-05-01T08:07:28.205Z</time></trkpt><trkpt lat="43.6058683" lon="11.5607367"><ele>235.99999999999997</ele><time>2026-05-01T08:07:31.207Z</time></trkpt><trkpt lat="43.60595" lon="11.5608067"><ele>238.0</ele><time>2026-05-01T08:07:34.208Z</time></trkpt><trkpt lat="43.6060017" lon="11.5608683"><ele>237.99999999999997</ele><time>2026-05-01T08:07:36.206Z</time></trkpt><trkpt lat="43.6060533" lon="11.56097"><ele>238.0</ele><time>2026-05-01T08:07:39.206Z</time></trkpt><trkpt lat="43.6060983" lon="11.5610717"><ele>238.0</ele><time>2026-05-01T08:07:42.205Z</time></trkpt><trkpt lat="43.606145" lon="11.5611667"><ele>238.0</ele><time>2026-05-01T08:07:45.21Z</time></trkpt><trkpt lat="43.6061817" lon="11.5612533"><ele>237.99999999999997</ele><time>2026-05-01T08:07:48.208Z</time></trkpt><trkpt lat="43.60623" lon="11.5613483"><ele>238.0</ele><time>2026-05-01T08:07:51.206Z</time></trkpt><trkpt lat="43.606275" lon="11.5614433"><ele>239.16666666666666</ele><time>2026-05-01T08:07:54.208Z</time></trkpt><trkpt lat="43.6063167" lon="11.56155"><ele>240.33333333333331</ele><time>2026-05-01T08:07:57.205Z</time></trkpt><trkpt lat="43.6063517" lon="11.5616317"><ele>241.5</ele><time>2026-05-01T08:07:59.206Z</time></trkpt><trkpt lat="43.6063883" lon="11.56172"><ele>242.66666666666669</ele><time>2026-05-01T08:08:01.208Z</time></trkpt><trkpt lat="43.6064333" lon="11.561805"><ele>243.83333333333334</ele><time>2026-05-01T08:08:03.206Z</time></trkpt><trkpt lat="43.60648" lon="11.5618883"><ele>245.0</ele><time>2026-05-01T08:08:05.206Z</time></trkpt><trkpt lat="43.60653" lon="11.561985"><ele>245.33333333333334</ele><time>2026-05-01T08:08:07.206Z</time></trkpt><trkpt lat="43.6065783" lon="11.56209"><ele>245.66666666666669</ele><time>2026-05-01T08:08:09.208Z</time></trkpt><trkpt lat="43.6066333" lon="11.5621983"><ele>246.0</ele><time>2026-05-01T08:08:11.207Z</time></trkpt><trkpt lat="43.6066867" lon="11.5623167"><ele>246.33333333333331</ele><time>2026-05-01T08:08:13.207Z</time></trkpt><trkpt lat="43.6067233" lon="11.562395"><ele>246.66666666666666</ele><time>2026-05-01T08:08:14.207Z</time></trkpt><trkpt lat="43.60677" lon="11.562505"><ele>247.0</ele><time>2026-05-01T08:08:16.208Z</time></trkpt><trkpt lat="43.606805" lon="11.5625933"><ele>247.0</ele><time>2026-05-01T08:08:18.208Z</time></trkpt><trkpt lat="43.6068567" lon="11.562685"><ele>247.0</ele><time>2026-05-01T08:08:20.205Z</time></trkpt><trkpt lat="43.606945" lon="11.5628067"><ele>247.0</ele><time>2026-05-01T08:08:23.209Z</time></trkpt><trkpt lat="43.606995" lon="11.5629217"><ele>247.0</ele><time>2026-05-01T08:08:25.208Z</time></trkpt><trkpt lat="43.607065" lon="11.563045"><ele>247.0</ele><time>2026-05-01T08:08:27.205Z</time></trkpt><trkpt lat="43.60711" lon="11.563185"><ele>247.66666666666666</ele><time>2026-05-01T08:08:29.205Z</time></trkpt><trkpt lat="43.6071233" lon="11.5632717"><ele>248.33333333333331</ele><time>2026-05-01T08:08:30.207Z</time></trkpt><trkpt lat="43.60713" lon="11.5633967"><ele>249.0</ele><time>2026-05-01T08:08:32.209Z</time></trkpt><trkpt lat="43.6071283" lon="11.56352"><ele>249.66666666666669</ele><time>2026-05-01T08:08:34.208Z</time></trkpt><trkpt lat="43.6071283" lon="11.5636517"><ele>250.33333333333334</ele><time>2026-05-01T08:08:36.207Z</time></trkpt><trkpt lat="43.6071567" lon="11.5637917"><ele>251.0</ele><time>2026-05-01T08:08:38.207Z</time></trkpt><trkpt lat="43.6072033" lon="11.563855"><ele>251.8</ele><time>2026-05-01T08:08:39.207Z</time></trkpt><trkpt lat="43.6072633" lon="11.5639333"><ele>252.60000000000002</ele><time>2026-05-01T08:08:40.207Z</time></trkpt><trkpt lat="43.6073183" lon="11.5640233"><ele>253.4</ele><time>2026-05-01T08:08:41.205Z</time></trkpt><trkpt lat="43.6073783" lon="11.5641383"><ele>254.2</ele><time>2026-05-01T08:08:42.207Z</time></trkpt><trkpt lat="43.60744" lon="11.564245"><ele>255.0</ele><time>2026-05-01T08:08:43.208Z</time></trkpt><trkpt lat="43.6075083" lon="11.5643517"><ele>255.0</ele><time>2026-05-01T08:08:44.207Z</time></trkpt><trkpt lat="43.60758" lon="11.5644483"><ele>255.0</ele><time>2026-05-01T08:08:45.208Z</time></trkpt><trkpt lat="43.6076533" lon="11.5645333"><ele>255.0</ele><time>2026-05-01T08:08:46.207Z</time></trkpt><trkpt lat="43.6077217" lon="11.5645967"><ele>255.0</ele><time>2026-05-01T08:08:47.207Z</time></trkpt><trkpt lat="43.6077883" lon="11.5646633"><ele>255.0</ele><time>2026-05-01T08:08:48.208Z</time></trkpt><trkpt lat="43.6078467" lon="11.564725"><ele>255.0</ele><time>2026-05-01T08:08:49.209Z</time></trkpt><trkpt lat="43.60794" lon="11.5648117"><ele>256.0</ele><time>2026-05-01T08:08:51.207Z</time></trkpt><trkpt lat="43.6080117" lon="11.5649"><ele>257.0</ele><time>2026-05-01T08:08:53.207Z</time></trkpt><trkpt lat="43.6080717" lon="11.5649817"><ele>258.0</ele><time>2026-05-01T08:08:55.206Z</time></trkpt><trkpt lat="43.6081133" lon="11.5650633"><ele>259.0</ele><time>2026-05-01T08:08:57.207Z</time></trkpt><trkpt lat="43.608135" lon="11.56518"><ele>260.0</ele><time>2026-05-01T08:09:00.207Z</time></trkpt><trkpt lat="43.6081317" lon="11.5653067"><ele>261.0</ele><time>2026-05-01T08:09:03.207Z</time></trkpt><trkpt lat="43.6081167" lon="11.5654067"><ele>263.2</ele><time>2026-05-01T08:09:06.209Z</time></trkpt><trkpt lat="43.6081267" lon="11.5655183"><ele>265.40000000000003</ele><time>2026-05-01T08:09:09.208Z</time></trkpt><trkpt lat="43.6081617" lon="11.5656567"><ele>267.6</ele><time>2026-05-01T08:09:12.208Z</time></trkpt><trkpt lat="43.6082167" lon="11.5657583"><ele>269.8</ele><time>2026-05-01T08:09:14.209Z</time></trkpt><trkpt lat="43.608275" lon="11.565875"><ele>272.0</ele><time>2026-05-01T08:09:16.206Z</time></trkpt><trkpt lat="43.6083233" lon="11.5659983"><ele>272.0</ele><time>2026-05-01T08:09:18.209Z</time></trkpt><trkpt lat="43.6083817" lon="11.5661167"><ele>272.0</ele><time>2026-05-01T08:09:20.209Z</time></trkpt><trkpt lat="43.6084383" lon="11.5662483"><ele>272.0</ele><time>2026-05-01T08:09:22.207Z</time></trkpt><trkpt lat="43.60848" lon="11.5663717"><ele>272.0</ele><time>2026-05-01T08:09:24.21Z</time></trkpt><trkpt lat="43.608515" lon="11.5665033"><ele>272.0</ele><time>2026-05-01T08:09:26.207Z</time></trkpt><trkpt lat="43.6085417" lon="11.5666383"><ele>271.8</ele><time>2026-05-01T08:09:28.207Z</time></trkpt><trkpt lat="43.6085667" lon="11.5667767"><ele>271.6</ele><time>2026-05-01T08:09:30.207Z</time></trkpt><trkpt lat="43.6086" lon="11.5669167"><ele>271.40000000000003</ele><time>2026-05-01T08:09:32.207Z</time></trkpt><trkpt lat="43.6086383" lon="11.5670567"><ele>271.2</ele><time>2026-05-01T08:09:34.208Z</time></trkpt><trkpt lat="43.6086817" lon="11.5671967"><ele>271.0</ele><time>2026-05-01T08:09:36.207Z</time></trkpt><trkpt lat="43.6087283" lon="11.5673567"><ele>272.8</ele><time>2026-05-01T08:09:38.207Z</time></trkpt><trkpt lat="43.6087883" lon="11.567505"><ele>274.6</ele><time>2026-05-01T08:09:40.208Z</time></trkpt><trkpt lat="43.6088483" lon="11.56765"><ele>276.4</ele><time>2026-05-01T08:09:42.207Z</time></trkpt><trkpt lat="43.60888" lon="11.5677267"><ele>278.2</ele><time>2026-05-01T08:09:43.207Z</time></trkpt><trkpt lat="43.608935" lon="11.56788"><ele>280.0</ele><time>2026-05-01T08:09:45.208Z</time></trkpt><trkpt lat="43.6089883" lon="11.56803"><ele>280.4</ele><time>2026-05-01T08:09:47.208Z</time></trkpt><trkpt lat="43.60903" lon="11.5681817"><ele>280.8</ele><time>2026-05-01T08:09:49.208Z</time></trkpt><trkpt lat="43.6090733" lon="11.5683317"><ele>281.2</ele><time>2026-05-01T08:09:51.209Z</time></trkpt><trkpt lat="43.60911" lon="11.5684733"><ele>281.6</ele><time>2026-05-01T08:09:53.207Z</time></trkpt><trkpt lat="43.609145" lon="11.5685933"><ele>282.0</ele><time>2026-05-01T08:09:55.207Z</time></trkpt><trkpt lat="43.6091833" lon="11.5686983"><ele>282.1666666666667</ele><time>2026-05-01T08:09:57.207Z</time></trkpt><trkpt lat="43.6092183" lon="11.5688033"><ele>282.3333333333333</ele><time>2026-05-01T08:09:59.207Z</time></trkpt><trkpt lat="43.6092617" lon="11.5689167"><ele>282.5</ele><time>2026-05-01T08:10:01.207Z</time></trkpt><trkpt lat="43.6093067" lon="11.5690217"><ele>282.66666666666663</ele><time>2026-05-01T08:10:03.21Z</time></trkpt><trkpt lat="43.6093567" lon="11.5691233"><ele>282.8333333333333</ele><time>2026-05-01T08:10:05.207Z</time></trkpt><trkpt lat="43.60941" lon="11.5692217"><ele>283.0</ele><time>2026-05-01T08:10:07.208Z</time></trkpt><trkpt lat="43.6094683" lon="11.5693167"><ele>283.0</ele><time>2026-05-01T08:10:09.207Z</time></trkpt><trkpt lat="43.6095183" lon="11.5693983"><ele>283.0</ele><time>2026-05-01T08:10:11.209Z</time></trkpt><trkpt lat="43.6095667" lon="11.5694833"><ele>283.0</ele><time>2026-05-01T08:10:13.207Z</time></trkpt><trkpt lat="43.6096267" lon="11.5695833"><ele>283.0</ele><time>2026-05-01T08:10:15.208Z</time></trkpt><trkpt lat="43.6096967" lon="11.5697017"><ele>283.0</ele><time>2026-05-01T08:10:17.209Z</time></trkpt><trkpt lat="43.6097683" lon="11.5698233"><ele>284.0</ele><time>2026-05-01T08:10:19.209Z</time></trkpt><trkpt lat="43.6098367" lon="11.5699567"><ele>285.0</ele><time>2026-05-01T08:10:21.207Z</time></trkpt><trkpt lat="43.6099017" lon="11.5700767"><ele>286.0</ele><time>2026-05-01T08:10:23.209Z</time></trkpt><trkpt lat="43.609965" lon="11.5701967"><ele>287.0</ele><time>2026-05-01T08:10:25.21Z</time></trkpt><trkpt lat="43.6100283" lon="11.57031"><ele>288.0</ele><time>2026-05-01T08:10:27.207Z</time></trkpt><trkpt lat="43.6100917" lon="11.57041"><ele>288.0</ele><time>2026-05-01T08:10:29.209Z</time></trkpt><trkpt lat="43.6101517" lon="11.5705117"><ele>288.0</ele><time>2026-05-01T08:10:31.21Z</time></trkpt><trkpt lat="43.6102117" lon="11.5706083"><ele>288.0</ele><time>2026-05-01T08:10:33.208Z</time></trkpt><trkpt lat="43.6102667" lon="11.5706983"><ele>288.0</ele><time>2026-05-01T08:10:35.207Z</time></trkpt><trkpt lat="43.61032" lon="11.5707867"><ele>288.0</ele><time>2026-05-01T08:10:37.207Z</time></trkpt><trkpt lat="43.6103617" lon="11.5708717"><ele>288.0</ele><time>2026-05-01T08:10:39.209Z</time></trkpt><trkpt lat="43.6103167" lon="11.5709667"><ele>288.8</ele><time>2026-05-01T08:10:44.208Z</time></trkpt><trkpt lat="43.6102317" lon="11.5709783"><ele>289.6</ele><time>2026-05-01T08:10:46.207Z</time></trkpt><trkpt lat="43.610105" lon="11.570975"><ele>290.4</ele><time>2026-05-01T08:10:48.209Z</time></trkpt><trkpt lat="43.6100283" lon="11.5709817"><ele>291.2</ele><time>2026-05-01T08:10:49.209Z</time></trkpt><trkpt lat="43.60995" lon="11.570995"><ele>292.0</ele><time>2026-05-01T08:10:50.209Z</time></trkpt><trkpt lat="43.609865" lon="11.5710117"><ele>292.0</ele><time>2026-05-01T08:10:51.207Z</time></trkpt><trkpt lat="43.60977" lon="11.571035"><ele>292.0</ele><time>2026-05-01T08:10:52.206Z</time></trkpt><trkpt lat="43.6096767" lon="11.5710583"><ele>292.0</ele><time>2026-05-01T08:10:53.209Z</time></trkpt><trkpt lat="43.6095767" lon="11.5710817"><ele>292.0</ele><time>2026-05-01T08:10:54.21Z</time></trkpt><trkpt lat="43.609475" lon="11.5711067"><ele>292.0</ele><time>2026-05-01T08:10:55.207Z</time></trkpt><trkpt lat="43.609365" lon="11.5711317"><ele>292.75</ele><time>2026-05-01T08:10:56.208Z</time></trkpt><trkpt lat="43.60925" lon="11.5711567"><ele>293.5</ele><time>2026-05-01T08:10:57.208Z</time></trkpt><trkpt lat="43.6091367" lon="11.5711783"><ele>294.25</ele><time>2026-05-01T08:10:58.206Z</time></trkpt><trkpt lat="43.6090233" lon="11.571205"><ele>295.0</ele><time>2026-05-01T08:10:59.207Z</time></trkpt><trkpt lat="43.6089017" lon="11.5712367"><ele>295.0</ele><time>2026-05-01T08:11:00.207Z</time></trkpt><trkpt lat="43.6087883" lon="11.5712617"><ele>295.0</ele><time>2026-05-01T08:11:01.207Z</time></trkpt><trkpt lat="43.6086783" lon="11.571285"><ele>295.0</ele><time>2026-05-01T08:11:02.208Z</time></trkpt><trkpt lat="43.6085683" lon="11.57131"><ele>295.0</ele><time>2026-05-01T08:11:03.208Z</time></trkpt><trkpt lat="43.60846" lon="11.57133"><ele>295.0</ele><time>2026-05-01T08:11:04.207Z</time></trkpt><trkpt lat="43.60835" lon="11.5713433"><ele>294.0</ele><time>2026-05-01T08:11:05.209Z</time></trkpt><trkpt lat="43.6082383" lon="11.5713533"><ele>293.0</ele><time>2026-05-01T08:11:06.209Z</time></trkpt><trkpt lat="43.6081317" lon="11.5713633"><ele>292.0</ele><time>2026-05-01T08:11:07.207Z</time></trkpt><trkpt lat="43.608025" lon="11.5713783"><ele>291.0</ele><time>2026-05-01T08:11:08.208Z</time></trkpt><trkpt lat="43.6079183" lon="11.5714067"><ele>290.0</ele><time>2026-05-01T08:11:09.207Z</time></trkpt><trkpt lat="43.6078167" lon="11.57145"><ele>289.0</ele><time>2026-05-01T08:11:10.207Z</time></trkpt><trkpt lat="43.6077183" lon="11.571505"><ele>288.0</ele><time>2026-05-01T08:11:11.206Z</time></trkpt><trkpt lat="43.6076333" lon="11.5715683"><ele>287.0</ele><time>2026-05-01T08:11:12.206Z</time></trkpt><trkpt lat="43.607555" lon="11.5716367"><ele>286.0</ele><time>2026-05-01T08:11:13.207Z</time></trkpt><trkpt lat="43.60748" lon="11.5717133"><ele>285.0</ele><time>2026-05-01T08:11:14.209Z</time></trkpt><trkpt lat="43.6074083" lon="11.5718033"><ele>285.0</ele><time>2026-05-01T08:11:15.207Z</time></trkpt><trkpt lat="43.6073467" lon="11.5719017"><ele>285.0</ele><time>2026-05-01T08:11:16.205Z</time></trkpt><trkpt lat="43.6072917" lon="11.5720133"><ele>285.0</ele><time>2026-05-01T08:11:17.208Z</time></trkpt><trkpt lat="43.607255" lon="11.57213"><ele>285.0</ele><time>2026-05-01T08:11:18.208Z</time></trkpt><trkpt lat="43.6072317" lon="11.5722567"><ele>285.0</ele><time>2026-05-01T08:11:19.207Z</time></trkpt><trkpt lat="43.6072267" lon="11.5723917"><ele>285.0</ele><time>2026-05-01T08:11:20.208Z</time></trkpt><trkpt lat="43.6072383" lon="11.572525"><ele>285.0</ele><time>2026-05-01T08:11:21.207Z</time></trkpt><trkpt lat="43.60726" lon="11.5726567"><ele>285.0</ele><time>2026-05-01T08:11:22.208Z</time></trkpt><trkpt lat="43.6072867" lon="11.5727917"><ele>285.0</ele><time>2026-05-01T08:11:23.207Z</time></trkpt><trkpt lat="43.607315" lon="11.5729283"><ele>285.0</ele><time>2026-05-01T08:11:24.207Z</time></trkpt><trkpt lat="43.6073433" lon="11.5730667"><ele>285.0</ele><time>2026-05-01T08:11:25.208Z</time></trkpt><trkpt lat="43.6073667" lon="11.5732017"><ele>285.0</ele><time>2026-05-01T08:11:26.209Z</time></trkpt><trkpt lat="43.6073767" lon="11.5733217"><ele>285.0</ele><time>2026-05-01T08:11:27.209Z</time></trkpt><trkpt lat="43.6073733" lon="11.5734417"><ele>285.0</ele><time>2026-05-01T08:11:28.208Z</time></trkpt><trkpt lat="43.6073533" lon="11.5735483"><ele>285.0</ele><time>2026-05-01T08:11:29.21Z</time></trkpt><trkpt lat="43.60729" lon="11.5736217"><ele>285.0</ele><time>2026-05-01T08:11:30.207Z</time></trkpt><trkpt lat="43.60722" lon="11.5736583"><ele>285.0</ele><time>2026-05-01T08:11:31.208Z</time></trkpt><trkpt lat="43.6071367" lon="11.5736533"><ele>285.0</ele><time>2026-05-01T08:11:32.207Z</time></trkpt><trkpt lat="43.6070467" lon="11.5736217"><ele>285.0</ele><time>2026-05-01T08:11:33.208Z</time></trkpt><trkpt lat="43.6069633" lon="11.5735983"><ele>285.0</ele><time>2026-05-01T08:11:34.209Z</time></trkpt><trkpt lat="43.6068783" lon="11.57359"><ele>285.0</ele><time>2026-05-01T08:11:35.208Z</time></trkpt><trkpt lat="43.6067933" lon="11.5735983"><ele>285.0</ele><time>2026-05-01T08:11:36.207Z</time></trkpt><trkpt lat="43.6067117" lon="11.57363"><ele>285.5</ele><time>2026-05-01T08:11:37.207Z</time></trkpt><trkpt lat="43.6066333" lon="11.573675"><ele>286.0</ele><time>2026-05-01T08:11:38.207Z</time></trkpt><trkpt lat="43.6065567" lon="11.5737333"><ele>286.5</ele><time>2026-05-01T08:11:39.209Z</time></trkpt><trkpt lat="43.606485" lon="11.5738033"><ele>287.0</ele><time>2026-05-01T08:11:40.206Z</time></trkpt><trkpt lat="43.6064167" lon="11.5738783"><ele>287.5</ele><time>2026-05-01T08:11:41.207Z</time></trkpt><trkpt lat="43.6063483" lon="11.5739567"><ele>288.0</ele><time>2026-05-01T08:11:42.207Z</time></trkpt><trkpt lat="43.60629" lon="11.574035"><ele>288.0</ele><time>2026-05-01T08:11:43.207Z</time></trkpt><trkpt lat="43.606225" lon="11.5741183"><ele>288.0</ele><time>2026-05-01T08:11:44.207Z</time></trkpt><trkpt lat="43.6061583" lon="11.574215"><ele>288.0</ele><time>2026-05-01T08:11:45.208Z</time></trkpt><trkpt lat="43.606095" lon="11.5743183"><ele>288.0</ele><time>2026-05-01T08:11:46.208Z</time></trkpt><trkpt lat="43.60603" lon="11.5744267"><ele>288.0</ele><time>2026-05-01T08:11:47.209Z</time></trkpt><trkpt lat="43.60597" lon="11.5745317"><ele>287.4</ele><time>2026-05-01T08:11:48.209Z</time></trkpt><trkpt lat="43.60591" lon="11.57464"><ele>286.8</ele><time>2026-05-01T08:11:49.207Z</time></trkpt><trkpt lat="43.6058417" lon="11.5747367"><ele>286.2</ele><time>2026-05-01T08:11:50.209Z</time></trkpt><trkpt lat="43.6057667" lon="11.57482"><ele>285.6</ele><time>2026-05-01T08:11:51.207Z</time></trkpt><trkpt lat="43.605685" lon="11.5748917"><ele>285.0</ele><time>2026-05-01T08:11:52.208Z</time></trkpt><trkpt lat="43.6056" lon="11.5749517"><ele>285.0</ele><time>2026-05-01T08:11:53.207Z</time></trkpt><trkpt lat="43.605515" lon="11.5750033"><ele>285.0</ele><time>2026-05-01T08:11:54.209Z</time></trkpt><trkpt lat="43.6054333" lon="11.57505"><ele>285.0</ele><time>2026-05-01T08:11:55.208Z</time></trkpt><trkpt lat="43.60535" lon="11.5750983"><ele>285.0</ele><time>2026-05-01T08:11:56.208Z</time></trkpt><trkpt lat="43.60527" lon="11.5751533"><ele>285.0</ele><time>2026-05-01T08:11:57.208Z</time></trkpt><trkpt lat="43.6051967" lon="11.57522"><ele>285.0</ele><time>2026-05-01T08:11:58.207Z</time></trkpt><trkpt lat="43.6051367" lon="11.5753017"><ele>284.6666666666667</ele><time>2026-05-01T08:11:59.209Z</time></trkpt><trkpt lat="43.6051" lon="11.575405"><ele>284.3333333333333</ele><time>2026-05-01T08:12:00.208Z</time></trkpt><trkpt lat="43.605075" lon="11.5755183"><ele>284.0</ele><time>2026-05-01T08:12:01.207Z</time></trkpt><trkpt lat="43.6050583" lon="11.575635"><ele>283.66666666666663</ele><time>2026-05-01T08:12:02.207Z</time></trkpt><trkpt lat="43.6050483" lon="11.5757517"><ele>283.3333333333333</ele><time>2026-05-01T08:12:03.207Z</time></trkpt><trkpt lat="43.6050417" lon="11.5758617"><ele>283.0</ele><time>2026-05-01T08:12:04.208Z</time></trkpt><trkpt lat="43.605035" lon="11.5759667"><ele>283.0</ele><time>2026-05-01T08:12:05.207Z</time></trkpt><trkpt lat="43.6050333" lon="11.5760583"><ele>283.0</ele><time>2026-05-01T08:12:06.209Z</time></trkpt><trkpt lat="43.6050167" lon="11.5762217"><ele>283.0</ele><time>2026-05-01T08:12:08.208Z</time></trkpt><trkpt lat="43.6049917" lon="11.5763483"><ele>283.0</ele><time>2026-05-01T08:12:10.209Z</time></trkpt><trkpt lat="43.60496" lon="11.5764733"><ele>283.0</ele><time>2026-05-01T08:12:12.208Z</time></trkpt><trkpt lat="43.60491" lon="11.5765783"><ele>284.4</ele><time>2026-05-01T08:12:14.208Z</time></trkpt><trkpt lat="43.6048317" lon="11.5766617"><ele>285.8</ele><time>2026-05-01T08:12:16.206Z</time></trkpt><trkpt lat="43.6047483" lon="11.5767133"><ele>287.2</ele><time>2026-05-01T08:12:18.207Z</time></trkpt><trkpt lat="43.6046467" lon="11.5767367"><ele>288.6</ele><time>2026-05-01T08:12:20.207Z</time></trkpt><trkpt lat="43.60455" lon="11.57673"><ele>290.0</ele><time>2026-05-01T08:12:22.208Z</time></trkpt><trkpt lat="43.60446" lon="11.576715"><ele>290.1666666666667</ele><time>2026-05-01T08:12:24.206Z</time></trkpt><trkpt lat="43.6043717" lon="11.5766933"><ele>290.33333333333337</ele><time>2026-05-01T08:12:26.206Z</time></trkpt><trkpt lat="43.6042917" lon="11.5766667"><ele>290.5</ele><time>2026-05-01T08:12:28.205Z</time></trkpt><trkpt lat="43.6042117" lon="11.576645"><ele>290.6666666666667</ele><time>2026-05-01T08:12:30.206Z</time></trkpt><trkpt lat="43.604135" lon="11.576615"><ele>290.8333333333333</ele><time>2026-05-01T08:12:32.207Z</time></trkpt><trkpt lat="43.6040533" lon="11.57657"><ele>291.0</ele><time>2026-05-01T08:12:34.209Z</time></trkpt><trkpt lat="43.6039733" lon="11.5765367"><ele>291.0</ele><time>2026-05-01T08:12:36.207Z</time></trkpt><trkpt lat="43.6038883" lon="11.5765217"><ele>291.0</ele><time>2026-05-01T08:12:38.207Z</time></trkpt><trkpt lat="43.603805" lon="11.57653"><ele>291.0</ele><time>2026-05-01T08:12:40.205Z</time></trkpt><trkpt lat="43.6037267" lon="11.57656"><ele>291.0</ele><time>2026-05-01T08:12:42.206Z</time></trkpt><trkpt lat="43.6036417" lon="11.576615"><ele>291.0</ele><time>2026-05-01T08:12:44.208Z</time></trkpt><trkpt lat="43.603565" lon="11.5766767"><ele>291.0</ele><time>2026-05-01T08:12:46.207Z</time></trkpt><trkpt lat="43.603485" lon="11.5767567"><ele>290.5</ele><time>2026-05-01T08:12:48.206Z</time></trkpt><trkpt lat="43.6034167" lon="11.5768333"><ele>290.0</ele><time>2026-05-01T08:12:50.208Z</time></trkpt><trkpt lat="43.60336" lon="11.5769167"><ele>289.5</ele><time>2026-05-01T08:12:52.207Z</time></trkpt><trkpt lat="43.6033017" lon="11.5770067"><ele>289.0</ele><time>2026-05-01T08:12:54.208Z</time></trkpt><trkpt lat="43.603245" lon="11.5770983"><ele>288.5</ele><time>2026-05-01T08:12:56.208Z</time></trkpt><trkpt lat="43.6032033" lon="11.5771867"><ele>288.0</ele><time>2026-05-01T08:12:58.206Z</time></trkpt><trkpt lat="43.6031667" lon="11.5772933"><ele>289.5</ele><time>2026-05-01T08:13:00.207Z</time></trkpt><trkpt lat="43.60315" lon="11.577415"><ele>291.0</ele><time>2026-05-01T08:13:02.207Z</time></trkpt><trkpt lat="43.6031433" lon="11.5775333"><ele>292.5</ele><time>2026-05-01T08:13:04.207Z</time></trkpt><trkpt lat="43.603145" lon="11.577655"><ele>294.0</ele><time>2026-05-01T08:13:06.208Z</time></trkpt><trkpt lat="43.60315" lon="11.57778"><ele>295.5</ele><time>2026-05-01T08:13:08.207Z</time></trkpt><trkpt lat="43.6031517" lon="11.57791"><ele>297.0</ele><time>2026-05-01T08:13:10.208Z</time></trkpt><trkpt lat="43.6031483" lon="11.5780367"><ele>296.4</ele><time>2026-05-01T08:13:12.21Z</time></trkpt><trkpt lat="43.6031217" lon="11.5781533"><ele>295.79999999999995</ele><time>2026-05-01T08:13:14.209Z</time></trkpt><trkpt lat="43.60306" lon="11.5782583"><ele>295.2</ele><time>2026-05-01T08:13:16.208Z</time></trkpt><trkpt lat="43.6029783" lon="11.57833"><ele>294.59999999999997</ele><time>2026-05-01T08:13:18.208Z</time></trkpt><trkpt lat="43.60289" lon="11.57838"><ele>294.0</ele><time>2026-05-01T08:13:20.211Z</time></trkpt><trkpt lat="43.602795" lon="11.5784417"><ele>294.0</ele><time>2026-05-01T08:13:22.209Z</time></trkpt><trkpt lat="43.602715" lon="11.57851"><ele>294.0</ele><time>2026-05-01T08:13:24.208Z</time></trkpt><trkpt lat="43.60266" lon="11.5786133"><ele>294.0</ele><time>2026-05-01T08:13:26.208Z</time></trkpt><trkpt lat="43.6026117" lon="11.5787283"><ele>294.0</ele><time>2026-05-01T08:13:28.206Z</time></trkpt><trkpt lat="43.6025483" lon="11.578855"><ele>294.0</ele><time>2026-05-01T08:13:30.206Z</time></trkpt><trkpt lat="43.602465" lon="11.578965"><ele>296.25</ele><time>2026-05-01T08:13:32.208Z</time></trkpt><trkpt lat="43.6023617" lon="11.5790367"><ele>298.5</ele><time>2026-05-01T08:13:34.206Z</time></trkpt><trkpt lat="43.60224" lon="11.5790683"><ele>300.75</ele><time>2026-05-01T08:13:36.208Z</time></trkpt><trkpt lat="43.6021317" lon="11.5790917"><ele>303.0</ele><time>2026-05-01T08:13:38.207Z</time></trkpt><trkpt lat="43.602025" lon="11.57912"><ele>301.8</ele><time>2026-05-01T08:13:40.207Z</time></trkpt><trkpt lat="43.6019233" lon="11.5791567"><ele>300.6</ele><time>2026-05-01T08:13:42.209Z</time></trkpt><trkpt lat="43.6018217" lon="11.5791967"><ele>299.4</ele><time>2026-05-01T08:13:44.209Z</time></trkpt><trkpt lat="43.6017067" lon="11.579215"><ele>298.2</ele><time>2026-05-01T08:13:46.206Z</time></trkpt><trkpt lat="43.6015917" lon="11.5792083"><ele>297.0</ele><time>2026-05-01T08:13:48.207Z</time></trkpt><trkpt lat="43.6014883" lon="11.5791783"><ele>297.0</ele><time>2026-05-01T08:13:50.208Z</time></trkpt><trkpt lat="43.6013983" lon="11.579145"><ele>297.0</ele><time>2026-05-01T08:13:52.208Z</time></trkpt><trkpt lat="43.6013017" lon="11.579135"><ele>297.0</ele><time>2026-05-01T08:13:54.21Z</time></trkpt><trkpt lat="43.6011783" lon="11.57916"><ele>297.0</ele><time>2026-05-01T08:13:56.207Z</time></trkpt><trkpt lat="43.6011067" lon="11.5791833"><ele>297.0</ele><time>2026-05-01T08:13:57.207Z</time></trkpt><trkpt lat="43.6010383" lon="11.579215"><ele>296.8333333333333</ele><time>2026-05-01T08:13:58.211Z</time></trkpt><trkpt lat="43.6009717" lon="11.579255"><ele>296.6666666666667</ele><time>2026-05-01T08:13:59.207Z</time></trkpt><trkpt lat="43.6009033" lon="11.579305"><ele>296.5</ele><time>2026-05-01T08:14:00.207Z</time></trkpt><trkpt lat="43.6008367" lon="11.579375"><ele>296.33333333333337</ele><time>2026-05-01T08:14:01.21Z</time></trkpt><trkpt lat="43.6007733" lon="11.5794467"><ele>296.1666666666667</ele><time>2026-05-01T08:14:02.207Z</time></trkpt><trkpt lat="43.6007183" lon="11.5795267"><ele>296.0</ele><time>2026-05-01T08:14:03.208Z</time></trkpt><trkpt lat="43.6006683" lon="11.5796117"><ele>296.0</ele><time>2026-05-01T08:14:04.207Z</time></trkpt><trkpt lat="43.6006133" lon="11.5796967"><ele>296.0</ele><time>2026-05-01T08:14:05.209Z</time></trkpt><trkpt lat="43.6005583" lon="11.5797883"><ele>296.0</ele><time>2026-05-01T08:14:06.207Z</time></trkpt><trkpt lat="43.6005083" lon="11.5798833"><ele>296.0</ele><time>2026-05-01T08:14:07.207Z</time></trkpt><trkpt lat="43.6004617" lon="11.5799717"><ele>296.0</ele><time>2026-05-01T08:14:08.207Z</time></trkpt><trkpt lat="43.6004217" lon="11.5800633"><ele>296.0</ele><time>2026-05-01T08:14:09.208Z</time></trkpt><trkpt lat="43.60039" lon="11.580155"><ele>296.0</ele><time>2026-05-01T08:14:10.206Z</time></trkpt><trkpt lat="43.6003683" lon="11.5802517"><ele>296.0</ele><time>2026-05-01T08:14:11.208Z</time></trkpt><trkpt lat="43.600355" lon="11.5803533"><ele>296.0</ele><time>2026-05-01T08:14:12.207Z</time></trkpt><trkpt lat="43.600355" lon="11.5804583"><ele>296.0</ele><time>2026-05-01T08:14:13.207Z</time></trkpt><trkpt lat="43.600365" lon="11.5805667"><ele>296.0</ele><time>2026-05-01T08:14:14.207Z</time></trkpt><trkpt lat="43.600385" lon="11.580685"><ele>296.0</ele><time>2026-05-01T08:14:15.207Z</time></trkpt><trkpt lat="43.6004117" lon="11.580805"><ele>296.1666666666667</ele><time>2026-05-01T08:14:16.205Z</time></trkpt><trkpt lat="43.60044" lon="11.5809217"><ele>296.33333333333337</ele><time>2026-05-01T08:14:17.208Z</time></trkpt><trkpt lat="43.6004667" lon="11.5810367"><ele>296.5</ele><time>2026-05-01T08:14:18.206Z</time></trkpt><trkpt lat="43.6004967" lon="11.5811483"><ele>296.6666666666667</ele><time>2026-05-01T08:14:19.207Z</time></trkpt><trkpt lat="43.6005233" lon="11.58126"><ele>296.8333333333333</ele><time>2026-05-01T08:14:20.209Z</time></trkpt><trkpt lat="43.60055" lon="11.5813733"><ele>297.0</ele><time>2026-05-01T08:14:21.206Z</time></trkpt><trkpt lat="43.6005767" lon="11.58148"><ele>297.0</ele><time>2026-05-01T08:14:22.206Z</time></trkpt><trkpt lat="43.6006067" lon="11.5815883"><ele>297.0</ele><time>2026-05-01T08:14:23.208Z</time></trkpt><trkpt lat="43.6006367" lon="11.5816917"><ele>297.0</ele><time>2026-05-01T08:14:24.207Z</time></trkpt><trkpt lat="43.6006683" lon="11.5817967"><ele>297.0</ele><time>2026-05-01T08:14:25.209Z</time></trkpt><trkpt lat="43.6007017" lon="11.5818967"><ele>297.0</ele><time>2026-05-01T08:14:26.207Z</time></trkpt><trkpt lat="43.60074" lon="11.5819933"><ele>297.0</ele><time>2026-05-01T08:14:27.208Z</time></trkpt><trkpt lat="43.6007817" lon="11.5820917"><ele>296.6666666666667</ele><time>2026-05-01T08:14:28.208Z</time></trkpt><trkpt lat="43.600815" lon="11.5821883"><ele>296.3333333333333</ele><time>2026-05-01T08:14:29.207Z</time></trkpt><trkpt lat="43.6008417" lon="11.582285"><ele>296.0</ele><time>2026-05-01T08:14:30.208Z</time></trkpt><trkpt lat="43.600855" lon="11.5823933"><ele>295.66666666666663</ele><time>2026-05-01T08:14:31.208Z</time></trkpt><trkpt lat="43.60085" lon="11.5825017"><ele>295.3333333333333</ele><time>2026-05-01T08:14:32.21Z</time></trkpt><trkpt lat="43.6008267" lon="11.5826183"><ele>295.0</ele><time>2026-05-01T08:14:33.208Z</time></trkpt><trkpt lat="43.6007717" lon="11.58269"><ele>295.0</ele><time>2026-05-01T08:14:34.206Z</time></trkpt><trkpt lat="43.600715" lon="11.5827383"><ele>295.0</ele><time>2026-05-01T08:14:35.208Z</time></trkpt><trkpt lat="43.600595" lon="11.5827683"><ele>295.0</ele><time>2026-05-01T08:14:37.208Z</time></trkpt><trkpt lat="43.6005533" lon="11.5826883"><ele>295.0</ele><time>2026-05-01T08:14:38.209Z</time></trkpt><trkpt lat="43.6004983" lon="11.5826117"><ele>295.0</ele><time>2026-05-01T08:14:39.206Z</time></trkpt><trkpt lat="43.60044" lon="11.5825383"><ele>295.0</ele><time>2026-05-01T08:14:40.207Z</time></trkpt><trkpt lat="43.60039" lon="11.5824683"><ele>295.0</ele><time>2026-05-01T08:14:41.207Z</time></trkpt><trkpt lat="43.6003367" lon="11.5824"><ele>295.0</ele><time>2026-05-01T08:14:42.209Z</time></trkpt><trkpt lat="43.600285" lon="11.58233"><ele>295.0</ele><time>2026-05-01T08:14:43.208Z</time></trkpt><trkpt lat="43.6002383" lon="11.5822683"><ele>295.0</ele><time>2026-05-01T08:14:44.209Z</time></trkpt><trkpt lat="43.6001433" lon="11.5821517"><ele>295.0</ele><time>2026-05-01T08:14:46.206Z</time></trkpt><trkpt lat="43.6000483" lon="11.58205"><ele>293.6</ele><time>2026-05-01T08:14:48.209Z</time></trkpt><trkpt lat="43.5999633" lon="11.5819483"><ele>292.2</ele><time>2026-05-01T08:14:50.207Z</time></trkpt><trkpt lat="43.5998767" lon="11.581835"><ele>290.8</ele><time>2026-05-01T08:14:52.207Z</time></trkpt><trkpt lat="43.599805" lon="11.581735"><ele>289.4</ele><time>2026-05-01T08:14:54.208Z</time></trkpt><trkpt lat="43.59972" lon="11.581645"><ele>288.0</ele><time>2026-05-01T08:14:56.207Z</time></trkpt><trkpt lat="43.5996633" lon="11.58159"><ele>288.0</ele><time>2026-05-01T08:14:57.207Z</time></trkpt><trkpt lat="43.59957" lon="11.5815267"><ele>288.0</ele><time>2026-05-01T08:14:59.208Z</time></trkpt><trkpt lat="43.5994567" lon="11.5815"><ele>288.0</ele><time>2026-05-01T08:15:01.208Z</time></trkpt><trkpt lat="43.59939" lon="11.5814983"><ele>288.0</ele><time>2026-05-01T08:15:02.207Z</time></trkpt><trkpt lat="43.599325" lon="11.5815"><ele>288.0</ele><time>2026-05-01T08:15:03.209Z</time></trkpt><trkpt lat="43.5992083" lon="11.5815317"><ele>289.25</ele><time>2026-05-01T08:15:05.207Z</time></trkpt><trkpt lat="43.5991033" lon="11.5816083"><ele>290.5</ele><time>2026-05-01T08:15:07.207Z</time></trkpt><trkpt lat="43.5990617" lon="11.5817217"><ele>291.75</ele><time>2026-05-01T08:15:09.207Z</time></trkpt><trkpt lat="43.599025" lon="11.5818717"><ele>293.0</ele><time>2026-05-01T08:15:11.206Z</time></trkpt><trkpt lat="43.5989967" lon="11.58204"><ele>294.0</ele><time>2026-05-01T08:15:13.206Z</time></trkpt><trkpt lat="43.5989667" lon="11.5822017"><ele>295.0</ele><time>2026-05-01T08:15:15.207Z</time></trkpt><trkpt lat="43.5989333" lon="11.58236"><ele>296.0</ele><time>2026-05-01T08:15:17.208Z</time></trkpt><trkpt lat="43.598905" lon="11.5825183"><ele>297.0</ele><time>2026-05-01T08:15:19.207Z</time></trkpt><trkpt lat="43.5988767" lon="11.582685"><ele>297.75</ele><time>2026-05-01T08:15:21.206Z</time></trkpt><trkpt lat="43.5988483" lon="11.5828517"><ele>298.5</ele><time>2026-05-01T08:15:23.206Z</time></trkpt><trkpt lat="43.598835" lon="11.58301"><ele>299.25</ele><time>2026-05-01T08:15:25.206Z</time></trkpt><trkpt lat="43.59883" lon="11.5831817"><ele>300.0</ele><time>2026-05-01T08:15:27.207Z</time></trkpt><trkpt lat="43.5988317" lon="11.5833517"><ele>299.99999999999994</ele><time>2026-05-01T08:15:29.205Z</time></trkpt><trkpt lat="43.598835" lon="11.5834433"><ele>300.0</ele><time>2026-05-01T08:15:30.208Z</time></trkpt><trkpt lat="43.59884" lon="11.5835383"><ele>300.0</ele><time>2026-05-01T08:15:31.208Z</time></trkpt><trkpt lat="43.5988467" lon="11.5836367"><ele>300.0</ele><time>2026-05-01T08:15:32.207Z</time></trkpt><trkpt lat="43.5988533" lon="11.5837333"><ele>300.0</ele><time>2026-05-01T08:15:33.208Z</time></trkpt><trkpt lat="43.5988567" lon="11.583835"><ele>299.99999999999994</ele><time>2026-05-01T08:15:34.206Z</time></trkpt><trkpt lat="43.59885" lon="11.5839367"><ele>300.0</ele><time>2026-05-01T08:15:35.208Z</time></trkpt><trkpt lat="43.5988267" lon="11.5840383"><ele>300.6666666666667</ele><time>2026-05-01T08:15:36.209Z</time></trkpt><trkpt lat="43.5987833" lon="11.5841267"><ele>301.3333333333333</ele><time>2026-05-01T08:15:37.207Z</time></trkpt><trkpt lat="43.598725" lon="11.584195"><ele>302.0</ele><time>2026-05-01T08:15:38.209Z</time></trkpt><trkpt lat="43.5986483" lon="11.5842383"><ele>302.66666666666663</ele><time>2026-05-01T08:15:39.207Z</time></trkpt><trkpt lat="43.598565" lon="11.58426"><ele>303.3333333333333</ele><time>2026-05-01T08:15:40.207Z</time></trkpt><trkpt lat="43.5984833" lon="11.58428"><ele>304.0</ele><time>2026-05-01T08:15:41.206Z</time></trkpt><trkpt lat="43.5984033" lon="11.5843167"><ele>303.0</ele><time>2026-05-01T08:15:42.207Z</time></trkpt><trkpt lat="43.5983267" lon="11.5843717"><ele>302.0</ele><time>2026-05-01T08:15:43.207Z</time></trkpt><trkpt lat="43.5982633" lon="11.584445"><ele>301.0</ele><time>2026-05-01T08:15:44.208Z</time></trkpt><trkpt lat="43.5982067" lon="11.5845317"><ele>300.0</ele><time>2026-05-01T08:15:45.209Z</time></trkpt><trkpt lat="43.5981567" lon="11.58463"><ele>299.0</ele><time>2026-05-01T08:15:46.207Z</time></trkpt><trkpt lat="43.5981133" lon="11.5847317"><ele>298.0</ele><time>2026-05-01T08:15:47.208Z</time></trkpt><trkpt lat="43.5980733" lon="11.5848417"><ele>298.0</ele><time>2026-05-01T08:15:48.209Z</time></trkpt><trkpt lat="43.59803" lon="11.5849517"><ele>298.0</ele><time>2026-05-01T08:15:49.207Z</time></trkpt><trkpt lat="43.5979833" lon="11.5850633"><ele>298.0</ele><time>2026-05-01T08:15:50.208Z</time></trkpt><trkpt lat="43.5979267" lon="11.5851683"><ele>298.0</ele><time>2026-05-01T08:15:51.207Z</time></trkpt><trkpt lat="43.5978533" lon="11.585255"><ele>298.0</ele><time>2026-05-01T08:15:52.207Z</time></trkpt><trkpt lat="43.5977683" lon="11.5853217"><ele>297.4</ele><time>2026-05-01T08:15:53.208Z</time></trkpt><trkpt lat="43.59767" lon="11.585375"><ele>296.8</ele><time>2026-05-01T08:15:54.209Z</time></trkpt><trkpt lat="43.5975683" lon="11.5854233"><ele>296.2</ele><time>2026-05-01T08:15:55.207Z</time></trkpt><trkpt lat="43.59747" lon="11.5854717"><ele>295.6</ele><time>2026-05-01T08:15:56.207Z</time></trkpt><trkpt lat="43.5973717" lon="11.58552"><ele>295.0</ele><time>2026-05-01T08:15:57.206Z</time></trkpt><trkpt lat="43.5972717" lon="11.5855683"><ele>295.0</ele><time>2026-05-01T08:15:58.208Z</time></trkpt><trkpt lat="43.59717" lon="11.5856167"><ele>295.0</ele><time>2026-05-01T08:15:59.208Z</time></trkpt><trkpt lat="43.59707" lon="11.5856717"><ele>295.0</ele><time>2026-05-01T08:16:00.207Z</time></trkpt><trkpt lat="43.5969733" lon="11.58574"><ele>295.0</ele><time>2026-05-01T08:16:01.207Z</time></trkpt><trkpt lat="43.59689" lon="11.585825"><ele>295.0</ele><time>2026-05-01T08:16:02.207Z</time></trkpt><trkpt lat="43.59681" lon="11.5859333"><ele>293.0</ele><time>2026-05-01T08:16:03.207Z</time></trkpt><trkpt lat="43.5967567" lon="11.586065"><ele>291.0</ele><time>2026-05-01T08:16:04.207Z</time></trkpt><trkpt lat="43.5967283" lon="11.58621"><ele>289.0</ele><time>2026-05-01T08:16:05.207Z</time></trkpt><trkpt lat="43.596725" lon="11.5863633"><ele>287.0</ele><time>2026-05-01T08:16:06.207Z</time></trkpt><trkpt lat="43.5967233" lon="11.5865183"><ele>285.0</ele><time>2026-05-01T08:16:07.207Z</time></trkpt><trkpt lat="43.5966933" lon="11.586665"><ele>285.0</ele><time>2026-05-01T08:16:08.209Z</time></trkpt><trkpt lat="43.5966367" lon="11.5868"><ele>285.0</ele><time>2026-05-01T08:16:09.207Z</time></trkpt><trkpt lat="43.5965583" lon="11.5869217"><ele>285.0</ele><time>2026-05-01T08:16:10.206Z</time></trkpt><trkpt lat="43.59647" lon="11.587035"><ele>285.0</ele><time>2026-05-01T08:16:11.208Z</time></trkpt><trkpt lat="43.5963767" lon="11.5871317"><ele>285.8</ele><time>2026-05-01T08:16:12.209Z</time></trkpt><trkpt lat="43.596275" lon="11.587185"><ele>286.6</ele><time>2026-05-01T08:16:13.207Z</time></trkpt><trkpt lat="43.596165" lon="11.58719"><ele>287.4</ele><time>2026-05-01T08:16:14.209Z</time></trkpt><trkpt lat="43.5960567" lon="11.587155"><ele>288.2</ele><time>2026-05-01T08:16:15.209Z</time></trkpt><trkpt lat="43.5959517" lon="11.5871017"><ele>289.0</ele><time>2026-05-01T08:16:16.208Z</time></trkpt><trkpt lat="43.5958417" lon="11.5870467"><ele>287.2</ele><time>2026-05-01T08:16:17.207Z</time></trkpt><trkpt lat="43.5957383" lon="11.5869917"><ele>285.4</ele><time>2026-05-01T08:16:18.207Z</time></trkpt><trkpt lat="43.5956367" lon="11.5869417"><ele>283.6</ele><time>2026-05-01T08:16:19.209Z</time></trkpt><trkpt lat="43.5955417" lon="11.5868917"><ele>281.8</ele><time>2026-05-01T08:16:20.207Z</time></trkpt><trkpt lat="43.595445" lon="11.58685"><ele>280.0</ele><time>2026-05-01T08:16:21.206Z</time></trkpt><trkpt lat="43.59535" lon="11.5868183"><ele>280.6</ele><time>2026-05-01T08:16:22.207Z</time></trkpt><trkpt lat="43.5952517" lon="11.5868017"><ele>281.2</ele><time>2026-05-01T08:16:23.207Z</time></trkpt><trkpt lat="43.5951567" lon="11.5867967"><ele>281.8</ele><time>2026-05-01T08:16:24.208Z</time></trkpt><trkpt lat="43.5950667" lon="11.5868133"><ele>282.4</ele><time>2026-05-01T08:16:25.208Z</time></trkpt><trkpt lat="43.5949917" lon="11.5868533"><ele>283.0</ele><time>2026-05-01T08:16:26.211Z</time></trkpt><trkpt lat="43.594915" lon="11.5869017"><ele>283.0</ele><time>2026-05-01T08:16:27.209Z</time></trkpt><trkpt lat="43.59484" lon="11.586955"><ele>283.0</ele><time>2026-05-01T08:16:28.208Z</time></trkpt><trkpt lat="43.5947733" lon="11.58702"><ele>283.0</ele><time>2026-05-01T08:16:29.207Z</time></trkpt><trkpt lat="43.59471" lon="11.5870983"><ele>283.0</ele><time>2026-05-01T08:16:30.207Z</time></trkpt><trkpt lat="43.594655" lon="11.5871867"><ele>283.0</ele><time>2026-05-01T08:16:31.207Z</time></trkpt><trkpt lat="43.5946067" lon="11.5872833"><ele>283.0</ele><time>2026-05-01T08:16:32.208Z</time></trkpt><trkpt lat="43.5945617" lon="11.5873917"><ele>282.66666666666663</ele><time>2026-05-01T08:16:33.209Z</time></trkpt><trkpt lat="43.59452" lon="11.587505"><ele>282.3333333333333</ele><time>2026-05-01T08:16:34.206Z</time></trkpt><trkpt lat="43.5944817" lon="11.5876167"><ele>282.0</ele><time>2026-05-01T08:16:35.208Z</time></trkpt><trkpt lat="43.59445" lon="11.58773"><ele>281.6666666666667</ele><time>2026-05-01T08:16:36.207Z</time></trkpt><trkpt lat="43.5944283" lon="11.5878433"><ele>281.33333333333337</ele><time>2026-05-01T08:16:37.205Z</time></trkpt><trkpt lat="43.5944167" lon="11.587955"><ele>281.0</ele><time>2026-05-01T08:16:38.21Z</time></trkpt><trkpt lat="43.5944133" lon="11.588065"><ele>280.83333333333337</ele><time>2026-05-01T08:16:39.206Z</time></trkpt><trkpt lat="43.5944167" lon="11.588175"><ele>280.6666666666667</ele><time>2026-05-01T08:16:40.207Z</time></trkpt><trkpt lat="43.5944267" lon="11.5882833"><ele>280.5</ele><time>2026-05-01T08:16:41.209Z</time></trkpt><trkpt lat="43.5944483" lon="11.5883867"><ele>280.3333333333333</ele><time>2026-05-01T08:16:42.207Z</time></trkpt><trkpt lat="43.594475" lon="11.5884917"><ele>280.16666666666663</ele><time>2026-05-01T08:16:43.209Z</time></trkpt><trkpt lat="43.5945" lon="11.5886"><ele>280.0</ele><time>2026-05-01T08:16:44.208Z</time></trkpt><trkpt lat="43.5945267" lon="11.5887117"><ele>282.0</ele><time>2026-05-01T08:16:45.207Z</time></trkpt><trkpt lat="43.59455" lon="11.5888283"><ele>284.0</ele><time>2026-05-01T08:16:46.207Z</time></trkpt><trkpt lat="43.5945667" lon="11.5889433"><ele>286.0</ele><time>2026-05-01T08:16:47.207Z</time></trkpt><trkpt lat="43.5945717" lon="11.5890633"><ele>288.0</ele><time>2026-05-01T08:16:48.206Z</time></trkpt><trkpt lat="43.5945667" lon="11.5891883"><ele>290.0</ele><time>2026-05-01T08:16:49.207Z</time></trkpt><trkpt lat="43.594545" lon="11.5893083"><ele>292.0</ele><time>2026-05-01T08:16:50.209Z</time></trkpt><trkpt lat="43.594515" lon="11.5894267"><ele>290.16666666666663</ele><time>2026-05-01T08:16:51.208Z</time></trkpt><trkpt lat="43.59448" lon="11.5895433"><ele>288.3333333333333</ele><time>2026-05-01T08:16:52.207Z</time></trkpt><trkpt lat="43.5944433" lon="11.589655"><ele>286.5</ele><time>2026-05-01T08:16:53.209Z</time></trkpt><trkpt lat="43.594405" lon="11.5897633"><ele>284.6666666666667</ele><time>2026-05-01T08:16:54.208Z</time></trkpt><trkpt lat="43.5943667" lon="11.5898667"><ele>282.83333333333337</ele><time>2026-05-01T08:16:55.207Z</time></trkpt><trkpt lat="43.594325" lon="11.5899733"><ele>281.0</ele><time>2026-05-01T08:16:56.209Z</time></trkpt><trkpt lat="43.59428" lon="11.5900767"><ele>281.0</ele><time>2026-05-01T08:16:57.207Z</time></trkpt><trkpt lat="43.5942317" lon="11.5901767"><ele>281.0</ele><time>2026-05-01T08:16:58.207Z</time></trkpt><trkpt lat="43.5941833" lon="11.59028"><ele>281.0</ele><time>2026-05-01T08:16:59.207Z</time></trkpt><trkpt lat="43.5941367" lon="11.5903767"><ele>281.0</ele><time>2026-05-01T08:17:00.208Z</time></trkpt><trkpt lat="43.59409" lon="11.590475"><ele>281.0</ele><time>2026-05-01T08:17:01.207Z</time></trkpt><trkpt lat="43.5940467" lon="11.5905767"><ele>281.0</ele><time>2026-05-01T08:17:02.208Z</time></trkpt><trkpt lat="43.5940033" lon="11.590675"><ele>282.0</ele><time>2026-05-01T08:17:03.209Z</time></trkpt><trkpt lat="43.5939617" lon="11.590775"><ele>283.0</ele><time>2026-05-01T08:17:04.208Z</time></trkpt><trkpt lat="43.5939217" lon="11.5908767"><ele>284.0</ele><time>2026-05-01T08:17:05.209Z</time></trkpt><trkpt lat="43.593885" lon="11.590985"><ele>285.0</ele><time>2026-05-01T08:17:06.206Z</time></trkpt><trkpt lat="43.59385" lon="11.5911017"><ele>286.0</ele><time>2026-05-01T08:17:07.208Z</time></trkpt><trkpt lat="43.5938283" lon="11.5912267"><ele>287.0</ele><time>2026-05-01T08:17:08.21Z</time></trkpt><trkpt lat="43.5938233" lon="11.5913617"><ele>287.33333333333337</ele><time>2026-05-01T08:17:09.21Z</time></trkpt><trkpt lat="43.59383" lon="11.5914933"><ele>287.6666666666667</ele><time>2026-05-01T08:17:10.208Z</time></trkpt><trkpt lat="43.5938283" lon="11.5916133"><ele>288.0</ele><time>2026-05-01T08:17:11.207Z</time></trkpt><trkpt lat="43.593805" lon="11.5917283"><ele>288.3333333333333</ele><time>2026-05-01T08:17:12.208Z</time></trkpt><trkpt lat="43.59374" lon="11.5918067"><ele>288.66666666666663</ele><time>2026-05-01T08:17:13.208Z</time></trkpt><trkpt lat="43.5936617" lon="11.5918567"><ele>289.0</ele><time>2026-05-01T08:17:14.208Z</time></trkpt><trkpt lat="43.5935783" lon="11.5918833"><ele>288.3333333333333</ele><time>2026-05-01T08:17:15.209Z</time></trkpt><trkpt lat="43.5934967" lon="11.5919033"><ele>287.66666666666663</ele><time>2026-05-01T08:17:16.205Z</time></trkpt><trkpt lat="43.5934133" lon="11.5919283"><ele>287.0</ele><time>2026-05-01T08:17:17.208Z</time></trkpt><trkpt lat="43.5933383" lon="11.5919717"><ele>286.3333333333333</ele><time>2026-05-01T08:17:18.208Z</time></trkpt><trkpt lat="43.5932717" lon="11.59203"><ele>285.6666666666667</ele><time>2026-05-01T08:17:19.208Z</time></trkpt><trkpt lat="43.593215" lon="11.5921033"><ele>285.0</ele><time>2026-05-01T08:17:20.207Z</time></trkpt><trkpt lat="43.593175" lon="11.5921867"><ele>285.0</ele><time>2026-05-01T08:17:21.207Z</time></trkpt><trkpt lat="43.5931617" lon="11.592275"><ele>285.0</ele><time>2026-05-01T08:17:22.209Z</time></trkpt><trkpt lat="43.59318" lon="11.592445"><ele>285.0</ele><time>2026-05-01T08:17:24.21Z</time></trkpt><trkpt lat="43.593205" lon="11.5925283"><ele>285.0</ele><time>2026-05-01T08:17:25.208Z</time></trkpt><trkpt lat="43.5932283" lon="11.59261"><ele>285.0</ele><time>2026-05-01T08:17:26.207Z</time></trkpt><trkpt lat="43.5932467" lon="11.592695"><ele>285.0</ele><time>2026-05-01T08:17:27.208Z</time></trkpt><trkpt lat="43.5932667" lon="11.5927783"><ele>285.0</ele><time>2026-05-01T08:17:28.207Z</time></trkpt><trkpt lat="43.59329" lon="11.5928617"><ele>285.1666666666667</ele><time>2026-05-01T08:17:29.209Z</time></trkpt><trkpt lat="43.5933067" lon="11.5929483"><ele>285.3333333333333</ele><time>2026-05-01T08:17:30.208Z</time></trkpt><trkpt lat="43.5933283" lon="11.5930317"><ele>285.5</ele><time>2026-05-01T08:17:31.207Z</time></trkpt><trkpt lat="43.5933483" lon="11.5931183"><ele>285.66666666666663</ele><time>2026-05-01T08:17:32.208Z</time></trkpt><trkpt lat="43.5933733" lon="11.5932033"><ele>285.8333333333333</ele><time>2026-05-01T08:17:33.207Z</time></trkpt><trkpt lat="43.593415" lon="11.5933617"><ele>286.0</ele><time>2026-05-01T08:17:35.207Z</time></trkpt><trkpt lat="43.593435" lon="11.5935167"><ele>286.0</ele><time>2026-05-01T08:17:37.207Z</time></trkpt><trkpt lat="43.593405" lon="11.593665"><ele>286.0</ele><time>2026-05-01T08:17:39.207Z</time></trkpt><trkpt lat="43.59334" lon="11.5937667"><ele>286.0</ele><time>2026-05-01T08:17:41.207Z</time></trkpt><trkpt lat="43.5932683" lon="11.5938517"><ele>286.0</ele><time>2026-05-01T08:17:43.207Z</time></trkpt><trkpt lat="43.5931917" lon="11.5939233"><ele>286.0</ele><time>2026-05-01T08:17:45.207Z</time></trkpt><trkpt lat="43.5931167" lon="11.5939867"><ele>287.0</ele><time>2026-05-01T08:17:47.206Z</time></trkpt><trkpt lat="43.5930317" lon="11.5940467"><ele>288.0</ele><time>2026-05-01T08:17:49.208Z</time></trkpt><trkpt lat="43.5929567" lon="11.5941067"><ele>289.0</ele><time>2026-05-01T08:17:51.21Z</time></trkpt><trkpt lat="43.59288" lon="11.594175"><ele>290.0</ele><time>2026-05-01T08:17:53.208Z</time></trkpt><trkpt lat="43.592805" lon="11.5942533"><ele>291.0</ele><time>2026-05-01T08:17:55.207Z</time></trkpt><trkpt lat="43.5927367" lon="11.5943117"><ele>292.0</ele><time>2026-05-01T08:17:57.207Z</time></trkpt><trkpt lat="43.5926683" lon="11.594375"><ele>292.16666666666663</ele><time>2026-05-01T08:17:59.208Z</time></trkpt><trkpt lat="43.5926133" lon="11.59444"><ele>292.3333333333333</ele><time>2026-05-01T08:18:01.204Z</time></trkpt><trkpt lat="43.5925517" lon="11.5945"><ele>292.5</ele><time>2026-05-01T08:18:03.207Z</time></trkpt><trkpt lat="43.5924883" lon="11.59458"><ele>292.6666666666667</ele><time>2026-05-01T08:18:05.207Z</time></trkpt><trkpt lat="43.59242" lon="11.5946833"><ele>292.83333333333337</ele><time>2026-05-01T08:18:07.205Z</time></trkpt><trkpt lat="43.592365" lon="11.5948033"><ele>293.0</ele><time>2026-05-01T08:18:09.205Z</time></trkpt><trkpt lat="43.592325" lon="11.5949367"><ele>292.75</ele><time>2026-05-01T08:18:11.208Z</time></trkpt><trkpt lat="43.5922967" lon="11.5950817"><ele>292.5</ele><time>2026-05-01T08:18:13.206Z</time></trkpt><trkpt lat="43.5922933" lon="11.5952367"><ele>292.25</ele><time>2026-05-01T08:18:15.208Z</time></trkpt><trkpt lat="43.5923167" lon="11.5954"><ele>292.0</ele><time>2026-05-01T08:18:17.207Z</time></trkpt><trkpt lat="43.592365" lon="11.5955617"><ele>292.0</ele><time>2026-05-01T08:18:19.207Z</time></trkpt><trkpt lat="43.5924" lon="11.595645"><ele>292.0</ele><time>2026-05-01T08:18:20.209Z</time></trkpt><trkpt lat="43.5924417" lon="11.595725"><ele>292.0</ele><time>2026-05-01T08:18:21.207Z</time></trkpt><trkpt lat="43.59249" lon="11.5957933"><ele>292.0</ele><time>2026-05-01T08:18:22.209Z</time></trkpt><trkpt lat="43.5925433" lon="11.59586"><ele>292.0</ele><time>2026-05-01T08:18:23.207Z</time></trkpt><trkpt lat="43.5926" lon="11.5959217"><ele>292.0</ele><time>2026-05-01T08:18:24.209Z</time></trkpt><trkpt lat="43.5926583" lon="11.5959733"><ele>292.0</ele><time>2026-05-01T08:18:25.207Z</time></trkpt><trkpt lat="43.59272" lon="11.596025"><ele>292.0</ele><time>2026-05-01T08:18:26.21Z</time></trkpt><trkpt lat="43.59278" lon="11.59607"><ele>292.0</ele><time>2026-05-01T08:18:27.207Z</time></trkpt><trkpt lat="43.5928417" lon="11.596115"><ele>292.0</ele><time>2026-05-01T08:18:28.207Z</time></trkpt><trkpt lat="43.592905" lon="11.596155"><ele>292.0</ele><time>2026-05-01T08:18:29.207Z</time></trkpt><trkpt lat="43.5929683" lon="11.596195"><ele>292.0</ele><time>2026-05-01T08:18:30.208Z</time></trkpt><trkpt lat="43.5930333" lon="11.5962383"><ele>292.0</ele><time>2026-05-01T08:18:31.207Z</time></trkpt><trkpt lat="43.5930967" lon="11.5962917"><ele>292.0</ele><time>2026-05-01T08:18:32.208Z</time></trkpt><trkpt lat="43.5931467" lon="11.596365"><ele>293.5</ele><time>2026-05-01T08:18:33.207Z</time></trkpt><trkpt lat="43.5931733" lon="11.5964517"><ele>295.0</ele><time>2026-05-01T08:18:34.21Z</time></trkpt><trkpt lat="43.5931467" lon="11.596605"><ele>296.5</ele><time>2026-05-01T08:18:36.209Z</time></trkpt><trkpt lat="43.5930967" lon="11.5966667"><ele>298.0</ele><time>2026-05-01T08:18:37.208Z</time></trkpt><trkpt lat="43.5930333" lon="11.5967033"><ele>299.5</ele><time>2026-05-01T08:18:38.208Z</time></trkpt><trkpt lat="43.5929617" lon="11.596735"><ele>301.0</ele><time>2026-05-01T08:18:39.207Z</time></trkpt><trkpt lat="43.5928867" lon="11.5967667"><ele>300.16666666666663</ele><time>2026-05-01T08:18:40.209Z</time></trkpt><trkpt lat="43.5928117" lon="11.5968083"><ele>299.3333333333333</ele><time>2026-05-01T08:18:41.208Z</time></trkpt><trkpt lat="43.59274" lon="11.59686"><ele>298.5</ele><time>2026-05-01T08:18:42.207Z</time></trkpt><trkpt lat="43.59268" lon="11.5969117"><ele>297.6666666666667</ele><time>2026-05-01T08:18:43.208Z</time></trkpt><trkpt lat="43.592615" lon="11.5969667"><ele>296.83333333333337</ele><time>2026-05-01T08:18:44.208Z</time></trkpt><trkpt lat="43.59255" lon="11.5970283"><ele>296.0</ele><time>2026-05-01T08:18:45.209Z</time></trkpt><trkpt lat="43.5924783" lon="11.597085"><ele>296.0</ele><time>2026-05-01T08:18:46.208Z</time></trkpt><trkpt lat="43.5924067" lon="11.59714"><ele>296.0</ele><time>2026-05-01T08:18:47.207Z</time></trkpt><trkpt lat="43.5923417" lon="11.597205"><ele>296.0</ele><time>2026-05-01T08:18:48.209Z</time></trkpt><trkpt lat="43.5922783" lon="11.597275"><ele>296.0</ele><time>2026-05-01T08:18:49.208Z</time></trkpt><trkpt lat="43.5922217" lon="11.5973567"><ele>296.0</ele><time>2026-05-01T08:18:50.208Z</time></trkpt><trkpt lat="43.5921783" lon="11.5974517"><ele>296.0</ele><time>2026-05-01T08:18:51.21Z</time></trkpt><trkpt lat="43.5921467" lon="11.5975633"><ele>296.0</ele><time>2026-05-01T08:18:52.205Z</time></trkpt><trkpt lat="43.5921317" lon="11.5976933"><ele>296.0</ele><time>2026-05-01T08:18:53.207Z</time></trkpt><trkpt lat="43.5921317" lon="11.597815"><ele>296.0</ele><time>2026-05-01T08:18:54.208Z</time></trkpt><trkpt lat="43.5921367" lon="11.59794"><ele>296.0</ele><time>2026-05-01T08:18:55.207Z</time></trkpt><trkpt lat="43.5921383" lon="11.5980617"><ele>296.0</ele><time>2026-05-01T08:18:56.21Z</time></trkpt><trkpt lat="43.592125" lon="11.598185"><ele>296.5</ele><time>2026-05-01T08:18:57.207Z</time></trkpt><trkpt lat="43.5920967" lon="11.5983017"><ele>297.0</ele><time>2026-05-01T08:18:58.208Z</time></trkpt><trkpt lat="43.5920517" lon="11.5984033"><ele>297.5</ele><time>2026-05-01T08:18:59.209Z</time></trkpt><trkpt lat="43.5919967" lon="11.5984933"><ele>298.0</ele><time>2026-05-01T08:19:00.208Z</time></trkpt><trkpt lat="43.59194" lon="11.5985717"><ele>298.5</ele><time>2026-05-01T08:19:01.208Z</time></trkpt><trkpt lat="43.591885" lon="11.5986467"><ele>299.0</ele><time>2026-05-01T08:19:02.208Z</time></trkpt><trkpt lat="43.5918333" lon="11.5987217"><ele>298.1428571428571</ele><time>2026-05-01T08:19:03.207Z</time></trkpt><trkpt lat="43.5917817" lon="11.5987967"><ele>297.2857142857143</ele><time>2026-05-01T08:19:04.208Z</time></trkpt><trkpt lat="43.5917367" lon="11.5988783"><ele>296.42857142857144</ele><time>2026-05-01T08:19:05.207Z</time></trkpt><trkpt lat="43.5917017" lon="11.598965"><ele>295.57142857142856</ele><time>2026-05-01T08:19:06.207Z</time></trkpt><trkpt lat="43.5916733" lon="11.599055"><ele>294.7142857142857</ele><time>2026-05-01T08:19:07.207Z</time></trkpt><trkpt lat="43.5916533" lon="11.599145"><ele>293.85714285714283</ele><time>2026-05-01T08:19:08.212Z</time></trkpt><trkpt lat="43.591635" lon="11.5992383"><ele>293.0</ele><time>2026-05-01T08:19:09.208Z</time></trkpt><trkpt lat="43.591625" lon="11.5993333"><ele>293.0</ele><time>2026-05-01T08:19:10.207Z</time></trkpt><trkpt lat="43.5916233" lon="11.5994283"><ele>293.0</ele><time>2026-05-01T08:19:11.209Z</time></trkpt><trkpt lat="43.59163" lon="11.59952"><ele>293.0</ele><time>2026-05-01T08:19:12.207Z</time></trkpt><trkpt lat="43.5916433" lon="11.599605"><ele>293.0</ele><time>2026-05-01T08:19:13.207Z</time></trkpt><trkpt lat="43.59166" lon="11.5996917"><ele>293.0</ele><time>2026-05-01T08:19:14.208Z</time></trkpt><trkpt lat="43.5916833" lon="11.5997817"><ele>293.0</ele><time>2026-05-01T08:19:15.209Z</time></trkpt><trkpt lat="43.5917383" lon="11.59994"><ele>292.99999999999994</ele><time>2026-05-01T08:19:17.207Z</time></trkpt><trkpt lat="43.59177" lon="11.6000217"><ele>293.0</ele><time>2026-05-01T08:19:18.207Z</time></trkpt><trkpt lat="43.5918017" lon="11.6001017"><ele>293.0</ele><time>2026-05-01T08:19:19.209Z</time></trkpt><trkpt lat="43.5918317" lon="11.600185"><ele>293.0</ele><time>2026-05-01T08:19:20.209Z</time></trkpt><trkpt lat="43.5918633" lon="11.600265"><ele>293.0</ele><time>2026-05-01T08:19:21.208Z</time></trkpt><trkpt lat="43.591895" lon="11.6003483"><ele>292.99999999999994</ele><time>2026-05-01T08:19:22.207Z</time></trkpt><trkpt lat="43.5919283" lon="11.60043"><ele>293.0</ele><time>2026-05-01T08:19:23.209Z</time></trkpt><trkpt lat="43.5919633" lon="11.6005217"><ele>292.33333333333337</ele><time>2026-05-01T08:19:24.208Z</time></trkpt><trkpt lat="43.5920017" lon="11.6006133"><ele>291.6666666666667</ele><time>2026-05-01T08:19:25.207Z</time></trkpt><trkpt lat="43.5920417" lon="11.6007"><ele>291.0</ele><time>2026-05-01T08:19:26.21Z</time></trkpt><trkpt lat="43.5920833" lon="11.600785"><ele>290.3333333333333</ele><time>2026-05-01T08:19:27.209Z</time></trkpt><trkpt lat="43.5921283" lon="11.6008667"><ele>289.66666666666663</ele><time>2026-05-01T08:19:28.208Z</time></trkpt><trkpt lat="43.5921783" lon="11.6009433"><ele>289.0</ele><time>2026-05-01T08:19:29.209Z</time></trkpt><trkpt lat="43.5922317" lon="11.6010183"><ele>290.3333333333333</ele><time>2026-05-01T08:19:30.21Z</time></trkpt><trkpt lat="43.59229" lon="11.6010833"><ele>291.66666666666663</ele><time>2026-05-01T08:19:31.209Z</time></trkpt><trkpt lat="43.5923517" lon="11.6011517"><ele>293.0</ele><time>2026-05-01T08:19:32.209Z</time></trkpt><trkpt lat="43.59241" lon="11.6012183"><ele>294.3333333333333</ele><time>2026-05-01T08:19:33.204Z</time></trkpt><trkpt lat="43.5924667" lon="11.6012883"><ele>295.6666666666667</ele><time>2026-05-01T08:19:34.209Z</time></trkpt><trkpt lat="43.5925217" lon="11.601365"><ele>297.0</ele><time>2026-05-01T08:19:35.21Z</time></trkpt><trkpt lat="43.5925683" lon="11.6014517"><ele>297.0</ele><time>2026-05-01T08:19:36.208Z</time></trkpt><trkpt lat="43.5925967" lon="11.601545"><ele>297.0</ele><time>2026-05-01T08:19:37.21Z</time></trkpt><trkpt lat="43.592605" lon="11.601645"><ele>297.0</ele><time>2026-05-01T08:19:38.207Z</time></trkpt><trkpt lat="43.592595" lon="11.6017567"><ele>297.0</ele><time>2026-05-01T08:19:39.208Z</time></trkpt><trkpt lat="43.59256" lon="11.6018567"><ele>297.0</ele><time>2026-05-01T08:19:40.207Z</time></trkpt><trkpt lat="43.5925117" lon="11.6019317"><ele>297.0</ele><time>2026-05-01T08:19:41.209Z</time></trkpt><trkpt lat="43.5924517" lon="11.6019833"><ele>298.0</ele><time>2026-05-01T08:19:42.207Z</time></trkpt><trkpt lat="43.5923867" lon="11.6020233"><ele>299.0</ele><time>2026-05-01T08:19:43.207Z</time></trkpt><trkpt lat="43.5923217" lon="11.602065"><ele>300.0</ele><time>2026-05-01T08:19:44.207Z</time></trkpt><trkpt lat="43.5922633" lon="11.6021167"><ele>301.0</ele><time>2026-05-01T08:19:45.206Z</time></trkpt><trkpt lat="43.59221" lon="11.60217"><ele>302.0</ele><time>2026-05-01T08:19:46.207Z</time></trkpt><trkpt lat="43.5921617" lon="11.6022317"><ele>303.0</ele><time>2026-05-01T08:19:47.207Z</time></trkpt><trkpt lat="43.5921117" lon="11.602295"><ele>304.0</ele><time>2026-05-01T08:19:48.207Z</time></trkpt><trkpt lat="43.5920683" lon="11.6023617"><ele>304.0</ele><time>2026-05-01T08:19:49.206Z</time></trkpt><trkpt lat="43.59203" lon="11.6024317"><ele>304.0</ele><time>2026-05-01T08:19:50.208Z</time></trkpt><trkpt lat="43.591985" lon="11.6025767"><ele>304.0</ele><time>2026-05-01T08:19:52.209Z</time></trkpt><trkpt lat="43.592005" lon="11.6027233"><ele>304.0</ele><time>2026-05-01T08:19:54.207Z</time></trkpt><trkpt lat="43.5920833" lon="11.6028433"><ele>304.0</ele><time>2026-05-01T08:19:56.208Z</time></trkpt><trkpt lat="43.5921317" lon="11.6029"><ele>303.7142857142857</ele><time>2026-05-01T08:19:57.206Z</time></trkpt><trkpt lat="43.5921783" lon="11.6029617"><ele>303.42857142857144</ele><time>2026-05-01T08:19:58.206Z</time></trkpt><trkpt lat="43.592215" lon="11.6030367"><ele>303.14285714285717</ele><time>2026-05-01T08:19:59.206Z</time></trkpt><trkpt lat="43.59224" lon="11.6031317"><ele>302.8571428571429</ele><time>2026-05-01T08:20:00.206Z</time></trkpt><trkpt lat="43.592245" lon="11.60323"><ele>302.57142857142856</ele><time>2026-05-01T08:20:01.209Z</time></trkpt><trkpt lat="43.5922333" lon="11.603325"><ele>302.28571428571433</ele><time>2026-05-01T08:20:02.207Z</time></trkpt><trkpt lat="43.5922083" lon="11.60343"><ele>302.0</ele><time>2026-05-01T08:20:03.207Z</time></trkpt><trkpt lat="43.5921767" lon="11.60353"><ele>302.0</ele><time>2026-05-01T08:20:04.206Z</time></trkpt><trkpt lat="43.5921367" lon="11.60363"><ele>302.0</ele><time>2026-05-01T08:20:05.206Z</time></trkpt><trkpt lat="43.5920933" lon="11.603725"><ele>302.0</ele><time>2026-05-01T08:20:06.208Z</time></trkpt><trkpt lat="43.5920467" lon="11.6038083"><ele>302.0</ele><time>2026-05-01T08:20:07.205Z</time></trkpt><trkpt lat="43.5920017" lon="11.60389"><ele>302.0</ele><time>2026-05-01T08:20:08.207Z</time></trkpt><trkpt lat="43.5919517" lon="11.6039667"><ele>302.0</ele><time>2026-05-01T08:20:09.206Z</time></trkpt><trkpt lat="43.5918967" lon="11.6040367"><ele>301.14285714285717</ele><time>2026-05-01T08:20:10.207Z</time></trkpt><trkpt lat="43.59184" lon="11.604105"><ele>300.2857142857143</ele><time>2026-05-01T08:20:11.206Z</time></trkpt><trkpt lat="43.5917833" lon="11.6041683"><ele>299.42857142857144</ele><time>2026-05-01T08:20:12.21Z</time></trkpt><trkpt lat="43.5917217" lon="11.6042333"><ele>298.57142857142856</ele><time>2026-05-01T08:20:13.206Z</time></trkpt><trkpt lat="43.5916617" lon="11.604295"><ele>297.7142857142857</ele><time>2026-05-01T08:20:14.207Z</time></trkpt><trkpt lat="43.5916017" lon="11.604355"><ele>296.8571428571429</ele><time>2026-05-01T08:20:15.206Z</time></trkpt><trkpt lat="43.5915433" lon="11.6044183"><ele>296.0</ele><time>2026-05-01T08:20:16.206Z</time></trkpt><trkpt lat="43.5914883" lon="11.60448"><ele>295.2857142857143</ele><time>2026-05-01T08:20:17.209Z</time></trkpt><trkpt lat="43.5914333" lon="11.6045383"><ele>294.57142857142856</ele><time>2026-05-01T08:20:18.207Z</time></trkpt><trkpt lat="43.59138" lon="11.6045983"><ele>293.85714285714283</ele><time>2026-05-01T08:20:19.208Z</time></trkpt><trkpt lat="43.5913267" lon="11.6046617"><ele>293.1428571428571</ele><time>2026-05-01T08:20:20.209Z</time></trkpt><trkpt lat="43.5912717" lon="11.6047283"><ele>292.4285714285714</ele><time>2026-05-01T08:20:21.206Z</time></trkpt><trkpt lat="43.59122" lon="11.6048067"><ele>291.7142857142857</ele><time>2026-05-01T08:20:22.207Z</time></trkpt><trkpt lat="43.59118" lon="11.6049017"><ele>291.0</ele><time>2026-05-01T08:20:23.206Z</time></trkpt><trkpt lat="43.5911517" lon="11.6050033"><ele>291.0</ele><time>2026-05-01T08:20:24.208Z</time></trkpt><trkpt lat="43.5911283" lon="11.60511"><ele>291.0</ele><time>2026-05-01T08:20:25.208Z</time></trkpt><trkpt lat="43.5911117" lon="11.6052317"><ele>291.0</ele><time>2026-05-01T08:20:26.208Z</time></trkpt><trkpt lat="43.5910967" lon="11.6053567"><ele>291.0</ele><time>2026-05-01T08:20:27.207Z</time></trkpt><trkpt lat="43.591085" lon="11.6054817"><ele>291.0</ele><time>2026-05-01T08:20:28.208Z</time></trkpt><trkpt lat="43.5910717" lon="11.6056067"><ele>291.0</ele><time>2026-05-01T08:20:29.207Z</time></trkpt><trkpt lat="43.5910583" lon="11.6057333"><ele>291.2</ele><time>2026-05-01T08:20:30.207Z</time></trkpt><trkpt lat="43.5910467" lon="11.60586"><ele>291.40000000000003</ele><time>2026-05-01T08:20:31.208Z</time></trkpt><trkpt lat="43.59104" lon="11.6059867"><ele>291.6</ele><time>2026-05-01T08:20:32.208Z</time></trkpt><trkpt lat="43.5910433" lon="11.6061083"><ele>291.8</ele><time>2026-05-01T08:20:33.209Z</time></trkpt><trkpt lat="43.5910617" lon="11.60623"><ele>292.0</ele><time>2026-05-01T08:20:34.208Z</time></trkpt><trkpt lat="43.5910933" lon="11.6063417"><ele>292.3333333333333</ele><time>2026-05-01T08:20:35.209Z</time></trkpt><trkpt lat="43.591135" lon="11.6064467"><ele>292.66666666666663</ele><time>2026-05-01T08:20:36.206Z</time></trkpt><trkpt lat="43.5911733" lon="11.60655"><ele>293.0</ele><time>2026-05-01T08:20:37.208Z</time></trkpt><trkpt lat="43.5911933" lon="11.60666"><ele>293.3333333333333</ele><time>2026-05-01T08:20:38.205Z</time></trkpt><trkpt lat="43.5911867" lon="11.606775"><ele>293.6666666666667</ele><time>2026-05-01T08:20:39.207Z</time></trkpt><trkpt lat="43.5911567" lon="11.6068733"><ele>294.0</ele><time>2026-05-01T08:20:40.206Z</time></trkpt><trkpt lat="43.5910983" lon="11.606945"><ele>294.0</ele><time>2026-05-01T08:20:41.207Z</time></trkpt><trkpt lat="43.5910317" lon="11.60698"><ele>294.0</ele><time>2026-05-01T08:20:42.205Z</time></trkpt><trkpt lat="43.5909633" lon="11.6069817"><ele>294.0</ele><time>2026-05-01T08:20:43.207Z</time></trkpt><trkpt lat="43.5908967" lon="11.606955"><ele>294.0</ele><time>2026-05-01T08:20:44.208Z</time></trkpt><trkpt lat="43.5908367" lon="11.606905"><ele>294.0</ele><time>2026-05-01T08:20:45.208Z</time></trkpt><trkpt lat="43.5907633" lon="11.6068383"><ele>294.0</ele><time>2026-05-01T08:20:46.206Z</time></trkpt><trkpt lat="43.5907" lon="11.6067633"><ele>294.0</ele><time>2026-05-01T08:20:47.208Z</time></trkpt><trkpt lat="43.5906367" lon="11.606695"><ele>294.0</ele><time>2026-05-01T08:20:48.207Z</time></trkpt><trkpt lat="43.5905883" lon="11.6066233"><ele>294.0</ele><time>2026-05-01T08:20:49.207Z</time></trkpt><trkpt lat="43.5905417" lon="11.606555"><ele>294.0</ele><time>2026-05-01T08:20:50.207Z</time></trkpt><trkpt lat="43.5904867" lon="11.60649"><ele>294.0</ele><time>2026-05-01T08:20:51.208Z</time></trkpt><trkpt lat="43.5904317" lon="11.60643"><ele>294.0</ele><time>2026-05-01T08:20:52.207Z</time></trkpt><trkpt lat="43.5903633" lon="11.6063833"><ele>294.0</ele><time>2026-05-01T08:20:53.206Z</time></trkpt><trkpt lat="43.5902933" lon="11.606335"><ele>294.2857142857143</ele><time>2026-05-01T08:20:54.208Z</time></trkpt><trkpt lat="43.5902317" lon="11.6063033"><ele>294.57142857142856</ele><time>2026-05-01T08:20:55.208Z</time></trkpt><trkpt lat="43.5901617" lon="11.6063033"><ele>294.8571428571429</ele><time>2026-05-01T08:20:56.207Z</time></trkpt><trkpt lat="43.5900933" lon="11.6063217"><ele>295.1428571428571</ele><time>2026-05-01T08:20:57.206Z</time></trkpt><trkpt lat="43.590025" lon="11.606345"><ele>295.42857142857144</ele><time>2026-05-01T08:20:58.205Z</time></trkpt><trkpt lat="43.589955" lon="11.6063717"><ele>295.7142857142857</ele><time>2026-05-01T08:20:59.207Z</time></trkpt><trkpt lat="43.5898883" lon="11.6064017"><ele>296.0</ele><time>2026-05-01T08:21:00.207Z</time></trkpt><trkpt lat="43.5898233" lon="11.6064267"><ele>296.0</ele><time>2026-05-01T08:21:01.208Z</time></trkpt><trkpt lat="43.5897567" lon="11.6064517"><ele>296.0</ele><time>2026-05-01T08:21:02.207Z</time></trkpt><trkpt lat="43.58969" lon="11.6064833"><ele>296.0</ele><time>2026-05-01T08:21:03.207Z</time></trkpt><trkpt lat="43.589625" lon="11.6065183"><ele>296.0</ele><time>2026-05-01T08:21:04.206Z</time></trkpt><trkpt lat="43.5895617" lon="11.60656"><ele>296.0</ele><time>2026-05-01T08:21:05.207Z</time></trkpt><trkpt lat="43.5895" lon="11.6066117"><ele>296.0</ele><time>2026-05-01T08:21:06.208Z</time></trkpt><trkpt lat="43.5894467" lon="11.6066783"><ele>296.0</ele><time>2026-05-01T08:21:07.209Z</time></trkpt><trkpt lat="43.5893967" lon="11.6067517"><ele>295.6666666666667</ele><time>2026-05-01T08:21:08.207Z</time></trkpt><trkpt lat="43.5893517" lon="11.60683"><ele>295.33333333333337</ele><time>2026-05-01T08:21:09.208Z</time></trkpt><trkpt lat="43.58931" lon="11.6069067"><ele>295.0</ele><time>2026-05-01T08:21:10.208Z</time></trkpt><trkpt lat="43.5892667" lon="11.6069867"><ele>294.6666666666667</ele><time>2026-05-01T08:21:11.206Z</time></trkpt><trkpt lat="43.5892233" lon="11.607075"><ele>294.3333333333333</ele><time>2026-05-01T08:21:12.208Z</time></trkpt><trkpt lat="43.58918" lon="11.607165"><ele>294.0</ele><time>2026-05-01T08:21:13.208Z</time></trkpt><trkpt lat="43.5891333" lon="11.60726"><ele>294.0</ele><time>2026-05-01T08:21:14.208Z</time></trkpt><trkpt lat="43.5890833" lon="11.607355"><ele>294.0</ele><time>2026-05-01T08:21:15.208Z</time></trkpt><trkpt lat="43.5890333" lon="11.6074517"><ele>294.0</ele><time>2026-05-01T08:21:16.207Z</time></trkpt><trkpt lat="43.58898" lon="11.6075483"><ele>294.0</ele><time>2026-05-01T08:21:17.21Z</time></trkpt><trkpt lat="43.588925" lon="11.6076467"><ele>294.0</ele><time>2026-05-01T08:21:18.209Z</time></trkpt><trkpt lat="43.5888683" lon="11.6077467"><ele>294.0</ele><time>2026-05-01T08:21:19.207Z</time></trkpt><trkpt lat="43.5888133" lon="11.6078483"><ele>293.8</ele><time>2026-05-01T08:21:20.208Z</time></trkpt><trkpt lat="43.5887633" lon="11.6079617"><ele>293.59999999999997</ele><time>2026-05-01T08:21:21.208Z</time></trkpt><trkpt lat="43.5887317" lon="11.608085"><ele>293.4</ele><time>2026-05-01T08:21:22.208Z</time></trkpt><trkpt lat="43.5887167" lon="11.6082133"><ele>293.2</ele><time>2026-05-01T08:21:23.209Z</time></trkpt><trkpt lat="43.5887183" lon="11.6083467"><ele>293.0</ele><time>2026-05-01T08:21:24.206Z</time></trkpt><trkpt lat="43.5887383" lon="11.6084833"><ele>293.0</ele><time>2026-05-01T08:21:25.21Z</time></trkpt><trkpt lat="43.5887617" lon="11.608625"><ele>293.0</ele><time>2026-05-01T08:21:26.208Z</time></trkpt><trkpt lat="43.5887817" lon="11.60877"><ele>293.0</ele><time>2026-05-01T08:21:27.207Z</time></trkpt><trkpt lat="43.588785" lon="11.608915"><ele>293.0</ele><time>2026-05-01T08:21:28.208Z</time></trkpt><trkpt lat="43.588775" lon="11.6090633"><ele>293.0</ele><time>2026-05-01T08:21:29.206Z</time></trkpt><trkpt lat="43.5887583" lon="11.6092117"><ele>292.8</ele><time>2026-05-01T08:21:30.206Z</time></trkpt><trkpt lat="43.588735" lon="11.6093517"><ele>292.6</ele><time>2026-05-01T08:21:31.207Z</time></trkpt><trkpt lat="43.5887017" lon="11.609485"><ele>292.4</ele><time>2026-05-01T08:21:32.207Z</time></trkpt><trkpt lat="43.5886517" lon="11.609605"><ele>292.2</ele><time>2026-05-01T08:21:33.208Z</time></trkpt><trkpt lat="43.5885867" lon="11.6097117"><ele>292.0</ele><time>2026-05-01T08:21:34.207Z</time></trkpt><trkpt lat="43.5885083" lon="11.6098033"><ele>291.4</ele><time>2026-05-01T08:21:35.209Z</time></trkpt><trkpt lat="43.58842" lon="11.609865"><ele>290.79999999999995</ele><time>2026-05-01T08:21:36.208Z</time></trkpt><trkpt lat="43.5883333" lon="11.60992"><ele>290.2</ele><time>2026-05-01T08:21:37.208Z</time></trkpt><trkpt lat="43.58825" lon="11.60997"><ele>289.59999999999997</ele><time>2026-05-01T08:21:38.208Z</time></trkpt><trkpt lat="43.5881733" lon="11.6100217"><ele>289.0</ele><time>2026-05-01T08:21:39.209Z</time></trkpt><trkpt lat="43.5881" lon="11.6100717"><ele>289.0</ele><time>2026-05-01T08:21:40.208Z</time></trkpt><trkpt lat="43.5880267" lon="11.6101233"><ele>289.0</ele><time>2026-05-01T08:21:41.207Z</time></trkpt><trkpt lat="43.587955" lon="11.61018"><ele>289.0</ele><time>2026-05-01T08:21:42.208Z</time></trkpt><trkpt lat="43.587895" lon="11.61024"><ele>289.0</ele><time>2026-05-01T08:21:43.207Z</time></trkpt><trkpt lat="43.58784" lon="11.61031"><ele>289.0</ele><time>2026-05-01T08:21:44.209Z</time></trkpt><trkpt lat="43.587795" lon="11.6103883"><ele>289.0</ele><time>2026-05-01T08:21:45.208Z</time></trkpt><trkpt lat="43.5877567" lon="11.6104733"><ele>288.8571428571429</ele><time>2026-05-01T08:21:46.208Z</time></trkpt><trkpt lat="43.5877317" lon="11.6105667"><ele>288.7142857142857</ele><time>2026-05-01T08:21:47.208Z</time></trkpt><trkpt lat="43.5877167" lon="11.6106617"><ele>288.57142857142856</ele><time>2026-05-01T08:21:48.207Z</time></trkpt><trkpt lat="43.5877117" lon="11.6107633"><ele>288.42857142857144</ele><time>2026-05-01T08:21:49.207Z</time></trkpt><trkpt lat="43.587725" lon="11.6108683"><ele>288.2857142857143</ele><time>2026-05-01T08:21:50.208Z</time></trkpt><trkpt lat="43.5877517" lon="11.6109667"><ele>288.14285714285717</ele><time>2026-05-01T08:21:51.208Z</time></trkpt><trkpt lat="43.5877933" lon="11.6110567"><ele>288.0</ele><time>2026-05-01T08:21:52.206Z</time></trkpt><trkpt lat="43.5878483" lon="11.6111333"><ele>287.5</ele><time>2026-05-01T08:21:53.207Z</time></trkpt><trkpt lat="43.5879133" lon="11.6111967"><ele>287.0</ele><time>2026-05-01T08:21:54.207Z</time></trkpt><trkpt lat="43.5879883" lon="11.6112533"><ele>286.5</ele><time>2026-05-01T08:21:55.21Z</time></trkpt><trkpt lat="43.588065" lon="11.6113083"><ele>286.0</ele><time>2026-05-01T08:21:56.209Z</time></trkpt><trkpt lat="43.5881433" lon="11.611365"><ele>285.5</ele><time>2026-05-01T08:21:57.207Z</time></trkpt><trkpt lat="43.588225" lon="11.6114167"><ele>285.0</ele><time>2026-05-01T08:21:58.207Z</time></trkpt><trkpt lat="43.588305" lon="11.611465"><ele>285.0</ele><time>2026-05-01T08:21:59.207Z</time></trkpt><trkpt lat="43.5883867" lon="11.6115067"><ele>285.0</ele><time>2026-05-01T08:22:00.207Z</time></trkpt><trkpt lat="43.588475" lon="11.6115483"><ele>285.0</ele><time>2026-05-01T08:22:01.207Z</time></trkpt><trkpt lat="43.5885617" lon="11.6115883"><ele>285.0</ele><time>2026-05-01T08:22:02.207Z</time></trkpt><trkpt lat="43.58865" lon="11.61163"><ele>285.0</ele><time>2026-05-01T08:22:03.208Z</time></trkpt><trkpt lat="43.588735" lon="11.611675"><ele>285.4</ele><time>2026-05-01T08:22:04.207Z</time></trkpt><trkpt lat="43.588815" lon="11.6117383"><ele>285.8</ele><time>2026-05-01T08:22:05.207Z</time></trkpt><trkpt lat="43.58889" lon="11.6118067"><ele>286.2</ele><time>2026-05-01T08:22:06.209Z</time></trkpt><trkpt lat="43.5889567" lon="11.6118933"><ele>286.6</ele><time>2026-05-01T08:22:07.208Z</time></trkpt><trkpt lat="43.5890183" lon="11.6119867"><ele>287.0</ele><time>2026-05-01T08:22:08.208Z</time></trkpt><trkpt lat="43.5890783" lon="11.6120883"><ele>287.0</ele><time>2026-05-01T08:22:09.207Z</time></trkpt><trkpt lat="43.58913" lon="11.6121967"><ele>287.0</ele><time>2026-05-01T08:22:10.207Z</time></trkpt><trkpt lat="43.5891733" lon="11.61232"><ele>287.0</ele><time>2026-05-01T08:22:11.207Z</time></trkpt><trkpt lat="43.5891933" lon="11.61244"><ele>287.0</ele><time>2026-05-01T08:22:12.208Z</time></trkpt><trkpt lat="43.58919" lon="11.6125533"><ele>287.0</ele><time>2026-05-01T08:22:13.208Z</time></trkpt><trkpt lat="43.5891683" lon="11.6126583"><ele>287.0</ele><time>2026-05-01T08:22:14.208Z</time></trkpt><trkpt lat="43.5891267" lon="11.61273"><ele>287.0</ele><time>2026-05-01T08:22:15.207Z</time></trkpt><trkpt lat="43.5890017" lon="11.6127717"><ele>287.0</ele><time>2026-05-01T08:22:17.208Z</time></trkpt><trkpt lat="43.5889283" lon="11.6127667"><ele>287.0</ele><time>2026-05-01T08:22:18.208Z</time></trkpt><trkpt lat="43.588855" lon="11.6127633"><ele>287.0</ele><time>2026-05-01T08:22:19.207Z</time></trkpt><trkpt lat="43.5887417" lon="11.61277"><ele>287.0</ele><time>2026-05-01T08:22:21.207Z</time></trkpt><trkpt lat="43.5886767" lon="11.61278"><ele>286.5</ele><time>2026-05-01T08:22:22.21Z</time></trkpt><trkpt lat="43.58861" lon="11.6127917"><ele>286.0</ele><time>2026-05-01T08:22:23.207Z</time></trkpt><trkpt lat="43.5885433" lon="11.6128033"><ele>285.5</ele><time>2026-05-01T08:22:24.208Z</time></trkpt><trkpt lat="43.5884783" lon="11.6128183"><ele>285.0</ele><time>2026-05-01T08:22:25.207Z</time></trkpt><trkpt lat="43.58837" lon="11.6128583"><ele>284.5</ele><time>2026-05-01T08:22:27.207Z</time></trkpt><trkpt lat="43.5882767" lon="11.6129317"><ele>284.0</ele><time>2026-05-01T08:22:29.207Z</time></trkpt><trkpt lat="43.58819" lon="11.6130217"><ele>285.8</ele><time>2026-05-01T08:22:31.207Z</time></trkpt><trkpt lat="43.5881283" lon="11.61313"><ele>287.59999999999997</ele><time>2026-05-01T08:22:33.208Z</time></trkpt><trkpt lat="43.5881017" lon="11.6132317"><ele>289.4</ele><time>2026-05-01T08:22:35.208Z</time></trkpt><trkpt lat="43.5880567" lon="11.6133633"><ele>291.2</ele><time>2026-05-01T08:22:37.208Z</time></trkpt><trkpt lat="43.5880117" lon="11.6135"><ele>293.0</ele><time>2026-05-01T08:22:39.207Z</time></trkpt><trkpt lat="43.587965" lon="11.6136317"><ele>293.6</ele><time>2026-05-01T08:22:41.206Z</time></trkpt><trkpt lat="43.58792" lon="11.613755"><ele>294.20000000000005</ele><time>2026-05-01T08:22:43.208Z</time></trkpt><trkpt lat="43.587875" lon="11.613885"><ele>294.8</ele><time>2026-05-01T08:22:45.208Z</time></trkpt><trkpt lat="43.587835" lon="11.6140033"><ele>295.40000000000003</ele><time>2026-05-01T08:22:47.209Z</time></trkpt><trkpt lat="43.587805" lon="11.61412"><ele>296.0</ele><time>2026-05-01T08:22:49.208Z</time></trkpt><trkpt lat="43.587785" lon="11.6142367"><ele>296.0</ele><time>2026-05-01T08:22:51.21Z</time></trkpt><trkpt lat="43.587785" lon="11.6143467"><ele>296.0</ele><time>2026-05-01T08:22:53.208Z</time></trkpt><trkpt lat="43.587785" lon="11.614445"><ele>296.0</ele><time>2026-05-01T08:22:55.207Z</time></trkpt><trkpt lat="43.5877833" lon="11.6145667"><ele>296.0</ele><time>2026-05-01T08:22:57.207Z</time></trkpt><trkpt lat="43.5877817" lon="11.6146883"><ele>296.0</ele><time>2026-05-01T08:22:59.209Z</time></trkpt><trkpt lat="43.58778" lon="11.614815"><ele>296.0</ele><time>2026-05-01T08:23:01.209Z</time></trkpt><trkpt lat="43.5877717" lon="11.61493"><ele>296.0</ele><time>2026-05-01T08:23:03.206Z</time></trkpt><trkpt lat="43.5877733" lon="11.6150333"><ele>296.0</ele><time>2026-05-01T08:23:05.207Z</time></trkpt><trkpt lat="43.58777" lon="11.6151333"><ele>296.0</ele><time>2026-05-01T08:23:07.205Z</time></trkpt><trkpt lat="43.5877617" lon="11.6152533"><ele>296.0</ele><time>2026-05-01T08:23:09.207Z</time></trkpt><trkpt lat="43.5877583" lon="11.6153767"><ele>296.0</ele><time>2026-05-01T08:23:11.206Z</time></trkpt><trkpt lat="43.5877583" lon="11.6155033"><ele>296.0</ele><time>2026-05-01T08:23:13.207Z</time></trkpt><trkpt lat="43.5877583" lon="11.6156417"><ele>296.0</ele><time>2026-05-01T08:23:15.208Z</time></trkpt><trkpt lat="43.5877617" lon="11.6157883"><ele>296.0</ele><time>2026-05-01T08:23:17.207Z</time></trkpt><trkpt lat="43.58777" lon="11.6159367"><ele>296.0</ele><time>2026-05-01T08:23:19.209Z</time></trkpt><trkpt lat="43.5877833" lon="11.61607"><ele>296.0</ele><time>2026-05-01T08:23:21.207Z</time></trkpt><trkpt lat="43.587805" lon="11.6162"><ele>296.0</ele><time>2026-05-01T08:23:23.207Z</time></trkpt><trkpt lat="43.5878283" lon="11.6163283"><ele>297.6</ele><time>2026-05-01T08:23:25.207Z</time></trkpt><trkpt lat="43.58786" lon="11.61646"><ele>299.20000000000005</ele><time>2026-05-01T08:23:27.207Z</time></trkpt><trkpt lat="43.5878917" lon="11.616595"><ele>300.79999999999995</ele><time>2026-05-01T08:23:29.209Z</time></trkpt><trkpt lat="43.5879217" lon="11.6167317"><ele>302.4</ele><time>2026-05-01T08:23:31.21Z</time></trkpt><trkpt lat="43.58795" lon="11.6168767"><ele>304.0</ele><time>2026-05-01T08:23:33.209Z</time></trkpt><trkpt lat="43.58798" lon="11.617025"><ele>304.4</ele><time>2026-05-01T08:23:35.207Z</time></trkpt><trkpt lat="43.5880067" lon="11.6171567"><ele>304.79999999999995</ele><time>2026-05-01T08:23:37.208Z</time></trkpt><trkpt lat="43.58804" lon="11.6172867"><ele>305.20000000000005</ele><time>2026-05-01T08:23:39.209Z</time></trkpt><trkpt lat="43.5880667" lon="11.6174067"><ele>305.6</ele><time>2026-05-01T08:23:41.207Z</time></trkpt><trkpt lat="43.5880917" lon="11.6175233"><ele>306.0</ele><time>2026-05-01T08:23:43.206Z</time></trkpt><trkpt lat="43.5881017" lon="11.6176467"><ele>306.0</ele><time>2026-05-01T08:23:45.208Z</time></trkpt><trkpt lat="43.5881033" lon="11.61776"><ele>306.0</ele><time>2026-05-01T08:23:47.207Z</time></trkpt><trkpt lat="43.5880917" lon="11.6178733"><ele>306.0</ele><time>2026-05-01T08:23:49.209Z</time></trkpt><trkpt lat="43.5880733" lon="11.617985"><ele>306.0</ele><time>2026-05-01T08:23:51.207Z</time></trkpt><trkpt lat="43.5880483" lon="11.6180933"><ele>306.0</ele><time>2026-05-01T08:23:53.207Z</time></trkpt><trkpt lat="43.5880133" lon="11.6181833"><ele>306.0</ele><time>2026-05-01T08:23:55.206Z</time></trkpt><trkpt lat="43.5879783" lon="11.6182667"><ele>306.40000000000003</ele><time>2026-05-01T08:23:57.207Z</time></trkpt><trkpt lat="43.5879317" lon="11.6183683"><ele>306.8</ele><time>2026-05-01T08:23:59.206Z</time></trkpt><trkpt lat="43.5878817" lon="11.61847"><ele>307.20000000000005</ele><time>2026-05-01T08:24:01.209Z</time></trkpt><trkpt lat="43.5878317" lon="11.6185783"><ele>307.6</ele><time>2026-05-01T08:24:03.206Z</time></trkpt><trkpt lat="43.5877717" lon="11.6186867"><ele>308.0</ele><time>2026-05-01T08:24:05.207Z</time></trkpt><trkpt lat="43.5877133" lon="11.6187983"><ele>308.0</ele><time>2026-05-01T08:24:07.207Z</time></trkpt><trkpt lat="43.5876567" lon="11.6189083"><ele>308.0</ele><time>2026-05-01T08:24:09.206Z</time></trkpt><trkpt lat="43.5876067" lon="11.6190183"><ele>308.0</ele><time>2026-05-01T08:24:11.209Z</time></trkpt><trkpt lat="43.5875717" lon="11.619145"><ele>308.0</ele><time>2026-05-01T08:24:13.208Z</time></trkpt><trkpt lat="43.5875483" lon="11.619275"><ele>308.0</ele><time>2026-05-01T08:24:15.209Z</time></trkpt><trkpt lat="43.58754" lon="11.6194117"><ele>308.4</ele><time>2026-05-01T08:24:17.208Z</time></trkpt><trkpt lat="43.5875317" lon="11.61956"><ele>308.8</ele><time>2026-05-01T08:24:19.206Z</time></trkpt><trkpt lat="43.58753" lon="11.619705"><ele>309.2</ele><time>2026-05-01T08:24:21.206Z</time></trkpt><trkpt lat="43.58753" lon="11.6198533"><ele>309.6</ele><time>2026-05-01T08:24:23.205Z</time></trkpt><trkpt lat="43.5875117" lon="11.6200217"><ele>310.0</ele><time>2026-05-01T08:24:25.205Z</time></trkpt><trkpt lat="43.5874817" lon="11.6201933"><ele>310.0</ele><time>2026-05-01T08:24:27.204Z</time></trkpt><trkpt lat="43.5874633" lon="11.6202833"><ele>310.0</ele><time>2026-05-01T08:24:28.205Z</time></trkpt><trkpt lat="43.5874417" lon="11.6203733"><ele>310.0</ele><time>2026-05-01T08:24:29.209Z</time></trkpt><trkpt lat="43.5874217" lon="11.6204617"><ele>310.0</ele><time>2026-05-01T08:24:30.208Z</time></trkpt><trkpt lat="43.5874017" lon="11.62055"><ele>310.0</ele><time>2026-05-01T08:24:31.208Z</time></trkpt><trkpt lat="43.5873783" lon="11.6206383"><ele>310.0</ele><time>2026-05-01T08:24:32.209Z</time></trkpt><trkpt lat="43.587355" lon="11.6207233"><ele>310.0</ele><time>2026-05-01T08:24:33.207Z</time></trkpt><trkpt lat="43.5873317" lon="11.6208117"><ele>310.14285714285717</ele><time>2026-05-01T08:24:34.207Z</time></trkpt><trkpt lat="43.58731" lon="11.6209033"><ele>310.2857142857143</ele><time>2026-05-01T08:24:35.208Z</time></trkpt><trkpt lat="43.5872917" lon="11.62099"><ele>310.42857142857144</ele><time>2026-05-01T08:24:36.208Z</time></trkpt><trkpt lat="43.5872717" lon="11.6210767"><ele>310.57142857142856</ele><time>2026-05-01T08:24:37.207Z</time></trkpt><trkpt lat="43.5872533" lon="11.62117"><ele>310.7142857142857</ele><time>2026-05-01T08:24:38.21Z</time></trkpt><trkpt lat="43.5872317" lon="11.621265"><ele>310.85714285714283</ele><time>2026-05-01T08:24:39.209Z</time></trkpt><trkpt lat="43.5872133" lon="11.6213533"><ele>311.0</ele><time>2026-05-01T08:24:40.207Z</time></trkpt><trkpt lat="43.5871967" lon="11.6214467"><ele>311.0</ele><time>2026-05-01T08:24:41.207Z</time></trkpt><trkpt lat="43.5871833" lon="11.6215367"><ele>311.0</ele><time>2026-05-01T08:24:42.21Z</time></trkpt><trkpt lat="43.5871717" lon="11.6216267"><ele>311.0</ele><time>2026-05-01T08:24:43.208Z</time></trkpt><trkpt lat="43.5871633" lon="11.6217233"><ele>311.0</ele><time>2026-05-01T08:24:44.208Z</time></trkpt><trkpt lat="43.5871567" lon="11.6218217"><ele>311.0</ele><time>2026-05-01T08:24:45.207Z</time></trkpt><trkpt lat="43.5871483" lon="11.6219183"><ele>311.0</ele><time>2026-05-01T08:24:46.207Z</time></trkpt><trkpt lat="43.5871433" lon="11.6220083"><ele>311.0</ele><time>2026-05-01T08:24:47.209Z</time></trkpt><trkpt lat="43.5871367" lon="11.6221033"><ele>311.0</ele><time>2026-05-01T08:24:48.208Z</time></trkpt><trkpt lat="43.5871033" lon="11.62227"><ele>311.0</ele><time>2026-05-01T08:24:50.209Z</time></trkpt><trkpt lat="43.58707" lon="11.6223517"><ele>311.0</ele><time>2026-05-01T08:24:51.208Z</time></trkpt><trkpt lat="43.5870317" lon="11.6224267"><ele>311.0</ele><time>2026-05-01T08:24:52.207Z</time></trkpt><trkpt lat="43.5870017" lon="11.6225083"><ele>311.0</ele><time>2026-05-01T08:24:53.208Z</time></trkpt><trkpt lat="43.586995" lon="11.6226033"><ele>311.0</ele><time>2026-05-01T08:24:54.209Z</time></trkpt><trkpt lat="43.5870183" lon="11.6226983"><ele>311.0</ele><time>2026-05-01T08:24:55.208Z</time></trkpt><trkpt lat="43.5870617" lon="11.6227817"><ele>311.0</ele><time>2026-05-01T08:24:56.208Z</time></trkpt><trkpt lat="43.587115" lon="11.6228583"><ele>311.0</ele><time>2026-05-01T08:24:57.206Z</time></trkpt><trkpt lat="43.587165" lon="11.6229433"><ele>311.0</ele><time>2026-05-01T08:24:58.207Z</time></trkpt><trkpt lat="43.5872033" lon="11.62305"><ele>311.0</ele><time>2026-05-01T08:24:59.207Z</time></trkpt><trkpt lat="43.5872367" lon="11.6231583"><ele>311.0</ele><time>2026-05-01T08:25:00.207Z</time></trkpt><trkpt lat="43.5872667" lon="11.6232617"><ele>311.0</ele><time>2026-05-01T08:25:01.208Z</time></trkpt><trkpt lat="43.5872983" lon="11.6233683"><ele>311.0</ele><time>2026-05-01T08:25:02.208Z</time></trkpt><trkpt lat="43.58733" lon="11.6234733"><ele>311.0</ele><time>2026-05-01T08:25:03.207Z</time></trkpt><trkpt lat="43.5873583" lon="11.623575"><ele>311.0</ele><time>2026-05-01T08:25:04.206Z</time></trkpt><trkpt lat="43.58738" lon="11.62368"><ele>311.0</ele><time>2026-05-01T08:25:05.209Z</time></trkpt><trkpt lat="43.5873967" lon="11.623785"><ele>311.0</ele><time>2026-05-01T08:25:06.208Z</time></trkpt><trkpt lat="43.5874133" lon="11.6238917"><ele>311.1428571428571</ele><time>2026-05-01T08:25:07.207Z</time></trkpt><trkpt lat="43.5874267" lon="11.6239967"><ele>311.28571428571433</ele><time>2026-05-01T08:25:08.208Z</time></trkpt><trkpt lat="43.5874417" lon="11.6241017"><ele>311.42857142857144</ele><time>2026-05-01T08:25:09.207Z</time></trkpt><trkpt lat="43.5874567" lon="11.6242067"><ele>311.57142857142856</ele><time>2026-05-01T08:25:10.208Z</time></trkpt><trkpt lat="43.5874717" lon="11.6243033"><ele>311.71428571428567</ele><time>2026-05-01T08:25:11.21Z</time></trkpt><trkpt lat="43.5874833" lon="11.6243967"><ele>311.8571428571429</ele><time>2026-05-01T08:25:12.209Z</time></trkpt><trkpt lat="43.5874967" lon="11.6244967"><ele>312.0</ele><time>2026-05-01T08:25:13.208Z</time></trkpt><trkpt lat="43.587515" lon="11.6245933"><ele>312.0</ele><time>2026-05-01T08:25:14.211Z</time></trkpt><trkpt lat="43.5875367" lon="11.6246917"><ele>312.0</ele><time>2026-05-01T08:25:15.211Z</time></trkpt><trkpt lat="43.5875583" lon="11.6247817"><ele>312.0</ele><time>2026-05-01T08:25:16.208Z</time></trkpt><trkpt lat="43.587585" lon="11.6248633"><ele>312.0</ele><time>2026-05-01T08:25:17.207Z</time></trkpt><trkpt lat="43.58765" lon="11.625005"><ele>312.0</ele><time>2026-05-01T08:25:19.209Z</time></trkpt><trkpt lat="43.5876867" lon="11.62508"><ele>312.0</ele><time>2026-05-01T08:25:20.209Z</time></trkpt><trkpt lat="43.5877217" lon="11.62516"><ele>312.0</ele><time>2026-05-01T08:25:21.209Z</time></trkpt><trkpt lat="43.58776" lon="11.625235"><ele>312.0</ele><time>2026-05-01T08:25:22.207Z</time></trkpt><trkpt lat="43.5878" lon="11.6253117"><ele>312.0</ele><time>2026-05-01T08:25:23.211Z</time></trkpt><trkpt lat="43.5878417" lon="11.625385"><ele>312.0</ele><time>2026-05-01T08:25:24.209Z</time></trkpt><trkpt lat="43.5879133" lon="11.625525"><ele>312.0</ele><time>2026-05-01T08:25:26.208Z</time></trkpt><trkpt lat="43.587985" lon="11.6256633"><ele>313.75</ele><time>2026-05-01T08:25:28.208Z</time></trkpt><trkpt lat="43.5880533" lon="11.6257983"><ele>315.5</ele><time>2026-05-01T08:25:30.209Z</time></trkpt><trkpt lat="43.58812" lon="11.6259383"><ele>317.25</ele><time>2026-05-01T08:25:32.208Z</time></trkpt><trkpt lat="43.588155" lon="11.6260933"><ele>319.0</ele><time>2026-05-01T08:25:34.208Z</time></trkpt><trkpt lat="43.5881483" lon="11.6262617"><ele>319.25</ele><time>2026-05-01T08:25:36.207Z</time></trkpt><trkpt lat="43.5881083" lon="11.6264217"><ele>319.5</ele><time>2026-05-01T08:25:38.21Z</time></trkpt><trkpt lat="43.588045" lon="11.6265633"><ele>319.75</ele><time>2026-05-01T08:25:40.208Z</time></trkpt><trkpt lat="43.5879717" lon="11.6266917"><ele>320.0</ele><time>2026-05-01T08:25:42.207Z</time></trkpt><trkpt lat="43.5879117" lon="11.6268267"><ele>320.2</ele><time>2026-05-01T08:25:44.209Z</time></trkpt><trkpt lat="43.5878967" lon="11.6269833"><ele>320.4</ele><time>2026-05-01T08:25:46.207Z</time></trkpt><trkpt lat="43.587955" lon="11.6271367"><ele>320.6</ele><time>2026-05-01T08:25:48.209Z</time></trkpt><trkpt lat="43.5880383" lon="11.6272683"><ele>320.8</ele><time>2026-05-01T08:25:50.208Z</time></trkpt><trkpt lat="43.588075" lon="11.62734"><ele>321.0</ele><time>2026-05-01T08:25:51.208Z</time></trkpt><trkpt lat="43.5881067" lon="11.627495"><ele>320.99999999999994</ele><time>2026-05-01T08:25:53.208Z</time></trkpt><trkpt lat="43.588105" lon="11.6275867"><ele>321.0</ele><time>2026-05-01T08:25:54.209Z</time></trkpt><trkpt lat="43.588095" lon="11.627675"><ele>321.0</ele><time>2026-05-01T08:25:55.208Z</time></trkpt><trkpt lat="43.5880767" lon="11.6277683"><ele>321.0</ele><time>2026-05-01T08:25:56.208Z</time></trkpt><trkpt lat="43.588055" lon="11.6278533"><ele>321.0</ele><time>2026-05-01T08:25:57.207Z</time></trkpt><trkpt lat="43.58803" lon="11.62794"><ele>320.99999999999994</ele><time>2026-05-01T08:25:58.209Z</time></trkpt><trkpt lat="43.588005" lon="11.6280233"><ele>321.0</ele><time>2026-05-01T08:25:59.208Z</time></trkpt><trkpt lat="43.5879833" lon="11.6281217"><ele>321.0</ele><time>2026-05-01T08:26:00.21Z</time></trkpt><trkpt lat="43.5879617" lon="11.628225"><ele>321.0</ele><time>2026-05-01T08:26:01.211Z</time></trkpt><trkpt lat="43.5879367" lon="11.6283333"><ele>321.0</ele><time>2026-05-01T08:26:02.207Z</time></trkpt><trkpt lat="43.5879167" lon="11.6284483"><ele>321.0</ele><time>2026-05-01T08:26:03.207Z</time></trkpt><trkpt lat="43.5879067" lon="11.6285633"><ele>321.0</ele><time>2026-05-01T08:26:04.207Z</time></trkpt><trkpt lat="43.5879167" lon="11.6286883"><ele>321.0</ele><time>2026-05-01T08:26:05.212Z</time></trkpt><trkpt lat="43.5879433" lon="11.6288"><ele>318.8</ele><time>2026-05-01T08:26:06.208Z</time></trkpt><trkpt lat="43.5879917" lon="11.6289267"><ele>316.6</ele><time>2026-05-01T08:26:07.207Z</time></trkpt><trkpt lat="43.5880583" lon="11.6290267"><ele>314.4</ele><time>2026-05-01T08:26:08.209Z</time></trkpt><trkpt lat="43.5881417" lon="11.6291167"><ele>312.2</ele><time>2026-05-01T08:26:09.207Z</time></trkpt><trkpt lat="43.5882383" lon="11.6291883"><ele>310.0</ele><time>2026-05-01T08:26:10.207Z</time></trkpt><trkpt lat="43.5883483" lon="11.6292333"><ele>310.0</ele><time>2026-05-01T08:26:11.207Z</time></trkpt><trkpt lat="43.5884683" lon="11.6292783"><ele>310.0</ele><time>2026-05-01T08:26:12.207Z</time></trkpt><trkpt lat="43.58859" lon="11.6293333"><ele>310.0</ele><time>2026-05-01T08:26:13.209Z</time></trkpt><trkpt lat="43.588715" lon="11.6293983"><ele>310.0</ele><time>2026-05-01T08:26:14.207Z</time></trkpt><trkpt lat="43.588835" lon="11.6294617"><ele>307.0</ele><time>2026-05-01T08:26:15.207Z</time></trkpt><trkpt lat="43.58896" lon="11.6295267"><ele>304.0</ele><time>2026-05-01T08:26:16.207Z</time></trkpt><trkpt lat="43.5890833" lon="11.6295917"><ele>301.0</ele><time>2026-05-01T08:26:17.207Z</time></trkpt><trkpt lat="43.5892067" lon="11.629655"><ele>298.0</ele><time>2026-05-01T08:26:18.208Z</time></trkpt><trkpt lat="43.58933" lon="11.62971"><ele>298.0</ele><time>2026-05-01T08:26:19.209Z</time></trkpt><trkpt lat="43.5894567" lon="11.6297583"><ele>298.0</ele><time>2026-05-01T08:26:20.207Z</time></trkpt><trkpt lat="43.5895833" lon="11.6298033"><ele>298.0</ele><time>2026-05-01T08:26:21.208Z</time></trkpt><trkpt lat="43.5897" lon="11.629845"><ele>298.0</ele><time>2026-05-01T08:26:22.207Z</time></trkpt><trkpt lat="43.5898183" lon="11.6298967"><ele>299.5</ele><time>2026-05-01T08:26:23.208Z</time></trkpt><trkpt lat="43.5899317" lon="11.6299617"><ele>301.0</ele><time>2026-05-01T08:26:24.207Z</time></trkpt><trkpt lat="43.59004" lon="11.630055"><ele>302.5</ele><time>2026-05-01T08:26:25.209Z</time></trkpt><trkpt lat="43.590135" lon="11.6301667"><ele>304.0</ele><time>2026-05-01T08:26:26.208Z</time></trkpt><trkpt lat="43.5902133" lon="11.6302967"><ele>304.2</ele><time>2026-05-01T08:26:27.207Z</time></trkpt><trkpt lat="43.59027" lon="11.6304417"><ele>304.4</ele><time>2026-05-01T08:26:28.207Z</time></trkpt><trkpt lat="43.5903083" lon="11.63059"><ele>304.6</ele><time>2026-05-01T08:26:29.21Z</time></trkpt><trkpt lat="43.5903333" lon="11.6307383"><ele>304.8</ele><time>2026-05-01T08:26:30.209Z</time></trkpt><trkpt lat="43.5903417" lon="11.6308783"><ele>305.0</ele><time>2026-05-01T08:26:31.207Z</time></trkpt><trkpt lat="43.5903433" lon="11.6310133"><ele>302.83333333333337</ele><time>2026-05-01T08:26:32.208Z</time></trkpt><trkpt lat="43.590335" lon="11.63114"><ele>300.6666666666667</ele><time>2026-05-01T08:26:33.208Z</time></trkpt><trkpt lat="43.5903217" lon="11.63125"><ele>298.5</ele><time>2026-05-01T08:26:34.208Z</time></trkpt><trkpt lat="43.5903117" lon="11.6313533"><ele>296.3333333333333</ele><time>2026-05-01T08:26:35.208Z</time></trkpt><trkpt lat="43.590305" lon="11.63145"><ele>294.16666666666663</ele><time>2026-05-01T08:26:36.207Z</time></trkpt><trkpt lat="43.59029" lon="11.6316233"><ele>292.0</ele><time>2026-05-01T08:26:38.207Z</time></trkpt><trkpt lat="43.5902733" lon="11.6317917"><ele>292.0</ele><time>2026-05-01T08:26:40.208Z</time></trkpt><trkpt lat="43.5902333" lon="11.6319517"><ele>292.0</ele><time>2026-05-01T08:26:42.207Z</time></trkpt><trkpt lat="43.5901583" lon="11.6320833"><ele>292.0</ele><time>2026-05-01T08:26:44.208Z</time></trkpt><trkpt lat="43.5900633" lon="11.6322"><ele>292.0</ele><time>2026-05-01T08:26:46.208Z</time></trkpt><trkpt lat="43.5900083" lon="11.63225"><ele>292.0</ele><time>2026-05-01T08:26:47.207Z</time></trkpt><trkpt lat="43.58995" lon="11.6322983"><ele>294.42857142857144</ele><time>2026-05-01T08:26:48.207Z</time></trkpt><trkpt lat="43.5898917" lon="11.63235"><ele>296.8571428571429</ele><time>2026-05-01T08:26:49.209Z</time></trkpt><trkpt lat="43.5898333" lon="11.6324"><ele>299.28571428571433</ele><time>2026-05-01T08:26:50.209Z</time></trkpt><trkpt lat="43.5897783" lon="11.632445"><ele>301.7142857142857</ele><time>2026-05-01T08:26:51.208Z</time></trkpt><trkpt lat="43.58972" lon="11.63248"><ele>304.14285714285717</ele><time>2026-05-01T08:26:52.207Z</time></trkpt><trkpt lat="43.5896567" lon="11.6325083"><ele>306.5714285714286</ele><time>2026-05-01T08:26:53.208Z</time></trkpt><trkpt lat="43.5895917" lon="11.6325367"><ele>309.0</ele><time>2026-05-01T08:26:54.209Z</time></trkpt><trkpt lat="43.589525" lon="11.6325683"><ele>308.14285714285717</ele><time>2026-05-01T08:26:55.208Z</time></trkpt><trkpt lat="43.5894583" lon="11.6325967"><ele>307.2857142857143</ele><time>2026-05-01T08:26:56.209Z</time></trkpt><trkpt lat="43.5893917" lon="11.63262"><ele>306.42857142857144</ele><time>2026-05-01T08:26:57.207Z</time></trkpt><trkpt lat="43.589325" lon="11.6326367"><ele>305.57142857142856</ele><time>2026-05-01T08:26:58.208Z</time></trkpt><trkpt lat="43.5892583" lon="11.6326367"><ele>304.7142857142857</ele><time>2026-05-01T08:26:59.208Z</time></trkpt><trkpt lat="43.589195" lon="11.63262"><ele>303.8571428571429</ele><time>2026-05-01T08:27:00.207Z</time></trkpt><trkpt lat="43.58913" lon="11.6325983"><ele>303.0</ele><time>2026-05-01T08:27:01.207Z</time></trkpt><trkpt lat="43.58901" lon="11.6325517"><ele>303.0</ele><time>2026-05-01T08:27:03.207Z</time></trkpt><trkpt lat="43.5888933" lon="11.6325217"><ele>303.0</ele><time>2026-05-01T08:27:05.209Z</time></trkpt><trkpt lat="43.5887833" lon="11.6325133"><ele>303.0</ele><time>2026-05-01T08:27:07.207Z</time></trkpt><trkpt lat="43.5886683" lon="11.6325333"><ele>303.0</ele><time>2026-05-01T08:27:09.207Z</time></trkpt><trkpt lat="43.5885567" lon="11.63256"><ele>302.25</ele><time>2026-05-01T08:27:11.207Z</time></trkpt><trkpt lat="43.5884367" lon="11.63259"><ele>301.5</ele><time>2026-05-01T08:27:13.209Z</time></trkpt><trkpt lat="43.588315" lon="11.6326133"><ele>300.75</ele><time>2026-05-01T08:27:15.207Z</time></trkpt><trkpt lat="43.5882" lon="11.6326367"><ele>300.0</ele><time>2026-05-01T08:27:17.208Z</time></trkpt><trkpt lat="43.5880867" lon="11.6326667"><ele>300.0</ele><time>2026-05-01T08:27:19.208Z</time></trkpt><trkpt lat="43.5879833" lon="11.632695"><ele>300.0</ele><time>2026-05-01T08:27:21.207Z</time></trkpt><trkpt lat="43.587875" lon="11.6327217"><ele>300.0</ele><time>2026-05-01T08:27:23.207Z</time></trkpt><trkpt lat="43.5877583" lon="11.6327467"><ele>300.0</ele><time>2026-05-01T08:27:25.21Z</time></trkpt><trkpt lat="43.587655" lon="11.6327733"><ele>300.0</ele><time>2026-05-01T08:27:27.21Z</time></trkpt><trkpt lat="43.58756" lon="11.6328083"><ele>304.0</ele><time>2026-05-01T08:27:29.209Z</time></trkpt><trkpt lat="43.587455" lon="11.6328617"><ele>308.0</ele><time>2026-05-01T08:27:31.208Z</time></trkpt><trkpt lat="43.5873467" lon="11.632935"><ele>312.0</ele><time>2026-05-01T08:27:33.209Z</time></trkpt><trkpt lat="43.5872483" lon="11.6330233"><ele>316.0</ele><time>2026-05-01T08:27:35.207Z</time></trkpt><trkpt lat="43.5871633" lon="11.6331183"><ele>316.0</ele><time>2026-05-01T08:27:37.207Z</time></trkpt><trkpt lat="43.5870883" lon="11.633215"><ele>316.0</ele><time>2026-05-01T08:27:39.207Z</time></trkpt><trkpt lat="43.5870217" lon="11.6333183"><ele>316.0</ele><time>2026-05-01T08:27:41.207Z</time></trkpt><trkpt lat="43.58697" lon="11.6334217"><ele>316.0</ele><time>2026-05-01T08:27:43.209Z</time></trkpt><trkpt lat="43.5869317" lon="11.6335383"><ele>316.0</ele><time>2026-05-01T08:27:45.209Z</time></trkpt><trkpt lat="43.5869017" lon="11.6336667"><ele>316.66666666666663</ele><time>2026-05-01T08:27:47.208Z</time></trkpt><trkpt lat="43.5868767" lon="11.6337967"><ele>317.3333333333333</ele><time>2026-05-01T08:27:49.207Z</time></trkpt><trkpt lat="43.58686" lon="11.6339033"><ele>318.0</ele><time>2026-05-01T08:27:51.208Z</time></trkpt><trkpt lat="43.5868383" lon="11.6340117"><ele>318.6666666666667</ele><time>2026-05-01T08:27:53.207Z</time></trkpt><trkpt lat="43.5868033" lon="11.6341183"><ele>319.33333333333337</ele><time>2026-05-01T08:27:55.208Z</time></trkpt><trkpt lat="43.586755" lon="11.634225"><ele>320.0</ele><time>2026-05-01T08:27:57.206Z</time></trkpt><trkpt lat="43.5866883" lon="11.6343117"><ele>320.0</ele><time>2026-05-01T08:27:59.208Z</time></trkpt><trkpt lat="43.5866067" lon="11.6343767"><ele>320.0</ele><time>2026-05-01T08:28:01.209Z</time></trkpt><trkpt lat="43.586505" lon="11.6344183"><ele>320.0</ele><time>2026-05-01T08:28:03.208Z</time></trkpt><trkpt lat="43.5863917" lon="11.634435"><ele>320.0</ele><time>2026-05-01T08:28:05.207Z</time></trkpt><trkpt lat="43.586275" lon="11.6344183"><ele>320.0</ele><time>2026-05-01T08:28:07.207Z</time></trkpt><trkpt lat="43.5862117" lon="11.6344"><ele>320.1428571428571</ele><time>2026-05-01T08:28:08.207Z</time></trkpt><trkpt lat="43.5861483" lon="11.6343783"><ele>320.2857142857143</ele><time>2026-05-01T08:28:09.207Z</time></trkpt><trkpt lat="43.5860833" lon="11.6343517"><ele>320.42857142857144</ele><time>2026-05-01T08:28:10.208Z</time></trkpt><trkpt lat="43.586015" lon="11.6343217"><ele>320.57142857142856</ele><time>2026-05-01T08:28:11.207Z</time></trkpt><trkpt lat="43.585945" lon="11.6342917"><ele>320.7142857142857</ele><time>2026-05-01T08:28:12.207Z</time></trkpt><trkpt lat="43.5858717" lon="11.6342617"><ele>320.85714285714283</ele><time>2026-05-01T08:28:13.207Z</time></trkpt><trkpt lat="43.585795" lon="11.634235"><ele>321.0</ele><time>2026-05-01T08:28:14.208Z</time></trkpt><trkpt lat="43.58572" lon="11.6342067"><ele>321.0</ele><time>2026-05-01T08:28:15.207Z</time></trkpt><trkpt lat="43.5856417" lon="11.6341783"><ele>321.0</ele><time>2026-05-01T08:28:16.207Z</time></trkpt><trkpt lat="43.5855667" lon="11.6341483"><ele>321.0</ele><time>2026-05-01T08:28:17.206Z</time></trkpt><trkpt lat="43.5854917" lon="11.6341167"><ele>321.0</ele><time>2026-05-01T08:28:18.208Z</time></trkpt><trkpt lat="43.5853517" lon="11.634055"><ele>321.0</ele><time>2026-05-01T08:28:20.208Z</time></trkpt><trkpt lat="43.5852683" lon="11.634025"><ele>321.20000000000005</ele><time>2026-05-01T08:28:21.207Z</time></trkpt><trkpt lat="43.585175" lon="11.6339933"><ele>321.40000000000003</ele><time>2026-05-01T08:28:22.207Z</time></trkpt><trkpt lat="43.5850833" lon="11.63396"><ele>321.6</ele><time>2026-05-01T08:28:23.209Z</time></trkpt><trkpt lat="43.5849867" lon="11.6339267"><ele>321.8</ele><time>2026-05-01T08:28:24.208Z</time></trkpt><trkpt lat="43.58489" lon="11.633895"><ele>322.0</ele><time>2026-05-01T08:28:25.206Z</time></trkpt><trkpt lat="43.584795" lon="11.6338617"><ele>322.0</ele><time>2026-05-01T08:28:26.207Z</time></trkpt><trkpt lat="43.5847" lon="11.633825"><ele>322.0</ele><time>2026-05-01T08:28:27.21Z</time></trkpt><trkpt lat="43.584605" lon="11.6337917"><ele>322.0</ele><time>2026-05-01T08:28:28.207Z</time></trkpt><trkpt lat="43.5845083" lon="11.63376"><ele>322.0</ele><time>2026-05-01T08:28:29.207Z</time></trkpt><trkpt lat="43.584415" lon="11.6337233"><ele>322.0</ele><time>2026-05-01T08:28:30.206Z</time></trkpt><trkpt lat="43.5843117" lon="11.633685"><ele>323.20000000000005</ele><time>2026-05-01T08:28:31.205Z</time></trkpt><trkpt lat="43.5842117" lon="11.6336467"><ele>324.4</ele><time>2026-05-01T08:28:32.209Z</time></trkpt><trkpt lat="43.5841117" lon="11.6336117"><ele>325.6</ele><time>2026-05-01T08:28:33.207Z</time></trkpt><trkpt lat="43.5840183" lon="11.6335767"><ele>326.79999999999995</ele><time>2026-05-01T08:28:34.206Z</time></trkpt><trkpt lat="43.58392" lon="11.633545"><ele>328.0</ele><time>2026-05-01T08:28:35.208Z</time></trkpt><trkpt lat="43.5838433" lon="11.6335133"><ele>324.59999999999997</ele><time>2026-05-01T08:28:36.208Z</time></trkpt><trkpt lat="43.5837433" lon="11.6334867"><ele>321.2</ele><time>2026-05-01T08:28:37.206Z</time></trkpt><trkpt lat="43.583645" lon="11.63346"><ele>317.8</ele><time>2026-05-01T08:28:38.209Z</time></trkpt><trkpt lat="43.5835483" lon="11.6334383"><ele>314.4</ele><time>2026-05-01T08:28:39.208Z</time></trkpt><trkpt lat="43.583455" lon="11.6334167"><ele>311.0</ele><time>2026-05-01T08:28:40.208Z</time></trkpt><trkpt lat="43.5833667" lon="11.6334033"><ele>310.83333333333337</ele><time>2026-05-01T08:28:41.207Z</time></trkpt><trkpt lat="43.5832783" lon="11.6333933"><ele>310.6666666666667</ele><time>2026-05-01T08:28:42.208Z</time></trkpt><trkpt lat="43.5831933" lon="11.633385"><ele>310.5</ele><time>2026-05-01T08:28:43.208Z</time></trkpt><trkpt lat="43.5831067" lon="11.6333783"><ele>310.3333333333333</ele><time>2026-05-01T08:28:44.207Z</time></trkpt><trkpt lat="43.5830233" lon="11.6333717"><ele>310.16666666666663</ele><time>2026-05-01T08:28:45.207Z</time></trkpt><trkpt lat="43.5829517" lon="11.6333617"><ele>310.0</ele><time>2026-05-01T08:28:46.208Z</time></trkpt><trkpt lat="43.5828733" lon="11.6333567"><ele>310.3333333333333</ele><time>2026-05-01T08:28:47.207Z</time></trkpt><trkpt lat="43.5827983" lon="11.6333517"><ele>310.66666666666663</ele><time>2026-05-01T08:28:48.209Z</time></trkpt><trkpt lat="43.58272" lon="11.6333517"><ele>311.0</ele><time>2026-05-01T08:28:49.206Z</time></trkpt><trkpt lat="43.58264" lon="11.633355"><ele>311.3333333333333</ele><time>2026-05-01T08:28:50.207Z</time></trkpt><trkpt lat="43.5825533" lon="11.6333683"><ele>311.6666666666667</ele><time>2026-05-01T08:28:51.208Z</time></trkpt><trkpt lat="43.5824733" lon="11.6333933"><ele>312.0</ele><time>2026-05-01T08:28:52.207Z</time></trkpt><trkpt lat="43.5824" lon="11.6334283"><ele>312.0</ele><time>2026-05-01T08:28:53.208Z</time></trkpt><trkpt lat="43.58233" lon="11.633475"><ele>312.0</ele><time>2026-05-01T08:28:54.209Z</time></trkpt><trkpt lat="43.5822683" lon="11.6335283"><ele>312.0</ele><time>2026-05-01T08:28:55.207Z</time></trkpt><trkpt lat="43.5822167" lon="11.6335917"><ele>312.0</ele><time>2026-05-01T08:28:56.207Z</time></trkpt><trkpt lat="43.5821233" lon="11.6337217"><ele>312.0</ele><time>2026-05-01T08:28:58.208Z</time></trkpt><trkpt lat="43.5820833" lon="11.6338"><ele>312.0</ele><time>2026-05-01T08:28:59.207Z</time></trkpt><trkpt lat="43.5820383" lon="11.6338767"><ele>313.2857142857143</ele><time>2026-05-01T08:29:00.207Z</time></trkpt><trkpt lat="43.581985" lon="11.6339517"><ele>314.57142857142856</ele><time>2026-05-01T08:29:01.209Z</time></trkpt><trkpt lat="43.5819217" lon="11.63402"><ele>315.85714285714283</ele><time>2026-05-01T08:29:02.209Z</time></trkpt><trkpt lat="43.581855" lon="11.6340717"><ele>317.1428571428571</ele><time>2026-05-01T08:29:03.208Z</time></trkpt><trkpt lat="43.581785" lon="11.6341017"><ele>318.42857142857144</ele><time>2026-05-01T08:29:04.208Z</time></trkpt><trkpt lat="43.581715" lon="11.6341133"><ele>319.71428571428567</ele><time>2026-05-01T08:29:05.207Z</time></trkpt><trkpt lat="43.5816483" lon="11.634105"><ele>321.0</ele><time>2026-05-01T08:29:06.207Z</time></trkpt><trkpt lat="43.5815333" lon="11.634065"><ele>321.0</ele><time>2026-05-01T08:29:08.208Z</time></trkpt><trkpt lat="43.5814167" lon="11.6340417"><ele>321.0</ele><time>2026-05-01T08:29:10.207Z</time></trkpt><trkpt lat="43.5812917" lon="11.6340583"><ele>321.0</ele><time>2026-05-01T08:29:12.208Z</time></trkpt><trkpt lat="43.581215" lon="11.6340867"><ele>321.0</ele><time>2026-05-01T08:29:13.207Z</time></trkpt><trkpt lat="43.5811467" lon="11.6341267"><ele>321.0</ele><time>2026-05-01T08:29:14.207Z</time></trkpt><trkpt lat="43.58108" lon="11.6341733"><ele>321.57142857142856</ele><time>2026-05-01T08:29:15.207Z</time></trkpt><trkpt lat="43.5810167" lon="11.6342233"><ele>322.1428571428571</ele><time>2026-05-01T08:29:16.208Z</time></trkpt><trkpt lat="43.5809633" lon="11.634275"><ele>322.71428571428567</ele><time>2026-05-01T08:29:17.208Z</time></trkpt><trkpt lat="43.5809133" lon="11.63433"><ele>323.2857142857143</ele><time>2026-05-01T08:29:18.207Z</time></trkpt><trkpt lat="43.58086" lon="11.6343833"><ele>323.8571428571429</ele><time>2026-05-01T08:29:19.208Z</time></trkpt><trkpt lat="43.5808083" lon="11.63444"><ele>324.4285714285714</ele><time>2026-05-01T08:29:20.207Z</time></trkpt><trkpt lat="43.5807533" lon="11.6345017"><ele>325.0</ele><time>2026-05-01T08:29:21.209Z</time></trkpt><trkpt lat="43.5806983" lon="11.634565"><ele>325.0</ele><time>2026-05-01T08:29:22.207Z</time></trkpt><trkpt lat="43.5806467" lon="11.6346267"><ele>325.0</ele><time>2026-05-01T08:29:23.207Z</time></trkpt><trkpt lat="43.580595" lon="11.6346867"><ele>325.0</ele><time>2026-05-01T08:29:24.207Z</time></trkpt><trkpt lat="43.5805417" lon="11.634745"><ele>325.0</ele><time>2026-05-01T08:29:25.207Z</time></trkpt><trkpt lat="43.580485" lon="11.6348033"><ele>325.0</ele><time>2026-05-01T08:29:26.207Z</time></trkpt><trkpt lat="43.58043" lon="11.63486"><ele>325.0</ele><time>2026-05-01T08:29:27.209Z</time></trkpt><trkpt lat="43.5803767" lon="11.634915"><ele>325.0</ele><time>2026-05-01T08:29:28.208Z</time></trkpt><trkpt lat="43.580325" lon="11.6349717"><ele>324.2</ele><time>2026-05-01T08:29:29.207Z</time></trkpt><trkpt lat="43.580275" lon="11.6350283"><ele>323.4</ele><time>2026-05-01T08:29:30.208Z</time></trkpt><trkpt lat="43.5801767" lon="11.6351317"><ele>322.6</ele><time>2026-05-01T08:29:32.207Z</time></trkpt><trkpt lat="43.5800717" lon="11.6352433"><ele>321.8</ele><time>2026-05-01T08:29:34.207Z</time></trkpt><trkpt lat="43.5800217" lon="11.6353067"><ele>321.0</ele><time>2026-05-01T08:29:35.207Z</time></trkpt><trkpt lat="43.5799733" lon="11.6353767"><ele>320.99999999999994</ele><time>2026-05-01T08:29:36.207Z</time></trkpt><trkpt lat="43.5799267" lon="11.6354467"><ele>321.0</ele><time>2026-05-01T08:29:37.208Z</time></trkpt><trkpt lat="43.57988" lon="11.63552"><ele>321.0</ele><time>2026-05-01T08:29:38.209Z</time></trkpt><trkpt lat="43.5798383" lon="11.635595"><ele>321.0</ele><time>2026-05-01T08:29:39.209Z</time></trkpt><trkpt lat="43.5797967" lon="11.6356733"><ele>321.0</ele><time>2026-05-01T08:29:40.207Z</time></trkpt><trkpt lat="43.5797567" lon="11.6357517"><ele>320.99999999999994</ele><time>2026-05-01T08:29:41.208Z</time></trkpt><trkpt lat="43.5797133" lon="11.6358333"><ele>321.0</ele><time>2026-05-01T08:29:42.206Z</time></trkpt><trkpt lat="43.5796733" lon="11.6359117"><ele>321.0</ele><time>2026-05-01T08:29:43.207Z</time></trkpt><trkpt lat="43.5796333" lon="11.63599"><ele>321.0</ele><time>2026-05-01T08:29:44.206Z</time></trkpt><trkpt lat="43.5795883" lon="11.6360767"><ele>321.0</ele><time>2026-05-01T08:29:45.208Z</time></trkpt><trkpt lat="43.5795433" lon="11.636165"><ele>321.0</ele><time>2026-05-01T08:29:46.207Z</time></trkpt><trkpt lat="43.5794967" lon="11.63625"><ele>321.0</ele><time>2026-05-01T08:29:47.207Z</time></trkpt><trkpt lat="43.57945" lon="11.636335"><ele>321.0</ele><time>2026-05-01T08:29:48.207Z</time></trkpt><trkpt lat="43.5794017" lon="11.6364183"><ele>320.6666666666667</ele><time>2026-05-01T08:29:49.209Z</time></trkpt><trkpt lat="43.579355" lon="11.6365017"><ele>320.3333333333333</ele><time>2026-05-01T08:29:50.209Z</time></trkpt><trkpt lat="43.57931" lon="11.6365867"><ele>320.0</ele><time>2026-05-01T08:29:51.208Z</time></trkpt><trkpt lat="43.5792633" lon="11.63668"><ele>319.66666666666663</ele><time>2026-05-01T08:29:52.206Z</time></trkpt><trkpt lat="43.5792183" lon="11.6367733"><ele>319.3333333333333</ele><time>2026-05-01T08:29:53.208Z</time></trkpt><trkpt lat="43.5791783" lon="11.6368733"><ele>319.0</ele><time>2026-05-01T08:29:54.21Z</time></trkpt><trkpt lat="43.5791433" lon="11.6369783"><ele>319.0</ele><time>2026-05-01T08:29:55.207Z</time></trkpt><trkpt lat="43.5791117" lon="11.6370883"><ele>319.0</ele><time>2026-05-01T08:29:56.207Z</time></trkpt><trkpt lat="43.5790833" lon="11.6372033"><ele>319.0</ele><time>2026-05-01T08:29:57.208Z</time></trkpt><trkpt lat="43.57906" lon="11.6373267"><ele>319.0</ele><time>2026-05-01T08:29:58.206Z</time></trkpt><trkpt lat="43.579035" lon="11.6374517"><ele>319.0</ele><time>2026-05-01T08:29:59.208Z</time></trkpt><trkpt lat="43.5790067" lon="11.6375733"><ele>319.0</ele><time>2026-05-01T08:30:00.209Z</time></trkpt><trkpt lat="43.57898" lon="11.6377017"><ele>319.0</ele><time>2026-05-01T08:30:01.209Z</time></trkpt><trkpt lat="43.5789533" lon="11.6378283"><ele>319.0</ele><time>2026-05-01T08:30:02.207Z</time></trkpt><trkpt lat="43.578925" lon="11.637955"><ele>319.0</ele><time>2026-05-01T08:30:03.207Z</time></trkpt><trkpt lat="43.5788983" lon="11.63809"><ele>319.0</ele><time>2026-05-01T08:30:04.208Z</time></trkpt><trkpt lat="43.57887" lon="11.6382233"><ele>319.2</ele><time>2026-05-01T08:30:05.207Z</time></trkpt><trkpt lat="43.5788433" lon="11.638355"><ele>319.4</ele><time>2026-05-01T08:30:06.207Z</time></trkpt><trkpt lat="43.5788183" lon="11.6384883"><ele>319.6</ele><time>2026-05-01T08:30:07.209Z</time></trkpt><trkpt lat="43.5787883" lon="11.6386083"><ele>319.8</ele><time>2026-05-01T08:30:08.208Z</time></trkpt><trkpt lat="43.5787633" lon="11.6387267"><ele>320.0</ele><time>2026-05-01T08:30:09.207Z</time></trkpt><trkpt lat="43.5787383" lon="11.6388483"><ele>320.0</ele><time>2026-05-01T08:30:10.207Z</time></trkpt><trkpt lat="43.5787133" lon="11.6389683"><ele>320.0</ele><time>2026-05-01T08:30:11.206Z</time></trkpt><trkpt lat="43.57869" lon="11.639085"><ele>320.0</ele><time>2026-05-01T08:30:12.209Z</time></trkpt><trkpt lat="43.578665" lon="11.6392"><ele>320.0</ele><time>2026-05-01T08:30:13.207Z</time></trkpt><trkpt lat="43.57864" lon="11.6393117"><ele>320.0</ele><time>2026-05-01T08:30:14.208Z</time></trkpt><trkpt lat="43.578615" lon="11.639425"><ele>320.0</ele><time>2026-05-01T08:30:15.207Z</time></trkpt><trkpt lat="43.57859" lon="11.6395383"><ele>318.5</ele><time>2026-05-01T08:30:16.206Z</time></trkpt><trkpt lat="43.5785633" lon="11.63965"><ele>317.0</ele><time>2026-05-01T08:30:17.208Z</time></trkpt><trkpt lat="43.5785367" lon="11.63976"><ele>315.5</ele><time>2026-05-01T08:30:18.206Z</time></trkpt><trkpt lat="43.5785133" lon="11.6398667"><ele>314.0</ele><time>2026-05-01T08:30:19.207Z</time></trkpt><trkpt lat="43.57849" lon="11.639975"><ele>312.5</ele><time>2026-05-01T08:30:20.207Z</time></trkpt><trkpt lat="43.5784667" lon="11.6400833"><ele>311.0</ele><time>2026-05-01T08:30:21.206Z</time></trkpt><trkpt lat="43.5784417" lon="11.640195"><ele>311.5</ele><time>2026-05-01T08:30:22.208Z</time></trkpt><trkpt lat="43.578415" lon="11.6403067"><ele>312.0</ele><time>2026-05-01T08:30:23.207Z</time></trkpt><trkpt lat="43.57839" lon="11.64042"><ele>312.5</ele><time>2026-05-01T08:30:24.208Z</time></trkpt><trkpt lat="43.5783667" lon="11.64053"><ele>313.0</ele><time>2026-05-01T08:30:25.207Z</time></trkpt><trkpt lat="43.5783383" lon="11.6406367"><ele>313.5</ele><time>2026-05-01T08:30:26.208Z</time></trkpt><trkpt lat="43.5783083" lon="11.64074"><ele>314.0</ele><time>2026-05-01T08:30:27.207Z</time></trkpt><trkpt lat="43.57828" lon="11.6408433"><ele>314.0</ele><time>2026-05-01T08:30:28.208Z</time></trkpt><trkpt lat="43.5782583" lon="11.6409433"><ele>314.0</ele><time>2026-05-01T08:30:29.207Z</time></trkpt><trkpt lat="43.5782383" lon="11.64105"><ele>314.0</ele><time>2026-05-01T08:30:30.207Z</time></trkpt><trkpt lat="43.5782233" lon="11.641155"><ele>314.0</ele><time>2026-05-01T08:30:31.207Z</time></trkpt><trkpt lat="43.5782183" lon="11.6412617"><ele>314.0</ele><time>2026-05-01T08:30:32.207Z</time></trkpt><trkpt lat="43.5782233" lon="11.6413717"><ele>314.0</ele><time>2026-05-01T08:30:33.207Z</time></trkpt><trkpt lat="43.5782333" lon="11.64148"><ele>314.5</ele><time>2026-05-01T08:30:34.208Z</time></trkpt><trkpt lat="43.5782483" lon="11.64159"><ele>315.0</ele><time>2026-05-01T08:30:35.209Z</time></trkpt><trkpt lat="43.5782583" lon="11.6416983"><ele>315.5</ele><time>2026-05-01T08:30:36.207Z</time></trkpt><trkpt lat="43.5782633" lon="11.6418117"><ele>316.0</ele><time>2026-05-01T08:30:37.207Z</time></trkpt><trkpt lat="43.5782567" lon="11.6419217"><ele>316.5</ele><time>2026-05-01T08:30:38.21Z</time></trkpt><trkpt lat="43.5782367" lon="11.6420317"><ele>317.0</ele><time>2026-05-01T08:30:39.208Z</time></trkpt><trkpt lat="43.5782017" lon="11.6421333"><ele>316.6666666666667</ele><time>2026-05-01T08:30:40.206Z</time></trkpt><trkpt lat="43.57815" lon="11.642215"><ele>316.33333333333337</ele><time>2026-05-01T08:30:41.208Z</time></trkpt><trkpt lat="43.5780867" lon="11.6422817"><ele>316.0</ele><time>2026-05-01T08:30:42.207Z</time></trkpt><trkpt lat="43.578015" lon="11.6423267"><ele>315.6666666666667</ele><time>2026-05-01T08:30:43.208Z</time></trkpt><trkpt lat="43.57794" lon="11.64236"><ele>315.3333333333333</ele><time>2026-05-01T08:30:44.208Z</time></trkpt><trkpt lat="43.5778633" lon="11.6423833"><ele>315.0</ele><time>2026-05-01T08:30:45.207Z</time></trkpt><trkpt lat="43.57779" lon="11.6423983"><ele>315.0</ele><time>2026-05-01T08:30:46.208Z</time></trkpt><trkpt lat="43.5777133" lon="11.6424117"><ele>315.0</ele><time>2026-05-01T08:30:47.207Z</time></trkpt><trkpt lat="43.5776333" lon="11.642425"><ele>315.0</ele><time>2026-05-01T08:30:48.206Z</time></trkpt><trkpt lat="43.5775567" lon="11.64243"><ele>315.0</ele><time>2026-05-01T08:30:49.208Z</time></trkpt><trkpt lat="43.5774717" lon="11.642435"><ele>315.0</ele><time>2026-05-01T08:30:50.209Z</time></trkpt><trkpt lat="43.577385" lon="11.6424367"><ele>315.0</ele><time>2026-05-01T08:30:51.208Z</time></trkpt><trkpt lat="43.577295" lon="11.6424383"><ele>315.0</ele><time>2026-05-01T08:30:52.207Z</time></trkpt><trkpt lat="43.5772117" lon="11.6424383"><ele>315.0</ele><time>2026-05-01T08:30:53.208Z</time></trkpt><trkpt lat="43.5771233" lon="11.6424333"><ele>315.0</ele><time>2026-05-01T08:30:54.208Z</time></trkpt><trkpt lat="43.5770383" lon="11.64243"><ele>315.0</ele><time>2026-05-01T08:30:55.208Z</time></trkpt><trkpt lat="43.5769517" lon="11.6424333"><ele>315.0</ele><time>2026-05-01T08:30:56.211Z</time></trkpt><trkpt lat="43.5768617" lon="11.6424517"><ele>315.0</ele><time>2026-05-01T08:30:57.208Z</time></trkpt><trkpt lat="43.576775" lon="11.6424833"><ele>314.2</ele><time>2026-05-01T08:30:58.208Z</time></trkpt><trkpt lat="43.5766917" lon="11.6425217"><ele>313.4</ele><time>2026-05-01T08:30:59.21Z</time></trkpt><trkpt lat="43.576605" lon="11.6425633"><ele>312.6</ele><time>2026-05-01T08:31:00.21Z</time></trkpt><trkpt lat="43.5765217" lon="11.6426067"><ele>311.8</ele><time>2026-05-01T08:31:01.208Z</time></trkpt><trkpt lat="43.5764367" lon="11.6426517"><ele>311.0</ele><time>2026-05-01T08:31:02.21Z</time></trkpt><trkpt lat="43.5763517" lon="11.6426983"><ele>311.0</ele><time>2026-05-01T08:31:03.208Z</time></trkpt><trkpt lat="43.5762633" lon="11.6427467"><ele>311.0</ele><time>2026-05-01T08:31:04.207Z</time></trkpt><trkpt lat="43.5761767" lon="11.6427917"><ele>311.0</ele><time>2026-05-01T08:31:05.211Z</time></trkpt><trkpt lat="43.576095" lon="11.6428367"><ele>311.0</ele><time>2026-05-01T08:31:06.209Z</time></trkpt><trkpt lat="43.57602" lon="11.6428783"><ele>311.0</ele><time>2026-05-01T08:31:07.21Z</time></trkpt><trkpt lat="43.5759383" lon="11.6429183"><ele>311.0</ele><time>2026-05-01T08:31:08.21Z</time></trkpt><trkpt lat="43.5758667" lon="11.6429617"><ele>312.1666666666667</ele><time>2026-05-01T08:31:09.207Z</time></trkpt><trkpt lat="43.5757967" lon="11.6430117"><ele>313.33333333333337</ele><time>2026-05-01T08:31:10.207Z</time></trkpt><trkpt lat="43.5757317" lon="11.6430683"><ele>314.5</ele><time>2026-05-01T08:31:11.209Z</time></trkpt><trkpt lat="43.57567" lon="11.643135"><ele>315.6666666666667</ele><time>2026-05-01T08:31:12.21Z</time></trkpt><trkpt lat="43.5756133" lon="11.643205"><ele>316.8333333333333</ele><time>2026-05-01T08:31:13.208Z</time></trkpt><trkpt lat="43.5755667" lon="11.6432833"><ele>318.0</ele><time>2026-05-01T08:31:14.208Z</time></trkpt><trkpt lat="43.575525" lon="11.6433583"><ele>318.0</ele><time>2026-05-01T08:31:15.209Z</time></trkpt><trkpt lat="43.5754833" lon="11.6434367"><ele>318.0</ele><time>2026-05-01T08:31:16.208Z</time></trkpt><trkpt lat="43.5754433" lon="11.64351"><ele>318.0</ele><time>2026-05-01T08:31:17.207Z</time></trkpt><trkpt lat="43.5753683" lon="11.6436483"><ele>318.0</ele><time>2026-05-01T08:31:19.207Z</time></trkpt><trkpt lat="43.5753033" lon="11.643785"><ele>318.0</ele><time>2026-05-01T08:31:21.209Z</time></trkpt><trkpt lat="43.57524" lon="11.6439317"><ele>318.0</ele><time>2026-05-01T08:31:23.208Z</time></trkpt><trkpt lat="43.57519" lon="11.6440883"><ele>318.0</ele><time>2026-05-01T08:31:25.208Z</time></trkpt><trkpt lat="43.575155" lon="11.6442617"><ele>318.0</ele><time>2026-05-01T08:31:27.209Z</time></trkpt><trkpt lat="43.5751333" lon="11.6443483"><ele>318.0</ele><time>2026-05-01T08:31:28.208Z</time></trkpt><trkpt lat="43.5751117" lon="11.644445"><ele>318.0</ele><time>2026-05-01T08:31:29.208Z</time></trkpt><trkpt lat="43.57509" lon="11.6445383"><ele>318.0</ele><time>2026-05-01T08:31:30.21Z</time></trkpt><trkpt lat="43.575065" lon="11.6446317"><ele>318.0</ele><time>2026-05-01T08:31:31.208Z</time></trkpt><trkpt lat="43.5750367" lon="11.6447233"><ele>318.0</ele><time>2026-05-01T08:31:32.208Z</time></trkpt><trkpt lat="43.5750033" lon="11.6448133"><ele>318.0</ele><time>2026-05-01T08:31:33.21Z</time></trkpt><trkpt lat="43.574965" lon="11.6449"><ele>318.0</ele><time>2026-05-01T08:31:34.209Z</time></trkpt><trkpt lat="43.57492" lon="11.6449767"><ele>318.0</ele><time>2026-05-01T08:31:35.208Z</time></trkpt><trkpt lat="43.5748667" lon="11.6450517"><ele>318.0</ele><time>2026-05-01T08:31:36.208Z</time></trkpt><trkpt lat="43.5748117" lon="11.6451067"><ele>318.0</ele><time>2026-05-01T08:31:37.208Z</time></trkpt><trkpt lat="43.5747533" lon="11.6451517"><ele>318.0</ele><time>2026-05-01T08:31:38.207Z</time></trkpt><trkpt lat="43.5746983" lon="11.6451967"><ele>318.0</ele><time>2026-05-01T08:31:39.208Z</time></trkpt><trkpt lat="43.57464" lon="11.6452517"><ele>318.0</ele><time>2026-05-01T08:31:40.207Z</time></trkpt><trkpt lat="43.5745833" lon="11.6453067"><ele>318.0</ele><time>2026-05-01T08:31:41.208Z</time></trkpt><trkpt lat="43.5745217" lon="11.645365"><ele>318.0</ele><time>2026-05-01T08:31:42.209Z</time></trkpt><trkpt lat="43.574465" lon="11.6454083"><ele>318.0</ele><time>2026-05-01T08:31:43.208Z</time></trkpt><trkpt lat="43.5744067" lon="11.6454583"><ele>318.1428571428571</ele><time>2026-05-01T08:31:44.21Z</time></trkpt><trkpt lat="43.5743467" lon="11.6455083"><ele>318.28571428571433</ele><time>2026-05-01T08:31:45.209Z</time></trkpt><trkpt lat="43.5742883" lon="11.6455583"><ele>318.42857142857144</ele><time>2026-05-01T08:31:46.208Z</time></trkpt><trkpt lat="43.5742333" lon="11.6456117"><ele>318.57142857142856</ele><time>2026-05-01T08:31:47.208Z</time></trkpt><trkpt lat="43.574185" lon="11.6456717"><ele>318.71428571428567</ele><time>2026-05-01T08:31:48.209Z</time></trkpt><trkpt lat="43.5741383" lon="11.6457317"><ele>318.8571428571429</ele><time>2026-05-01T08:31:49.208Z</time></trkpt><trkpt lat="43.5740917" lon="11.6457933"><ele>319.0</ele><time>2026-05-01T08:31:50.21Z</time></trkpt><trkpt lat="43.5740167" lon="11.6459283"><ele>319.0</ele><time>2026-05-01T08:31:52.208Z</time></trkpt><trkpt lat="43.5739667" lon="11.6460817"><ele>319.0</ele><time>2026-05-01T08:31:54.21Z</time></trkpt><trkpt lat="43.57395" lon="11.6461667"><ele>319.0</ele><time>2026-05-01T08:31:55.211Z</time></trkpt><trkpt lat="43.5739367" lon="11.6462517"><ele>319.0</ele><time>2026-05-01T08:31:56.212Z</time></trkpt><trkpt lat="43.57392" lon="11.6463367"><ele>319.0</ele><time>2026-05-01T08:31:57.209Z</time></trkpt><trkpt lat="43.5738933" lon="11.646505"><ele>319.0</ele><time>2026-05-01T08:31:59.209Z</time></trkpt><trkpt lat="43.57387" lon="11.6466733"><ele>320.6</ele><time>2026-05-01T08:32:01.207Z</time></trkpt><trkpt lat="43.5738533" lon="11.6467617"><ele>322.2</ele><time>2026-05-01T08:32:02.21Z</time></trkpt><trkpt lat="43.5738233" lon="11.646925"><ele>323.8</ele><time>2026-05-01T08:32:04.207Z</time></trkpt><trkpt lat="43.5737933" lon="11.6470883"><ele>325.40000000000003</ele><time>2026-05-01T08:32:06.21Z</time></trkpt><trkpt lat="43.5737917" lon="11.6472483"><ele>327.0</ele><time>2026-05-01T08:32:08.209Z</time></trkpt><trkpt lat="43.573805" lon="11.6474117"><ele>327.8</ele><time>2026-05-01T08:32:10.209Z</time></trkpt><trkpt lat="43.5738167" lon="11.6474983"><ele>328.6</ele><time>2026-05-01T08:32:11.21Z</time></trkpt><trkpt lat="43.5738467" lon="11.6476533"><ele>329.40000000000003</ele><time>2026-05-01T08:32:13.207Z</time></trkpt><trkpt lat="43.5738733" lon="11.6478083"><ele>330.20000000000005</ele><time>2026-05-01T08:32:15.21Z</time></trkpt><trkpt lat="43.57387" lon="11.6479783"><ele>331.0</ele><time>2026-05-01T08:32:17.207Z</time></trkpt><trkpt lat="43.5738467" lon="11.648065"><ele>331.8333333333333</ele><time>2026-05-01T08:32:18.21Z</time></trkpt><trkpt lat="43.5738133" lon="11.64815"><ele>332.66666666666663</ele><time>2026-05-01T08:32:19.208Z</time></trkpt><trkpt lat="43.5737717" lon="11.64822"><ele>333.5</ele><time>2026-05-01T08:32:20.208Z</time></trkpt><trkpt lat="43.5736833" lon="11.6483317"><ele>334.3333333333333</ele><time>2026-05-01T08:32:22.208Z</time></trkpt><trkpt lat="43.573605" lon="11.6484617"><ele>335.1666666666667</ele><time>2026-05-01T08:32:24.209Z</time></trkpt><trkpt lat="43.5735617" lon="11.6485317"><ele>336.0</ele><time>2026-05-01T08:32:25.206Z</time></trkpt><trkpt lat="43.5735167" lon="11.6486"><ele>335.2857142857143</ele><time>2026-05-01T08:32:26.209Z</time></trkpt><trkpt lat="43.5734767" lon="11.64868"><ele>334.57142857142856</ele><time>2026-05-01T08:32:27.208Z</time></trkpt><trkpt lat="43.5734383" lon="11.648755"><ele>333.8571428571429</ele><time>2026-05-01T08:32:28.208Z</time></trkpt><trkpt lat="43.573395" lon="11.6488217"><ele>333.1428571428571</ele><time>2026-05-01T08:32:29.208Z</time></trkpt><trkpt lat="43.573355" lon="11.64889"><ele>332.42857142857144</ele><time>2026-05-01T08:32:30.208Z</time></trkpt><trkpt lat="43.5733117" lon="11.64896"><ele>331.7142857142857</ele><time>2026-05-01T08:32:31.209Z</time></trkpt><trkpt lat="43.5732667" lon="11.6490317"><ele>331.0</ele><time>2026-05-01T08:32:32.208Z</time></trkpt><trkpt lat="43.5731783" lon="11.6491533"><ele>331.0</ele><time>2026-05-01T08:32:34.208Z</time></trkpt><trkpt lat="43.573125" lon="11.6492"><ele>331.0</ele><time>2026-05-01T08:32:35.21Z</time></trkpt><trkpt lat="43.5730633" lon="11.6492333"><ele>331.0</ele><time>2026-05-01T08:32:36.208Z</time></trkpt><trkpt lat="43.5730017" lon="11.6492517"><ele>331.0</ele><time>2026-05-01T08:32:37.21Z</time></trkpt><trkpt lat="43.5729367" lon="11.649265"><ele>331.0</ele><time>2026-05-01T08:32:38.208Z</time></trkpt><trkpt lat="43.5728717" lon="11.64928"><ele>331.0</ele><time>2026-05-01T08:32:39.208Z</time></trkpt><trkpt lat="43.572805" lon="11.6492983"><ele>331.0</ele><time>2026-05-01T08:32:40.211Z</time></trkpt><trkpt lat="43.5727367" lon="11.649325"><ele>330.42857142857144</ele><time>2026-05-01T08:32:41.208Z</time></trkpt><trkpt lat="43.5726733" lon="11.64936"><ele>329.85714285714283</ele><time>2026-05-01T08:32:42.209Z</time></trkpt><trkpt lat="43.572615" lon="11.649405"><ele>329.2857142857143</ele><time>2026-05-01T08:32:43.208Z</time></trkpt><trkpt lat="43.5725633" lon="11.64946"><ele>328.7142857142857</ele><time>2026-05-01T08:32:44.208Z</time></trkpt><trkpt lat="43.572515" lon="11.6495283"><ele>328.14285714285717</ele><time>2026-05-01T08:32:45.209Z</time></trkpt><trkpt lat="43.5724733" lon="11.64961"><ele>327.57142857142856</ele><time>2026-05-01T08:32:46.207Z</time></trkpt><trkpt lat="43.5724383" lon="11.6497033"><ele>327.0</ele><time>2026-05-01T08:32:47.208Z</time></trkpt><trkpt lat="43.5724067" lon="11.6498017"><ele>327.0</ele><time>2026-05-01T08:32:48.208Z</time></trkpt><trkpt lat="43.5723767" lon="11.6499033"><ele>327.0</ele><time>2026-05-01T08:32:49.208Z</time></trkpt><trkpt lat="43.5723467" lon="11.6500067"><ele>327.0</ele><time>2026-05-01T08:32:50.208Z</time></trkpt><trkpt lat="43.572305" lon="11.6501083"><ele>327.0</ele><time>2026-05-01T08:32:51.21Z</time></trkpt><trkpt lat="43.572245" lon="11.6502"><ele>327.0</ele><time>2026-05-01T08:32:52.208Z</time></trkpt><trkpt lat="43.5721717" lon="11.6502583"><ele>327.0</ele><time>2026-05-01T08:32:53.208Z</time></trkpt><trkpt lat="43.5720933" lon="11.6502833"><ele>326.0</ele><time>2026-05-01T08:32:54.208Z</time></trkpt><trkpt lat="43.5720067" lon="11.6502683"><ele>325.0</ele><time>2026-05-01T08:32:55.209Z</time></trkpt><trkpt lat="43.57192" lon="11.650235"><ele>324.0</ele><time>2026-05-01T08:32:56.209Z</time></trkpt><trkpt lat="43.5718433" lon="11.6501933"><ele>323.0</ele><time>2026-05-01T08:32:57.208Z</time></trkpt><trkpt lat="43.571775" lon="11.6501517"><ele>322.0</ele><time>2026-05-01T08:32:58.208Z</time></trkpt><trkpt lat="43.5717" lon="11.6501217"><ele>321.0</ele><time>2026-05-01T08:32:59.208Z</time></trkpt><trkpt lat="43.5716167" lon="11.6501117"><ele>321.0</ele><time>2026-05-01T08:33:00.209Z</time></trkpt><trkpt lat="43.5715267" lon="11.6501283"><ele>321.0</ele><time>2026-05-01T08:33:01.208Z</time></trkpt><trkpt lat="43.571445" lon="11.6501667"><ele>321.0</ele><time>2026-05-01T08:33:02.208Z</time></trkpt><trkpt lat="43.5713633" lon="11.6502233"><ele>321.0</ele><time>2026-05-01T08:33:03.209Z</time></trkpt><trkpt lat="43.5712917" lon="11.6503"><ele>321.0</ele><time>2026-05-01T08:33:04.207Z</time></trkpt><trkpt lat="43.5712283" lon="11.6503917"><ele>319.3333333333333</ele><time>2026-05-01T08:33:05.207Z</time></trkpt><trkpt lat="43.5711817" lon="11.6504983"><ele>317.6666666666667</ele><time>2026-05-01T08:33:06.207Z</time></trkpt><trkpt lat="43.5711417" lon="11.6506133"><ele>316.0</ele><time>2026-05-01T08:33:07.209Z</time></trkpt><trkpt lat="43.5711067" lon="11.6507267"><ele>314.33333333333337</ele><time>2026-05-01T08:33:08.209Z</time></trkpt><trkpt lat="43.5710767" lon="11.6508433"><ele>312.6666666666667</ele><time>2026-05-01T08:33:09.207Z</time></trkpt><trkpt lat="43.5710583" lon="11.6509617"><ele>311.0</ele><time>2026-05-01T08:33:10.208Z</time></trkpt><trkpt lat="43.571055" lon="11.6510817"><ele>311.8</ele><time>2026-05-01T08:33:11.207Z</time></trkpt><trkpt lat="43.571065" lon="11.6512"><ele>312.6</ele><time>2026-05-01T08:33:12.207Z</time></trkpt><trkpt lat="43.5710933" lon="11.65132"><ele>313.4</ele><time>2026-05-01T08:33:13.207Z</time></trkpt><trkpt lat="43.571135" lon="11.6514383"><ele>314.2</ele><time>2026-05-01T08:33:14.208Z</time></trkpt><trkpt lat="43.5711767" lon="11.6515583"><ele>315.0</ele><time>2026-05-01T08:33:15.207Z</time></trkpt><trkpt lat="43.5712083" lon="11.651685"><ele>316.6666666666667</ele><time>2026-05-01T08:33:16.207Z</time></trkpt><trkpt lat="43.5712167" lon="11.651805"><ele>318.3333333333333</ele><time>2026-05-01T08:33:17.207Z</time></trkpt><trkpt lat="43.571195" lon="11.651925"><ele>320.0</ele><time>2026-05-01T08:33:18.21Z</time></trkpt><trkpt lat="43.571145" lon="11.65203"><ele>321.66666666666663</ele><time>2026-05-01T08:33:19.207Z</time></trkpt><trkpt lat="43.5710683" lon="11.6520983"><ele>323.3333333333333</ele><time>2026-05-01T08:33:20.209Z</time></trkpt><trkpt lat="43.5709833" lon="11.6521383"><ele>325.0</ele><time>2026-05-01T08:33:21.207Z</time></trkpt><trkpt lat="43.5708933" lon="11.652155"><ele>325.0</ele><time>2026-05-01T08:33:22.209Z</time></trkpt><trkpt lat="43.570805" lon="11.6521533"><ele>325.0</ele><time>2026-05-01T08:33:23.208Z</time></trkpt><trkpt lat="43.5707167" lon="11.6521367"><ele>325.0</ele><time>2026-05-01T08:33:24.208Z</time></trkpt><trkpt lat="43.57063" lon="11.6521083"><ele>325.0</ele><time>2026-05-01T08:33:25.207Z</time></trkpt><trkpt lat="43.5705517" lon="11.6520767"><ele>325.0</ele><time>2026-05-01T08:33:26.209Z</time></trkpt><trkpt lat="43.5704667" lon="11.65205"><ele>325.0</ele><time>2026-05-01T08:33:27.209Z</time></trkpt><trkpt lat="43.5703867" lon="11.6520183"><ele>325.2857142857143</ele><time>2026-05-01T08:33:28.207Z</time></trkpt><trkpt lat="43.570305" lon="11.651985"><ele>325.5714285714286</ele><time>2026-05-01T08:33:29.208Z</time></trkpt><trkpt lat="43.570235" lon="11.6519483"><ele>325.8571428571429</ele><time>2026-05-01T08:33:30.207Z</time></trkpt><trkpt lat="43.57017" lon="11.651915"><ele>326.1428571428571</ele><time>2026-05-01T08:33:31.209Z</time></trkpt><trkpt lat="43.570105" lon="11.6518833"><ele>326.42857142857144</ele><time>2026-05-01T08:33:32.209Z</time></trkpt><trkpt lat="43.5700417" lon="11.651855"><ele>326.7142857142857</ele><time>2026-05-01T08:33:33.207Z</time></trkpt><trkpt lat="43.5699733" lon="11.6518283"><ele>327.0</ele><time>2026-05-01T08:33:34.208Z</time></trkpt><trkpt lat="43.56991" lon="11.651815"><ele>325.5</ele><time>2026-05-01T08:33:35.207Z</time></trkpt><trkpt lat="43.5698417" lon="11.6518133"><ele>324.0</ele><time>2026-05-01T08:33:36.208Z</time></trkpt><trkpt lat="43.5697767" lon="11.6518233"><ele>322.5</ele><time>2026-05-01T08:33:37.208Z</time></trkpt><trkpt lat="43.569715" lon="11.6518433"><ele>321.0</ele><time>2026-05-01T08:33:38.207Z</time></trkpt><trkpt lat="43.569655" lon="11.6518717"><ele>319.5</ele><time>2026-05-01T08:33:39.207Z</time></trkpt><trkpt lat="43.5695417" lon="11.651945"><ele>318.0</ele><time>2026-05-01T08:33:41.207Z</time></trkpt><trkpt lat="43.5694367" lon="11.6520233"><ele>318.0</ele><time>2026-05-01T08:33:43.207Z</time></trkpt><trkpt lat="43.56933" lon="11.6520567"><ele>318.0</ele><time>2026-05-01T08:33:45.209Z</time></trkpt><trkpt lat="43.56925" lon="11.6520367"><ele>318.0</ele><time>2026-05-01T08:33:46.207Z</time></trkpt><trkpt lat="43.5691867" lon="11.6519817"><ele>318.0</ele><time>2026-05-01T08:33:47.206Z</time></trkpt><trkpt lat="43.56913" lon="11.651905"><ele>318.0</ele><time>2026-05-01T08:33:48.207Z</time></trkpt><trkpt lat="43.569065" lon="11.6518267"><ele>318.0</ele><time>2026-05-01T08:33:49.207Z</time></trkpt><trkpt lat="43.568995" lon="11.651735"><ele>316.8</ele><time>2026-05-01T08:33:50.209Z</time></trkpt><trkpt lat="43.5689167" lon="11.6516417"><ele>315.6</ele><time>2026-05-01T08:33:51.208Z</time></trkpt><trkpt lat="43.5688333" lon="11.6515433"><ele>314.4</ele><time>2026-05-01T08:33:52.206Z</time></trkpt><trkpt lat="43.5687467" lon="11.6514383"><ele>313.2</ele><time>2026-05-01T08:33:53.206Z</time></trkpt><trkpt lat="43.5686517" lon="11.651335"><ele>312.0</ele><time>2026-05-01T08:33:54.208Z</time></trkpt><trkpt lat="43.568555" lon="11.6512267"><ele>309.75</ele><time>2026-05-01T08:33:55.207Z</time></trkpt><trkpt lat="43.568455" lon="11.6511133"><ele>307.5</ele><time>2026-05-01T08:33:56.207Z</time></trkpt><trkpt lat="43.5683533" lon="11.650995"><ele>305.25</ele><time>2026-05-01T08:33:57.208Z</time></trkpt><trkpt lat="43.5682517" lon="11.65088"><ele>303.0</ele><time>2026-05-01T08:33:58.207Z</time></trkpt><trkpt lat="43.5681517" lon="11.6507633"><ele>303.0</ele><time>2026-05-01T08:33:59.206Z</time></trkpt><trkpt lat="43.5680517" lon="11.6506483"><ele>303.0</ele><time>2026-05-01T08:34:00.209Z</time></trkpt><trkpt lat="43.567945" lon="11.65053"><ele>303.0</ele><time>2026-05-01T08:34:01.208Z</time></trkpt><trkpt lat="43.5678367" lon="11.65041"><ele>303.0</ele><time>2026-05-01T08:34:02.21Z</time></trkpt><trkpt lat="43.56773" lon="11.65029"><ele>301.5</ele><time>2026-05-01T08:34:03.21Z</time></trkpt><trkpt lat="43.5676183" lon="11.6501733"><ele>300.0</ele><time>2026-05-01T08:34:04.208Z</time></trkpt><trkpt lat="43.56751" lon="11.6500533"><ele>298.5</ele><time>2026-05-01T08:34:05.208Z</time></trkpt><trkpt lat="43.5674067" lon="11.6499367"><ele>297.0</ele><time>2026-05-01T08:34:06.211Z</time></trkpt><trkpt lat="43.5673017" lon="11.6498183"><ele>297.0</ele><time>2026-05-01T08:34:07.208Z</time></trkpt><trkpt lat="43.567195" lon="11.6497033"><ele>297.0</ele><time>2026-05-01T08:34:08.207Z</time></trkpt><trkpt lat="43.5670917" lon="11.64959"><ele>297.0</ele><time>2026-05-01T08:34:09.207Z</time></trkpt><trkpt lat="43.5669883" lon="11.6494817"><ele>297.0</ele><time>2026-05-01T08:34:10.207Z</time></trkpt><trkpt lat="43.566885" lon="11.6493767"><ele>295.75</ele><time>2026-05-01T08:34:11.209Z</time></trkpt><trkpt lat="43.5667867" lon="11.6492683"><ele>294.5</ele><time>2026-05-01T08:34:12.207Z</time></trkpt><trkpt lat="43.5666883" lon="11.64916"><ele>293.25</ele><time>2026-05-01T08:34:13.21Z</time></trkpt><trkpt lat="43.5665917" lon="11.6490517"><ele>292.0</ele><time>2026-05-01T08:34:14.211Z</time></trkpt><trkpt lat="43.566495" lon="11.648945"><ele>292.0</ele><time>2026-05-01T08:34:15.208Z</time></trkpt><trkpt lat="43.5664" lon="11.6488367"><ele>292.0</ele><time>2026-05-01T08:34:16.207Z</time></trkpt><trkpt lat="43.566305" lon="11.6487317"><ele>292.0</ele><time>2026-05-01T08:34:17.207Z</time></trkpt><trkpt lat="43.56621" lon="11.6486283"><ele>292.0</ele><time>2026-05-01T08:34:18.209Z</time></trkpt><trkpt lat="43.5661167" lon="11.6485267"><ele>291.25</ele><time>2026-05-01T08:34:19.206Z</time></trkpt><trkpt lat="43.56602" lon="11.6484267"><ele>290.5</ele><time>2026-05-01T08:34:20.209Z</time></trkpt><trkpt lat="43.5659267" lon="11.6483267"><ele>289.75</ele><time>2026-05-01T08:34:21.208Z</time></trkpt><trkpt lat="43.5658383" lon="11.6482267"><ele>289.0</ele><time>2026-05-01T08:34:22.208Z</time></trkpt><trkpt lat="43.565745" lon="11.6481233"><ele>289.0</ele><time>2026-05-01T08:34:23.209Z</time></trkpt><trkpt lat="43.56565" lon="11.64802"><ele>289.0</ele><time>2026-05-01T08:34:24.211Z</time></trkpt><trkpt lat="43.5655533" lon="11.64792"><ele>289.0</ele><time>2026-05-01T08:34:25.21Z</time></trkpt><trkpt lat="43.565455" lon="11.6478183"><ele>289.0</ele><time>2026-05-01T08:34:26.208Z</time></trkpt><trkpt lat="43.5653517" lon="11.6477133"><ele>287.75</ele><time>2026-05-01T08:34:27.207Z</time></trkpt><trkpt lat="43.5652467" lon="11.647605"><ele>286.5</ele><time>2026-05-01T08:34:28.207Z</time></trkpt><trkpt lat="43.5651433" lon="11.6474983"><ele>285.25</ele><time>2026-05-01T08:34:29.209Z</time></trkpt><trkpt lat="43.5650417" lon="11.6473933"><ele>284.0</ele><time>2026-05-01T08:34:30.207Z</time></trkpt><trkpt lat="43.56494" lon="11.6472833"><ele>284.0</ele><time>2026-05-01T08:34:31.207Z</time></trkpt><trkpt lat="43.5648383" lon="11.647175"><ele>284.0</ele><time>2026-05-01T08:34:32.208Z</time></trkpt><trkpt lat="43.5647383" lon="11.6470717"><ele>284.0</ele><time>2026-05-01T08:34:33.209Z</time></trkpt><trkpt lat="43.5646417" lon="11.6469683"><ele>284.0</ele><time>2026-05-01T08:34:34.209Z</time></trkpt><trkpt lat="43.5645433" lon="11.6468633"><ele>283.25</ele><time>2026-05-01T08:34:35.209Z</time></trkpt><trkpt lat="43.5644433" lon="11.6467567"><ele>282.5</ele><time>2026-05-01T08:34:36.208Z</time></trkpt><trkpt lat="43.5643433" lon="11.64665"><ele>281.75</ele><time>2026-05-01T08:34:37.207Z</time></trkpt><trkpt lat="43.5642417" lon="11.6465433"><ele>281.0</ele><time>2026-05-01T08:34:38.209Z</time></trkpt><trkpt lat="43.5641367" lon="11.6464333"><ele>281.0</ele><time>2026-05-01T08:34:39.207Z</time></trkpt><trkpt lat="43.5640333" lon="11.6463267"><ele>281.0</ele><time>2026-05-01T08:34:40.209Z</time></trkpt><trkpt lat="43.56393" lon="11.64622"><ele>281.0</ele><time>2026-05-01T08:34:41.207Z</time></trkpt><trkpt lat="43.5638267" lon="11.6461133"><ele>281.0</ele><time>2026-05-01T08:34:42.208Z</time></trkpt><trkpt lat="43.5637233" lon="11.64601"><ele>281.0</ele><time>2026-05-01T08:34:43.209Z</time></trkpt><trkpt lat="43.5636183" lon="11.645905"><ele>281.0</ele><time>2026-05-01T08:34:44.208Z</time></trkpt><trkpt lat="43.5635167" lon="11.6458"><ele>281.0</ele><time>2026-05-01T08:34:45.209Z</time></trkpt><trkpt lat="43.5634133" lon="11.6456933"><ele>281.0</ele><time>2026-05-01T08:34:46.211Z</time></trkpt><trkpt lat="43.56331" lon="11.645585"><ele>281.0</ele><time>2026-05-01T08:34:47.21Z</time></trkpt><trkpt lat="43.5632083" lon="11.64548"><ele>281.0</ele><time>2026-05-01T08:34:48.206Z</time></trkpt><trkpt lat="43.5631017" lon="11.645375"><ele>281.0</ele><time>2026-05-01T08:34:49.208Z</time></trkpt><trkpt lat="43.5629967" lon="11.6452733"><ele>281.0</ele><time>2026-05-01T08:34:50.209Z</time></trkpt><trkpt lat="43.5628933" lon="11.645165"><ele>279.5</ele><time>2026-05-01T08:34:51.21Z</time></trkpt><trkpt lat="43.5627917" lon="11.6450567"><ele>278.0</ele><time>2026-05-01T08:34:52.207Z</time></trkpt><trkpt lat="43.5626883" lon="11.64495"><ele>276.5</ele><time>2026-05-01T08:34:53.209Z</time></trkpt><trkpt lat="43.562585" lon="11.6448367"><ele>275.0</ele><time>2026-05-01T08:34:54.207Z</time></trkpt><trkpt lat="43.5624833" lon="11.6447317"><ele>275.0</ele><time>2026-05-01T08:34:55.208Z</time></trkpt><trkpt lat="43.5623817" lon="11.644625"><ele>275.0</ele><time>2026-05-01T08:34:56.211Z</time></trkpt><trkpt lat="43.56228" lon="11.6445183"><ele>275.0</ele><time>2026-05-01T08:34:57.208Z</time></trkpt><trkpt lat="43.5621783" lon="11.6444133"><ele>275.0</ele><time>2026-05-01T08:34:58.209Z</time></trkpt><trkpt lat="43.5620783" lon="11.64431"><ele>274.25</ele><time>2026-05-01T08:34:59.21Z</time></trkpt><trkpt lat="43.56198" lon="11.64421"><ele>273.5</ele><time>2026-05-01T08:35:00.208Z</time></trkpt><trkpt lat="43.5618817" lon="11.6441067"><ele>272.75</ele><time>2026-05-01T08:35:01.209Z</time></trkpt><trkpt lat="43.5617833" lon="11.64401"><ele>272.0</ele><time>2026-05-01T08:35:02.208Z</time></trkpt><trkpt lat="43.561685" lon="11.6439133"><ele>272.0</ele><time>2026-05-01T08:35:03.207Z</time></trkpt><trkpt lat="43.5615833" lon="11.64381"><ele>272.0</ele><time>2026-05-01T08:35:04.207Z</time></trkpt><trkpt lat="43.5614833" lon="11.64371"><ele>272.0</ele><time>2026-05-01T08:35:05.208Z</time></trkpt><trkpt lat="43.5613883" lon="11.6436083"><ele>272.0</ele><time>2026-05-01T08:35:06.207Z</time></trkpt><trkpt lat="43.5612983" lon="11.64351"><ele>272.0</ele><time>2026-05-01T08:35:07.208Z</time></trkpt><trkpt lat="43.5612033" lon="11.64341"><ele>272.0</ele><time>2026-05-01T08:35:08.211Z</time></trkpt><trkpt lat="43.5611117" lon="11.6433083"><ele>272.0</ele><time>2026-05-01T08:35:09.209Z</time></trkpt><trkpt lat="43.56102" lon="11.64321"><ele>272.0</ele><time>2026-05-01T08:35:10.209Z</time></trkpt><trkpt lat="43.5609317" lon="11.6430933"><ele>271.5</ele><time>2026-05-01T08:35:11.209Z</time></trkpt><trkpt lat="43.5608533" lon="11.6429633"><ele>271.0</ele><time>2026-05-01T08:35:12.208Z</time></trkpt><trkpt lat="43.5607883" lon="11.6428233"><ele>270.5</ele><time>2026-05-01T08:35:13.207Z</time></trkpt><trkpt lat="43.5607383" lon="11.6426833"><ele>270.0</ele><time>2026-05-01T08:35:14.208Z</time></trkpt><trkpt lat="43.560695" lon="11.6425367"><ele>269.8</ele><time>2026-05-01T08:35:15.208Z</time></trkpt><trkpt lat="43.560655" lon="11.64239"><ele>269.6</ele><time>2026-05-01T08:35:16.209Z</time></trkpt><trkpt lat="43.5606167" lon="11.6422483"><ele>269.4</ele><time>2026-05-01T08:35:17.207Z</time></trkpt><trkpt lat="43.5605783" lon="11.6421017"><ele>269.2</ele><time>2026-05-01T08:35:18.207Z</time></trkpt><trkpt lat="43.56054" lon="11.6419567"><ele>269.0</ele><time>2026-05-01T08:35:19.209Z</time></trkpt><trkpt lat="43.5605" lon="11.641815"><ele>268.75</ele><time>2026-05-01T08:35:20.21Z</time></trkpt><trkpt lat="43.5604567" lon="11.6416667"><ele>268.5</ele><time>2026-05-01T08:35:21.206Z</time></trkpt><trkpt lat="43.5604167" lon="11.6415167"><ele>268.25</ele><time>2026-05-01T08:35:22.206Z</time></trkpt><trkpt lat="43.5603767" lon="11.641365"><ele>268.0</ele><time>2026-05-01T08:35:23.21Z</time></trkpt><trkpt lat="43.5603367" lon="11.641215"><ele>267.75</ele><time>2026-05-01T08:35:24.209Z</time></trkpt><trkpt lat="43.560295" lon="11.641065"><ele>267.5</ele><time>2026-05-01T08:35:25.208Z</time></trkpt><trkpt lat="43.5602533" lon="11.6409167"><ele>267.25</ele><time>2026-05-01T08:35:26.207Z</time></trkpt><trkpt lat="43.5602117" lon="11.6407717"><ele>267.0</ele><time>2026-05-01T08:35:27.207Z</time></trkpt><trkpt lat="43.5601717" lon="11.6406267"><ele>267.0</ele><time>2026-05-01T08:35:28.208Z</time></trkpt><trkpt lat="43.5601333" lon="11.6404833"><ele>267.0</ele><time>2026-05-01T08:35:29.21Z</time></trkpt><trkpt lat="43.560095" lon="11.6403383"><ele>267.0</ele><time>2026-05-01T08:35:30.208Z</time></trkpt><trkpt lat="43.560055" lon="11.6401967"><ele>267.0</ele><time>2026-05-01T08:35:31.208Z</time></trkpt><trkpt lat="43.560015" lon="11.64006"><ele>267.0</ele><time>2026-05-01T08:35:32.208Z</time></trkpt><trkpt lat="43.559975" lon="11.6399267"><ele>266.6</ele><time>2026-05-01T08:35:33.207Z</time></trkpt><trkpt lat="43.5599383" lon="11.6397883"><ele>266.2</ele><time>2026-05-01T08:35:34.207Z</time></trkpt><trkpt lat="43.5598983" lon="11.6396517"><ele>265.8</ele><time>2026-05-01T08:35:35.208Z</time></trkpt><trkpt lat="43.5598583" lon="11.63952"><ele>265.4</ele><time>2026-05-01T08:35:36.207Z</time></trkpt><trkpt lat="43.5598183" lon="11.639385"><ele>265.0</ele><time>2026-05-01T08:35:37.209Z</time></trkpt><trkpt lat="43.55978" lon="11.6392467"><ele>264.4</ele><time>2026-05-01T08:35:38.208Z</time></trkpt><trkpt lat="43.5597433" lon="11.639105"><ele>263.8</ele><time>2026-05-01T08:35:39.208Z</time></trkpt><trkpt lat="43.5597017" lon="11.63897"><ele>263.2</ele><time>2026-05-01T08:35:40.208Z</time></trkpt><trkpt lat="43.5596617" lon="11.6388283"><ele>262.6</ele><time>2026-05-01T08:35:41.209Z</time></trkpt><trkpt lat="43.5596233" lon="11.6386817"><ele>262.0</ele><time>2026-05-01T08:35:42.209Z</time></trkpt><trkpt lat="43.559585" lon="11.6385367"><ele>262.0</ele><time>2026-05-01T08:35:43.207Z</time></trkpt><trkpt lat="43.5595467" lon="11.6383933"><ele>262.0</ele><time>2026-05-01T08:35:44.208Z</time></trkpt><trkpt lat="43.5595067" lon="11.63825"><ele>262.0</ele><time>2026-05-01T08:35:45.207Z</time></trkpt><trkpt lat="43.55947" lon="11.638105"><ele>262.0</ele><time>2026-05-01T08:35:46.209Z</time></trkpt><trkpt lat="43.5594367" lon="11.6379633"><ele>262.0</ele><time>2026-05-01T08:35:47.207Z</time></trkpt><trkpt lat="43.55941" lon="11.6378117"><ele>262.0</ele><time>2026-05-01T08:35:48.207Z</time></trkpt><trkpt lat="43.5593917" lon="11.63766"><ele>262.0</ele><time>2026-05-01T08:35:49.207Z</time></trkpt><trkpt lat="43.5593817" lon="11.63751"><ele>262.0</ele><time>2026-05-01T08:35:50.209Z</time></trkpt><trkpt lat="43.5593767" lon="11.6373583"><ele>262.0</ele><time>2026-05-01T08:35:51.208Z</time></trkpt><trkpt lat="43.559375" lon="11.637205"><ele>262.0</ele><time>2026-05-01T08:35:52.209Z</time></trkpt><trkpt lat="43.559375" lon="11.6370533"><ele>261.8</ele><time>2026-05-01T08:35:53.208Z</time></trkpt><trkpt lat="43.5593767" lon="11.636905"><ele>261.6</ele><time>2026-05-01T08:35:54.208Z</time></trkpt><trkpt lat="43.5593833" lon="11.6367567"><ele>261.40000000000003</ele><time>2026-05-01T08:35:55.207Z</time></trkpt><trkpt lat="43.5593883" lon="11.6366133"><ele>261.2</ele><time>2026-05-01T08:35:56.208Z</time></trkpt><trkpt lat="43.559395" lon="11.6364667"><ele>261.0</ele><time>2026-05-01T08:35:57.209Z</time></trkpt><trkpt lat="43.5594" lon="11.6363267"><ele>261.0</ele><time>2026-05-01T08:35:58.208Z</time></trkpt><trkpt lat="43.5594033" lon="11.636175"><ele>261.0</ele><time>2026-05-01T08:35:59.209Z</time></trkpt><trkpt lat="43.559405" lon="11.6360317"><ele>261.0</ele><time>2026-05-01T08:36:00.208Z</time></trkpt><trkpt lat="43.5594067" lon="11.6358867"><ele>261.0</ele><time>2026-05-01T08:36:01.207Z</time></trkpt><trkpt lat="43.55941" lon="11.63574"><ele>261.0</ele><time>2026-05-01T08:36:02.208Z</time></trkpt><trkpt lat="43.559415" lon="11.6355867"><ele>261.0</ele><time>2026-05-01T08:36:03.207Z</time></trkpt><trkpt lat="43.55942" lon="11.6354417"><ele>261.0</ele><time>2026-05-01T08:36:04.207Z</time></trkpt><trkpt lat="43.5594233" lon="11.6352917"><ele>261.0</ele><time>2026-05-01T08:36:05.207Z</time></trkpt><trkpt lat="43.5594267" lon="11.635135"><ele>261.0</ele><time>2026-05-01T08:36:06.208Z</time></trkpt><trkpt lat="43.55943" lon="11.6349817"><ele>261.0</ele><time>2026-05-01T08:36:07.207Z</time></trkpt><trkpt lat="43.559435" lon="11.63482"><ele>261.2</ele><time>2026-05-01T08:36:08.208Z</time></trkpt><trkpt lat="43.55944" lon="11.6346617"><ele>261.40000000000003</ele><time>2026-05-01T08:36:09.207Z</time></trkpt><trkpt lat="43.559445" lon="11.634505"><ele>261.6</ele><time>2026-05-01T08:36:10.209Z</time></trkpt><trkpt lat="43.55945" lon="11.6343583"><ele>261.8</ele><time>2026-05-01T08:36:11.208Z</time></trkpt><trkpt lat="43.55945" lon="11.6342083"><ele>262.0</ele><time>2026-05-01T08:36:12.208Z</time></trkpt><trkpt lat="43.5594517" lon="11.6340583"><ele>261.4</ele><time>2026-05-01T08:36:13.208Z</time></trkpt><trkpt lat="43.559455" lon="11.633905"><ele>260.79999999999995</ele><time>2026-05-01T08:36:14.208Z</time></trkpt><trkpt lat="43.5594583" lon="11.6337533"><ele>260.2</ele><time>2026-05-01T08:36:15.208Z</time></trkpt><trkpt lat="43.5594617" lon="11.6336"><ele>259.59999999999997</ele><time>2026-05-01T08:36:16.207Z</time></trkpt><trkpt lat="43.5594667" lon="11.6334467"><ele>259.0</ele><time>2026-05-01T08:36:17.208Z</time></trkpt><trkpt lat="43.5594733" lon="11.6332883"><ele>258.8</ele><time>2026-05-01T08:36:18.209Z</time></trkpt><trkpt lat="43.5594783" lon="11.6331333"><ele>258.59999999999997</ele><time>2026-05-01T08:36:19.209Z</time></trkpt><trkpt lat="43.559485" lon="11.63298"><ele>258.4</ele><time>2026-05-01T08:36:20.207Z</time></trkpt><trkpt lat="43.55949" lon="11.6328267"><ele>258.2</ele><time>2026-05-01T08:36:21.208Z</time></trkpt><trkpt lat="43.559495" lon="11.632675"><ele>258.0</ele><time>2026-05-01T08:36:22.207Z</time></trkpt><trkpt lat="43.5595" lon="11.63252"><ele>258.0</ele><time>2026-05-01T08:36:23.207Z</time></trkpt><trkpt lat="43.5595033" lon="11.63237"><ele>258.0</ele><time>2026-05-01T08:36:24.209Z</time></trkpt><trkpt lat="43.55951" lon="11.6322133"><ele>258.0</ele><time>2026-05-01T08:36:25.207Z</time></trkpt><trkpt lat="43.5595133" lon="11.63207"><ele>258.0</ele><time>2026-05-01T08:36:26.21Z</time></trkpt><trkpt lat="43.5595183" lon="11.6319233"><ele>258.0</ele><time>2026-05-01T08:36:27.207Z</time></trkpt><trkpt lat="43.5595217" lon="11.6317817"><ele>257.6</ele><time>2026-05-01T08:36:28.207Z</time></trkpt><trkpt lat="43.5595267" lon="11.6316383"><ele>257.20000000000005</ele><time>2026-05-01T08:36:29.207Z</time></trkpt><trkpt lat="43.5595333" lon="11.63149"><ele>256.8</ele><time>2026-05-01T08:36:30.209Z</time></trkpt><trkpt lat="43.55954" lon="11.631345"><ele>256.40000000000003</ele><time>2026-05-01T08:36:31.207Z</time></trkpt><trkpt lat="43.559545" lon="11.6311967"><ele>256.0</ele><time>2026-05-01T08:36:32.207Z</time></trkpt><trkpt lat="43.5595517" lon="11.6310483"><ele>256.8</ele><time>2026-05-01T08:36:33.209Z</time></trkpt><trkpt lat="43.559555" lon="11.6309"><ele>257.6</ele><time>2026-05-01T08:36:34.209Z</time></trkpt><trkpt lat="43.55956" lon="11.63075"><ele>258.4</ele><time>2026-05-01T08:36:35.209Z</time></trkpt><trkpt lat="43.559565" lon="11.6306033"><ele>259.2</ele><time>2026-05-01T08:36:36.21Z</time></trkpt><trkpt lat="43.5595717" lon="11.630455"><ele>260.0</ele><time>2026-05-01T08:36:37.21Z</time></trkpt><trkpt lat="43.5595783" lon="11.63031"><ele>260.0</ele><time>2026-05-01T08:36:38.208Z</time></trkpt><trkpt lat="43.5595833" lon="11.6301633"><ele>260.0</ele><time>2026-05-01T08:36:39.207Z</time></trkpt><trkpt lat="43.559585" lon="11.6300183"><ele>260.0</ele><time>2026-05-01T08:36:40.21Z</time></trkpt><trkpt lat="43.5595867" lon="11.629875"><ele>260.0</ele><time>2026-05-01T08:36:41.208Z</time></trkpt><trkpt lat="43.5595883" lon="11.6297267"><ele>260.0</ele><time>2026-05-01T08:36:42.207Z</time></trkpt><trkpt lat="43.5595933" lon="11.6295767"><ele>259.4</ele><time>2026-05-01T08:36:43.207Z</time></trkpt><trkpt lat="43.5595983" lon="11.6294267"><ele>258.8</ele><time>2026-05-01T08:36:44.208Z</time></trkpt><trkpt lat="43.5596033" lon="11.629275"><ele>258.2</ele><time>2026-05-01T08:36:45.208Z</time></trkpt><trkpt lat="43.55961" lon="11.6291217"><ele>257.6</ele><time>2026-05-01T08:36:46.207Z</time></trkpt><trkpt lat="43.5596167" lon="11.6289733"><ele>257.0</ele><time>2026-05-01T08:36:47.209Z</time></trkpt><trkpt lat="43.55962" lon="11.6288317"><ele>257.0</ele><time>2026-05-01T08:36:48.209Z</time></trkpt><trkpt lat="43.559625" lon="11.6286917"><ele>257.0</ele><time>2026-05-01T08:36:49.209Z</time></trkpt><trkpt lat="43.55963" lon="11.6285517"><ele>257.0</ele><time>2026-05-01T08:36:50.208Z</time></trkpt><trkpt lat="43.5596317" lon="11.6284117"><ele>257.0</ele><time>2026-05-01T08:36:51.209Z</time></trkpt><trkpt lat="43.5596267" lon="11.628275"><ele>257.0</ele><time>2026-05-01T08:36:52.208Z</time></trkpt><trkpt lat="43.5596183" lon="11.628125"><ele>257.0</ele><time>2026-05-01T08:36:53.209Z</time></trkpt><trkpt lat="43.5596017" lon="11.627985"><ele>257.0</ele><time>2026-05-01T08:36:54.208Z</time></trkpt><trkpt lat="43.5595817" lon="11.62785"><ele>257.0</ele><time>2026-05-01T08:36:55.208Z</time></trkpt><trkpt lat="43.5595617" lon="11.6277167"><ele>257.0</ele><time>2026-05-01T08:36:56.206Z</time></trkpt><trkpt lat="43.5595383" lon="11.6275883"><ele>257.0</ele><time>2026-05-01T08:36:57.207Z</time></trkpt><trkpt lat="43.5595067" lon="11.6274783"><ele>257.0</ele><time>2026-05-01T08:36:58.207Z</time></trkpt><trkpt lat="43.5594733" lon="11.627365"><ele>257.0</ele><time>2026-05-01T08:36:59.208Z</time></trkpt><trkpt lat="43.55944" lon="11.627245"><ele>257.0</ele><time>2026-05-01T08:37:00.208Z</time></trkpt><trkpt lat="43.559405" lon="11.6271233"><ele>257.0</ele><time>2026-05-01T08:37:01.207Z</time></trkpt><trkpt lat="43.5593667" lon="11.6270067"><ele>257.0</ele><time>2026-05-01T08:37:02.208Z</time></trkpt><trkpt lat="43.5593283" lon="11.6268883"><ele>256.8</ele><time>2026-05-01T08:37:03.209Z</time></trkpt><trkpt lat="43.5592867" lon="11.626765"><ele>256.6</ele><time>2026-05-01T08:37:04.208Z</time></trkpt><trkpt lat="43.559245" lon="11.62665"><ele>256.40000000000003</ele><time>2026-05-01T08:37:05.208Z</time></trkpt><trkpt lat="43.5592033" lon="11.62653"><ele>256.2</ele><time>2026-05-01T08:37:06.206Z</time></trkpt><trkpt lat="43.559165" lon="11.6264133"><ele>256.0</ele><time>2026-05-01T08:37:07.208Z</time></trkpt><trkpt lat="43.5591167" lon="11.6263033"><ele>256.0</ele><time>2026-05-01T08:37:08.21Z</time></trkpt><trkpt lat="43.55908" lon="11.6261833"><ele>256.0</ele><time>2026-05-01T08:37:09.208Z</time></trkpt><trkpt lat="43.55905" lon="11.62606"><ele>256.0</ele><time>2026-05-01T08:37:10.206Z</time></trkpt><trkpt lat="43.5590283" lon="11.6259317"><ele>256.0</ele><time>2026-05-01T08:37:11.207Z</time></trkpt><trkpt lat="43.5590133" lon="11.6258017"><ele>256.0</ele><time>2026-05-01T08:37:12.209Z</time></trkpt><trkpt lat="43.5590033" lon="11.6256633"><ele>256.2</ele><time>2026-05-01T08:37:13.206Z</time></trkpt><trkpt lat="43.5589983" lon="11.625535"><ele>256.40000000000003</ele><time>2026-05-01T08:37:14.208Z</time></trkpt><trkpt lat="43.558995" lon="11.6254083"><ele>256.6</ele><time>2026-05-01T08:37:15.207Z</time></trkpt><trkpt lat="43.55899" lon="11.6252783"><ele>256.8</ele><time>2026-05-01T08:37:16.206Z</time></trkpt><trkpt lat="43.558985" lon="11.625155"><ele>257.0</ele><time>2026-05-01T08:37:17.206Z</time></trkpt><trkpt lat="43.5589833" lon="11.62502"><ele>257.0</ele><time>2026-05-01T08:37:18.208Z</time></trkpt><trkpt lat="43.5589783" lon="11.6248967"><ele>257.0</ele><time>2026-05-01T08:37:19.208Z</time></trkpt><trkpt lat="43.5589733" lon="11.6247733"><ele>257.0</ele><time>2026-05-01T08:37:20.209Z</time></trkpt><trkpt lat="43.558965" lon="11.62465"><ele>257.0</ele><time>2026-05-01T08:37:21.207Z</time></trkpt><trkpt lat="43.5589517" lon="11.6245317"><ele>257.0</ele><time>2026-05-01T08:37:22.206Z</time></trkpt><trkpt lat="43.55893" lon="11.6244167"><ele>257.0</ele><time>2026-05-01T08:37:23.207Z</time></trkpt><trkpt lat="43.5588983" lon="11.6242983"><ele>257.0</ele><time>2026-05-01T08:37:24.206Z</time></trkpt><trkpt lat="43.55886" lon="11.624185"><ele>257.0</ele><time>2026-05-01T08:37:25.207Z</time></trkpt><trkpt lat="43.5588133" lon="11.6240783"><ele>257.0</ele><time>2026-05-01T08:37:26.208Z</time></trkpt><trkpt lat="43.5587567" lon="11.623985"><ele>257.0</ele><time>2026-05-01T08:37:27.208Z</time></trkpt><trkpt lat="43.5586917" lon="11.623905"><ele>257.0</ele><time>2026-05-01T08:37:28.207Z</time></trkpt><trkpt lat="43.5586233" lon="11.6238367"><ele>257.0</ele><time>2026-05-01T08:37:29.208Z</time></trkpt><trkpt lat="43.5585517" lon="11.6237767"><ele>256.6</ele><time>2026-05-01T08:37:30.209Z</time></trkpt><trkpt lat="43.558475" lon="11.6237233"><ele>256.2</ele><time>2026-05-01T08:37:31.207Z</time></trkpt><trkpt lat="43.5583917" lon="11.6236733"><ele>255.8</ele><time>2026-05-01T08:37:32.209Z</time></trkpt><trkpt lat="43.558305" lon="11.6236317"><ele>255.4</ele><time>2026-05-01T08:37:33.206Z</time></trkpt><trkpt lat="43.5582133" lon="11.62359"><ele>255.0</ele><time>2026-05-01T08:37:34.207Z</time></trkpt><trkpt lat="43.55812" lon="11.6235417"><ele>255.0</ele><time>2026-05-01T08:37:35.206Z</time></trkpt><trkpt lat="43.5580283" lon="11.6234833"><ele>255.0</ele><time>2026-05-01T08:37:36.207Z</time></trkpt><trkpt lat="43.557945" lon="11.623415"><ele>255.0</ele><time>2026-05-01T08:37:37.207Z</time></trkpt><trkpt lat="43.5578633" lon="11.6233417"><ele>255.0</ele><time>2026-05-01T08:37:38.208Z</time></trkpt><trkpt lat="43.5577833" lon="11.623265"><ele>255.0</ele><time>2026-05-01T08:37:39.208Z</time></trkpt><trkpt lat="43.5577033" lon="11.6231817"><ele>254.6</ele><time>2026-05-01T08:37:40.206Z</time></trkpt><trkpt lat="43.5576233" lon="11.6230967"><ele>254.2</ele><time>2026-05-01T08:37:41.207Z</time></trkpt><trkpt lat="43.5575517" lon="11.623005"><ele>253.8</ele><time>2026-05-01T08:37:42.208Z</time></trkpt><trkpt lat="43.557485" lon="11.6229033"><ele>253.4</ele><time>2026-05-01T08:37:43.207Z</time></trkpt><trkpt lat="43.5574283" lon="11.6227933"><ele>253.0</ele><time>2026-05-01T08:37:44.21Z</time></trkpt><trkpt lat="43.5573817" lon="11.622675"><ele>253.0</ele><time>2026-05-01T08:37:45.208Z</time></trkpt><trkpt lat="43.55734" lon="11.6225583"><ele>253.0</ele><time>2026-05-01T08:37:46.208Z</time></trkpt><trkpt lat="43.5573033" lon="11.62244"><ele>253.0</ele><time>2026-05-01T08:37:47.207Z</time></trkpt><trkpt lat="43.5572733" lon="11.62232"><ele>253.0</ele><time>2026-05-01T08:37:48.207Z</time></trkpt><trkpt lat="43.5572467" lon="11.6222033"><ele>253.0</ele><time>2026-05-01T08:37:49.208Z</time></trkpt><trkpt lat="43.5572233" lon="11.6220883"><ele>252.99999999999997</ele><time>2026-05-01T08:37:50.207Z</time></trkpt><trkpt lat="43.5572067" lon="11.6219667"><ele>253.0</ele><time>2026-05-01T08:37:51.207Z</time></trkpt><trkpt lat="43.5571933" lon="11.62185"><ele>253.0</ele><time>2026-05-01T08:37:52.208Z</time></trkpt><trkpt lat="43.5571833" lon="11.6217333"><ele>253.0</ele><time>2026-05-01T08:37:53.206Z</time></trkpt><trkpt lat="43.55717" lon="11.6216283"><ele>252.99999999999997</ele><time>2026-05-01T08:37:54.209Z</time></trkpt><trkpt lat="43.55716" lon="11.621525"><ele>253.0</ele><time>2026-05-01T08:37:55.208Z</time></trkpt><trkpt lat="43.5571517" lon="11.6214133"><ele>252.99999999999997</ele><time>2026-05-01T08:37:56.208Z</time></trkpt><trkpt lat="43.557145" lon="11.6212983"><ele>253.0</ele><time>2026-05-01T08:37:57.207Z</time></trkpt><trkpt lat="43.55714" lon="11.6211833"><ele>253.0</ele><time>2026-05-01T08:37:58.207Z</time></trkpt><trkpt lat="43.5571333" lon="11.62107"><ele>253.0</ele><time>2026-05-01T08:37:59.207Z</time></trkpt><trkpt lat="43.5571267" lon="11.6209567"><ele>252.99999999999997</ele><time>2026-05-01T08:38:00.209Z</time></trkpt><trkpt lat="43.5571183" lon="11.620845"><ele>253.0</ele><time>2026-05-01T08:38:01.206Z</time></trkpt><trkpt lat="43.5571117" lon="11.62073"><ele>253.16666666666666</ele><time>2026-05-01T08:38:02.207Z</time></trkpt><trkpt lat="43.5571033" lon="11.6206233"><ele>253.33333333333331</ele><time>2026-05-01T08:38:03.206Z</time></trkpt><trkpt lat="43.5570967" lon="11.6205183"><ele>253.5</ele><time>2026-05-01T08:38:04.206Z</time></trkpt><trkpt lat="43.5570883" lon="11.620415"><ele>253.66666666666669</ele><time>2026-05-01T08:38:05.208Z</time></trkpt><trkpt lat="43.5570783" lon="11.620305"><ele>253.83333333333334</ele><time>2026-05-01T08:38:06.207Z</time></trkpt><trkpt lat="43.5570683" lon="11.620195"><ele>254.0</ele><time>2026-05-01T08:38:07.206Z</time></trkpt><trkpt lat="43.5570583" lon="11.620085"><ele>254.00000000000003</ele><time>2026-05-01T08:38:08.209Z</time></trkpt><trkpt lat="43.557045" lon="11.619975"><ele>254.0</ele><time>2026-05-01T08:38:09.208Z</time></trkpt><trkpt lat="43.557035" lon="11.6198617"><ele>254.0</ele><time>2026-05-01T08:38:10.206Z</time></trkpt><trkpt lat="43.5570183" lon="11.6197567"><ele>254.0</ele><time>2026-05-01T08:38:11.207Z</time></trkpt><trkpt lat="43.5569983" lon="11.6196533"><ele>254.00000000000003</ele><time>2026-05-01T08:38:12.207Z</time></trkpt><trkpt lat="43.5569733" lon="11.6195483"><ele>254.0</ele><time>2026-05-01T08:38:13.207Z</time></trkpt><trkpt lat="43.55694" lon="11.61945"><ele>254.16666666666669</ele><time>2026-05-01T08:38:14.21Z</time></trkpt><trkpt lat="43.5569" lon="11.6193533"><ele>254.33333333333334</ele><time>2026-05-01T08:38:15.207Z</time></trkpt><trkpt lat="43.5568567" lon="11.61926"><ele>254.5</ele><time>2026-05-01T08:38:16.208Z</time></trkpt><trkpt lat="43.5568117" lon="11.619165"><ele>254.66666666666669</ele><time>2026-05-01T08:38:17.208Z</time></trkpt><trkpt lat="43.5567683" lon="11.6190683"><ele>254.83333333333334</ele><time>2026-05-01T08:38:18.208Z</time></trkpt><trkpt lat="43.556725" lon="11.6189717"><ele>255.0</ele><time>2026-05-01T08:38:19.205Z</time></trkpt><trkpt lat="43.55668" lon="11.6188783"><ele>255.0</ele><time>2026-05-01T08:38:20.208Z</time></trkpt><trkpt lat="43.5566333" lon="11.6187783"><ele>255.0</ele><time>2026-05-01T08:38:21.207Z</time></trkpt><trkpt lat="43.5565867" lon="11.6186817"><ele>255.0</ele><time>2026-05-01T08:38:22.209Z</time></trkpt><trkpt lat="43.5565417" lon="11.618585"><ele>255.0</ele><time>2026-05-01T08:38:23.206Z</time></trkpt><trkpt lat="43.5564933" lon="11.61849"><ele>255.0</ele><time>2026-05-01T08:38:24.208Z</time></trkpt><trkpt lat="43.5564483" lon="11.6183933"><ele>255.0</ele><time>2026-05-01T08:38:25.209Z</time></trkpt><trkpt lat="43.556405" lon="11.6182883"><ele>255.16666666666666</ele><time>2026-05-01T08:38:26.209Z</time></trkpt><trkpt lat="43.55636" lon="11.6181867"><ele>255.33333333333331</ele><time>2026-05-01T08:38:27.207Z</time></trkpt><trkpt lat="43.5563167" lon="11.6180883"><ele>255.5</ele><time>2026-05-01T08:38:28.206Z</time></trkpt><trkpt lat="43.556275" lon="11.617985"><ele>255.66666666666666</ele><time>2026-05-01T08:38:29.207Z</time></trkpt><trkpt lat="43.5562317" lon="11.617885"><ele>255.83333333333331</ele><time>2026-05-01T08:38:30.208Z</time></trkpt><trkpt lat="43.5561867" lon="11.61779"><ele>256.0</ele><time>2026-05-01T08:38:31.208Z</time></trkpt><trkpt lat="43.55614" lon="11.6176917"><ele>255.49999999999997</ele><time>2026-05-01T08:38:32.209Z</time></trkpt><trkpt lat="43.556095" lon="11.6175883"><ele>255.0</ele><time>2026-05-01T08:38:33.208Z</time></trkpt><trkpt lat="43.5560467" lon="11.6174917"><ele>254.5</ele><time>2026-05-01T08:38:34.206Z</time></trkpt><trkpt lat="43.556" lon="11.61739"><ele>254.0</ele><time>2026-05-01T08:38:35.21Z</time></trkpt><trkpt lat="43.5559533" lon="11.6172883"><ele>253.49999999999997</ele><time>2026-05-01T08:38:36.21Z</time></trkpt><trkpt lat="43.555905" lon="11.61719"><ele>253.0</ele><time>2026-05-01T08:38:37.208Z</time></trkpt><trkpt lat="43.5558567" lon="11.61709"><ele>252.99999999999997</ele><time>2026-05-01T08:38:38.207Z</time></trkpt><trkpt lat="43.55581" lon="11.61699"><ele>253.0</ele><time>2026-05-01T08:38:39.206Z</time></trkpt><trkpt lat="43.5557667" lon="11.61689"><ele>253.0</ele><time>2026-05-01T08:38:40.208Z</time></trkpt><trkpt lat="43.55572" lon="11.61679"><ele>253.0</ele><time>2026-05-01T08:38:41.208Z</time></trkpt><trkpt lat="43.5556717" lon="11.6166867"><ele>252.99999999999997</ele><time>2026-05-01T08:38:42.208Z</time></trkpt><trkpt lat="43.5556217" lon="11.6165817"><ele>253.0</ele><time>2026-05-01T08:38:43.207Z</time></trkpt><trkpt lat="43.55557" lon="11.6164683"><ele>253.2</ele><time>2026-05-01T08:38:44.207Z</time></trkpt><trkpt lat="43.5555183" lon="11.6163483"><ele>253.4</ele><time>2026-05-01T08:38:45.208Z</time></trkpt><trkpt lat="43.5554617" lon="11.6162217"><ele>253.59999999999997</ele><time>2026-05-01T08:38:46.207Z</time></trkpt><trkpt lat="43.5554017" lon="11.616095"><ele>253.79999999999998</ele><time>2026-05-01T08:38:47.208Z</time></trkpt><trkpt lat="43.5553417" lon="11.615965"><ele>254.0</ele><time>2026-05-01T08:38:48.207Z</time></trkpt><trkpt lat="43.55528" lon="11.6158217"><ele>251.75</ele><time>2026-05-01T08:38:49.208Z</time></trkpt><trkpt lat="43.5552167" lon="11.6156733"><ele>249.5</ele><time>2026-05-01T08:38:50.207Z</time></trkpt><trkpt lat="43.5551517" lon="11.615525"><ele>247.25</ele><time>2026-05-01T08:38:51.208Z</time></trkpt><trkpt lat="43.5550833" lon="11.6153733"><ele>245.0</ele><time>2026-05-01T08:38:52.207Z</time></trkpt><trkpt lat="43.5550117" lon="11.6152217"><ele>244.5</ele><time>2026-05-01T08:38:53.206Z</time></trkpt><trkpt lat="43.55493" lon="11.61507"><ele>244.0</ele><time>2026-05-01T08:38:54.206Z</time></trkpt><trkpt lat="43.5548383" lon="11.6149233"><ele>243.5</ele><time>2026-05-01T08:38:55.207Z</time></trkpt><trkpt lat="43.5547383" lon="11.6147967"><ele>243.0</ele><time>2026-05-01T08:38:56.207Z</time></trkpt><trkpt lat="43.5546267" lon="11.6146917"><ele>242.0</ele><time>2026-05-01T08:38:57.206Z</time></trkpt><trkpt lat="43.5545083" lon="11.6146117"><ele>241.0</ele><time>2026-05-01T08:38:58.208Z</time></trkpt><trkpt lat="43.5543817" lon="11.614555"><ele>240.0</ele><time>2026-05-01T08:38:59.207Z</time></trkpt><trkpt lat="43.5542533" lon="11.6145317"><ele>239.0</ele><time>2026-05-01T08:39:00.207Z</time></trkpt><trkpt lat="43.55413" lon="11.614535"><ele>239.0</ele><time>2026-05-01T08:39:01.207Z</time></trkpt><trkpt lat="43.5540033" lon="11.6145567"><ele>239.0</ele><time>2026-05-01T08:39:02.209Z</time></trkpt><trkpt lat="43.5538783" lon="11.614595"><ele>239.0</ele><time>2026-05-01T08:39:03.207Z</time></trkpt><trkpt lat="43.5537617" lon="11.6146533"><ele>239.0</ele><time>2026-05-01T08:39:04.205Z</time></trkpt><trkpt lat="43.5536533" lon="11.61473"><ele>238.75</ele><time>2026-05-01T08:39:05.206Z</time></trkpt><trkpt lat="43.553545" lon="11.6148133"><ele>238.5</ele><time>2026-05-01T08:39:06.208Z</time></trkpt><trkpt lat="43.553445" lon="11.6149017"><ele>238.25</ele><time>2026-05-01T08:39:07.207Z</time></trkpt><trkpt lat="43.5533433" lon="11.6149917"><ele>238.0</ele><time>2026-05-01T08:39:08.207Z</time></trkpt><trkpt lat="43.553245" lon="11.61508"><ele>238.0</ele><time>2026-05-01T08:39:09.208Z</time></trkpt><trkpt lat="43.5531433" lon="11.61517"><ele>238.0</ele><time>2026-05-01T08:39:10.208Z</time></trkpt><trkpt lat="43.5530467" lon="11.6152567"><ele>238.0</ele><time>2026-05-01T08:39:11.207Z</time></trkpt><trkpt lat="43.5529533" lon="11.6153417"><ele>238.0</ele><time>2026-05-01T08:39:12.207Z</time></trkpt><trkpt lat="43.552855" lon="11.61543"><ele>237.75</ele><time>2026-05-01T08:39:13.207Z</time></trkpt><trkpt lat="43.5527483" lon="11.61552"><ele>237.5</ele><time>2026-05-01T08:39:14.208Z</time></trkpt><trkpt lat="43.5526417" lon="11.6156117"><ele>237.25</ele><time>2026-05-01T08:39:15.209Z</time></trkpt><trkpt lat="43.5525317" lon="11.6156967"><ele>237.0</ele><time>2026-05-01T08:39:16.206Z</time></trkpt><trkpt lat="43.5524167" lon="11.6157783"><ele>237.0</ele><time>2026-05-01T08:39:17.206Z</time></trkpt><trkpt lat="43.5523" lon="11.6158533"><ele>237.0</ele><time>2026-05-01T08:39:18.207Z</time></trkpt><trkpt lat="43.552185" lon="11.615925"><ele>237.0</ele><time>2026-05-01T08:39:19.207Z</time></trkpt><trkpt lat="43.552065" lon="11.6159933"><ele>237.0</ele><time>2026-05-01T08:39:20.209Z</time></trkpt><trkpt lat="43.551955" lon="11.61606"><ele>237.5</ele><time>2026-05-01T08:39:21.207Z</time></trkpt><trkpt lat="43.5518333" lon="11.6161283"><ele>238.0</ele><time>2026-05-01T08:39:22.207Z</time></trkpt><trkpt lat="43.5517217" lon="11.616195"><ele>238.5</ele><time>2026-05-01T08:39:23.207Z</time></trkpt><trkpt lat="43.5516133" lon="11.6162567"><ele>239.0</ele><time>2026-05-01T08:39:24.208Z</time></trkpt><trkpt lat="43.5515017" lon="11.6163183"><ele>239.0</ele><time>2026-05-01T08:39:25.208Z</time></trkpt><trkpt lat="43.551405" lon="11.616375"><ele>239.0</ele><time>2026-05-01T08:39:26.207Z</time></trkpt><trkpt lat="43.5512917" lon="11.6164267"><ele>239.0</ele><time>2026-05-01T08:39:27.209Z</time></trkpt><trkpt lat="43.55118" lon="11.6164667"><ele>239.0</ele><time>2026-05-01T08:39:28.21Z</time></trkpt><trkpt lat="43.551065" lon="11.6164867"><ele>237.5</ele><time>2026-05-01T08:39:29.207Z</time></trkpt><trkpt lat="43.55095" lon="11.61648"><ele>236.0</ele><time>2026-05-01T08:39:30.21Z</time></trkpt><trkpt lat="43.5508383" lon="11.616445"><ele>234.5</ele><time>2026-05-01T08:39:31.209Z</time></trkpt><trkpt lat="43.5507333" lon="11.6163767"><ele>233.0</ele><time>2026-05-01T08:39:32.207Z</time></trkpt><trkpt lat="43.5506417" lon="11.61628"><ele>233.0</ele><time>2026-05-01T08:39:33.207Z</time></trkpt><trkpt lat="43.5505633" lon="11.6161617"><ele>233.0</ele><time>2026-05-01T08:39:34.207Z</time></trkpt><trkpt lat="43.5505033" lon="11.6160267"><ele>233.0</ele><time>2026-05-01T08:39:35.21Z</time></trkpt><trkpt lat="43.5504617" lon="11.615875"><ele>233.0</ele><time>2026-05-01T08:39:36.207Z</time></trkpt><trkpt lat="43.55045" lon="11.61571"><ele>232.25</ele><time>2026-05-01T08:39:37.209Z</time></trkpt><trkpt lat="43.5504633" lon="11.61555"><ele>231.5</ele><time>2026-05-01T08:39:38.209Z</time></trkpt><trkpt lat="43.5504967" lon="11.6153983"><ele>230.75</ele><time>2026-05-01T08:39:39.207Z</time></trkpt><trkpt lat="43.55055" lon="11.6152417"><ele>230.0</ele><time>2026-05-01T08:39:40.205Z</time></trkpt><trkpt lat="43.5506233" lon="11.615095"><ele>228.75</ele><time>2026-05-01T08:39:41.207Z</time></trkpt><trkpt lat="43.55071" lon="11.6149617"><ele>227.5</ele><time>2026-05-01T08:39:42.209Z</time></trkpt><trkpt lat="43.5508133" lon="11.6148517"><ele>226.25</ele><time>2026-05-01T08:39:43.208Z</time></trkpt><trkpt lat="43.5509267" lon="11.6147433"><ele>225.0</ele><time>2026-05-01T08:39:44.207Z</time></trkpt><trkpt lat="43.5510483" lon="11.61463"><ele>225.0</ele><time>2026-05-01T08:39:45.207Z</time></trkpt><trkpt lat="43.5511717" lon="11.614515"><ele>225.0</ele><time>2026-05-01T08:39:46.208Z</time></trkpt><trkpt lat="43.55129" lon="11.6143983"><ele>225.0</ele><time>2026-05-01T08:39:47.208Z</time></trkpt><trkpt lat="43.55142" lon="11.6142767"><ele>225.25</ele><time>2026-05-01T08:39:48.207Z</time></trkpt><trkpt lat="43.5515367" lon="11.6141467"><ele>225.5</ele><time>2026-05-01T08:39:49.207Z</time></trkpt><trkpt lat="43.5516367" lon="11.6139917"><ele>225.75</ele><time>2026-05-01T08:39:50.209Z</time></trkpt><trkpt lat="43.5517083" lon="11.6138133"><ele>226.0</ele><time>2026-05-01T08:39:51.21Z</time></trkpt><trkpt lat="43.551765" lon="11.6136133"><ele>222.33333333333331</ele><time>2026-05-01T08:39:52.208Z</time></trkpt><trkpt lat="43.5518033" lon="11.6134117"><ele>218.66666666666669</ele><time>2026-05-01T08:39:53.208Z</time></trkpt><trkpt lat="43.5518233" lon="11.6131917"><ele>215.0</ele><time>2026-05-01T08:39:54.207Z</time></trkpt><trkpt lat="43.5518417" lon="11.612965"><ele>211.33333333333334</ele><time>2026-05-01T08:39:55.207Z</time></trkpt><trkpt lat="43.5518567" lon="11.6127367"><ele>207.66666666666669</ele><time>2026-05-01T08:39:56.207Z</time></trkpt><trkpt lat="43.5518733" lon="11.6125083"><ele>204.0</ele><time>2026-05-01T08:39:57.207Z</time></trkpt><trkpt lat="43.5518867" lon="11.612275"><ele>204.0</ele><time>2026-05-01T08:39:58.206Z</time></trkpt><trkpt lat="43.5519067" lon="11.6120433"><ele>204.0</ele><time>2026-05-01T08:39:59.207Z</time></trkpt><trkpt lat="43.5519267" lon="11.6118117"><ele>204.0</ele><time>2026-05-01T08:40:00.209Z</time></trkpt><trkpt lat="43.5519467" lon="11.61158"><ele>200.66666666666669</ele><time>2026-05-01T08:40:01.207Z</time></trkpt><trkpt lat="43.551965" lon="11.61135"><ele>197.33333333333334</ele><time>2026-05-01T08:40:02.208Z</time></trkpt><trkpt lat="43.5519867" lon="11.6111183"><ele>194.0</ele><time>2026-05-01T08:40:03.206Z</time></trkpt><trkpt lat="43.5520183" lon="11.6108883"><ele>198.0</ele><time>2026-05-01T08:40:04.206Z</time></trkpt><trkpt lat="43.5520567" lon="11.6106617"><ele>202.0</ele><time>2026-05-01T08:40:05.206Z</time></trkpt><trkpt lat="43.5520983" lon="11.6104333"><ele>206.0</ele><time>2026-05-01T08:40:06.207Z</time></trkpt><trkpt lat="43.5521417" lon="11.6102067"><ele>206.0</ele><time>2026-05-01T08:40:07.206Z</time></trkpt><trkpt lat="43.5521867" lon="11.60998"><ele>206.0</ele><time>2026-05-01T08:40:08.206Z</time></trkpt><trkpt lat="43.5522283" lon="11.6097533"><ele>206.0</ele><time>2026-05-01T08:40:09.209Z</time></trkpt><trkpt lat="43.5522717" lon="11.6095267"><ele>203.33333333333334</ele><time>2026-05-01T08:40:10.205Z</time></trkpt><trkpt lat="43.5523167" lon="11.6092983"><ele>200.66666666666669</ele><time>2026-05-01T08:40:11.208Z</time></trkpt><trkpt lat="43.5523617" lon="11.6090733"><ele>198.0</ele><time>2026-05-01T08:40:12.208Z</time></trkpt><trkpt lat="43.552405" lon="11.608845"><ele>195.0</ele><time>2026-05-01T08:40:13.208Z</time></trkpt><trkpt lat="43.55245" lon="11.6086217"><ele>192.0</ele><time>2026-05-01T08:40:14.207Z</time></trkpt><trkpt lat="43.5525" lon="11.6084"><ele>189.0</ele><time>2026-05-01T08:40:15.21Z</time></trkpt><trkpt lat="43.55256" lon="11.6081817"><ele>189.0</ele><time>2026-05-01T08:40:16.208Z</time></trkpt><trkpt lat="43.552635" lon="11.6079733"><ele>189.0</ele><time>2026-05-01T08:40:17.207Z</time></trkpt><trkpt lat="43.55272" lon="11.6077767"><ele>189.0</ele><time>2026-05-01T08:40:18.207Z</time></trkpt><trkpt lat="43.55281" lon="11.60758"><ele>191.33333333333331</ele><time>2026-05-01T08:40:19.209Z</time></trkpt><trkpt lat="43.5529017" lon="11.607385"><ele>193.66666666666666</ele><time>2026-05-01T08:40:20.208Z</time></trkpt><trkpt lat="43.5529917" lon="11.6071917"><ele>196.0</ele><time>2026-05-01T08:40:21.207Z</time></trkpt><trkpt lat="43.5530867" lon="11.6069917"><ele>190.33333333333331</ele><time>2026-05-01T08:40:22.209Z</time></trkpt><trkpt lat="43.5531767" lon="11.606785"><ele>184.66666666666666</ele><time>2026-05-01T08:40:23.208Z</time></trkpt><trkpt lat="43.553255" lon="11.6065733"><ele>179.0</ele><time>2026-05-01T08:40:24.207Z</time></trkpt><trkpt lat="43.553315" lon="11.6063517"><ele>177.66666666666666</ele><time>2026-05-01T08:40:25.208Z</time></trkpt><trkpt lat="43.5533683" lon="11.6061233"><ele>176.33333333333334</ele><time>2026-05-01T08:40:26.207Z</time></trkpt><trkpt lat="43.5534183" lon="11.6058967"><ele>175.0</ele><time>2026-05-01T08:40:27.207Z</time></trkpt><trkpt lat="43.5534667" lon="11.60567"><ele>175.0</ele><time>2026-05-01T08:40:28.204Z</time></trkpt><trkpt lat="43.553515" lon="11.6054483"><ele>175.0</ele><time>2026-05-01T08:40:29.207Z</time></trkpt><trkpt lat="43.5535617" lon="11.605235"><ele>175.0</ele><time>2026-05-01T08:40:30.206Z</time></trkpt><trkpt lat="43.5536067" lon="11.6050217"><ele>175.66666666666669</ele><time>2026-05-01T08:40:31.208Z</time></trkpt><trkpt lat="43.5536533" lon="11.6048083"><ele>176.33333333333334</ele><time>2026-05-01T08:40:32.206Z</time></trkpt><trkpt lat="43.5536983" lon="11.6046"><ele>177.0</ele><time>2026-05-01T08:40:33.208Z</time></trkpt><trkpt lat="43.55374" lon="11.60439"><ele>177.0</ele><time>2026-05-01T08:40:34.207Z</time></trkpt><trkpt lat="43.553775" lon="11.6041883"><ele>177.0</ele><time>2026-05-01T08:40:35.207Z</time></trkpt><trkpt lat="43.5538133" lon="11.603995"><ele>177.0</ele><time>2026-05-01T08:40:36.207Z</time></trkpt><trkpt lat="43.5538517" lon="11.6038"><ele>177.0</ele><time>2026-05-01T08:40:37.208Z</time></trkpt><trkpt lat="43.55389" lon="11.6036083"><ele>175.25</ele><time>2026-05-01T08:40:38.207Z</time></trkpt><trkpt lat="43.5539267" lon="11.6034167"><ele>173.5</ele><time>2026-05-01T08:40:39.207Z</time></trkpt><trkpt lat="43.5539633" lon="11.6032217"><ele>171.75</ele><time>2026-05-01T08:40:40.206Z</time></trkpt><trkpt lat="43.5539983" lon="11.6030267"><ele>170.0</ele><time>2026-05-01T08:40:41.21Z</time></trkpt><trkpt lat="43.554035" lon="11.60283"><ele>169.25</ele><time>2026-05-01T08:40:42.208Z</time></trkpt><trkpt lat="43.554075" lon="11.6026333"><ele>168.5</ele><time>2026-05-01T08:40:43.209Z</time></trkpt><trkpt lat="43.55413" lon="11.6024467"><ele>167.75</ele><time>2026-05-01T08:40:44.208Z</time></trkpt><trkpt lat="43.5541983" lon="11.6022717"><ele>167.0</ele><time>2026-05-01T08:40:45.207Z</time></trkpt><trkpt lat="43.5542817" lon="11.6021117"><ele>166.5</ele><time>2026-05-01T08:40:46.208Z</time></trkpt><trkpt lat="43.5543733" lon="11.60196"><ele>166.0</ele><time>2026-05-01T08:40:47.206Z</time></trkpt><trkpt lat="43.5544617" lon="11.601815"><ele>165.5</ele><time>2026-05-01T08:40:48.208Z</time></trkpt><trkpt lat="43.5545533" lon="11.601675"><ele>165.0</ele><time>2026-05-01T08:40:49.209Z</time></trkpt><trkpt lat="43.5546417" lon="11.6015367"><ele>164.25</ele><time>2026-05-01T08:40:50.208Z</time></trkpt><trkpt lat="43.55473" lon="11.6013933"><ele>163.5</ele><time>2026-05-01T08:40:51.207Z</time></trkpt><trkpt lat="43.5548133" lon="11.6012583"><ele>162.75</ele><time>2026-05-01T08:40:52.208Z</time></trkpt><trkpt lat="43.5548967" lon="11.60113"><ele>162.0</ele><time>2026-05-01T08:40:53.209Z</time></trkpt><trkpt lat="43.554975" lon="11.6010083"><ele>162.0</ele><time>2026-05-01T08:40:54.207Z</time></trkpt><trkpt lat="43.55505" lon="11.6008917"><ele>162.0</ele><time>2026-05-01T08:40:55.21Z</time></trkpt><trkpt lat="43.55512" lon="11.6007767"><ele>162.0</ele><time>2026-05-01T08:40:56.207Z</time></trkpt><trkpt lat="43.555185" lon="11.6006617"><ele>162.0</ele><time>2026-05-01T08:40:57.208Z</time></trkpt><trkpt lat="43.5552483" lon="11.60054"><ele>162.0</ele><time>2026-05-01T08:40:58.207Z</time></trkpt><trkpt lat="43.5553017" lon="11.6004033"><ele>161.0</ele><time>2026-05-01T08:40:59.208Z</time></trkpt><trkpt lat="43.555355" lon="11.6002567"><ele>160.0</ele><time>2026-05-01T08:41:00.21Z</time></trkpt><trkpt lat="43.5554" lon="11.600095"><ele>159.0</ele><time>2026-05-01T08:41:01.207Z</time></trkpt><trkpt lat="43.55543" lon="11.5999333"><ele>158.0</ele><time>2026-05-01T08:41:02.208Z</time></trkpt><trkpt lat="43.5554483" lon="11.599775"><ele>158.0</ele><time>2026-05-01T08:41:03.207Z</time></trkpt><trkpt lat="43.5554583" lon="11.5996133"><ele>158.0</ele><time>2026-05-01T08:41:04.208Z</time></trkpt><trkpt lat="43.55546" lon="11.599465"><ele>158.0</ele><time>2026-05-01T08:41:05.207Z</time></trkpt><trkpt lat="43.5554583" lon="11.59931"><ele>158.0</ele><time>2026-05-01T08:41:06.207Z</time></trkpt><trkpt lat="43.5554567" lon="11.5991567"><ele>158.0</ele><time>2026-05-01T08:41:07.207Z</time></trkpt><trkpt lat="43.5554533" lon="11.59901"><ele>157.8</ele><time>2026-05-01T08:41:08.207Z</time></trkpt><trkpt lat="43.5554483" lon="11.598865"><ele>157.60000000000002</ele><time>2026-05-01T08:41:09.207Z</time></trkpt><trkpt lat="43.5554417" lon="11.598725"><ele>157.39999999999998</ele><time>2026-05-01T08:41:10.207Z</time></trkpt><trkpt lat="43.5554367" lon="11.5985933"><ele>157.2</ele><time>2026-05-01T08:41:11.209Z</time></trkpt><trkpt lat="43.555435" lon="11.5984583"><ele>157.0</ele><time>2026-05-01T08:41:12.207Z</time></trkpt><trkpt lat="43.5554267" lon="11.598335"><ele>156.79999999999998</ele><time>2026-05-01T08:41:13.207Z</time></trkpt><trkpt lat="43.5554217" lon="11.5982117"><ele>156.6</ele><time>2026-05-01T08:41:14.207Z</time></trkpt><trkpt lat="43.5554267" lon="11.5980883"><ele>156.39999999999998</ele><time>2026-05-01T08:41:15.207Z</time></trkpt><trkpt lat="43.55546" lon="11.5979633"><ele>156.2</ele><time>2026-05-01T08:41:16.207Z</time></trkpt><trkpt lat="43.555515" lon="11.5978567"><ele>156.0</ele><time>2026-05-01T08:41:17.207Z</time></trkpt><trkpt lat="43.55559" lon="11.5977717"><ele>156.0</ele><time>2026-05-01T08:41:18.208Z</time></trkpt><trkpt lat="43.555675" lon="11.59771"><ele>156.0</ele><time>2026-05-01T08:41:19.209Z</time></trkpt><trkpt lat="43.5557667" lon="11.597675"><ele>156.0</ele><time>2026-05-01T08:41:20.209Z</time></trkpt><trkpt lat="43.5558583" lon="11.597665"><ele>156.0</ele><time>2026-05-01T08:41:21.21Z</time></trkpt><trkpt lat="43.5559517" lon="11.59768"><ele>156.0</ele><time>2026-05-01T08:41:22.208Z</time></trkpt><trkpt lat="43.55604" lon="11.5977083"><ele>156.0</ele><time>2026-05-01T08:41:23.208Z</time></trkpt><trkpt lat="43.556125" lon="11.597735"><ele>156.0</ele><time>2026-05-01T08:41:24.207Z</time></trkpt><trkpt lat="43.5562117" lon="11.597755"><ele>156.0</ele><time>2026-05-01T08:41:25.206Z</time></trkpt><trkpt lat="43.5562967" lon="11.597765"><ele>156.0</ele><time>2026-05-01T08:41:26.209Z</time></trkpt><trkpt lat="43.5563817" lon="11.5977733"><ele>156.0</ele><time>2026-05-01T08:41:27.207Z</time></trkpt><trkpt lat="43.5564667" lon="11.59778"><ele>156.0</ele><time>2026-05-01T08:41:28.207Z</time></trkpt><trkpt lat="43.5565483" lon="11.5977883"><ele>156.0</ele><time>2026-05-01T08:41:29.208Z</time></trkpt><trkpt lat="43.5566283" lon="11.597795"><ele>156.0</ele><time>2026-05-01T08:41:30.209Z</time></trkpt><trkpt lat="43.5567067" lon="11.5977983"><ele>156.0</ele><time>2026-05-01T08:41:31.207Z</time></trkpt><trkpt lat="43.5567817" lon="11.5977983"><ele>156.0</ele><time>2026-05-01T08:41:32.207Z</time></trkpt><trkpt lat="43.5568517" lon="11.5978033"><ele>156.0</ele><time>2026-05-01T08:41:33.207Z</time></trkpt><trkpt lat="43.5569217" lon="11.5978067"><ele>156.0</ele><time>2026-05-01T08:41:34.206Z</time></trkpt><trkpt lat="43.5569917" lon="11.59781"><ele>156.0</ele><time>2026-05-01T08:41:35.207Z</time></trkpt><trkpt lat="43.5570633" lon="11.5978167"><ele>156.14285714285714</ele><time>2026-05-01T08:41:36.206Z</time></trkpt><trkpt lat="43.557135" lon="11.5978217"><ele>156.28571428571428</ele><time>2026-05-01T08:41:37.208Z</time></trkpt><trkpt lat="43.557205" lon="11.597825"><ele>156.42857142857142</ele><time>2026-05-01T08:41:38.208Z</time></trkpt><trkpt lat="43.5572733" lon="11.5978283"><ele>156.57142857142856</ele><time>2026-05-01T08:41:39.206Z</time></trkpt><trkpt lat="43.5573417" lon="11.5978317"><ele>156.71428571428572</ele><time>2026-05-01T08:41:40.206Z</time></trkpt><trkpt lat="43.55741" lon="11.5978333"><ele>156.85714285714283</ele><time>2026-05-01T08:41:41.207Z</time></trkpt><trkpt lat="43.5574783" lon="11.5978367"><ele>157.0</ele><time>2026-05-01T08:41:42.207Z</time></trkpt><trkpt lat="43.5575467" lon="11.5978467"><ele>157.0</ele><time>2026-05-01T08:41:43.209Z</time></trkpt><trkpt lat="43.557615" lon="11.597865"><ele>157.0</ele><time>2026-05-01T08:41:44.208Z</time></trkpt><trkpt lat="43.55768" lon="11.59789"><ele>157.0</ele><time>2026-05-01T08:41:45.206Z</time></trkpt><trkpt lat="43.5577433" lon="11.597915"><ele>157.0</ele><time>2026-05-01T08:41:46.206Z</time></trkpt><trkpt lat="43.55786" lon="11.5979933"><ele>157.0</ele><time>2026-05-01T08:41:48.208Z</time></trkpt><trkpt lat="43.55792" lon="11.5980433"><ele>157.0</ele><time>2026-05-01T08:41:49.209Z</time></trkpt><trkpt lat="43.55798" lon="11.59809"><ele>157.14285714285714</ele><time>2026-05-01T08:41:50.207Z</time></trkpt><trkpt lat="43.55804" lon="11.5981383"><ele>157.28571428571428</ele><time>2026-05-01T08:41:51.208Z</time></trkpt><trkpt lat="43.5581" lon="11.5981867"><ele>157.42857142857144</ele><time>2026-05-01T08:41:52.207Z</time></trkpt><trkpt lat="43.55816" lon="11.5982333"><ele>157.57142857142856</ele><time>2026-05-01T08:41:53.207Z</time></trkpt><trkpt lat="43.5582183" lon="11.5982833"><ele>157.71428571428572</ele><time>2026-05-01T08:41:54.208Z</time></trkpt><trkpt lat="43.558275" lon="11.5983333"><ele>157.85714285714286</ele><time>2026-05-01T08:41:55.209Z</time></trkpt><trkpt lat="43.55833" lon="11.598385"><ele>158.0</ele><time>2026-05-01T08:41:56.207Z</time></trkpt><trkpt lat="43.5583883" lon="11.5984333"><ele>158.0</ele><time>2026-05-01T08:41:57.207Z</time></trkpt><trkpt lat="43.5584483" lon="11.5984783"><ele>158.0</ele><time>2026-05-01T08:41:58.207Z</time></trkpt><trkpt lat="43.55851" lon="11.59853"><ele>158.0</ele><time>2026-05-01T08:41:59.208Z</time></trkpt><trkpt lat="43.55857" lon="11.5985833"><ele>158.0</ele><time>2026-05-01T08:42:00.208Z</time></trkpt><trkpt lat="43.55863" lon="11.5986317"><ele>158.0</ele><time>2026-05-01T08:42:01.21Z</time></trkpt><trkpt lat="43.5587417" lon="11.598715"><ele>158.0</ele><time>2026-05-01T08:42:03.207Z</time></trkpt><trkpt lat="43.5587983" lon="11.5987633"><ele>158.5</ele><time>2026-05-01T08:42:04.207Z</time></trkpt><trkpt lat="43.5588567" lon="11.59881"><ele>159.0</ele><time>2026-05-01T08:42:05.206Z</time></trkpt><trkpt lat="43.5589133" lon="11.598865"><ele>159.5</ele><time>2026-05-01T08:42:06.21Z</time></trkpt><trkpt lat="43.5589683" lon="11.5989217"><ele>160.0</ele><time>2026-05-01T08:42:07.207Z</time></trkpt><trkpt lat="43.5590267" lon="11.5989717"><ele>160.5</ele><time>2026-05-01T08:42:08.207Z</time></trkpt><trkpt lat="43.55913" lon="11.5990633"><ele>161.0</ele><time>2026-05-01T08:42:10.209Z</time></trkpt><trkpt lat="43.5592317" lon="11.5991517"><ele>161.0</ele><time>2026-05-01T08:42:12.207Z</time></trkpt><trkpt lat="43.5593333" lon="11.5992467"><ele>161.0</ele><time>2026-05-01T08:42:14.207Z</time></trkpt><trkpt lat="43.5594367" lon="11.5993333"><ele>161.0</ele><time>2026-05-01T08:42:16.21Z</time></trkpt><trkpt lat="43.5595383" lon="11.5994167"><ele>161.0</ele><time>2026-05-01T08:42:18.208Z</time></trkpt><trkpt lat="43.559635" lon="11.59949"><ele>162.20000000000002</ele><time>2026-05-01T08:42:20.208Z</time></trkpt><trkpt lat="43.5597267" lon="11.5995683"><ele>163.4</ele><time>2026-05-01T08:42:22.207Z</time></trkpt><trkpt lat="43.5598117" lon="11.599645"><ele>164.6</ele><time>2026-05-01T08:42:24.209Z</time></trkpt><trkpt lat="43.5599033" lon="11.59972"><ele>165.8</ele><time>2026-05-01T08:42:26.208Z</time></trkpt><trkpt lat="43.55999" lon="11.59979"><ele>167.0</ele><time>2026-05-01T08:42:28.21Z</time></trkpt><trkpt lat="43.5600817" lon="11.5998683"><ele>167.0</ele><time>2026-05-01T08:42:30.208Z</time></trkpt><trkpt lat="43.5601683" lon="11.5999467"><ele>167.0</ele><time>2026-05-01T08:42:32.207Z</time></trkpt><trkpt lat="43.5602567" lon="11.6000233"><ele>167.0</ele><time>2026-05-01T08:42:34.206Z</time></trkpt><trkpt lat="43.5603367" lon="11.6000933"><ele>167.0</ele><time>2026-05-01T08:42:36.209Z</time></trkpt><trkpt lat="43.56042" lon="11.6001633"><ele>167.0</ele><time>2026-05-01T08:42:38.209Z</time></trkpt><trkpt lat="43.56051" lon="11.6002383"><ele>167.6</ele><time>2026-05-01T08:42:40.206Z</time></trkpt><trkpt lat="43.560595" lon="11.60031"><ele>168.2</ele><time>2026-05-01T08:42:42.208Z</time></trkpt><trkpt lat="43.5606783" lon="11.6003883"><ele>168.8</ele><time>2026-05-01T08:42:44.208Z</time></trkpt><trkpt lat="43.56076" lon="11.60046"><ele>169.4</ele><time>2026-05-01T08:42:46.207Z</time></trkpt><trkpt lat="43.5608433" lon="11.6005333"><ele>170.0</ele><time>2026-05-01T08:42:48.207Z</time></trkpt><trkpt lat="43.5609233" lon="11.6006"><ele>170.0</ele><time>2026-05-01T08:42:50.208Z</time></trkpt><trkpt lat="43.5610017" lon="11.60067"><ele>170.0</ele><time>2026-05-01T08:42:52.206Z</time></trkpt><trkpt lat="43.5610817" lon="11.60074"><ele>170.0</ele><time>2026-05-01T08:42:54.209Z</time></trkpt><trkpt lat="43.56117" lon="11.60081"><ele>170.0</ele><time>2026-05-01T08:42:56.209Z</time></trkpt><trkpt lat="43.5612517" lon="11.6008783"><ele>170.0</ele><time>2026-05-01T08:42:58.209Z</time></trkpt><trkpt lat="43.561335" lon="11.60095"><ele>171.0</ele><time>2026-05-01T08:43:00.209Z</time></trkpt><trkpt lat="43.561415" lon="11.6010267"><ele>172.0</ele><time>2026-05-01T08:43:02.207Z</time></trkpt><trkpt lat="43.5614983" lon="11.6010967"><ele>173.0</ele><time>2026-05-01T08:43:04.209Z</time></trkpt><trkpt lat="43.5615767" lon="11.6011633"><ele>174.0</ele><time>2026-05-01T08:43:06.206Z</time></trkpt><trkpt lat="43.56166" lon="11.6012283"><ele>175.0</ele><time>2026-05-01T08:43:08.208Z</time></trkpt><trkpt lat="43.5617467" lon="11.6013"><ele>175.0</ele><time>2026-05-01T08:43:10.207Z</time></trkpt><trkpt lat="43.5618333" lon="11.601375"><ele>175.0</ele><time>2026-05-01T08:43:12.208Z</time></trkpt><trkpt lat="43.5619267" lon="11.6014517"><ele>175.0</ele><time>2026-05-01T08:43:14.209Z</time></trkpt><trkpt lat="43.5620217" lon="11.6015317"><ele>175.0</ele><time>2026-05-01T08:43:16.208Z</time></trkpt><trkpt lat="43.5621167" lon="11.6016083"><ele>175.0</ele><time>2026-05-01T08:43:18.209Z</time></trkpt><trkpt lat="43.56221" lon="11.6016883"><ele>175.25</ele><time>2026-05-01T08:43:20.208Z</time></trkpt><trkpt lat="43.5623033" lon="11.6017667"><ele>175.5</ele><time>2026-05-01T08:43:22.209Z</time></trkpt><trkpt lat="43.5624033" lon="11.6018483"><ele>175.75</ele><time>2026-05-01T08:43:24.21Z</time></trkpt><trkpt lat="43.5625033" lon="11.6019317"><ele>176.0</ele><time>2026-05-01T08:43:26.21Z</time></trkpt><trkpt lat="43.5626083" lon="11.6020233"><ele>176.0</ele><time>2026-05-01T08:43:28.209Z</time></trkpt><trkpt lat="43.5627117" lon="11.6021133"><ele>176.0</ele><time>2026-05-01T08:43:30.207Z</time></trkpt><trkpt lat="43.5628133" lon="11.6022017"><ele>176.0</ele><time>2026-05-01T08:43:32.209Z</time></trkpt><trkpt lat="43.562915" lon="11.6022917"><ele>176.0</ele><time>2026-05-01T08:43:34.209Z</time></trkpt><trkpt lat="43.5630217" lon="11.6023817"><ele>176.4</ele><time>2026-05-01T08:43:36.209Z</time></trkpt><trkpt lat="43.563125" lon="11.60247"><ele>176.8</ele><time>2026-05-01T08:43:38.208Z</time></trkpt><trkpt lat="43.56323" lon="11.6025583"><ele>177.20000000000002</ele><time>2026-05-01T08:43:40.208Z</time></trkpt><trkpt lat="43.563285" lon="11.6026017"><ele>177.60000000000002</ele><time>2026-05-01T08:43:41.209Z</time></trkpt><trkpt lat="43.5633917" lon="11.6026883"><ele>178.0</ele><time>2026-05-01T08:43:43.207Z</time></trkpt><trkpt lat="43.5635017" lon="11.6027767"><ele>177.99999999999997</ele><time>2026-05-01T08:43:45.21Z</time></trkpt><trkpt lat="43.5635567" lon="11.602825"><ele>178.0</ele><time>2026-05-01T08:43:46.207Z</time></trkpt><trkpt lat="43.5636133" lon="11.6028733"><ele>178.0</ele><time>2026-05-01T08:43:47.208Z</time></trkpt><trkpt lat="43.5636683" lon="11.6029183"><ele>178.0</ele><time>2026-05-01T08:43:48.208Z</time></trkpt><trkpt lat="43.5637267" lon="11.60297"><ele>178.0</ele><time>2026-05-01T08:43:49.208Z</time></trkpt><trkpt lat="43.56378" lon="11.6030167"><ele>177.99999999999997</ele><time>2026-05-01T08:43:50.208Z</time></trkpt><trkpt lat="43.5638333" lon="11.6030633"><ele>178.0</ele><time>2026-05-01T08:43:51.209Z</time></trkpt><trkpt lat="43.5639367" lon="11.6031567"><ele>178.0</ele><time>2026-05-01T08:43:53.208Z</time></trkpt><trkpt lat="43.56399" lon="11.6032033"><ele>178.0</ele><time>2026-05-01T08:43:54.208Z</time></trkpt><trkpt lat="43.5640933" lon="11.6032917"><ele>178.0</ele><time>2026-05-01T08:43:56.208Z</time></trkpt><trkpt lat="43.564195" lon="11.6033783"><ele>178.0</ele><time>2026-05-01T08:43:58.207Z</time></trkpt><trkpt lat="43.5642483" lon="11.603425"><ele>178.0</ele><time>2026-05-01T08:43:59.208Z</time></trkpt><trkpt lat="43.5643467" lon="11.6035217"><ele>178.0</ele><time>2026-05-01T08:44:01.207Z</time></trkpt><trkpt lat="43.5643983" lon="11.603575"><ele>178.0</ele><time>2026-05-01T08:44:02.208Z</time></trkpt><trkpt lat="43.5644467" lon="11.6036317"><ele>178.0</ele><time>2026-05-01T08:44:03.21Z</time></trkpt><trkpt lat="43.5645317" lon="11.603755"><ele>178.0</ele><time>2026-05-01T08:44:05.207Z</time></trkpt><trkpt lat="43.5646067" lon="11.6038917"><ele>178.0</ele><time>2026-05-01T08:44:07.207Z</time></trkpt><trkpt lat="43.5646667" lon="11.6040233"><ele>179.0</ele><time>2026-05-01T08:44:09.207Z</time></trkpt><trkpt lat="43.5647233" lon="11.6041533"><ele>180.0</ele><time>2026-05-01T08:44:11.208Z</time></trkpt><trkpt lat="43.5647783" lon="11.60427"><ele>181.0</ele><time>2026-05-01T08:44:13.208Z</time></trkpt><trkpt lat="43.5648317" lon="11.6043933"><ele>182.0</ele><time>2026-05-01T08:44:15.207Z</time></trkpt><trkpt lat="43.564885" lon="11.604515"><ele>183.0</ele><time>2026-05-01T08:44:17.207Z</time></trkpt><trkpt lat="43.5649383" lon="11.6046383"><ele>183.0</ele><time>2026-05-01T08:44:19.207Z</time></trkpt><trkpt lat="43.56499" lon="11.6047667"><ele>183.0</ele><time>2026-05-01T08:44:21.209Z</time></trkpt><trkpt lat="43.5650417" lon="11.6048867"><ele>183.0</ele><time>2026-05-01T08:44:23.211Z</time></trkpt><trkpt lat="43.5650933" lon="11.6050033"><ele>183.0</ele><time>2026-05-01T08:44:25.208Z</time></trkpt><trkpt lat="43.5651417" lon="11.6051283"><ele>183.0</ele><time>2026-05-01T08:44:27.211Z</time></trkpt><trkpt lat="43.56519" lon="11.6052517"><ele>182.8</ele><time>2026-05-01T08:44:29.208Z</time></trkpt><trkpt lat="43.5652367" lon="11.6053767"><ele>182.60000000000002</ele><time>2026-05-01T08:44:31.207Z</time></trkpt><trkpt lat="43.5652883" lon="11.6054967"><ele>182.39999999999998</ele><time>2026-05-01T08:44:33.208Z</time></trkpt><trkpt lat="43.56534" lon="11.6056017"><ele>182.2</ele><time>2026-05-01T08:44:35.206Z</time></trkpt><trkpt lat="43.5653967" lon="11.6057283"><ele>182.0</ele><time>2026-05-01T08:44:37.206Z</time></trkpt><trkpt lat="43.5654533" lon="11.6058567"><ele>182.8</ele><time>2026-05-01T08:44:39.207Z</time></trkpt><trkpt lat="43.5655117" lon="11.605985"><ele>183.6</ele><time>2026-05-01T08:44:41.207Z</time></trkpt><trkpt lat="43.56557" lon="11.6061183"><ele>184.4</ele><time>2026-05-01T08:44:43.207Z</time></trkpt><trkpt lat="43.5655967" lon="11.6062033"><ele>185.20000000000002</ele><time>2026-05-01T08:44:44.209Z</time></trkpt><trkpt lat="43.5656517" lon="11.606345"><ele>186.0</ele><time>2026-05-01T08:44:46.208Z</time></trkpt><trkpt lat="43.5657017" lon="11.6064817"><ele>186.0</ele><time>2026-05-01T08:44:48.208Z</time></trkpt><trkpt lat="43.565755" lon="11.606605"><ele>186.0</ele><time>2026-05-01T08:44:50.21Z</time></trkpt><trkpt lat="43.56581" lon="11.6067367"><ele>186.0</ele><time>2026-05-01T08:44:52.207Z</time></trkpt><trkpt lat="43.565865" lon="11.6068683"><ele>186.0</ele><time>2026-05-01T08:44:54.21Z</time></trkpt><trkpt lat="43.5659183" lon="11.606995"><ele>186.0</ele><time>2026-05-01T08:44:56.21Z</time></trkpt><trkpt lat="43.565975" lon="11.60712"><ele>186.20000000000002</ele><time>2026-05-01T08:44:58.207Z</time></trkpt><trkpt lat="43.5660283" lon="11.607245"><ele>186.4</ele><time>2026-05-01T08:45:00.208Z</time></trkpt><trkpt lat="43.5660883" lon="11.6073667"><ele>186.6</ele><time>2026-05-01T08:45:02.208Z</time></trkpt><trkpt lat="43.566155" lon="11.6074733"><ele>186.8</ele><time>2026-05-01T08:45:04.207Z</time></trkpt><trkpt lat="43.5662317" lon="11.60757"><ele>187.0</ele><time>2026-05-01T08:45:06.208Z</time></trkpt><trkpt lat="43.5663117" lon="11.6076467"><ele>188.0</ele><time>2026-05-01T08:45:08.207Z</time></trkpt><trkpt lat="43.5663867" lon="11.6077017"><ele>189.0</ele><time>2026-05-01T08:45:10.209Z</time></trkpt><trkpt lat="43.56647" lon="11.6077467"><ele>190.0</ele><time>2026-05-01T08:45:12.208Z</time></trkpt><trkpt lat="43.5665567" lon="11.6077817"><ele>191.0</ele><time>2026-05-01T08:45:14.208Z</time></trkpt><trkpt lat="43.566645" lon="11.607815"><ele>192.0</ele><time>2026-05-01T08:45:16.209Z</time></trkpt><trkpt lat="43.5667383" lon="11.6078483"><ele>192.2</ele><time>2026-05-01T08:45:18.207Z</time></trkpt><trkpt lat="43.566825" lon="11.6078733"><ele>192.39999999999998</ele><time>2026-05-01T08:45:20.206Z</time></trkpt><trkpt lat="43.56691" lon="11.6079117"><ele>192.60000000000002</ele><time>2026-05-01T08:45:22.207Z</time></trkpt><trkpt lat="43.5669767" lon="11.6079867"><ele>192.8</ele><time>2026-05-01T08:45:24.209Z</time></trkpt><trkpt lat="43.567035" lon="11.608085"><ele>193.0</ele><time>2026-05-01T08:45:26.207Z</time></trkpt><trkpt lat="43.5670917" lon="11.608195"><ele>194.4</ele><time>2026-05-01T08:45:28.208Z</time></trkpt><trkpt lat="43.5671617" lon="11.60828"><ele>195.8</ele><time>2026-05-01T08:45:30.207Z</time></trkpt><trkpt lat="43.5672483" lon="11.6083267"><ele>197.2</ele><time>2026-05-01T08:45:32.207Z</time></trkpt><trkpt lat="43.5673317" lon="11.608315"><ele>198.6</ele><time>2026-05-01T08:45:34.207Z</time></trkpt><trkpt lat="43.5674167" lon="11.6082833"><ele>200.0</ele><time>2026-05-01T08:45:36.208Z</time></trkpt><trkpt lat="43.5675017" lon="11.6082367"><ele>200.00000000000003</ele><time>2026-05-01T08:45:38.207Z</time></trkpt><trkpt lat="43.5675917" lon="11.6081817"><ele>200.0</ele><time>2026-05-01T08:45:40.208Z</time></trkpt><trkpt lat="43.567685" lon="11.6081517"><ele>200.0</ele><time>2026-05-01T08:45:42.208Z</time></trkpt><trkpt lat="43.5677733" lon="11.608155"><ele>200.0</ele><time>2026-05-01T08:45:44.207Z</time></trkpt><trkpt lat="43.5678433" lon="11.6081717"><ele>200.00000000000003</ele><time>2026-05-01T08:45:46.21Z</time></trkpt><trkpt lat="43.5679083" lon="11.6081833"><ele>200.0</ele><time>2026-05-01T08:45:48.209Z</time></trkpt><trkpt lat="43.5679967" lon="11.60818"><ele>202.83333333333334</ele><time>2026-05-01T08:45:51.208Z</time></trkpt><trkpt lat="43.5680683" lon="11.6081267"><ele>205.66666666666669</ele><time>2026-05-01T08:45:54.208Z</time></trkpt><trkpt lat="43.5681533" lon="11.6080867"><ele>208.5</ele><time>2026-05-01T08:45:57.207Z</time></trkpt><trkpt lat="43.5682271" lon="11.6080178"><ele>211.33333333333331</ele><time>2026-05-01T08:46:00.299Z</time></trkpt><trkpt lat="43.5682814" lon="11.6079484"><ele>214.16666666666666</ele><time>2026-05-01T08:46:04.244Z</time></trkpt><trkpt lat="43.5683151" lon="11.6078649"><ele>217.0</ele><time>2026-05-01T08:46:08.298Z</time></trkpt><trkpt lat="43.5683786" lon="11.6077755"><ele>218.0</ele><time>2026-05-01T08:46:13.316Z</time></trkpt><trkpt lat="43.5686016" lon="11.6076121"><ele>219.0</ele><time>2026-05-01T08:46:16.209Z</time></trkpt><trkpt lat="43.568719" lon="11.6075552"><ele>220.0</ele><time>2026-05-01T08:46:17.206Z</time></trkpt><trkpt lat="43.56882" lon="11.6075355"><ele>220.4</ele><time>2026-05-01T08:46:18.211Z</time></trkpt><trkpt lat="43.5689144" lon="11.607533"><ele>220.8</ele><time>2026-05-01T08:46:19.209Z</time></trkpt><trkpt lat="43.569017" lon="11.6075275"><ele>221.2</ele><time>2026-05-01T08:46:20.208Z</time></trkpt><trkpt lat="43.5691062" lon="11.6075027"><ele>221.6</ele><time>2026-05-01T08:46:21.205Z</time></trkpt><trkpt lat="43.5691836" lon="11.6074389"><ele>222.0</ele><time>2026-05-01T08:46:22.204Z</time></trkpt><trkpt lat="43.5692514" lon="11.6073615"><ele>222.0</ele><time>2026-05-01T08:46:23.206Z</time></trkpt><trkpt lat="43.5693095" lon="11.6072771"><ele>222.0</ele><time>2026-05-01T08:46:24.207Z</time></trkpt><trkpt lat="43.5693739" lon="11.6071725"><ele>222.0</ele><time>2026-05-01T08:46:25.208Z</time></trkpt><trkpt lat="43.5694371" lon="11.607063"><ele>222.0</ele><time>2026-05-01T08:46:26.206Z</time></trkpt><trkpt lat="43.5694957" lon="11.6069548"><ele>222.0</ele><time>2026-05-01T08:46:27.206Z</time></trkpt><trkpt lat="43.5695448" lon="11.6068579"><ele>221.39999999999998</ele><time>2026-05-01T08:46:28.205Z</time></trkpt><trkpt lat="43.5695911" lon="11.6067573"><ele>220.79999999999998</ele><time>2026-05-01T08:46:29.207Z</time></trkpt><trkpt lat="43.5696338" lon="11.6066517"><ele>220.2</ele><time>2026-05-01T08:46:30.209Z</time></trkpt><trkpt lat="43.5696769" lon="11.6065383"><ele>219.6</ele><time>2026-05-01T08:46:31.208Z</time></trkpt><trkpt lat="43.569719" lon="11.6064215"><ele>219.0</ele><time>2026-05-01T08:46:32.206Z</time></trkpt><trkpt lat="43.5697658" lon="11.606306"><ele>219.0</ele><time>2026-05-01T08:46:33.206Z</time></trkpt><trkpt lat="43.5697963" lon="11.6062117"><ele>219.0</ele><time>2026-05-01T08:46:34.207Z</time></trkpt><trkpt lat="43.5698359" lon="11.6061113"><ele>219.0</ele><time>2026-05-01T08:46:35.209Z</time></trkpt><trkpt lat="43.5698783" lon="11.6060042"><ele>219.0</ele><time>2026-05-01T08:46:36.207Z</time></trkpt><trkpt lat="43.5699263" lon="11.6059009"><ele>219.0</ele><time>2026-05-01T08:46:37.206Z</time></trkpt><trkpt lat="43.5699762" lon="11.6057957"><ele>219.0</ele><time>2026-05-01T08:46:38.209Z</time></trkpt><trkpt lat="43.5700277" lon="11.6056926"><ele>218.6</ele><time>2026-05-01T08:46:39.206Z</time></trkpt><trkpt lat="43.5700783" lon="11.6055911"><ele>218.2</ele><time>2026-05-01T08:46:40.207Z</time></trkpt><trkpt lat="43.5701286" lon="11.6054895"><ele>217.79999999999998</ele><time>2026-05-01T08:46:41.209Z</time></trkpt><trkpt lat="43.5701837" lon="11.6053779"><ele>217.39999999999998</ele><time>2026-05-01T08:46:42.207Z</time></trkpt><trkpt lat="43.5702356" lon="11.6052579"><ele>217.0</ele><time>2026-05-01T08:46:43.206Z</time></trkpt><trkpt lat="43.5702835" lon="11.6051427"><ele>217.0</ele><time>2026-05-01T08:46:44.206Z</time></trkpt><trkpt lat="43.5703317" lon="11.6050302"><ele>217.0</ele><time>2026-05-01T08:46:45.207Z</time></trkpt><trkpt lat="43.5703793" lon="11.6048872"><ele>217.0</ele><time>2026-05-01T08:46:46.207Z</time></trkpt><trkpt lat="43.5704193" lon="11.6047227"><ele>217.0</ele><time>2026-05-01T08:46:47.206Z</time></trkpt><trkpt lat="43.5704499" lon="11.6045374"><ele>213.0</ele><time>2026-05-01T08:46:48.203Z</time></trkpt><trkpt lat="43.5704628" lon="11.6043653"><ele>209.0</ele><time>2026-05-01T08:46:49.205Z</time></trkpt><trkpt lat="43.5704653" lon="11.604198"><ele>205.0</ele><time>2026-05-01T08:46:50.206Z</time></trkpt><trkpt lat="43.570458" lon="11.6040388"><ele>201.0</ele><time>2026-05-01T08:46:51.206Z</time></trkpt><trkpt lat="43.5704465" lon="11.6038907"><ele>201.0</ele><time>2026-05-01T08:46:52.206Z</time></trkpt><trkpt lat="43.5704357" lon="11.6037429"><ele>201.0</ele><time>2026-05-01T08:46:53.206Z</time></trkpt><trkpt lat="43.5704228" lon="11.6035995"><ele>201.0</ele><time>2026-05-01T08:46:54.204Z</time></trkpt><trkpt lat="43.5704119" lon="11.6034404"><ele>201.0</ele><time>2026-05-01T08:46:55.205Z</time></trkpt><trkpt lat="43.5703978" lon="11.6032855"><ele>201.0</ele><time>2026-05-01T08:46:56.207Z</time></trkpt><trkpt lat="43.570384" lon="11.6031352"><ele>201.8</ele><time>2026-05-01T08:46:57.209Z</time></trkpt><trkpt lat="43.5703679" lon="11.6029864"><ele>202.60000000000002</ele><time>2026-05-01T08:46:58.206Z</time></trkpt><trkpt lat="43.5703501" lon="11.6028355"><ele>203.4</ele><time>2026-05-01T08:46:59.205Z</time></trkpt><trkpt lat="43.5703343" lon="11.6026831"><ele>204.2</ele><time>2026-05-01T08:47:00.206Z</time></trkpt><trkpt lat="43.5703193" lon="11.6025342"><ele>205.0</ele><time>2026-05-01T08:47:01.205Z</time></trkpt><trkpt lat="43.5703056" lon="11.6023859"><ele>205.0</ele><time>2026-05-01T08:47:02.207Z</time></trkpt><trkpt lat="43.5702953" lon="11.6022428"><ele>205.0</ele><time>2026-05-01T08:47:03.208Z</time></trkpt><trkpt lat="43.5702869" lon="11.6020997"><ele>205.0</ele><time>2026-05-01T08:47:04.206Z</time></trkpt><trkpt lat="43.5702776" lon="11.6019566"><ele>205.0</ele><time>2026-05-01T08:47:05.206Z</time></trkpt><trkpt lat="43.5702665" lon="11.6018152"><ele>205.0</ele><time>2026-05-01T08:47:06.205Z</time></trkpt><trkpt lat="43.5702547" lon="11.601674"><ele>204.0</ele><time>2026-05-01T08:47:07.204Z</time></trkpt><trkpt lat="43.5702418" lon="11.6015368"><ele>203.0</ele><time>2026-05-01T08:47:08.207Z</time></trkpt><trkpt lat="43.5702288" lon="11.601405"><ele>202.0</ele><time>2026-05-01T08:47:09.207Z</time></trkpt><trkpt lat="43.5702197" lon="11.6012708"><ele>201.0</ele><time>2026-05-01T08:47:10.207Z</time></trkpt><trkpt lat="43.5702169" lon="11.6011349"><ele>200.0</ele><time>2026-05-01T08:47:11.205Z</time></trkpt><trkpt lat="43.5702162" lon="11.601004"><ele>200.0</ele><time>2026-05-01T08:47:12.204Z</time></trkpt><trkpt lat="43.5702206" lon="11.6008759"><ele>200.0</ele><time>2026-05-01T08:47:13.206Z</time></trkpt><trkpt lat="43.570226" lon="11.6007476"><ele>200.0</ele><time>2026-05-01T08:47:14.207Z</time></trkpt><trkpt lat="43.570234" lon="11.6006194"><ele>200.0</ele><time>2026-05-01T08:47:15.207Z</time></trkpt><trkpt lat="43.5702426" lon="11.6004937"><ele>200.0</ele><time>2026-05-01T08:47:16.204Z</time></trkpt><trkpt lat="43.5702497" lon="11.60037"><ele>199.50000000000003</ele><time>2026-05-01T08:47:17.205Z</time></trkpt><trkpt lat="43.5702535" lon="11.6002474"><ele>199.0</ele><time>2026-05-01T08:47:18.205Z</time></trkpt><trkpt lat="43.5702566" lon="11.6001233"><ele>198.5</ele><time>2026-05-01T08:47:19.208Z</time></trkpt><trkpt lat="43.5702611" lon="11.6000001"><ele>198.0</ele><time>2026-05-01T08:47:20.207Z</time></trkpt><trkpt lat="43.5702701" lon="11.5998796"><ele>197.50000000000003</ele><time>2026-05-01T08:47:21.205Z</time></trkpt><trkpt lat="43.5702787" lon="11.5997586"><ele>197.0</ele><time>2026-05-01T08:47:22.205Z</time></trkpt><trkpt lat="43.570287" lon="11.5996397"><ele>197.00000000000003</ele><time>2026-05-01T08:47:23.205Z</time></trkpt><trkpt lat="43.5702944" lon="11.5995211"><ele>197.0</ele><time>2026-05-01T08:47:24.207Z</time></trkpt><trkpt lat="43.5703014" lon="11.5994041"><ele>197.0</ele><time>2026-05-01T08:47:25.206Z</time></trkpt><trkpt lat="43.570307" lon="11.5992833"><ele>197.0</ele><time>2026-05-01T08:47:26.207Z</time></trkpt><trkpt lat="43.5703134" lon="11.5991666"><ele>197.00000000000003</ele><time>2026-05-01T08:47:27.205Z</time></trkpt><trkpt lat="43.5703251" lon="11.5990418"><ele>197.0</ele><time>2026-05-01T08:47:28.205Z</time></trkpt><trkpt lat="43.5703343" lon="11.5989187"><ele>197.16666666666669</ele><time>2026-05-01T08:47:29.205Z</time></trkpt><trkpt lat="43.570345" lon="11.59879"><ele>197.33333333333334</ele><time>2026-05-01T08:47:30.206Z</time></trkpt><trkpt lat="43.5703533" lon="11.59867"><ele>197.5</ele><time>2026-05-01T08:47:31.206Z</time></trkpt><trkpt lat="43.5703633" lon="11.5985467"><ele>197.66666666666669</ele><time>2026-05-01T08:47:32.207Z</time></trkpt><trkpt lat="43.5703733" lon="11.5984217"><ele>197.83333333333334</ele><time>2026-05-01T08:47:33.207Z</time></trkpt><trkpt lat="43.57038" lon="11.5983017"><ele>198.0</ele><time>2026-05-01T08:47:34.204Z</time></trkpt><trkpt lat="43.57039" lon="11.5981717"><ele>198.0</ele><time>2026-05-01T08:47:35.206Z</time></trkpt><trkpt lat="43.5704" lon="11.5980483"><ele>198.0</ele><time>2026-05-01T08:47:36.209Z</time></trkpt><trkpt lat="43.5704067" lon="11.5979317"><ele>198.0</ele><time>2026-05-01T08:47:37.207Z</time></trkpt><trkpt lat="43.570415" lon="11.59781"><ele>198.0</ele><time>2026-05-01T08:47:38.204Z</time></trkpt><trkpt lat="43.5704217" lon="11.5976933"><ele>198.0</ele><time>2026-05-01T08:47:39.205Z</time></trkpt><trkpt lat="43.5704283" lon="11.5975767"><ele>198.0</ele><time>2026-05-01T08:47:40.204Z</time></trkpt><trkpt lat="43.57043" lon="11.5974733"><ele>197.66666666666666</ele><time>2026-05-01T08:47:41.208Z</time></trkpt><trkpt lat="43.5704383" lon="11.5973633"><ele>197.33333333333331</ele><time>2026-05-01T08:47:42.21Z</time></trkpt><trkpt lat="43.570445" lon="11.5972533"><ele>197.0</ele><time>2026-05-01T08:47:43.206Z</time></trkpt><trkpt lat="43.5704533" lon="11.5971333"><ele>196.66666666666666</ele><time>2026-05-01T08:47:44.204Z</time></trkpt><trkpt lat="43.5704633" lon="11.5970067"><ele>196.33333333333331</ele><time>2026-05-01T08:47:45.204Z</time></trkpt><trkpt lat="43.570475" lon="11.5968867"><ele>196.0</ele><time>2026-05-01T08:47:46.206Z</time></trkpt><trkpt lat="43.5704833" lon="11.596765"><ele>194.99999999999997</ele><time>2026-05-01T08:47:47.207Z</time></trkpt><trkpt lat="43.57049" lon="11.596645"><ele>194.0</ele><time>2026-05-01T08:47:48.207Z</time></trkpt><trkpt lat="43.57051" lon="11.59652"><ele>193.0</ele><time>2026-05-01T08:47:49.205Z</time></trkpt><trkpt lat="43.5705367" lon="11.5964017"><ele>192.0</ele><time>2026-05-01T08:47:50.206Z</time></trkpt><trkpt lat="43.5705683" lon="11.5962833"><ele>191.0</ele><time>2026-05-01T08:47:51.207Z</time></trkpt><trkpt lat="43.5706017" lon="11.596175"><ele>190.0</ele><time>2026-05-01T08:47:52.206Z</time></trkpt><trkpt lat="43.57064" lon="11.596075"><ele>189.66666666666669</ele><time>2026-05-01T08:47:53.208Z</time></trkpt><trkpt lat="43.5706783" lon="11.5959733"><ele>189.33333333333334</ele><time>2026-05-01T08:47:54.205Z</time></trkpt><trkpt lat="43.5707167" lon="11.5958717"><ele>189.0</ele><time>2026-05-01T08:47:55.206Z</time></trkpt><trkpt lat="43.570755" lon="11.5957733"><ele>188.66666666666666</ele><time>2026-05-01T08:47:56.206Z</time></trkpt><trkpt lat="43.5707933" lon="11.5956783"><ele>188.33333333333331</ele><time>2026-05-01T08:47:57.207Z</time></trkpt><trkpt lat="43.5708317" lon="11.5955883"><ele>188.0</ele><time>2026-05-01T08:47:58.207Z</time></trkpt><trkpt lat="43.57087" lon="11.5954933"><ele>188.0</ele><time>2026-05-01T08:47:59.207Z</time></trkpt><trkpt lat="43.570905" lon="11.5953917"><ele>188.0</ele><time>2026-05-01T08:48:00.205Z</time></trkpt><trkpt lat="43.5709433" lon="11.5952883"><ele>188.0</ele><time>2026-05-01T08:48:01.205Z</time></trkpt><trkpt lat="43.57098" lon="11.59519"><ele>188.0</ele><time>2026-05-01T08:48:02.207Z</time></trkpt><trkpt lat="43.571015" lon="11.5951017"><ele>188.0</ele><time>2026-05-01T08:48:03.207Z</time></trkpt><trkpt lat="43.57105" lon="11.5950017"><ele>188.0</ele><time>2026-05-01T08:48:04.208Z</time></trkpt><trkpt lat="43.57109" lon="11.5948967"><ele>188.0</ele><time>2026-05-01T08:48:05.204Z</time></trkpt><trkpt lat="43.571125" lon="11.5948"><ele>188.0</ele><time>2026-05-01T08:48:06.207Z</time></trkpt><trkpt lat="43.5711567" lon="11.594705"><ele>188.0</ele><time>2026-05-01T08:48:07.206Z</time></trkpt><trkpt lat="43.5711917" lon="11.59461"><ele>188.0</ele><time>2026-05-01T08:48:08.206Z</time></trkpt><trkpt lat="43.5712283" lon="11.594515"><ele>188.0</ele><time>2026-05-01T08:48:09.208Z</time></trkpt><trkpt lat="43.5712667" lon="11.594415"><ele>188.0</ele><time>2026-05-01T08:48:10.207Z</time></trkpt><trkpt lat="43.571305" lon="11.5943167"><ele>187.83333333333331</ele><time>2026-05-01T08:48:11.207Z</time></trkpt><trkpt lat="43.5713417" lon="11.5942183"><ele>187.66666666666666</ele><time>2026-05-01T08:48:12.207Z</time></trkpt><trkpt lat="43.5713817" lon="11.5941167"><ele>187.5</ele><time>2026-05-01T08:48:13.207Z</time></trkpt><trkpt lat="43.57142" lon="11.5940133"><ele>187.33333333333334</ele><time>2026-05-01T08:48:14.207Z</time></trkpt><trkpt lat="43.5714583" lon="11.59391"><ele>187.16666666666669</ele><time>2026-05-01T08:48:15.207Z</time></trkpt><trkpt lat="43.5714967" lon="11.593805"><ele>187.0</ele><time>2026-05-01T08:48:16.204Z</time></trkpt><trkpt lat="43.5715333" lon="11.5936983"><ele>186.5</ele><time>2026-05-01T08:48:17.207Z</time></trkpt><trkpt lat="43.57157" lon="11.593595"><ele>186.0</ele><time>2026-05-01T08:48:18.205Z</time></trkpt><trkpt lat="43.5716083" lon="11.5935033"><ele>185.5</ele><time>2026-05-01T08:48:19.208Z</time></trkpt><trkpt lat="43.571635" lon="11.5933983"><ele>185.0</ele><time>2026-05-01T08:48:20.207Z</time></trkpt><trkpt lat="43.5716617" lon="11.5932883"><ele>184.5</ele><time>2026-05-01T08:48:21.206Z</time></trkpt><trkpt lat="43.5716883" lon="11.5931683"><ele>184.0</ele><time>2026-05-01T08:48:22.207Z</time></trkpt><trkpt lat="43.571705" lon="11.5930467"><ele>184.0</ele><time>2026-05-01T08:48:23.207Z</time></trkpt><trkpt lat="43.571715" lon="11.5929317"><ele>184.0</ele><time>2026-05-01T08:48:24.205Z</time></trkpt><trkpt lat="43.57173" lon="11.592815"><ele>184.0</ele><time>2026-05-01T08:48:25.205Z</time></trkpt><trkpt lat="43.5717483" lon="11.5927017"><ele>184.0</ele><time>2026-05-01T08:48:26.207Z</time></trkpt><trkpt lat="43.57177" lon="11.5925933"><ele>184.0</ele><time>2026-05-01T08:48:27.207Z</time></trkpt><trkpt lat="43.5717883" lon="11.5924867"><ele>184.0</ele><time>2026-05-01T08:48:28.207Z</time></trkpt><trkpt lat="43.5718033" lon="11.5923817"><ele>184.0</ele><time>2026-05-01T08:48:29.206Z</time></trkpt><trkpt lat="43.5718183" lon="11.5922783"><ele>184.0</ele><time>2026-05-01T08:48:30.205Z</time></trkpt><trkpt lat="43.57184" lon="11.5921733"><ele>184.0</ele><time>2026-05-01T08:48:31.205Z</time></trkpt><trkpt lat="43.5718667" lon="11.5920667"><ele>184.0</ele><time>2026-05-01T08:48:32.207Z</time></trkpt><trkpt lat="43.5718933" lon="11.59196"><ele>184.0</ele><time>2026-05-01T08:48:33.206Z</time></trkpt><trkpt lat="43.57192" lon="11.5918567"><ele>184.0</ele><time>2026-05-01T08:48:34.209Z</time></trkpt><trkpt lat="43.57195" lon="11.59175"><ele>183.66666666666669</ele><time>2026-05-01T08:48:35.205Z</time></trkpt><trkpt lat="43.5719817" lon="11.5916417"><ele>183.33333333333334</ele><time>2026-05-01T08:48:36.205Z</time></trkpt><trkpt lat="43.5720117" lon="11.5915333"><ele>183.0</ele><time>2026-05-01T08:48:37.205Z</time></trkpt><trkpt lat="43.5720417" lon="11.5914133"><ele>182.66666666666666</ele><time>2026-05-01T08:48:38.207Z</time></trkpt><trkpt lat="43.5720633" lon="11.5912933"><ele>182.33333333333331</ele><time>2026-05-01T08:48:39.209Z</time></trkpt><trkpt lat="43.5720917" lon="11.5911717"><ele>182.0</ele><time>2026-05-01T08:48:40.207Z</time></trkpt><trkpt lat="43.5721183" lon="11.5910583"><ele>182.0</ele><time>2026-05-01T08:48:41.205Z</time></trkpt><trkpt lat="43.57215" lon="11.59094"><ele>182.0</ele><time>2026-05-01T08:48:42.203Z</time></trkpt><trkpt lat="43.572185" lon="11.5908267"><ele>182.0</ele><time>2026-05-01T08:48:43.207Z</time></trkpt><trkpt lat="43.5722267" lon="11.590715"><ele>182.0</ele><time>2026-05-01T08:48:44.208Z</time></trkpt><trkpt lat="43.5722683" lon="11.59059"><ele>182.0</ele><time>2026-05-01T08:48:45.209Z</time></trkpt><trkpt lat="43.5723067" lon="11.5904683"><ele>182.0</ele><time>2026-05-01T08:48:46.205Z</time></trkpt><trkpt lat="43.5723483" lon="11.5903433"><ele>182.0</ele><time>2026-05-01T08:48:47.205Z</time></trkpt><trkpt lat="43.5723917" lon="11.5902167"><ele>182.0</ele><time>2026-05-01T08:48:48.205Z</time></trkpt><trkpt lat="43.5724383" lon="11.5900967"><ele>182.0</ele><time>2026-05-01T08:48:49.207Z</time></trkpt><trkpt lat="43.572485" lon="11.5899867"><ele>182.0</ele><time>2026-05-01T08:48:50.207Z</time></trkpt><trkpt lat="43.5725333" lon="11.5898667"><ele>181.2</ele><time>2026-05-01T08:48:51.207Z</time></trkpt><trkpt lat="43.5725817" lon="11.5897483"><ele>180.39999999999998</ele><time>2026-05-01T08:48:52.207Z</time></trkpt><trkpt lat="43.5726333" lon="11.5896333"><ele>179.60000000000002</ele><time>2026-05-01T08:48:53.208Z</time></trkpt><trkpt lat="43.5726833" lon="11.589525"><ele>178.8</ele><time>2026-05-01T08:48:54.205Z</time></trkpt><trkpt lat="43.572735" lon="11.58942"><ele>178.0</ele><time>2026-05-01T08:48:55.21Z</time></trkpt><trkpt lat="43.57279" lon="11.5893183"><ele>177.66666666666669</ele><time>2026-05-01T08:48:56.208Z</time></trkpt><trkpt lat="43.572845" lon="11.58923"><ele>177.33333333333334</ele><time>2026-05-01T08:48:57.208Z</time></trkpt><trkpt lat="43.57291" lon="11.5891433"><ele>177.0</ele><time>2026-05-01T08:48:58.207Z</time></trkpt><trkpt lat="43.572975" lon="11.5890633"><ele>176.66666666666666</ele><time>2026-05-01T08:48:59.207Z</time></trkpt><trkpt lat="43.5730383" lon="11.58898"><ele>176.33333333333331</ele><time>2026-05-01T08:49:00.205Z</time></trkpt><trkpt lat="43.573105" lon="11.5889017"><ele>176.0</ele><time>2026-05-01T08:49:01.209Z</time></trkpt><trkpt lat="43.57317" lon="11.588825"><ele>176.16666666666666</ele><time>2026-05-01T08:49:02.209Z</time></trkpt><trkpt lat="43.5732333" lon="11.5887483"><ele>176.33333333333331</ele><time>2026-05-01T08:49:03.207Z</time></trkpt><trkpt lat="43.57329" lon="11.588685"><ele>176.5</ele><time>2026-05-01T08:49:04.208Z</time></trkpt><trkpt lat="43.5733533" lon="11.5886167"><ele>176.66666666666666</ele><time>2026-05-01T08:49:05.205Z</time></trkpt><trkpt lat="43.573415" lon="11.5885483"><ele>176.83333333333334</ele><time>2026-05-01T08:49:06.207Z</time></trkpt><trkpt lat="43.5734767" lon="11.5884817"><ele>177.0</ele><time>2026-05-01T08:49:07.21Z</time></trkpt><trkpt lat="43.57354" lon="11.588415"><ele>177.0</ele><time>2026-05-01T08:49:08.207Z</time></trkpt><trkpt lat="43.573605" lon="11.5883567"><ele>177.0</ele><time>2026-05-01T08:49:09.206Z</time></trkpt><trkpt lat="43.5736783" lon="11.5882933"><ele>177.0</ele><time>2026-05-01T08:49:10.205Z</time></trkpt><trkpt lat="43.5737617" lon="11.5882383"><ele>177.0</ele><time>2026-05-01T08:49:11.206Z</time></trkpt><trkpt lat="43.5738367" lon="11.5881767"><ele>177.0</ele><time>2026-05-01T08:49:12.21Z</time></trkpt><trkpt lat="43.573915" lon="11.5881167"><ele>177.0</ele><time>2026-05-01T08:49:13.207Z</time></trkpt><trkpt lat="43.573995" lon="11.5880483"><ele>176.8</ele><time>2026-05-01T08:49:14.208Z</time></trkpt><trkpt lat="43.5740867" lon="11.5879817"><ele>176.6</ele><time>2026-05-01T08:49:15.209Z</time></trkpt><trkpt lat="43.5741683" lon="11.58792"><ele>176.4</ele><time>2026-05-01T08:49:16.206Z</time></trkpt><trkpt lat="43.5742483" lon="11.5878667"><ele>176.20000000000002</ele><time>2026-05-01T08:49:17.208Z</time></trkpt><trkpt lat="43.5743283" lon="11.5878017"><ele>176.0</ele><time>2026-05-01T08:49:18.206Z</time></trkpt><trkpt lat="43.5744033" lon="11.5877167"><ele>176.0</ele><time>2026-05-01T08:49:19.205Z</time></trkpt><trkpt lat="43.5744733" lon="11.58763"><ele>176.0</ele><time>2026-05-01T08:49:20.207Z</time></trkpt><trkpt lat="43.5745383" lon="11.5875483"><ele>176.0</ele><time>2026-05-01T08:49:21.207Z</time></trkpt><trkpt lat="43.5746017" lon="11.587465"><ele>176.0</ele><time>2026-05-01T08:49:22.205Z</time></trkpt><trkpt lat="43.5746633" lon="11.587385"><ele>176.0</ele><time>2026-05-01T08:49:23.205Z</time></trkpt><trkpt lat="43.57473" lon="11.587285"><ele>176.0</ele><time>2026-05-01T08:49:24.206Z</time></trkpt><trkpt lat="43.5748083" lon="11.5871817"><ele>176.0</ele><time>2026-05-01T08:49:25.205Z</time></trkpt><trkpt lat="43.5748733" lon="11.5871"><ele>176.0</ele><time>2026-05-01T08:49:26.207Z</time></trkpt><trkpt lat="43.5749383" lon="11.5870083"><ele>176.0</ele><time>2026-05-01T08:49:27.207Z</time></trkpt><trkpt lat="43.5749967" lon="11.5869183"><ele>176.0</ele><time>2026-05-01T08:49:28.208Z</time></trkpt><trkpt lat="43.5750617" lon="11.5868133"><ele>176.0</ele><time>2026-05-01T08:49:29.205Z</time></trkpt><trkpt lat="43.575115" lon="11.586725"><ele>176.0</ele><time>2026-05-01T08:49:30.207Z</time></trkpt><trkpt lat="43.5751667" lon="11.58663"><ele>176.0</ele><time>2026-05-01T08:49:31.207Z</time></trkpt><trkpt lat="43.57523" lon="11.5865217"><ele>176.0</ele><time>2026-05-01T08:49:32.208Z</time></trkpt><trkpt lat="43.5752883" lon="11.5864183"><ele>176.0</ele><time>2026-05-01T08:49:33.207Z</time></trkpt><trkpt lat="43.5753517" lon="11.5863167"><ele>177.20000000000002</ele><time>2026-05-01T08:49:34.208Z</time></trkpt><trkpt lat="43.575415" lon="11.5862133"><ele>178.4</ele><time>2026-05-01T08:49:35.204Z</time></trkpt><trkpt lat="43.575475" lon="11.5861167"><ele>179.6</ele><time>2026-05-01T08:49:36.21Z</time></trkpt><trkpt lat="43.5755333" lon="11.586025"><ele>180.8</ele><time>2026-05-01T08:49:37.206Z</time></trkpt><trkpt lat="43.57559" lon="11.585935"><ele>182.0</ele><time>2026-05-01T08:49:38.208Z</time></trkpt><trkpt lat="43.5756467" lon="11.5858433"><ele>182.0</ele><time>2026-05-01T08:49:39.205Z</time></trkpt><trkpt lat="43.5757033" lon="11.5857533"><ele>182.0</ele><time>2026-05-01T08:49:40.205Z</time></trkpt><trkpt lat="43.57576" lon="11.5856617"><ele>182.0</ele><time>2026-05-01T08:49:41.206Z</time></trkpt><trkpt lat="43.5758167" lon="11.585565"><ele>182.0</ele><time>2026-05-01T08:49:42.208Z</time></trkpt><trkpt lat="43.5758733" lon="11.5854667"><ele>182.0</ele><time>2026-05-01T08:49:43.207Z</time></trkpt><trkpt lat="43.5759317" lon="11.5853667"><ele>182.0</ele><time>2026-05-01T08:49:44.208Z</time></trkpt><trkpt lat="43.575995" lon="11.585265"><ele>181.8</ele><time>2026-05-01T08:49:45.205Z</time></trkpt><trkpt lat="43.5760583" lon="11.5851667"><ele>181.6</ele><time>2026-05-01T08:49:46.205Z</time></trkpt><trkpt lat="43.5761183" lon="11.5850683"><ele>181.4</ele><time>2026-05-01T08:49:47.207Z</time></trkpt><trkpt lat="43.57618" lon="11.58497"><ele>181.20000000000002</ele><time>2026-05-01T08:49:48.208Z</time></trkpt><trkpt lat="43.576245" lon="11.5848767"><ele>181.0</ele><time>2026-05-01T08:49:49.206Z</time></trkpt><trkpt lat="43.5763117" lon="11.584785"><ele>181.0</ele><time>2026-05-01T08:49:50.209Z</time></trkpt><trkpt lat="43.5763867" lon="11.5846983"><ele>181.0</ele><time>2026-05-01T08:49:51.208Z</time></trkpt><trkpt lat="43.5764633" lon="11.5846217"><ele>181.0</ele><time>2026-05-01T08:49:52.205Z</time></trkpt><trkpt lat="43.5765433" lon="11.5845533"><ele>181.0</ele><time>2026-05-01T08:49:53.207Z</time></trkpt><trkpt lat="43.5766233" lon="11.5844883"><ele>181.0</ele><time>2026-05-01T08:49:54.207Z</time></trkpt><trkpt lat="43.576705" lon="11.5844183"><ele>178.60000000000002</ele><time>2026-05-01T08:49:55.208Z</time></trkpt><trkpt lat="43.57679" lon="11.58434"><ele>176.2</ele><time>2026-05-01T08:49:56.204Z</time></trkpt><trkpt lat="43.5768667" lon="11.5842717"><ele>173.8</ele><time>2026-05-01T08:49:57.205Z</time></trkpt><trkpt lat="43.5769483" lon="11.5842017"><ele>171.39999999999998</ele><time>2026-05-01T08:49:58.206Z</time></trkpt><trkpt lat="43.5770283" lon="11.5841283"><ele>169.0</ele><time>2026-05-01T08:49:59.207Z</time></trkpt><trkpt lat="43.577095" lon="11.5840667"><ele>168.79999999999998</ele><time>2026-05-01T08:50:00.207Z</time></trkpt><trkpt lat="43.57717" lon="11.583985"><ele>168.6</ele><time>2026-05-01T08:50:01.205Z</time></trkpt><trkpt lat="43.5772417" lon="11.5839083"><ele>168.4</ele><time>2026-05-01T08:50:02.207Z</time></trkpt><trkpt lat="43.5773067" lon="11.5838317"><ele>168.2</ele><time>2026-05-01T08:50:03.205Z</time></trkpt><trkpt lat="43.5773717" lon="11.583735"><ele>168.0</ele><time>2026-05-01T08:50:04.206Z</time></trkpt><trkpt lat="43.577435" lon="11.5836533"><ele>167.83333333333334</ele><time>2026-05-01T08:50:05.207Z</time></trkpt><trkpt lat="43.5774983" lon="11.583565"><ele>167.66666666666666</ele><time>2026-05-01T08:50:06.207Z</time></trkpt><trkpt lat="43.5775617" lon="11.583475"><ele>167.5</ele><time>2026-05-01T08:50:07.206Z</time></trkpt><trkpt lat="43.5776267" lon="11.5833883"><ele>167.33333333333331</ele><time>2026-05-01T08:50:08.206Z</time></trkpt><trkpt lat="43.57769" lon="11.58332"><ele>167.16666666666666</ele><time>2026-05-01T08:50:09.207Z</time></trkpt><trkpt lat="43.5777617" lon="11.5832517"><ele>167.0</ele><time>2026-05-01T08:50:10.207Z</time></trkpt><trkpt lat="43.577835" lon="11.5831967"><ele>167.2</ele><time>2026-05-01T08:50:11.208Z</time></trkpt><trkpt lat="43.577915" lon="11.5831383"><ele>167.39999999999998</ele><time>2026-05-01T08:50:12.204Z</time></trkpt><trkpt lat="43.5779983" lon="11.583085"><ele>167.60000000000002</ele><time>2026-05-01T08:50:13.205Z</time></trkpt><trkpt lat="43.57808" lon="11.5830417"><ele>167.8</ele><time>2026-05-01T08:50:14.207Z</time></trkpt><trkpt lat="43.578165" lon="11.583005"><ele>168.0</ele><time>2026-05-01T08:50:15.207Z</time></trkpt><trkpt lat="43.5782533" lon="11.5829733"><ele>168.0</ele><time>2026-05-01T08:50:16.207Z</time></trkpt><trkpt lat="43.57834" lon="11.58294"><ele>168.0</ele><time>2026-05-01T08:50:17.208Z</time></trkpt><trkpt lat="43.5784283" lon="11.58291"><ele>168.0</ele><time>2026-05-01T08:50:18.207Z</time></trkpt><trkpt lat="43.5785183" lon="11.582875"><ele>168.0</ele><time>2026-05-01T08:50:19.205Z</time></trkpt><trkpt lat="43.5786067" lon="11.582845"><ele>168.0</ele><time>2026-05-01T08:50:20.208Z</time></trkpt><trkpt lat="43.57869" lon="11.5828167"><ele>167.66666666666666</ele><time>2026-05-01T08:50:21.208Z</time></trkpt><trkpt lat="43.5787667" lon="11.582795"><ele>167.33333333333334</ele><time>2026-05-01T08:50:22.209Z</time></trkpt><trkpt lat="43.578855" lon="11.5827683"><ele>167.0</ele><time>2026-05-01T08:50:23.205Z</time></trkpt><trkpt lat="43.5789417" lon="11.5827417"><ele>166.66666666666669</ele><time>2026-05-01T08:50:24.205Z</time></trkpt><trkpt lat="43.5790267" lon="11.5827167"><ele>166.33333333333334</ele><time>2026-05-01T08:50:25.205Z</time></trkpt><trkpt lat="43.57911" lon="11.5826933"><ele>166.0</ele><time>2026-05-01T08:50:26.207Z</time></trkpt><trkpt lat="43.5791933" lon="11.5826683"><ele>166.0</ele><time>2026-05-01T08:50:27.205Z</time></trkpt><trkpt lat="43.5792817" lon="11.5826433"><ele>166.0</ele><time>2026-05-01T08:50:28.205Z</time></trkpt><trkpt lat="43.5793733" lon="11.5826183"><ele>166.0</ele><time>2026-05-01T08:50:29.208Z</time></trkpt><trkpt lat="43.5794633" lon="11.5825917"><ele>166.0</ele><time>2026-05-01T08:50:30.207Z</time></trkpt><trkpt lat="43.5795533" lon="11.5825667"><ele>166.0</ele><time>2026-05-01T08:50:31.206Z</time></trkpt><trkpt lat="43.5796483" lon="11.58254"><ele>166.20000000000002</ele><time>2026-05-01T08:50:32.205Z</time></trkpt><trkpt lat="43.5797383" lon="11.5825133"><ele>166.4</ele><time>2026-05-01T08:50:33.208Z</time></trkpt><trkpt lat="43.5798283" lon="11.5824833"><ele>166.6</ele><time>2026-05-01T08:50:34.209Z</time></trkpt><trkpt lat="43.57992" lon="11.5824517"><ele>166.8</ele><time>2026-05-01T08:50:35.207Z</time></trkpt><trkpt lat="43.5800167" lon="11.58242"><ele>167.0</ele><time>2026-05-01T08:50:36.206Z</time></trkpt><trkpt lat="43.5801117" lon="11.5823917"><ele>167.0</ele><time>2026-05-01T08:50:37.208Z</time></trkpt><trkpt lat="43.5802033" lon="11.582365"><ele>167.0</ele><time>2026-05-01T08:50:38.205Z</time></trkpt><trkpt lat="43.5802983" lon="11.5823333"><ele>167.0</ele><time>2026-05-01T08:50:39.205Z</time></trkpt><trkpt lat="43.5803917" lon="11.5823067"><ele>167.0</ele><time>2026-05-01T08:50:40.204Z</time></trkpt><trkpt lat="43.580485" lon="11.5822783"><ele>167.0</ele><time>2026-05-01T08:50:41.207Z</time></trkpt><trkpt lat="43.580575" lon="11.58225"><ele>168.16666666666666</ele><time>2026-05-01T08:50:42.207Z</time></trkpt><trkpt lat="43.5806517" lon="11.5822183"><ele>169.33333333333331</ele><time>2026-05-01T08:50:43.207Z</time></trkpt><trkpt lat="43.5807367" lon="11.5821867"><ele>170.5</ele><time>2026-05-01T08:50:44.208Z</time></trkpt><trkpt lat="43.5808233" lon="11.5821617"><ele>171.66666666666666</ele><time>2026-05-01T08:50:45.207Z</time></trkpt><trkpt lat="43.5809183" lon="11.582135"><ele>172.83333333333334</ele><time>2026-05-01T08:50:46.205Z</time></trkpt><trkpt lat="43.5810067" lon="11.5821017"><ele>174.0</ele><time>2026-05-01T08:50:47.204Z</time></trkpt><trkpt lat="43.5811017" lon="11.5820633"><ele>174.2</ele><time>2026-05-01T08:50:48.206Z</time></trkpt><trkpt lat="43.5811883" lon="11.58202"><ele>174.39999999999998</ele><time>2026-05-01T08:50:49.206Z</time></trkpt><trkpt lat="43.58126" lon="11.581955"><ele>174.6</ele><time>2026-05-01T08:50:50.208Z</time></trkpt><trkpt lat="43.5813317" lon="11.5818567"><ele>174.8</ele><time>2026-05-01T08:50:51.206Z</time></trkpt><trkpt lat="43.5813833" lon="11.5817183"><ele>175.0</ele><time>2026-05-01T08:50:52.207Z</time></trkpt><trkpt lat="43.5814317" lon="11.58159"><ele>173.0</ele><time>2026-05-01T08:50:53.206Z</time></trkpt><trkpt lat="43.58148" lon="11.5814567"><ele>171.0</ele><time>2026-05-01T08:50:54.205Z</time></trkpt><trkpt lat="43.5815283" lon="11.58133"><ele>169.0</ele><time>2026-05-01T08:50:55.205Z</time></trkpt><trkpt lat="43.58157" lon="11.5812117"><ele>167.0</ele><time>2026-05-01T08:50:56.207Z</time></trkpt><trkpt lat="43.5816167" lon="11.5810967"><ele>165.0</ele><time>2026-05-01T08:50:57.207Z</time></trkpt><trkpt lat="43.5816633" lon="11.5809817"><ele>164.6</ele><time>2026-05-01T08:50:58.209Z</time></trkpt><trkpt lat="43.58171" lon="11.58088"><ele>164.2</ele><time>2026-05-01T08:50:59.207Z</time></trkpt><trkpt lat="43.58176" lon="11.580775"><ele>163.8</ele><time>2026-05-01T08:51:00.209Z</time></trkpt><trkpt lat="43.5818083" lon="11.5806383"><ele>163.4</ele><time>2026-05-01T08:51:01.207Z</time></trkpt><trkpt lat="43.5818517" lon="11.5804967"><ele>163.0</ele><time>2026-05-01T08:51:02.207Z</time></trkpt><trkpt lat="43.58191" lon="11.58036"><ele>162.8</ele><time>2026-05-01T08:51:03.207Z</time></trkpt><trkpt lat="43.5819667" lon="11.5802367"><ele>162.60000000000002</ele><time>2026-05-01T08:51:04.208Z</time></trkpt><trkpt lat="43.5820233" lon="11.5801167"><ele>162.39999999999998</ele><time>2026-05-01T08:51:05.207Z</time></trkpt><trkpt lat="43.5820883" lon="11.58"><ele>162.2</ele><time>2026-05-01T08:51:06.21Z</time></trkpt><trkpt lat="43.5821617" lon="11.5798817"><ele>162.0</ele><time>2026-05-01T08:51:07.207Z</time></trkpt><trkpt lat="43.5822333" lon="11.57978"><ele>162.0</ele><time>2026-05-01T08:51:08.207Z</time></trkpt><trkpt lat="43.58231" lon="11.579685"><ele>162.0</ele><time>2026-05-01T08:51:09.207Z</time></trkpt><trkpt lat="43.5823883" lon="11.5796083"><ele>162.0</ele><time>2026-05-01T08:51:10.207Z</time></trkpt><trkpt lat="43.58247" lon="11.5795233"><ele>162.0</ele><time>2026-05-01T08:51:11.207Z</time></trkpt><trkpt lat="43.58255" lon="11.57944"><ele>162.0</ele><time>2026-05-01T08:51:12.209Z</time></trkpt><trkpt lat="43.58263" lon="11.5793583"><ele>162.0</ele><time>2026-05-01T08:51:13.21Z</time></trkpt><trkpt lat="43.5827117" lon="11.57928"><ele>162.0</ele><time>2026-05-01T08:51:14.21Z</time></trkpt><trkpt lat="43.5827883" lon="11.5792067"><ele>162.0</ele><time>2026-05-01T08:51:15.208Z</time></trkpt><trkpt lat="43.5828667" lon="11.5791333"><ele>162.0</ele><time>2026-05-01T08:51:16.207Z</time></trkpt><trkpt lat="43.5829483" lon="11.5790583"><ele>162.0</ele><time>2026-05-01T08:51:17.208Z</time></trkpt><trkpt lat="43.58303" lon="11.57898"><ele>162.0</ele><time>2026-05-01T08:51:18.208Z</time></trkpt><trkpt lat="43.5831117" lon="11.5789033"><ele>162.0</ele><time>2026-05-01T08:51:19.21Z</time></trkpt><trkpt lat="43.5831933" lon="11.578825"><ele>162.0</ele><time>2026-05-01T08:51:20.208Z</time></trkpt><trkpt lat="43.583275" lon="11.5787467"><ele>162.0</ele><time>2026-05-01T08:51:21.21Z</time></trkpt><trkpt lat="43.5833567" lon="11.57867"><ele>162.0</ele><time>2026-05-01T08:51:22.208Z</time></trkpt><trkpt lat="43.58344" lon="11.5785883"><ele>161.4</ele><time>2026-05-01T08:51:23.212Z</time></trkpt><trkpt lat="43.58352" lon="11.57851"><ele>160.79999999999998</ele><time>2026-05-01T08:51:24.209Z</time></trkpt><trkpt lat="43.5836017" lon="11.5784283"><ele>160.2</ele><time>2026-05-01T08:51:25.207Z</time></trkpt><trkpt lat="43.5836817" lon="11.578355"><ele>159.6</ele><time>2026-05-01T08:51:26.207Z</time></trkpt><trkpt lat="43.5837633" lon="11.5782783"><ele>159.0</ele><time>2026-05-01T08:51:27.207Z</time></trkpt><trkpt lat="43.583845" lon="11.5782017"><ele>159.0</ele><time>2026-05-01T08:51:28.209Z</time></trkpt><trkpt lat="43.5839283" lon="11.5781217"><ele>159.0</ele><time>2026-05-01T08:51:29.208Z</time></trkpt><trkpt lat="43.58401" lon="11.57805"><ele>159.0</ele><time>2026-05-01T08:51:30.208Z</time></trkpt><trkpt lat="43.5840967" lon="11.5779733"><ele>159.0</ele><time>2026-05-01T08:51:31.207Z</time></trkpt><trkpt lat="43.5841817" lon="11.5779017"><ele>159.0</ele><time>2026-05-01T08:51:32.209Z</time></trkpt><trkpt lat="43.5842683" lon="11.5778367"><ele>159.0</ele><time>2026-05-01T08:51:33.207Z</time></trkpt><trkpt lat="43.584355" lon="11.57777"><ele>159.0</ele><time>2026-05-01T08:51:34.209Z</time></trkpt><trkpt lat="43.5844483" lon="11.577705"><ele>159.0</ele><time>2026-05-01T08:51:35.209Z</time></trkpt><trkpt lat="43.5845367" lon="11.57765"><ele>159.0</ele><time>2026-05-01T08:51:36.21Z</time></trkpt><trkpt lat="43.5846267" lon="11.5775933"><ele>159.0</ele><time>2026-05-01T08:51:37.208Z</time></trkpt><trkpt lat="43.58472" lon="11.5775333"><ele>158.8</ele><time>2026-05-01T08:51:38.208Z</time></trkpt><trkpt lat="43.584815" lon="11.5774717"><ele>158.60000000000002</ele><time>2026-05-01T08:51:39.21Z</time></trkpt><trkpt lat="43.5849067" lon="11.577415"><ele>158.4</ele><time>2026-05-01T08:51:40.207Z</time></trkpt><trkpt lat="43.5849933" lon="11.5773617"><ele>158.20000000000002</ele><time>2026-05-01T08:51:41.207Z</time></trkpt><trkpt lat="43.5850917" lon="11.577295"><ele>158.0</ele><time>2026-05-01T08:51:42.21Z</time></trkpt><trkpt lat="43.5851917" lon="11.5772333"><ele>158.0</ele><time>2026-05-01T08:51:43.207Z</time></trkpt><trkpt lat="43.5852867" lon="11.5771717"><ele>158.0</ele><time>2026-05-01T08:51:44.207Z</time></trkpt><trkpt lat="43.5853833" lon="11.5771083"><ele>158.0</ele><time>2026-05-01T08:51:45.207Z</time></trkpt><trkpt lat="43.5854783" lon="11.5770433"><ele>158.0</ele><time>2026-05-01T08:51:46.21Z</time></trkpt><trkpt lat="43.5855717" lon="11.5769783"><ele>158.0</ele><time>2026-05-01T08:51:47.209Z</time></trkpt><trkpt lat="43.5856617" lon="11.576915"><ele>157.8</ele><time>2026-05-01T08:51:48.208Z</time></trkpt><trkpt lat="43.5857533" lon="11.57684"><ele>157.60000000000002</ele><time>2026-05-01T08:51:49.207Z</time></trkpt><trkpt lat="43.585835" lon="11.5767683"><ele>157.39999999999998</ele><time>2026-05-01T08:51:50.209Z</time></trkpt><trkpt lat="43.5859217" lon="11.5766967"><ele>157.2</ele><time>2026-05-01T08:51:51.207Z</time></trkpt><trkpt lat="43.5860033" lon="11.5766267"><ele>157.0</ele><time>2026-05-01T08:51:52.206Z</time></trkpt><trkpt lat="43.58609" lon="11.5765467"><ele>157.0</ele><time>2026-05-01T08:51:53.208Z</time></trkpt><trkpt lat="43.5861767" lon="11.5764633"><ele>157.0</ele><time>2026-05-01T08:51:54.207Z</time></trkpt><trkpt lat="43.58626" lon="11.5763817"><ele>157.0</ele><time>2026-05-01T08:51:55.208Z</time></trkpt><trkpt lat="43.586345" lon="11.5762983"><ele>157.0</ele><time>2026-05-01T08:51:56.207Z</time></trkpt><trkpt lat="43.5864267" lon="11.5762167"><ele>157.0</ele><time>2026-05-01T08:51:57.209Z</time></trkpt><trkpt lat="43.586505" lon="11.5761283"><ele>157.0</ele><time>2026-05-01T08:51:58.21Z</time></trkpt><trkpt lat="43.5865833" lon="11.5760383"><ele>157.0</ele><time>2026-05-01T08:51:59.208Z</time></trkpt><trkpt lat="43.5866633" lon="11.5759467"><ele>157.0</ele><time>2026-05-01T08:52:00.207Z</time></trkpt><trkpt lat="43.58674" lon="11.5758517"><ele>157.0</ele><time>2026-05-01T08:52:01.209Z</time></trkpt><trkpt lat="43.586815" lon="11.5757533"><ele>157.0</ele><time>2026-05-01T08:52:02.208Z</time></trkpt><trkpt lat="43.5868867" lon="11.575655"><ele>157.0</ele><time>2026-05-01T08:52:03.207Z</time></trkpt><trkpt lat="43.5869583" lon="11.5755583"><ele>157.0</ele><time>2026-05-01T08:52:04.207Z</time></trkpt><trkpt lat="43.5870283" lon="11.5754617"><ele>157.0</ele><time>2026-05-01T08:52:05.208Z</time></trkpt><trkpt lat="43.587095" lon="11.5753617"><ele>157.0</ele><time>2026-05-01T08:52:06.209Z</time></trkpt><trkpt lat="43.5871633" lon="11.5752517"><ele>157.0</ele><time>2026-05-01T08:52:07.207Z</time></trkpt><trkpt lat="43.58723" lon="11.5751417"><ele>157.2</ele><time>2026-05-01T08:52:08.207Z</time></trkpt><trkpt lat="43.5872867" lon="11.57503"><ele>157.39999999999998</ele><time>2026-05-01T08:52:09.207Z</time></trkpt><trkpt lat="43.587345" lon="11.5749167"><ele>157.60000000000002</ele><time>2026-05-01T08:52:10.207Z</time></trkpt><trkpt lat="43.5874" lon="11.5748067"><ele>157.8</ele><time>2026-05-01T08:52:11.208Z</time></trkpt><trkpt lat="43.5874517" lon="11.5746917"><ele>158.0</ele><time>2026-05-01T08:52:12.208Z</time></trkpt><trkpt lat="43.5875017" lon="11.574575"><ele>157.6</ele><time>2026-05-01T08:52:13.207Z</time></trkpt><trkpt lat="43.5875517" lon="11.5744617"><ele>157.20000000000002</ele><time>2026-05-01T08:52:14.208Z</time></trkpt><trkpt lat="43.5876" lon="11.57435"><ele>156.8</ele><time>2026-05-01T08:52:15.208Z</time></trkpt><trkpt lat="43.5876517" lon="11.57424"><ele>156.4</ele><time>2026-05-01T08:52:16.207Z</time></trkpt><trkpt lat="43.5877017" lon="11.57413"><ele>156.0</ele><time>2026-05-01T08:52:17.207Z</time></trkpt><trkpt lat="43.587755" lon="11.5740167"><ele>156.0</ele><time>2026-05-01T08:52:18.207Z</time></trkpt><trkpt lat="43.5878067" lon="11.5739"><ele>156.0</ele><time>2026-05-01T08:52:19.21Z</time></trkpt><trkpt lat="43.58786" lon="11.57378"><ele>156.0</ele><time>2026-05-01T08:52:20.209Z</time></trkpt><trkpt lat="43.587915" lon="11.5736617"><ele>156.0</ele><time>2026-05-01T08:52:21.208Z</time></trkpt><trkpt lat="43.58797" lon="11.5735417"><ele>156.0</ele><time>2026-05-01T08:52:22.207Z</time></trkpt><trkpt lat="43.588025" lon="11.573425"><ele>155.6</ele><time>2026-05-01T08:52:23.21Z</time></trkpt><trkpt lat="43.58808" lon="11.5733067"><ele>155.2</ele><time>2026-05-01T08:52:24.21Z</time></trkpt><trkpt lat="43.588135" lon="11.57319"><ele>154.8</ele><time>2026-05-01T08:52:25.209Z</time></trkpt><trkpt lat="43.5881917" lon="11.5730733"><ele>154.4</ele><time>2026-05-01T08:52:26.207Z</time></trkpt><trkpt lat="43.5882467" lon="11.5729583"><ele>154.0</ele><time>2026-05-01T08:52:27.211Z</time></trkpt><trkpt lat="43.5883017" lon="11.5728467"><ele>154.0</ele><time>2026-05-01T08:52:28.208Z</time></trkpt><trkpt lat="43.5883567" lon="11.572735"><ele>154.0</ele><time>2026-05-01T08:52:29.207Z</time></trkpt><trkpt lat="43.5884083" lon="11.5726233"><ele>154.0</ele><time>2026-05-01T08:52:30.207Z</time></trkpt><trkpt lat="43.5884617" lon="11.572515"><ele>154.0</ele><time>2026-05-01T08:52:31.207Z</time></trkpt><trkpt lat="43.5885117" lon="11.57241"><ele>154.0</ele><time>2026-05-01T08:52:32.207Z</time></trkpt><trkpt lat="43.5885617" lon="11.5723017"><ele>154.0</ele><time>2026-05-01T08:52:33.207Z</time></trkpt><trkpt lat="43.588615" lon="11.57219"><ele>154.0</ele><time>2026-05-01T08:52:34.209Z</time></trkpt><trkpt lat="43.5886633" lon="11.5720783"><ele>154.0</ele><time>2026-05-01T08:52:35.209Z</time></trkpt><trkpt lat="43.588715" lon="11.571965"><ele>154.0</ele><time>2026-05-01T08:52:36.207Z</time></trkpt><trkpt lat="43.5887683" lon="11.57185"><ele>154.0</ele><time>2026-05-01T08:52:37.207Z</time></trkpt><trkpt lat="43.5888183" lon="11.571735"><ele>154.0</ele><time>2026-05-01T08:52:38.207Z</time></trkpt><trkpt lat="43.58887" lon="11.5716183"><ele>154.0</ele><time>2026-05-01T08:52:39.21Z</time></trkpt><trkpt lat="43.5889183" lon="11.5715067"><ele>154.0</ele><time>2026-05-01T08:52:40.207Z</time></trkpt><trkpt lat="43.5889667" lon="11.571395"><ele>154.0</ele><time>2026-05-01T08:52:41.211Z</time></trkpt><trkpt lat="43.5890183" lon="11.571285"><ele>154.0</ele><time>2026-05-01T08:52:42.207Z</time></trkpt><trkpt lat="43.5890683" lon="11.5711817"><ele>154.0</ele><time>2026-05-01T08:52:43.209Z</time></trkpt><trkpt lat="43.5891167" lon="11.57107"><ele>154.0</ele><time>2026-05-01T08:52:44.208Z</time></trkpt><trkpt lat="43.5891617" lon="11.5709583"><ele>154.0</ele><time>2026-05-01T08:52:45.207Z</time></trkpt><trkpt lat="43.589205" lon="11.5708433"><ele>154.0</ele><time>2026-05-01T08:52:46.207Z</time></trkpt><trkpt lat="43.58924" lon="11.570725"><ele>154.0</ele><time>2026-05-01T08:52:47.207Z</time></trkpt><trkpt lat="43.589265" lon="11.5706033"><ele>154.0</ele><time>2026-05-01T08:52:48.207Z</time></trkpt><trkpt lat="43.58928" lon="11.570475"><ele>154.0</ele><time>2026-05-01T08:52:49.208Z</time></trkpt><trkpt lat="43.5892833" lon="11.5703483"><ele>154.0</ele><time>2026-05-01T08:52:50.209Z</time></trkpt><trkpt lat="43.58928" lon="11.57022"><ele>154.0</ele><time>2026-05-01T08:52:51.208Z</time></trkpt><trkpt lat="43.5892633" lon="11.5700933"><ele>154.0</ele><time>2026-05-01T08:52:52.207Z</time></trkpt><trkpt lat="43.58923" lon="11.5699833"><ele>153.6</ele><time>2026-05-01T08:52:53.207Z</time></trkpt><trkpt lat="43.5891817" lon="11.5698817"><ele>153.2</ele><time>2026-05-01T08:52:54.207Z</time></trkpt><trkpt lat="43.5891233" lon="11.569795"><ele>152.79999999999998</ele><time>2026-05-01T08:52:55.207Z</time></trkpt><trkpt lat="43.58906" lon="11.5697017"><ele>152.4</ele><time>2026-05-01T08:52:56.208Z</time></trkpt><trkpt lat="43.588995" lon="11.5696033"><ele>152.0</ele><time>2026-05-01T08:52:57.209Z</time></trkpt><trkpt lat="43.5889367" lon="11.569505"><ele>151.83333333333331</ele><time>2026-05-01T08:52:58.207Z</time></trkpt><trkpt lat="43.58888" lon="11.569405"><ele>151.66666666666666</ele><time>2026-05-01T08:52:59.207Z</time></trkpt><trkpt lat="43.5888283" lon="11.5693"><ele>151.5</ele><time>2026-05-01T08:53:00.207Z</time></trkpt><trkpt lat="43.5887783" lon="11.569195"><ele>151.33333333333334</ele><time>2026-05-01T08:53:01.209Z</time></trkpt><trkpt lat="43.58873" lon="11.569095"><ele>151.16666666666669</ele><time>2026-05-01T08:53:02.208Z</time></trkpt><trkpt lat="43.5886883" lon="11.5689983"><ele>151.0</ele><time>2026-05-01T08:53:03.207Z</time></trkpt><trkpt lat="43.588645" lon="11.5689083"><ele>151.16666666666669</ele><time>2026-05-01T08:53:04.207Z</time></trkpt><trkpt lat="43.588605" lon="11.5688267"><ele>151.33333333333334</ele><time>2026-05-01T08:53:05.207Z</time></trkpt><trkpt lat="43.58857" lon="11.5687533"><ele>151.5</ele><time>2026-05-01T08:53:06.208Z</time></trkpt><trkpt lat="43.588575" lon="11.5686217"><ele>151.66666666666666</ele><time>2026-05-01T08:53:08.211Z</time></trkpt><trkpt lat="43.5886417" lon="11.5685417"><ele>151.83333333333331</ele><time>2026-05-01T08:53:10.207Z</time></trkpt><trkpt lat="43.5887633" lon="11.5685017"><ele>152.0</ele><time>2026-05-01T08:53:12.21Z</time></trkpt><trkpt lat="43.5888333" lon="11.5684717"><ele>152.0</ele><time>2026-05-01T08:53:13.208Z</time></trkpt><trkpt lat="43.5889167" lon="11.568445"><ele>152.0</ele><time>2026-05-01T08:53:14.207Z</time></trkpt><trkpt lat="43.5890033" lon="11.5684183"><ele>152.0</ele><time>2026-05-01T08:53:15.209Z</time></trkpt><trkpt lat="43.589085" lon="11.568385"><ele>152.0</ele><time>2026-05-01T08:53:16.206Z</time></trkpt><trkpt lat="43.5891617" lon="11.56835"><ele>152.0</ele><time>2026-05-01T08:53:17.207Z</time></trkpt><trkpt lat="43.589235" lon="11.5683183"><ele>152.0</ele><time>2026-05-01T08:53:18.209Z</time></trkpt><trkpt lat="43.589305" lon="11.5682817"><ele>152.0</ele><time>2026-05-01T08:53:19.209Z</time></trkpt><trkpt lat="43.5893733" lon="11.5682483"><ele>152.0</ele><time>2026-05-01T08:53:20.207Z</time></trkpt><trkpt lat="43.5894433" lon="11.56821"><ele>152.0</ele><time>2026-05-01T08:53:21.207Z</time></trkpt><trkpt lat="43.5895117" lon="11.5681733"><ele>152.0</ele><time>2026-05-01T08:53:22.208Z</time></trkpt><trkpt lat="43.5895783" lon="11.568135"><ele>152.0</ele><time>2026-05-01T08:53:23.21Z</time></trkpt><trkpt lat="43.5896417" lon="11.5681017"><ele>152.0</ele><time>2026-05-01T08:53:24.21Z</time></trkpt><trkpt lat="43.5897083" lon="11.5680667"><ele>152.0</ele><time>2026-05-01T08:53:25.208Z</time></trkpt><trkpt lat="43.5897717" lon="11.5680333"><ele>152.66666666666666</ele><time>2026-05-01T08:53:26.21Z</time></trkpt><trkpt lat="43.58983" lon="11.568"><ele>153.33333333333331</ele><time>2026-05-01T08:53:27.208Z</time></trkpt><trkpt lat="43.5898917" lon="11.5679633"><ele>154.0</ele><time>2026-05-01T08:53:28.209Z</time></trkpt><trkpt lat="43.5899483" lon="11.5679233"><ele>154.66666666666666</ele><time>2026-05-01T08:53:29.207Z</time></trkpt><trkpt lat="43.5900483" lon="11.567815"><ele>155.33333333333334</ele><time>2026-05-01T08:53:31.209Z</time></trkpt><trkpt lat="43.5901017" lon="11.5677517"><ele>156.0</ele><time>2026-05-01T08:53:32.208Z</time></trkpt><trkpt lat="43.590155" lon="11.56769"><ele>156.16666666666666</ele><time>2026-05-01T08:53:33.207Z</time></trkpt><trkpt lat="43.59021" lon="11.5676283"><ele>156.33333333333334</ele><time>2026-05-01T08:53:34.206Z</time></trkpt><trkpt lat="43.5902617" lon="11.5675683"><ele>156.5</ele><time>2026-05-01T08:53:35.209Z</time></trkpt><trkpt lat="43.590315" lon="11.5675167"><ele>156.66666666666669</ele><time>2026-05-01T08:53:36.208Z</time></trkpt><trkpt lat="43.5904267" lon="11.567445"><ele>156.83333333333334</ele><time>2026-05-01T08:53:38.208Z</time></trkpt><trkpt lat="43.5904883" lon="11.5674217"><ele>157.0</ele><time>2026-05-01T08:53:39.21Z</time></trkpt><trkpt lat="43.5906117" lon="11.567415"><ele>157.4</ele><time>2026-05-01T08:53:41.208Z</time></trkpt><trkpt lat="43.5907283" lon="11.5674367"><ele>157.79999999999998</ele><time>2026-05-01T08:53:43.207Z</time></trkpt><trkpt lat="43.5908467" lon="11.567485"><ele>158.2</ele><time>2026-05-01T08:53:45.21Z</time></trkpt><trkpt lat="43.59096" lon="11.5675517"><ele>158.6</ele><time>2026-05-01T08:53:47.208Z</time></trkpt><trkpt lat="43.5910167" lon="11.5675917"><ele>159.0</ele><time>2026-05-01T08:53:48.207Z</time></trkpt><trkpt lat="43.5911233" lon="11.56767"><ele>159.4</ele><time>2026-05-01T08:53:50.209Z</time></trkpt><trkpt lat="43.5912167" lon="11.567755"><ele>159.8</ele><time>2026-05-01T08:53:52.206Z</time></trkpt><trkpt lat="43.5913133" lon="11.5678467"><ele>160.20000000000002</ele><time>2026-05-01T08:53:54.207Z</time></trkpt><trkpt lat="43.591415" lon="11.56796"><ele>160.60000000000002</ele><time>2026-05-01T08:53:56.208Z</time></trkpt><trkpt lat="43.59147" lon="11.5680167"><ele>161.0</ele><time>2026-05-01T08:53:57.209Z</time></trkpt><trkpt lat="43.5915233" lon="11.568075"><ele>161.20000000000002</ele><time>2026-05-01T08:53:58.206Z</time></trkpt><trkpt lat="43.59158" lon="11.5681417"><ele>161.4</ele><time>2026-05-01T08:53:59.209Z</time></trkpt><trkpt lat="43.5916367" lon="11.5681983"><ele>161.6</ele><time>2026-05-01T08:54:00.207Z</time></trkpt><trkpt lat="43.5916917" lon="11.5682483"><ele>161.8</ele><time>2026-05-01T08:54:01.207Z</time></trkpt><trkpt lat="43.5917933" lon="11.5683433"><ele>162.0</ele><time>2026-05-01T08:54:03.209Z</time></trkpt><trkpt lat="43.5918967" lon="11.568425"><ele>162.0</ele><time>2026-05-01T08:54:05.207Z</time></trkpt><trkpt lat="43.5920083" lon="11.5685"><ele>162.0</ele><time>2026-05-01T08:54:07.207Z</time></trkpt><trkpt lat="43.5920683" lon="11.5685283"><ele>162.0</ele><time>2026-05-01T08:54:08.208Z</time></trkpt><trkpt lat="43.59213" lon="11.56856"><ele>162.0</ele><time>2026-05-01T08:54:09.207Z</time></trkpt><trkpt lat="43.5922483" lon="11.5686033"><ele>162.0</ele><time>2026-05-01T08:54:11.207Z</time></trkpt><trkpt lat="43.59231" lon="11.5686267"><ele>162.0</ele><time>2026-05-01T08:54:12.209Z</time></trkpt><trkpt lat="43.5924317" lon="11.56867"><ele>163.0</ele><time>2026-05-01T08:54:14.208Z</time></trkpt><trkpt lat="43.5925517" lon="11.56871"><ele>164.0</ele><time>2026-05-01T08:54:16.206Z</time></trkpt><trkpt lat="43.5926133" lon="11.568735"><ele>165.0</ele><time>2026-05-01T08:54:17.206Z</time></trkpt><trkpt lat="43.592675" lon="11.5687583"><ele>166.0</ele><time>2026-05-01T08:54:18.207Z</time></trkpt><trkpt lat="43.5927867" lon="11.5688233"><ele>167.0</ele><time>2026-05-01T08:54:20.21Z</time></trkpt><trkpt lat="43.5928433" lon="11.568865"><ele>168.0</ele><time>2026-05-01T08:54:21.208Z</time></trkpt><trkpt lat="43.5929483" lon="11.56895"><ele>168.0</ele><time>2026-05-01T08:54:23.209Z</time></trkpt><trkpt lat="43.5930433" lon="11.569035"><ele>168.0</ele><time>2026-05-01T08:54:25.207Z</time></trkpt><trkpt lat="43.5931433" lon="11.569125"><ele>168.0</ele><time>2026-05-01T08:54:27.209Z</time></trkpt><trkpt lat="43.5932517" lon="11.56919"><ele>168.0</ele><time>2026-05-01T08:54:29.209Z</time></trkpt><trkpt lat="43.5933733" lon="11.569205"><ele>168.0</ele><time>2026-05-01T08:54:31.207Z</time></trkpt><trkpt lat="43.59349" lon="11.5691933"><ele>168.0</ele><time>2026-05-01T08:54:33.208Z</time></trkpt><trkpt lat="43.5936017" lon="11.56917"><ele>168.0</ele><time>2026-05-01T08:54:35.207Z</time></trkpt><trkpt lat="43.5937183" lon="11.5691433"><ele>168.0</ele><time>2026-05-01T08:54:37.208Z</time></trkpt><trkpt lat="43.5938283" lon="11.5691167"><ele>169.0</ele><time>2026-05-01T08:54:39.207Z</time></trkpt><trkpt lat="43.5939417" lon="11.5690867"><ele>170.0</ele><time>2026-05-01T08:54:41.208Z</time></trkpt><trkpt lat="43.5940533" lon="11.569065"><ele>171.0</ele><time>2026-05-01T08:54:43.207Z</time></trkpt><trkpt lat="43.5941667" lon="11.5690483"><ele>172.0</ele><time>2026-05-01T08:54:45.208Z</time></trkpt><trkpt lat="43.5942883" lon="11.56904"><ele>172.0</ele><time>2026-05-01T08:54:47.208Z</time></trkpt><trkpt lat="43.5944067" lon="11.569045"><ele>172.0</ele><time>2026-05-01T08:54:49.207Z</time></trkpt><trkpt lat="43.594525" lon="11.5690633"><ele>172.0</ele><time>2026-05-01T08:54:51.208Z</time></trkpt><trkpt lat="43.5946417" lon="11.5691117"><ele>172.0</ele><time>2026-05-01T08:54:53.208Z</time></trkpt><trkpt lat="43.594695" lon="11.56916"><ele>172.0</ele><time>2026-05-01T08:54:54.209Z</time></trkpt><trkpt lat="43.5947833" lon="11.56927"><ele>172.39999999999998</ele><time>2026-05-01T08:54:56.21Z</time></trkpt><trkpt lat="43.5948633" lon="11.5693983"><ele>172.79999999999998</ele><time>2026-05-01T08:54:58.207Z</time></trkpt><trkpt lat="43.5949433" lon="11.5695217"><ele>173.2</ele><time>2026-05-01T08:55:00.207Z</time></trkpt><trkpt lat="43.594985" lon="11.56959"><ele>173.6</ele><time>2026-05-01T08:55:01.208Z</time></trkpt><trkpt lat="43.59506" lon="11.5697217"><ele>174.0</ele><time>2026-05-01T08:55:03.207Z</time></trkpt><trkpt lat="43.59512" lon="11.5698533"><ele>174.0</ele><time>2026-05-01T08:55:05.206Z</time></trkpt><trkpt lat="43.59517" lon="11.5699983"><ele>174.0</ele><time>2026-05-01T08:55:07.206Z</time></trkpt><trkpt lat="43.5951983" lon="11.5701483"><ele>174.0</ele><time>2026-05-01T08:55:09.207Z</time></trkpt><trkpt lat="43.5952233" lon="11.5703017"><ele>174.0</ele><time>2026-05-01T08:55:11.207Z</time></trkpt><trkpt lat="43.5952467" lon="11.5704467"><ele>175.2</ele><time>2026-05-01T08:55:13.208Z</time></trkpt><trkpt lat="43.5952767" lon="11.5705867"><ele>176.39999999999998</ele><time>2026-05-01T08:55:15.207Z</time></trkpt><trkpt lat="43.5953183" lon="11.5707183"><ele>177.6</ele><time>2026-05-01T08:55:17.208Z</time></trkpt><trkpt lat="43.59538" lon="11.5708317"><ele>178.8</ele><time>2026-05-01T08:55:19.206Z</time></trkpt><trkpt lat="43.5954517" lon="11.5709283"><ele>180.0</ele><time>2026-05-01T08:55:21.208Z</time></trkpt><trkpt lat="43.5955283" lon="11.5710083"><ele>180.4</ele><time>2026-05-01T08:55:23.207Z</time></trkpt><trkpt lat="43.5956" lon="11.5711033"><ele>180.8</ele><time>2026-05-01T08:55:25.206Z</time></trkpt><trkpt lat="43.5956883" lon="11.571195"><ele>181.2</ele><time>2026-05-01T08:55:27.207Z</time></trkpt><trkpt lat="43.5957717" lon="11.5712783"><ele>181.6</ele><time>2026-05-01T08:55:29.207Z</time></trkpt><trkpt lat="43.5958583" lon="11.5713583"><ele>182.0</ele><time>2026-05-01T08:55:31.206Z</time></trkpt><trkpt lat="43.5959433" lon="11.57145"><ele>183.0</ele><time>2026-05-01T08:55:33.208Z</time></trkpt><trkpt lat="43.5960267" lon="11.5715433"><ele>184.0</ele><time>2026-05-01T08:55:35.206Z</time></trkpt><trkpt lat="43.596105" lon="11.57161"><ele>185.0</ele><time>2026-05-01T08:55:37.206Z</time></trkpt><trkpt lat="43.5961933" lon="11.57167"><ele>186.0</ele><time>2026-05-01T08:55:39.205Z</time></trkpt><trkpt lat="43.5962883" lon="11.5717333"><ele>187.0</ele><time>2026-05-01T08:55:41.206Z</time></trkpt><trkpt lat="43.59637" lon="11.5717983"><ele>187.0</ele><time>2026-05-01T08:55:43.207Z</time></trkpt><trkpt lat="43.596435" lon="11.571865"><ele>187.0</ele><time>2026-05-01T08:55:45.207Z</time></trkpt><trkpt lat="43.5964933" lon="11.5719367"><ele>187.0</ele><time>2026-05-01T08:55:47.206Z</time></trkpt><trkpt lat="43.5965483" lon="11.5719983"><ele>187.0</ele><time>2026-05-01T08:55:49.208Z</time></trkpt><trkpt lat="43.5966117" lon="11.57208"><ele>187.0</ele><time>2026-05-01T08:55:51.209Z</time></trkpt><trkpt lat="43.596675" lon="11.5721367"><ele>187.0</ele><time>2026-05-01T08:55:53.207Z</time></trkpt><trkpt lat="43.596735" lon="11.5721633"><ele>187.66666666666669</ele><time>2026-05-01T08:55:55.207Z</time></trkpt><trkpt lat="43.5968083" lon="11.5721733"><ele>188.33333333333334</ele><time>2026-05-01T08:55:58.205Z</time></trkpt><trkpt lat="43.5968967" lon="11.57214"><ele>189.0</ele><time>2026-05-01T08:56:01.207Z</time></trkpt><trkpt lat="43.5969702" lon="11.5722236"><ele>189.66666666666666</ele><time>2026-05-01T08:56:03.263Z</time></trkpt><trkpt lat="43.5970263" lon="11.5721484"><ele>190.33333333333331</ele><time>2026-05-01T08:56:07.315Z</time></trkpt><trkpt lat="43.5970472" lon="11.5720661"><ele>191.0</ele><time>2026-05-01T08:56:10.303Z</time></trkpt><trkpt lat="43.5970783" lon="11.5719633"><ele>194.0</ele><time>2026-05-01T08:56:14.262Z</time></trkpt><trkpt lat="43.5971103" lon="11.5718625"><ele>197.0</ele><time>2026-05-01T08:56:17.273Z</time></trkpt><trkpt lat="43.5971607" lon="11.5717814"><ele>200.0</ele><time>2026-05-01T08:56:19.242Z</time></trkpt><trkpt lat="43.5972059" lon="11.5717169"><ele>203.0</ele><time>2026-05-01T08:56:22.253Z</time></trkpt><trkpt lat="43.597405" lon="11.5712417"><ele>202.66666666666669</ele><time>2026-05-01T08:56:25.207Z</time></trkpt><trkpt lat="43.5974583" lon="11.5711583"><ele>202.33333333333334</ele><time>2026-05-01T08:56:27.208Z</time></trkpt><trkpt lat="43.5975167" lon="11.5710733"><ele>202.0</ele><time>2026-05-01T08:56:29.205Z</time></trkpt><trkpt lat="43.5975733" lon="11.5709917"><ele>201.66666666666669</ele><time>2026-05-01T08:56:31.207Z</time></trkpt><trkpt lat="43.5976317" lon="11.5708967"><ele>201.33333333333334</ele><time>2026-05-01T08:56:33.207Z</time></trkpt><trkpt lat="43.597675" lon="11.5707733"><ele>201.0</ele><time>2026-05-01T08:56:35.207Z</time></trkpt><trkpt lat="43.5977167" lon="11.5706483"><ele>201.0</ele><time>2026-05-01T08:56:37.205Z</time></trkpt><trkpt lat="43.597755" lon="11.5705367"><ele>201.0</ele><time>2026-05-01T08:56:39.207Z</time></trkpt><trkpt lat="43.5978" lon="11.5704283"><ele>201.0</ele><time>2026-05-01T08:56:41.21Z</time></trkpt><trkpt lat="43.59784" lon="11.5703233"><ele>201.0</ele><time>2026-05-01T08:56:43.206Z</time></trkpt><trkpt lat="43.59789" lon="11.5702333"><ele>201.0</ele><time>2026-05-01T08:56:45.205Z</time></trkpt><trkpt lat="43.5979417" lon="11.5701417"><ele>201.0</ele><time>2026-05-01T08:56:47.206Z</time></trkpt><trkpt lat="43.5980017" lon="11.5700567"><ele>202.66666666666666</ele><time>2026-05-01T08:56:49.206Z</time></trkpt><trkpt lat="43.59807" lon="11.5699867"><ele>204.33333333333331</ele><time>2026-05-01T08:56:51.206Z</time></trkpt><trkpt lat="43.5981467" lon="11.56994"><ele>206.0</ele><time>2026-05-01T08:56:53.206Z</time></trkpt><trkpt lat="43.5982233" lon="11.5699133"><ele>207.66666666666666</ele><time>2026-05-01T08:56:55.205Z</time></trkpt><trkpt lat="43.5982983" lon="11.56991"><ele>209.33333333333331</ele><time>2026-05-01T08:56:57.207Z</time></trkpt><trkpt lat="43.5983667" lon="11.56994"><ele>211.0</ele><time>2026-05-01T08:56:59.208Z</time></trkpt><trkpt lat="43.598445" lon="11.56997"><ele>210.99999999999997</ele><time>2026-05-01T08:57:01.206Z</time></trkpt><trkpt lat="43.5985217" lon="11.57001"><ele>211.0</ele><time>2026-05-01T08:57:03.205Z</time></trkpt><trkpt lat="43.59859" lon="11.570055"><ele>211.0</ele><time>2026-05-01T08:57:05.207Z</time></trkpt><trkpt lat="43.59865" lon="11.5701033"><ele>211.0</ele><time>2026-05-01T08:57:07.207Z</time></trkpt><trkpt lat="43.5987217" lon="11.5701567"><ele>210.99999999999997</ele><time>2026-05-01T08:57:09.208Z</time></trkpt><trkpt lat="43.5987867" lon="11.5702133"><ele>211.0</ele><time>2026-05-01T08:57:11.207Z</time></trkpt><trkpt lat="43.5988483" lon="11.5702917"><ele>210.83333333333331</ele><time>2026-05-01T08:57:13.208Z</time></trkpt><trkpt lat="43.59888" lon="11.5704083"><ele>210.66666666666666</ele><time>2026-05-01T08:57:15.209Z</time></trkpt><trkpt lat="43.59888" lon="11.5705317"><ele>210.5</ele><time>2026-05-01T08:57:17.207Z</time></trkpt><trkpt lat="43.5988617" lon="11.570635"><ele>210.33333333333331</ele><time>2026-05-01T08:57:19.207Z</time></trkpt><trkpt lat="43.5988217" lon="11.5707033"><ele>210.16666666666666</ele><time>2026-05-01T08:57:21.206Z</time></trkpt><trkpt lat="43.5987567" lon="11.5707417"><ele>210.0</ele><time>2026-05-01T08:57:23.207Z</time></trkpt><trkpt lat="43.5986667" lon="11.570745"><ele>210.0</ele><time>2026-05-01T08:57:27.205Z</time></trkpt><trkpt lat="43.5986033" lon="11.5707767"><ele>210.0</ele><time>2026-05-01T08:57:29.207Z</time></trkpt><trkpt lat="43.59855" lon="11.570845"><ele>210.0</ele><time>2026-05-01T08:57:31.207Z</time></trkpt><trkpt lat="43.5985167" lon="11.5709317"><ele>210.0</ele><time>2026-05-01T08:57:33.205Z</time></trkpt><trkpt lat="43.598495" lon="11.57104"><ele>210.0</ele><time>2026-05-01T08:57:35.207Z</time></trkpt><trkpt lat="43.5984967" lon="11.5711483"><ele>210.0</ele><time>2026-05-01T08:57:37.206Z</time></trkpt><trkpt lat="43.5985117" lon="11.5712583"><ele>211.83333333333334</ele><time>2026-05-01T08:57:39.209Z</time></trkpt><trkpt lat="43.5985117" lon="11.5713783"><ele>213.66666666666669</ele><time>2026-05-01T08:57:41.208Z</time></trkpt><trkpt lat="43.5984917" lon="11.5714817"><ele>215.5</ele><time>2026-05-01T08:57:43.206Z</time></trkpt><trkpt lat="43.5984517" lon="11.57157"><ele>217.33333333333334</ele><time>2026-05-01T08:57:45.207Z</time></trkpt><trkpt lat="43.5983983" lon="11.5716533"><ele>219.16666666666669</ele><time>2026-05-01T08:57:47.207Z</time></trkpt><trkpt lat="43.5983417" lon="11.5717383"><ele>221.0</ele><time>2026-05-01T08:57:49.205Z</time></trkpt><trkpt lat="43.5982867" lon="11.5718233"><ele>221.00000000000003</ele><time>2026-05-01T08:57:51.207Z</time></trkpt><trkpt lat="43.5982467" lon="11.5719083"><ele>221.0</ele><time>2026-05-01T08:57:53.207Z</time></trkpt><trkpt lat="43.5982233" lon="11.57201"><ele>221.0</ele><time>2026-05-01T08:57:55.207Z</time></trkpt><trkpt lat="43.5982233" lon="11.5721267"><ele>221.0</ele><time>2026-05-01T08:57:57.206Z</time></trkpt><trkpt lat="43.5982317" lon="11.5722367"><ele>221.00000000000003</ele><time>2026-05-01T08:57:59.209Z</time></trkpt><trkpt lat="43.598255" lon="11.5723217"><ele>221.0</ele><time>2026-05-01T08:58:01.206Z</time></trkpt><trkpt lat="43.5982767" lon="11.5724133"><ele>221.00000000000003</ele><time>2026-05-01T08:58:03.207Z</time></trkpt><trkpt lat="43.59831" lon="11.5725017"><ele>221.0</ele><time>2026-05-01T08:58:05.205Z</time></trkpt><trkpt lat="43.5983533" lon="11.5725817"><ele>221.0</ele><time>2026-05-01T08:58:07.208Z</time></trkpt><trkpt lat="43.598395" lon="11.57267"><ele>221.0</ele><time>2026-05-01T08:58:09.207Z</time></trkpt><trkpt lat="43.5984483" lon="11.5727633"><ele>221.00000000000003</ele><time>2026-05-01T08:58:11.205Z</time></trkpt><trkpt lat="43.5984967" lon="11.5728483"><ele>221.0</ele><time>2026-05-01T08:58:13.206Z</time></trkpt><trkpt lat="43.5985467" lon="11.5729233"><ele>221.00000000000003</ele><time>2026-05-01T08:58:15.207Z</time></trkpt><trkpt lat="43.59859" lon="11.5729967"><ele>221.0</ele><time>2026-05-01T08:58:17.207Z</time></trkpt><trkpt lat="43.5986333" lon="11.5730683"><ele>221.0</ele><time>2026-05-01T08:58:19.204Z</time></trkpt><trkpt lat="43.5986983" lon="11.5731617"><ele>221.0</ele><time>2026-05-01T08:58:22.207Z</time></trkpt><trkpt lat="43.5987433" lon="11.5732267"><ele>221.0</ele><time>2026-05-01T08:58:24.208Z</time></trkpt><trkpt lat="43.5988033" lon="11.5732917"><ele>221.00000000000003</ele><time>2026-05-01T08:58:26.205Z</time></trkpt><trkpt lat="43.5988567" lon="11.5733533"><ele>221.0</ele><time>2026-05-01T08:58:28.205Z</time></trkpt><trkpt lat="43.598905" lon="11.57341"><ele>224.16666666666669</ele><time>2026-05-01T08:58:30.207Z</time></trkpt><trkpt lat="43.59896" lon="11.5734567"><ele>227.33333333333334</ele><time>2026-05-01T08:58:32.207Z</time></trkpt><trkpt lat="43.5990383" lon="11.573485"><ele>230.5</ele><time>2026-05-01T08:58:35.207Z</time></trkpt><trkpt lat="43.5991233" lon="11.573485"><ele>233.66666666666669</ele><time>2026-05-01T08:58:38.207Z</time></trkpt><trkpt lat="43.599205" lon="11.573425"><ele>236.83333333333334</ele><time>2026-05-01T08:58:41.205Z</time></trkpt><trkpt lat="43.5992567" lon="11.5733533"><ele>240.0</ele><time>2026-05-01T08:58:43.205Z</time></trkpt><trkpt lat="43.59929" lon="11.57327"><ele>240.0</ele><time>2026-05-01T08:58:45.207Z</time></trkpt><trkpt lat="43.599375" lon="11.573215"><ele>240.0</ele><time>2026-05-01T08:58:47.207Z</time></trkpt><trkpt lat="43.5994633" lon="11.5731717"><ele>240.0</ele><time>2026-05-01T08:58:49.206Z</time></trkpt><trkpt lat="43.5995533" lon="11.573135"><ele>240.0</ele><time>2026-05-01T08:58:51.207Z</time></trkpt><trkpt lat="43.59963" lon="11.5731067"><ele>240.0</ele><time>2026-05-01T08:58:53.208Z</time></trkpt><trkpt lat="43.5997183" lon="11.5730533"><ele>240.85714285714286</ele><time>2026-05-01T08:58:55.206Z</time></trkpt><trkpt lat="43.599785" lon="11.573015"><ele>241.71428571428572</ele><time>2026-05-01T08:58:57.205Z</time></trkpt><trkpt lat="43.5998467" lon="11.5729583"><ele>242.57142857142858</ele><time>2026-05-01T08:58:59.207Z</time></trkpt><trkpt lat="43.5999083" lon="11.5730317"><ele>243.42857142857144</ele><time>2026-05-01T08:59:04.207Z</time></trkpt><trkpt lat="43.5999183" lon="11.5731233"><ele>244.28571428571428</ele><time>2026-05-01T08:59:06.206Z</time></trkpt><trkpt lat="43.599935" lon="11.5732217"><ele>245.14285714285717</ele><time>2026-05-01T08:59:08.209Z</time></trkpt><trkpt lat="43.5999583" lon="11.573305"><ele>246.00000000000003</ele><time>2026-05-01T08:59:10.205Z</time></trkpt><trkpt lat="43.59996" lon="11.5734083"><ele>246.0</ele><time>2026-05-01T08:59:12.207Z</time></trkpt><trkpt lat="43.5999633" lon="11.57353"><ele>246.0</ele><time>2026-05-01T08:59:15.207Z</time></trkpt><trkpt lat="43.5999217" lon="11.5736317"><ele>246.0</ele><time>2026-05-01T08:59:18.205Z</time></trkpt><trkpt lat="43.599895" lon="11.573735"><ele>246.0</ele><time>2026-05-01T08:59:21.207Z</time></trkpt><trkpt lat="43.5998883" lon="11.573825"><ele>246.0</ele><time>2026-05-01T08:59:23.207Z</time></trkpt><trkpt lat="43.5998967" lon="11.573915"><ele>246.0</ele><time>2026-05-01T08:59:25.205Z</time></trkpt><trkpt lat="43.59993" lon="11.57403"><ele>247.33333333333334</ele><time>2026-05-01T08:59:28.207Z</time></trkpt><trkpt lat="43.59994" lon="11.574125"><ele>248.66666666666669</ele><time>2026-05-01T08:59:30.207Z</time></trkpt><trkpt lat="43.5999483" lon="11.57424"><ele>250.0</ele><time>2026-05-01T08:59:32.207Z</time></trkpt><trkpt lat="43.59994" lon="11.5743317"><ele>251.33333333333334</ele><time>2026-05-01T08:59:34.206Z</time></trkpt><trkpt lat="43.59992" lon="11.574455"><ele>252.66666666666669</ele><time>2026-05-01T08:59:37.207Z</time></trkpt><trkpt lat="43.5999117" lon="11.5745467"><ele>254.0</ele><time>2026-05-01T08:59:39.207Z</time></trkpt><trkpt lat="43.5999183" lon="11.5746467"><ele>254.85714285714286</ele><time>2026-05-01T08:59:41.207Z</time></trkpt><trkpt lat="43.59992" lon="11.5747383"><ele>255.71428571428572</ele><time>2026-05-01T08:59:43.207Z</time></trkpt><trkpt lat="43.59993" lon="11.5748467"><ele>256.57142857142856</ele><time>2026-05-01T08:59:46.208Z</time></trkpt><trkpt lat="43.59995" lon="11.574955"><ele>257.42857142857144</ele><time>2026-05-01T08:59:49.204Z</time></trkpt><trkpt lat="43.5999667" lon="11.575065"><ele>258.2857142857143</ele><time>2026-05-01T08:59:52.205Z</time></trkpt><trkpt lat="43.5999833" lon="11.5751533"><ele>259.14285714285717</ele><time>2026-05-01T08:59:54.207Z</time></trkpt><trkpt lat="43.5999933" lon="11.5752417"><ele>260.0</ele><time>2026-05-01T08:59:56.206Z</time></trkpt><trkpt lat="43.6000083" lon="11.5753417"><ele>261.1666666666667</ele><time>2026-05-01T08:59:58.206Z</time></trkpt><trkpt lat="43.60003" lon="11.5754467"><ele>262.33333333333337</ele><time>2026-05-01T09:00:00.207Z</time></trkpt><trkpt lat="43.600045" lon="11.57554"><ele>263.5</ele><time>2026-05-01T09:00:02.206Z</time></trkpt><trkpt lat="43.6000667" lon="11.5756267"><ele>264.6666666666667</ele><time>2026-05-01T09:00:04.206Z</time></trkpt><trkpt lat="43.6000717" lon="11.5757433"><ele>265.8333333333333</ele><time>2026-05-01T09:00:07.207Z</time></trkpt><trkpt lat="43.6000583" lon="11.5758733"><ele>267.0</ele><time>2026-05-01T09:00:10.205Z</time></trkpt><trkpt lat="43.6000233" lon="11.5759533"><ele>267.00000000000006</ele><time>2026-05-01T09:00:12.206Z</time></trkpt><trkpt lat="43.5999883" lon="11.576045"><ele>267.0</ele><time>2026-05-01T09:00:15.207Z</time></trkpt><trkpt lat="43.5999083" lon="11.57606"><ele>267.0</ele><time>2026-05-01T09:00:21.208Z</time></trkpt><trkpt lat="43.5998383" lon="11.57606"><ele>267.0</ele><time>2026-05-01T09:00:24.207Z</time></trkpt><trkpt lat="43.59978" lon="11.5761167"><ele>267.0</ele><time>2026-05-01T09:00:26.206Z</time></trkpt><trkpt lat="43.5997217" lon="11.5761733"><ele>267.00000000000006</ele><time>2026-05-01T09:00:28.207Z</time></trkpt><trkpt lat="43.599675" lon="11.5762483"><ele>267.0</ele><time>2026-05-01T09:00:30.208Z</time></trkpt><trkpt lat="43.5996367" lon="11.5763233"><ele>268.3333333333333</ele><time>2026-05-01T09:00:32.206Z</time></trkpt><trkpt lat="43.5996283" lon="11.5764467"><ele>269.6666666666667</ele><time>2026-05-01T09:00:35.207Z</time></trkpt><trkpt lat="43.5996333" lon="11.576555"><ele>271.0</ele><time>2026-05-01T09:00:38.209Z</time></trkpt><trkpt lat="43.5996383" lon="11.5766667"><ele>272.33333333333337</ele><time>2026-05-01T09:00:41.206Z</time></trkpt><trkpt lat="43.5996417" lon="11.57679"><ele>273.6666666666667</ele><time>2026-05-01T09:00:45.207Z</time></trkpt><trkpt lat="43.5996833" lon="11.5769083"><ele>275.0</ele><time>2026-05-01T09:00:48.205Z</time></trkpt><trkpt lat="43.5997367" lon="11.577"><ele>276.0</ele><time>2026-05-01T09:00:51.207Z</time></trkpt><trkpt lat="43.59979" lon="11.5770517"><ele>277.0</ele><time>2026-05-01T09:00:53.207Z</time></trkpt><trkpt lat="43.5998583" lon="11.577085"><ele>278.0</ele><time>2026-05-01T09:00:55.207Z</time></trkpt><trkpt lat="43.5999433" lon="11.577115"><ele>279.0</ele><time>2026-05-01T09:00:58.209Z</time></trkpt><trkpt lat="43.6000333" lon="11.5771483"><ele>280.0</ele><time>2026-05-01T09:01:01.205Z</time></trkpt><trkpt lat="43.6001017" lon="11.5771667"><ele>281.0</ele><time>2026-05-01T09:01:03.207Z</time></trkpt><trkpt lat="43.60017" lon="11.5771783"><ele>281.0</ele><time>2026-05-01T09:01:05.207Z</time></trkpt><trkpt lat="43.6002467" lon="11.5771933"><ele>281.0</ele><time>2026-05-01T09:01:07.207Z</time></trkpt><trkpt lat="43.6003233" lon="11.5771967"><ele>281.0</ele><time>2026-05-01T09:01:09.205Z</time></trkpt><trkpt lat="43.60039" lon="11.5772"><ele>281.0</ele><time>2026-05-01T09:01:11.208Z</time></trkpt><trkpt lat="43.600465" lon="11.5772033"><ele>281.0</ele><time>2026-05-01T09:01:13.207Z</time></trkpt><trkpt lat="43.6005517" lon="11.5772117"><ele>281.0</ele><time>2026-05-01T09:01:15.207Z</time></trkpt><trkpt lat="43.6007417" lon="11.577205"><ele>281.6</ele><time>2026-05-01T09:01:20.207Z</time></trkpt><trkpt lat="43.6008117" lon="11.57727"><ele>282.20000000000005</ele><time>2026-05-01T09:01:22.207Z</time></trkpt><trkpt lat="43.600855" lon="11.5773783"><ele>282.79999999999995</ele><time>2026-05-01T09:01:24.206Z</time></trkpt><trkpt lat="43.6008717" lon="11.5775"><ele>283.4</ele><time>2026-05-01T09:01:26.209Z</time></trkpt><trkpt lat="43.6008783" lon="11.5776383"><ele>284.0</ele><time>2026-05-01T09:01:28.208Z</time></trkpt><trkpt lat="43.6008817" lon="11.577785"><ele>285.0</ele><time>2026-05-01T09:01:30.205Z</time></trkpt><trkpt lat="43.600885" lon="11.5779883"><ele>286.0</ele><time>2026-05-01T09:01:33.207Z</time></trkpt><trkpt lat="43.6008883" lon="11.578125"><ele>287.0</ele><time>2026-05-01T09:01:35.208Z</time></trkpt><trkpt lat="43.6008967" lon="11.5782633"><ele>288.0</ele><time>2026-05-01T09:01:37.208Z</time></trkpt><trkpt lat="43.600905" lon="11.578385"><ele>289.0</ele><time>2026-05-01T09:01:39.207Z</time></trkpt><trkpt lat="43.6009183" lon="11.5785083"><ele>289.0</ele><time>2026-05-01T09:01:41.208Z</time></trkpt><trkpt lat="43.6009283" lon="11.5786333"><ele>289.0</ele><time>2026-05-01T09:01:43.207Z</time></trkpt><trkpt lat="43.600935" lon="11.5787583"><ele>289.0</ele><time>2026-05-01T09:01:45.208Z</time></trkpt><trkpt lat="43.6009417" lon="11.5788833"><ele>289.0</ele><time>2026-05-01T09:01:47.209Z</time></trkpt><trkpt lat="43.600935" lon="11.579"><ele>289.0</ele><time>2026-05-01T09:01:49.207Z</time></trkpt><trkpt lat="43.6009133" lon="11.579095"><ele>289.0</ele><time>2026-05-01T09:01:52.206Z</time></trkpt><trkpt lat="43.6008683" lon="11.5791817"><ele>290.0</ele><time>2026-05-01T09:01:55.206Z</time></trkpt><trkpt lat="43.60083" lon="11.579255"><ele>291.0</ele><time>2026-05-01T09:01:57.207Z</time></trkpt><trkpt lat="43.6007817" lon="11.5793483"><ele>292.0</ele><time>2026-05-01T09:01:59.206Z</time></trkpt><trkpt lat="43.600725" lon="11.5794467"><ele>293.0</ele><time>2026-05-01T09:02:01.207Z</time></trkpt><trkpt lat="43.6006717" lon="11.5795567"><ele>294.0</ele><time>2026-05-01T09:02:03.206Z</time></trkpt><trkpt lat="43.6006033" lon="11.5796817"><ele>295.0</ele><time>2026-05-01T09:02:05.205Z</time></trkpt><trkpt lat="43.6005617" lon="11.5797567"><ele>295.16666666666663</ele><time>2026-05-01T09:02:06.206Z</time></trkpt><trkpt lat="43.600525" lon="11.57983"><ele>295.3333333333333</ele><time>2026-05-01T09:02:07.206Z</time></trkpt><trkpt lat="43.6004583" lon="11.57998"><ele>295.5</ele><time>2026-05-01T09:02:09.207Z</time></trkpt><trkpt lat="43.60042" lon="11.5800633"><ele>295.6666666666667</ele><time>2026-05-01T09:02:10.207Z</time></trkpt><trkpt lat="43.6003883" lon="11.5801483"><ele>295.83333333333337</ele><time>2026-05-01T09:02:11.21Z</time></trkpt><trkpt lat="43.6003683" lon="11.58024"><ele>296.0</ele><time>2026-05-01T09:02:12.208Z</time></trkpt><trkpt lat="43.6003617" lon="11.5803417"><ele>296.33333333333337</ele><time>2026-05-01T09:02:13.208Z</time></trkpt><trkpt lat="43.60036" lon="11.5804383"><ele>296.6666666666667</ele><time>2026-05-01T09:02:14.207Z</time></trkpt><trkpt lat="43.6003683" lon="11.5805417"><ele>297.0</ele><time>2026-05-01T09:02:15.207Z</time></trkpt><trkpt lat="43.6003883" lon="11.5806483"><ele>297.3333333333333</ele><time>2026-05-01T09:02:16.207Z</time></trkpt><trkpt lat="43.6004117" lon="11.58076"><ele>297.66666666666663</ele><time>2026-05-01T09:02:17.207Z</time></trkpt><trkpt lat="43.6004417" lon="11.58087"><ele>298.0</ele><time>2026-05-01T09:02:18.207Z</time></trkpt><trkpt lat="43.60047" lon="11.580975"><ele>298.0</ele><time>2026-05-01T09:02:19.205Z</time></trkpt><trkpt lat="43.6004967" lon="11.5810833"><ele>298.0</ele><time>2026-05-01T09:02:20.208Z</time></trkpt><trkpt lat="43.6005233" lon="11.5811883"><ele>298.0</ele><time>2026-05-01T09:02:21.207Z</time></trkpt><trkpt lat="43.6005483" lon="11.5812983"><ele>298.0</ele><time>2026-05-01T09:02:22.206Z</time></trkpt><trkpt lat="43.60057" lon="11.5814033"><ele>298.0</ele><time>2026-05-01T09:02:23.207Z</time></trkpt><trkpt lat="43.6005933" lon="11.5815167"><ele>298.0</ele><time>2026-05-01T09:02:24.208Z</time></trkpt><trkpt lat="43.6006183" lon="11.58163"><ele>297.8333333333333</ele><time>2026-05-01T09:02:25.206Z</time></trkpt><trkpt lat="43.6006467" lon="11.58174"><ele>297.66666666666663</ele><time>2026-05-01T09:02:26.21Z</time></trkpt><trkpt lat="43.6006767" lon="11.5818483"><ele>297.5</ele><time>2026-05-01T09:02:27.209Z</time></trkpt><trkpt lat="43.6007133" lon="11.5819517"><ele>297.3333333333333</ele><time>2026-05-01T09:02:28.207Z</time></trkpt><trkpt lat="43.600755" lon="11.5820483"><ele>297.1666666666667</ele><time>2026-05-01T09:02:29.207Z</time></trkpt><trkpt lat="43.6007967" lon="11.5821483"><ele>297.0</ele><time>2026-05-01T09:02:30.207Z</time></trkpt><trkpt lat="43.6008317" lon="11.58225"><ele>296.6666666666667</ele><time>2026-05-01T09:02:31.209Z</time></trkpt><trkpt lat="43.6008567" lon="11.5823583"><ele>296.3333333333333</ele><time>2026-05-01T09:02:32.207Z</time></trkpt><trkpt lat="43.60086" lon="11.582465"><ele>296.0</ele><time>2026-05-01T09:02:33.207Z</time></trkpt><trkpt lat="43.60085" lon="11.5825717"><ele>295.66666666666663</ele><time>2026-05-01T09:02:34.206Z</time></trkpt><trkpt lat="43.6008083" lon="11.58266"><ele>295.3333333333333</ele><time>2026-05-01T09:02:35.208Z</time></trkpt><trkpt lat="43.6007417" lon="11.5827183"><ele>295.0</ele><time>2026-05-01T09:02:36.207Z</time></trkpt><trkpt lat="43.6006783" lon="11.5827517"><ele>295.0</ele><time>2026-05-01T09:02:37.208Z</time></trkpt><trkpt lat="43.6005433" lon="11.582745"><ele>295.0</ele><time>2026-05-01T09:02:39.209Z</time></trkpt><trkpt lat="43.6004817" lon="11.5826867"><ele>295.0</ele><time>2026-05-01T09:02:40.207Z</time></trkpt><trkpt lat="43.60043" lon="11.5826167"><ele>295.0</ele><time>2026-05-01T09:02:41.209Z</time></trkpt><trkpt lat="43.6003733" lon="11.582535"><ele>295.0</ele><time>2026-05-01T09:02:42.207Z</time></trkpt><trkpt lat="43.6003217" lon="11.582455"><ele>295.0</ele><time>2026-05-01T09:02:43.208Z</time></trkpt><trkpt lat="43.6002683" lon="11.58238"><ele>295.42857142857144</ele><time>2026-05-01T09:02:44.208Z</time></trkpt><trkpt lat="43.60022" lon="11.5822983"><ele>295.8571428571429</ele><time>2026-05-01T09:02:45.205Z</time></trkpt><trkpt lat="43.6001683" lon="11.5822283"><ele>296.2857142857143</ele><time>2026-05-01T09:02:46.207Z</time></trkpt><trkpt lat="43.6001167" lon="11.5821667"><ele>296.7142857142857</ele><time>2026-05-01T09:02:47.207Z</time></trkpt><trkpt lat="43.6000683" lon="11.582105"><ele>297.1428571428571</ele><time>2026-05-01T09:02:48.207Z</time></trkpt><trkpt lat="43.6000183" lon="11.58204"><ele>297.57142857142856</ele><time>2026-05-01T09:02:49.207Z</time></trkpt><trkpt lat="43.5999717" lon="11.5819717"><ele>298.0</ele><time>2026-05-01T09:02:50.208Z</time></trkpt><trkpt lat="43.599925" lon="11.581905"><ele>297.0</ele><time>2026-05-01T09:02:51.206Z</time></trkpt><trkpt lat="43.5998467" lon="11.581775"><ele>296.0</ele><time>2026-05-01T09:02:53.208Z</time></trkpt><trkpt lat="43.5997583" lon="11.58165"><ele>295.0</ele><time>2026-05-01T09:02:55.207Z</time></trkpt><trkpt lat="43.5997083" lon="11.5815917"><ele>294.0</ele><time>2026-05-01T09:02:56.207Z</time></trkpt><trkpt lat="43.5996067" lon="11.5815233"><ele>293.0</ele><time>2026-05-01T09:02:58.208Z</time></trkpt><trkpt lat="43.599485" lon="11.5814883"><ele>293.0</ele><time>2026-05-01T09:03:00.208Z</time></trkpt><trkpt lat="43.599365" lon="11.5814917"><ele>293.0</ele><time>2026-05-01T09:03:02.209Z</time></trkpt><trkpt lat="43.5992517" lon="11.5815317"><ele>293.0</ele><time>2026-05-01T09:03:04.206Z</time></trkpt><trkpt lat="43.5991417" lon="11.58161"><ele>293.0</ele><time>2026-05-01T09:03:06.206Z</time></trkpt><trkpt lat="43.5990617" lon="11.581745"><ele>292.99999999999994</ele><time>2026-05-01T09:03:08.208Z</time></trkpt><trkpt lat="43.599035" lon="11.581825"><ele>293.0</ele><time>2026-05-01T09:03:09.206Z</time></trkpt><trkpt lat="43.5990133" lon="11.5819117"><ele>293.0</ele><time>2026-05-01T09:03:10.205Z</time></trkpt><trkpt lat="43.5989967" lon="11.5819983"><ele>293.0</ele><time>2026-05-01T09:03:11.208Z</time></trkpt><trkpt lat="43.5989783" lon="11.58209"><ele>293.0</ele><time>2026-05-01T09:03:12.207Z</time></trkpt><trkpt lat="43.5989633" lon="11.5821817"><ele>292.99999999999994</ele><time>2026-05-01T09:03:13.21Z</time></trkpt><trkpt lat="43.5989467" lon="11.582275"><ele>293.0</ele><time>2026-05-01T09:03:14.208Z</time></trkpt><trkpt lat="43.5989283" lon="11.5823733"><ele>293.57142857142856</ele><time>2026-05-01T09:03:15.207Z</time></trkpt><trkpt lat="43.5989117" lon="11.5824717"><ele>294.1428571428571</ele><time>2026-05-01T09:03:16.206Z</time></trkpt><trkpt lat="43.5988967" lon="11.58257"><ele>294.7142857142857</ele><time>2026-05-01T09:03:17.208Z</time></trkpt><trkpt lat="43.5988817" lon="11.582665"><ele>295.2857142857143</ele><time>2026-05-01T09:03:18.207Z</time></trkpt><trkpt lat="43.59887" lon="11.5827567"><ele>295.8571428571429</ele><time>2026-05-01T09:03:19.208Z</time></trkpt><trkpt lat="43.5988583" lon="11.58285"><ele>296.42857142857144</ele><time>2026-05-01T09:03:20.209Z</time></trkpt><trkpt lat="43.5988467" lon="11.5829433"><ele>297.0</ele><time>2026-05-01T09:03:21.208Z</time></trkpt><trkpt lat="43.59884" lon="11.58303"><ele>297.42857142857144</ele><time>2026-05-01T09:03:22.207Z</time></trkpt><trkpt lat="43.5988383" lon="11.58312"><ele>297.8571428571429</ele><time>2026-05-01T09:03:23.207Z</time></trkpt><trkpt lat="43.5988383" lon="11.5832117"><ele>298.2857142857143</ele><time>2026-05-01T09:03:24.208Z</time></trkpt><trkpt lat="43.5988433" lon="11.5833083"><ele>298.7142857142857</ele><time>2026-05-01T09:03:25.206Z</time></trkpt><trkpt lat="43.5988483" lon="11.58341"><ele>299.1428571428571</ele><time>2026-05-01T09:03:26.208Z</time></trkpt><trkpt lat="43.5988483" lon="11.5835067"><ele>299.57142857142856</ele><time>2026-05-01T09:03:27.208Z</time></trkpt><trkpt lat="43.5988517" lon="11.583605"><ele>300.0</ele><time>2026-05-01T09:03:28.208Z</time></trkpt><trkpt lat="43.5988583" lon="11.5837067"><ele>300.6666666666667</ele><time>2026-05-01T09:03:29.207Z</time></trkpt><trkpt lat="43.5988633" lon="11.5838117"><ele>301.3333333333333</ele><time>2026-05-01T09:03:30.208Z</time></trkpt><trkpt lat="43.5988583" lon="11.5839167"><ele>302.0</ele><time>2026-05-01T09:03:31.208Z</time></trkpt><trkpt lat="43.598835" lon="11.5840167"><ele>302.66666666666663</ele><time>2026-05-01T09:03:32.207Z</time></trkpt><trkpt lat="43.5987933" lon="11.5841033"><ele>303.3333333333333</ele><time>2026-05-01T09:03:33.207Z</time></trkpt><trkpt lat="43.598735" lon="11.5841667"><ele>304.0</ele><time>2026-05-01T09:03:34.207Z</time></trkpt><trkpt lat="43.5986583" lon="11.5842083"><ele>303.0</ele><time>2026-05-01T09:03:35.207Z</time></trkpt><trkpt lat="43.5985767" lon="11.58424"><ele>302.0</ele><time>2026-05-01T09:03:36.208Z</time></trkpt><trkpt lat="43.5984933" lon="11.5842717"><ele>301.0</ele><time>2026-05-01T09:03:37.207Z</time></trkpt><trkpt lat="43.59841" lon="11.5843133"><ele>300.0</ele><time>2026-05-01T09:03:38.207Z</time></trkpt><trkpt lat="43.5983367" lon="11.5843733"><ele>299.0</ele><time>2026-05-01T09:03:39.21Z</time></trkpt><trkpt lat="43.5982717" lon="11.5844517"><ele>298.0</ele><time>2026-05-01T09:03:40.207Z</time></trkpt><trkpt lat="43.5982183" lon="11.584545"><ele>298.0</ele><time>2026-05-01T09:03:41.207Z</time></trkpt><trkpt lat="43.5981717" lon="11.584645"><ele>298.0</ele><time>2026-05-01T09:03:42.207Z</time></trkpt><trkpt lat="43.5981267" lon="11.5847517"><ele>298.0</ele><time>2026-05-01T09:03:43.207Z</time></trkpt><trkpt lat="43.5980767" lon="11.584865"><ele>298.0</ele><time>2026-05-01T09:03:44.208Z</time></trkpt><trkpt lat="43.5980233" lon="11.5849833"><ele>298.0</ele><time>2026-05-01T09:03:45.207Z</time></trkpt><trkpt lat="43.5979667" lon="11.5851033"><ele>298.0</ele><time>2026-05-01T09:03:46.207Z</time></trkpt><trkpt lat="43.5979" lon="11.5852067"><ele>298.0</ele><time>2026-05-01T09:03:47.206Z</time></trkpt><trkpt lat="43.597815" lon="11.5852867"><ele>298.0</ele><time>2026-05-01T09:03:48.208Z</time></trkpt><trkpt lat="43.5977217" lon="11.58535"><ele>298.0</ele><time>2026-05-01T09:03:49.207Z</time></trkpt><trkpt lat="43.5976267" lon="11.585405"><ele>298.0</ele><time>2026-05-01T09:03:50.207Z</time></trkpt><trkpt lat="43.5975333" lon="11.5854533"><ele>297.4</ele><time>2026-05-01T09:03:51.205Z</time></trkpt><trkpt lat="43.59744" lon="11.5855"><ele>296.8</ele><time>2026-05-01T09:03:52.206Z</time></trkpt><trkpt lat="43.597345" lon="11.5855467"><ele>296.2</ele><time>2026-05-01T09:03:53.207Z</time></trkpt><trkpt lat="43.597245" lon="11.585595"><ele>295.6</ele><time>2026-05-01T09:03:54.207Z</time></trkpt><trkpt lat="43.5971467" lon="11.58564"><ele>295.0</ele><time>2026-05-01T09:03:55.209Z</time></trkpt><trkpt lat="43.59705" lon="11.5856883"><ele>293.0</ele><time>2026-05-01T09:03:56.208Z</time></trkpt><trkpt lat="43.5969583" lon="11.5857533"><ele>291.0</ele><time>2026-05-01T09:03:57.207Z</time></trkpt><trkpt lat="43.596875" lon="11.5858367"><ele>289.0</ele><time>2026-05-01T09:03:58.208Z</time></trkpt><trkpt lat="43.596805" lon="11.5859433"><ele>287.0</ele><time>2026-05-01T09:03:59.208Z</time></trkpt><trkpt lat="43.5967583" lon="11.586065"><ele>285.0</ele><time>2026-05-01T09:04:00.207Z</time></trkpt><trkpt lat="43.5967317" lon="11.58621"><ele>285.0</ele><time>2026-05-01T09:04:01.208Z</time></trkpt><trkpt lat="43.5967317" lon="11.586355"><ele>285.0</ele><time>2026-05-01T09:04:02.208Z</time></trkpt><trkpt lat="43.5967267" lon="11.586495"><ele>285.0</ele><time>2026-05-01T09:04:03.207Z</time></trkpt><trkpt lat="43.5967033" lon="11.58663"><ele>285.0</ele><time>2026-05-01T09:04:04.207Z</time></trkpt><trkpt lat="43.59666" lon="11.5867567"><ele>285.0</ele><time>2026-05-01T09:04:05.208Z</time></trkpt><trkpt lat="43.5966033" lon="11.5868733"><ele>285.0</ele><time>2026-05-01T09:04:06.209Z</time></trkpt><trkpt lat="43.596535" lon="11.58698"><ele>285.0</ele><time>2026-05-01T09:04:07.207Z</time></trkpt><trkpt lat="43.5964533" lon="11.5870733"><ele>285.0</ele><time>2026-05-01T09:04:08.206Z</time></trkpt><trkpt lat="43.59637" lon="11.5871617"><ele>285.0</ele><time>2026-05-01T09:04:09.206Z</time></trkpt><trkpt lat="43.5962733" lon="11.5871983"><ele>285.0</ele><time>2026-05-01T09:04:10.209Z</time></trkpt><trkpt lat="43.5961683" lon="11.5871933"><ele>284.0</ele><time>2026-05-01T09:04:11.207Z</time></trkpt><trkpt lat="43.5960667" lon="11.587165"><ele>283.0</ele><time>2026-05-01T09:04:12.207Z</time></trkpt><trkpt lat="43.5959683" lon="11.5871217"><ele>282.0</ele><time>2026-05-01T09:04:13.208Z</time></trkpt><trkpt lat="43.5958767" lon="11.58707"><ele>281.0</ele><time>2026-05-01T09:04:14.208Z</time></trkpt><trkpt lat="43.5957833" lon="11.5870167"><ele>280.0</ele><time>2026-05-01T09:04:15.208Z</time></trkpt><trkpt lat="43.5956867" lon="11.5869667"><ele>280.0</ele><time>2026-05-01T09:04:16.206Z</time></trkpt><trkpt lat="43.5955883" lon="11.5869217"><ele>280.0</ele><time>2026-05-01T09:04:17.21Z</time></trkpt><trkpt lat="43.59549" lon="11.5868767"><ele>280.0</ele><time>2026-05-01T09:04:18.208Z</time></trkpt><trkpt lat="43.5953867" lon="11.58684"><ele>280.0</ele><time>2026-05-01T09:04:19.208Z</time></trkpt><trkpt lat="43.5952833" lon="11.586815"><ele>280.0</ele><time>2026-05-01T09:04:20.207Z</time></trkpt><trkpt lat="43.5951817" lon="11.58681"><ele>280.6</ele><time>2026-05-01T09:04:21.207Z</time></trkpt><trkpt lat="43.5950733" lon="11.5868267"><ele>281.2</ele><time>2026-05-01T09:04:22.205Z</time></trkpt><trkpt lat="43.5949783" lon="11.5868633"><ele>281.8</ele><time>2026-05-01T09:04:23.208Z</time></trkpt><trkpt lat="43.5948917" lon="11.58692"><ele>282.4</ele><time>2026-05-01T09:04:24.208Z</time></trkpt><trkpt lat="43.5948117" lon="11.5869883"><ele>283.0</ele><time>2026-05-01T09:04:25.21Z</time></trkpt><trkpt lat="43.5947333" lon="11.5870667"><ele>282.6</ele><time>2026-05-01T09:04:26.206Z</time></trkpt><trkpt lat="43.5946617" lon="11.5871583"><ele>282.20000000000005</ele><time>2026-05-01T09:04:27.207Z</time></trkpt><trkpt lat="43.5946067" lon="11.5872667"><ele>281.8</ele><time>2026-05-01T09:04:28.206Z</time></trkpt><trkpt lat="43.5945583" lon="11.587385"><ele>281.40000000000003</ele><time>2026-05-01T09:04:29.207Z</time></trkpt><trkpt lat="43.5945117" lon="11.5875133"><ele>281.0</ele><time>2026-05-01T09:04:30.208Z</time></trkpt><trkpt lat="43.5944733" lon="11.5876417"><ele>281.0</ele><time>2026-05-01T09:04:31.206Z</time></trkpt><trkpt lat="43.594445" lon="11.587775"><ele>281.0</ele><time>2026-05-01T09:04:32.206Z</time></trkpt><trkpt lat="43.5944267" lon="11.58791"><ele>281.0</ele><time>2026-05-01T09:04:33.206Z</time></trkpt><trkpt lat="43.5944183" lon="11.5880517"><ele>281.0</ele><time>2026-05-01T09:04:34.208Z</time></trkpt><trkpt lat="43.5944267" lon="11.58819"><ele>281.0</ele><time>2026-05-01T09:04:35.207Z</time></trkpt><trkpt lat="43.5944467" lon="11.5883217"><ele>280.8</ele><time>2026-05-01T09:04:36.207Z</time></trkpt><trkpt lat="43.5944733" lon="11.5884583"><ele>280.6</ele><time>2026-05-01T09:04:37.208Z</time></trkpt><trkpt lat="43.5945067" lon="11.5885933"><ele>280.4</ele><time>2026-05-01T09:04:38.208Z</time></trkpt><trkpt lat="43.59454" lon="11.588735"><ele>280.2</ele><time>2026-05-01T09:04:39.207Z</time></trkpt><trkpt lat="43.5945617" lon="11.58888"><ele>280.0</ele><time>2026-05-01T09:04:40.208Z</time></trkpt><trkpt lat="43.5945683" lon="11.5890283"><ele>280.2</ele><time>2026-05-01T09:04:41.207Z</time></trkpt><trkpt lat="43.59456" lon="11.5891733"><ele>280.4</ele><time>2026-05-01T09:04:42.208Z</time></trkpt><trkpt lat="43.5945367" lon="11.5893083"><ele>280.6</ele><time>2026-05-01T09:04:43.206Z</time></trkpt><trkpt lat="43.594505" lon="11.5894383"><ele>280.8</ele><time>2026-05-01T09:04:44.207Z</time></trkpt><trkpt lat="43.5944683" lon="11.58956"><ele>281.0</ele><time>2026-05-01T09:04:45.207Z</time></trkpt><trkpt lat="43.5944283" lon="11.589685"><ele>281.0</ele><time>2026-05-01T09:04:46.206Z</time></trkpt><trkpt lat="43.594385" lon="11.589805"><ele>281.0</ele><time>2026-05-01T09:04:47.207Z</time></trkpt><trkpt lat="43.5943333" lon="11.5899267"><ele>281.0</ele><time>2026-05-01T09:04:48.209Z</time></trkpt><trkpt lat="43.5942817" lon="11.5900383"><ele>281.0</ele><time>2026-05-01T09:04:49.207Z</time></trkpt><trkpt lat="43.5942283" lon="11.59014"><ele>281.0</ele><time>2026-05-01T09:04:50.207Z</time></trkpt><trkpt lat="43.5941733" lon="11.5902417"><ele>282.2</ele><time>2026-05-01T09:04:51.205Z</time></trkpt><trkpt lat="43.59412" lon="11.59035"><ele>283.40000000000003</ele><time>2026-05-01T09:04:52.207Z</time></trkpt><trkpt lat="43.5940667" lon="11.5904583"><ele>284.6</ele><time>2026-05-01T09:04:53.209Z</time></trkpt><trkpt lat="43.5940183" lon="11.5905683"><ele>285.8</ele><time>2026-05-01T09:04:54.208Z</time></trkpt><trkpt lat="43.5939717" lon="11.590685"><ele>287.0</ele><time>2026-05-01T09:04:55.207Z</time></trkpt><trkpt lat="43.59393" lon="11.5908"><ele>287.0</ele><time>2026-05-01T09:04:56.209Z</time></trkpt><trkpt lat="43.59389" lon="11.5909167"><ele>287.0</ele><time>2026-05-01T09:04:57.207Z</time></trkpt><trkpt lat="43.5938533" lon="11.5910333"><ele>287.0</ele><time>2026-05-01T09:04:58.207Z</time></trkpt><trkpt lat="43.5938283" lon="11.591165"><ele>287.0</ele><time>2026-05-01T09:04:59.207Z</time></trkpt><trkpt lat="43.593825" lon="11.5912983"><ele>287.0</ele><time>2026-05-01T09:05:00.206Z</time></trkpt><trkpt lat="43.5938333" lon="11.591435"><ele>287.33333333333337</ele><time>2026-05-01T09:05:01.207Z</time></trkpt><trkpt lat="43.593835" lon="11.5915633"><ele>287.6666666666667</ele><time>2026-05-01T09:05:02.208Z</time></trkpt><trkpt lat="43.5938117" lon="11.5916767"><ele>288.0</ele><time>2026-05-01T09:05:03.208Z</time></trkpt><trkpt lat="43.5937667" lon="11.5917717"><ele>288.3333333333333</ele><time>2026-05-01T09:05:04.208Z</time></trkpt><trkpt lat="43.593695" lon="11.5918267"><ele>288.66666666666663</ele><time>2026-05-01T09:05:05.207Z</time></trkpt><trkpt lat="43.5936167" lon="11.591855"><ele>289.0</ele><time>2026-05-01T09:05:06.207Z</time></trkpt><trkpt lat="43.59354" lon="11.591875"><ele>288.3333333333333</ele><time>2026-05-01T09:05:07.209Z</time></trkpt><trkpt lat="43.5934583" lon="11.5919017"><ele>287.66666666666663</ele><time>2026-05-01T09:05:08.208Z</time></trkpt><trkpt lat="43.5933833" lon="11.59193"><ele>287.0</ele><time>2026-05-01T09:05:09.209Z</time></trkpt><trkpt lat="43.59332" lon="11.59197"><ele>286.3333333333333</ele><time>2026-05-01T09:05:10.207Z</time></trkpt><trkpt lat="43.5932633" lon="11.5920183"><ele>285.6666666666667</ele><time>2026-05-01T09:05:11.209Z</time></trkpt><trkpt lat="43.5931767" lon="11.592155"><ele>285.0</ele><time>2026-05-01T09:05:13.207Z</time></trkpt><trkpt lat="43.59316" lon="11.59224"><ele>285.0</ele><time>2026-05-01T09:05:14.209Z</time></trkpt><trkpt lat="43.5931783" lon="11.5924083"><ele>285.0</ele><time>2026-05-01T09:05:16.208Z</time></trkpt><trkpt lat="43.5931967" lon="11.5924967"><ele>285.0</ele><time>2026-05-01T09:05:17.208Z</time></trkpt><trkpt lat="43.5932367" lon="11.5926617"><ele>285.0</ele><time>2026-05-01T09:05:19.208Z</time></trkpt><trkpt lat="43.5932583" lon="11.5927467"><ele>285.0</ele><time>2026-05-01T09:05:20.209Z</time></trkpt><trkpt lat="43.59328" lon="11.592835"><ele>285.0</ele><time>2026-05-01T09:05:21.206Z</time></trkpt><trkpt lat="43.5933033" lon="11.5929233"><ele>285.1428571428571</ele><time>2026-05-01T09:05:22.206Z</time></trkpt><trkpt lat="43.5933283" lon="11.5930133"><ele>285.2857142857143</ele><time>2026-05-01T09:05:23.208Z</time></trkpt><trkpt lat="43.5933483" lon="11.593105"><ele>285.42857142857144</ele><time>2026-05-01T09:05:24.208Z</time></trkpt><trkpt lat="43.5933683" lon="11.5931917"><ele>285.57142857142856</ele><time>2026-05-01T09:05:25.206Z</time></trkpt><trkpt lat="43.5933883" lon="11.5932817"><ele>285.7142857142857</ele><time>2026-05-01T09:05:26.208Z</time></trkpt><trkpt lat="43.5934083" lon="11.59338"><ele>285.85714285714283</ele><time>2026-05-01T09:05:27.207Z</time></trkpt><trkpt lat="43.59342" lon="11.5934683"><ele>286.0</ele><time>2026-05-01T09:05:28.207Z</time></trkpt><trkpt lat="43.5934183" lon="11.5935567"><ele>286.0</ele><time>2026-05-01T09:05:29.207Z</time></trkpt><trkpt lat="43.5934067" lon="11.5936467"><ele>286.0</ele><time>2026-05-01T09:05:30.209Z</time></trkpt><trkpt lat="43.5933817" lon="11.5937317"><ele>286.0</ele><time>2026-05-01T09:05:31.207Z</time></trkpt><trkpt lat="43.59329" lon="11.5938433"><ele>286.0</ele><time>2026-05-01T09:05:33.207Z</time></trkpt><trkpt lat="43.5932333" lon="11.5938917"><ele>286.0</ele><time>2026-05-01T09:05:34.207Z</time></trkpt><trkpt lat="43.59318" lon="11.5939417"><ele>286.0</ele><time>2026-05-01T09:05:35.208Z</time></trkpt><trkpt lat="43.5931233" lon="11.5939917"><ele>287.2</ele><time>2026-05-01T09:05:36.207Z</time></trkpt><trkpt lat="43.59307" lon="11.5940383"><ele>288.40000000000003</ele><time>2026-05-01T09:05:37.208Z</time></trkpt><trkpt lat="43.5929683" lon="11.5941283"><ele>289.6</ele><time>2026-05-01T09:05:39.208Z</time></trkpt><trkpt lat="43.5929167" lon="11.594185"><ele>290.8</ele><time>2026-05-01T09:05:40.207Z</time></trkpt><trkpt lat="43.592815" lon="11.5942583"><ele>292.0</ele><time>2026-05-01T09:05:42.209Z</time></trkpt><trkpt lat="43.5927283" lon="11.5943217"><ele>292.16666666666663</ele><time>2026-05-01T09:05:44.208Z</time></trkpt><trkpt lat="43.5926533" lon="11.5943767"><ele>292.3333333333333</ele><time>2026-05-01T09:05:46.203Z</time></trkpt><trkpt lat="43.5925917" lon="11.5944367"><ele>292.5</ele><time>2026-05-01T09:05:48.207Z</time></trkpt><trkpt lat="43.592525" lon="11.5945033"><ele>292.6666666666667</ele><time>2026-05-01T09:05:50.208Z</time></trkpt><trkpt lat="43.59246" lon="11.5945783"><ele>292.83333333333337</ele><time>2026-05-01T09:05:52.207Z</time></trkpt><trkpt lat="43.59241" lon="11.5946633"><ele>293.0</ele><time>2026-05-01T09:05:54.206Z</time></trkpt><trkpt lat="43.5923667" lon="11.59476"><ele>292.8</ele><time>2026-05-01T09:05:56.208Z</time></trkpt><trkpt lat="43.5923317" lon="11.5948817"><ele>292.6</ele><time>2026-05-01T09:05:58.205Z</time></trkpt><trkpt lat="43.5923117" lon="11.5950133"><ele>292.4</ele><time>2026-05-01T09:06:00.208Z</time></trkpt><trkpt lat="43.5923" lon="11.59515"><ele>292.2</ele><time>2026-05-01T09:06:02.209Z</time></trkpt><trkpt lat="43.5923067" lon="11.5952933"><ele>292.0</ele><time>2026-05-01T09:06:04.207Z</time></trkpt><trkpt lat="43.5923317" lon="11.5954483"><ele>292.0</ele><time>2026-05-01T09:06:06.209Z</time></trkpt><trkpt lat="43.592385" lon="11.5956017"><ele>292.0</ele><time>2026-05-01T09:06:08.207Z</time></trkpt><trkpt lat="43.5924633" lon="11.5957433"><ele>292.0</ele><time>2026-05-01T09:06:10.208Z</time></trkpt><trkpt lat="43.59251" lon="11.59581"><ele>292.0</ele><time>2026-05-01T09:06:11.207Z</time></trkpt><trkpt lat="43.5925567" lon="11.5958683"><ele>292.0</ele><time>2026-05-01T09:06:12.206Z</time></trkpt><trkpt lat="43.5926583" lon="11.5959617"><ele>292.0</ele><time>2026-05-01T09:06:14.207Z</time></trkpt><trkpt lat="43.592715" lon="11.5960083"><ele>292.0</ele><time>2026-05-01T09:06:15.206Z</time></trkpt><trkpt lat="43.592775" lon="11.5960517"><ele>292.0</ele><time>2026-05-01T09:06:16.208Z</time></trkpt><trkpt lat="43.5928383" lon="11.5960933"><ele>292.0</ele><time>2026-05-01T09:06:17.209Z</time></trkpt><trkpt lat="43.5928983" lon="11.5961333"><ele>292.0</ele><time>2026-05-01T09:06:18.208Z</time></trkpt><trkpt lat="43.5929583" lon="11.5961717"><ele>292.0</ele><time>2026-05-01T09:06:19.208Z</time></trkpt><trkpt lat="43.593025" lon="11.5962117"><ele>292.0</ele><time>2026-05-01T09:06:20.208Z</time></trkpt><trkpt lat="43.5930883" lon="11.59626"><ele>293.2857142857143</ele><time>2026-05-01T09:06:21.207Z</time></trkpt><trkpt lat="43.5931383" lon="11.5963217"><ele>294.57142857142856</ele><time>2026-05-01T09:06:22.208Z</time></trkpt><trkpt lat="43.5931717" lon="11.5964"><ele>295.8571428571429</ele><time>2026-05-01T09:06:23.208Z</time></trkpt><trkpt lat="43.5931667" lon="11.5964867"><ele>297.1428571428571</ele><time>2026-05-01T09:06:24.21Z</time></trkpt><trkpt lat="43.59314" lon="11.5965683"><ele>298.42857142857144</ele><time>2026-05-01T09:06:25.207Z</time></trkpt><trkpt lat="43.59309" lon="11.5966317"><ele>299.7142857142857</ele><time>2026-05-01T09:06:26.207Z</time></trkpt><trkpt lat="43.593025" lon="11.5966633"><ele>301.0</ele><time>2026-05-01T09:06:27.207Z</time></trkpt><trkpt lat="43.5929617" lon="11.59669"><ele>301.0</ele><time>2026-05-01T09:06:28.207Z</time></trkpt><trkpt lat="43.5928917" lon="11.5967267"><ele>301.0</ele><time>2026-05-01T09:06:29.207Z</time></trkpt><trkpt lat="43.59282" lon="11.5967733"><ele>301.0</ele><time>2026-05-01T09:06:30.207Z</time></trkpt><trkpt lat="43.592745" lon="11.59683"><ele>301.0</ele><time>2026-05-01T09:06:31.207Z</time></trkpt><trkpt lat="43.5926733" lon="11.59689"><ele>301.0</ele><time>2026-05-01T09:06:32.208Z</time></trkpt><trkpt lat="43.592605" lon="11.5969533"><ele>301.0</ele><time>2026-05-01T09:06:33.209Z</time></trkpt><trkpt lat="43.5925367" lon="11.59702"><ele>300.16666666666663</ele><time>2026-05-01T09:06:34.207Z</time></trkpt><trkpt lat="43.5924633" lon="11.5970933"><ele>299.3333333333333</ele><time>2026-05-01T09:06:35.208Z</time></trkpt><trkpt lat="43.592395" lon="11.5971633"><ele>298.5</ele><time>2026-05-01T09:06:36.207Z</time></trkpt><trkpt lat="43.5923267" lon="11.5972317"><ele>297.6666666666667</ele><time>2026-05-01T09:06:37.209Z</time></trkpt><trkpt lat="43.5922583" lon="11.5973083"><ele>296.83333333333337</ele><time>2026-05-01T09:06:38.208Z</time></trkpt><trkpt lat="43.5922017" lon="11.5974"><ele>296.0</ele><time>2026-05-01T09:06:39.207Z</time></trkpt><trkpt lat="43.5921617" lon="11.5975083"><ele>296.0</ele><time>2026-05-01T09:06:40.207Z</time></trkpt><trkpt lat="43.5921333" lon="11.597625"><ele>296.0</ele><time>2026-05-01T09:06:41.207Z</time></trkpt><trkpt lat="43.59212" lon="11.59774"><ele>296.0</ele><time>2026-05-01T09:06:42.209Z</time></trkpt><trkpt lat="43.5921167" lon="11.5978583"><ele>296.0</ele><time>2026-05-01T09:06:43.207Z</time></trkpt><trkpt lat="43.592115" lon="11.597985"><ele>296.0</ele><time>2026-05-01T09:06:44.208Z</time></trkpt><trkpt lat="43.5921133" lon="11.5981167"><ele>296.0</ele><time>2026-05-01T09:06:45.209Z</time></trkpt><trkpt lat="43.5920983" lon="11.5982333"><ele>296.5</ele><time>2026-05-01T09:06:46.208Z</time></trkpt><trkpt lat="43.5920633" lon="11.5983483"><ele>297.0</ele><time>2026-05-01T09:06:47.209Z</time></trkpt><trkpt lat="43.5920167" lon="11.5984417"><ele>297.5</ele><time>2026-05-01T09:06:48.209Z</time></trkpt><trkpt lat="43.591965" lon="11.5985283"><ele>298.0</ele><time>2026-05-01T09:06:49.208Z</time></trkpt><trkpt lat="43.59191" lon="11.598605"><ele>298.5</ele><time>2026-05-01T09:06:50.208Z</time></trkpt><trkpt lat="43.59186" lon="11.5986733"><ele>299.0</ele><time>2026-05-01T09:06:51.21Z</time></trkpt><trkpt lat="43.5918133" lon="11.59874"><ele>298.0</ele><time>2026-05-01T09:06:52.209Z</time></trkpt><trkpt lat="43.5917717" lon="11.59881"><ele>297.0</ele><time>2026-05-01T09:06:53.208Z</time></trkpt><trkpt lat="43.5917317" lon="11.5988783"><ele>296.0</ele><time>2026-05-01T09:06:54.208Z</time></trkpt><trkpt lat="43.5916783" lon="11.599025"><ele>295.0</ele><time>2026-05-01T09:06:56.208Z</time></trkpt><trkpt lat="43.59166" lon="11.5991083"><ele>294.0</ele><time>2026-05-01T09:06:57.208Z</time></trkpt><trkpt lat="43.5916433" lon="11.599195"><ele>293.0</ele><time>2026-05-01T09:06:58.207Z</time></trkpt><trkpt lat="43.59163" lon="11.5993683"><ele>293.0</ele><time>2026-05-01T09:07:00.209Z</time></trkpt><trkpt lat="43.591635" lon="11.5994567"><ele>293.0</ele><time>2026-05-01T09:07:01.209Z</time></trkpt><trkpt lat="43.5916467" lon="11.5995433"><ele>293.0</ele><time>2026-05-01T09:07:02.209Z</time></trkpt><trkpt lat="43.59168" lon="11.5996983"><ele>293.0</ele><time>2026-05-01T09:07:04.208Z</time></trkpt><trkpt lat="43.5917217" lon="11.5998517"><ele>293.0</ele><time>2026-05-01T09:07:06.207Z</time></trkpt><trkpt lat="43.59177" lon="11.5999967"><ele>292.99999999999994</ele><time>2026-05-01T09:07:08.208Z</time></trkpt><trkpt lat="43.591825" lon="11.6001333"><ele>293.0</ele><time>2026-05-01T09:07:10.208Z</time></trkpt><trkpt lat="43.5918583" lon="11.6002083"><ele>293.0</ele><time>2026-05-01T09:07:11.211Z</time></trkpt><trkpt lat="43.59189" lon="11.6002883"><ele>293.0</ele><time>2026-05-01T09:07:12.209Z</time></trkpt><trkpt lat="43.5919233" lon="11.600365"><ele>293.0</ele><time>2026-05-01T09:07:13.208Z</time></trkpt><trkpt lat="43.591955" lon="11.6004467"><ele>292.99999999999994</ele><time>2026-05-01T09:07:14.208Z</time></trkpt><trkpt lat="43.59199" lon="11.6005283"><ele>293.0</ele><time>2026-05-01T09:07:15.208Z</time></trkpt><trkpt lat="43.592025" lon="11.6006117"><ele>294.5</ele><time>2026-05-01T09:07:16.206Z</time></trkpt><trkpt lat="43.59206" lon="11.60069"><ele>296.0</ele><time>2026-05-01T09:07:17.206Z</time></trkpt><trkpt lat="43.5920983" lon="11.60077"><ele>297.5</ele><time>2026-05-01T09:07:18.209Z</time></trkpt><trkpt lat="43.5921333" lon="11.6008467"><ele>299.0</ele><time>2026-05-01T09:07:19.208Z</time></trkpt><trkpt lat="43.5922" lon="11.60097"><ele>300.5</ele><time>2026-05-01T09:07:21.208Z</time></trkpt><trkpt lat="43.5922783" lon="11.6010767"><ele>302.0</ele><time>2026-05-01T09:07:23.207Z</time></trkpt><trkpt lat="43.59233" lon="11.6011367"><ele>301.28571428571433</ele><time>2026-05-01T09:07:24.208Z</time></trkpt><trkpt lat="43.5923883" lon="11.6011917"><ele>300.57142857142856</ele><time>2026-05-01T09:07:25.208Z</time></trkpt><trkpt lat="43.5924433" lon="11.6012517"><ele>299.8571428571429</ele><time>2026-05-01T09:07:26.21Z</time></trkpt><trkpt lat="43.592495" lon="11.6013167"><ele>299.14285714285717</ele><time>2026-05-01T09:07:27.208Z</time></trkpt><trkpt lat="43.5925433" lon="11.6013833"><ele>298.42857142857144</ele><time>2026-05-01T09:07:28.209Z</time></trkpt><trkpt lat="43.5925783" lon="11.60146"><ele>297.7142857142857</ele><time>2026-05-01T09:07:29.209Z</time></trkpt><trkpt lat="43.5926017" lon="11.601545"><ele>297.0</ele><time>2026-05-01T09:07:30.208Z</time></trkpt><trkpt lat="43.5925917" lon="11.6017183"><ele>297.0</ele><time>2026-05-01T09:07:32.207Z</time></trkpt><trkpt lat="43.5925617" lon="11.6018117"><ele>297.0</ele><time>2026-05-01T09:07:33.208Z</time></trkpt><trkpt lat="43.592515" lon="11.601895"><ele>297.0</ele><time>2026-05-01T09:07:34.209Z</time></trkpt><trkpt lat="43.59246" lon="11.6019567"><ele>297.0</ele><time>2026-05-01T09:07:35.209Z</time></trkpt><trkpt lat="43.592395" lon="11.6020017"><ele>297.0</ele><time>2026-05-01T09:07:36.207Z</time></trkpt><trkpt lat="43.5923333" lon="11.602045"><ele>297.0</ele><time>2026-05-01T09:07:37.207Z</time></trkpt><trkpt lat="43.59223" lon="11.6021417"><ele>297.2</ele><time>2026-05-01T09:07:39.208Z</time></trkpt><trkpt lat="43.5921433" lon="11.6022483"><ele>297.4</ele><time>2026-05-01T09:07:41.208Z</time></trkpt><trkpt lat="43.592065" lon="11.6023633"><ele>297.6</ele><time>2026-05-01T09:07:43.207Z</time></trkpt><trkpt lat="43.5920283" lon="11.6024433"><ele>297.8</ele><time>2026-05-01T09:07:44.209Z</time></trkpt><trkpt lat="43.5919967" lon="11.60259"><ele>298.0</ele><time>2026-05-01T09:07:46.208Z</time></trkpt><trkpt lat="43.592015" lon="11.6027117"><ele>299.0</ele><time>2026-05-01T09:07:48.208Z</time></trkpt><trkpt lat="43.592085" lon="11.6028217"><ele>300.0</ele><time>2026-05-01T09:07:50.207Z</time></trkpt><trkpt lat="43.59217" lon="11.6029383"><ele>301.0</ele><time>2026-05-01T09:07:52.207Z</time></trkpt><trkpt lat="43.59224" lon="11.603055"><ele>302.0</ele><time>2026-05-01T09:07:54.207Z</time></trkpt><trkpt lat="43.59226" lon="11.6032183"><ele>302.00000000000006</ele><time>2026-05-01T09:07:56.207Z</time></trkpt><trkpt lat="43.59225" lon="11.603305"><ele>302.0</ele><time>2026-05-01T09:07:57.208Z</time></trkpt><trkpt lat="43.5922317" lon="11.6033983"><ele>302.0</ele><time>2026-05-01T09:07:58.206Z</time></trkpt><trkpt lat="43.5922033" lon="11.6034883"><ele>302.0</ele><time>2026-05-01T09:07:59.208Z</time></trkpt><trkpt lat="43.5921717" lon="11.6035767"><ele>302.0</ele><time>2026-05-01T09:08:00.208Z</time></trkpt><trkpt lat="43.5921383" lon="11.6036567"><ele>302.00000000000006</ele><time>2026-05-01T09:08:01.21Z</time></trkpt><trkpt lat="43.5921" lon="11.6037333"><ele>302.0</ele><time>2026-05-01T09:08:02.209Z</time></trkpt><trkpt lat="43.5920633" lon="11.603805"><ele>300.5</ele><time>2026-05-01T09:08:03.205Z</time></trkpt><trkpt lat="43.5919817" lon="11.60394"><ele>299.0</ele><time>2026-05-01T09:08:05.207Z</time></trkpt><trkpt lat="43.5918933" lon="11.6040567"><ele>297.5</ele><time>2026-05-01T09:08:07.208Z</time></trkpt><trkpt lat="43.5918" lon="11.60416"><ele>296.0</ele><time>2026-05-01T09:08:09.208Z</time></trkpt><trkpt lat="43.591705" lon="11.6042617"><ele>296.0</ele><time>2026-05-01T09:08:11.209Z</time></trkpt><trkpt lat="43.591655" lon="11.604315"><ele>296.0</ele><time>2026-05-01T09:08:12.209Z</time></trkpt><trkpt lat="43.591605" lon="11.60437"><ele>296.0</ele><time>2026-05-01T09:08:13.207Z</time></trkpt><trkpt lat="43.5915533" lon="11.6044233"><ele>296.0</ele><time>2026-05-01T09:08:14.208Z</time></trkpt><trkpt lat="43.5914517" lon="11.6045283"><ele>296.0</ele><time>2026-05-01T09:08:16.208Z</time></trkpt><trkpt lat="43.5913517" lon="11.6046333"><ele>296.0</ele><time>2026-05-01T09:08:18.208Z</time></trkpt><trkpt lat="43.5913" lon="11.604685"><ele>295.1666666666667</ele><time>2026-05-01T09:08:19.209Z</time></trkpt><trkpt lat="43.5912133" lon="11.6048083"><ele>294.33333333333337</ele><time>2026-05-01T09:08:21.208Z</time></trkpt><trkpt lat="43.59118" lon="11.6048917"><ele>293.5</ele><time>2026-05-01T09:08:22.208Z</time></trkpt><trkpt lat="43.5911583" lon="11.6049783"><ele>292.6666666666667</ele><time>2026-05-01T09:08:23.208Z</time></trkpt><trkpt lat="43.59114" lon="11.6050767"><ele>291.8333333333333</ele><time>2026-05-01T09:08:24.207Z</time></trkpt><trkpt lat="43.5911267" lon="11.605185"><ele>291.0</ele><time>2026-05-01T09:08:25.207Z</time></trkpt><trkpt lat="43.5911183" lon="11.605295"><ele>291.1666666666667</ele><time>2026-05-01T09:08:26.208Z</time></trkpt><trkpt lat="43.59111" lon="11.6054067"><ele>291.3333333333333</ele><time>2026-05-01T09:08:27.208Z</time></trkpt><trkpt lat="43.5911033" lon="11.60552"><ele>291.5</ele><time>2026-05-01T09:08:28.208Z</time></trkpt><trkpt lat="43.591095" lon="11.6056283"><ele>291.66666666666663</ele><time>2026-05-01T09:08:29.207Z</time></trkpt><trkpt lat="43.5910833" lon="11.6057367"><ele>291.8333333333333</ele><time>2026-05-01T09:08:30.207Z</time></trkpt><trkpt lat="43.59107" lon="11.6058417"><ele>292.0</ele><time>2026-05-01T09:08:31.207Z</time></trkpt><trkpt lat="43.59106" lon="11.6059467"><ele>292.0</ele><time>2026-05-01T09:08:32.21Z</time></trkpt><trkpt lat="43.5910583" lon="11.6060517"><ele>292.0</ele><time>2026-05-01T09:08:33.207Z</time></trkpt><trkpt lat="43.59106" lon="11.6061567"><ele>292.0</ele><time>2026-05-01T09:08:34.207Z</time></trkpt><trkpt lat="43.591075" lon="11.6062533"><ele>292.0</ele><time>2026-05-01T09:08:35.209Z</time></trkpt><trkpt lat="43.5911" lon="11.6063433"><ele>292.0</ele><time>2026-05-01T09:08:36.208Z</time></trkpt><trkpt lat="43.5911333" lon="11.6064317"><ele>292.0</ele><time>2026-05-01T09:08:37.208Z</time></trkpt><trkpt lat="43.5911667" lon="11.6065233"><ele>292.0</ele><time>2026-05-01T09:08:38.209Z</time></trkpt><trkpt lat="43.5911883" lon="11.6066167"><ele>292.2857142857143</ele><time>2026-05-01T09:08:39.208Z</time></trkpt><trkpt lat="43.5911917" lon="11.6067083"><ele>292.57142857142856</ele><time>2026-05-01T09:08:40.207Z</time></trkpt><trkpt lat="43.5911733" lon="11.6067983"><ele>292.8571428571429</ele><time>2026-05-01T09:08:41.208Z</time></trkpt><trkpt lat="43.5911317" lon="11.6068733"><ele>293.1428571428571</ele><time>2026-05-01T09:08:42.208Z</time></trkpt><trkpt lat="43.5910783" lon="11.606925"><ele>293.42857142857144</ele><time>2026-05-01T09:08:43.209Z</time></trkpt><trkpt lat="43.59102" lon="11.606965"><ele>293.7142857142857</ele><time>2026-05-01T09:08:44.208Z</time></trkpt><trkpt lat="43.5909283" lon="11.6069817"><ele>294.0</ele><time>2026-05-01T09:08:46.206Z</time></trkpt><trkpt lat="43.5908733" lon="11.6069333"><ele>294.0</ele><time>2026-05-01T09:08:47.207Z</time></trkpt><trkpt lat="43.590815" lon="11.606865"><ele>294.0</ele><time>2026-05-01T09:08:48.208Z</time></trkpt><trkpt lat="43.5907517" lon="11.60679"><ele>294.0</ele><time>2026-05-01T09:08:49.209Z</time></trkpt><trkpt lat="43.5907" lon="11.6067183"><ele>294.0</ele><time>2026-05-01T09:08:50.21Z</time></trkpt><trkpt lat="43.590655" lon="11.6066533"><ele>294.0</ele><time>2026-05-01T09:08:51.207Z</time></trkpt><trkpt lat="43.5906067" lon="11.60659"><ele>294.0</ele><time>2026-05-01T09:08:52.207Z</time></trkpt><trkpt lat="43.590555" lon="11.60653"><ele>294.0</ele><time>2026-05-01T09:08:53.208Z</time></trkpt><trkpt lat="43.5904967" lon="11.6064717"><ele>294.0</ele><time>2026-05-01T09:08:54.209Z</time></trkpt><trkpt lat="43.5904383" lon="11.6064183"><ele>294.0</ele><time>2026-05-01T09:08:55.207Z</time></trkpt><trkpt lat="43.5903783" lon="11.6063767"><ele>294.0</ele><time>2026-05-01T09:08:56.207Z</time></trkpt><trkpt lat="43.59026" lon="11.606335"><ele>294.0</ele><time>2026-05-01T09:08:58.208Z</time></trkpt><trkpt lat="43.5901517" lon="11.6063483"><ele>294.0</ele><time>2026-05-01T09:09:00.209Z</time></trkpt><trkpt lat="43.590025" lon="11.6063983"><ele>294.3333333333333</ele><time>2026-05-01T09:09:02.207Z</time></trkpt><trkpt lat="43.5899617" lon="11.6064167"><ele>294.6666666666667</ele><time>2026-05-01T09:09:03.206Z</time></trkpt><trkpt lat="43.5899" lon="11.606435"><ele>295.0</ele><time>2026-05-01T09:09:04.207Z</time></trkpt><trkpt lat="43.589785" lon="11.606475"><ele>295.33333333333337</ele><time>2026-05-01T09:09:06.208Z</time></trkpt><trkpt lat="43.5897233" lon="11.606495"><ele>295.6666666666667</ele><time>2026-05-01T09:09:07.206Z</time></trkpt><trkpt lat="43.58961" lon="11.6065517"><ele>296.0</ele><time>2026-05-01T09:09:09.207Z</time></trkpt><trkpt lat="43.5895117" lon="11.6066483"><ele>295.6</ele><time>2026-05-01T09:09:11.206Z</time></trkpt><trkpt lat="43.5894283" lon="11.6067667"><ele>295.20000000000005</ele><time>2026-05-01T09:09:13.206Z</time></trkpt><trkpt lat="43.5893517" lon="11.6068983"><ele>294.79999999999995</ele><time>2026-05-01T09:09:15.207Z</time></trkpt><trkpt lat="43.5892717" lon="11.6070317"><ele>294.4</ele><time>2026-05-01T09:09:17.207Z</time></trkpt><trkpt lat="43.58923" lon="11.6071017"><ele>294.0</ele><time>2026-05-01T09:09:18.209Z</time></trkpt><trkpt lat="43.5891883" lon="11.60717"><ele>294.0</ele><time>2026-05-01T09:09:19.208Z</time></trkpt><trkpt lat="43.5891433" lon="11.6072483"><ele>294.0</ele><time>2026-05-01T09:09:20.207Z</time></trkpt><trkpt lat="43.5890983" lon="11.6073267"><ele>294.0</ele><time>2026-05-01T09:09:21.206Z</time></trkpt><trkpt lat="43.5890533" lon="11.6074033"><ele>294.0</ele><time>2026-05-01T09:09:22.209Z</time></trkpt><trkpt lat="43.58901" lon="11.6074867"><ele>294.0</ele><time>2026-05-01T09:09:23.206Z</time></trkpt><trkpt lat="43.5889633" lon="11.6075667"><ele>294.0</ele><time>2026-05-01T09:09:24.206Z</time></trkpt><trkpt lat="43.5889183" lon="11.607645"><ele>294.0</ele><time>2026-05-01T09:09:25.206Z</time></trkpt><trkpt lat="43.5888717" lon="11.6077317"><ele>294.0</ele><time>2026-05-01T09:09:26.21Z</time></trkpt><trkpt lat="43.5888267" lon="11.6078167"><ele>294.0</ele><time>2026-05-01T09:09:27.207Z</time></trkpt><trkpt lat="43.5887833" lon="11.607905"><ele>294.0</ele><time>2026-05-01T09:09:28.206Z</time></trkpt><trkpt lat="43.5887467" lon="11.6080017"><ele>294.0</ele><time>2026-05-01T09:09:29.207Z</time></trkpt><trkpt lat="43.588725" lon="11.6081033"><ele>294.0</ele><time>2026-05-01T09:09:30.208Z</time></trkpt><trkpt lat="43.5887183" lon="11.6082117"><ele>294.0</ele><time>2026-05-01T09:09:31.206Z</time></trkpt><trkpt lat="43.58873" lon="11.6083333"><ele>293.8</ele><time>2026-05-01T09:09:32.207Z</time></trkpt><trkpt lat="43.5887483" lon="11.60846"><ele>293.59999999999997</ele><time>2026-05-01T09:09:33.208Z</time></trkpt><trkpt lat="43.58877" lon="11.6085883"><ele>293.4</ele><time>2026-05-01T09:09:34.207Z</time></trkpt><trkpt lat="43.5887867" lon="11.6087267"><ele>293.2</ele><time>2026-05-01T09:09:35.207Z</time></trkpt><trkpt lat="43.5887933" lon="11.6088667"><ele>293.0</ele><time>2026-05-01T09:09:36.206Z</time></trkpt><trkpt lat="43.5887867" lon="11.6090067"><ele>292.8</ele><time>2026-05-01T09:09:37.208Z</time></trkpt><trkpt lat="43.5887733" lon="11.6091483"><ele>292.6</ele><time>2026-05-01T09:09:38.208Z</time></trkpt><trkpt lat="43.5887517" lon="11.6092867"><ele>292.4</ele><time>2026-05-01T09:09:39.206Z</time></trkpt><trkpt lat="43.5887233" lon="11.6094217"><ele>292.2</ele><time>2026-05-01T09:09:40.206Z</time></trkpt><trkpt lat="43.5886783" lon="11.6095483"><ele>292.0</ele><time>2026-05-01T09:09:41.206Z</time></trkpt><trkpt lat="43.5886233" lon="11.6096567"><ele>291.5</ele><time>2026-05-01T09:09:42.207Z</time></trkpt><trkpt lat="43.5885533" lon="11.6097467"><ele>291.0</ele><time>2026-05-01T09:09:43.207Z</time></trkpt><trkpt lat="43.5884717" lon="11.609815"><ele>290.5</ele><time>2026-05-01T09:09:44.208Z</time></trkpt><trkpt lat="43.5883933" lon="11.6098683"><ele>290.0</ele><time>2026-05-01T09:09:45.207Z</time></trkpt><trkpt lat="43.5883183" lon="11.609905"><ele>289.5</ele><time>2026-05-01T09:09:46.207Z</time></trkpt><trkpt lat="43.5882533" lon="11.6099417"><ele>289.0</ele><time>2026-05-01T09:09:47.207Z</time></trkpt><trkpt lat="43.5881467" lon="11.6100083"><ele>289.0</ele><time>2026-05-01T09:09:49.208Z</time></trkpt><trkpt lat="43.5880533" lon="11.610065"><ele>289.0</ele><time>2026-05-01T09:09:51.208Z</time></trkpt><trkpt lat="43.5879717" lon="11.61012"><ele>289.0</ele><time>2026-05-01T09:09:53.208Z</time></trkpt><trkpt lat="43.5879" lon="11.6101883"><ele>289.0</ele><time>2026-05-01T09:09:55.207Z</time></trkpt><trkpt lat="43.5878233" lon="11.6102733"><ele>289.0</ele><time>2026-05-01T09:09:57.207Z</time></trkpt><trkpt lat="43.5877683" lon="11.61038"><ele>288.8333333333333</ele><time>2026-05-01T09:09:59.207Z</time></trkpt><trkpt lat="43.58772" lon="11.6104983"><ele>288.66666666666663</ele><time>2026-05-01T09:10:01.206Z</time></trkpt><trkpt lat="43.5876983" lon="11.6106583"><ele>288.5</ele><time>2026-05-01T09:10:03.207Z</time></trkpt><trkpt lat="43.5877" lon="11.6107533"><ele>288.3333333333333</ele><time>2026-05-01T09:10:04.207Z</time></trkpt><trkpt lat="43.587715" lon="11.6108483"><ele>288.1666666666667</ele><time>2026-05-01T09:10:05.208Z</time></trkpt><trkpt lat="43.587745" lon="11.610925"><ele>288.0</ele><time>2026-05-01T09:10:06.208Z</time></trkpt><trkpt lat="43.5877867" lon="11.6109933"><ele>288.0</ele><time>2026-05-01T09:10:07.205Z</time></trkpt><trkpt lat="43.58784" lon="11.61106"><ele>288.0</ele><time>2026-05-01T09:10:08.208Z</time></trkpt><trkpt lat="43.5879017" lon="11.6111233"><ele>288.0</ele><time>2026-05-01T09:10:09.207Z</time></trkpt><trkpt lat="43.5879683" lon="11.61118"><ele>288.0</ele><time>2026-05-01T09:10:10.209Z</time></trkpt><trkpt lat="43.5880383" lon="11.611245"><ele>288.0</ele><time>2026-05-01T09:10:11.206Z</time></trkpt><trkpt lat="43.5881117" lon="11.6112983"><ele>288.0</ele><time>2026-05-01T09:10:12.208Z</time></trkpt><trkpt lat="43.588185" lon="11.61135"><ele>287.5</ele><time>2026-05-01T09:10:13.208Z</time></trkpt><trkpt lat="43.5882617" lon="11.6114033"><ele>287.0</ele><time>2026-05-01T09:10:14.209Z</time></trkpt><trkpt lat="43.5883433" lon="11.6114533"><ele>286.5</ele><time>2026-05-01T09:10:15.21Z</time></trkpt><trkpt lat="43.5884267" lon="11.6114917"><ele>286.0</ele><time>2026-05-01T09:10:16.209Z</time></trkpt><trkpt lat="43.58851" lon="11.611525"><ele>285.5</ele><time>2026-05-01T09:10:17.208Z</time></trkpt><trkpt lat="43.5885967" lon="11.6115633"><ele>285.0</ele><time>2026-05-01T09:10:18.207Z</time></trkpt><trkpt lat="43.58868" lon="11.611605"><ele>285.3333333333333</ele><time>2026-05-01T09:10:19.208Z</time></trkpt><trkpt lat="43.5887633" lon="11.611655"><ele>285.6666666666667</ele><time>2026-05-01T09:10:20.208Z</time></trkpt><trkpt lat="43.58884" lon="11.6117133"><ele>286.0</ele><time>2026-05-01T09:10:21.207Z</time></trkpt><trkpt lat="43.588905" lon="11.6117817"><ele>286.33333333333337</ele><time>2026-05-01T09:10:22.207Z</time></trkpt><trkpt lat="43.5889633" lon="11.61186"><ele>286.6666666666667</ele><time>2026-05-01T09:10:23.208Z</time></trkpt><trkpt lat="43.589025" lon="11.6119517"><ele>287.0</ele><time>2026-05-01T09:10:24.205Z</time></trkpt><trkpt lat="43.58908" lon="11.6120467"><ele>287.0</ele><time>2026-05-01T09:10:25.207Z</time></trkpt><trkpt lat="43.5891317" lon="11.6121533"><ele>287.0</ele><time>2026-05-01T09:10:26.207Z</time></trkpt><trkpt lat="43.589165" lon="11.61226"><ele>287.0</ele><time>2026-05-01T09:10:27.207Z</time></trkpt><trkpt lat="43.5891917" lon="11.6123683"><ele>287.0</ele><time>2026-05-01T09:10:28.208Z</time></trkpt><trkpt lat="43.5892017" lon="11.6124633"><ele>287.0</ele><time>2026-05-01T09:10:29.207Z</time></trkpt><trkpt lat="43.589185" lon="11.6125483"><ele>287.0</ele><time>2026-05-01T09:10:30.208Z</time></trkpt><trkpt lat="43.5891067" lon="11.6126633"><ele>287.0</ele><time>2026-05-01T09:10:32.206Z</time></trkpt><trkpt lat="43.5889883" lon="11.6127083"><ele>287.0</ele><time>2026-05-01T09:10:34.207Z</time></trkpt><trkpt lat="43.5889167" lon="11.6127167"><ele>287.0</ele><time>2026-05-01T09:10:35.209Z</time></trkpt><trkpt lat="43.5888467" lon="11.6127283"><ele>287.0</ele><time>2026-05-01T09:10:36.209Z</time></trkpt><trkpt lat="43.58878" lon="11.612735"><ele>287.0</ele><time>2026-05-01T09:10:37.207Z</time></trkpt><trkpt lat="43.5887117" lon="11.6127417"><ele>287.0</ele><time>2026-05-01T09:10:38.208Z</time></trkpt><trkpt lat="43.5885967" lon="11.61276"><ele>286.4</ele><time>2026-05-01T09:10:40.207Z</time></trkpt><trkpt lat="43.5884883" lon="11.6127783"><ele>285.79999999999995</ele><time>2026-05-01T09:10:42.21Z</time></trkpt><trkpt lat="43.5883883" lon="11.6128017"><ele>285.2</ele><time>2026-05-01T09:10:44.207Z</time></trkpt><trkpt lat="43.588285" lon="11.6128467"><ele>284.59999999999997</ele><time>2026-05-01T09:10:46.208Z</time></trkpt><trkpt lat="43.588195" lon="11.6129283"><ele>284.0</ele><time>2026-05-01T09:10:48.207Z</time></trkpt><trkpt lat="43.5881217" lon="11.6130333"><ele>285.8</ele><time>2026-05-01T09:10:50.207Z</time></trkpt><trkpt lat="43.58807" lon="11.61316"><ele>287.59999999999997</ele><time>2026-05-01T09:10:52.208Z</time></trkpt><trkpt lat="43.5880317" lon="11.6132983"><ele>289.4</ele><time>2026-05-01T09:10:54.207Z</time></trkpt><trkpt lat="43.5880033" lon="11.6134233"><ele>291.2</ele><time>2026-05-01T09:10:56.208Z</time></trkpt><trkpt lat="43.5879683" lon="11.6135433"><ele>293.0</ele><time>2026-05-01T09:10:58.206Z</time></trkpt><trkpt lat="43.587935" lon="11.61366"><ele>293.5</ele><time>2026-05-01T09:11:00.209Z</time></trkpt><trkpt lat="43.5879" lon="11.613775"><ele>294.0</ele><time>2026-05-01T09:11:02.209Z</time></trkpt><trkpt lat="43.5878717" lon="11.6138783"><ele>294.5</ele><time>2026-05-01T09:11:04.207Z</time></trkpt><trkpt lat="43.58784" lon="11.6139733"><ele>295.0</ele><time>2026-05-01T09:11:06.206Z</time></trkpt><trkpt lat="43.5878133" lon="11.6140617"><ele>295.5</ele><time>2026-05-01T09:11:08.206Z</time></trkpt><trkpt lat="43.58779" lon="11.6141917"><ele>296.0</ele><time>2026-05-01T09:11:11.205Z</time></trkpt><trkpt lat="43.58778" lon="11.6142867"><ele>296.0</ele><time>2026-05-01T09:11:13.204Z</time></trkpt><trkpt lat="43.5877817" lon="11.6143967"><ele>296.0</ele><time>2026-05-01T09:11:15.204Z</time></trkpt><trkpt lat="43.5877717" lon="11.61452"><ele>296.0</ele><time>2026-05-01T09:11:17.205Z</time></trkpt><trkpt lat="43.587765" lon="11.6146333"><ele>296.0</ele><time>2026-05-01T09:11:19.204Z</time></trkpt><trkpt lat="43.5877567" lon="11.6147483"><ele>296.0</ele><time>2026-05-01T09:11:21.207Z</time></trkpt><trkpt lat="43.58775" lon="11.6148767"><ele>296.0</ele><time>2026-05-01T09:11:23.208Z</time></trkpt><trkpt lat="43.5877533" lon="11.614995"><ele>296.0</ele><time>2026-05-01T09:11:25.207Z</time></trkpt><trkpt lat="43.58775" lon="11.6151217"><ele>296.0</ele><time>2026-05-01T09:11:27.206Z</time></trkpt><trkpt lat="43.58775" lon="11.61525"><ele>296.0</ele><time>2026-05-01T09:11:29.207Z</time></trkpt><trkpt lat="43.5877467" lon="11.615375"><ele>296.0</ele><time>2026-05-01T09:11:31.207Z</time></trkpt><trkpt lat="43.587745" lon="11.6155083"><ele>296.0</ele><time>2026-05-01T09:11:33.206Z</time></trkpt><trkpt lat="43.5877417" lon="11.6156417"><ele>296.0</ele><time>2026-05-01T09:11:35.207Z</time></trkpt><trkpt lat="43.5877417" lon="11.6157683"><ele>296.0</ele><time>2026-05-01T09:11:37.206Z</time></trkpt><trkpt lat="43.587745" lon="11.6158883"><ele>296.0</ele><time>2026-05-01T09:11:39.205Z</time></trkpt><trkpt lat="43.5877533" lon="11.6160083"><ele>296.0</ele><time>2026-05-01T09:11:41.207Z</time></trkpt><trkpt lat="43.5877733" lon="11.61613"><ele>296.0</ele><time>2026-05-01T09:11:43.207Z</time></trkpt><trkpt lat="43.5878033" lon="11.616265"><ele>296.0</ele><time>2026-05-01T09:11:45.208Z</time></trkpt><trkpt lat="43.5878333" lon="11.6164117"><ele>296.0</ele><time>2026-05-01T09:11:47.207Z</time></trkpt><trkpt lat="43.5878667" lon="11.6165567"><ele>296.0</ele><time>2026-05-01T09:11:49.208Z</time></trkpt><trkpt lat="43.5878967" lon="11.616695"><ele>296.0</ele><time>2026-05-01T09:11:51.207Z</time></trkpt><trkpt lat="43.5879233" lon="11.61684"><ele>296.0</ele><time>2026-05-01T09:11:53.208Z</time></trkpt><trkpt lat="43.5879533" lon="11.6169733"><ele>298.0</ele><time>2026-05-01T09:11:55.205Z</time></trkpt><trkpt lat="43.5879817" lon="11.6171117"><ele>300.0</ele><time>2026-05-01T09:11:57.207Z</time></trkpt><trkpt lat="43.58801" lon="11.6172433"><ele>302.0</ele><time>2026-05-01T09:11:59.208Z</time></trkpt><trkpt lat="43.5880333" lon="11.6173633"><ele>304.0</ele><time>2026-05-01T09:12:01.209Z</time></trkpt><trkpt lat="43.5880567" lon="11.6174817"><ele>306.0</ele><time>2026-05-01T09:12:03.209Z</time></trkpt><trkpt lat="43.588075" lon="11.6176"><ele>306.0</ele><time>2026-05-01T09:12:05.207Z</time></trkpt><trkpt lat="43.588085" lon="11.6177167"><ele>306.0</ele><time>2026-05-01T09:12:07.207Z</time></trkpt><trkpt lat="43.5880817" lon="11.61782"><ele>306.0</ele><time>2026-05-01T09:12:09.207Z</time></trkpt><trkpt lat="43.588075" lon="11.6179217"><ele>306.0</ele><time>2026-05-01T09:12:11.207Z</time></trkpt><trkpt lat="43.5880633" lon="11.6180267"><ele>306.0</ele><time>2026-05-01T09:12:13.207Z</time></trkpt><trkpt lat="43.5880383" lon="11.61814"><ele>306.0</ele><time>2026-05-01T09:12:15.208Z</time></trkpt><trkpt lat="43.5879983" lon="11.6182433"><ele>306.3333333333333</ele><time>2026-05-01T09:12:17.21Z</time></trkpt><trkpt lat="43.5879533" lon="11.6183317"><ele>306.6666666666667</ele><time>2026-05-01T09:12:19.208Z</time></trkpt><trkpt lat="43.5879067" lon="11.6184267"><ele>307.0</ele><time>2026-05-01T09:12:21.207Z</time></trkpt><trkpt lat="43.58786" lon="11.6185167"><ele>307.33333333333337</ele><time>2026-05-01T09:12:23.207Z</time></trkpt><trkpt lat="43.587815" lon="11.6186067"><ele>307.6666666666667</ele><time>2026-05-01T09:12:25.207Z</time></trkpt><trkpt lat="43.58777" lon="11.61869"><ele>308.0</ele><time>2026-05-01T09:12:27.207Z</time></trkpt><trkpt lat="43.58773" lon="11.61878"><ele>308.0</ele><time>2026-05-01T09:12:29.207Z</time></trkpt><trkpt lat="43.5876817" lon="11.61888"><ele>308.0</ele><time>2026-05-01T09:12:31.207Z</time></trkpt><trkpt lat="43.5876333" lon="11.6189783"><ele>308.0</ele><time>2026-05-01T09:12:33.206Z</time></trkpt><trkpt lat="43.5875917" lon="11.6190833"><ele>308.0</ele><time>2026-05-01T09:12:35.208Z</time></trkpt><trkpt lat="43.5875633" lon="11.6192033"><ele>308.0</ele><time>2026-05-01T09:12:37.207Z</time></trkpt><trkpt lat="43.5875483" lon="11.6193233"><ele>308.0</ele><time>2026-05-01T09:12:39.208Z</time></trkpt><trkpt lat="43.5875417" lon="11.61946"><ele>308.4</ele><time>2026-05-01T09:12:41.207Z</time></trkpt><trkpt lat="43.58754" lon="11.6196017"><ele>308.8</ele><time>2026-05-01T09:12:43.207Z</time></trkpt><trkpt lat="43.5875333" lon="11.6197467"><ele>309.2</ele><time>2026-05-01T09:12:45.207Z</time></trkpt><trkpt lat="43.5875217" lon="11.6198967"><ele>309.6</ele><time>2026-05-01T09:12:47.206Z</time></trkpt><trkpt lat="43.5875017" lon="11.6200483"><ele>310.0</ele><time>2026-05-01T09:12:49.209Z</time></trkpt><trkpt lat="43.5874767" lon="11.6201933"><ele>310.2</ele><time>2026-05-01T09:12:51.208Z</time></trkpt><trkpt lat="43.587445" lon="11.6203467"><ele>310.4</ele><time>2026-05-01T09:12:53.207Z</time></trkpt><trkpt lat="43.5874117" lon="11.620485"><ele>310.6</ele><time>2026-05-01T09:12:55.207Z</time></trkpt><trkpt lat="43.5873817" lon="11.6206133"><ele>310.8</ele><time>2026-05-01T09:12:57.209Z</time></trkpt><trkpt lat="43.5873417" lon="11.6207433"><ele>311.0</ele><time>2026-05-01T09:12:59.209Z</time></trkpt><trkpt lat="43.58731" lon="11.62088"><ele>311.0</ele><time>2026-05-01T09:13:01.209Z</time></trkpt><trkpt lat="43.5872783" lon="11.6210183"><ele>311.0</ele><time>2026-05-01T09:13:03.209Z</time></trkpt><trkpt lat="43.5872433" lon="11.6211567"><ele>311.0</ele><time>2026-05-01T09:13:05.21Z</time></trkpt><trkpt lat="43.587215" lon="11.6213117"><ele>311.0</ele><time>2026-05-01T09:13:07.207Z</time></trkpt><trkpt lat="43.58719" lon="11.621475"><ele>311.0</ele><time>2026-05-01T09:13:09.209Z</time></trkpt><trkpt lat="43.587175" lon="11.6216383"><ele>311.0</ele><time>2026-05-01T09:13:11.207Z</time></trkpt><trkpt lat="43.5871583" lon="11.6218"><ele>311.0</ele><time>2026-05-01T09:13:13.208Z</time></trkpt><trkpt lat="43.5871533" lon="11.6219633"><ele>311.0</ele><time>2026-05-01T09:13:15.207Z</time></trkpt><trkpt lat="43.5871433" lon="11.62212"><ele>311.0</ele><time>2026-05-01T09:13:17.208Z</time></trkpt><trkpt lat="43.587105" lon="11.622275"><ele>311.0</ele><time>2026-05-01T09:13:19.207Z</time></trkpt><trkpt lat="43.58707" lon="11.6223483"><ele>311.0</ele><time>2026-05-01T09:13:20.207Z</time></trkpt><trkpt lat="43.58703" lon="11.6224183"><ele>311.0</ele><time>2026-05-01T09:13:21.206Z</time></trkpt><trkpt lat="43.5869767" lon="11.6225717"><ele>311.0</ele><time>2026-05-01T09:13:23.206Z</time></trkpt><trkpt lat="43.58701" lon="11.6227217"><ele>311.0</ele><time>2026-05-01T09:13:25.205Z</time></trkpt><trkpt lat="43.5870983" lon="11.6228417"><ele>311.0</ele><time>2026-05-01T09:13:27.205Z</time></trkpt><trkpt lat="43.5871733" lon="11.62298"><ele>311.0</ele><time>2026-05-01T09:13:29.207Z</time></trkpt><trkpt lat="43.5871983" lon="11.6230617"><ele>311.0</ele><time>2026-05-01T09:13:30.208Z</time></trkpt><trkpt lat="43.587225" lon="11.6231417"><ele>311.0</ele><time>2026-05-01T09:13:31.21Z</time></trkpt><trkpt lat="43.5872517" lon="11.6232217"><ele>311.0</ele><time>2026-05-01T09:13:32.208Z</time></trkpt><trkpt lat="43.5872767" lon="11.623305"><ele>311.0</ele><time>2026-05-01T09:13:33.208Z</time></trkpt><trkpt lat="43.587315" lon="11.6234317"><ele>311.0</ele><time>2026-05-01T09:13:35.207Z</time></trkpt><trkpt lat="43.58734" lon="11.6235317"><ele>311.0</ele><time>2026-05-01T09:13:37.208Z</time></trkpt><trkpt lat="43.5873667" lon="11.6236467"><ele>311.0</ele><time>2026-05-01T09:13:39.208Z</time></trkpt><trkpt lat="43.587385" lon="11.6237717"><ele>311.0</ele><time>2026-05-01T09:13:41.207Z</time></trkpt><trkpt lat="43.587405" lon="11.6239167"><ele>311.0</ele><time>2026-05-01T09:13:43.208Z</time></trkpt><trkpt lat="43.5874233" lon="11.62406"><ele>311.25</ele><time>2026-05-01T09:13:45.208Z</time></trkpt><trkpt lat="43.587445" lon="11.6242033"><ele>311.5</ele><time>2026-05-01T09:13:47.209Z</time></trkpt><trkpt lat="43.5874683" lon="11.6243533"><ele>311.75</ele><time>2026-05-01T09:13:49.209Z</time></trkpt><trkpt lat="43.587495" lon="11.624515"><ele>312.0</ele><time>2026-05-01T09:13:51.207Z</time></trkpt><trkpt lat="43.587525" lon="11.6246667"><ele>312.0</ele><time>2026-05-01T09:13:53.208Z</time></trkpt><trkpt lat="43.5875633" lon="11.624805"><ele>312.0</ele><time>2026-05-01T09:13:55.208Z</time></trkpt><trkpt lat="43.5876117" lon="11.62494"><ele>312.0</ele><time>2026-05-01T09:13:57.208Z</time></trkpt><trkpt lat="43.5876733" lon="11.6250617"><ele>312.0</ele><time>2026-05-01T09:13:59.207Z</time></trkpt><trkpt lat="43.5877383" lon="11.6251817"><ele>312.0</ele><time>2026-05-01T09:14:01.208Z</time></trkpt><trkpt lat="43.5878" lon="11.625305"><ele>313.4</ele><time>2026-05-01T09:14:03.207Z</time></trkpt><trkpt lat="43.5878633" lon="11.62542"><ele>314.79999999999995</ele><time>2026-05-01T09:14:05.211Z</time></trkpt><trkpt lat="43.5879217" lon="11.6255333"><ele>316.2</ele><time>2026-05-01T09:14:07.209Z</time></trkpt><trkpt lat="43.5879783" lon="11.6256433"><ele>317.59999999999997</ele><time>2026-05-01T09:14:09.207Z</time></trkpt><trkpt lat="43.58803" lon="11.6257383"><ele>319.0</ele><time>2026-05-01T09:14:11.208Z</time></trkpt><trkpt lat="43.5880767" lon="11.6258233"><ele>319.0</ele><time>2026-05-01T09:14:13.208Z</time></trkpt><trkpt lat="43.5881217" lon="11.625925"><ele>319.0</ele><time>2026-05-01T09:14:15.208Z</time></trkpt><trkpt lat="43.58815" lon="11.6260367"><ele>319.0</ele><time>2026-05-01T09:14:17.207Z</time></trkpt><trkpt lat="43.5881533" lon="11.6261567"><ele>319.0</ele><time>2026-05-01T09:14:19.207Z</time></trkpt><trkpt lat="43.5881433" lon="11.6262933"><ele>319.0</ele><time>2026-05-01T09:14:21.207Z</time></trkpt><trkpt lat="43.5881167" lon="11.626405"><ele>319.0</ele><time>2026-05-01T09:14:23.208Z</time></trkpt><trkpt lat="43.588085" lon="11.6264917"><ele>319.16666666666663</ele><time>2026-05-01T09:14:25.207Z</time></trkpt><trkpt lat="43.5880333" lon="11.626575"><ele>319.3333333333333</ele><time>2026-05-01T09:14:28.206Z</time></trkpt><trkpt lat="43.58798" lon="11.6266783"><ele>319.5</ele><time>2026-05-01T09:16:38.207Z</time></trkpt><trkpt lat="43.587945" lon="11.6267733"><ele>319.6666666666667</ele><time>2026-05-01T09:16:42.207Z</time></trkpt><trkpt lat="43.5879317" lon="11.6268933"><ele>319.83333333333337</ele><time>2026-05-01T09:16:45.207Z</time></trkpt><trkpt lat="43.5879383" lon="11.6269883"><ele>320.0</ele><time>2026-05-01T09:16:47.207Z</time></trkpt><trkpt lat="43.5879767" lon="11.6270833"><ele>320.2</ele><time>2026-05-01T09:16:49.206Z</time></trkpt><trkpt lat="43.5880233" lon="11.62718"><ele>320.4</ele><time>2026-05-01T09:16:51.204Z</time></trkpt><trkpt lat="43.5880683" lon="11.6272783"><ele>320.6</ele><time>2026-05-01T09:16:53.204Z</time></trkpt><trkpt lat="43.5881" lon="11.62739"><ele>320.8</ele><time>2026-05-01T09:16:55.21Z</time></trkpt><trkpt lat="43.5881067" lon="11.627525"><ele>321.0</ele><time>2026-05-01T09:16:57.207Z</time></trkpt><trkpt lat="43.5880967" lon="11.6276683"><ele>321.0</ele><time>2026-05-01T09:16:59.208Z</time></trkpt><trkpt lat="43.5880717" lon="11.62781"><ele>321.0</ele><time>2026-05-01T09:17:01.209Z</time></trkpt><trkpt lat="43.5880533" lon="11.6278933"><ele>321.0</ele><time>2026-05-01T09:17:02.209Z</time></trkpt><trkpt lat="43.588035" lon="11.6279767"><ele>321.0</ele><time>2026-05-01T09:17:03.208Z</time></trkpt><trkpt lat="43.5879983" lon="11.6281417"><ele>321.0</ele><time>2026-05-01T09:17:05.207Z</time></trkpt><trkpt lat="43.5879783" lon="11.62824"><ele>321.0</ele><time>2026-05-01T09:17:06.209Z</time></trkpt><trkpt lat="43.58796" lon="11.6283367"><ele>321.0</ele><time>2026-05-01T09:17:07.208Z</time></trkpt><trkpt lat="43.5879433" lon="11.62844"><ele>321.0</ele><time>2026-05-01T09:17:08.208Z</time></trkpt><trkpt lat="43.5879317" lon="11.6285383"><ele>321.0</ele><time>2026-05-01T09:17:09.208Z</time></trkpt><trkpt lat="43.5879333" lon="11.6286417"><ele>321.0</ele><time>2026-05-01T09:17:10.207Z</time></trkpt><trkpt lat="43.5879467" lon="11.6287517"><ele>321.0</ele><time>2026-05-01T09:17:11.21Z</time></trkpt><trkpt lat="43.5879783" lon="11.6288567"><ele>321.0</ele><time>2026-05-01T09:17:12.209Z</time></trkpt><trkpt lat="43.5880267" lon="11.6289633"><ele>318.8</ele><time>2026-05-01T09:17:13.21Z</time></trkpt><trkpt lat="43.5880933" lon="11.629055"><ele>316.6</ele><time>2026-05-01T09:17:14.21Z</time></trkpt><trkpt lat="43.5881717" lon="11.629125"><ele>314.4</ele><time>2026-05-01T09:17:15.208Z</time></trkpt><trkpt lat="43.5882633" lon="11.6291867"><ele>312.2</ele><time>2026-05-01T09:17:16.21Z</time></trkpt><trkpt lat="43.5883633" lon="11.62923"><ele>310.0</ele><time>2026-05-01T09:17:17.211Z</time></trkpt><trkpt lat="43.5884667" lon="11.629275"><ele>310.0</ele><time>2026-05-01T09:17:18.21Z</time></trkpt><trkpt lat="43.5885733" lon="11.6293217"><ele>310.0</ele><time>2026-05-01T09:17:19.209Z</time></trkpt><trkpt lat="43.588685" lon="11.62938"><ele>310.0</ele><time>2026-05-01T09:17:20.208Z</time></trkpt><trkpt lat="43.5888" lon="11.6294417"><ele>310.0</ele><time>2026-05-01T09:17:21.209Z</time></trkpt><trkpt lat="43.5889183" lon="11.6295017"><ele>307.0</ele><time>2026-05-01T09:17:22.208Z</time></trkpt><trkpt lat="43.5890383" lon="11.6295633"><ele>304.0</ele><time>2026-05-01T09:17:23.209Z</time></trkpt><trkpt lat="43.5891617" lon="11.6296233"><ele>301.0</ele><time>2026-05-01T09:17:24.21Z</time></trkpt><trkpt lat="43.5892867" lon="11.62968"><ele>298.0</ele><time>2026-05-01T09:17:25.208Z</time></trkpt><trkpt lat="43.589415" lon="11.6297267"><ele>299.5</ele><time>2026-05-01T09:17:26.208Z</time></trkpt><trkpt lat="43.5895467" lon="11.6297683"><ele>301.0</ele><time>2026-05-01T09:17:27.21Z</time></trkpt><trkpt lat="43.5896767" lon="11.6298167"><ele>302.5</ele><time>2026-05-01T09:17:28.212Z</time></trkpt><trkpt lat="43.5898033" lon="11.6298683"><ele>304.0</ele><time>2026-05-01T09:17:29.208Z</time></trkpt><trkpt lat="43.5899183" lon="11.6299383"><ele>304.0</ele><time>2026-05-01T09:17:30.209Z</time></trkpt><trkpt lat="43.59003" lon="11.6300333"><ele>304.0</ele><time>2026-05-01T09:17:31.208Z</time></trkpt><trkpt lat="43.590125" lon="11.6301417"><ele>304.0</ele><time>2026-05-01T09:17:32.209Z</time></trkpt><trkpt lat="43.5902" lon="11.6302667"><ele>304.0</ele><time>2026-05-01T09:17:33.211Z</time></trkpt><trkpt lat="43.59026" lon="11.63041"><ele>301.2</ele><time>2026-05-01T09:17:34.207Z</time></trkpt><trkpt lat="43.5903017" lon="11.6305633"><ele>298.4</ele><time>2026-05-01T09:17:35.207Z</time></trkpt><trkpt lat="43.5903217" lon="11.6307083"><ele>295.6</ele><time>2026-05-01T09:17:36.206Z</time></trkpt><trkpt lat="43.590335" lon="11.6308533"><ele>292.8</ele><time>2026-05-01T09:17:37.207Z</time></trkpt><trkpt lat="43.5903367" lon="11.6309917"><ele>290.0</ele><time>2026-05-01T09:17:38.206Z</time></trkpt><trkpt lat="43.59033" lon="11.63112"><ele>290.33333333333337</ele><time>2026-05-01T09:17:39.208Z</time></trkpt><trkpt lat="43.5903217" lon="11.631245"><ele>290.6666666666667</ele><time>2026-05-01T09:17:40.209Z</time></trkpt><trkpt lat="43.5903117" lon="11.6313583"><ele>291.0</ele><time>2026-05-01T09:17:41.211Z</time></trkpt><trkpt lat="43.5903033" lon="11.63147"><ele>291.3333333333333</ele><time>2026-05-01T09:17:42.208Z</time></trkpt><trkpt lat="43.590295" lon="11.6315667"><ele>291.66666666666663</ele><time>2026-05-01T09:17:43.208Z</time></trkpt><trkpt lat="43.590285" lon="11.63166"><ele>292.0</ele><time>2026-05-01T09:17:44.212Z</time></trkpt><trkpt lat="43.59027" lon="11.631825"><ele>292.0</ele><time>2026-05-01T09:17:46.207Z</time></trkpt><trkpt lat="43.5902233" lon="11.6319617"><ele>292.0</ele><time>2026-05-01T09:17:48.211Z</time></trkpt><trkpt lat="43.5901583" lon="11.6320783"><ele>292.0</ele><time>2026-05-01T09:17:50.209Z</time></trkpt><trkpt lat="43.59008" lon="11.6321817"><ele>292.0</ele><time>2026-05-01T09:17:52.21Z</time></trkpt><trkpt lat="43.5899883" lon="11.6322667"><ele>292.0</ele><time>2026-05-01T09:17:54.208Z</time></trkpt><trkpt lat="43.5898917" lon="11.6323467"><ele>294.75</ele><time>2026-05-01T09:17:56.209Z</time></trkpt><trkpt lat="43.5898017" lon="11.6324383"><ele>297.5</ele><time>2026-05-01T09:17:58.207Z</time></trkpt><trkpt lat="43.5897033" lon="11.6325033"><ele>300.25</ele><time>2026-05-01T09:18:00.208Z</time></trkpt><trkpt lat="43.5895917" lon="11.63254"><ele>303.0</ele><time>2026-05-01T09:18:02.21Z</time></trkpt><trkpt lat="43.5894767" lon="11.6325833"><ele>303.0</ele><time>2026-05-01T09:18:04.207Z</time></trkpt><trkpt lat="43.5893567" lon="11.6326233"><ele>303.0</ele><time>2026-05-01T09:18:06.21Z</time></trkpt><trkpt lat="43.58924" lon="11.63263"><ele>303.0</ele><time>2026-05-01T09:18:08.21Z</time></trkpt><trkpt lat="43.5891367" lon="11.632595"><ele>303.0</ele><time>2026-05-01T09:18:10.208Z</time></trkpt><trkpt lat="43.5890467" lon="11.6325533"><ele>303.0</ele><time>2026-05-01T09:18:12.207Z</time></trkpt><trkpt lat="43.588955" lon="11.6325283"><ele>303.0</ele><time>2026-05-01T09:18:14.208Z</time></trkpt><trkpt lat="43.5888383" lon="11.6325167"><ele>303.0</ele><time>2026-05-01T09:18:16.207Z</time></trkpt><trkpt lat="43.58873" lon="11.6325233"><ele>303.0</ele><time>2026-05-01T09:18:18.208Z</time></trkpt><trkpt lat="43.5886317" lon="11.6325417"><ele>303.0</ele><time>2026-05-01T09:18:20.207Z</time></trkpt><trkpt lat="43.588525" lon="11.6325633"><ele>303.0</ele><time>2026-05-01T09:18:22.208Z</time></trkpt><trkpt lat="43.5884217" lon="11.63259"><ele>302.4</ele><time>2026-05-01T09:18:24.209Z</time></trkpt><trkpt lat="43.5883117" lon="11.6326133"><ele>301.8</ele><time>2026-05-01T09:18:26.208Z</time></trkpt><trkpt lat="43.5882017" lon="11.63264"><ele>301.2</ele><time>2026-05-01T09:18:28.208Z</time></trkpt><trkpt lat="43.5880967" lon="11.632665"><ele>300.6</ele><time>2026-05-01T09:18:30.209Z</time></trkpt><trkpt lat="43.5879967" lon="11.63269"><ele>300.0</ele><time>2026-05-01T09:18:32.209Z</time></trkpt><trkpt lat="43.5879" lon="11.6327183"><ele>300.8</ele><time>2026-05-01T09:18:34.207Z</time></trkpt><trkpt lat="43.5877983" lon="11.63274"><ele>301.6</ele><time>2026-05-01T09:18:36.208Z</time></trkpt><trkpt lat="43.5876967" lon="11.6327633"><ele>302.4</ele><time>2026-05-01T09:18:38.207Z</time></trkpt><trkpt lat="43.587605" lon="11.6327883"><ele>303.2</ele><time>2026-05-01T09:18:40.207Z</time></trkpt><trkpt lat="43.5875317" lon="11.632825"><ele>304.0</ele><time>2026-05-01T09:18:42.207Z</time></trkpt><trkpt lat="43.587435" lon="11.6328783"><ele>306.4</ele><time>2026-05-01T09:18:44.207Z</time></trkpt><trkpt lat="43.5873467" lon="11.63294"><ele>308.79999999999995</ele><time>2026-05-01T09:18:46.207Z</time></trkpt><trkpt lat="43.5872633" lon="11.6330183"><ele>311.20000000000005</ele><time>2026-05-01T09:18:48.208Z</time></trkpt><trkpt lat="43.587185" lon="11.633105"><ele>313.6</ele><time>2026-05-01T09:18:50.209Z</time></trkpt><trkpt lat="43.587115" lon="11.6332"><ele>316.0</ele><time>2026-05-01T09:18:52.207Z</time></trkpt><trkpt lat="43.587045" lon="11.6332983"><ele>315.66666666666663</ele><time>2026-05-01T09:18:54.209Z</time></trkpt><trkpt lat="43.5869917" lon="11.633395"><ele>315.3333333333333</ele><time>2026-05-01T09:18:56.207Z</time></trkpt><trkpt lat="43.5869517" lon="11.6334967"><ele>315.0</ele><time>2026-05-01T09:18:58.206Z</time></trkpt><trkpt lat="43.5869167" lon="11.63361"><ele>314.6666666666667</ele><time>2026-05-01T09:19:00.208Z</time></trkpt><trkpt lat="43.5868917" lon="11.633725"><ele>314.33333333333337</ele><time>2026-05-01T09:19:02.208Z</time></trkpt><trkpt lat="43.5868667" lon="11.6338383"><ele>314.0</ele><time>2026-05-01T09:19:04.207Z</time></trkpt><trkpt lat="43.5868417" lon="11.6339383"><ele>315.0</ele><time>2026-05-01T09:19:06.207Z</time></trkpt><trkpt lat="43.586815" lon="11.6340433"><ele>316.0</ele><time>2026-05-01T09:19:08.209Z</time></trkpt><trkpt lat="43.586785" lon="11.6341383"><ele>317.0</ele><time>2026-05-01T09:19:10.207Z</time></trkpt><trkpt lat="43.586735" lon="11.63423"><ele>318.0</ele><time>2026-05-01T09:19:12.208Z</time></trkpt><trkpt lat="43.5866633" lon="11.6343067"><ele>319.0</ele><time>2026-05-01T09:19:14.208Z</time></trkpt><trkpt lat="43.5865733" lon="11.6343683"><ele>320.0</ele><time>2026-05-01T09:19:16.208Z</time></trkpt><trkpt lat="43.5864733" lon="11.63441"><ele>320.0</ele><time>2026-05-01T09:19:18.208Z</time></trkpt><trkpt lat="43.58636" lon="11.6344267"><ele>320.0</ele><time>2026-05-01T09:19:20.208Z</time></trkpt><trkpt lat="43.586245" lon="11.6344067"><ele>320.0</ele><time>2026-05-01T09:19:22.207Z</time></trkpt><trkpt lat="43.586125" lon="11.6343683"><ele>320.0</ele><time>2026-05-01T09:19:24.208Z</time></trkpt><trkpt lat="43.58606" lon="11.6343467"><ele>320.0</ele><time>2026-05-01T09:19:25.208Z</time></trkpt><trkpt lat="43.585995" lon="11.63432"><ele>320.1428571428571</ele><time>2026-05-01T09:19:26.207Z</time></trkpt><trkpt lat="43.5859333" lon="11.634295"><ele>320.2857142857143</ele><time>2026-05-01T09:19:27.208Z</time></trkpt><trkpt lat="43.5858633" lon="11.6342683"><ele>320.42857142857144</ele><time>2026-05-01T09:19:28.208Z</time></trkpt><trkpt lat="43.5857917" lon="11.6342417"><ele>320.57142857142856</ele><time>2026-05-01T09:19:29.208Z</time></trkpt><trkpt lat="43.58572" lon="11.6342167"><ele>320.7142857142857</ele><time>2026-05-01T09:19:30.208Z</time></trkpt><trkpt lat="43.5856467" lon="11.6341883"><ele>320.85714285714283</ele><time>2026-05-01T09:19:31.207Z</time></trkpt><trkpt lat="43.5855717" lon="11.63416"><ele>321.0</ele><time>2026-05-01T09:19:32.207Z</time></trkpt><trkpt lat="43.5854967" lon="11.6341317"><ele>321.0</ele><time>2026-05-01T09:19:33.208Z</time></trkpt><trkpt lat="43.5854183" lon="11.6341033"><ele>321.0</ele><time>2026-05-01T09:19:34.207Z</time></trkpt><trkpt lat="43.5853367" lon="11.6340733"><ele>321.0</ele><time>2026-05-01T09:19:35.207Z</time></trkpt><trkpt lat="43.5852567" lon="11.6340417"><ele>321.0</ele><time>2026-05-01T09:19:36.21Z</time></trkpt><trkpt lat="43.5851733" lon="11.6340067"><ele>321.0</ele><time>2026-05-01T09:19:37.206Z</time></trkpt><trkpt lat="43.585085" lon="11.6339733"><ele>321.0</ele><time>2026-05-01T09:19:38.208Z</time></trkpt><trkpt lat="43.584995" lon="11.6339417"><ele>321.20000000000005</ele><time>2026-05-01T09:19:39.208Z</time></trkpt><trkpt lat="43.5849017" lon="11.6339083"><ele>321.40000000000003</ele><time>2026-05-01T09:19:40.207Z</time></trkpt><trkpt lat="43.5848133" lon="11.6338733"><ele>321.6</ele><time>2026-05-01T09:19:41.209Z</time></trkpt><trkpt lat="43.584725" lon="11.6338383"><ele>321.8</ele><time>2026-05-01T09:19:42.207Z</time></trkpt><trkpt lat="43.58463" lon="11.6338017"><ele>322.0</ele><time>2026-05-01T09:19:43.208Z</time></trkpt><trkpt lat="43.584535" lon="11.633765"><ele>323.20000000000005</ele><time>2026-05-01T09:19:44.208Z</time></trkpt><trkpt lat="43.58444" lon="11.6337267"><ele>324.4</ele><time>2026-05-01T09:19:45.207Z</time></trkpt><trkpt lat="43.5843417" lon="11.6336883"><ele>325.6</ele><time>2026-05-01T09:19:46.207Z</time></trkpt><trkpt lat="43.5842417" lon="11.6336467"><ele>326.79999999999995</ele><time>2026-05-01T09:19:47.207Z</time></trkpt><trkpt lat="43.584135" lon="11.6336067"><ele>328.0</ele><time>2026-05-01T09:19:48.207Z</time></trkpt><trkpt lat="43.5840267" lon="11.6335683"><ele>324.59999999999997</ele><time>2026-05-01T09:19:49.209Z</time></trkpt><trkpt lat="43.5839283" lon="11.6335317"><ele>321.2</ele><time>2026-05-01T09:19:50.208Z</time></trkpt><trkpt lat="43.5838217" lon="11.6335017"><ele>317.8</ele><time>2026-05-01T09:19:51.206Z</time></trkpt><trkpt lat="43.5837183" lon="11.6334717"><ele>314.4</ele><time>2026-05-01T09:19:52.207Z</time></trkpt><trkpt lat="43.583615" lon="11.6334533"><ele>311.0</ele><time>2026-05-01T09:19:53.207Z</time></trkpt><trkpt lat="43.5835083" lon="11.63344"><ele>310.8</ele><time>2026-05-01T09:19:54.207Z</time></trkpt><trkpt lat="43.58341" lon="11.6334217"><ele>310.6</ele><time>2026-05-01T09:19:55.208Z</time></trkpt><trkpt lat="43.5833117" lon="11.6334033"><ele>310.4</ele><time>2026-05-01T09:19:56.208Z</time></trkpt><trkpt lat="43.5832167" lon="11.63339"><ele>310.2</ele><time>2026-05-01T09:19:57.206Z</time></trkpt><trkpt lat="43.5831283" lon="11.63338"><ele>310.0</ele><time>2026-05-01T09:19:58.207Z</time></trkpt><trkpt lat="43.5830417" lon="11.6333733"><ele>310.0</ele><time>2026-05-01T09:19:59.207Z</time></trkpt><trkpt lat="43.5829583" lon="11.6333633"><ele>310.0</ele><time>2026-05-01T09:20:00.209Z</time></trkpt><trkpt lat="43.5828733" lon="11.6333567"><ele>310.0</ele><time>2026-05-01T09:20:01.208Z</time></trkpt><trkpt lat="43.5827867" lon="11.6333517"><ele>310.0</ele><time>2026-05-01T09:20:02.208Z</time></trkpt><trkpt lat="43.5827017" lon="11.63335"><ele>310.0</ele><time>2026-05-01T09:20:03.207Z</time></trkpt><trkpt lat="43.5826183" lon="11.633355"><ele>310.0</ele><time>2026-05-01T09:20:04.208Z</time></trkpt><trkpt lat="43.5825317" lon="11.6333683"><ele>310.3333333333333</ele><time>2026-05-01T09:20:05.207Z</time></trkpt><trkpt lat="43.5824517" lon="11.63339"><ele>310.66666666666663</ele><time>2026-05-01T09:20:06.207Z</time></trkpt><trkpt lat="43.5823767" lon="11.63342"><ele>311.0</ele><time>2026-05-01T09:20:07.207Z</time></trkpt><trkpt lat="43.582305" lon="11.6334633"><ele>311.3333333333333</ele><time>2026-05-01T09:20:08.208Z</time></trkpt><trkpt lat="43.5822433" lon="11.6335167"><ele>311.6666666666667</ele><time>2026-05-01T09:20:09.207Z</time></trkpt><trkpt lat="43.58219" lon="11.6335817"><ele>312.0</ele><time>2026-05-01T09:20:10.208Z</time></trkpt><trkpt lat="43.5821433" lon="11.6336583"><ele>313.5</ele><time>2026-05-01T09:20:11.206Z</time></trkpt><trkpt lat="43.5821017" lon="11.63374"><ele>315.0</ele><time>2026-05-01T09:20:12.207Z</time></trkpt><trkpt lat="43.5820567" lon="11.6338283"><ele>316.5</ele><time>2026-05-01T09:20:13.209Z</time></trkpt><trkpt lat="43.5820033" lon="11.633915"><ele>318.0</ele><time>2026-05-01T09:20:14.208Z</time></trkpt><trkpt lat="43.5819583" lon="11.6339933"><ele>319.5</ele><time>2026-05-01T09:20:15.21Z</time></trkpt><trkpt lat="43.5818967" lon="11.634055"><ele>321.0</ele><time>2026-05-01T09:20:16.208Z</time></trkpt><trkpt lat="43.5818233" lon="11.6340967"><ele>320.99999999999994</ele><time>2026-05-01T09:20:17.209Z</time></trkpt><trkpt lat="43.5817483" lon="11.6341133"><ele>321.0</ele><time>2026-05-01T09:20:18.208Z</time></trkpt><trkpt lat="43.5816783" lon="11.6341083"><ele>321.0</ele><time>2026-05-01T09:20:19.205Z</time></trkpt><trkpt lat="43.5816117" lon="11.6340933"><ele>321.0</ele><time>2026-05-01T09:20:20.207Z</time></trkpt><trkpt lat="43.5815467" lon="11.634075"><ele>321.0</ele><time>2026-05-01T09:20:21.207Z</time></trkpt><trkpt lat="43.5814833" lon="11.634055"><ele>320.99999999999994</ele><time>2026-05-01T09:20:22.207Z</time></trkpt><trkpt lat="43.5814167" lon="11.6340433"><ele>321.0</ele><time>2026-05-01T09:20:23.207Z</time></trkpt><trkpt lat="43.581345" lon="11.63405"><ele>321.0</ele><time>2026-05-01T09:20:24.207Z</time></trkpt><trkpt lat="43.58128" lon="11.634075"><ele>321.0</ele><time>2026-05-01T09:20:25.208Z</time></trkpt><trkpt lat="43.5812183" lon="11.6341133"><ele>321.0</ele><time>2026-05-01T09:20:26.207Z</time></trkpt><trkpt lat="43.5811567" lon="11.6341633"><ele>321.0</ele><time>2026-05-01T09:20:27.209Z</time></trkpt><trkpt lat="43.58108" lon="11.63422"><ele>321.0</ele><time>2026-05-01T09:20:28.206Z</time></trkpt><trkpt lat="43.5810033" lon="11.6342867"><ele>321.0</ele><time>2026-05-01T09:20:29.206Z</time></trkpt><trkpt lat="43.5809317" lon="11.6343483"><ele>321.6666666666667</ele><time>2026-05-01T09:20:30.208Z</time></trkpt><trkpt lat="43.5808683" lon="11.6344067"><ele>322.3333333333333</ele><time>2026-05-01T09:20:31.207Z</time></trkpt><trkpt lat="43.580805" lon="11.63447"><ele>323.0</ele><time>2026-05-01T09:20:32.208Z</time></trkpt><trkpt lat="43.580745" lon="11.6345467"><ele>323.66666666666663</ele><time>2026-05-01T09:20:33.207Z</time></trkpt><trkpt lat="43.5806817" lon="11.634625"><ele>324.3333333333333</ele><time>2026-05-01T09:20:34.207Z</time></trkpt><trkpt lat="43.580615" lon="11.6347017"><ele>325.0</ele><time>2026-05-01T09:20:35.208Z</time></trkpt><trkpt lat="43.5805483" lon="11.6347667"><ele>325.0</ele><time>2026-05-01T09:20:36.208Z</time></trkpt><trkpt lat="43.58048" lon="11.6348267"><ele>325.0</ele><time>2026-05-01T09:20:37.208Z</time></trkpt><trkpt lat="43.5804183" lon="11.6348783"><ele>325.0</ele><time>2026-05-01T09:20:38.207Z</time></trkpt><trkpt lat="43.5803583" lon="11.6349383"><ele>325.0</ele><time>2026-05-01T09:20:39.207Z</time></trkpt><trkpt lat="43.5802917" lon="11.6350133"><ele>325.0</ele><time>2026-05-01T09:20:40.207Z</time></trkpt><trkpt lat="43.58023" lon="11.63508"><ele>325.0</ele><time>2026-05-01T09:20:41.207Z</time></trkpt><trkpt lat="43.5801633" lon="11.6351533"><ele>324.3333333333333</ele><time>2026-05-01T09:20:42.208Z</time></trkpt><trkpt lat="43.580105" lon="11.6352167"><ele>323.66666666666663</ele><time>2026-05-01T09:20:43.206Z</time></trkpt><trkpt lat="43.5800467" lon="11.6352883"><ele>323.0</ele><time>2026-05-01T09:20:44.207Z</time></trkpt><trkpt lat="43.5799917" lon="11.6353633"><ele>322.3333333333333</ele><time>2026-05-01T09:20:45.209Z</time></trkpt><trkpt lat="43.5799383" lon="11.6354467"><ele>321.6666666666667</ele><time>2026-05-01T09:20:46.208Z</time></trkpt><trkpt lat="43.5798867" lon="11.635535"><ele>321.0</ele><time>2026-05-01T09:20:47.207Z</time></trkpt><trkpt lat="43.5798317" lon="11.6356283"><ele>321.0</ele><time>2026-05-01T09:20:48.208Z</time></trkpt><trkpt lat="43.5797817" lon="11.6357233"><ele>321.0</ele><time>2026-05-01T09:20:49.207Z</time></trkpt><trkpt lat="43.57973" lon="11.6358183"><ele>321.0</ele><time>2026-05-01T09:20:50.207Z</time></trkpt><trkpt lat="43.57968" lon="11.6359167"><ele>321.0</ele><time>2026-05-01T09:20:51.209Z</time></trkpt><trkpt lat="43.5796317" lon="11.6360133"><ele>321.0</ele><time>2026-05-01T09:20:52.206Z</time></trkpt><trkpt lat="43.57958" lon="11.6361117"><ele>321.0</ele><time>2026-05-01T09:20:53.207Z</time></trkpt><trkpt lat="43.57953" lon="11.636205"><ele>319.8333333333333</ele><time>2026-05-01T09:20:54.208Z</time></trkpt><trkpt lat="43.57948" lon="11.6362983"><ele>318.6666666666667</ele><time>2026-05-01T09:20:55.207Z</time></trkpt><trkpt lat="43.57943" lon="11.63639"><ele>317.5</ele><time>2026-05-01T09:20:56.206Z</time></trkpt><trkpt lat="43.5793817" lon="11.6364833"><ele>316.33333333333337</ele><time>2026-05-01T09:20:57.208Z</time></trkpt><trkpt lat="43.5793317" lon="11.6365783"><ele>315.1666666666667</ele><time>2026-05-01T09:20:58.205Z</time></trkpt><trkpt lat="43.5792817" lon="11.63668"><ele>314.0</ele><time>2026-05-01T09:20:59.209Z</time></trkpt><trkpt lat="43.57923" lon="11.6367833"><ele>314.0</ele><time>2026-05-01T09:21:00.209Z</time></trkpt><trkpt lat="43.579185" lon="11.636895"><ele>314.0</ele><time>2026-05-01T09:21:01.208Z</time></trkpt><trkpt lat="43.5791433" lon="11.6370183"><ele>314.0</ele><time>2026-05-01T09:21:02.207Z</time></trkpt><trkpt lat="43.5791083" lon="11.6371467"><ele>314.0</ele><time>2026-05-01T09:21:03.208Z</time></trkpt><trkpt lat="43.579075" lon="11.637275"><ele>314.0</ele><time>2026-05-01T09:21:04.207Z</time></trkpt><trkpt lat="43.57904" lon="11.6374017"><ele>315.0</ele><time>2026-05-01T09:21:05.207Z</time></trkpt><trkpt lat="43.5790083" lon="11.6375383"><ele>316.0</ele><time>2026-05-01T09:21:06.207Z</time></trkpt><trkpt lat="43.578975" lon="11.6376817"><ele>317.0</ele><time>2026-05-01T09:21:07.207Z</time></trkpt><trkpt lat="43.578945" lon="11.6378167"><ele>318.0</ele><time>2026-05-01T09:21:08.208Z</time></trkpt><trkpt lat="43.5789133" lon="11.637955"><ele>319.0</ele><time>2026-05-01T09:21:09.207Z</time></trkpt><trkpt lat="43.578885" lon="11.638085"><ele>319.2</ele><time>2026-05-01T09:21:10.206Z</time></trkpt><trkpt lat="43.5788533" lon="11.6382217"><ele>319.4</ele><time>2026-05-01T09:21:11.207Z</time></trkpt><trkpt lat="43.578825" lon="11.63836"><ele>319.6</ele><time>2026-05-01T09:21:12.209Z</time></trkpt><trkpt lat="43.578795" lon="11.6385"><ele>319.8</ele><time>2026-05-01T09:21:13.207Z</time></trkpt><trkpt lat="43.578765" lon="11.6386367"><ele>320.0</ele><time>2026-05-01T09:21:14.208Z</time></trkpt><trkpt lat="43.578735" lon="11.63877"><ele>320.0</ele><time>2026-05-01T09:21:15.207Z</time></trkpt><trkpt lat="43.5787067" lon="11.6389033"><ele>320.0</ele><time>2026-05-01T09:21:16.207Z</time></trkpt><trkpt lat="43.5786783" lon="11.6390367"><ele>320.0</ele><time>2026-05-01T09:21:17.207Z</time></trkpt><trkpt lat="43.57865" lon="11.6391667"><ele>320.0</ele><time>2026-05-01T09:21:18.209Z</time></trkpt><trkpt lat="43.5786233" lon="11.6392933"><ele>320.0</ele><time>2026-05-01T09:21:19.209Z</time></trkpt><trkpt lat="43.578595" lon="11.6394217"><ele>318.2</ele><time>2026-05-01T09:21:20.208Z</time></trkpt><trkpt lat="43.57857" lon="11.63955"><ele>316.4</ele><time>2026-05-01T09:21:21.207Z</time></trkpt><trkpt lat="43.578545" lon="11.63968"><ele>314.6</ele><time>2026-05-01T09:21:22.207Z</time></trkpt><trkpt lat="43.5785183" lon="11.63981"><ele>312.8</ele><time>2026-05-01T09:21:23.207Z</time></trkpt><trkpt lat="43.57849" lon="11.63994"><ele>311.0</ele><time>2026-05-01T09:21:24.206Z</time></trkpt><trkpt lat="43.5784617" lon="11.6400667"><ele>311.0</ele><time>2026-05-01T09:21:25.208Z</time></trkpt><trkpt lat="43.5784333" lon="11.6401933"><ele>311.0</ele><time>2026-05-01T09:21:26.207Z</time></trkpt><trkpt lat="43.5784033" lon="11.6403167"><ele>311.0</ele><time>2026-05-01T09:21:27.209Z</time></trkpt><trkpt lat="43.578375" lon="11.640435"><ele>311.0</ele><time>2026-05-01T09:21:28.207Z</time></trkpt><trkpt lat="43.5783483" lon="11.6405533"><ele>311.0</ele><time>2026-05-01T09:21:29.208Z</time></trkpt><trkpt lat="43.578325" lon="11.6406717"><ele>311.5</ele><time>2026-05-01T09:21:30.207Z</time></trkpt><trkpt lat="43.5783017" lon="11.6407917"><ele>312.0</ele><time>2026-05-01T09:21:31.207Z</time></trkpt><trkpt lat="43.5782783" lon="11.6409117"><ele>312.5</ele><time>2026-05-01T09:21:32.208Z</time></trkpt><trkpt lat="43.5782567" lon="11.6410367"><ele>313.0</ele><time>2026-05-01T09:21:33.207Z</time></trkpt><trkpt lat="43.57824" lon="11.6411567"><ele>313.5</ele><time>2026-05-01T09:21:34.206Z</time></trkpt><trkpt lat="43.5782317" lon="11.641275"><ele>314.0</ele><time>2026-05-01T09:21:35.208Z</time></trkpt><trkpt lat="43.5782333" lon="11.6413967"><ele>314.5</ele><time>2026-05-01T09:21:36.207Z</time></trkpt><trkpt lat="43.5782433" lon="11.6415133"><ele>315.0</ele><time>2026-05-01T09:21:37.206Z</time></trkpt><trkpt lat="43.5782567" lon="11.64163"><ele>315.5</ele><time>2026-05-01T09:21:38.208Z</time></trkpt><trkpt lat="43.578265" lon="11.6417533"><ele>316.0</ele><time>2026-05-01T09:21:39.209Z</time></trkpt><trkpt lat="43.578265" lon="11.6418767"><ele>316.5</ele><time>2026-05-01T09:21:40.207Z</time></trkpt><trkpt lat="43.5782483" lon="11.642"><ele>317.0</ele><time>2026-05-01T09:21:41.207Z</time></trkpt><trkpt lat="43.57821" lon="11.6421117"><ele>316.6666666666667</ele><time>2026-05-01T09:21:42.207Z</time></trkpt><trkpt lat="43.57815" lon="11.6421983"><ele>316.33333333333337</ele><time>2026-05-01T09:21:43.207Z</time></trkpt><trkpt lat="43.5780783" lon="11.6422667"><ele>316.0</ele><time>2026-05-01T09:21:44.208Z</time></trkpt><trkpt lat="43.5779983" lon="11.6423117"><ele>315.6666666666667</ele><time>2026-05-01T09:21:45.207Z</time></trkpt><trkpt lat="43.5779133" lon="11.64235"><ele>315.3333333333333</ele><time>2026-05-01T09:21:46.206Z</time></trkpt><trkpt lat="43.5778283" lon="11.6423767"><ele>315.0</ele><time>2026-05-01T09:21:47.208Z</time></trkpt><trkpt lat="43.5777433" lon="11.642395"><ele>315.0</ele><time>2026-05-01T09:21:48.207Z</time></trkpt><trkpt lat="43.5776483" lon="11.6424117"><ele>315.0</ele><time>2026-05-01T09:21:49.207Z</time></trkpt><trkpt lat="43.57756" lon="11.64242"><ele>315.0</ele><time>2026-05-01T09:21:50.208Z</time></trkpt><trkpt lat="43.5774733" lon="11.6424267"><ele>315.0</ele><time>2026-05-01T09:21:51.207Z</time></trkpt><trkpt lat="43.577385" lon="11.64243"><ele>315.0</ele><time>2026-05-01T09:21:52.206Z</time></trkpt><trkpt lat="43.5773033" lon="11.64243"><ele>315.0</ele><time>2026-05-01T09:21:53.207Z</time></trkpt><trkpt lat="43.577215" lon="11.64243"><ele>315.0</ele><time>2026-05-01T09:21:54.207Z</time></trkpt><trkpt lat="43.577135" lon="11.6424267"><ele>315.0</ele><time>2026-05-01T09:21:55.207Z</time></trkpt><trkpt lat="43.5770533" lon="11.6424217"><ele>315.0</ele><time>2026-05-01T09:21:56.209Z</time></trkpt><trkpt lat="43.5769717" lon="11.6424217"><ele>315.0</ele><time>2026-05-01T09:21:57.207Z</time></trkpt><trkpt lat="43.57689" lon="11.642435"><ele>315.0</ele><time>2026-05-01T09:21:58.207Z</time></trkpt><trkpt lat="43.5768033" lon="11.6424617"><ele>315.0</ele><time>2026-05-01T09:21:59.207Z</time></trkpt><trkpt lat="43.576715" lon="11.6425033"><ele>314.2</ele><time>2026-05-01T09:22:00.208Z</time></trkpt><trkpt lat="43.5766317" lon="11.6425483"><ele>313.4</ele><time>2026-05-01T09:22:01.207Z</time></trkpt><trkpt lat="43.5765433" lon="11.6425967"><ele>312.6</ele><time>2026-05-01T09:22:02.208Z</time></trkpt><trkpt lat="43.576455" lon="11.6426417"><ele>311.8</ele><time>2026-05-01T09:22:03.208Z</time></trkpt><trkpt lat="43.5763667" lon="11.64269"><ele>311.0</ele><time>2026-05-01T09:22:04.207Z</time></trkpt><trkpt lat="43.5762767" lon="11.64274"><ele>311.0</ele><time>2026-05-01T09:22:05.208Z</time></trkpt><trkpt lat="43.576195" lon="11.6427867"><ele>311.0</ele><time>2026-05-01T09:22:06.207Z</time></trkpt><trkpt lat="43.57612" lon="11.64283"><ele>311.0</ele><time>2026-05-01T09:22:07.207Z</time></trkpt><trkpt lat="43.5760383" lon="11.6428733"><ele>311.0</ele><time>2026-05-01T09:22:08.208Z</time></trkpt><trkpt lat="43.575965" lon="11.6429167"><ele>311.0</ele><time>2026-05-01T09:22:09.207Z</time></trkpt><trkpt lat="43.57589" lon="11.64296"><ele>311.0</ele><time>2026-05-01T09:22:10.208Z</time></trkpt><trkpt lat="43.57582" lon="11.6430083"><ele>312.1666666666667</ele><time>2026-05-01T09:22:11.207Z</time></trkpt><trkpt lat="43.575755" lon="11.64306"><ele>313.33333333333337</ele><time>2026-05-01T09:22:12.209Z</time></trkpt><trkpt lat="43.5756967" lon="11.6431217"><ele>314.5</ele><time>2026-05-01T09:22:13.207Z</time></trkpt><trkpt lat="43.5756417" lon="11.643195"><ele>315.6666666666667</ele><time>2026-05-01T09:22:14.21Z</time></trkpt><trkpt lat="43.5755883" lon="11.6432817"><ele>316.8333333333333</ele><time>2026-05-01T09:22:15.207Z</time></trkpt><trkpt lat="43.5755383" lon="11.6433717"><ele>318.0</ele><time>2026-05-01T09:22:16.207Z</time></trkpt><trkpt lat="43.57549" lon="11.64346"><ele>318.0</ele><time>2026-05-01T09:22:17.207Z</time></trkpt><trkpt lat="43.5754417" lon="11.6435483"><ele>318.0</ele><time>2026-05-01T09:22:18.207Z</time></trkpt><trkpt lat="43.5753933" lon="11.64363"><ele>318.0</ele><time>2026-05-01T09:22:19.207Z</time></trkpt><trkpt lat="43.5753467" lon="11.64372"><ele>318.0</ele><time>2026-05-01T09:22:20.208Z</time></trkpt><trkpt lat="43.5753017" lon="11.6438117"><ele>318.0</ele><time>2026-05-01T09:22:21.207Z</time></trkpt><trkpt lat="43.57526" lon="11.6438983"><ele>318.0</ele><time>2026-05-01T09:22:22.207Z</time></trkpt><trkpt lat="43.57522" lon="11.6439917"><ele>318.0</ele><time>2026-05-01T09:22:23.207Z</time></trkpt><trkpt lat="43.5751767" lon="11.6440867"><ele>318.0</ele><time>2026-05-01T09:22:24.208Z</time></trkpt><trkpt lat="43.5751483" lon="11.6441867"><ele>318.0</ele><time>2026-05-01T09:22:25.208Z</time></trkpt><trkpt lat="43.5751283" lon="11.64429"><ele>318.0</ele><time>2026-05-01T09:22:26.209Z</time></trkpt><trkpt lat="43.5751133" lon="11.6443883"><ele>318.0</ele><time>2026-05-01T09:22:27.208Z</time></trkpt><trkpt lat="43.575095" lon="11.6444917"><ele>318.0</ele><time>2026-05-01T09:22:28.207Z</time></trkpt><trkpt lat="43.5750733" lon="11.644595"><ele>318.0</ele><time>2026-05-01T09:22:29.208Z</time></trkpt><trkpt lat="43.575045" lon="11.6446917"><ele>318.0</ele><time>2026-05-01T09:22:30.208Z</time></trkpt><trkpt lat="43.5750117" lon="11.6447817"><ele>318.0</ele><time>2026-05-01T09:22:31.207Z</time></trkpt><trkpt lat="43.5749733" lon="11.6448733"><ele>318.0</ele><time>2026-05-01T09:22:32.208Z</time></trkpt><trkpt lat="43.5749267" lon="11.6449567"><ele>318.0</ele><time>2026-05-01T09:22:33.207Z</time></trkpt><trkpt lat="43.5748717" lon="11.64503"><ele>318.0</ele><time>2026-05-01T09:22:34.207Z</time></trkpt><trkpt lat="43.574815" lon="11.6450883"><ele>318.0</ele><time>2026-05-01T09:22:35.207Z</time></trkpt><trkpt lat="43.574755" lon="11.6451417"><ele>318.0</ele><time>2026-05-01T09:22:36.21Z</time></trkpt><trkpt lat="43.5746983" lon="11.6451917"><ele>318.0</ele><time>2026-05-01T09:22:37.208Z</time></trkpt><trkpt lat="43.5746433" lon="11.6452467"><ele>318.0</ele><time>2026-05-01T09:22:38.207Z</time></trkpt><trkpt lat="43.574585" lon="11.6453"><ele>318.0</ele><time>2026-05-01T09:22:39.208Z</time></trkpt><trkpt lat="43.5745233" lon="11.6453517"><ele>318.0</ele><time>2026-05-01T09:22:40.207Z</time></trkpt><trkpt lat="43.57446" lon="11.6454033"><ele>318.0</ele><time>2026-05-01T09:22:41.207Z</time></trkpt><trkpt lat="43.5744" lon="11.6454567"><ele>318.0</ele><time>2026-05-01T09:22:42.207Z</time></trkpt><trkpt lat="43.57434" lon="11.645505"><ele>318.1428571428571</ele><time>2026-05-01T09:22:43.208Z</time></trkpt><trkpt lat="43.5742833" lon="11.6455583"><ele>318.28571428571433</ele><time>2026-05-01T09:22:44.208Z</time></trkpt><trkpt lat="43.5742267" lon="11.6456167"><ele>318.42857142857144</ele><time>2026-05-01T09:22:45.207Z</time></trkpt><trkpt lat="43.5741717" lon="11.645685"><ele>318.57142857142856</ele><time>2026-05-01T09:22:46.207Z</time></trkpt><trkpt lat="43.5741217" lon="11.6457567"><ele>318.71428571428567</ele><time>2026-05-01T09:22:47.208Z</time></trkpt><trkpt lat="43.5740733" lon="11.6458317"><ele>318.8571428571429</ele><time>2026-05-01T09:22:48.209Z</time></trkpt><trkpt lat="43.5740317" lon="11.6459117"><ele>319.0</ele><time>2026-05-01T09:22:49.208Z</time></trkpt><trkpt lat="43.573995" lon="11.6459983"><ele>319.0</ele><time>2026-05-01T09:22:50.208Z</time></trkpt><trkpt lat="43.5739683" lon="11.6460883"><ele>319.0</ele><time>2026-05-01T09:22:51.207Z</time></trkpt><trkpt lat="43.5739467" lon="11.6461833"><ele>319.0</ele><time>2026-05-01T09:22:52.207Z</time></trkpt><trkpt lat="43.5739267" lon="11.6462817"><ele>319.0</ele><time>2026-05-01T09:22:53.208Z</time></trkpt><trkpt lat="43.5739083" lon="11.6463817"><ele>319.0</ele><time>2026-05-01T09:22:54.209Z</time></trkpt><trkpt lat="43.57389" lon="11.6464833"><ele>319.0</ele><time>2026-05-01T09:22:55.208Z</time></trkpt><trkpt lat="43.5738733" lon="11.6465833"><ele>319.0</ele><time>2026-05-01T09:22:56.208Z</time></trkpt><trkpt lat="43.57386" lon="11.6466817"><ele>320.14285714285717</ele><time>2026-05-01T09:22:57.208Z</time></trkpt><trkpt lat="43.573845" lon="11.646775"><ele>321.2857142857143</ele><time>2026-05-01T09:22:58.208Z</time></trkpt><trkpt lat="43.5738283" lon="11.646865"><ele>322.42857142857144</ele><time>2026-05-01T09:22:59.207Z</time></trkpt><trkpt lat="43.57381" lon="11.6469533"><ele>323.57142857142856</ele><time>2026-05-01T09:23:00.207Z</time></trkpt><trkpt lat="43.5737967" lon="11.6470433"><ele>324.7142857142857</ele><time>2026-05-01T09:23:01.209Z</time></trkpt><trkpt lat="43.5737867" lon="11.647135"><ele>325.85714285714283</ele><time>2026-05-01T09:23:02.208Z</time></trkpt><trkpt lat="43.5737817" lon="11.6472283"><ele>327.0</ele><time>2026-05-01T09:23:03.208Z</time></trkpt><trkpt lat="43.5737817" lon="11.64732"><ele>327.6666666666667</ele><time>2026-05-01T09:23:04.208Z</time></trkpt><trkpt lat="43.5737883" lon="11.6474117"><ele>328.3333333333333</ele><time>2026-05-01T09:23:05.208Z</time></trkpt><trkpt lat="43.5737983" lon="11.647505"><ele>329.0</ele><time>2026-05-01T09:23:06.208Z</time></trkpt><trkpt lat="43.5738117" lon="11.6475933"><ele>329.66666666666663</ele><time>2026-05-01T09:23:07.208Z</time></trkpt><trkpt lat="43.5738483" lon="11.64776"><ele>330.3333333333333</ele><time>2026-05-01T09:23:09.207Z</time></trkpt><trkpt lat="43.573865" lon="11.64785"><ele>331.0</ele><time>2026-05-01T09:23:10.207Z</time></trkpt><trkpt lat="43.5738683" lon="11.6479433"><ele>331.7142857142857</ele><time>2026-05-01T09:23:11.207Z</time></trkpt><trkpt lat="43.5738567" lon="11.6480333"><ele>332.42857142857144</ele><time>2026-05-01T09:23:12.207Z</time></trkpt><trkpt lat="43.573825" lon="11.64812"><ele>333.1428571428571</ele><time>2026-05-01T09:23:13.206Z</time></trkpt><trkpt lat="43.5737833" lon="11.6481883"><ele>333.8571428571429</ele><time>2026-05-01T09:23:14.208Z</time></trkpt><trkpt lat="43.5737383" lon="11.64826"><ele>334.57142857142856</ele><time>2026-05-01T09:23:15.208Z</time></trkpt><trkpt lat="43.5736933" lon="11.6483233"><ele>335.2857142857143</ele><time>2026-05-01T09:23:16.209Z</time></trkpt><trkpt lat="43.573645" lon="11.6483883"><ele>336.0</ele><time>2026-05-01T09:23:17.207Z</time></trkpt><trkpt lat="43.5735633" lon="11.6485183"><ele>335.1666666666667</ele><time>2026-05-01T09:23:19.208Z</time></trkpt><trkpt lat="43.57352" lon="11.6485967"><ele>334.3333333333333</ele><time>2026-05-01T09:23:20.208Z</time></trkpt><trkpt lat="43.573475" lon="11.6486683"><ele>333.5</ele><time>2026-05-01T09:23:21.207Z</time></trkpt><trkpt lat="43.5734333" lon="11.6487383"><ele>332.66666666666663</ele><time>2026-05-01T09:23:22.21Z</time></trkpt><trkpt lat="43.5733933" lon="11.6488133"><ele>331.8333333333333</ele><time>2026-05-01T09:23:23.208Z</time></trkpt><trkpt lat="43.573325" lon="11.6489533"><ele>331.0</ele><time>2026-05-01T09:23:25.208Z</time></trkpt><trkpt lat="43.5732817" lon="11.6490283"><ele>331.0</ele><time>2026-05-01T09:23:26.208Z</time></trkpt><trkpt lat="43.5732317" lon="11.6491033"><ele>331.0</ele><time>2026-05-01T09:23:27.208Z</time></trkpt><trkpt lat="43.5731733" lon="11.6491717"><ele>331.0</ele><time>2026-05-01T09:23:28.206Z</time></trkpt><trkpt lat="43.57311" lon="11.6492267"><ele>331.0</ele><time>2026-05-01T09:23:29.207Z</time></trkpt><trkpt lat="43.573045" lon="11.6492683"><ele>331.0</ele><time>2026-05-01T09:23:30.207Z</time></trkpt><trkpt lat="43.5729783" lon="11.6492917"><ele>331.0</ele><time>2026-05-01T09:23:31.207Z</time></trkpt><trkpt lat="43.5729067" lon="11.6493033"><ele>331.0</ele><time>2026-05-01T09:23:32.208Z</time></trkpt><trkpt lat="43.57284" lon="11.6493117"><ele>330.42857142857144</ele><time>2026-05-01T09:23:33.208Z</time></trkpt><trkpt lat="43.5727733" lon="11.6493333"><ele>329.85714285714283</ele><time>2026-05-01T09:23:34.208Z</time></trkpt><trkpt lat="43.5727067" lon="11.6493667"><ele>329.2857142857143</ele><time>2026-05-01T09:23:35.207Z</time></trkpt><trkpt lat="43.5726433" lon="11.6494133"><ele>328.7142857142857</ele><time>2026-05-01T09:23:36.207Z</time></trkpt><trkpt lat="43.5725817" lon="11.649465"><ele>328.14285714285717</ele><time>2026-05-01T09:23:37.209Z</time></trkpt><trkpt lat="43.572525" lon="11.6495233"><ele>327.57142857142856</ele><time>2026-05-01T09:23:38.208Z</time></trkpt><trkpt lat="43.5724783" lon="11.6496"><ele>327.0</ele><time>2026-05-01T09:23:39.207Z</time></trkpt><trkpt lat="43.5724417" lon="11.6496933"><ele>327.0</ele><time>2026-05-01T09:23:40.207Z</time></trkpt><trkpt lat="43.572415" lon="11.6497917"><ele>327.0</ele><time>2026-05-01T09:23:41.208Z</time></trkpt><trkpt lat="43.5723867" lon="11.6498983"><ele>327.0</ele><time>2026-05-01T09:23:42.208Z</time></trkpt><trkpt lat="43.5723533" lon="11.650015"><ele>327.0</ele><time>2026-05-01T09:23:43.208Z</time></trkpt><trkpt lat="43.5723067" lon="11.6501217"><ele>327.0</ele><time>2026-05-01T09:23:44.21Z</time></trkpt><trkpt lat="43.5722417" lon="11.6502083"><ele>327.0</ele><time>2026-05-01T09:23:45.207Z</time></trkpt><trkpt lat="43.5721633" lon="11.6502667"><ele>327.0</ele><time>2026-05-01T09:23:46.208Z</time></trkpt><trkpt lat="43.5720683" lon="11.6502817"><ele>327.0</ele><time>2026-05-01T09:23:47.208Z</time></trkpt><trkpt lat="43.5719717" lon="11.65026"><ele>327.0</ele><time>2026-05-01T09:23:48.209Z</time></trkpt><trkpt lat="43.571885" lon="11.6502217"><ele>327.0</ele><time>2026-05-01T09:23:49.207Z</time></trkpt><trkpt lat="43.5718" lon="11.6501817"><ele>327.0</ele><time>2026-05-01T09:23:50.207Z</time></trkpt><trkpt lat="43.57171" lon="11.6501467"><ele>327.20000000000005</ele><time>2026-05-01T09:23:51.208Z</time></trkpt><trkpt lat="43.5716183" lon="11.6501267"><ele>327.4</ele><time>2026-05-01T09:23:52.208Z</time></trkpt><trkpt lat="43.5715167" lon="11.65013"><ele>327.6</ele><time>2026-05-01T09:23:53.207Z</time></trkpt><trkpt lat="43.5714217" lon="11.6501733"><ele>327.79999999999995</ele><time>2026-05-01T09:23:54.209Z</time></trkpt><trkpt lat="43.57133" lon="11.6502383"><ele>328.0</ele><time>2026-05-01T09:23:55.208Z</time></trkpt><trkpt lat="43.5712517" lon="11.65033"><ele>328.0</ele><time>2026-05-01T09:23:56.208Z</time></trkpt><trkpt lat="43.5711917" lon="11.6504467"><ele>328.0</ele><time>2026-05-01T09:23:57.207Z</time></trkpt><trkpt lat="43.5711467" lon="11.650575"><ele>328.0</ele><time>2026-05-01T09:23:58.207Z</time></trkpt><trkpt lat="43.5711033" lon="11.6507017"><ele>328.0</ele><time>2026-05-01T09:23:59.207Z</time></trkpt><trkpt lat="43.57107" lon="11.6508283"><ele>328.0</ele><time>2026-05-01T09:24:00.209Z</time></trkpt><trkpt lat="43.5710533" lon="11.650955"><ele>325.4</ele><time>2026-05-01T09:24:01.208Z</time></trkpt><trkpt lat="43.571055" lon="11.6510867"><ele>322.79999999999995</ele><time>2026-05-01T09:24:02.21Z</time></trkpt><trkpt lat="43.571075" lon="11.6512183"><ele>320.2</ele><time>2026-05-01T09:24:03.207Z</time></trkpt><trkpt lat="43.571115" lon="11.6513417"><ele>317.6</ele><time>2026-05-01T09:24:04.206Z</time></trkpt><trkpt lat="43.571155" lon="11.6514683"><ele>315.0</ele><time>2026-05-01T09:24:05.208Z</time></trkpt><trkpt lat="43.57119" lon="11.6515833"><ele>315.0</ele><time>2026-05-01T09:24:06.207Z</time></trkpt><trkpt lat="43.5712133" lon="11.6516983"><ele>315.0</ele><time>2026-05-01T09:24:07.208Z</time></trkpt><trkpt lat="43.5712117" lon="11.6518183"><ele>315.0</ele><time>2026-05-01T09:24:08.209Z</time></trkpt><trkpt lat="43.5711867" lon="11.651945"><ele>315.0</ele><time>2026-05-01T09:24:09.207Z</time></trkpt><trkpt lat="43.5711333" lon="11.6520617"><ele>315.0</ele><time>2026-05-01T09:24:10.206Z</time></trkpt><trkpt lat="43.5710583" lon="11.6521267"><ele>317.0</ele><time>2026-05-01T09:24:11.207Z</time></trkpt><trkpt lat="43.5709717" lon="11.6521683"><ele>319.0</ele><time>2026-05-01T09:24:12.209Z</time></trkpt><trkpt lat="43.57088" lon="11.6521817"><ele>321.0</ele><time>2026-05-01T09:24:13.207Z</time></trkpt><trkpt lat="43.5707833" lon="11.6521733"><ele>323.0</ele><time>2026-05-01T09:24:14.208Z</time></trkpt><trkpt lat="43.5706817" lon="11.6521433"><ele>325.0</ele><time>2026-05-01T09:24:15.208Z</time></trkpt><trkpt lat="43.5705767" lon="11.6521033"><ele>325.0</ele><time>2026-05-01T09:24:16.207Z</time></trkpt><trkpt lat="43.5704717" lon="11.65206"><ele>325.0</ele><time>2026-05-01T09:24:17.207Z</time></trkpt><trkpt lat="43.5703667" lon="11.652015"><ele>325.0</ele><time>2026-05-01T09:24:18.207Z</time></trkpt><trkpt lat="43.5702667" lon="11.65197"><ele>325.0</ele><time>2026-05-01T09:24:19.208Z</time></trkpt><trkpt lat="43.570165" lon="11.6519283"><ele>325.0</ele><time>2026-05-01T09:24:20.208Z</time></trkpt><trkpt lat="43.5700667" lon="11.6518833"><ele>323.2</ele><time>2026-05-01T09:24:21.207Z</time></trkpt><trkpt lat="43.5699767" lon="11.6518433"><ele>321.4</ele><time>2026-05-01T09:24:22.207Z</time></trkpt><trkpt lat="43.5698867" lon="11.6518233"><ele>319.6</ele><time>2026-05-01T09:24:23.208Z</time></trkpt><trkpt lat="43.5697983" lon="11.651825"><ele>317.8</ele><time>2026-05-01T09:24:24.207Z</time></trkpt><trkpt lat="43.56973" lon="11.65184"><ele>316.0</ele><time>2026-05-01T09:24:25.208Z</time></trkpt><trkpt lat="43.5696017" lon="11.6519067"><ele>316.0</ele><time>2026-05-01T09:24:27.207Z</time></trkpt><trkpt lat="43.5695333" lon="11.6519533"><ele>316.0</ele><time>2026-05-01T09:24:28.207Z</time></trkpt><trkpt lat="43.5694733" lon="11.6519983"><ele>316.0</ele><time>2026-05-01T09:24:29.207Z</time></trkpt><trkpt lat="43.569375" lon="11.6520483"><ele>316.0</ele><time>2026-05-01T09:24:31.207Z</time></trkpt><trkpt lat="43.5693067" lon="11.6520617"><ele>316.0</ele><time>2026-05-01T09:24:36.206Z</time></trkpt><trkpt lat="43.5692333" lon="11.6519833"><ele>316.0</ele><time>2026-05-01T09:24:39.208Z</time></trkpt><trkpt lat="43.5691583" lon="11.6518867"><ele>315.3333333333333</ele><time>2026-05-01T09:24:41.207Z</time></trkpt><trkpt lat="43.56911" lon="11.6518283"><ele>314.66666666666663</ele><time>2026-05-01T09:24:42.209Z</time></trkpt><trkpt lat="43.569055" lon="11.65176"><ele>314.0</ele><time>2026-05-01T09:24:43.209Z</time></trkpt><trkpt lat="43.568995" lon="11.6516883"><ele>313.3333333333333</ele><time>2026-05-01T09:24:44.21Z</time></trkpt><trkpt lat="43.5689267" lon="11.6516133"><ele>312.6666666666667</ele><time>2026-05-01T09:24:45.206Z</time></trkpt><trkpt lat="43.5688517" lon="11.6515333"><ele>312.0</ele><time>2026-05-01T09:24:46.207Z</time></trkpt><trkpt lat="43.5687733" lon="11.65145"><ele>310.6</ele><time>2026-05-01T09:24:47.209Z</time></trkpt><trkpt lat="43.5686917" lon="11.6513617"><ele>309.2</ele><time>2026-05-01T09:24:48.207Z</time></trkpt><trkpt lat="43.5686067" lon="11.651265"><ele>307.8</ele><time>2026-05-01T09:24:49.207Z</time></trkpt><trkpt lat="43.5685183" lon="11.6511617"><ele>306.4</ele><time>2026-05-01T09:24:50.207Z</time></trkpt><trkpt lat="43.5684267" lon="11.6510567"><ele>305.0</ele><time>2026-05-01T09:24:51.207Z</time></trkpt><trkpt lat="43.5683333" lon="11.650945"><ele>304.5</ele><time>2026-05-01T09:24:52.206Z</time></trkpt><trkpt lat="43.568235" lon="11.6508333"><ele>304.0</ele><time>2026-05-01T09:24:53.207Z</time></trkpt><trkpt lat="43.5681333" lon="11.65072"><ele>303.5</ele><time>2026-05-01T09:24:54.208Z</time></trkpt><trkpt lat="43.5680317" lon="11.6506083"><ele>303.0</ele><time>2026-05-01T09:24:55.207Z</time></trkpt><trkpt lat="43.5679267" lon="11.6504933"><ele>301.5</ele><time>2026-05-01T09:24:56.207Z</time></trkpt><trkpt lat="43.5678183" lon="11.6503733"><ele>300.0</ele><time>2026-05-01T09:24:57.207Z</time></trkpt><trkpt lat="43.5677117" lon="11.6502517"><ele>298.5</ele><time>2026-05-01T09:24:58.209Z</time></trkpt><trkpt lat="43.567605" lon="11.65013"><ele>297.0</ele><time>2026-05-01T09:24:59.208Z</time></trkpt><trkpt lat="43.5674933" lon="11.650005"><ele>297.0</ele><time>2026-05-01T09:25:00.207Z</time></trkpt><trkpt lat="43.567385" lon="11.6498817"><ele>297.0</ele><time>2026-05-01T09:25:01.207Z</time></trkpt><trkpt lat="43.5672733" lon="11.6497583"><ele>297.0</ele><time>2026-05-01T09:25:02.21Z</time></trkpt><trkpt lat="43.56716" lon="11.6496367"><ele>297.0</ele><time>2026-05-01T09:25:03.206Z</time></trkpt><trkpt lat="43.5670467" lon="11.6495167"><ele>295.75</ele><time>2026-05-01T09:25:04.208Z</time></trkpt><trkpt lat="43.5669333" lon="11.6493933"><ele>294.5</ele><time>2026-05-01T09:25:05.207Z</time></trkpt><trkpt lat="43.56682" lon="11.6492683"><ele>293.25</ele><time>2026-05-01T09:25:06.206Z</time></trkpt><trkpt lat="43.566705" lon="11.64915"><ele>292.0</ele><time>2026-05-01T09:25:07.207Z</time></trkpt><trkpt lat="43.5665933" lon="11.6490283"><ele>292.0</ele><time>2026-05-01T09:25:08.209Z</time></trkpt><trkpt lat="43.5664783" lon="11.6489067"><ele>292.0</ele><time>2026-05-01T09:25:09.208Z</time></trkpt><trkpt lat="43.5663633" lon="11.6487867"><ele>292.0</ele><time>2026-05-01T09:25:10.208Z</time></trkpt><trkpt lat="43.5662517" lon="11.648665"><ele>292.0</ele><time>2026-05-01T09:25:11.207Z</time></trkpt><trkpt lat="43.56614" lon="11.6485483"><ele>291.25</ele><time>2026-05-01T09:25:12.207Z</time></trkpt><trkpt lat="43.5660283" lon="11.6484283"><ele>290.5</ele><time>2026-05-01T09:25:13.207Z</time></trkpt><trkpt lat="43.5659183" lon="11.6483067"><ele>289.75</ele><time>2026-05-01T09:25:14.207Z</time></trkpt><trkpt lat="43.5658067" lon="11.6481867"><ele>289.0</ele><time>2026-05-01T09:25:15.208Z</time></trkpt><trkpt lat="43.5656983" lon="11.648065"><ele>289.0</ele><time>2026-05-01T09:25:16.208Z</time></trkpt><trkpt lat="43.5655883" lon="11.647945"><ele>289.0</ele><time>2026-05-01T09:25:17.208Z</time></trkpt><trkpt lat="43.5654783" lon="11.6478267"><ele>289.0</ele><time>2026-05-01T09:25:18.207Z</time></trkpt><trkpt lat="43.5653667" lon="11.6477083"><ele>289.0</ele><time>2026-05-01T09:25:19.208Z</time></trkpt><trkpt lat="43.565255" lon="11.64759"><ele>287.75</ele><time>2026-05-01T09:25:20.207Z</time></trkpt><trkpt lat="43.56514" lon="11.6474683"><ele>286.5</ele><time>2026-05-01T09:25:21.208Z</time></trkpt><trkpt lat="43.5650267" lon="11.6473467"><ele>285.25</ele><time>2026-05-01T09:25:22.206Z</time></trkpt><trkpt lat="43.5649117" lon="11.6472283"><ele>284.0</ele><time>2026-05-01T09:25:23.207Z</time></trkpt><trkpt lat="43.5647967" lon="11.6471133"><ele>284.0</ele><time>2026-05-01T09:25:24.205Z</time></trkpt><trkpt lat="43.5646817" lon="11.6469967"><ele>284.0</ele><time>2026-05-01T09:25:25.208Z</time></trkpt><trkpt lat="43.5645683" lon="11.6468783"><ele>284.0</ele><time>2026-05-01T09:25:26.207Z</time></trkpt><trkpt lat="43.5644517" lon="11.64676"><ele>284.0</ele><time>2026-05-01T09:25:27.208Z</time></trkpt><trkpt lat="43.5643383" lon="11.6466417"><ele>283.25</ele><time>2026-05-01T09:25:28.206Z</time></trkpt><trkpt lat="43.5642217" lon="11.6465217"><ele>282.5</ele><time>2026-05-01T09:25:29.207Z</time></trkpt><trkpt lat="43.5641067" lon="11.6463983"><ele>281.75</ele><time>2026-05-01T09:25:30.208Z</time></trkpt><trkpt lat="43.5639883" lon="11.646275"><ele>281.0</ele><time>2026-05-01T09:25:31.206Z</time></trkpt><trkpt lat="43.56387" lon="11.6461533"><ele>281.0</ele><time>2026-05-01T09:25:32.209Z</time></trkpt><trkpt lat="43.56375" lon="11.6460317"><ele>281.0</ele><time>2026-05-01T09:25:33.21Z</time></trkpt><trkpt lat="43.5636367" lon="11.645915"><ele>281.0</ele><time>2026-05-01T09:25:34.206Z</time></trkpt><trkpt lat="43.563525" lon="11.6458"><ele>281.0</ele><time>2026-05-01T09:25:35.208Z</time></trkpt><trkpt lat="43.5634133" lon="11.64568"><ele>281.0</ele><time>2026-05-01T09:25:36.207Z</time></trkpt><trkpt lat="43.5633033" lon="11.6455633"><ele>281.0</ele><time>2026-05-01T09:25:37.206Z</time></trkpt><trkpt lat="43.56319" lon="11.645445"><ele>281.0</ele><time>2026-05-01T09:25:38.207Z</time></trkpt><trkpt lat="43.5630767" lon="11.6453267"><ele>281.0</ele><time>2026-05-01T09:25:39.206Z</time></trkpt><trkpt lat="43.5629617" lon="11.6452133"><ele>279.5</ele><time>2026-05-01T09:25:40.208Z</time></trkpt><trkpt lat="43.5628483" lon="11.6450933"><ele>278.0</ele><time>2026-05-01T09:25:41.206Z</time></trkpt><trkpt lat="43.5627367" lon="11.6449733"><ele>276.5</ele><time>2026-05-01T09:25:42.207Z</time></trkpt><trkpt lat="43.5626233" lon="11.644855"><ele>275.0</ele><time>2026-05-01T09:25:43.207Z</time></trkpt><trkpt lat="43.5625083" lon="11.644735"><ele>275.0</ele><time>2026-05-01T09:25:44.207Z</time></trkpt><trkpt lat="43.5623967" lon="11.64462"><ele>275.0</ele><time>2026-05-01T09:25:45.208Z</time></trkpt><trkpt lat="43.5622883" lon="11.6445067"><ele>275.0</ele><time>2026-05-01T09:25:46.207Z</time></trkpt><trkpt lat="43.5621783" lon="11.6443967"><ele>275.0</ele><time>2026-05-01T09:25:47.208Z</time></trkpt><trkpt lat="43.5620683" lon="11.6442867"><ele>274.25</ele><time>2026-05-01T09:25:48.206Z</time></trkpt><trkpt lat="43.5619617" lon="11.644175"><ele>273.5</ele><time>2026-05-01T09:25:49.208Z</time></trkpt><trkpt lat="43.5618533" lon="11.6440633"><ele>272.75</ele><time>2026-05-01T09:25:50.207Z</time></trkpt><trkpt lat="43.5617483" lon="11.64395"><ele>272.0</ele><time>2026-05-01T09:25:51.209Z</time></trkpt><trkpt lat="43.5616433" lon="11.6438383"><ele>272.0</ele><time>2026-05-01T09:25:52.208Z</time></trkpt><trkpt lat="43.5615367" lon="11.6437283"><ele>272.0</ele><time>2026-05-01T09:25:53.206Z</time></trkpt><trkpt lat="43.56143" lon="11.64362"><ele>272.0</ele><time>2026-05-01T09:25:54.208Z</time></trkpt><trkpt lat="43.5613233" lon="11.6435133"><ele>272.0</ele><time>2026-05-01T09:25:55.208Z</time></trkpt><trkpt lat="43.5612167" lon="11.6434033"><ele>271.5</ele><time>2026-05-01T09:25:56.208Z</time></trkpt><trkpt lat="43.5611117" lon="11.6432967"><ele>271.0</ele><time>2026-05-01T09:25:57.209Z</time></trkpt><trkpt lat="43.5610117" lon="11.6431817"><ele>270.5</ele><time>2026-05-01T09:25:58.207Z</time></trkpt><trkpt lat="43.5609217" lon="11.643055"><ele>270.0</ele><time>2026-05-01T09:25:59.207Z</time></trkpt><trkpt lat="43.56085" lon="11.6429133"><ele>269.75</ele><time>2026-05-01T09:26:00.209Z</time></trkpt><trkpt lat="43.5607917" lon="11.6427617"><ele>269.5</ele><time>2026-05-01T09:26:01.207Z</time></trkpt><trkpt lat="43.5607433" lon="11.6426033"><ele>269.25</ele><time>2026-05-01T09:26:02.209Z</time></trkpt><trkpt lat="43.5606983" lon="11.6424433"><ele>269.0</ele><time>2026-05-01T09:26:03.208Z</time></trkpt><trkpt lat="43.5606533" lon="11.6422817"><ele>269.0</ele><time>2026-05-01T09:26:04.208Z</time></trkpt><trkpt lat="43.56061" lon="11.64212"><ele>269.0</ele><time>2026-05-01T09:26:05.206Z</time></trkpt><trkpt lat="43.5605667" lon="11.6419617"><ele>269.0</ele><time>2026-05-01T09:26:06.207Z</time></trkpt><trkpt lat="43.560525" lon="11.6417983"><ele>269.0</ele><time>2026-05-01T09:26:07.207Z</time></trkpt><trkpt lat="43.56048" lon="11.6416433"><ele>268.75</ele><time>2026-05-01T09:26:08.206Z</time></trkpt><trkpt lat="43.5604383" lon="11.6414883"><ele>268.5</ele><time>2026-05-01T09:26:09.208Z</time></trkpt><trkpt lat="43.560395" lon="11.6413317"><ele>268.25</ele><time>2026-05-01T09:26:10.21Z</time></trkpt><trkpt lat="43.5603517" lon="11.64118"><ele>268.0</ele><time>2026-05-01T09:26:11.207Z</time></trkpt><trkpt lat="43.5603083" lon="11.6410267"><ele>267.75</ele><time>2026-05-01T09:26:12.207Z</time></trkpt><trkpt lat="43.560265" lon="11.6408767"><ele>267.5</ele><time>2026-05-01T09:26:13.207Z</time></trkpt><trkpt lat="43.56022" lon="11.6407317"><ele>267.25</ele><time>2026-05-01T09:26:14.209Z</time></trkpt><trkpt lat="43.5601767" lon="11.6405883"><ele>267.0</ele><time>2026-05-01T09:26:15.207Z</time></trkpt><trkpt lat="43.560135" lon="11.640445"><ele>267.0</ele><time>2026-05-01T09:26:16.206Z</time></trkpt><trkpt lat="43.5600983" lon="11.6403067"><ele>267.0</ele><time>2026-05-01T09:26:17.207Z</time></trkpt><trkpt lat="43.5600617" lon="11.640175"><ele>267.0</ele><time>2026-05-01T09:26:18.207Z</time></trkpt><trkpt lat="43.5600267" lon="11.640045"><ele>267.0</ele><time>2026-05-01T09:26:19.207Z</time></trkpt><trkpt lat="43.55999" lon="11.6399117"><ele>267.0</ele><time>2026-05-01T09:26:20.207Z</time></trkpt><trkpt lat="43.5599533" lon="11.6397867"><ele>266.6</ele><time>2026-05-01T09:26:21.207Z</time></trkpt><trkpt lat="43.5599167" lon="11.63966"><ele>266.2</ele><time>2026-05-01T09:26:22.205Z</time></trkpt><trkpt lat="43.559885" lon="11.639535"><ele>265.8</ele><time>2026-05-01T09:26:23.208Z</time></trkpt><trkpt lat="43.5598517" lon="11.6394083"><ele>265.4</ele><time>2026-05-01T09:26:24.207Z</time></trkpt><trkpt lat="43.559815" lon="11.6392817"><ele>265.0</ele><time>2026-05-01T09:26:25.207Z</time></trkpt><trkpt lat="43.5597783" lon="11.6391583"><ele>264.4</ele><time>2026-05-01T09:26:26.208Z</time></trkpt><trkpt lat="43.5597467" lon="11.639035"><ele>263.8</ele><time>2026-05-01T09:26:27.206Z</time></trkpt><trkpt lat="43.5597133" lon="11.6389133"><ele>263.2</ele><time>2026-05-01T09:26:28.208Z</time></trkpt><trkpt lat="43.5596783" lon="11.6387983"><ele>262.6</ele><time>2026-05-01T09:26:29.207Z</time></trkpt><trkpt lat="43.5596433" lon="11.638685"><ele>262.0</ele><time>2026-05-01T09:26:30.205Z</time></trkpt><trkpt lat="43.5596083" lon="11.6385733"><ele>262.0</ele><time>2026-05-01T09:26:31.206Z</time></trkpt><trkpt lat="43.5595783" lon="11.63846"><ele>262.0</ele><time>2026-05-01T09:26:32.208Z</time></trkpt><trkpt lat="43.559545" lon="11.6383467"><ele>262.0</ele><time>2026-05-01T09:26:33.208Z</time></trkpt><trkpt lat="43.5595133" lon="11.63823"><ele>262.0</ele><time>2026-05-01T09:26:34.206Z</time></trkpt><trkpt lat="43.5594817" lon="11.6381167"><ele>262.0</ele><time>2026-05-01T09:26:35.207Z</time></trkpt><trkpt lat="43.5594533" lon="11.638005"><ele>262.0</ele><time>2026-05-01T09:26:36.207Z</time></trkpt><trkpt lat="43.55943" lon="11.6378917"><ele>262.0</ele><time>2026-05-01T09:26:37.207Z</time></trkpt><trkpt lat="43.5594133" lon="11.6377833"><ele>262.0</ele><time>2026-05-01T09:26:38.209Z</time></trkpt><trkpt lat="43.5594" lon="11.637665"><ele>262.0</ele><time>2026-05-01T09:26:39.208Z</time></trkpt><trkpt lat="43.5593917" lon="11.6375483"><ele>262.0</ele><time>2026-05-01T09:26:40.21Z</time></trkpt><trkpt lat="43.55939" lon="11.6374383"><ele>262.0</ele><time>2026-05-01T09:26:41.207Z</time></trkpt><trkpt lat="43.55939" lon="11.6373283"><ele>262.0</ele><time>2026-05-01T09:26:42.207Z</time></trkpt><trkpt lat="43.55939" lon="11.6372067"><ele>262.0</ele><time>2026-05-01T09:26:43.206Z</time></trkpt><trkpt lat="43.5593917" lon="11.6370867"><ele>262.0</ele><time>2026-05-01T09:26:44.208Z</time></trkpt><trkpt lat="43.5593933" lon="11.6369667"><ele>262.0</ele><time>2026-05-01T09:26:45.209Z</time></trkpt><trkpt lat="43.5593933" lon="11.6368467"><ele>262.0</ele><time>2026-05-01T09:26:46.207Z</time></trkpt><trkpt lat="43.5593967" lon="11.6367317"><ele>262.0</ele><time>2026-05-01T09:26:47.207Z</time></trkpt><trkpt lat="43.5594" lon="11.636615"><ele>262.0</ele><time>2026-05-01T09:26:48.207Z</time></trkpt><trkpt lat="43.5594033" lon="11.6365"><ele>261.8333333333333</ele><time>2026-05-01T09:26:49.209Z</time></trkpt><trkpt lat="43.5594067" lon="11.6363883"><ele>261.66666666666663</ele><time>2026-05-01T09:26:50.209Z</time></trkpt><trkpt lat="43.5594117" lon="11.6362783"><ele>261.5</ele><time>2026-05-01T09:26:51.208Z</time></trkpt><trkpt lat="43.5594167" lon="11.6361717"><ele>261.3333333333333</ele><time>2026-05-01T09:26:52.208Z</time></trkpt><trkpt lat="43.55942" lon="11.6360633"><ele>261.1666666666667</ele><time>2026-05-01T09:26:53.212Z</time></trkpt><trkpt lat="43.5594233" lon="11.6359567"><ele>261.0</ele><time>2026-05-01T09:26:54.208Z</time></trkpt><trkpt lat="43.5594233" lon="11.63585"><ele>261.0</ele><time>2026-05-01T09:26:55.211Z</time></trkpt><trkpt lat="43.5594267" lon="11.63574"><ele>261.0</ele><time>2026-05-01T09:26:56.208Z</time></trkpt><trkpt lat="43.5594333" lon="11.6356233"><ele>261.0</ele><time>2026-05-01T09:26:57.209Z</time></trkpt><trkpt lat="43.559435" lon="11.6354917"><ele>261.0</ele><time>2026-05-01T09:26:58.209Z</time></trkpt><trkpt lat="43.5594433" lon="11.6353767"><ele>261.0</ele><time>2026-05-01T09:26:59.21Z</time></trkpt><trkpt lat="43.5594483" lon="11.6352583"><ele>261.0</ele><time>2026-05-01T09:27:00.209Z</time></trkpt><trkpt lat="43.5594483" lon="11.6351317"><ele>261.1666666666667</ele><time>2026-05-01T09:27:01.208Z</time></trkpt><trkpt lat="43.55945" lon="11.6350117"><ele>261.3333333333333</ele><time>2026-05-01T09:27:02.21Z</time></trkpt><trkpt lat="43.559455" lon="11.6348967"><ele>261.5</ele><time>2026-05-01T09:27:03.209Z</time></trkpt><trkpt lat="43.55946" lon="11.6347817"><ele>261.66666666666663</ele><time>2026-05-01T09:27:04.208Z</time></trkpt><trkpt lat="43.559465" lon="11.6346683"><ele>261.8333333333333</ele><time>2026-05-01T09:27:05.208Z</time></trkpt><trkpt lat="43.5594683" lon="11.6345533"><ele>262.0</ele><time>2026-05-01T09:27:06.21Z</time></trkpt><trkpt lat="43.5594717" lon="11.634445"><ele>261.5</ele><time>2026-05-01T09:27:07.209Z</time></trkpt><trkpt lat="43.559475" lon="11.6343333"><ele>261.0</ele><time>2026-05-01T09:27:08.21Z</time></trkpt><trkpt lat="43.5594767" lon="11.63422"><ele>260.5</ele><time>2026-05-01T09:27:09.209Z</time></trkpt><trkpt lat="43.5594783" lon="11.6341083"><ele>260.0</ele><time>2026-05-01T09:27:10.21Z</time></trkpt><trkpt lat="43.5594817" lon="11.6339917"><ele>259.5</ele><time>2026-05-01T09:27:11.209Z</time></trkpt><trkpt lat="43.559485" lon="11.6338783"><ele>259.0</ele><time>2026-05-01T09:27:12.207Z</time></trkpt><trkpt lat="43.55949" lon="11.6337683"><ele>259.0</ele><time>2026-05-01T09:27:13.208Z</time></trkpt><trkpt lat="43.559495" lon="11.6336517"><ele>259.0</ele><time>2026-05-01T09:27:14.209Z</time></trkpt><trkpt lat="43.5594967" lon="11.6335333"><ele>259.0</ele><time>2026-05-01T09:27:15.208Z</time></trkpt><trkpt lat="43.5594983" lon="11.633415"><ele>259.0</ele><time>2026-05-01T09:27:16.208Z</time></trkpt><trkpt lat="43.5595" lon="11.633295"><ele>259.0</ele><time>2026-05-01T09:27:17.207Z</time></trkpt><trkpt lat="43.5595033" lon="11.6331767"><ele>259.0</ele><time>2026-05-01T09:27:18.209Z</time></trkpt><trkpt lat="43.5595083" lon="11.6330617"><ele>258.8333333333333</ele><time>2026-05-01T09:27:19.207Z</time></trkpt><trkpt lat="43.5595117" lon="11.6329467"><ele>258.66666666666663</ele><time>2026-05-01T09:27:20.208Z</time></trkpt><trkpt lat="43.559515" lon="11.632835"><ele>258.5</ele><time>2026-05-01T09:27:21.209Z</time></trkpt><trkpt lat="43.55952" lon="11.6327267"><ele>258.3333333333333</ele><time>2026-05-01T09:27:22.205Z</time></trkpt><trkpt lat="43.5595233" lon="11.6326133"><ele>258.1666666666667</ele><time>2026-05-01T09:27:23.21Z</time></trkpt><trkpt lat="43.5595267" lon="11.6325"><ele>258.0</ele><time>2026-05-01T09:27:24.208Z</time></trkpt><trkpt lat="43.5595283" lon="11.6323867"><ele>258.0</ele><time>2026-05-01T09:27:25.208Z</time></trkpt><trkpt lat="43.55953" lon="11.6322717"><ele>258.0</ele><time>2026-05-01T09:27:26.205Z</time></trkpt><trkpt lat="43.55953" lon="11.632165"><ele>258.0</ele><time>2026-05-01T09:27:27.206Z</time></trkpt><trkpt lat="43.5595317" lon="11.6320633"><ele>258.0</ele><time>2026-05-01T09:27:28.207Z</time></trkpt><trkpt lat="43.559535" lon="11.6319567"><ele>258.0</ele><time>2026-05-01T09:27:29.21Z</time></trkpt><trkpt lat="43.559535" lon="11.6318417"><ele>258.0</ele><time>2026-05-01T09:27:30.206Z</time></trkpt><trkpt lat="43.559535" lon="11.6317283"><ele>258.3333333333333</ele><time>2026-05-01T09:27:31.208Z</time></trkpt><trkpt lat="43.5595367" lon="11.6316133"><ele>258.6666666666667</ele><time>2026-05-01T09:27:32.208Z</time></trkpt><trkpt lat="43.5595417" lon="11.6315033"><ele>259.0</ele><time>2026-05-01T09:27:33.207Z</time></trkpt><trkpt lat="43.5595467" lon="11.631395"><ele>259.33333333333337</ele><time>2026-05-01T09:27:34.207Z</time></trkpt><trkpt lat="43.5595517" lon="11.6312833"><ele>259.6666666666667</ele><time>2026-05-01T09:27:35.208Z</time></trkpt><trkpt lat="43.5595567" lon="11.63117"><ele>260.0</ele><time>2026-05-01T09:27:36.206Z</time></trkpt><trkpt lat="43.5595583" lon="11.63106"><ele>260.0</ele><time>2026-05-01T09:27:37.208Z</time></trkpt><trkpt lat="43.55956" lon="11.63095"><ele>260.0</ele><time>2026-05-01T09:27:38.207Z</time></trkpt><trkpt lat="43.5595617" lon="11.6308333"><ele>260.0</ele><time>2026-05-01T09:27:39.207Z</time></trkpt><trkpt lat="43.5595667" lon="11.63072"><ele>260.0</ele><time>2026-05-01T09:27:40.206Z</time></trkpt><trkpt lat="43.5595717" lon="11.6306"><ele>260.0</ele><time>2026-05-01T09:27:41.207Z</time></trkpt><trkpt lat="43.5595767" lon="11.6304833"><ele>260.0</ele><time>2026-05-01T09:27:42.207Z</time></trkpt><trkpt lat="43.5595783" lon="11.6303717"><ele>260.0</ele><time>2026-05-01T09:27:43.206Z</time></trkpt><trkpt lat="43.5595833" lon="11.630255"><ele>260.0</ele><time>2026-05-01T09:27:44.207Z</time></trkpt><trkpt lat="43.55959" lon="11.6301417"><ele>260.0</ele><time>2026-05-01T09:27:45.208Z</time></trkpt><trkpt lat="43.559595" lon="11.63003"><ele>260.0</ele><time>2026-05-01T09:27:46.207Z</time></trkpt><trkpt lat="43.559595" lon="11.6299233"><ele>260.0</ele><time>2026-05-01T09:27:47.209Z</time></trkpt><trkpt lat="43.5595983" lon="11.6298117"><ele>260.0</ele><time>2026-05-01T09:27:48.208Z</time></trkpt><trkpt lat="43.5596033" lon="11.6296933"><ele>260.0</ele><time>2026-05-01T09:27:49.205Z</time></trkpt><trkpt lat="43.5596083" lon="11.62958"><ele>260.0</ele><time>2026-05-01T09:27:50.209Z</time></trkpt><trkpt lat="43.5596133" lon="11.6294617"><ele>260.0</ele><time>2026-05-01T09:27:51.207Z</time></trkpt><trkpt lat="43.5596167" lon="11.6293467"><ele>260.0</ele><time>2026-05-01T09:27:52.208Z</time></trkpt><trkpt lat="43.55962" lon="11.6292317"><ele>260.0</ele><time>2026-05-01T09:27:53.207Z</time></trkpt><trkpt lat="43.5596233" lon="11.6291183"><ele>260.0</ele><time>2026-05-01T09:27:54.207Z</time></trkpt><trkpt lat="43.5596267" lon="11.6290067"><ele>259.5</ele><time>2026-05-01T09:27:55.208Z</time></trkpt><trkpt lat="43.5596333" lon="11.6288917"><ele>259.0</ele><time>2026-05-01T09:27:56.21Z</time></trkpt><trkpt lat="43.5596367" lon="11.628775"><ele>258.5</ele><time>2026-05-01T09:27:57.207Z</time></trkpt><trkpt lat="43.55964" lon="11.628665"><ele>258.0</ele><time>2026-05-01T09:27:58.21Z</time></trkpt><trkpt lat="43.5596417" lon="11.6285533"><ele>257.5</ele><time>2026-05-01T09:27:59.207Z</time></trkpt><trkpt lat="43.5596433" lon="11.62844"><ele>257.0</ele><time>2026-05-01T09:28:00.208Z</time></trkpt><trkpt lat="43.5596383" lon="11.6283283"><ele>257.0</ele><time>2026-05-01T09:28:01.207Z</time></trkpt><trkpt lat="43.5596317" lon="11.6282183"><ele>257.0</ele><time>2026-05-01T09:28:02.208Z</time></trkpt><trkpt lat="43.5596217" lon="11.628105"><ele>257.0</ele><time>2026-05-01T09:28:03.209Z</time></trkpt><trkpt lat="43.5596067" lon="11.6279967"><ele>257.0</ele><time>2026-05-01T09:28:04.207Z</time></trkpt><trkpt lat="43.5595917" lon="11.62789"><ele>257.0</ele><time>2026-05-01T09:28:05.208Z</time></trkpt><trkpt lat="43.5595733" lon="11.62779"><ele>257.0</ele><time>2026-05-01T09:28:06.208Z</time></trkpt><trkpt lat="43.5595517" lon="11.6276867"><ele>257.0</ele><time>2026-05-01T09:28:07.208Z</time></trkpt><trkpt lat="43.5595267" lon="11.6275833"><ele>257.0</ele><time>2026-05-01T09:28:08.209Z</time></trkpt><trkpt lat="43.5595" lon="11.6274833"><ele>257.0</ele><time>2026-05-01T09:28:09.208Z</time></trkpt><trkpt lat="43.55947" lon="11.6273833"><ele>257.0</ele><time>2026-05-01T09:28:10.207Z</time></trkpt><trkpt lat="43.55944" lon="11.6272833"><ele>257.0</ele><time>2026-05-01T09:28:11.208Z</time></trkpt><trkpt lat="43.559405" lon="11.6271817"><ele>257.0</ele><time>2026-05-01T09:28:12.207Z</time></trkpt><trkpt lat="43.5593733" lon="11.6270783"><ele>257.0</ele><time>2026-05-01T09:28:13.207Z</time></trkpt><trkpt lat="43.5593333" lon="11.6269867"><ele>257.0</ele><time>2026-05-01T09:28:14.21Z</time></trkpt><trkpt lat="43.5592933" lon="11.626885"><ele>257.0</ele><time>2026-05-01T09:28:15.21Z</time></trkpt><trkpt lat="43.5592583" lon="11.62678"><ele>257.0</ele><time>2026-05-01T09:28:16.207Z</time></trkpt><trkpt lat="43.5592267" lon="11.6266733"><ele>257.0</ele><time>2026-05-01T09:28:17.207Z</time></trkpt><trkpt lat="43.5591917" lon="11.6265683"><ele>257.0</ele><time>2026-05-01T09:28:18.207Z</time></trkpt><trkpt lat="43.5591583" lon="11.6264617"><ele>257.0</ele><time>2026-05-01T09:28:19.209Z</time></trkpt><trkpt lat="43.5591283" lon="11.626355"><ele>257.0</ele><time>2026-05-01T09:28:20.208Z</time></trkpt><trkpt lat="43.559105" lon="11.6262433"><ele>257.0</ele><time>2026-05-01T09:28:21.208Z</time></trkpt><trkpt lat="43.5590783" lon="11.6261283"><ele>257.0</ele><time>2026-05-01T09:28:22.207Z</time></trkpt><trkpt lat="43.5590567" lon="11.6260133"><ele>257.0</ele><time>2026-05-01T09:28:23.208Z</time></trkpt><trkpt lat="43.5590367" lon="11.6258967"><ele>257.0</ele><time>2026-05-01T09:28:24.207Z</time></trkpt><trkpt lat="43.5590233" lon="11.6257833"><ele>257.0</ele><time>2026-05-01T09:28:25.206Z</time></trkpt><trkpt lat="43.5590133" lon="11.625665"><ele>257.0</ele><time>2026-05-01T09:28:26.208Z</time></trkpt><trkpt lat="43.5590083" lon="11.62555"><ele>257.0</ele><time>2026-05-01T09:28:27.207Z</time></trkpt><trkpt lat="43.5590033" lon="11.625435"><ele>257.0</ele><time>2026-05-01T09:28:28.207Z</time></trkpt><trkpt lat="43.559" lon="11.6253133"><ele>257.0</ele><time>2026-05-01T09:28:29.207Z</time></trkpt><trkpt lat="43.5589983" lon="11.6251917"><ele>257.0</ele><time>2026-05-01T09:28:30.207Z</time></trkpt><trkpt lat="43.5589967" lon="11.62507"><ele>257.0</ele><time>2026-05-01T09:28:31.207Z</time></trkpt><trkpt lat="43.5589917" lon="11.6249517"><ele>257.0</ele><time>2026-05-01T09:28:32.207Z</time></trkpt><trkpt lat="43.5589883" lon="11.6248317"><ele>257.0</ele><time>2026-05-01T09:28:33.207Z</time></trkpt><trkpt lat="43.5589817" lon="11.6247167"><ele>257.0</ele><time>2026-05-01T09:28:34.207Z</time></trkpt><trkpt lat="43.558975" lon="11.6246"><ele>257.0</ele><time>2026-05-01T09:28:35.207Z</time></trkpt><trkpt lat="43.5589617" lon="11.6244917"><ele>257.0</ele><time>2026-05-01T09:28:36.207Z</time></trkpt><trkpt lat="43.5589417" lon="11.6243817"><ele>257.0</ele><time>2026-05-01T09:28:37.207Z</time></trkpt><trkpt lat="43.5589117" lon="11.624275"><ele>257.0</ele><time>2026-05-01T09:28:38.209Z</time></trkpt><trkpt lat="43.5588733" lon="11.6241733"><ele>257.0</ele><time>2026-05-01T09:28:39.207Z</time></trkpt><trkpt lat="43.5588283" lon="11.624085"><ele>257.0</ele><time>2026-05-01T09:28:40.207Z</time></trkpt><trkpt lat="43.558775" lon="11.6240067"><ele>257.0</ele><time>2026-05-01T09:28:41.208Z</time></trkpt><trkpt lat="43.5587133" lon="11.6239333"><ele>257.0</ele><time>2026-05-01T09:28:42.208Z</time></trkpt><trkpt lat="43.5586467" lon="11.6238683"><ele>256.6666666666667</ele><time>2026-05-01T09:28:43.209Z</time></trkpt><trkpt lat="43.5585733" lon="11.623805"><ele>256.33333333333337</ele><time>2026-05-01T09:28:44.209Z</time></trkpt><trkpt lat="43.5584967" lon="11.6237517"><ele>256.0</ele><time>2026-05-01T09:28:45.21Z</time></trkpt><trkpt lat="43.5584183" lon="11.6237033"><ele>255.66666666666669</ele><time>2026-05-01T09:28:46.208Z</time></trkpt><trkpt lat="43.55834" lon="11.6236583"><ele>255.33333333333334</ele><time>2026-05-01T09:28:47.208Z</time></trkpt><trkpt lat="43.5582617" lon="11.6236167"><ele>255.0</ele><time>2026-05-01T09:28:48.208Z</time></trkpt><trkpt lat="43.55818" lon="11.6235683"><ele>255.0</ele><time>2026-05-01T09:28:49.207Z</time></trkpt><trkpt lat="43.5580967" lon="11.623515"><ele>255.0</ele><time>2026-05-01T09:28:50.209Z</time></trkpt><trkpt lat="43.5580133" lon="11.623455"><ele>255.0</ele><time>2026-05-01T09:28:51.207Z</time></trkpt><trkpt lat="43.5579283" lon="11.6233833"><ele>255.0</ele><time>2026-05-01T09:28:52.208Z</time></trkpt><trkpt lat="43.55785" lon="11.62331"><ele>255.0</ele><time>2026-05-01T09:28:53.207Z</time></trkpt><trkpt lat="43.55777" lon="11.6232317"><ele>254.6</ele><time>2026-05-01T09:28:54.206Z</time></trkpt><trkpt lat="43.5576933" lon="11.6231483"><ele>254.2</ele><time>2026-05-01T09:28:55.208Z</time></trkpt><trkpt lat="43.55762" lon="11.623065"><ele>253.8</ele><time>2026-05-01T09:28:56.209Z</time></trkpt><trkpt lat="43.55755" lon="11.6229733"><ele>253.4</ele><time>2026-05-01T09:28:57.207Z</time></trkpt><trkpt lat="43.55749" lon="11.6228733"><ele>253.0</ele><time>2026-05-01T09:28:58.209Z</time></trkpt><trkpt lat="43.5574367" lon="11.6227717"><ele>252.99999999999997</ele><time>2026-05-01T09:28:59.207Z</time></trkpt><trkpt lat="43.5573933" lon="11.6226683"><ele>253.0</ele><time>2026-05-01T09:29:00.209Z</time></trkpt><trkpt lat="43.557355" lon="11.6225617"><ele>253.0</ele><time>2026-05-01T09:29:01.209Z</time></trkpt><trkpt lat="43.5573233" lon="11.6224583"><ele>253.0</ele><time>2026-05-01T09:29:02.208Z</time></trkpt><trkpt lat="43.557295" lon="11.62236"><ele>252.99999999999997</ele><time>2026-05-01T09:29:03.209Z</time></trkpt><trkpt lat="43.5572717" lon="11.6222667"><ele>253.0</ele><time>2026-05-01T09:29:04.207Z</time></trkpt><trkpt lat="43.5572533" lon="11.6221733"><ele>253.00000000000003</ele><time>2026-05-01T09:29:05.207Z</time></trkpt><trkpt lat="43.557235" lon="11.6220833"><ele>253.0</ele><time>2026-05-01T09:29:06.208Z</time></trkpt><trkpt lat="43.557215" lon="11.6219883"><ele>253.00000000000003</ele><time>2026-05-01T09:29:07.209Z</time></trkpt><trkpt lat="43.5572033" lon="11.62189"><ele>253.00000000000003</ele><time>2026-05-01T09:29:08.206Z</time></trkpt><trkpt lat="43.557195" lon="11.6217933"><ele>253.0</ele><time>2026-05-01T09:29:09.209Z</time></trkpt><trkpt lat="43.55719" lon="11.6216967"><ele>253.00000000000003</ele><time>2026-05-01T09:29:10.207Z</time></trkpt><trkpt lat="43.557185" lon="11.621595"><ele>253.00000000000003</ele><time>2026-05-01T09:29:11.21Z</time></trkpt><trkpt lat="43.55718" lon="11.6214933"><ele>253.00000000000003</ele><time>2026-05-01T09:29:12.209Z</time></trkpt><trkpt lat="43.5571733" lon="11.6213967"><ele>253.0</ele><time>2026-05-01T09:29:13.209Z</time></trkpt><trkpt lat="43.5571667" lon="11.6213"><ele>253.00000000000003</ele><time>2026-05-01T09:29:14.208Z</time></trkpt><trkpt lat="43.5571583" lon="11.6212033"><ele>253.00000000000003</ele><time>2026-05-01T09:29:15.207Z</time></trkpt><trkpt lat="43.5571517" lon="11.621105"><ele>253.0</ele><time>2026-05-01T09:29:16.207Z</time></trkpt><trkpt lat="43.5571417" lon="11.6210067"><ele>253.00000000000003</ele><time>2026-05-01T09:29:17.208Z</time></trkpt><trkpt lat="43.557135" lon="11.6209"><ele>253.00000000000003</ele><time>2026-05-01T09:29:18.208Z</time></trkpt><trkpt lat="43.5571267" lon="11.6207967"><ele>253.14285714285717</ele><time>2026-05-01T09:29:19.209Z</time></trkpt><trkpt lat="43.5571167" lon="11.6207017"><ele>253.28571428571428</ele><time>2026-05-01T09:29:20.207Z</time></trkpt><trkpt lat="43.5571083" lon="11.6206083"><ele>253.42857142857144</ele><time>2026-05-01T09:29:21.209Z</time></trkpt><trkpt lat="43.5571017" lon="11.6205117"><ele>253.57142857142858</ele><time>2026-05-01T09:29:22.208Z</time></trkpt><trkpt lat="43.5570917" lon="11.6204133"><ele>253.71428571428572</ele><time>2026-05-01T09:29:23.208Z</time></trkpt><trkpt lat="43.55708" lon="11.620315"><ele>253.85714285714286</ele><time>2026-05-01T09:29:24.208Z</time></trkpt><trkpt lat="43.5570667" lon="11.6202167"><ele>254.0</ele><time>2026-05-01T09:29:25.207Z</time></trkpt><trkpt lat="43.5570567" lon="11.6201167"><ele>254.00000000000003</ele><time>2026-05-01T09:29:26.208Z</time></trkpt><trkpt lat="43.5570467" lon="11.620015"><ele>254.0</ele><time>2026-05-01T09:29:27.207Z</time></trkpt><trkpt lat="43.5570333" lon="11.61991"><ele>254.0</ele><time>2026-05-01T09:29:28.208Z</time></trkpt><trkpt lat="43.55702" lon="11.6198033"><ele>254.0</ele><time>2026-05-01T09:29:29.207Z</time></trkpt><trkpt lat="43.557005" lon="11.6197017"><ele>254.00000000000003</ele><time>2026-05-01T09:29:30.207Z</time></trkpt><trkpt lat="43.5569833" lon="11.6196033"><ele>254.0</ele><time>2026-05-01T09:29:31.207Z</time></trkpt><trkpt lat="43.556955" lon="11.61951"><ele>254.14285714285717</ele><time>2026-05-01T09:29:32.208Z</time></trkpt><trkpt lat="43.5569233" lon="11.6194233"><ele>254.28571428571428</ele><time>2026-05-01T09:29:33.207Z</time></trkpt><trkpt lat="43.5568867" lon="11.6193367"><ele>254.42857142857144</ele><time>2026-05-01T09:29:34.208Z</time></trkpt><trkpt lat="43.5568467" lon="11.6192467"><ele>254.57142857142858</ele><time>2026-05-01T09:29:35.208Z</time></trkpt><trkpt lat="43.5568083" lon="11.6191583"><ele>254.71428571428572</ele><time>2026-05-01T09:29:36.208Z</time></trkpt><trkpt lat="43.5567667" lon="11.6190733"><ele>254.85714285714286</ele><time>2026-05-01T09:29:37.21Z</time></trkpt><trkpt lat="43.556725" lon="11.6189883"><ele>255.0</ele><time>2026-05-01T09:29:38.209Z</time></trkpt><trkpt lat="43.556685" lon="11.6189033"><ele>255.0</ele><time>2026-05-01T09:29:39.209Z</time></trkpt><trkpt lat="43.556645" lon="11.6188217"><ele>255.0</ele><time>2026-05-01T09:29:40.209Z</time></trkpt><trkpt lat="43.556605" lon="11.618735"><ele>255.0</ele><time>2026-05-01T09:29:41.211Z</time></trkpt><trkpt lat="43.5565633" lon="11.618645"><ele>255.0</ele><time>2026-05-01T09:29:42.21Z</time></trkpt><trkpt lat="43.55652" lon="11.6185517"><ele>255.0</ele><time>2026-05-01T09:29:43.21Z</time></trkpt><trkpt lat="43.556475" lon="11.6184567"><ele>255.0</ele><time>2026-05-01T09:29:44.208Z</time></trkpt><trkpt lat="43.5564317" lon="11.6183633"><ele>255.16666666666666</ele><time>2026-05-01T09:29:45.211Z</time></trkpt><trkpt lat="43.5563867" lon="11.61827"><ele>255.33333333333331</ele><time>2026-05-01T09:29:46.209Z</time></trkpt><trkpt lat="43.5563417" lon="11.6181783"><ele>255.5</ele><time>2026-05-01T09:29:47.211Z</time></trkpt><trkpt lat="43.5562967" lon="11.618085"><ele>255.66666666666666</ele><time>2026-05-01T09:29:48.21Z</time></trkpt><trkpt lat="43.5562533" lon="11.617995"><ele>255.83333333333331</ele><time>2026-05-01T09:29:49.207Z</time></trkpt><trkpt lat="43.5562133" lon="11.617905"><ele>256.0</ele><time>2026-05-01T09:29:50.209Z</time></trkpt><trkpt lat="43.556175" lon="11.6178133"><ele>255.49999999999997</ele><time>2026-05-01T09:29:51.206Z</time></trkpt><trkpt lat="43.5561333" lon="11.6177183"><ele>255.0</ele><time>2026-05-01T09:29:52.207Z</time></trkpt><trkpt lat="43.5560933" lon="11.6176283"><ele>254.5</ele><time>2026-05-01T09:29:53.209Z</time></trkpt><trkpt lat="43.5560517" lon="11.6175417"><ele>254.0</ele><time>2026-05-01T09:29:54.207Z</time></trkpt><trkpt lat="43.5560133" lon="11.6174517"><ele>253.49999999999997</ele><time>2026-05-01T09:29:55.207Z</time></trkpt><trkpt lat="43.5559717" lon="11.617365"><ele>253.0</ele><time>2026-05-01T09:29:56.208Z</time></trkpt><trkpt lat="43.5559317" lon="11.6172717"><ele>252.99999999999997</ele><time>2026-05-01T09:29:57.207Z</time></trkpt><trkpt lat="43.55589" lon="11.6171783"><ele>253.0</ele><time>2026-05-01T09:29:58.207Z</time></trkpt><trkpt lat="43.5558467" lon="11.617085"><ele>253.0</ele><time>2026-05-01T09:29:59.208Z</time></trkpt><trkpt lat="43.5558033" lon="11.6169883"><ele>253.0</ele><time>2026-05-01T09:30:00.208Z</time></trkpt><trkpt lat="43.5557617" lon="11.6168933"><ele>252.99999999999997</ele><time>2026-05-01T09:30:01.209Z</time></trkpt><trkpt lat="43.5557183" lon="11.6168017"><ele>253.0</ele><time>2026-05-01T09:30:02.209Z</time></trkpt><trkpt lat="43.5556733" lon="11.6167083"><ele>253.2</ele><time>2026-05-01T09:30:03.208Z</time></trkpt><trkpt lat="43.5556283" lon="11.6166117"><ele>253.4</ele><time>2026-05-01T09:30:04.207Z</time></trkpt><trkpt lat="43.5555817" lon="11.6165083"><ele>253.59999999999997</ele><time>2026-05-01T09:30:05.208Z</time></trkpt><trkpt lat="43.55553" lon="11.6163967"><ele>253.79999999999998</ele><time>2026-05-01T09:30:06.208Z</time></trkpt><trkpt lat="43.5554767" lon="11.6162817"><ele>254.0</ele><time>2026-05-01T09:30:07.208Z</time></trkpt><trkpt lat="43.5554233" lon="11.6161633"><ele>253.6</ele><time>2026-05-01T09:30:08.209Z</time></trkpt><trkpt lat="43.5553717" lon="11.61604"><ele>253.2</ele><time>2026-05-01T09:30:09.207Z</time></trkpt><trkpt lat="43.5553183" lon="11.6159117"><ele>252.79999999999998</ele><time>2026-05-01T09:30:10.208Z</time></trkpt><trkpt lat="43.55526" lon="11.6157783"><ele>252.39999999999998</ele><time>2026-05-01T09:30:11.207Z</time></trkpt><trkpt lat="43.5552017" lon="11.615635"><ele>252.0</ele><time>2026-05-01T09:30:12.207Z</time></trkpt><trkpt lat="43.5551383" lon="11.61549"><ele>250.25</ele><time>2026-05-01T09:30:13.209Z</time></trkpt><trkpt lat="43.5550717" lon="11.615345"><ele>248.5</ele><time>2026-05-01T09:30:14.209Z</time></trkpt><trkpt lat="43.5550067" lon="11.615205"><ele>246.75</ele><time>2026-05-01T09:30:15.207Z</time></trkpt><trkpt lat="43.5549367" lon="11.61507"><ele>245.0</ele><time>2026-05-01T09:30:16.207Z</time></trkpt><trkpt lat="43.5548533" lon="11.61494"><ele>244.5</ele><time>2026-05-01T09:30:17.206Z</time></trkpt><trkpt lat="43.5547617" lon="11.614825"><ele>244.0</ele><time>2026-05-01T09:30:18.207Z</time></trkpt><trkpt lat="43.5546617" lon="11.6147233"><ele>243.5</ele><time>2026-05-01T09:30:19.206Z</time></trkpt><trkpt lat="43.554555" lon="11.6146417"><ele>243.0</ele><time>2026-05-01T09:30:20.206Z</time></trkpt><trkpt lat="43.55444" lon="11.6145817"><ele>242.0</ele><time>2026-05-01T09:30:21.205Z</time></trkpt><trkpt lat="43.5543267" lon="11.6145433"><ele>241.0</ele><time>2026-05-01T09:30:22.205Z</time></trkpt><trkpt lat="43.5542117" lon="11.6145283"><ele>240.0</ele><time>2026-05-01T09:30:23.206Z</time></trkpt><trkpt lat="43.5540967" lon="11.61453"><ele>239.0</ele><time>2026-05-01T09:30:24.206Z</time></trkpt><trkpt lat="43.5539817" lon="11.61455"><ele>239.0</ele><time>2026-05-01T09:30:25.207Z</time></trkpt><trkpt lat="43.5538767" lon="11.6145883"><ele>238.99999999999997</ele><time>2026-05-01T09:30:26.209Z</time></trkpt><trkpt lat="43.5537783" lon="11.61464"><ele>238.99999999999997</ele><time>2026-05-01T09:30:27.207Z</time></trkpt><trkpt lat="43.5536833" lon="11.6147017"><ele>239.0</ele><time>2026-05-01T09:30:28.206Z</time></trkpt><trkpt lat="43.5535933" lon="11.6147733"><ele>239.0</ele><time>2026-05-01T09:30:29.207Z</time></trkpt><trkpt lat="43.5535067" lon="11.6148533"><ele>238.79999999999998</ele><time>2026-05-01T09:30:30.21Z</time></trkpt><trkpt lat="43.5534183" lon="11.6149383"><ele>238.59999999999997</ele><time>2026-05-01T09:30:31.207Z</time></trkpt><trkpt lat="43.5533267" lon="11.6150217"><ele>238.4</ele><time>2026-05-01T09:30:32.207Z</time></trkpt><trkpt lat="43.5532367" lon="11.615105"><ele>238.2</ele><time>2026-05-01T09:30:33.208Z</time></trkpt><trkpt lat="43.5531467" lon="11.615185"><ele>238.0</ele><time>2026-05-01T09:30:34.208Z</time></trkpt><trkpt lat="43.5530567" lon="11.6152633"><ele>237.8</ele><time>2026-05-01T09:30:35.208Z</time></trkpt><trkpt lat="43.5529667" lon="11.6153417"><ele>237.60000000000002</ele><time>2026-05-01T09:30:36.208Z</time></trkpt><trkpt lat="43.552875" lon="11.61542"><ele>237.39999999999998</ele><time>2026-05-01T09:30:37.208Z</time></trkpt><trkpt lat="43.5527817" lon="11.6155033"><ele>237.2</ele><time>2026-05-01T09:30:38.208Z</time></trkpt><trkpt lat="43.5526833" lon="11.6155867"><ele>237.0</ele><time>2026-05-01T09:30:39.207Z</time></trkpt><trkpt lat="43.5525817" lon="11.6156667"><ele>237.0</ele><time>2026-05-01T09:30:40.207Z</time></trkpt><trkpt lat="43.5524733" lon="11.61574"><ele>237.0</ele><time>2026-05-01T09:30:41.208Z</time></trkpt><trkpt lat="43.552365" lon="11.6158083"><ele>237.0</ele><time>2026-05-01T09:30:42.209Z</time></trkpt><trkpt lat="43.552255" lon="11.6158733"><ele>237.0</ele><time>2026-05-01T09:30:43.208Z</time></trkpt><trkpt lat="43.55214" lon="11.61594"><ele>237.5</ele><time>2026-05-01T09:30:44.21Z</time></trkpt><trkpt lat="43.552025" lon="11.6160083"><ele>238.0</ele><time>2026-05-01T09:30:45.207Z</time></trkpt><trkpt lat="43.55192" lon="11.616075"><ele>238.5</ele><time>2026-05-01T09:30:46.209Z</time></trkpt><trkpt lat="43.5518083" lon="11.6161383"><ele>239.0</ele><time>2026-05-01T09:30:47.209Z</time></trkpt><trkpt lat="43.5516967" lon="11.6161983"><ele>239.0</ele><time>2026-05-01T09:30:48.208Z</time></trkpt><trkpt lat="43.5515867" lon="11.61626"><ele>239.0</ele><time>2026-05-01T09:30:49.208Z</time></trkpt><trkpt lat="43.55149" lon="11.61632"><ele>239.0</ele><time>2026-05-01T09:30:50.209Z</time></trkpt><trkpt lat="43.5513867" lon="11.6163767"><ele>239.0</ele><time>2026-05-01T09:30:51.207Z</time></trkpt><trkpt lat="43.5512767" lon="11.6164267"><ele>237.79999999999998</ele><time>2026-05-01T09:30:52.209Z</time></trkpt><trkpt lat="43.5511667" lon="11.6164633"><ele>236.59999999999997</ele><time>2026-05-01T09:30:53.209Z</time></trkpt><trkpt lat="43.55106" lon="11.6164817"><ele>235.4</ele><time>2026-05-01T09:30:54.208Z</time></trkpt><trkpt lat="43.5509533" lon="11.6164733"><ele>234.2</ele><time>2026-05-01T09:30:55.205Z</time></trkpt><trkpt lat="43.5508467" lon="11.6164367"><ele>233.0</ele><time>2026-05-01T09:30:56.209Z</time></trkpt><trkpt lat="43.5507483" lon="11.6163733"><ele>233.0</ele><time>2026-05-01T09:30:57.208Z</time></trkpt><trkpt lat="43.55066" lon="11.6162833"><ele>233.0</ele><time>2026-05-01T09:30:58.208Z</time></trkpt><trkpt lat="43.550585" lon="11.6161717"><ele>233.0</ele><time>2026-05-01T09:30:59.207Z</time></trkpt><trkpt lat="43.5505283" lon="11.6160483"><ele>233.0</ele><time>2026-05-01T09:31:00.207Z</time></trkpt><trkpt lat="43.5504883" lon="11.6159067"><ele>233.0</ele><time>2026-05-01T09:31:01.207Z</time></trkpt><trkpt lat="43.5504683" lon="11.6157567"><ele>232.25</ele><time>2026-05-01T09:31:02.208Z</time></trkpt><trkpt lat="43.5504733" lon="11.615605"><ele>231.5</ele><time>2026-05-01T09:31:03.207Z</time></trkpt><trkpt lat="43.5504967" lon="11.6154483"><ele>230.75</ele><time>2026-05-01T09:31:04.208Z</time></trkpt><trkpt lat="43.5505383" lon="11.615295"><ele>230.0</ele><time>2026-05-01T09:31:05.21Z</time></trkpt><trkpt lat="43.550595" lon="11.6151517"><ele>228.75</ele><time>2026-05-01T09:31:06.208Z</time></trkpt><trkpt lat="43.5506683" lon="11.6150233"><ele>227.5</ele><time>2026-05-01T09:31:07.209Z</time></trkpt><trkpt lat="43.5507567" lon="11.6149067"><ele>226.25</ele><time>2026-05-01T09:31:08.209Z</time></trkpt><trkpt lat="43.5508533" lon="11.6148033"><ele>225.0</ele><time>2026-05-01T09:31:09.208Z</time></trkpt><trkpt lat="43.5509583" lon="11.6147017"><ele>225.0</ele><time>2026-05-01T09:31:10.209Z</time></trkpt><trkpt lat="43.5510667" lon="11.6146033"><ele>225.0</ele><time>2026-05-01T09:31:11.209Z</time></trkpt><trkpt lat="43.5511717" lon="11.6145033"><ele>225.0</ele><time>2026-05-01T09:31:12.208Z</time></trkpt><trkpt lat="43.5512783" lon="11.6144083"><ele>225.0</ele><time>2026-05-01T09:31:13.207Z</time></trkpt><trkpt lat="43.5513833" lon="11.61431"><ele>225.25</ele><time>2026-05-01T09:31:14.208Z</time></trkpt><trkpt lat="43.5514867" lon="11.6142117"><ele>225.5</ele><time>2026-05-01T09:31:15.208Z</time></trkpt><trkpt lat="43.5515767" lon="11.6141083"><ele>225.75</ele><time>2026-05-01T09:31:16.207Z</time></trkpt><trkpt lat="43.5516583" lon="11.6139883"><ele>226.0</ele><time>2026-05-01T09:31:17.209Z</time></trkpt><trkpt lat="43.551725" lon="11.6138467"><ele>226.0</ele><time>2026-05-01T09:31:18.209Z</time></trkpt><trkpt lat="43.5517733" lon="11.6136817"><ele>226.0</ele><time>2026-05-01T09:31:19.208Z</time></trkpt><trkpt lat="43.551805" lon="11.61351"><ele>226.0</ele><time>2026-05-01T09:31:20.208Z</time></trkpt><trkpt lat="43.5518267" lon="11.613335"><ele>226.0</ele><time>2026-05-01T09:31:21.207Z</time></trkpt><trkpt lat="43.5518417" lon="11.6131517"><ele>223.25</ele><time>2026-05-01T09:31:22.207Z</time></trkpt><trkpt lat="43.5518567" lon="11.6129617"><ele>220.5</ele><time>2026-05-01T09:31:23.209Z</time></trkpt><trkpt lat="43.551875" lon="11.6127633"><ele>217.75</ele><time>2026-05-01T09:31:24.208Z</time></trkpt><trkpt lat="43.5518867" lon="11.6125617"><ele>215.0</ele><time>2026-05-01T09:31:25.207Z</time></trkpt><trkpt lat="43.5519017" lon="11.6123567"><ele>211.33333333333334</ele><time>2026-05-01T09:31:26.207Z</time></trkpt><trkpt lat="43.5519133" lon="11.6121483"><ele>207.66666666666669</ele><time>2026-05-01T09:31:27.208Z</time></trkpt><trkpt lat="43.55193" lon="11.6119433"><ele>204.0</ele><time>2026-05-01T09:31:28.208Z</time></trkpt><trkpt lat="43.5519467" lon="11.611735"><ele>200.66666666666669</ele><time>2026-05-01T09:31:29.207Z</time></trkpt><trkpt lat="43.5519667" lon="11.6115233"><ele>197.33333333333334</ele><time>2026-05-01T09:31:30.208Z</time></trkpt><trkpt lat="43.5519883" lon="11.6113067"><ele>194.0</ele><time>2026-05-01T09:31:31.208Z</time></trkpt><trkpt lat="43.55201" lon="11.61109"><ele>192.33333333333334</ele><time>2026-05-01T09:31:32.209Z</time></trkpt><trkpt lat="43.5520383" lon="11.6108767"><ele>190.66666666666669</ele><time>2026-05-01T09:31:33.207Z</time></trkpt><trkpt lat="43.5520733" lon="11.610665"><ele>189.0</ele><time>2026-05-01T09:31:34.207Z</time></trkpt><trkpt lat="43.55211" lon="11.61045"><ele>194.66666666666669</ele><time>2026-05-01T09:31:35.207Z</time></trkpt><trkpt lat="43.5521517" lon="11.6102317"><ele>200.33333333333334</ele><time>2026-05-01T09:31:36.206Z</time></trkpt><trkpt lat="43.5521933" lon="11.6100167"><ele>206.0</ele><time>2026-05-01T09:31:37.206Z</time></trkpt><trkpt lat="43.5522333" lon="11.609805"><ele>206.0</ele><time>2026-05-01T09:31:38.209Z</time></trkpt><trkpt lat="43.5522733" lon="11.60959"><ele>206.0</ele><time>2026-05-01T09:31:39.207Z</time></trkpt><trkpt lat="43.5523133" lon="11.6093717"><ele>206.0</ele><time>2026-05-01T09:31:40.207Z</time></trkpt><trkpt lat="43.552355" lon="11.609155"><ele>203.33333333333334</ele><time>2026-05-01T09:31:41.207Z</time></trkpt><trkpt lat="43.5523967" lon="11.6089383"><ele>200.66666666666669</ele><time>2026-05-01T09:31:42.209Z</time></trkpt><trkpt lat="43.552435" lon="11.6087217"><ele>198.0</ele><time>2026-05-01T09:31:43.207Z</time></trkpt><trkpt lat="43.5524783" lon="11.6085067"><ele>195.0</ele><time>2026-05-01T09:31:44.21Z</time></trkpt><trkpt lat="43.5525283" lon="11.6083017"><ele>192.0</ele><time>2026-05-01T09:31:45.209Z</time></trkpt><trkpt lat="43.55259" lon="11.6081"><ele>189.0</ele><time>2026-05-01T09:31:46.207Z</time></trkpt><trkpt lat="43.5526633" lon="11.6079033"><ele>191.33333333333331</ele><time>2026-05-01T09:31:47.207Z</time></trkpt><trkpt lat="43.5527467" lon="11.6077117"><ele>193.66666666666666</ele><time>2026-05-01T09:31:48.208Z</time></trkpt><trkpt lat="43.5528367" lon="11.6075233"><ele>196.0</ele><time>2026-05-01T09:31:49.207Z</time></trkpt><trkpt lat="43.55293" lon="11.6073367"><ele>196.0</ele><time>2026-05-01T09:31:50.208Z</time></trkpt><trkpt lat="43.5530217" lon="11.6071517"><ele>196.0</ele><time>2026-05-01T09:31:51.209Z</time></trkpt><trkpt lat="43.5531083" lon="11.6069683"><ele>196.0</ele><time>2026-05-01T09:31:52.21Z</time></trkpt><trkpt lat="43.5531867" lon="11.6067783"><ele>190.33333333333331</ele><time>2026-05-01T09:31:53.21Z</time></trkpt><trkpt lat="43.5532583" lon="11.60658"><ele>184.66666666666666</ele><time>2026-05-01T09:31:54.208Z</time></trkpt><trkpt lat="43.55332" lon="11.606375"><ele>179.0</ele><time>2026-05-01T09:31:55.208Z</time></trkpt><trkpt lat="43.5533683" lon="11.60617"><ele>177.66666666666666</ele><time>2026-05-01T09:31:56.207Z</time></trkpt><trkpt lat="43.5534133" lon="11.6059617"><ele>176.33333333333334</ele><time>2026-05-01T09:31:57.208Z</time></trkpt><trkpt lat="43.5534583" lon="11.6057533"><ele>175.0</ele><time>2026-05-01T09:31:58.208Z</time></trkpt><trkpt lat="43.5534983" lon="11.6055567"><ele>175.0</ele><time>2026-05-01T09:31:59.206Z</time></trkpt><trkpt lat="43.5535367" lon="11.6053717"><ele>175.0</ele><time>2026-05-01T09:32:00.205Z</time></trkpt><trkpt lat="43.553575" lon="11.60519"><ele>175.0</ele><time>2026-05-01T09:32:01.207Z</time></trkpt><trkpt lat="43.55361" lon="11.605015"><ele>175.0</ele><time>2026-05-01T09:32:02.207Z</time></trkpt><trkpt lat="43.5536467" lon="11.6048367"><ele>175.5</ele><time>2026-05-01T09:32:03.207Z</time></trkpt><trkpt lat="43.5536833" lon="11.604665"><ele>176.0</ele><time>2026-05-01T09:32:04.205Z</time></trkpt><trkpt lat="43.5537183" lon="11.6045067"><ele>176.5</ele><time>2026-05-01T09:32:05.206Z</time></trkpt><trkpt lat="43.5537483" lon="11.6043583"><ele>177.0</ele><time>2026-05-01T09:32:06.207Z</time></trkpt><trkpt lat="43.5537767" lon="11.6042067"><ele>177.0</ele><time>2026-05-01T09:32:07.207Z</time></trkpt><trkpt lat="43.55381" lon="11.6040583"><ele>177.0</ele><time>2026-05-01T09:32:08.208Z</time></trkpt><trkpt lat="43.5538383" lon="11.6039117"><ele>177.0</ele><time>2026-05-01T09:32:09.209Z</time></trkpt><trkpt lat="43.55387" lon="11.6037617"><ele>177.0</ele><time>2026-05-01T09:32:10.207Z</time></trkpt><trkpt lat="43.5539033" lon="11.6036117"><ele>177.0</ele><time>2026-05-01T09:32:11.207Z</time></trkpt><trkpt lat="43.5539383" lon="11.603455"><ele>175.25</ele><time>2026-05-01T09:32:12.207Z</time></trkpt><trkpt lat="43.5539683" lon="11.6033033"><ele>173.5</ele><time>2026-05-01T09:32:13.209Z</time></trkpt><trkpt lat="43.5539967" lon="11.6031517"><ele>171.75</ele><time>2026-05-01T09:32:14.208Z</time></trkpt><trkpt lat="43.5540267" lon="11.602995"><ele>170.0</ele><time>2026-05-01T09:32:15.207Z</time></trkpt><trkpt lat="43.5540567" lon="11.6028433"><ele>169.25</ele><time>2026-05-01T09:32:16.207Z</time></trkpt><trkpt lat="43.5540917" lon="11.6026883"><ele>168.5</ele><time>2026-05-01T09:32:17.208Z</time></trkpt><trkpt lat="43.554125" lon="11.602535"><ele>167.75</ele><time>2026-05-01T09:32:18.207Z</time></trkpt><trkpt lat="43.5541683" lon="11.60239"><ele>167.0</ele><time>2026-05-01T09:32:19.207Z</time></trkpt><trkpt lat="43.5542217" lon="11.6022567"><ele>167.0</ele><time>2026-05-01T09:32:20.207Z</time></trkpt><trkpt lat="43.5542867" lon="11.6021217"><ele>167.0</ele><time>2026-05-01T09:32:21.208Z</time></trkpt><trkpt lat="43.5543567" lon="11.601995"><ele>167.0</ele><time>2026-05-01T09:32:22.207Z</time></trkpt><trkpt lat="43.5544333" lon="11.6018733"><ele>167.0</ele><time>2026-05-01T09:32:23.207Z</time></trkpt><trkpt lat="43.5545167" lon="11.60175"><ele>167.6</ele><time>2026-05-01T09:32:24.208Z</time></trkpt><trkpt lat="43.5545933" lon="11.60163"><ele>168.2</ele><time>2026-05-01T09:32:25.208Z</time></trkpt><trkpt lat="43.554665" lon="11.60152"><ele>168.8</ele><time>2026-05-01T09:32:26.207Z</time></trkpt><trkpt lat="43.5547367" lon="11.601415"><ele>169.4</ele><time>2026-05-01T09:32:27.209Z</time></trkpt><trkpt lat="43.5548017" lon="11.6013167"><ele>170.0</ele><time>2026-05-01T09:32:28.207Z</time></trkpt><trkpt lat="43.5548633" lon="11.60122"><ele>168.66666666666666</ele><time>2026-05-01T09:32:29.207Z</time></trkpt><trkpt lat="43.55492" lon="11.60113"><ele>167.33333333333331</ele><time>2026-05-01T09:32:30.207Z</time></trkpt><trkpt lat="43.5549817" lon="11.6010333"><ele>166.0</ele><time>2026-05-01T09:32:31.207Z</time></trkpt><trkpt lat="43.5550417" lon="11.60094"><ele>164.66666666666666</ele><time>2026-05-01T09:32:32.208Z</time></trkpt><trkpt lat="43.5551" lon="11.60085"><ele>163.33333333333334</ele><time>2026-05-01T09:32:33.207Z</time></trkpt><trkpt lat="43.555155" lon="11.6007583"><ele>162.0</ele><time>2026-05-01T09:32:34.209Z</time></trkpt><trkpt lat="43.5552067" lon="11.6006683"><ele>162.0</ele><time>2026-05-01T09:32:35.207Z</time></trkpt><trkpt lat="43.555265" lon="11.6005733"><ele>162.0</ele><time>2026-05-01T09:32:36.208Z</time></trkpt><trkpt lat="43.5553167" lon="11.6004733"><ele>162.0</ele><time>2026-05-01T09:32:37.207Z</time></trkpt><trkpt lat="43.5553633" lon="11.6003617"><ele>162.0</ele><time>2026-05-01T09:32:38.207Z</time></trkpt><trkpt lat="43.5554" lon="11.6002367"><ele>162.0</ele><time>2026-05-01T09:32:39.208Z</time></trkpt><trkpt lat="43.5554267" lon="11.600105"><ele>161.33333333333334</ele><time>2026-05-01T09:32:40.207Z</time></trkpt><trkpt lat="43.55545" lon="11.599975"><ele>160.66666666666666</ele><time>2026-05-01T09:32:41.208Z</time></trkpt><trkpt lat="43.5554633" lon="11.5998583"><ele>160.0</ele><time>2026-05-01T09:32:42.208Z</time></trkpt><trkpt lat="43.555475" lon="11.5997417"><ele>159.33333333333331</ele><time>2026-05-01T09:32:43.209Z</time></trkpt><trkpt lat="43.55548" lon="11.5996217"><ele>158.66666666666666</ele><time>2026-05-01T09:32:44.207Z</time></trkpt><trkpt lat="43.55548" lon="11.5995067"><ele>158.0</ele><time>2026-05-01T09:32:45.207Z</time></trkpt><trkpt lat="43.5554783" lon="11.599395"><ele>157.83333333333331</ele><time>2026-05-01T09:32:46.208Z</time></trkpt><trkpt lat="43.555475" lon="11.599285"><ele>157.66666666666666</ele><time>2026-05-01T09:32:47.209Z</time></trkpt><trkpt lat="43.5554717" lon="11.599175"><ele>157.5</ele><time>2026-05-01T09:32:48.207Z</time></trkpt><trkpt lat="43.55547" lon="11.599065"><ele>157.33333333333334</ele><time>2026-05-01T09:32:49.207Z</time></trkpt><trkpt lat="43.5554617" lon="11.5989567"><ele>157.16666666666669</ele><time>2026-05-01T09:32:50.209Z</time></trkpt><trkpt lat="43.555455" lon="11.5988433"><ele>157.0</ele><time>2026-05-01T09:32:51.208Z</time></trkpt><trkpt lat="43.5554467" lon="11.5987367"><ele>156.57142857142856</ele><time>2026-05-01T09:32:52.208Z</time></trkpt><trkpt lat="43.5554367" lon="11.59863"><ele>156.14285714285714</ele><time>2026-05-01T09:32:53.207Z</time></trkpt><trkpt lat="43.5554317" lon="11.598525"><ele>155.71428571428572</ele><time>2026-05-01T09:32:54.209Z</time></trkpt><trkpt lat="43.5554283" lon="11.5984233"><ele>155.28571428571428</ele><time>2026-05-01T09:32:55.207Z</time></trkpt><trkpt lat="43.5554233" lon="11.59833"><ele>154.85714285714286</ele><time>2026-05-01T09:32:56.208Z</time></trkpt><trkpt lat="43.55542" lon="11.5982367"><ele>154.42857142857142</ele><time>2026-05-01T09:32:57.207Z</time></trkpt><trkpt lat="43.55542" lon="11.5981433"><ele>154.0</ele><time>2026-05-01T09:32:58.208Z</time></trkpt><trkpt lat="43.5554333" lon="11.5980467"><ele>154.0</ele><time>2026-05-01T09:32:59.207Z</time></trkpt><trkpt lat="43.5554567" lon="11.597955"><ele>154.0</ele><time>2026-05-01T09:33:00.208Z</time></trkpt><trkpt lat="43.555505" lon="11.5978717"><ele>154.0</ele><time>2026-05-01T09:33:01.208Z</time></trkpt><trkpt lat="43.55556" lon="11.5978033"><ele>154.0</ele><time>2026-05-01T09:33:02.207Z</time></trkpt><trkpt lat="43.555625" lon="11.597745"><ele>154.0</ele><time>2026-05-01T09:33:03.208Z</time></trkpt><trkpt lat="43.555695" lon="11.597715"><ele>154.0</ele><time>2026-05-01T09:33:04.207Z</time></trkpt><trkpt lat="43.5557667" lon="11.597705"><ele>154.0</ele><time>2026-05-01T09:33:05.208Z</time></trkpt><trkpt lat="43.55584" lon="11.5977033"><ele>154.28571428571428</ele><time>2026-05-01T09:33:06.209Z</time></trkpt><trkpt lat="43.5559167" lon="11.597715"><ele>154.57142857142856</ele><time>2026-05-01T09:33:07.207Z</time></trkpt><trkpt lat="43.5559917" lon="11.59773"><ele>154.85714285714286</ele><time>2026-05-01T09:33:08.208Z</time></trkpt><trkpt lat="43.5560617" lon="11.5977433"><ele>155.14285714285714</ele><time>2026-05-01T09:33:09.207Z</time></trkpt><trkpt lat="43.5561333" lon="11.5977567"><ele>155.42857142857142</ele><time>2026-05-01T09:33:10.208Z</time></trkpt><trkpt lat="43.556205" lon="11.59777"><ele>155.71428571428572</ele><time>2026-05-01T09:33:11.209Z</time></trkpt><trkpt lat="43.5562767" lon="11.5977767"><ele>156.0</ele><time>2026-05-01T09:33:12.208Z</time></trkpt><trkpt lat="43.55635" lon="11.59778"><ele>156.0</ele><time>2026-05-01T09:33:13.208Z</time></trkpt><trkpt lat="43.556425" lon="11.597785"><ele>156.0</ele><time>2026-05-01T09:33:14.206Z</time></trkpt><trkpt lat="43.5564967" lon="11.59779"><ele>156.0</ele><time>2026-05-01T09:33:15.208Z</time></trkpt><trkpt lat="43.55657" lon="11.5977933"><ele>156.0</ele><time>2026-05-01T09:33:16.208Z</time></trkpt><trkpt lat="43.5566433" lon="11.597795"><ele>156.0</ele><time>2026-05-01T09:33:17.21Z</time></trkpt><trkpt lat="43.5567167" lon="11.5978"><ele>156.0</ele><time>2026-05-01T09:33:18.208Z</time></trkpt><trkpt lat="43.5567867" lon="11.597805"><ele>156.0</ele><time>2026-05-01T09:33:19.207Z</time></trkpt><trkpt lat="43.5568567" lon="11.5978067"><ele>156.0</ele><time>2026-05-01T09:33:20.208Z</time></trkpt><trkpt lat="43.5569317" lon="11.59781"><ele>156.0</ele><time>2026-05-01T09:33:21.209Z</time></trkpt><trkpt lat="43.557005" lon="11.5978133"><ele>156.0</ele><time>2026-05-01T09:33:22.207Z</time></trkpt><trkpt lat="43.5570733" lon="11.5978183"><ele>156.0</ele><time>2026-05-01T09:33:23.209Z</time></trkpt><trkpt lat="43.5571417" lon="11.5978217"><ele>156.0</ele><time>2026-05-01T09:33:24.208Z</time></trkpt><trkpt lat="43.55721" lon="11.597825"><ele>156.0</ele><time>2026-05-01T09:33:25.207Z</time></trkpt><trkpt lat="43.5572783" lon="11.59783"><ele>156.0</ele><time>2026-05-01T09:33:26.208Z</time></trkpt><trkpt lat="43.5573467" lon="11.5978333"><ele>156.14285714285714</ele><time>2026-05-01T09:33:27.208Z</time></trkpt><trkpt lat="43.5574133" lon="11.597835"><ele>156.28571428571428</ele><time>2026-05-01T09:33:28.208Z</time></trkpt><trkpt lat="43.5574833" lon="11.5978417"><ele>156.42857142857142</ele><time>2026-05-01T09:33:29.206Z</time></trkpt><trkpt lat="43.557555" lon="11.5978483"><ele>156.57142857142856</ele><time>2026-05-01T09:33:30.208Z</time></trkpt><trkpt lat="43.5576267" lon="11.5978633"><ele>156.71428571428572</ele><time>2026-05-01T09:33:31.206Z</time></trkpt><trkpt lat="43.5576967" lon="11.597885"><ele>156.85714285714283</ele><time>2026-05-01T09:33:32.207Z</time></trkpt><trkpt lat="43.557765" lon="11.5979167"><ele>157.0</ele><time>2026-05-01T09:33:33.209Z</time></trkpt><trkpt lat="43.55783" lon="11.5979533"><ele>157.14285714285714</ele><time>2026-05-01T09:33:34.208Z</time></trkpt><trkpt lat="43.5578933" lon="11.5979967"><ele>157.28571428571428</ele><time>2026-05-01T09:33:35.207Z</time></trkpt><trkpt lat="43.5579533" lon="11.5980417"><ele>157.42857142857144</ele><time>2026-05-01T09:33:36.207Z</time></trkpt><trkpt lat="43.5580117" lon="11.5980883"><ele>157.57142857142856</ele><time>2026-05-01T09:33:37.208Z</time></trkpt><trkpt lat="43.55807" lon="11.5981317"><ele>157.71428571428572</ele><time>2026-05-01T09:33:38.209Z</time></trkpt><trkpt lat="43.5581267" lon="11.5981783"><ele>157.85714285714286</ele><time>2026-05-01T09:33:39.207Z</time></trkpt><trkpt lat="43.5581833" lon="11.5982267"><ele>158.0</ele><time>2026-05-01T09:33:40.207Z</time></trkpt><trkpt lat="43.55824" lon="11.5982717"><ele>158.0</ele><time>2026-05-01T09:33:41.206Z</time></trkpt><trkpt lat="43.55835" lon="11.5983533"><ele>158.0</ele><time>2026-05-01T09:33:43.208Z</time></trkpt><trkpt lat="43.558405" lon="11.5983983"><ele>158.0</ele><time>2026-05-01T09:33:44.207Z</time></trkpt><trkpt lat="43.5584617" lon="11.59845"><ele>158.0</ele><time>2026-05-01T09:33:45.207Z</time></trkpt><trkpt lat="43.5585183" lon="11.5985"><ele>158.0</ele><time>2026-05-01T09:33:46.207Z</time></trkpt><trkpt lat="43.55862" lon="11.5985933"><ele>158.0</ele><time>2026-05-01T09:33:48.208Z</time></trkpt><trkpt lat="43.558725" lon="11.598685"><ele>158.5</ele><time>2026-05-01T09:33:50.207Z</time></trkpt><trkpt lat="43.5587783" lon="11.5987333"><ele>159.0</ele><time>2026-05-01T09:33:51.208Z</time></trkpt><trkpt lat="43.5588333" lon="11.59878"><ele>159.5</ele><time>2026-05-01T09:33:52.207Z</time></trkpt><trkpt lat="43.55889" lon="11.5988383"><ele>160.0</ele><time>2026-05-01T09:33:53.207Z</time></trkpt><trkpt lat="43.558945" lon="11.5988867"><ele>160.5</ele><time>2026-05-01T09:33:54.209Z</time></trkpt><trkpt lat="43.559" lon="11.5989367"><ele>161.0</ele><time>2026-05-01T09:33:55.207Z</time></trkpt><trkpt lat="43.5591083" lon="11.5990267"><ele>161.0</ele><time>2026-05-01T09:33:57.208Z</time></trkpt><trkpt lat="43.5592133" lon="11.59911"><ele>161.0</ele><time>2026-05-01T09:33:59.207Z</time></trkpt><trkpt lat="43.55931" lon="11.5991867"><ele>161.0</ele><time>2026-05-01T09:34:01.208Z</time></trkpt><trkpt lat="43.559405" lon="11.599265"><ele>161.0</ele><time>2026-05-01T09:34:03.206Z</time></trkpt><trkpt lat="43.5594967" lon="11.5993467"><ele>162.20000000000002</ele><time>2026-05-01T09:34:05.209Z</time></trkpt><trkpt lat="43.559585" lon="11.5994217"><ele>163.4</ele><time>2026-05-01T09:34:07.207Z</time></trkpt><trkpt lat="43.5596733" lon="11.5995017"><ele>164.6</ele><time>2026-05-01T09:34:09.207Z</time></trkpt><trkpt lat="43.5597567" lon="11.59958"><ele>165.8</ele><time>2026-05-01T09:34:11.207Z</time></trkpt><trkpt lat="43.5598517" lon="11.59966"><ele>167.0</ele><time>2026-05-01T09:34:13.207Z</time></trkpt><trkpt lat="43.5599417" lon="11.5997317"><ele>167.0</ele><time>2026-05-01T09:34:15.207Z</time></trkpt><trkpt lat="43.5600333" lon="11.5998117"><ele>167.0</ele><time>2026-05-01T09:34:17.208Z</time></trkpt><trkpt lat="43.5601283" lon="11.5998933"><ele>167.0</ele><time>2026-05-01T09:34:19.208Z</time></trkpt><trkpt lat="43.5602283" lon="11.5999833"><ele>167.0</ele><time>2026-05-01T09:34:21.209Z</time></trkpt><trkpt lat="43.5603217" lon="11.6000667"><ele>167.6</ele><time>2026-05-01T09:34:23.208Z</time></trkpt><trkpt lat="43.5604117" lon="11.60015"><ele>168.2</ele><time>2026-05-01T09:34:25.207Z</time></trkpt><trkpt lat="43.5605" lon="11.6002267"><ele>168.8</ele><time>2026-05-01T09:34:27.209Z</time></trkpt><trkpt lat="43.560595" lon="11.60031"><ele>169.4</ele><time>2026-05-01T09:34:29.209Z</time></trkpt><trkpt lat="43.5606967" lon="11.6003967"><ele>170.0</ele><time>2026-05-01T09:34:31.209Z</time></trkpt><trkpt lat="43.5607983" lon="11.6004783"><ele>170.0</ele><time>2026-05-01T09:34:33.207Z</time></trkpt><trkpt lat="43.5608967" lon="11.6005617"><ele>170.0</ele><time>2026-05-01T09:34:35.208Z</time></trkpt><trkpt lat="43.5609933" lon="11.60064"><ele>170.0</ele><time>2026-05-01T09:34:37.208Z</time></trkpt><trkpt lat="43.56109" lon="11.6007167"><ele>170.0</ele><time>2026-05-01T09:34:39.211Z</time></trkpt><trkpt lat="43.5611883" lon="11.6008"><ele>171.0</ele><time>2026-05-01T09:34:41.209Z</time></trkpt><trkpt lat="43.5612833" lon="11.6008817"><ele>172.0</ele><time>2026-05-01T09:34:43.208Z</time></trkpt><trkpt lat="43.5613783" lon="11.6009617"><ele>173.0</ele><time>2026-05-01T09:34:45.208Z</time></trkpt><trkpt lat="43.5614683" lon="11.60104"><ele>174.0</ele><time>2026-05-01T09:34:47.207Z</time></trkpt><trkpt lat="43.56156" lon="11.6011167"><ele>175.0</ele><time>2026-05-01T09:34:49.207Z</time></trkpt><trkpt lat="43.561655" lon="11.6011933"><ele>175.0</ele><time>2026-05-01T09:34:51.208Z</time></trkpt><trkpt lat="43.56175" lon="11.6012733"><ele>175.0</ele><time>2026-05-01T09:34:53.206Z</time></trkpt><trkpt lat="43.561845" lon="11.60135"><ele>175.0</ele><time>2026-05-01T09:34:55.209Z</time></trkpt><trkpt lat="43.5619433" lon="11.6014317"><ele>175.0</ele><time>2026-05-01T09:34:57.207Z</time></trkpt><trkpt lat="43.5620417" lon="11.6015183"><ele>175.83333333333334</ele><time>2026-05-01T09:34:59.208Z</time></trkpt><trkpt lat="43.5621433" lon="11.6016033"><ele>176.66666666666669</ele><time>2026-05-01T09:35:01.208Z</time></trkpt><trkpt lat="43.5621967" lon="11.60165"><ele>177.5</ele><time>2026-05-01T09:35:02.209Z</time></trkpt><trkpt lat="43.5622517" lon="11.6016983"><ele>178.33333333333334</ele><time>2026-05-01T09:35:03.209Z</time></trkpt><trkpt lat="43.56236" lon="11.6017883"><ele>179.16666666666666</ele><time>2026-05-01T09:35:05.209Z</time></trkpt><trkpt lat="43.56242" lon="11.6018383"><ele>180.0</ele><time>2026-05-01T09:35:06.208Z</time></trkpt><trkpt lat="43.5624833" lon="11.6018917"><ele>180.0</ele><time>2026-05-01T09:35:07.207Z</time></trkpt><trkpt lat="43.562545" lon="11.601945"><ele>180.0</ele><time>2026-05-01T09:35:08.207Z</time></trkpt><trkpt lat="43.5626067" lon="11.6020017"><ele>180.0</ele><time>2026-05-01T09:35:09.206Z</time></trkpt><trkpt lat="43.5626633" lon="11.60205"><ele>180.0</ele><time>2026-05-01T09:35:10.208Z</time></trkpt><trkpt lat="43.5627233" lon="11.6020983"><ele>180.0</ele><time>2026-05-01T09:35:11.208Z</time></trkpt><trkpt lat="43.5627817" lon="11.6021467"><ele>180.0</ele><time>2026-05-01T09:35:12.208Z</time></trkpt><trkpt lat="43.56284" lon="11.6021933"><ele>180.0</ele><time>2026-05-01T09:35:13.207Z</time></trkpt><trkpt lat="43.5629033" lon="11.6022483"><ele>179.7142857142857</ele><time>2026-05-01T09:35:14.207Z</time></trkpt><trkpt lat="43.5629667" lon="11.602305"><ele>179.42857142857144</ele><time>2026-05-01T09:35:15.207Z</time></trkpt><trkpt lat="43.5630233" lon="11.602355"><ele>179.14285714285714</ele><time>2026-05-01T09:35:16.207Z</time></trkpt><trkpt lat="43.563085" lon="11.6024067"><ele>178.85714285714283</ele><time>2026-05-01T09:35:17.207Z</time></trkpt><trkpt lat="43.5631483" lon="11.60246"><ele>178.57142857142856</ele><time>2026-05-01T09:35:18.208Z</time></trkpt><trkpt lat="43.56321" lon="11.6025133"><ele>178.28571428571428</ele><time>2026-05-01T09:35:19.208Z</time></trkpt><trkpt lat="43.56327" lon="11.602565"><ele>178.0</ele><time>2026-05-01T09:35:20.208Z</time></trkpt><trkpt lat="43.5633317" lon="11.6026167"><ele>177.99999999999997</ele><time>2026-05-01T09:35:21.209Z</time></trkpt><trkpt lat="43.5633917" lon="11.6026667"><ele>178.0</ele><time>2026-05-01T09:35:22.207Z</time></trkpt><trkpt lat="43.5634517" lon="11.6027167"><ele>178.0</ele><time>2026-05-01T09:35:23.206Z</time></trkpt><trkpt lat="43.5635117" lon="11.6027633"><ele>178.0</ele><time>2026-05-01T09:35:24.208Z</time></trkpt><trkpt lat="43.56357" lon="11.6028117"><ele>178.0</ele><time>2026-05-01T09:35:25.207Z</time></trkpt><trkpt lat="43.5636283" lon="11.6028617"><ele>177.99999999999997</ele><time>2026-05-01T09:35:26.21Z</time></trkpt><trkpt lat="43.5636883" lon="11.6029117"><ele>178.0</ele><time>2026-05-01T09:35:27.207Z</time></trkpt><trkpt lat="43.5637483" lon="11.6029617"><ele>177.99999999999997</ele><time>2026-05-01T09:35:28.207Z</time></trkpt><trkpt lat="43.5638067" lon="11.6030133"><ele>178.0</ele><time>2026-05-01T09:35:29.209Z</time></trkpt><trkpt lat="43.5638617" lon="11.6030617"><ele>178.0</ele><time>2026-05-01T09:35:30.21Z</time></trkpt><trkpt lat="43.5639183" lon="11.6031117"><ele>178.0</ele><time>2026-05-01T09:35:31.208Z</time></trkpt><trkpt lat="43.5639733" lon="11.60316"><ele>178.0</ele><time>2026-05-01T09:35:32.207Z</time></trkpt><trkpt lat="43.5640333" lon="11.6032117"><ele>177.99999999999997</ele><time>2026-05-01T09:35:33.209Z</time></trkpt><trkpt lat="43.5640933" lon="11.6032617"><ele>178.0</ele><time>2026-05-01T09:35:34.208Z</time></trkpt><trkpt lat="43.5641567" lon="11.6033167"><ele>177.99999999999997</ele><time>2026-05-01T09:35:35.209Z</time></trkpt><trkpt lat="43.5642183" lon="11.6033733"><ele>178.0</ele><time>2026-05-01T09:35:36.207Z</time></trkpt><trkpt lat="43.5642767" lon="11.6034283"><ele>178.0</ele><time>2026-05-01T09:35:37.206Z</time></trkpt><trkpt lat="43.5643367" lon="11.603485"><ele>178.0</ele><time>2026-05-01T09:35:38.208Z</time></trkpt><trkpt lat="43.5643883" lon="11.6035383"><ele>178.0</ele><time>2026-05-01T09:35:39.205Z</time></trkpt><trkpt lat="43.5644417" lon="11.6036033"><ele>177.99999999999997</ele><time>2026-05-01T09:35:40.205Z</time></trkpt><trkpt lat="43.56449" lon="11.60367"><ele>178.0</ele><time>2026-05-01T09:35:41.205Z</time></trkpt><trkpt lat="43.5645333" lon="11.60374"><ele>179.0</ele><time>2026-05-01T09:35:42.205Z</time></trkpt><trkpt lat="43.5646067" lon="11.6038783"><ele>180.0</ele><time>2026-05-01T09:35:44.206Z</time></trkpt><trkpt lat="43.5646417" lon="11.6039517"><ele>181.0</ele><time>2026-05-01T09:35:45.204Z</time></trkpt><trkpt lat="43.564675" lon="11.60403"><ele>182.0</ele><time>2026-05-01T09:35:46.205Z</time></trkpt><trkpt lat="43.5647083" lon="11.6041083"><ele>183.0</ele><time>2026-05-01T09:35:47.205Z</time></trkpt><trkpt lat="43.5647717" lon="11.6042567"><ele>184.0</ele><time>2026-05-01T09:35:49.207Z</time></trkpt><trkpt lat="43.5648033" lon="11.6043383"><ele>184.0</ele><time>2026-05-01T09:35:50.207Z</time></trkpt><trkpt lat="43.5648667" lon="11.6044767"><ele>184.0</ele><time>2026-05-01T09:35:52.208Z</time></trkpt><trkpt lat="43.5649283" lon="11.60462"><ele>184.0</ele><time>2026-05-01T09:35:54.207Z</time></trkpt><trkpt lat="43.564985" lon="11.6047583"><ele>184.0</ele><time>2026-05-01T09:35:56.21Z</time></trkpt><trkpt lat="43.5650517" lon="11.6048983"><ele>183.75</ele><time>2026-05-01T09:35:58.209Z</time></trkpt><trkpt lat="43.5651167" lon="11.6050433"><ele>183.5</ele><time>2026-05-01T09:36:00.208Z</time></trkpt><trkpt lat="43.5651817" lon="11.6051967"><ele>183.25</ele><time>2026-05-01T09:36:02.211Z</time></trkpt><trkpt lat="43.5652433" lon="11.605335"><ele>183.0</ele><time>2026-05-01T09:36:04.21Z</time></trkpt><trkpt lat="43.5653083" lon="11.6054783"><ele>182.75</ele><time>2026-05-01T09:36:06.209Z</time></trkpt><trkpt lat="43.5653617" lon="11.605615"><ele>182.5</ele><time>2026-05-01T09:36:08.209Z</time></trkpt><trkpt lat="43.5654233" lon="11.605765"><ele>182.25</ele><time>2026-05-01T09:36:10.21Z</time></trkpt><trkpt lat="43.56548" lon="11.6059133"><ele>182.0</ele><time>2026-05-01T09:36:12.21Z</time></trkpt><trkpt lat="43.56554" lon="11.6060517"><ele>182.8</ele><time>2026-05-01T09:36:14.211Z</time></trkpt><trkpt lat="43.5655967" lon="11.6061867"><ele>183.6</ele><time>2026-05-01T09:36:16.21Z</time></trkpt><trkpt lat="43.5656517" lon="11.6063183"><ele>184.4</ele><time>2026-05-01T09:36:18.207Z</time></trkpt><trkpt lat="43.5657033" lon="11.6064517"><ele>185.20000000000002</ele><time>2026-05-01T09:36:20.208Z</time></trkpt><trkpt lat="43.56576" lon="11.6065833"><ele>186.0</ele><time>2026-05-01T09:36:22.208Z</time></trkpt><trkpt lat="43.5658167" lon="11.606715"><ele>186.0</ele><time>2026-05-01T09:36:24.208Z</time></trkpt><trkpt lat="43.56587" lon="11.6068333"><ele>186.0</ele><time>2026-05-01T09:36:26.211Z</time></trkpt><trkpt lat="43.56593" lon="11.6069683"><ele>186.0</ele><time>2026-05-01T09:36:28.207Z</time></trkpt><trkpt lat="43.565985" lon="11.607105"><ele>186.0</ele><time>2026-05-01T09:36:30.209Z</time></trkpt><trkpt lat="43.5660417" lon="11.6072383"><ele>186.0</ele><time>2026-05-01T09:36:32.208Z</time></trkpt><trkpt lat="43.5661083" lon="11.607375"><ele>186.20000000000002</ele><time>2026-05-01T09:36:34.207Z</time></trkpt><trkpt lat="43.566185" lon="11.6074983"><ele>186.4</ele><time>2026-05-01T09:36:36.208Z</time></trkpt><trkpt lat="43.5662667" lon="11.6075933"><ele>186.6</ele><time>2026-05-01T09:36:38.208Z</time></trkpt><trkpt lat="43.5663433" lon="11.607665"><ele>186.8</ele><time>2026-05-01T09:36:40.209Z</time></trkpt><trkpt lat="43.56642" lon="11.6077167"><ele>187.0</ele><time>2026-05-01T09:36:42.208Z</time></trkpt><trkpt lat="43.566505" lon="11.6077567"><ele>187.83333333333334</ele><time>2026-05-01T09:36:44.208Z</time></trkpt><trkpt lat="43.566595" lon="11.6077933"><ele>188.66666666666669</ele><time>2026-05-01T09:36:46.208Z</time></trkpt><trkpt lat="43.56668" lon="11.6078267"><ele>189.5</ele><time>2026-05-01T09:36:48.208Z</time></trkpt><trkpt lat="43.56676" lon="11.607855"><ele>190.33333333333334</ele><time>2026-05-01T09:36:50.209Z</time></trkpt><trkpt lat="43.56684" lon="11.6078817"><ele>191.16666666666666</ele><time>2026-05-01T09:36:52.207Z</time></trkpt><trkpt lat="43.56692" lon="11.6079367"><ele>192.0</ele><time>2026-05-01T09:36:54.207Z</time></trkpt><trkpt lat="43.566985" lon="11.6080117"><ele>192.16666666666666</ele><time>2026-05-01T09:36:56.209Z</time></trkpt><trkpt lat="43.56702" lon="11.608115"><ele>192.33333333333331</ele><time>2026-05-01T09:36:58.208Z</time></trkpt><trkpt lat="43.5670167" lon="11.6082433"><ele>192.5</ele><time>2026-05-01T09:37:00.208Z</time></trkpt><trkpt lat="43.5669683" lon="11.60839"><ele>192.66666666666666</ele><time>2026-05-01T09:37:02.208Z</time></trkpt><trkpt lat="43.5669317" lon="11.6084633"><ele>192.83333333333331</ele><time>2026-05-01T09:37:03.208Z</time></trkpt><trkpt lat="43.56689" lon="11.6085333"><ele>193.0</ele><time>2026-05-01T09:37:04.21Z</time></trkpt><trkpt lat="43.56685" lon="11.60861"><ele>193.33333333333331</ele><time>2026-05-01T09:37:05.209Z</time></trkpt><trkpt lat="43.566815" lon="11.6087017"><ele>193.66666666666666</ele><time>2026-05-01T09:37:06.209Z</time></trkpt><trkpt lat="43.56679" lon="11.608805"><ele>194.0</ele><time>2026-05-01T09:37:07.208Z</time></trkpt><trkpt lat="43.5667867" lon="11.6089167"><ele>194.33333333333331</ele><time>2026-05-01T09:37:08.211Z</time></trkpt><trkpt lat="43.5668033" lon="11.60902"><ele>194.66666666666666</ele><time>2026-05-01T09:37:09.207Z</time></trkpt><trkpt lat="43.566835" lon="11.6091117"><ele>195.0</ele><time>2026-05-01T09:37:10.207Z</time></trkpt><trkpt lat="43.5668733" lon="11.6092"><ele>195.0</ele><time>2026-05-01T09:37:11.207Z</time></trkpt><trkpt lat="43.5669133" lon="11.609285"><ele>195.0</ele><time>2026-05-01T09:37:12.208Z</time></trkpt><trkpt lat="43.56695" lon="11.60937"><ele>195.0</ele><time>2026-05-01T09:37:13.208Z</time></trkpt><trkpt lat="43.56699" lon="11.609455"><ele>195.0</ele><time>2026-05-01T09:37:14.207Z</time></trkpt><trkpt lat="43.5670267" lon="11.60954"><ele>195.0</ele><time>2026-05-01T09:37:15.207Z</time></trkpt><trkpt lat="43.5670667" lon="11.609625"><ele>195.0</ele><time>2026-05-01T09:37:16.209Z</time></trkpt><trkpt lat="43.5671017" lon="11.60971"><ele>195.0</ele><time>2026-05-01T09:37:17.207Z</time></trkpt><trkpt lat="43.5671367" lon="11.6097983"><ele>195.28571428571428</ele><time>2026-05-01T09:37:18.207Z</time></trkpt><trkpt lat="43.5671733" lon="11.6098867"><ele>195.57142857142856</ele><time>2026-05-01T09:37:19.207Z</time></trkpt><trkpt lat="43.56721" lon="11.6099767"><ele>195.85714285714286</ele><time>2026-05-01T09:37:20.209Z</time></trkpt><trkpt lat="43.5672467" lon="11.610065"><ele>196.14285714285714</ele><time>2026-05-01T09:37:21.207Z</time></trkpt><trkpt lat="43.567285" lon="11.610155"><ele>196.42857142857144</ele><time>2026-05-01T09:37:22.208Z</time></trkpt><trkpt lat="43.5673217" lon="11.6102417"><ele>196.71428571428572</ele><time>2026-05-01T09:37:23.209Z</time></trkpt><trkpt lat="43.5673583" lon="11.61033"><ele>197.0</ele><time>2026-05-01T09:37:24.208Z</time></trkpt><trkpt lat="43.5673917" lon="11.610415"><ele>197.14285714285714</ele><time>2026-05-01T09:37:25.207Z</time></trkpt><trkpt lat="43.5674317" lon="11.6105033"><ele>197.28571428571428</ele><time>2026-05-01T09:37:26.207Z</time></trkpt><trkpt lat="43.5674733" lon="11.61059"><ele>197.42857142857144</ele><time>2026-05-01T09:37:27.207Z</time></trkpt><trkpt lat="43.56751" lon="11.6106733"><ele>197.57142857142856</ele><time>2026-05-01T09:37:28.208Z</time></trkpt><trkpt lat="43.567545" lon="11.61076"><ele>197.7142857142857</ele><time>2026-05-01T09:37:29.208Z</time></trkpt><trkpt lat="43.56758" lon="11.6108433"><ele>197.85714285714286</ele><time>2026-05-01T09:37:30.209Z</time></trkpt><trkpt lat="43.5676167" lon="11.610925"><ele>198.0</ele><time>2026-05-01T09:37:31.207Z</time></trkpt><trkpt lat="43.567655" lon="11.6110083"><ele>198.0</ele><time>2026-05-01T09:37:32.208Z</time></trkpt><trkpt lat="43.5676917" lon="11.61109"><ele>198.0</ele><time>2026-05-01T09:37:33.206Z</time></trkpt><trkpt lat="43.567725" lon="11.6111683"><ele>198.0</ele><time>2026-05-01T09:37:34.207Z</time></trkpt><trkpt lat="43.56776" lon="11.6112517"><ele>198.0</ele><time>2026-05-01T09:37:35.209Z</time></trkpt><trkpt lat="43.5677933" lon="11.611335"><ele>198.0</ele><time>2026-05-01T09:37:36.208Z</time></trkpt><trkpt lat="43.5678267" lon="11.611415"><ele>198.0</ele><time>2026-05-01T09:37:37.207Z</time></trkpt><trkpt lat="43.5678617" lon="11.611495"><ele>198.0</ele><time>2026-05-01T09:37:38.207Z</time></trkpt><trkpt lat="43.5678917" lon="11.6115717"><ele>199.0</ele><time>2026-05-01T09:37:39.21Z</time></trkpt><trkpt lat="43.567925" lon="11.6116483"><ele>200.0</ele><time>2026-05-01T09:37:40.207Z</time></trkpt><trkpt lat="43.56799" lon="11.611795"><ele>201.0</ele><time>2026-05-01T09:37:42.21Z</time></trkpt><trkpt lat="43.5680283" lon="11.6118767"><ele>202.0</ele><time>2026-05-01T09:37:43.208Z</time></trkpt><trkpt lat="43.5680933" lon="11.6120183"><ele>203.0</ele><time>2026-05-01T09:37:45.208Z</time></trkpt><trkpt lat="43.5681583" lon="11.612165"><ele>203.0</ele><time>2026-05-01T09:37:47.207Z</time></trkpt><trkpt lat="43.5682083" lon="11.612315"><ele>203.0</ele><time>2026-05-01T09:37:49.208Z</time></trkpt><trkpt lat="43.5682467" lon="11.61243"><ele>203.0</ele><time>2026-05-01T09:37:51.207Z</time></trkpt><trkpt lat="43.5682967" lon="11.6125433"><ele>203.0</ele><time>2026-05-01T09:37:53.207Z</time></trkpt><trkpt lat="43.5683367" lon="11.6126467"><ele>203.0</ele><time>2026-05-01T09:37:55.207Z</time></trkpt><trkpt lat="43.5683733" lon="11.612735"><ele>203.00000000000003</ele><time>2026-05-01T09:37:57.21Z</time></trkpt><trkpt lat="43.5684033" lon="11.6128133"><ele>203.0</ele><time>2026-05-01T09:37:59.208Z</time></trkpt><trkpt lat="43.568435" lon="11.612895"><ele>203.0</ele><time>2026-05-01T09:38:01.207Z</time></trkpt><trkpt lat="43.5684867" lon="11.6129817"><ele>203.0</ele><time>2026-05-01T09:38:03.206Z</time></trkpt><trkpt lat="43.5685317" lon="11.61307"><ele>203.00000000000003</ele><time>2026-05-01T09:38:05.209Z</time></trkpt><trkpt lat="43.5685417" lon="11.61318"><ele>203.0</ele><time>2026-05-01T09:38:08.207Z</time></trkpt><trkpt lat="43.568515" lon="11.61329"><ele>202.83333333333334</ele><time>2026-05-01T09:38:10.208Z</time></trkpt><trkpt lat="43.5684833" lon="11.6134617"><ele>202.66666666666669</ele><time>2026-05-01T09:38:12.208Z</time></trkpt><trkpt lat="43.5684583" lon="11.6135617"><ele>202.5</ele><time>2026-05-01T09:38:13.209Z</time></trkpt><trkpt lat="43.5684283" lon="11.6136567"><ele>202.33333333333331</ele><time>2026-05-01T09:38:14.208Z</time></trkpt><trkpt lat="43.5683967" lon="11.6137533"><ele>202.16666666666666</ele><time>2026-05-01T09:38:15.209Z</time></trkpt><trkpt lat="43.568365" lon="11.6138517"><ele>202.0</ele><time>2026-05-01T09:38:16.207Z</time></trkpt><trkpt lat="43.56833" lon="11.61394"><ele>201.66666666666666</ele><time>2026-05-01T09:38:17.209Z</time></trkpt><trkpt lat="43.5683" lon="11.61403"><ele>201.33333333333331</ele><time>2026-05-01T09:38:18.208Z</time></trkpt><trkpt lat="43.5682733" lon="11.61412"><ele>201.0</ele><time>2026-05-01T09:38:19.209Z</time></trkpt><trkpt lat="43.5682467" lon="11.6142"><ele>200.66666666666669</ele><time>2026-05-01T09:38:20.21Z</time></trkpt><trkpt lat="43.5682233" lon="11.6142817"><ele>200.33333333333334</ele><time>2026-05-01T09:38:21.207Z</time></trkpt><trkpt lat="43.56818" lon="11.6144433"><ele>200.0</ele><time>2026-05-01T09:38:23.208Z</time></trkpt><trkpt lat="43.568155" lon="11.6145333"><ele>200.00000000000003</ele><time>2026-05-01T09:38:24.209Z</time></trkpt><trkpt lat="43.5681283" lon="11.61462"><ele>200.0</ele><time>2026-05-01T09:38:25.209Z</time></trkpt><trkpt lat="43.5681017" lon="11.6147067"><ele>200.0</ele><time>2026-05-01T09:38:26.209Z</time></trkpt><trkpt lat="43.5680767" lon="11.6147967"><ele>200.0</ele><time>2026-05-01T09:38:27.208Z</time></trkpt><trkpt lat="43.568055" lon="11.6148883"><ele>200.0</ele><time>2026-05-01T09:38:28.207Z</time></trkpt><trkpt lat="43.56803" lon="11.61498"><ele>200.00000000000003</ele><time>2026-05-01T09:38:29.208Z</time></trkpt><trkpt lat="43.5679917" lon="11.6150733"><ele>200.0</ele><time>2026-05-01T09:38:30.208Z</time></trkpt><trkpt lat="43.5679433" lon="11.61517"><ele>200.00000000000003</ele><time>2026-05-01T09:38:31.208Z</time></trkpt><trkpt lat="43.567895" lon="11.615275"><ele>200.0</ele><time>2026-05-01T09:38:32.208Z</time></trkpt><trkpt lat="43.567855" lon="11.6153817"><ele>200.0</ele><time>2026-05-01T09:38:33.208Z</time></trkpt><trkpt lat="43.56783" lon="11.6154883"><ele>200.0</ele><time>2026-05-01T09:38:34.208Z</time></trkpt><trkpt lat="43.5678067" lon="11.6155883"><ele>200.00000000000003</ele><time>2026-05-01T09:38:35.209Z</time></trkpt><trkpt lat="43.5677767" lon="11.61568"><ele>200.0</ele><time>2026-05-01T09:38:36.208Z</time></trkpt><trkpt lat="43.567735" lon="11.61577"><ele>198.71428571428572</ele><time>2026-05-01T09:38:37.208Z</time></trkpt><trkpt lat="43.5676767" lon="11.61583"><ele>197.42857142857144</ele><time>2026-05-01T09:38:38.209Z</time></trkpt><trkpt lat="43.5676083" lon="11.6158567"><ele>196.14285714285717</ele><time>2026-05-01T09:38:39.207Z</time></trkpt><trkpt lat="43.567535" lon="11.615855"><ele>194.85714285714286</ele><time>2026-05-01T09:38:40.208Z</time></trkpt><trkpt lat="43.567465" lon="11.61584"><ele>193.57142857142856</ele><time>2026-05-01T09:38:41.207Z</time></trkpt><trkpt lat="43.5673983" lon="11.6158167"><ele>192.2857142857143</ele><time>2026-05-01T09:38:42.208Z</time></trkpt><trkpt lat="43.567335" lon="11.615795"><ele>191.0</ele><time>2026-05-01T09:38:43.21Z</time></trkpt><trkpt lat="43.5672717" lon="11.61579"><ele>191.0</ele><time>2026-05-01T09:38:44.209Z</time></trkpt><trkpt lat="43.56721" lon="11.6158117"><ele>191.0</ele><time>2026-05-01T09:38:45.209Z</time></trkpt><trkpt lat="43.56712" lon="11.615925"><ele>191.0</ele><time>2026-05-01T09:38:47.207Z</time></trkpt><trkpt lat="43.5670983" lon="11.6160067"><ele>191.0</ele><time>2026-05-01T09:38:48.207Z</time></trkpt><trkpt lat="43.56709" lon="11.6161017"><ele>191.0</ele><time>2026-05-01T09:38:49.209Z</time></trkpt><trkpt lat="43.5670883" lon="11.6161967"><ele>191.0</ele><time>2026-05-01T09:38:50.209Z</time></trkpt><trkpt lat="43.567085" lon="11.6162933"><ele>191.20000000000002</ele><time>2026-05-01T09:38:51.208Z</time></trkpt><trkpt lat="43.5670517" lon="11.6164583"><ele>191.4</ele><time>2026-05-01T09:38:53.206Z</time></trkpt><trkpt lat="43.5669783" lon="11.6165767"><ele>191.6</ele><time>2026-05-01T09:38:55.209Z</time></trkpt><trkpt lat="43.5669017" lon="11.6166783"><ele>191.8</ele><time>2026-05-01T09:38:57.209Z</time></trkpt><trkpt lat="43.566845" lon="11.616785"><ele>192.0</ele><time>2026-05-01T09:38:59.208Z</time></trkpt><trkpt lat="43.5667967" lon="11.6168767"><ele>192.83333333333334</ele><time>2026-05-01T09:39:01.207Z</time></trkpt><trkpt lat="43.56675" lon="11.6169517"><ele>193.66666666666669</ele><time>2026-05-01T09:39:03.208Z</time></trkpt><trkpt lat="43.56669" lon="11.6170367"><ele>194.5</ele><time>2026-05-01T09:39:06.207Z</time></trkpt><trkpt lat="43.56662" lon="11.61711"><ele>195.33333333333334</ele><time>2026-05-01T09:39:09.207Z</time></trkpt><trkpt lat="43.5665733" lon="11.617175"><ele>196.16666666666669</ele><time>2026-05-01T09:39:11.205Z</time></trkpt><trkpt lat="43.5665183" lon="11.6172767"><ele>197.0</ele><time>2026-05-01T09:39:13.208Z</time></trkpt><trkpt lat="43.5664633" lon="11.6173683"><ele>198.00000000000003</ele><time>2026-05-01T09:39:15.208Z</time></trkpt><trkpt lat="43.5664" lon="11.6174533"><ele>199.0</ele><time>2026-05-01T09:39:17.206Z</time></trkpt><trkpt lat="43.5663617" lon="11.61753"><ele>200.0</ele><time>2026-05-01T09:39:19.207Z</time></trkpt><trkpt lat="43.5663667" lon="11.6176367"><ele>201.0</ele><time>2026-05-01T09:39:21.209Z</time></trkpt><trkpt lat="43.5664" lon="11.61773"><ele>202.00000000000003</ele><time>2026-05-01T09:39:23.208Z</time></trkpt><trkpt lat="43.56645" lon="11.6178083"><ele>203.0</ele><time>2026-05-01T09:39:25.207Z</time></trkpt><trkpt lat="43.566515" lon="11.6179033"><ele>203.25</ele><time>2026-05-01T09:39:27.209Z</time></trkpt><trkpt lat="43.5665817" lon="11.6180233"><ele>203.5</ele><time>2026-05-01T09:39:29.207Z</time></trkpt><trkpt lat="43.5666567" lon="11.6181483"><ele>203.75</ele><time>2026-05-01T09:39:31.207Z</time></trkpt><trkpt lat="43.5667283" lon="11.618285"><ele>204.0</ele><time>2026-05-01T09:39:33.207Z</time></trkpt><trkpt lat="43.5667967" lon="11.6184033"><ele>204.0</ele><time>2026-05-01T09:39:35.207Z</time></trkpt><trkpt lat="43.566865" lon="11.61854"><ele>204.0</ele><time>2026-05-01T09:39:37.208Z</time></trkpt><trkpt lat="43.5669317" lon="11.618675"><ele>204.0</ele><time>2026-05-01T09:39:39.208Z</time></trkpt><trkpt lat="43.566975" lon="11.6187583"><ele>204.0</ele><time>2026-05-01T09:39:40.207Z</time></trkpt><trkpt lat="43.56701" lon="11.6188317"><ele>204.0</ele><time>2026-05-01T09:39:41.208Z</time></trkpt><trkpt lat="43.5670767" lon="11.618985"><ele>204.0</ele><time>2026-05-01T09:39:43.207Z</time></trkpt><trkpt lat="43.5671167" lon="11.6190733"><ele>204.0</ele><time>2026-05-01T09:39:44.207Z</time></trkpt><trkpt lat="43.5671517" lon="11.6191483"><ele>204.0</ele><time>2026-05-01T09:39:45.208Z</time></trkpt><trkpt lat="43.567215" lon="11.6192817"><ele>204.0</ele><time>2026-05-01T09:39:47.206Z</time></trkpt><trkpt lat="43.56729" lon="11.6194167"><ele>204.0</ele><time>2026-05-01T09:39:49.208Z</time></trkpt><trkpt lat="43.5673733" lon="11.61955"><ele>204.83333333333334</ele><time>2026-05-01T09:39:51.207Z</time></trkpt><trkpt lat="43.56742" lon="11.619615"><ele>205.66666666666669</ele><time>2026-05-01T09:39:52.206Z</time></trkpt><trkpt lat="43.5674667" lon="11.61968"><ele>206.5</ele><time>2026-05-01T09:39:53.205Z</time></trkpt><trkpt lat="43.5675583" lon="11.6198033"><ele>207.33333333333334</ele><time>2026-05-01T09:39:55.209Z</time></trkpt><trkpt lat="43.567605" lon="11.619865"><ele>208.16666666666669</ele><time>2026-05-01T09:39:56.208Z</time></trkpt><trkpt lat="43.567655" lon="11.619925"><ele>209.0</ele><time>2026-05-01T09:39:57.205Z</time></trkpt><trkpt lat="43.5677033" lon="11.619985"><ele>209.0</ele><time>2026-05-01T09:39:58.207Z</time></trkpt><trkpt lat="43.5677933" lon="11.6201"><ele>209.0</ele><time>2026-05-01T09:40:00.206Z</time></trkpt><trkpt lat="43.56789" lon="11.6202133"><ele>209.0</ele><time>2026-05-01T09:40:02.208Z</time></trkpt><trkpt lat="43.5679867" lon="11.620325"><ele>209.0</ele><time>2026-05-01T09:40:04.206Z</time></trkpt><trkpt lat="43.568035" lon="11.620385"><ele>209.0</ele><time>2026-05-01T09:40:05.207Z</time></trkpt><trkpt lat="43.5680833" lon="11.620445"><ele>209.33333333333334</ele><time>2026-05-01T09:40:06.209Z</time></trkpt><trkpt lat="43.568135" lon="11.6205067"><ele>209.66666666666669</ele><time>2026-05-01T09:40:07.208Z</time></trkpt><trkpt lat="43.5681833" lon="11.6205667"><ele>210.0</ele><time>2026-05-01T09:40:08.207Z</time></trkpt><trkpt lat="43.568275" lon="11.6206833"><ele>210.33333333333331</ele><time>2026-05-01T09:40:10.208Z</time></trkpt><trkpt lat="43.5683217" lon="11.6207433"><ele>210.66666666666666</ele><time>2026-05-01T09:40:11.207Z</time></trkpt><trkpt lat="43.5684133" lon="11.62086"><ele>211.0</ele><time>2026-05-01T09:40:13.206Z</time></trkpt><trkpt lat="43.5685" lon="11.620975"><ele>211.0</ele><time>2026-05-01T09:40:15.207Z</time></trkpt><trkpt lat="43.5685467" lon="11.621035"><ele>211.0</ele><time>2026-05-01T09:40:16.209Z</time></trkpt><trkpt lat="43.5686317" lon="11.6211483"><ele>211.0</ele><time>2026-05-01T09:40:18.207Z</time></trkpt><trkpt lat="43.5687133" lon="11.6212633"><ele>211.0</ele><time>2026-05-01T09:40:20.207Z</time></trkpt><trkpt lat="43.5687933" lon="11.6213883"><ele>211.0</ele><time>2026-05-01T09:40:22.208Z</time></trkpt><trkpt lat="43.56887" lon="11.6215"><ele>212.0</ele><time>2026-05-01T09:40:24.206Z</time></trkpt><trkpt lat="43.568945" lon="11.6216117"><ele>213.0</ele><time>2026-05-01T09:40:26.208Z</time></trkpt><trkpt lat="43.5690233" lon="11.621725"><ele>214.0</ele><time>2026-05-01T09:40:28.206Z</time></trkpt><trkpt lat="43.5691" lon="11.6218433"><ele>215.0</ele><time>2026-05-01T09:40:30.207Z</time></trkpt><trkpt lat="43.5691767" lon="11.6219583"><ele>215.75</ele><time>2026-05-01T09:40:32.207Z</time></trkpt><trkpt lat="43.5692567" lon="11.6220767"><ele>216.5</ele><time>2026-05-01T09:40:34.208Z</time></trkpt><trkpt lat="43.5693383" lon="11.6221983"><ele>217.25</ele><time>2026-05-01T09:40:36.207Z</time></trkpt><trkpt lat="43.5694183" lon="11.6223117"><ele>218.0</ele><time>2026-05-01T09:40:38.208Z</time></trkpt><trkpt lat="43.5694933" lon="11.6224283"><ele>217.75</ele><time>2026-05-01T09:40:40.206Z</time></trkpt><trkpt lat="43.5695683" lon="11.62256"><ele>217.5</ele><time>2026-05-01T09:40:42.209Z</time></trkpt><trkpt lat="43.56963" lon="11.6227033"><ele>217.25</ele><time>2026-05-01T09:40:44.21Z</time></trkpt><trkpt lat="43.5696833" lon="11.6228533"><ele>217.0</ele><time>2026-05-01T09:40:46.208Z</time></trkpt><trkpt lat="43.569735" lon="11.623005"><ele>217.75</ele><time>2026-05-01T09:40:48.208Z</time></trkpt><trkpt lat="43.5697833" lon="11.62315"><ele>218.5</ele><time>2026-05-01T09:40:50.207Z</time></trkpt><trkpt lat="43.5698333" lon="11.6232967"><ele>219.25</ele><time>2026-05-01T09:40:52.209Z</time></trkpt><trkpt lat="43.5698867" lon="11.62345"><ele>220.0</ele><time>2026-05-01T09:40:54.206Z</time></trkpt><trkpt lat="43.569945" lon="11.623585"><ele>220.25</ele><time>2026-05-01T09:40:56.207Z</time></trkpt><trkpt lat="43.5700067" lon="11.6237167"><ele>220.5</ele><time>2026-05-01T09:40:58.207Z</time></trkpt><trkpt lat="43.5700733" lon="11.6238517"><ele>220.75</ele><time>2026-05-01T09:41:00.206Z</time></trkpt><trkpt lat="43.5701417" lon="11.623985"><ele>221.0</ele><time>2026-05-01T09:41:02.21Z</time></trkpt><trkpt lat="43.5702067" lon="11.6241067"><ele>221.0</ele><time>2026-05-01T09:41:04.206Z</time></trkpt><trkpt lat="43.5702733" lon="11.6242317"><ele>221.00000000000003</ele><time>2026-05-01T09:41:06.207Z</time></trkpt><trkpt lat="43.570345" lon="11.6243483"><ele>221.00000000000003</ele><time>2026-05-01T09:41:08.209Z</time></trkpt><trkpt lat="43.5704167" lon="11.62447"><ele>221.0</ele><time>2026-05-01T09:41:10.207Z</time></trkpt><trkpt lat="43.5704783" lon="11.624585"><ele>221.0</ele><time>2026-05-01T09:41:12.207Z</time></trkpt><trkpt lat="43.5705433" lon="11.6246967"><ele>221.60000000000002</ele><time>2026-05-01T09:41:14.209Z</time></trkpt><trkpt lat="43.5706133" lon="11.62482"><ele>222.20000000000002</ele><time>2026-05-01T09:41:16.209Z</time></trkpt><trkpt lat="43.5706933" lon="11.6249417"><ele>222.79999999999998</ele><time>2026-05-01T09:41:18.208Z</time></trkpt><trkpt lat="43.5707683" lon="11.6250417"><ele>223.39999999999998</ele><time>2026-05-01T09:41:20.208Z</time></trkpt><trkpt lat="43.5708417" lon="11.625145"><ele>224.0</ele><time>2026-05-01T09:41:22.207Z</time></trkpt><trkpt lat="43.5709217" lon="11.6252383"><ele>224.79999999999998</ele><time>2026-05-01T09:41:24.207Z</time></trkpt><trkpt lat="43.5710033" lon="11.6253283"><ele>225.59999999999997</ele><time>2026-05-01T09:41:26.209Z</time></trkpt><trkpt lat="43.5710883" lon="11.6254183"><ele>226.4</ele><time>2026-05-01T09:41:28.206Z</time></trkpt><trkpt lat="43.5711783" lon="11.625505"><ele>227.2</ele><time>2026-05-01T09:41:30.212Z</time></trkpt><trkpt lat="43.5712733" lon="11.62558"><ele>228.0</ele><time>2026-05-01T09:41:32.208Z</time></trkpt><trkpt lat="43.57137" lon="11.6256483"><ele>228.60000000000002</ele><time>2026-05-01T09:41:34.208Z</time></trkpt><trkpt lat="43.5714667" lon="11.6257133"><ele>229.20000000000002</ele><time>2026-05-01T09:41:36.207Z</time></trkpt><trkpt lat="43.5715633" lon="11.62579"><ele>229.8</ele><time>2026-05-01T09:41:38.208Z</time></trkpt><trkpt lat="43.571655" lon="11.6258683"><ele>230.4</ele><time>2026-05-01T09:41:40.207Z</time></trkpt><trkpt lat="43.5717383" lon="11.6259467"><ele>231.0</ele><time>2026-05-01T09:41:42.209Z</time></trkpt><trkpt lat="43.57182" lon="11.6260383"><ele>231.0</ele><time>2026-05-01T09:41:44.208Z</time></trkpt><trkpt lat="43.5719017" lon="11.6261267"><ele>231.00000000000003</ele><time>2026-05-01T09:41:46.21Z</time></trkpt><trkpt lat="43.571985" lon="11.6262267"><ele>231.00000000000003</ele><time>2026-05-01T09:41:48.208Z</time></trkpt><trkpt lat="43.5720683" lon="11.626325"><ele>231.0</ele><time>2026-05-01T09:41:50.207Z</time></trkpt><trkpt lat="43.5721433" lon="11.6264217"><ele>231.0</ele><time>2026-05-01T09:41:52.21Z</time></trkpt><trkpt lat="43.5722167" lon="11.6265167"><ele>231.4</ele><time>2026-05-01T09:41:54.208Z</time></trkpt><trkpt lat="43.5722883" lon="11.6266033"><ele>231.8</ele><time>2026-05-01T09:41:56.208Z</time></trkpt><trkpt lat="43.5723533" lon="11.6267033"><ele>232.20000000000002</ele><time>2026-05-01T09:41:58.206Z</time></trkpt><trkpt lat="43.5724133" lon="11.6268133"><ele>232.60000000000002</ele><time>2026-05-01T09:42:00.208Z</time></trkpt><trkpt lat="43.57246" lon="11.626925"><ele>233.0</ele><time>2026-05-01T09:42:02.208Z</time></trkpt><trkpt lat="43.5725067" lon="11.6270583"><ele>234.0</ele><time>2026-05-01T09:42:04.207Z</time></trkpt><trkpt lat="43.5725383" lon="11.6271633"><ele>235.0</ele><time>2026-05-01T09:42:06.207Z</time></trkpt><trkpt lat="43.572565" lon="11.62726"><ele>236.0</ele><time>2026-05-01T09:42:08.207Z</time></trkpt><trkpt lat="43.5725833" lon="11.62736"><ele>237.0</ele><time>2026-05-01T09:42:10.208Z</time></trkpt><trkpt lat="43.5725917" lon="11.6274583"><ele>238.0</ele><time>2026-05-01T09:42:12.207Z</time></trkpt><trkpt lat="43.5725933" lon="11.62755"><ele>239.0</ele><time>2026-05-01T09:42:14.208Z</time></trkpt><trkpt lat="43.5725867" lon="11.6276367"><ele>240.0</ele><time>2026-05-01T09:42:16.207Z</time></trkpt><trkpt lat="43.5725767" lon="11.6277533"><ele>242.0</ele><time>2026-05-01T09:42:19.207Z</time></trkpt><trkpt lat="43.5725483" lon="11.6278533"><ele>244.0</ele><time>2026-05-01T09:42:22.207Z</time></trkpt><trkpt lat="43.5725267" lon="11.6279383"><ele>246.0</ele><time>2026-05-01T09:42:25.207Z</time></trkpt><trkpt lat="43.5724967" lon="11.628015"><ele>248.0</ele><time>2026-05-01T09:42:28.207Z</time></trkpt><trkpt lat="43.5724683" lon="11.6280983"><ele>250.0</ele><time>2026-05-01T09:42:33.208Z</time></trkpt><trkpt lat="43.572455" lon="11.6282017"><ele>252.0</ele><time>2026-05-01T09:42:39.204Z</time></trkpt><trkpt lat="43.5724183" lon="11.628275"><ele>254.0</ele><time>2026-05-01T09:42:44.207Z</time></trkpt><trkpt lat="43.5723983" lon="11.628365"><ele>254.0</ele><time>2026-05-01T09:42:48.206Z</time></trkpt><trkpt lat="43.5723833" lon="11.6284683"><ele>254.0</ele><time>2026-05-01T09:42:53.205Z</time></trkpt><trkpt lat="43.572375" lon="11.6285683"><ele>254.0</ele><time>2026-05-01T09:42:57.207Z</time></trkpt><trkpt lat="43.5723817" lon="11.6286617"><ele>254.0</ele><time>2026-05-01T09:43:01.203Z</time></trkpt><trkpt lat="43.5724017" lon="11.6287517"><ele>254.0</ele><time>2026-05-01T09:43:04.207Z</time></trkpt><trkpt lat="43.572435" lon="11.628835"><ele>254.0</ele><time>2026-05-01T09:43:07.206Z</time></trkpt><trkpt lat="43.572465" lon="11.62892"><ele>254.0</ele><time>2026-05-01T09:43:10.209Z</time></trkpt><trkpt lat="43.5724783" lon="11.6290233"><ele>255.83333333333334</ele><time>2026-05-01T09:43:14.208Z</time></trkpt><trkpt lat="43.5725033" lon="11.6291183"><ele>257.6666666666667</ele><time>2026-05-01T09:43:19.206Z</time></trkpt><trkpt lat="43.5725183" lon="11.629245"><ele>259.5</ele><time>2026-05-01T09:43:23.205Z</time></trkpt><trkpt lat="43.5725433" lon="11.6293483"><ele>261.3333333333333</ele><time>2026-05-01T09:43:27.207Z</time></trkpt><trkpt lat="43.57257" lon="11.62945"><ele>263.16666666666663</ele><time>2026-05-01T09:43:31.206Z</time></trkpt><trkpt lat="43.57259" lon="11.629555"><ele>265.0</ele><time>2026-05-01T09:43:35.207Z</time></trkpt><trkpt lat="43.572605" lon="11.6296617"><ele>265.66666666666663</ele><time>2026-05-01T09:43:38.205Z</time></trkpt><trkpt lat="43.5725983" lon="11.629755"><ele>266.3333333333333</ele><time>2026-05-01T09:43:41.207Z</time></trkpt><trkpt lat="43.57262" lon="11.62986"><ele>267.0</ele><time>2026-05-01T09:43:45.207Z</time></trkpt><trkpt lat="43.57266" lon="11.6299467"><ele>267.6666666666667</ele><time>2026-05-01T09:43:49.208Z</time></trkpt><trkpt lat="43.5727133" lon="11.6300267"><ele>268.33333333333337</ele><time>2026-05-01T09:43:52.207Z</time></trkpt><trkpt lat="43.57276" lon="11.630095"><ele>269.0</ele><time>2026-05-01T09:43:54.204Z</time></trkpt><trkpt lat="43.5728183" lon="11.6301867"><ele>269.33333333333337</ele><time>2026-05-01T09:43:57.207Z</time></trkpt><trkpt lat="43.5728583" lon="11.6302567"><ele>269.6666666666667</ele><time>2026-05-01T09:43:59.207Z</time></trkpt><trkpt lat="43.5728933" lon="11.6303433"><ele>270.0</ele><time>2026-05-01T09:44:01.205Z</time></trkpt><trkpt lat="43.5729333" lon="11.630455"><ele>270.3333333333333</ele><time>2026-05-01T09:44:03.207Z</time></trkpt><trkpt lat="43.572965" lon="11.6305667"><ele>270.66666666666663</ele><time>2026-05-01T09:44:05.207Z</time></trkpt><trkpt lat="43.5730017" lon="11.6306867"><ele>271.0</ele><time>2026-05-01T09:44:07.208Z</time></trkpt><trkpt lat="43.5730333" lon="11.63079"><ele>271.2</ele><time>2026-05-01T09:44:09.204Z</time></trkpt><trkpt lat="43.57307" lon="11.6309067"><ele>271.40000000000003</ele><time>2026-05-01T09:44:11.209Z</time></trkpt><trkpt lat="43.5731167" lon="11.6310317"><ele>271.6</ele><time>2026-05-01T09:44:13.207Z</time></trkpt><trkpt lat="43.5731733" lon="11.631125"><ele>271.8</ele><time>2026-05-01T09:44:15.205Z</time></trkpt><trkpt lat="43.5732383" lon="11.63121"><ele>272.0</ele><time>2026-05-01T09:44:17.206Z</time></trkpt><trkpt lat="43.5733183" lon="11.631305"><ele>272.0</ele><time>2026-05-01T09:44:19.208Z</time></trkpt><trkpt lat="43.5733983" lon="11.6313817"><ele>272.0</ele><time>2026-05-01T09:44:21.21Z</time></trkpt><trkpt lat="43.5734867" lon="11.6314617"><ele>272.0</ele><time>2026-05-01T09:44:23.208Z</time></trkpt><trkpt lat="43.573575" lon="11.6315483"><ele>272.0</ele><time>2026-05-01T09:44:25.209Z</time></trkpt><trkpt lat="43.57366" lon="11.6316217"><ele>272.0</ele><time>2026-05-01T09:44:27.21Z</time></trkpt><trkpt lat="43.573745" lon="11.63169"><ele>272.6</ele><time>2026-05-01T09:44:29.21Z</time></trkpt><trkpt lat="43.573835" lon="11.631745"><ele>273.2</ele><time>2026-05-01T09:44:31.211Z</time></trkpt><trkpt lat="43.5739233" lon="11.6317367"><ele>273.8</ele><time>2026-05-01T09:44:33.209Z</time></trkpt><trkpt lat="43.573995" lon="11.63166"><ele>274.4</ele><time>2026-05-01T09:44:35.211Z</time></trkpt><trkpt lat="43.5740383" lon="11.6315367"><ele>275.0</ele><time>2026-05-01T09:44:37.207Z</time></trkpt><trkpt lat="43.57409" lon="11.6314017"><ele>275.0</ele><time>2026-05-01T09:44:39.21Z</time></trkpt><trkpt lat="43.574175" lon="11.6313017"><ele>275.0</ele><time>2026-05-01T09:44:41.206Z</time></trkpt><trkpt lat="43.5742967" lon="11.63131"><ele>275.0</ele><time>2026-05-01T09:44:43.207Z</time></trkpt><trkpt lat="43.5743583" lon="11.6313483"><ele>275.0</ele><time>2026-05-01T09:44:44.209Z</time></trkpt><trkpt lat="43.57442" lon="11.631395"><ele>275.0</ele><time>2026-05-01T09:44:45.207Z</time></trkpt><trkpt lat="43.5744783" lon="11.6314333"><ele>275.0</ele><time>2026-05-01T09:44:46.208Z</time></trkpt><trkpt lat="43.57454" lon="11.631465"><ele>275.0</ele><time>2026-05-01T09:44:47.208Z</time></trkpt><trkpt lat="43.5746633" lon="11.6314983"><ele>275.0</ele><time>2026-05-01T09:44:49.209Z</time></trkpt><trkpt lat="43.5747817" lon="11.6314467"><ele>275.0</ele><time>2026-05-01T09:44:51.207Z</time></trkpt><trkpt lat="43.5748667" lon="11.631345"><ele>275.0</ele><time>2026-05-01T09:44:53.207Z</time></trkpt><trkpt lat="43.57496" lon="11.6312467"><ele>275.0</ele><time>2026-05-01T09:44:55.207Z</time></trkpt><trkpt lat="43.57507" lon="11.6311733"><ele>275.0</ele><time>2026-05-01T09:44:57.207Z</time></trkpt><trkpt lat="43.5751783" lon="11.6311267"><ele>275.0</ele><time>2026-05-01T09:44:59.208Z</time></trkpt><trkpt lat="43.57528" lon="11.631085"><ele>275.0</ele><time>2026-05-01T09:45:01.208Z</time></trkpt><trkpt lat="43.575385" lon="11.631045"><ele>275.0</ele><time>2026-05-01T09:45:03.208Z</time></trkpt><trkpt lat="43.5754867" lon="11.6310017"><ele>275.0</ele><time>2026-05-01T09:45:05.207Z</time></trkpt><trkpt lat="43.5755967" lon="11.6309633"><ele>275.0</ele><time>2026-05-01T09:45:07.208Z</time></trkpt><trkpt lat="43.575715" lon="11.6309283"><ele>275.0</ele><time>2026-05-01T09:45:09.208Z</time></trkpt><trkpt lat="43.5757783" lon="11.6309133"><ele>275.0</ele><time>2026-05-01T09:45:10.209Z</time></trkpt><trkpt lat="43.5759017" lon="11.6308917"><ele>275.0</ele><time>2026-05-01T09:45:12.21Z</time></trkpt><trkpt lat="43.576015" lon="11.63087"><ele>275.0</ele><time>2026-05-01T09:45:14.208Z</time></trkpt><trkpt lat="43.57613" lon="11.6308633"><ele>275.0</ele><time>2026-05-01T09:45:16.207Z</time></trkpt><trkpt lat="43.5762483" lon="11.6308683"><ele>275.0</ele><time>2026-05-01T09:45:18.208Z</time></trkpt><trkpt lat="43.5763317" lon="11.63088"><ele>275.0</ele><time>2026-05-01T09:45:20.206Z</time></trkpt><trkpt lat="43.5764067" lon="11.6309117"><ele>275.6</ele><time>2026-05-01T09:45:22.205Z</time></trkpt><trkpt lat="43.5765033" lon="11.63094"><ele>276.2</ele><time>2026-05-01T09:45:24.206Z</time></trkpt><trkpt lat="43.5766133" lon="11.6309533"><ele>276.8</ele><time>2026-05-01T09:45:26.205Z</time></trkpt><trkpt lat="43.5767083" lon="11.6309583"><ele>277.4</ele><time>2026-05-01T09:45:28.209Z</time></trkpt><trkpt lat="43.5768133" lon="11.6309433"><ele>278.0</ele><time>2026-05-01T09:45:30.207Z</time></trkpt><trkpt lat="43.576905" lon="11.6309467"><ele>278.0</ele><time>2026-05-01T09:45:32.209Z</time></trkpt><trkpt lat="43.5769917" lon="11.630975"><ele>278.0</ele><time>2026-05-01T09:45:34.21Z</time></trkpt><trkpt lat="43.577085" lon="11.6310233"><ele>278.0</ele><time>2026-05-01T09:45:36.207Z</time></trkpt><trkpt lat="43.5771983" lon="11.631055"><ele>278.0</ele><time>2026-05-01T09:45:38.209Z</time></trkpt><trkpt lat="43.5773133" lon="11.631085"><ele>278.0</ele><time>2026-05-01T09:45:40.206Z</time></trkpt><trkpt lat="43.577425" lon="11.6311"><ele>277.8</ele><time>2026-05-01T09:45:42.208Z</time></trkpt><trkpt lat="43.5775333" lon="11.6311267"><ele>277.6</ele><time>2026-05-01T09:45:44.208Z</time></trkpt><trkpt lat="43.577635" lon="11.6311367"><ele>277.4</ele><time>2026-05-01T09:45:46.207Z</time></trkpt><trkpt lat="43.577735" lon="11.631145"><ele>277.2</ele><time>2026-05-01T09:45:48.208Z</time></trkpt><trkpt lat="43.577835" lon="11.631165"><ele>277.0</ele><time>2026-05-01T09:45:50.209Z</time></trkpt><trkpt lat="43.5779283" lon="11.631175"><ele>278.0</ele><time>2026-05-01T09:45:52.207Z</time></trkpt><trkpt lat="43.5780217" lon="11.6311883"><ele>279.0</ele><time>2026-05-01T09:45:54.208Z</time></trkpt><trkpt lat="43.5781183" lon="11.6311917"><ele>280.0</ele><time>2026-05-01T09:45:56.208Z</time></trkpt><trkpt lat="43.57821" lon="11.63119"><ele>281.0</ele><time>2026-05-01T09:45:58.205Z</time></trkpt><trkpt lat="43.5783133" lon="11.631205"><ele>282.0</ele><time>2026-05-01T09:46:00.207Z</time></trkpt><trkpt lat="43.57841" lon="11.6312233"><ele>282.0</ele><time>2026-05-01T09:46:02.209Z</time></trkpt><trkpt lat="43.57851" lon="11.6312567"><ele>282.0</ele><time>2026-05-01T09:46:04.206Z</time></trkpt><trkpt lat="43.5786083" lon="11.6313083"><ele>282.0</ele><time>2026-05-01T09:46:06.209Z</time></trkpt><trkpt lat="43.5787" lon="11.6313683"><ele>282.0</ele><time>2026-05-01T09:46:08.208Z</time></trkpt><trkpt lat="43.5787883" lon="11.6314367"><ele>282.0</ele><time>2026-05-01T09:46:10.207Z</time></trkpt><trkpt lat="43.5788733" lon="11.6315017"><ele>281.8</ele><time>2026-05-01T09:46:12.208Z</time></trkpt><trkpt lat="43.5789567" lon="11.631565"><ele>281.6</ele><time>2026-05-01T09:46:14.208Z</time></trkpt><trkpt lat="43.579045" lon="11.6316283"><ele>281.40000000000003</ele><time>2026-05-01T09:46:16.207Z</time></trkpt><trkpt lat="43.5791333" lon="11.6316917"><ele>281.2</ele><time>2026-05-01T09:46:18.209Z</time></trkpt><trkpt lat="43.57922" lon="11.6317517"><ele>281.0</ele><time>2026-05-01T09:46:20.208Z</time></trkpt><trkpt lat="43.5793017" lon="11.6317983"><ele>281.0</ele><time>2026-05-01T09:46:22.209Z</time></trkpt><trkpt lat="43.5793983" lon="11.6318567"><ele>281.0</ele><time>2026-05-01T09:46:24.207Z</time></trkpt><trkpt lat="43.5794867" lon="11.6319033"><ele>281.0</ele><time>2026-05-01T09:46:26.208Z</time></trkpt><trkpt lat="43.57958" lon="11.6319467"><ele>281.0</ele><time>2026-05-01T09:46:28.207Z</time></trkpt><trkpt lat="43.5796683" lon="11.6320033"><ele>281.0</ele><time>2026-05-01T09:46:30.207Z</time></trkpt><trkpt lat="43.57975" lon="11.6320467"><ele>283.1666666666667</ele><time>2026-05-01T09:46:32.207Z</time></trkpt><trkpt lat="43.57983" lon="11.632095"><ele>285.33333333333337</ele><time>2026-05-01T09:46:34.206Z</time></trkpt><trkpt lat="43.5799067" lon="11.632145"><ele>287.5</ele><time>2026-05-01T09:46:36.208Z</time></trkpt><trkpt lat="43.5799783" lon="11.6321833"><ele>289.6666666666667</ele><time>2026-05-01T09:46:38.208Z</time></trkpt><trkpt lat="43.5800433" lon="11.6322217"><ele>291.8333333333333</ele><time>2026-05-01T09:46:40.207Z</time></trkpt><trkpt lat="43.5801083" lon="11.632265"><ele>294.0</ele><time>2026-05-01T09:46:42.208Z</time></trkpt><trkpt lat="43.5801717" lon="11.6323117"><ele>294.0</ele><time>2026-05-01T09:46:44.208Z</time></trkpt><trkpt lat="43.5802317" lon="11.6323617"><ele>294.0</ele><time>2026-05-01T09:46:46.207Z</time></trkpt><trkpt lat="43.5802917" lon="11.6324167"><ele>294.0</ele><time>2026-05-01T09:46:48.208Z</time></trkpt><trkpt lat="43.58036" lon="11.6324883"><ele>294.0</ele><time>2026-05-01T09:46:50.208Z</time></trkpt><trkpt lat="43.580415" lon="11.63256"><ele>294.0</ele><time>2026-05-01T09:46:52.207Z</time></trkpt><trkpt lat="43.5804617" lon="11.63263"><ele>294.0</ele><time>2026-05-01T09:46:54.208Z</time></trkpt><trkpt lat="43.5805117" lon="11.6327017"><ele>294.0</ele><time>2026-05-01T09:46:56.209Z</time></trkpt><trkpt lat="43.58056" lon="11.632765"><ele>295.5</ele><time>2026-05-01T09:46:58.208Z</time></trkpt><trkpt lat="43.58061" lon="11.6328433"><ele>297.0</ele><time>2026-05-01T09:47:00.209Z</time></trkpt><trkpt lat="43.5806733" lon="11.6329283"><ele>298.5</ele><time>2026-05-01T09:47:03.209Z</time></trkpt><trkpt lat="43.58074" lon="11.633"><ele>300.0</ele><time>2026-05-01T09:47:06.211Z</time></trkpt><trkpt lat="43.580795" lon="11.6330433"><ele>301.5</ele><time>2026-05-01T09:47:08.209Z</time></trkpt><trkpt lat="43.5808617" lon="11.6330933"><ele>303.0</ele><time>2026-05-01T09:47:10.209Z</time></trkpt><trkpt lat="43.58094" lon="11.6331233"><ele>303.0</ele><time>2026-05-01T09:47:12.207Z</time></trkpt><trkpt lat="43.5810083" lon="11.6331383"><ele>303.0</ele><time>2026-05-01T09:47:14.207Z</time></trkpt><trkpt lat="43.5811" lon="11.6331717"><ele>303.0</ele><time>2026-05-01T09:47:17.206Z</time></trkpt><trkpt lat="43.581165" lon="11.633195"><ele>303.0</ele><time>2026-05-01T09:47:19.208Z</time></trkpt><trkpt lat="43.5812317" lon="11.633235"><ele>303.0</ele><time>2026-05-01T09:47:21.207Z</time></trkpt><trkpt lat="43.5812883" lon="11.633275"><ele>303.0</ele><time>2026-05-01T09:47:23.207Z</time></trkpt><trkpt lat="43.581365" lon="11.633325"><ele>303.8333333333333</ele><time>2026-05-01T09:47:26.207Z</time></trkpt><trkpt lat="43.5814367" lon="11.6333767"><ele>304.6666666666667</ele><time>2026-05-01T09:47:29.207Z</time></trkpt><trkpt lat="43.58151" lon="11.6334467"><ele>305.5</ele><time>2026-05-01T09:47:32.208Z</time></trkpt><trkpt lat="43.5815717" lon="11.633505"><ele>306.33333333333337</ele><time>2026-05-01T09:47:35.207Z</time></trkpt><trkpt lat="43.581635" lon="11.6335317"><ele>307.1666666666667</ele><time>2026-05-01T09:47:40.206Z</time></trkpt><trkpt lat="43.5816983" lon="11.6335983"><ele>308.0</ele><time>2026-05-01T09:47:45.205Z</time></trkpt><trkpt lat="43.581755" lon="11.6336717"><ele>310.1666666666667</ele><time>2026-05-01T09:47:49.206Z</time></trkpt><trkpt lat="43.581805" lon="11.633765"><ele>312.33333333333337</ele><time>2026-05-01T09:47:52.205Z</time></trkpt><trkpt lat="43.5818683" lon="11.6338067"><ele>314.5</ele><time>2026-05-01T09:47:55.207Z</time></trkpt><trkpt lat="43.581935" lon="11.6338333"><ele>316.6666666666667</ele><time>2026-05-01T09:47:58.208Z</time></trkpt><trkpt lat="43.5820667" lon="11.633835"><ele>318.8333333333333</ele><time>2026-05-01T09:50:53.208Z</time></trkpt><trkpt lat="43.58212" lon="11.6337617"><ele>321.0</ele><time>2026-05-01T09:50:58.205Z</time></trkpt><trkpt lat="43.5821817" lon="11.63369"><ele>319.2</ele><time>2026-05-01T09:51:01.207Z</time></trkpt><trkpt lat="43.5822417" lon="11.633615"><ele>317.40000000000003</ele><time>2026-05-01T09:51:03.207Z</time></trkpt><trkpt lat="43.5823167" lon="11.6335333"><ele>315.6</ele><time>2026-05-01T09:51:05.207Z</time></trkpt><trkpt lat="43.5823967" lon="11.6334683"><ele>313.8</ele><time>2026-05-01T09:51:07.205Z</time></trkpt><trkpt lat="43.5824933" lon="11.6333983"><ele>312.0</ele><time>2026-05-01T09:51:09.207Z</time></trkpt><trkpt lat="43.58258" lon="11.63336"><ele>312.0</ele><time>2026-05-01T09:51:11.208Z</time></trkpt><trkpt lat="43.5826983" lon="11.6333283"><ele>312.0</ele><time>2026-05-01T09:51:13.208Z</time></trkpt><trkpt lat="43.58282" lon="11.6333217"><ele>312.0</ele><time>2026-05-01T09:51:15.205Z</time></trkpt><trkpt lat="43.5829333" lon="11.633295"><ele>312.0</ele><time>2026-05-01T09:51:17.207Z</time></trkpt><trkpt lat="43.5829983" lon="11.6333"><ele>312.0</ele><time>2026-05-01T09:51:18.207Z</time></trkpt><trkpt lat="43.5830683" lon="11.6333067"><ele>311.6666666666667</ele><time>2026-05-01T09:51:19.208Z</time></trkpt><trkpt lat="43.5831417" lon="11.63332"><ele>311.3333333333333</ele><time>2026-05-01T09:51:20.209Z</time></trkpt><trkpt lat="43.58322" lon="11.633335"><ele>311.0</ele><time>2026-05-01T09:51:21.207Z</time></trkpt><trkpt lat="43.5833" lon="11.6333517"><ele>310.66666666666663</ele><time>2026-05-01T09:51:22.208Z</time></trkpt><trkpt lat="43.5833733" lon="11.63337"><ele>310.3333333333333</ele><time>2026-05-01T09:51:23.208Z</time></trkpt><trkpt lat="43.5834517" lon="11.633395"><ele>310.0</ele><time>2026-05-01T09:51:24.21Z</time></trkpt><trkpt lat="43.5835267" lon="11.633415"><ele>310.0</ele><time>2026-05-01T09:51:25.209Z</time></trkpt><trkpt lat="43.5836" lon="11.6334317"><ele>310.0</ele><time>2026-05-01T09:51:26.208Z</time></trkpt><trkpt lat="43.5836717" lon="11.6334533"><ele>310.0</ele><time>2026-05-01T09:51:27.208Z</time></trkpt><trkpt lat="43.58374" lon="11.6334683"><ele>310.0</ele><time>2026-05-01T09:51:28.207Z</time></trkpt><trkpt lat="43.5838117" lon="11.6334917"><ele>310.0</ele><time>2026-05-01T09:51:29.208Z</time></trkpt><trkpt lat="43.583885" lon="11.6335117"><ele>310.0</ele><time>2026-05-01T09:51:30.208Z</time></trkpt><trkpt lat="43.58395" lon="11.633535"><ele>310.0</ele><time>2026-05-01T09:51:31.207Z</time></trkpt><trkpt lat="43.58402" lon="11.6335633"><ele>310.16666666666663</ele><time>2026-05-01T09:51:32.208Z</time></trkpt><trkpt lat="43.5840867" lon="11.6335933"><ele>310.3333333333333</ele><time>2026-05-01T09:51:33.207Z</time></trkpt><trkpt lat="43.58415" lon="11.633625"><ele>310.5</ele><time>2026-05-01T09:51:34.206Z</time></trkpt><trkpt lat="43.5842133" lon="11.6336533"><ele>310.6666666666667</ele><time>2026-05-01T09:51:35.207Z</time></trkpt><trkpt lat="43.584275" lon="11.63368"><ele>310.83333333333337</ele><time>2026-05-01T09:51:36.209Z</time></trkpt><trkpt lat="43.5843917" lon="11.6337217"><ele>311.0</ele><time>2026-05-01T09:51:38.209Z</time></trkpt><trkpt lat="43.5845017" lon="11.63377"><ele>313.75</ele><time>2026-05-01T09:51:40.209Z</time></trkpt><trkpt lat="43.5846083" lon="11.6338217"><ele>316.5</ele><time>2026-05-01T09:51:42.209Z</time></trkpt><trkpt lat="43.58472" lon="11.6338733"><ele>319.25</ele><time>2026-05-01T09:51:44.208Z</time></trkpt><trkpt lat="43.5848367" lon="11.6339267"><ele>322.0</ele><time>2026-05-01T09:51:46.209Z</time></trkpt><trkpt lat="43.5849467" lon="11.6339633"><ele>322.0</ele><time>2026-05-01T09:51:48.208Z</time></trkpt><trkpt lat="43.5850517" lon="11.633995"><ele>322.0</ele><time>2026-05-01T09:51:50.207Z</time></trkpt><trkpt lat="43.5851567" lon="11.6340367"><ele>322.0</ele><time>2026-05-01T09:51:52.208Z</time></trkpt><trkpt lat="43.58526" lon="11.6340733"><ele>322.0</ele><time>2026-05-01T09:51:54.207Z</time></trkpt><trkpt lat="43.5853683" lon="11.6341067"><ele>322.0</ele><time>2026-05-01T09:51:56.208Z</time></trkpt><trkpt lat="43.58548" lon="11.6341417"><ele>321.8</ele><time>2026-05-01T09:51:58.207Z</time></trkpt><trkpt lat="43.5855883" lon="11.6341917"><ele>321.6</ele><time>2026-05-01T09:52:00.208Z</time></trkpt><trkpt lat="43.5856933" lon="11.634235"><ele>321.40000000000003</ele><time>2026-05-01T09:52:02.209Z</time></trkpt><trkpt lat="43.5858" lon="11.6342733"><ele>321.20000000000005</ele><time>2026-05-01T09:52:04.207Z</time></trkpt><trkpt lat="43.585905" lon="11.6343183"><ele>321.0</ele><time>2026-05-01T09:52:06.208Z</time></trkpt><trkpt lat="43.5860033" lon="11.634355"><ele>321.0</ele><time>2026-05-01T09:52:08.212Z</time></trkpt><trkpt lat="43.58611" lon="11.6344033"><ele>321.0</ele><time>2026-05-01T09:52:10.209Z</time></trkpt><trkpt lat="43.5862117" lon="11.6344367"><ele>321.0</ele><time>2026-05-01T09:52:12.209Z</time></trkpt><trkpt lat="43.5863217" lon="11.634465"><ele>321.0</ele><time>2026-05-01T09:52:14.21Z</time></trkpt><trkpt lat="43.5864383" lon="11.634465"><ele>321.0</ele><time>2026-05-01T09:52:16.207Z</time></trkpt><trkpt lat="43.5865533" lon="11.6344317"><ele>320.8</ele><time>2026-05-01T09:52:18.208Z</time></trkpt><trkpt lat="43.5866583" lon="11.63436"><ele>320.6</ele><time>2026-05-01T09:52:20.21Z</time></trkpt><trkpt lat="43.5867533" lon="11.6342567"><ele>320.4</ele><time>2026-05-01T09:52:22.207Z</time></trkpt><trkpt lat="43.586825" lon="11.63411"><ele>320.2</ele><time>2026-05-01T09:52:24.208Z</time></trkpt><trkpt lat="43.5868517" lon="11.63402"><ele>320.0</ele><time>2026-05-01T09:52:25.208Z</time></trkpt><trkpt lat="43.5868733" lon="11.63392"><ele>320.0</ele><time>2026-05-01T09:52:26.211Z</time></trkpt><trkpt lat="43.5868967" lon="11.6338083"><ele>320.0</ele><time>2026-05-01T09:52:27.209Z</time></trkpt><trkpt lat="43.5869183" lon="11.6336967"><ele>320.0</ele><time>2026-05-01T09:52:28.207Z</time></trkpt><trkpt lat="43.5869433" lon="11.6335833"><ele>320.0</ele><time>2026-05-01T09:52:29.21Z</time></trkpt><trkpt lat="43.58698" lon="11.63347"><ele>320.0</ele><time>2026-05-01T09:52:30.21Z</time></trkpt><trkpt lat="43.5870283" lon="11.633365"><ele>320.0</ele><time>2026-05-01T09:52:31.208Z</time></trkpt><trkpt lat="43.5870867" lon="11.6332617"><ele>319.2</ele><time>2026-05-01T09:52:32.208Z</time></trkpt><trkpt lat="43.58715" lon="11.6331667"><ele>318.4</ele><time>2026-05-01T09:52:33.209Z</time></trkpt><trkpt lat="43.5872217" lon="11.6330817"><ele>317.6</ele><time>2026-05-01T09:52:34.208Z</time></trkpt><trkpt lat="43.5873017" lon="11.633005"><ele>316.8</ele><time>2026-05-01T09:52:35.208Z</time></trkpt><trkpt lat="43.58738" lon="11.6329417"><ele>316.0</ele><time>2026-05-01T09:52:36.207Z</time></trkpt><trkpt lat="43.5874633" lon="11.6328883"><ele>316.0</ele><time>2026-05-01T09:52:37.207Z</time></trkpt><trkpt lat="43.58755" lon="11.632845"><ele>316.0</ele><time>2026-05-01T09:52:38.208Z</time></trkpt><trkpt lat="43.58764" lon="11.6328167"><ele>316.0</ele><time>2026-05-01T09:52:39.209Z</time></trkpt><trkpt lat="43.5877317" lon="11.6327917"><ele>316.0</ele><time>2026-05-01T09:52:40.209Z</time></trkpt><trkpt lat="43.5878267" lon="11.6327633"><ele>316.0</ele><time>2026-05-01T09:52:41.207Z</time></trkpt><trkpt lat="43.58792" lon="11.63274"><ele>312.8</ele><time>2026-05-01T09:52:42.209Z</time></trkpt><trkpt lat="43.5880133" lon="11.6327167"><ele>309.6</ele><time>2026-05-01T09:52:43.209Z</time></trkpt><trkpt lat="43.5881067" lon="11.6326933"><ele>306.4</ele><time>2026-05-01T09:52:44.208Z</time></trkpt><trkpt lat="43.588205" lon="11.6326733"><ele>303.2</ele><time>2026-05-01T09:52:45.207Z</time></trkpt><trkpt lat="43.5883017" lon="11.63265"><ele>300.0</ele><time>2026-05-01T09:52:46.209Z</time></trkpt><trkpt lat="43.5884" lon="11.6326233"><ele>300.0</ele><time>2026-05-01T09:52:47.209Z</time></trkpt><trkpt lat="43.5884967" lon="11.6326017"><ele>300.0</ele><time>2026-05-01T09:52:48.208Z</time></trkpt><trkpt lat="43.5885983" lon="11.6325817"><ele>300.0</ele><time>2026-05-01T09:52:49.21Z</time></trkpt><trkpt lat="43.5886967" lon="11.6325683"><ele>300.0</ele><time>2026-05-01T09:52:50.207Z</time></trkpt><trkpt lat="43.5887967" lon="11.6325683"><ele>300.0</ele><time>2026-05-01T09:52:51.208Z</time></trkpt><trkpt lat="43.5888967" lon="11.6325817"><ele>300.6</ele><time>2026-05-01T09:52:52.207Z</time></trkpt><trkpt lat="43.5889967" lon="11.63261"><ele>301.2</ele><time>2026-05-01T09:52:53.207Z</time></trkpt><trkpt lat="43.5890917" lon="11.6326383"><ele>301.8</ele><time>2026-05-01T09:52:54.209Z</time></trkpt><trkpt lat="43.5891883" lon="11.632665"><ele>302.4</ele><time>2026-05-01T09:52:55.207Z</time></trkpt><trkpt lat="43.5892867" lon="11.6326783"><ele>303.0</ele><time>2026-05-01T09:52:56.21Z</time></trkpt><trkpt lat="43.5893833" lon="11.63267"><ele>303.0</ele><time>2026-05-01T09:52:57.209Z</time></trkpt><trkpt lat="43.5894767" lon="11.6326483"><ele>303.0</ele><time>2026-05-01T09:52:58.208Z</time></trkpt><trkpt lat="43.5895683" lon="11.63262"><ele>303.0</ele><time>2026-05-01T09:52:59.208Z</time></trkpt><trkpt lat="43.58966" lon="11.6325933"><ele>303.0</ele><time>2026-05-01T09:53:00.208Z</time></trkpt><trkpt lat="43.5897433" lon="11.6325583"><ele>303.0</ele><time>2026-05-01T09:53:01.209Z</time></trkpt><trkpt lat="43.5898317" lon="11.63252"><ele>304.0</ele><time>2026-05-01T09:53:02.207Z</time></trkpt><trkpt lat="43.5899183" lon="11.63249"><ele>305.0</ele><time>2026-05-01T09:53:03.208Z</time></trkpt><trkpt lat="43.5900033" lon="11.6324667"><ele>306.0</ele><time>2026-05-01T09:53:04.207Z</time></trkpt><trkpt lat="43.5900867" lon="11.632455"><ele>307.0</ele><time>2026-05-01T09:53:05.208Z</time></trkpt><trkpt lat="43.5901683" lon="11.6324567"><ele>308.0</ele><time>2026-05-01T09:53:06.208Z</time></trkpt><trkpt lat="43.5902383" lon="11.632465"><ele>309.0</ele><time>2026-05-01T09:53:07.208Z</time></trkpt><trkpt lat="43.590305" lon="11.6324733"><ele>309.1666666666667</ele><time>2026-05-01T09:53:08.209Z</time></trkpt><trkpt lat="43.5903683" lon="11.632485"><ele>309.3333333333333</ele><time>2026-05-01T09:53:09.211Z</time></trkpt><trkpt lat="43.5904333" lon="11.63251"><ele>309.5</ele><time>2026-05-01T09:53:10.207Z</time></trkpt><trkpt lat="43.590495" lon="11.632535"><ele>309.66666666666663</ele><time>2026-05-01T09:53:11.207Z</time></trkpt><trkpt lat="43.59056" lon="11.632565"><ele>309.8333333333333</ele><time>2026-05-01T09:53:12.21Z</time></trkpt><trkpt lat="43.5906233" lon="11.6325983"><ele>310.0</ele><time>2026-05-01T09:53:13.209Z</time></trkpt><trkpt lat="43.590735" lon="11.6326717"><ele>310.0</ele><time>2026-05-01T09:53:15.209Z</time></trkpt><trkpt lat="43.590835" lon="11.6327367"><ele>310.0</ele><time>2026-05-01T09:53:17.209Z</time></trkpt><trkpt lat="43.590925" lon="11.6328"><ele>310.0</ele><time>2026-05-01T09:53:19.208Z</time></trkpt><trkpt lat="43.5910233" lon="11.6328567"><ele>310.0</ele><time>2026-05-01T09:53:21.207Z</time></trkpt><trkpt lat="43.5911233" lon="11.6329083"><ele>310.0</ele><time>2026-05-01T09:53:23.208Z</time></trkpt><trkpt lat="43.59122" lon="11.6329817"><ele>313.2</ele><time>2026-05-01T09:53:25.207Z</time></trkpt><trkpt lat="43.5913233" lon="11.6330183"><ele>316.4</ele><time>2026-05-01T09:53:27.208Z</time></trkpt><trkpt lat="43.591385" lon="11.6330417"><ele>319.6</ele><time>2026-05-01T09:53:28.208Z</time></trkpt><trkpt lat="43.5915" lon="11.6330417"><ele>322.8</ele><time>2026-05-01T09:53:30.207Z</time></trkpt><trkpt lat="43.5915883" lon="11.633"><ele>326.0</ele><time>2026-05-01T09:53:32.208Z</time></trkpt><trkpt lat="43.5916733" lon="11.6329483"><ele>326.0</ele><time>2026-05-01T09:53:34.208Z</time></trkpt><trkpt lat="43.5917383" lon="11.6329283"><ele>326.0</ele><time>2026-05-01T09:53:35.208Z</time></trkpt><trkpt lat="43.5918483" lon="11.6329167"><ele>326.0</ele><time>2026-05-01T09:53:37.208Z</time></trkpt><trkpt lat="43.5919467" lon="11.63295"><ele>326.0</ele><time>2026-05-01T09:53:39.21Z</time></trkpt><trkpt lat="43.59204" lon="11.633005"><ele>326.0</ele><time>2026-05-01T09:53:41.208Z</time></trkpt><trkpt lat="43.5921083" lon="11.6330533"><ele>326.14285714285717</ele><time>2026-05-01T09:53:43.208Z</time></trkpt><trkpt lat="43.5921683" lon="11.6330933"><ele>326.2857142857143</ele><time>2026-05-01T09:53:45.208Z</time></trkpt><trkpt lat="43.59224" lon="11.6331317"><ele>326.42857142857144</ele><time>2026-05-01T09:53:47.209Z</time></trkpt><trkpt lat="43.5923067" lon="11.633155"><ele>326.57142857142856</ele><time>2026-05-01T09:53:49.207Z</time></trkpt><trkpt lat="43.5923817" lon="11.6331817"><ele>326.7142857142857</ele><time>2026-05-01T09:53:51.208Z</time></trkpt><trkpt lat="43.592465" lon="11.63316"><ele>326.85714285714283</ele><time>2026-05-01T09:53:53.207Z</time></trkpt><trkpt lat="43.5925267" lon="11.6331117"><ele>327.0</ele><time>2026-05-01T09:53:55.209Z</time></trkpt><trkpt lat="43.5926" lon="11.6330383"><ele>327.0</ele><time>2026-05-01T09:53:57.207Z</time></trkpt><trkpt lat="43.592645" lon="11.6329617"><ele>327.0</ele><time>2026-05-01T09:54:00.207Z</time></trkpt><trkpt lat="43.5926867" lon="11.6328533"><ele>327.0</ele><time>2026-05-01T09:54:03.205Z</time></trkpt><trkpt lat="43.5927267" lon="11.6327733"><ele>327.0</ele><time>2026-05-01T09:54:05.206Z</time></trkpt><trkpt lat="43.5927633" lon="11.63262"><ele>327.0</ele><time>2026-05-01T09:54:07.208Z</time></trkpt><trkpt lat="43.5927667" lon="11.6325267"><ele>327.0</ele><time>2026-05-01T09:54:08.208Z</time></trkpt><trkpt lat="43.5927617" lon="11.6324317"><ele>326.0</ele><time>2026-05-01T09:54:09.207Z</time></trkpt><trkpt lat="43.5927483" lon="11.632345"><ele>325.0</ele><time>2026-05-01T09:54:10.207Z</time></trkpt><trkpt lat="43.59274" lon="11.6321933"><ele>324.0</ele><time>2026-05-01T09:54:12.208Z</time></trkpt><trkpt lat="43.592755" lon="11.6320367"><ele>323.0</ele><time>2026-05-01T09:54:14.208Z</time></trkpt><trkpt lat="43.5928083" lon="11.6319533"><ele>322.0</ele><time>2026-05-01T09:54:16.208Z</time></trkpt><trkpt lat="43.5928933" lon="11.6319017"><ele>321.20000000000005</ele><time>2026-05-01T09:54:18.207Z</time></trkpt><trkpt lat="43.592965" lon="11.6318283"><ele>320.40000000000003</ele><time>2026-05-01T09:54:20.207Z</time></trkpt><trkpt lat="43.5930233" lon="11.6317033"><ele>319.6</ele><time>2026-05-01T09:54:22.207Z</time></trkpt><trkpt lat="43.5930433" lon="11.63156"><ele>318.8</ele><time>2026-05-01T09:54:24.208Z</time></trkpt><trkpt lat="43.59302" lon="11.63142"><ele>318.0</ele><time>2026-05-01T09:54:26.207Z</time></trkpt><trkpt lat="43.5930133" lon="11.6312883"><ele>318.0</ele><time>2026-05-01T09:54:28.206Z</time></trkpt><trkpt lat="43.5930017" lon="11.6311733"><ele>318.0</ele><time>2026-05-01T09:54:30.207Z</time></trkpt><trkpt lat="43.593005" lon="11.6310817"><ele>318.0</ele><time>2026-05-01T09:54:32.21Z</time></trkpt><trkpt lat="43.5930483" lon="11.6309567"><ele>318.0</ele><time>2026-05-01T09:55:36.207Z</time></trkpt><trkpt lat="43.5929583" lon="11.6308783"><ele>318.0</ele><time>2026-05-01T10:02:14.209Z</time></trkpt><trkpt lat="43.5928733" lon="11.6308267"><ele>317.6666666666667</ele><time>2026-05-01T10:02:17.207Z</time></trkpt><trkpt lat="43.5927967" lon="11.630785"><ele>317.3333333333333</ele><time>2026-05-01T10:02:19.207Z</time></trkpt><trkpt lat="43.5927133" lon="11.6307433"><ele>317.0</ele><time>2026-05-01T10:02:21.206Z</time></trkpt><trkpt lat="43.592625" lon="11.630715"><ele>316.66666666666663</ele><time>2026-05-01T10:02:23.206Z</time></trkpt><trkpt lat="43.5925417" lon="11.6306783"><ele>316.3333333333333</ele><time>2026-05-01T10:02:25.207Z</time></trkpt><trkpt lat="43.59246" lon="11.6306433"><ele>316.0</ele><time>2026-05-01T10:02:27.207Z</time></trkpt><trkpt lat="43.5923633" lon="11.630615"><ele>316.0</ele><time>2026-05-01T10:02:29.207Z</time></trkpt><trkpt lat="43.5922683" lon="11.6305983"><ele>316.0</ele><time>2026-05-01T10:02:31.209Z</time></trkpt><trkpt lat="43.5921667" lon="11.6305867"><ele>316.0</ele><time>2026-05-01T10:02:33.207Z</time></trkpt><trkpt lat="43.5920717" lon="11.630595"><ele>316.0</ele><time>2026-05-01T10:02:35.209Z</time></trkpt><trkpt lat="43.5919567" lon="11.6306217"><ele>316.0</ele><time>2026-05-01T10:02:37.208Z</time></trkpt><trkpt lat="43.5918367" lon="11.6306567"><ele>315.3333333333333</ele><time>2026-05-01T10:02:39.209Z</time></trkpt><trkpt lat="43.59171" lon="11.6306817"><ele>314.66666666666663</ele><time>2026-05-01T10:02:41.206Z</time></trkpt><trkpt lat="43.5916433" lon="11.6306917"><ele>314.0</ele><time>2026-05-01T10:02:42.21Z</time></trkpt><trkpt lat="43.591575" lon="11.6306967"><ele>313.3333333333333</ele><time>2026-05-01T10:02:43.209Z</time></trkpt><trkpt lat="43.5915067" lon="11.6306983"><ele>312.6666666666667</ele><time>2026-05-01T10:02:44.208Z</time></trkpt><trkpt lat="43.5914383" lon="11.6306967"><ele>312.0</ele><time>2026-05-01T10:02:45.207Z</time></trkpt><trkpt lat="43.5913717" lon="11.630685"><ele>312.0</ele><time>2026-05-01T10:02:46.21Z</time></trkpt><trkpt lat="43.5912567" lon="11.6306233"><ele>312.0</ele><time>2026-05-01T10:02:48.208Z</time></trkpt><trkpt lat="43.5911567" lon="11.6305183"><ele>312.0</ele><time>2026-05-01T10:02:50.208Z</time></trkpt><trkpt lat="43.59111" lon="11.630455"><ele>312.0</ele><time>2026-05-01T10:02:51.209Z</time></trkpt><trkpt lat="43.5910317" lon="11.6303283"><ele>312.0</ele><time>2026-05-01T10:02:53.207Z</time></trkpt><trkpt lat="43.5909533" lon="11.6302017"><ele>313.0</ele><time>2026-05-01T10:02:55.208Z</time></trkpt><trkpt lat="43.5909083" lon="11.6301383"><ele>314.0</ele><time>2026-05-01T10:02:56.208Z</time></trkpt><trkpt lat="43.5908633" lon="11.6300767"><ele>315.0</ele><time>2026-05-01T10:02:57.207Z</time></trkpt><trkpt lat="43.5907783" lon="11.6299683"><ele>316.0</ele><time>2026-05-01T10:02:59.208Z</time></trkpt><trkpt lat="43.5906917" lon="11.62986"><ele>317.0</ele><time>2026-05-01T10:03:01.207Z</time></trkpt><trkpt lat="43.590585" lon="11.6297633"><ele>317.0</ele><time>2026-05-01T10:03:03.207Z</time></trkpt><trkpt lat="43.59053" lon="11.62972"><ele>317.0</ele><time>2026-05-01T10:03:04.208Z</time></trkpt><trkpt lat="43.5904317" lon="11.62963"><ele>317.0</ele><time>2026-05-01T10:03:06.209Z</time></trkpt><trkpt lat="43.590375" lon="11.6295867"><ele>317.0</ele><time>2026-05-01T10:03:07.207Z</time></trkpt><trkpt lat="43.5903167" lon="11.629545"><ele>317.0</ele><time>2026-05-01T10:03:08.208Z</time></trkpt><trkpt lat="43.5902067" lon="11.6294633"><ele>317.0</ele><time>2026-05-01T10:03:10.208Z</time></trkpt><trkpt lat="43.5901433" lon="11.629425"><ele>317.2857142857143</ele><time>2026-05-01T10:03:11.21Z</time></trkpt><trkpt lat="43.5900817" lon="11.6293867"><ele>317.57142857142856</ele><time>2026-05-01T10:03:12.209Z</time></trkpt><trkpt lat="43.59002" lon="11.6293483"><ele>317.8571428571429</ele><time>2026-05-01T10:03:13.208Z</time></trkpt><trkpt lat="43.5899583" lon="11.62931"><ele>318.1428571428571</ele><time>2026-05-01T10:03:14.207Z</time></trkpt><trkpt lat="43.5899017" lon="11.6292683"><ele>318.4285714285714</ele><time>2026-05-01T10:03:15.208Z</time></trkpt><trkpt lat="43.589845" lon="11.62922"><ele>318.7142857142857</ele><time>2026-05-01T10:03:16.206Z</time></trkpt><trkpt lat="43.5897883" lon="11.629175"><ele>319.0</ele><time>2026-05-01T10:03:17.208Z</time></trkpt><trkpt lat="43.5897333" lon="11.62913"><ele>319.0</ele><time>2026-05-01T10:03:18.209Z</time></trkpt><trkpt lat="43.5896767" lon="11.6290867"><ele>319.0</ele><time>2026-05-01T10:03:19.209Z</time></trkpt><trkpt lat="43.5896183" lon="11.629045"><ele>319.0</ele><time>2026-05-01T10:03:20.208Z</time></trkpt><trkpt lat="43.5895617" lon="11.629"><ele>319.0</ele><time>2026-05-01T10:03:21.207Z</time></trkpt><trkpt lat="43.5895017" lon="11.628955"><ele>319.0</ele><time>2026-05-01T10:03:22.207Z</time></trkpt><trkpt lat="43.589445" lon="11.6289133"><ele>319.0</ele><time>2026-05-01T10:03:23.207Z</time></trkpt><trkpt lat="43.589385" lon="11.62887"><ele>319.0</ele><time>2026-05-01T10:03:24.209Z</time></trkpt><trkpt lat="43.5893267" lon="11.6288283"><ele>319.42857142857144</ele><time>2026-05-01T10:03:25.209Z</time></trkpt><trkpt lat="43.5892683" lon="11.6287817"><ele>319.85714285714283</ele><time>2026-05-01T10:03:26.21Z</time></trkpt><trkpt lat="43.5892117" lon="11.6287383"><ele>320.2857142857143</ele><time>2026-05-01T10:03:27.208Z</time></trkpt><trkpt lat="43.5891533" lon="11.628695"><ele>320.7142857142857</ele><time>2026-05-01T10:03:28.208Z</time></trkpt><trkpt lat="43.5890933" lon="11.6286483"><ele>321.1428571428571</ele><time>2026-05-01T10:03:29.208Z</time></trkpt><trkpt lat="43.5890333" lon="11.6285983"><ele>321.57142857142856</ele><time>2026-05-01T10:03:30.209Z</time></trkpt><trkpt lat="43.588975" lon="11.6285467"><ele>322.0</ele><time>2026-05-01T10:03:31.208Z</time></trkpt><trkpt lat="43.5889133" lon="11.62849"><ele>322.0</ele><time>2026-05-01T10:03:32.207Z</time></trkpt><trkpt lat="43.588855" lon="11.6284367"><ele>322.0</ele><time>2026-05-01T10:03:33.208Z</time></trkpt><trkpt lat="43.588795" lon="11.628385"><ele>322.0</ele><time>2026-05-01T10:03:34.207Z</time></trkpt><trkpt lat="43.5887283" lon="11.6283283"><ele>322.0</ele><time>2026-05-01T10:03:35.207Z</time></trkpt><trkpt lat="43.58866" lon="11.62827"><ele>322.0</ele><time>2026-05-01T10:03:36.207Z</time></trkpt><trkpt lat="43.5885983" lon="11.6282067"><ele>322.0</ele><time>2026-05-01T10:03:37.207Z</time></trkpt><trkpt lat="43.588535" lon="11.6281383"><ele>321.8333333333333</ele><time>2026-05-01T10:03:38.209Z</time></trkpt><trkpt lat="43.5884717" lon="11.628065"><ele>321.66666666666663</ele><time>2026-05-01T10:03:39.207Z</time></trkpt><trkpt lat="43.588415" lon="11.627985"><ele>321.5</ele><time>2026-05-01T10:03:40.208Z</time></trkpt><trkpt lat="43.5883617" lon="11.6279"><ele>321.3333333333333</ele><time>2026-05-01T10:03:41.207Z</time></trkpt><trkpt lat="43.588315" lon="11.627815"><ele>321.1666666666667</ele><time>2026-05-01T10:03:42.209Z</time></trkpt><trkpt lat="43.588275" lon="11.6277217"><ele>321.0</ele><time>2026-05-01T10:03:43.209Z</time></trkpt><trkpt lat="43.5882467" lon="11.62762"><ele>321.0</ele><time>2026-05-01T10:03:44.207Z</time></trkpt><trkpt lat="43.5882283" lon="11.6275117"><ele>321.0</ele><time>2026-05-01T10:03:45.209Z</time></trkpt><trkpt lat="43.5882217" lon="11.627405"><ele>321.0</ele><time>2026-05-01T10:03:46.208Z</time></trkpt><trkpt lat="43.58822" lon="11.6273"><ele>321.0</ele><time>2026-05-01T10:03:47.207Z</time></trkpt><trkpt lat="43.58822" lon="11.6271933"><ele>321.0</ele><time>2026-05-01T10:03:48.207Z</time></trkpt><trkpt lat="43.58822" lon="11.6270667"><ele>321.0</ele><time>2026-05-01T10:03:49.206Z</time></trkpt><trkpt lat="43.5882217" lon="11.6269533"><ele>320.8333333333333</ele><time>2026-05-01T10:03:50.209Z</time></trkpt><trkpt lat="43.5882267" lon="11.6268433"><ele>320.6666666666667</ele><time>2026-05-01T10:03:51.207Z</time></trkpt><trkpt lat="43.5882333" lon="11.62672"><ele>320.5</ele><time>2026-05-01T10:03:52.206Z</time></trkpt><trkpt lat="43.5882367" lon="11.6266017"><ele>320.33333333333337</ele><time>2026-05-01T10:03:53.208Z</time></trkpt><trkpt lat="43.5882367" lon="11.6264833"><ele>320.1666666666667</ele><time>2026-05-01T10:03:54.208Z</time></trkpt><trkpt lat="43.588235" lon="11.6263617"><ele>320.0</ele><time>2026-05-01T10:03:55.207Z</time></trkpt><trkpt lat="43.5882267" lon="11.6262417"><ele>319.8</ele><time>2026-05-01T10:03:56.207Z</time></trkpt><trkpt lat="43.5882083" lon="11.6261217"><ele>319.6</ele><time>2026-05-01T10:03:57.207Z</time></trkpt><trkpt lat="43.5881767" lon="11.62601"><ele>319.4</ele><time>2026-05-01T10:03:58.208Z</time></trkpt><trkpt lat="43.5881333" lon="11.625895"><ele>319.2</ele><time>2026-05-01T10:03:59.207Z</time></trkpt><trkpt lat="43.5880833" lon="11.625775"><ele>319.0</ele><time>2026-05-01T10:04:00.208Z</time></trkpt><trkpt lat="43.5880283" lon="11.6256633"><ele>319.0</ele><time>2026-05-01T10:04:01.21Z</time></trkpt><trkpt lat="43.5879717" lon="11.6255483"><ele>319.0</ele><time>2026-05-01T10:04:02.209Z</time></trkpt><trkpt lat="43.5879133" lon="11.6254383"><ele>319.0</ele><time>2026-05-01T10:04:03.207Z</time></trkpt><trkpt lat="43.5878567" lon="11.62533"><ele>319.0</ele><time>2026-05-01T10:04:04.207Z</time></trkpt><trkpt lat="43.5877983" lon="11.6252233"><ele>319.0</ele><time>2026-05-01T10:04:05.209Z</time></trkpt><trkpt lat="43.5877433" lon="11.62511"><ele>317.59999999999997</ele><time>2026-05-01T10:04:06.209Z</time></trkpt><trkpt lat="43.5876883" lon="11.6249933"><ele>316.2</ele><time>2026-05-01T10:04:07.207Z</time></trkpt><trkpt lat="43.5876417" lon="11.6248783"><ele>314.79999999999995</ele><time>2026-05-01T10:04:08.209Z</time></trkpt><trkpt lat="43.5876033" lon="11.6247583"><ele>313.4</ele><time>2026-05-01T10:04:09.208Z</time></trkpt><trkpt lat="43.587575" lon="11.624635"><ele>312.0</ele><time>2026-05-01T10:04:10.207Z</time></trkpt><trkpt lat="43.5875517" lon="11.624505"><ele>312.0</ele><time>2026-05-01T10:04:11.208Z</time></trkpt><trkpt lat="43.58753" lon="11.6243767"><ele>312.0</ele><time>2026-05-01T10:04:12.209Z</time></trkpt><trkpt lat="43.5875067" lon="11.6242483"><ele>312.0</ele><time>2026-05-01T10:04:13.208Z</time></trkpt><trkpt lat="43.587485" lon="11.6241233"><ele>312.0</ele><time>2026-05-01T10:04:14.208Z</time></trkpt><trkpt lat="43.587465" lon="11.6240017"><ele>312.0</ele><time>2026-05-01T10:04:15.208Z</time></trkpt><trkpt lat="43.587445" lon="11.6238833"><ele>312.0</ele><time>2026-05-01T10:04:16.207Z</time></trkpt><trkpt lat="43.5874267" lon="11.6237633"><ele>312.0</ele><time>2026-05-01T10:04:17.209Z</time></trkpt><trkpt lat="43.587405" lon="11.623645"><ele>312.0</ele><time>2026-05-01T10:04:18.208Z</time></trkpt><trkpt lat="43.5873817" lon="11.6235233"><ele>312.0</ele><time>2026-05-01T10:04:19.208Z</time></trkpt><trkpt lat="43.5873533" lon="11.62341"><ele>312.0</ele><time>2026-05-01T10:04:20.209Z</time></trkpt><trkpt lat="43.5873233" lon="11.6232983"><ele>312.0</ele><time>2026-05-01T10:04:21.207Z</time></trkpt><trkpt lat="43.58729" lon="11.6231917"><ele>311.8333333333333</ele><time>2026-05-01T10:04:22.208Z</time></trkpt><trkpt lat="43.5872567" lon="11.6230867"><ele>311.6666666666667</ele><time>2026-05-01T10:04:23.207Z</time></trkpt><trkpt lat="43.58723" lon="11.6229767"><ele>311.5</ele><time>2026-05-01T10:04:24.207Z</time></trkpt><trkpt lat="43.5872083" lon="11.6228683"><ele>311.33333333333337</ele><time>2026-05-01T10:04:25.207Z</time></trkpt><trkpt lat="43.5872017" lon="11.6227583"><ele>311.1666666666667</ele><time>2026-05-01T10:04:26.208Z</time></trkpt><trkpt lat="43.5872" lon="11.6226467"><ele>311.0</ele><time>2026-05-01T10:04:27.208Z</time></trkpt><trkpt lat="43.5871983" lon="11.6225367"><ele>311.0</ele><time>2026-05-01T10:04:28.21Z</time></trkpt><trkpt lat="43.5871917" lon="11.6224283"><ele>311.0</ele><time>2026-05-01T10:04:29.207Z</time></trkpt><trkpt lat="43.5871833" lon="11.6223267"><ele>311.0</ele><time>2026-05-01T10:04:30.207Z</time></trkpt><trkpt lat="43.58718" lon="11.6222233"><ele>311.0</ele><time>2026-05-01T10:04:31.208Z</time></trkpt><trkpt lat="43.5871783" lon="11.622115"><ele>311.0</ele><time>2026-05-01T10:04:32.209Z</time></trkpt><trkpt lat="43.5871767" lon="11.6220067"><ele>311.0</ele><time>2026-05-01T10:04:33.208Z</time></trkpt><trkpt lat="43.5871767" lon="11.6219"><ele>311.1428571428571</ele><time>2026-05-01T10:04:34.21Z</time></trkpt><trkpt lat="43.5871817" lon="11.6217933"><ele>311.28571428571433</ele><time>2026-05-01T10:04:35.211Z</time></trkpt><trkpt lat="43.5871883" lon="11.62169"><ele>311.42857142857144</ele><time>2026-05-01T10:04:36.209Z</time></trkpt><trkpt lat="43.5872" lon="11.62159"><ele>311.57142857142856</ele><time>2026-05-01T10:04:37.208Z</time></trkpt><trkpt lat="43.587215" lon="11.62149"><ele>311.71428571428567</ele><time>2026-05-01T10:04:38.208Z</time></trkpt><trkpt lat="43.58723" lon="11.6213933"><ele>311.8571428571429</ele><time>2026-05-01T10:04:39.207Z</time></trkpt><trkpt lat="43.5872483" lon="11.6212967"><ele>312.0</ele><time>2026-05-01T10:04:40.209Z</time></trkpt><trkpt lat="43.5872717" lon="11.6211967"><ele>311.8333333333333</ele><time>2026-05-01T10:04:41.208Z</time></trkpt><trkpt lat="43.5872933" lon="11.6210983"><ele>311.6666666666667</ele><time>2026-05-01T10:04:42.208Z</time></trkpt><trkpt lat="43.587315" lon="11.621005"><ele>311.5</ele><time>2026-05-01T10:04:43.208Z</time></trkpt><trkpt lat="43.5873433" lon="11.62091"><ele>311.33333333333337</ele><time>2026-05-01T10:04:44.211Z</time></trkpt><trkpt lat="43.5873683" lon="11.62081"><ele>311.1666666666667</ele><time>2026-05-01T10:04:45.209Z</time></trkpt><trkpt lat="43.5873933" lon="11.6207067"><ele>311.0</ele><time>2026-05-01T10:04:46.208Z</time></trkpt><trkpt lat="43.5874167" lon="11.6206067"><ele>311.0</ele><time>2026-05-01T10:04:47.208Z</time></trkpt><trkpt lat="43.58744" lon="11.6205033"><ele>311.0</ele><time>2026-05-01T10:04:48.209Z</time></trkpt><trkpt lat="43.5874633" lon="11.6204017"><ele>311.0</ele><time>2026-05-01T10:04:49.208Z</time></trkpt><trkpt lat="43.587485" lon="11.6202983"><ele>311.0</ele><time>2026-05-01T10:04:50.209Z</time></trkpt><trkpt lat="43.5875033" lon="11.6201933"><ele>311.0</ele><time>2026-05-01T10:04:51.208Z</time></trkpt><trkpt lat="43.587525" lon="11.6200867"><ele>311.0</ele><time>2026-05-01T10:04:52.211Z</time></trkpt><trkpt lat="43.5875417" lon="11.6199767"><ele>310.83333333333337</ele><time>2026-05-01T10:04:53.208Z</time></trkpt><trkpt lat="43.5875517" lon="11.61987"><ele>310.6666666666667</ele><time>2026-05-01T10:04:54.21Z</time></trkpt><trkpt lat="43.5875567" lon="11.6197583"><ele>310.5</ele><time>2026-05-01T10:04:55.209Z</time></trkpt><trkpt lat="43.58756" lon="11.619645"><ele>310.3333333333333</ele><time>2026-05-01T10:04:56.211Z</time></trkpt><trkpt lat="43.5875617" lon="11.6195317"><ele>310.16666666666663</ele><time>2026-05-01T10:04:57.209Z</time></trkpt><trkpt lat="43.5875633" lon="11.6194183"><ele>310.0</ele><time>2026-05-01T10:04:58.206Z</time></trkpt><trkpt lat="43.58757" lon="11.6193083"><ele>309.66666666666663</ele><time>2026-05-01T10:04:59.209Z</time></trkpt><trkpt lat="43.5875867" lon="11.6191983"><ele>309.3333333333333</ele><time>2026-05-01T10:05:00.209Z</time></trkpt><trkpt lat="43.587615" lon="11.6190933"><ele>309.0</ele><time>2026-05-01T10:05:01.209Z</time></trkpt><trkpt lat="43.5876517" lon="11.6189917"><ele>308.6666666666667</ele><time>2026-05-01T10:05:02.21Z</time></trkpt><trkpt lat="43.5877017" lon="11.6188883"><ele>308.33333333333337</ele><time>2026-05-01T10:05:03.21Z</time></trkpt><trkpt lat="43.58775" lon="11.6188017"><ele>308.0</ele><time>2026-05-01T10:05:04.21Z</time></trkpt><trkpt lat="43.5878" lon="11.6187133"><ele>308.0</ele><time>2026-05-01T10:05:05.209Z</time></trkpt><trkpt lat="43.5878517" lon="11.61862"><ele>308.0</ele><time>2026-05-01T10:05:06.211Z</time></trkpt><trkpt lat="43.5879067" lon="11.6185183"><ele>308.0</ele><time>2026-05-01T10:05:07.209Z</time></trkpt><trkpt lat="43.587945" lon="11.6184283"><ele>308.0</ele><time>2026-05-01T10:05:08.209Z</time></trkpt><trkpt lat="43.5879967" lon="11.6183233"><ele>308.0</ele><time>2026-05-01T10:05:09.208Z</time></trkpt><trkpt lat="43.58804" lon="11.618205"><ele>308.0</ele><time>2026-05-01T10:05:10.209Z</time></trkpt><trkpt lat="43.588075" lon="11.61808"><ele>308.0</ele><time>2026-05-01T10:05:11.21Z</time></trkpt><trkpt lat="43.5880933" lon="11.61795"><ele>308.0</ele><time>2026-05-01T10:05:12.209Z</time></trkpt><trkpt lat="43.5881017" lon="11.61781"><ele>308.0</ele><time>2026-05-01T10:05:13.208Z</time></trkpt><trkpt lat="43.5880983" lon="11.6176683"><ele>308.0</ele><time>2026-05-01T10:05:14.209Z</time></trkpt><trkpt lat="43.588085" lon="11.6175233"><ele>308.0</ele><time>2026-05-01T10:05:15.209Z</time></trkpt><trkpt lat="43.588065" lon="11.6173767"><ele>307.6</ele><time>2026-05-01T10:05:16.209Z</time></trkpt><trkpt lat="43.588035" lon="11.6172333"><ele>307.20000000000005</ele><time>2026-05-01T10:05:17.211Z</time></trkpt><trkpt lat="43.5880033" lon="11.6170917"><ele>306.8</ele><time>2026-05-01T10:05:18.209Z</time></trkpt><trkpt lat="43.5879717" lon="11.616945"><ele>306.40000000000003</ele><time>2026-05-01T10:05:19.21Z</time></trkpt><trkpt lat="43.58794" lon="11.6168017"><ele>306.0</ele><time>2026-05-01T10:05:20.211Z</time></trkpt><trkpt lat="43.5879083" lon="11.6166567"><ele>305.6</ele><time>2026-05-01T10:05:21.208Z</time></trkpt><trkpt lat="43.5878767" lon="11.6165167"><ele>305.20000000000005</ele><time>2026-05-01T10:05:22.209Z</time></trkpt><trkpt lat="43.5878467" lon="11.6163733"><ele>304.79999999999995</ele><time>2026-05-01T10:05:23.209Z</time></trkpt><trkpt lat="43.5878217" lon="11.6162317"><ele>304.4</ele><time>2026-05-01T10:05:24.209Z</time></trkpt><trkpt lat="43.5878" lon="11.6160867"><ele>304.0</ele><time>2026-05-01T10:05:25.209Z</time></trkpt><trkpt lat="43.5877883" lon="11.6159417"><ele>302.59999999999997</ele><time>2026-05-01T10:05:26.208Z</time></trkpt><trkpt lat="43.5877817" lon="11.6157967"><ele>301.2</ele><time>2026-05-01T10:05:27.21Z</time></trkpt><trkpt lat="43.5877817" lon="11.61565"><ele>299.79999999999995</ele><time>2026-05-01T10:05:28.208Z</time></trkpt><trkpt lat="43.58778" lon="11.6155067"><ele>298.4</ele><time>2026-05-01T10:05:29.207Z</time></trkpt><trkpt lat="43.5877817" lon="11.615365"><ele>297.0</ele><time>2026-05-01T10:05:30.207Z</time></trkpt><trkpt lat="43.5877833" lon="11.615225"><ele>297.0</ele><time>2026-05-01T10:05:31.208Z</time></trkpt><trkpt lat="43.5877833" lon="11.615085"><ele>297.0</ele><time>2026-05-01T10:05:32.207Z</time></trkpt><trkpt lat="43.5877833" lon="11.614945"><ele>297.0</ele><time>2026-05-01T10:05:33.208Z</time></trkpt><trkpt lat="43.587785" lon="11.614805"><ele>297.0</ele><time>2026-05-01T10:05:34.209Z</time></trkpt><trkpt lat="43.5877883" lon="11.61466"><ele>297.0</ele><time>2026-05-01T10:05:35.209Z</time></trkpt><trkpt lat="43.5877917" lon="11.61451"><ele>296.8</ele><time>2026-05-01T10:05:36.208Z</time></trkpt><trkpt lat="43.5877983" lon="11.6143667"><ele>296.6</ele><time>2026-05-01T10:05:37.207Z</time></trkpt><trkpt lat="43.587815" lon="11.6142183"><ele>296.40000000000003</ele><time>2026-05-01T10:05:38.209Z</time></trkpt><trkpt lat="43.5878417" lon="11.614075"><ele>296.2</ele><time>2026-05-01T10:05:39.208Z</time></trkpt><trkpt lat="43.58788" lon="11.613935"><ele>296.0</ele><time>2026-05-01T10:05:40.208Z</time></trkpt><trkpt lat="43.5879233" lon="11.6138"><ele>295.40000000000003</ele><time>2026-05-01T10:05:41.209Z</time></trkpt><trkpt lat="43.5879683" lon="11.61366"><ele>294.8</ele><time>2026-05-01T10:05:42.21Z</time></trkpt><trkpt lat="43.5880117" lon="11.6135267"><ele>294.20000000000005</ele><time>2026-05-01T10:05:43.208Z</time></trkpt><trkpt lat="43.5880567" lon="11.6133933"><ele>293.6</ele><time>2026-05-01T10:05:44.208Z</time></trkpt><trkpt lat="43.588105" lon="11.6132617"><ele>293.0</ele><time>2026-05-01T10:05:45.207Z</time></trkpt><trkpt lat="43.5881567" lon="11.61314"><ele>293.0</ele><time>2026-05-01T10:05:46.208Z</time></trkpt><trkpt lat="43.58822" lon="11.61303"><ele>293.0</ele><time>2026-05-01T10:05:47.208Z</time></trkpt><trkpt lat="43.5882983" lon="11.6129417"><ele>293.0</ele><time>2026-05-01T10:05:48.207Z</time></trkpt><trkpt lat="43.5883917" lon="11.6128767"><ele>293.0</ele><time>2026-05-01T10:05:49.209Z</time></trkpt><trkpt lat="43.5884917" lon="11.6128367"><ele>293.0</ele><time>2026-05-01T10:05:50.209Z</time></trkpt><trkpt lat="43.5885967" lon="11.6128167"><ele>291.8</ele><time>2026-05-01T10:05:51.208Z</time></trkpt><trkpt lat="43.588705" lon="11.6128"><ele>290.6</ele><time>2026-05-01T10:05:52.209Z</time></trkpt><trkpt lat="43.5888117" lon="11.612785"><ele>289.4</ele><time>2026-05-01T10:05:53.209Z</time></trkpt><trkpt lat="43.588915" lon="11.61277"><ele>288.2</ele><time>2026-05-01T10:05:54.209Z</time></trkpt><trkpt lat="43.5890133" lon="11.6127467"><ele>287.0</ele><time>2026-05-01T10:05:55.208Z</time></trkpt><trkpt lat="43.5890967" lon="11.6127067"><ele>287.0</ele><time>2026-05-01T10:05:56.209Z</time></trkpt><trkpt lat="43.5891683" lon="11.6126417"><ele>287.0</ele><time>2026-05-01T10:05:57.207Z</time></trkpt><trkpt lat="43.5892233" lon="11.6125583"><ele>287.0</ele><time>2026-05-01T10:05:58.21Z</time></trkpt><trkpt lat="43.5892517" lon="11.61246"><ele>287.0</ele><time>2026-05-01T10:05:59.208Z</time></trkpt><trkpt lat="43.5892233" lon="11.6123467"><ele>287.0</ele><time>2026-05-01T10:06:00.21Z</time></trkpt><trkpt lat="43.5891883" lon="11.612235"><ele>287.0</ele><time>2026-05-01T10:06:01.207Z</time></trkpt><trkpt lat="43.5891467" lon="11.6121317"><ele>287.0</ele><time>2026-05-01T10:06:02.209Z</time></trkpt><trkpt lat="43.5891" lon="11.6120333"><ele>287.0</ele><time>2026-05-01T10:06:03.207Z</time></trkpt><trkpt lat="43.589045" lon="11.61194"><ele>287.0</ele><time>2026-05-01T10:06:04.207Z</time></trkpt><trkpt lat="43.5889817" lon="11.6118567"><ele>287.0</ele><time>2026-05-01T10:06:05.209Z</time></trkpt><trkpt lat="43.5889133" lon="11.611775"><ele>287.0</ele><time>2026-05-01T10:06:06.208Z</time></trkpt><trkpt lat="43.5888383" lon="11.611705"><ele>287.0</ele><time>2026-05-01T10:06:07.207Z</time></trkpt><trkpt lat="43.58876" lon="11.6116583"><ele>286.6666666666667</ele><time>2026-05-01T10:06:08.209Z</time></trkpt><trkpt lat="43.5886767" lon="11.6116133"><ele>286.33333333333337</ele><time>2026-05-01T10:06:09.209Z</time></trkpt><trkpt lat="43.58859" lon="11.6115783"><ele>286.0</ele><time>2026-05-01T10:06:10.208Z</time></trkpt><trkpt lat="43.588505" lon="11.6115417"><ele>285.6666666666667</ele><time>2026-05-01T10:06:11.207Z</time></trkpt><trkpt lat="43.5884233" lon="11.6115017"><ele>285.3333333333333</ele><time>2026-05-01T10:06:12.207Z</time></trkpt><trkpt lat="43.58834" lon="11.6114567"><ele>285.0</ele><time>2026-05-01T10:06:13.207Z</time></trkpt><trkpt lat="43.5882583" lon="11.6114033"><ele>285.0</ele><time>2026-05-01T10:06:14.209Z</time></trkpt><trkpt lat="43.5881833" lon="11.6113483"><ele>285.0</ele><time>2026-05-01T10:06:15.207Z</time></trkpt><trkpt lat="43.5881083" lon="11.6112817"><ele>285.0</ele><time>2026-05-01T10:06:16.209Z</time></trkpt><trkpt lat="43.588035" lon="11.6112183"><ele>285.0</ele><time>2026-05-01T10:06:17.208Z</time></trkpt><trkpt lat="43.587965" lon="11.6111617"><ele>285.0</ele><time>2026-05-01T10:06:18.208Z</time></trkpt><trkpt lat="43.5878917" lon="11.6111"><ele>285.0</ele><time>2026-05-01T10:06:19.209Z</time></trkpt><trkpt lat="43.5878233" lon="11.6110267"><ele>285.5</ele><time>2026-05-01T10:06:20.21Z</time></trkpt><trkpt lat="43.587765" lon="11.61094"><ele>286.0</ele><time>2026-05-01T10:06:21.21Z</time></trkpt><trkpt lat="43.58773" lon="11.6108517"><ele>286.5</ele><time>2026-05-01T10:06:22.207Z</time></trkpt><trkpt lat="43.5877117" lon="11.6107533"><ele>287.0</ele><time>2026-05-01T10:06:23.209Z</time></trkpt><trkpt lat="43.5877117" lon="11.6106517"><ele>287.5</ele><time>2026-05-01T10:06:24.207Z</time></trkpt><trkpt lat="43.5877267" lon="11.6105517"><ele>288.0</ele><time>2026-05-01T10:06:25.209Z</time></trkpt><trkpt lat="43.587765" lon="11.610455"><ele>288.0</ele><time>2026-05-01T10:06:26.207Z</time></trkpt><trkpt lat="43.5878083" lon="11.6103767"><ele>288.0</ele><time>2026-05-01T10:06:27.209Z</time></trkpt><trkpt lat="43.5878583" lon="11.6103017"><ele>288.0</ele><time>2026-05-01T10:06:28.207Z</time></trkpt><trkpt lat="43.5879183" lon="11.61023"><ele>288.0</ele><time>2026-05-01T10:06:29.208Z</time></trkpt><trkpt lat="43.5879933" lon="11.610165"><ele>288.0</ele><time>2026-05-01T10:06:30.209Z</time></trkpt><trkpt lat="43.5880717" lon="11.6101033"><ele>288.0</ele><time>2026-05-01T10:06:31.207Z</time></trkpt><trkpt lat="43.5881533" lon="11.6100467"><ele>288.2</ele><time>2026-05-01T10:06:32.21Z</time></trkpt><trkpt lat="43.5882333" lon="11.6099883"><ele>288.4</ele><time>2026-05-01T10:06:33.207Z</time></trkpt><trkpt lat="43.5883167" lon="11.609935"><ele>288.59999999999997</ele><time>2026-05-01T10:06:34.208Z</time></trkpt><trkpt lat="43.5884033" lon="11.6098833"><ele>288.8</ele><time>2026-05-01T10:06:35.208Z</time></trkpt><trkpt lat="43.5884833" lon="11.6098333"><ele>289.0</ele><time>2026-05-01T10:06:36.209Z</time></trkpt><trkpt lat="43.5885617" lon="11.6097667"><ele>289.0</ele><time>2026-05-01T10:06:37.208Z</time></trkpt><trkpt lat="43.5886317" lon="11.6096883"><ele>289.0</ele><time>2026-05-01T10:06:38.209Z</time></trkpt><trkpt lat="43.5886867" lon="11.6095967"><ele>289.0</ele><time>2026-05-01T10:06:39.209Z</time></trkpt><trkpt lat="43.5887267" lon="11.609495"><ele>289.0</ele><time>2026-05-01T10:06:40.209Z</time></trkpt><trkpt lat="43.5887567" lon="11.6093867"><ele>289.0</ele><time>2026-05-01T10:06:41.207Z</time></trkpt><trkpt lat="43.58878" lon="11.6092767"><ele>289.0</ele><time>2026-05-01T10:06:42.207Z</time></trkpt><trkpt lat="43.5887967" lon="11.6091733"><ele>289.42857142857144</ele><time>2026-05-01T10:06:43.208Z</time></trkpt><trkpt lat="43.5888083" lon="11.60907"><ele>289.85714285714283</ele><time>2026-05-01T10:06:44.209Z</time></trkpt><trkpt lat="43.5888167" lon="11.60897"><ele>290.2857142857143</ele><time>2026-05-01T10:06:45.207Z</time></trkpt><trkpt lat="43.5888217" lon="11.6088633"><ele>290.7142857142857</ele><time>2026-05-01T10:06:46.208Z</time></trkpt><trkpt lat="43.5888167" lon="11.6087617"><ele>291.14285714285717</ele><time>2026-05-01T10:06:47.207Z</time></trkpt><trkpt lat="43.5888033" lon="11.60866"><ele>291.57142857142856</ele><time>2026-05-01T10:06:48.209Z</time></trkpt><trkpt lat="43.5887867" lon="11.6085717"><ele>292.0</ele><time>2026-05-01T10:06:49.207Z</time></trkpt><trkpt lat="43.5887717" lon="11.6084767"><ele>292.1428571428571</ele><time>2026-05-01T10:06:50.208Z</time></trkpt><trkpt lat="43.5887567" lon="11.6083783"><ele>292.2857142857143</ele><time>2026-05-01T10:06:51.208Z</time></trkpt><trkpt lat="43.5887483" lon="11.60828"><ele>292.42857142857144</ele><time>2026-05-01T10:06:52.207Z</time></trkpt><trkpt lat="43.588745" lon="11.6081867"><ele>292.57142857142856</ele><time>2026-05-01T10:06:53.208Z</time></trkpt><trkpt lat="43.5887517" lon="11.608095"><ele>292.7142857142857</ele><time>2026-05-01T10:06:54.209Z</time></trkpt><trkpt lat="43.5887733" lon="11.608005"><ele>292.85714285714283</ele><time>2026-05-01T10:06:55.209Z</time></trkpt><trkpt lat="43.588805" lon="11.6079233"><ele>293.0</ele><time>2026-05-01T10:06:56.207Z</time></trkpt><trkpt lat="43.588845" lon="11.6078483"><ele>293.1666666666667</ele><time>2026-05-01T10:06:57.208Z</time></trkpt><trkpt lat="43.58889" lon="11.6077717"><ele>293.33333333333337</ele><time>2026-05-01T10:06:58.208Z</time></trkpt><trkpt lat="43.5889367" lon="11.607695"><ele>293.5</ele><time>2026-05-01T10:06:59.209Z</time></trkpt><trkpt lat="43.58898" lon="11.60762"><ele>293.6666666666667</ele><time>2026-05-01T10:07:00.208Z</time></trkpt><trkpt lat="43.5890217" lon="11.607545"><ele>293.8333333333333</ele><time>2026-05-01T10:07:01.208Z</time></trkpt><trkpt lat="43.5890967" lon="11.6074033"><ele>294.0</ele><time>2026-05-01T10:07:03.209Z</time></trkpt><trkpt lat="43.5891367" lon="11.6073283"><ele>294.0</ele><time>2026-05-01T10:07:04.208Z</time></trkpt><trkpt lat="43.5891733" lon="11.6072483"><ele>294.0</ele><time>2026-05-01T10:07:05.208Z</time></trkpt><trkpt lat="43.5892167" lon="11.6071683"><ele>294.0</ele><time>2026-05-01T10:07:06.209Z</time></trkpt><trkpt lat="43.5892617" lon="11.60709"><ele>294.0</ele><time>2026-05-01T10:07:07.209Z</time></trkpt><trkpt lat="43.5893083" lon="11.60701"><ele>294.0</ele><time>2026-05-01T10:07:08.208Z</time></trkpt><trkpt lat="43.589355" lon="11.6069267"><ele>294.0</ele><time>2026-05-01T10:07:09.208Z</time></trkpt><trkpt lat="43.5893983" lon="11.606845"><ele>294.0</ele><time>2026-05-01T10:07:10.209Z</time></trkpt><trkpt lat="43.58944" lon="11.6067683"><ele>293.85714285714283</ele><time>2026-05-01T10:07:11.211Z</time></trkpt><trkpt lat="43.5894883" lon="11.6066967"><ele>293.7142857142857</ele><time>2026-05-01T10:07:12.208Z</time></trkpt><trkpt lat="43.5895417" lon="11.6066317"><ele>293.57142857142856</ele><time>2026-05-01T10:07:13.209Z</time></trkpt><trkpt lat="43.5896033" lon="11.6065767"><ele>293.42857142857144</ele><time>2026-05-01T10:07:14.209Z</time></trkpt><trkpt lat="43.5896683" lon="11.6065317"><ele>293.2857142857143</ele><time>2026-05-01T10:07:15.208Z</time></trkpt><trkpt lat="43.5897367" lon="11.606495"><ele>293.1428571428571</ele><time>2026-05-01T10:07:16.207Z</time></trkpt><trkpt lat="43.5898083" lon="11.6064633"><ele>293.0</ele><time>2026-05-01T10:07:17.208Z</time></trkpt><trkpt lat="43.5898767" lon="11.6064367"><ele>293.1428571428571</ele><time>2026-05-01T10:07:18.209Z</time></trkpt><trkpt lat="43.589945" lon="11.60641"><ele>293.2857142857143</ele><time>2026-05-01T10:07:19.209Z</time></trkpt><trkpt lat="43.59001" lon="11.6063867"><ele>293.42857142857144</ele><time>2026-05-01T10:07:20.208Z</time></trkpt><trkpt lat="43.5900767" lon="11.606365"><ele>293.57142857142856</ele><time>2026-05-01T10:07:21.208Z</time></trkpt><trkpt lat="43.590145" lon="11.6063433"><ele>293.7142857142857</ele><time>2026-05-01T10:07:22.209Z</time></trkpt><trkpt lat="43.5902133" lon="11.6063317"><ele>293.85714285714283</ele><time>2026-05-01T10:07:23.208Z</time></trkpt><trkpt lat="43.5902783" lon="11.6063367"><ele>294.0</ele><time>2026-05-01T10:07:24.208Z</time></trkpt><trkpt lat="43.590345" lon="11.60636"><ele>294.0</ele><time>2026-05-01T10:07:25.209Z</time></trkpt><trkpt lat="43.5904083" lon="11.6063983"><ele>294.0</ele><time>2026-05-01T10:07:26.208Z</time></trkpt><trkpt lat="43.5904667" lon="11.60645"><ele>294.0</ele><time>2026-05-01T10:07:27.21Z</time></trkpt><trkpt lat="43.5905217" lon="11.6065133"><ele>294.0</ele><time>2026-05-01T10:07:28.208Z</time></trkpt><trkpt lat="43.5905733" lon="11.6065833"><ele>294.0</ele><time>2026-05-01T10:07:29.208Z</time></trkpt><trkpt lat="43.5906267" lon="11.6066617"><ele>294.0</ele><time>2026-05-01T10:07:30.208Z</time></trkpt><trkpt lat="43.59068" lon="11.6067333"><ele>294.0</ele><time>2026-05-01T10:07:31.209Z</time></trkpt><trkpt lat="43.590735" lon="11.6068033"><ele>294.0</ele><time>2026-05-01T10:07:32.208Z</time></trkpt><trkpt lat="43.5907917" lon="11.60687"><ele>294.0</ele><time>2026-05-01T10:07:33.208Z</time></trkpt><trkpt lat="43.5908467" lon="11.6069233"><ele>294.0</ele><time>2026-05-01T10:07:34.208Z</time></trkpt><trkpt lat="43.5909033" lon="11.6069633"><ele>294.0</ele><time>2026-05-01T10:07:35.207Z</time></trkpt><trkpt lat="43.590965" lon="11.606985"><ele>294.0</ele><time>2026-05-01T10:07:36.209Z</time></trkpt><trkpt lat="43.5910733" lon="11.60695"><ele>294.0</ele><time>2026-05-01T10:07:38.208Z</time></trkpt><trkpt lat="43.5911217" lon="11.60689"><ele>294.0</ele><time>2026-05-01T10:07:39.208Z</time></trkpt><trkpt lat="43.5911667" lon="11.6068233"><ele>294.0</ele><time>2026-05-01T10:07:40.207Z</time></trkpt><trkpt lat="43.591205" lon="11.60674"><ele>294.0</ele><time>2026-05-01T10:07:41.208Z</time></trkpt><trkpt lat="43.5911967" lon="11.606645"><ele>294.0</ele><time>2026-05-01T10:07:42.209Z</time></trkpt><trkpt lat="43.5911783" lon="11.6065617"><ele>294.0</ele><time>2026-05-01T10:07:43.208Z</time></trkpt><trkpt lat="43.59115" lon="11.6064717"><ele>294.0</ele><time>2026-05-01T10:07:44.207Z</time></trkpt><trkpt lat="43.5911117" lon="11.6063833"><ele>294.0</ele><time>2026-05-01T10:07:45.207Z</time></trkpt><trkpt lat="43.5910817" lon="11.606295"><ele>294.0</ele><time>2026-05-01T10:07:46.208Z</time></trkpt><trkpt lat="43.59106" lon="11.606195"><ele>293.7142857142857</ele><time>2026-05-01T10:07:47.207Z</time></trkpt><trkpt lat="43.5910533" lon="11.6060983"><ele>293.42857142857144</ele><time>2026-05-01T10:07:48.207Z</time></trkpt><trkpt lat="43.5910567" lon="11.6059933"><ele>293.1428571428571</ele><time>2026-05-01T10:07:49.207Z</time></trkpt><trkpt lat="43.5910667" lon="11.6058917"><ele>292.8571428571429</ele><time>2026-05-01T10:07:50.21Z</time></trkpt><trkpt lat="43.5910783" lon="11.6057933"><ele>292.57142857142856</ele><time>2026-05-01T10:07:51.206Z</time></trkpt><trkpt lat="43.5910883" lon="11.6057"><ele>292.2857142857143</ele><time>2026-05-01T10:07:52.206Z</time></trkpt><trkpt lat="43.591095" lon="11.6056117"><ele>292.0</ele><time>2026-05-01T10:07:53.207Z</time></trkpt><trkpt lat="43.5911033" lon="11.6055233"><ele>292.0</ele><time>2026-05-01T10:07:54.206Z</time></trkpt><trkpt lat="43.59112" lon="11.6053567"><ele>292.0</ele><time>2026-05-01T10:07:56.207Z</time></trkpt><trkpt lat="43.59113" lon="11.60527"><ele>292.0</ele><time>2026-05-01T10:07:57.208Z</time></trkpt><trkpt lat="43.5911517" lon="11.6051133"><ele>292.0</ele><time>2026-05-01T10:07:59.208Z</time></trkpt><trkpt lat="43.5911933" lon="11.6049567"><ele>292.0</ele><time>2026-05-01T10:08:01.209Z</time></trkpt><trkpt lat="43.5912633" lon="11.6048233"><ele>292.57142857142856</ele><time>2026-05-01T10:08:03.206Z</time></trkpt><trkpt lat="43.59131" lon="11.60476"><ele>293.14285714285717</ele><time>2026-05-01T10:08:04.207Z</time></trkpt><trkpt lat="43.5913617" lon="11.6047017"><ele>293.7142857142857</ele><time>2026-05-01T10:08:05.205Z</time></trkpt><trkpt lat="43.5914167" lon="11.6046467"><ele>294.2857142857143</ele><time>2026-05-01T10:08:06.207Z</time></trkpt><trkpt lat="43.59147" lon="11.60459"><ele>294.85714285714283</ele><time>2026-05-01T10:08:07.208Z</time></trkpt><trkpt lat="43.591525" lon="11.6045283"><ele>295.42857142857144</ele><time>2026-05-01T10:08:08.207Z</time></trkpt><trkpt lat="43.5915817" lon="11.604465"><ele>296.0</ele><time>2026-05-01T10:08:09.209Z</time></trkpt><trkpt lat="43.5916383" lon="11.6044067"><ele>296.0</ele><time>2026-05-01T10:08:10.208Z</time></trkpt><trkpt lat="43.5916967" lon="11.6043467"><ele>296.0</ele><time>2026-05-01T10:08:11.207Z</time></trkpt><trkpt lat="43.59175" lon="11.6042883"><ele>296.0</ele><time>2026-05-01T10:08:12.208Z</time></trkpt><trkpt lat="43.591805" lon="11.60423"><ele>296.0</ele><time>2026-05-01T10:08:13.207Z</time></trkpt><trkpt lat="43.59186" lon="11.6041683"><ele>296.0</ele><time>2026-05-01T10:08:14.209Z</time></trkpt><trkpt lat="43.5919133" lon="11.6041033"><ele>296.0</ele><time>2026-05-01T10:08:15.208Z</time></trkpt><trkpt lat="43.591965" lon="11.604035"><ele>296.0</ele><time>2026-05-01T10:08:16.207Z</time></trkpt><trkpt lat="43.5920167" lon="11.6039633"><ele>296.8571428571429</ele><time>2026-05-01T10:08:17.207Z</time></trkpt><trkpt lat="43.592065" lon="11.603885"><ele>297.7142857142857</ele><time>2026-05-01T10:08:18.207Z</time></trkpt><trkpt lat="43.5921083" lon="11.603805"><ele>298.57142857142856</ele><time>2026-05-01T10:08:19.207Z</time></trkpt><trkpt lat="43.5921483" lon="11.6037233"><ele>299.42857142857144</ele><time>2026-05-01T10:08:20.209Z</time></trkpt><trkpt lat="43.59218" lon="11.6036383"><ele>300.2857142857143</ele><time>2026-05-01T10:08:21.207Z</time></trkpt><trkpt lat="43.59221" lon="11.603555"><ele>301.14285714285717</ele><time>2026-05-01T10:08:22.206Z</time></trkpt><trkpt lat="43.59224" lon="11.6034667"><ele>302.0</ele><time>2026-05-01T10:08:23.208Z</time></trkpt><trkpt lat="43.5922633" lon="11.6033767"><ele>302.0</ele><time>2026-05-01T10:08:24.207Z</time></trkpt><trkpt lat="43.5922733" lon="11.6032883"><ele>302.0</ele><time>2026-05-01T10:08:25.208Z</time></trkpt><trkpt lat="43.592265" lon="11.6032"><ele>302.0</ele><time>2026-05-01T10:08:26.207Z</time></trkpt><trkpt lat="43.5922033" lon="11.6030483"><ele>302.0</ele><time>2026-05-01T10:08:28.207Z</time></trkpt><trkpt lat="43.5921583" lon="11.602985"><ele>302.0</ele><time>2026-05-01T10:08:29.208Z</time></trkpt><trkpt lat="43.5921083" lon="11.6029233"><ele>302.0</ele><time>2026-05-01T10:08:30.207Z</time></trkpt><trkpt lat="43.5920583" lon="11.6028467"><ele>302.4</ele><time>2026-05-01T10:08:31.21Z</time></trkpt><trkpt lat="43.5919967" lon="11.6026917"><ele>302.79999999999995</ele><time>2026-05-01T10:08:33.21Z</time></trkpt><trkpt lat="43.5920067" lon="11.6025267"><ele>303.2</ele><time>2026-05-01T10:08:35.208Z</time></trkpt><trkpt lat="43.592045" lon="11.60245"><ele>303.59999999999997</ele><time>2026-05-01T10:08:36.21Z</time></trkpt><trkpt lat="43.592095" lon="11.6023683"><ele>304.0</ele><time>2026-05-01T10:08:37.207Z</time></trkpt><trkpt lat="43.5921533" lon="11.6022733"><ele>304.0</ele><time>2026-05-01T10:08:38.212Z</time></trkpt><trkpt lat="43.592215" lon="11.6021933"><ele>304.0</ele><time>2026-05-01T10:08:39.21Z</time></trkpt><trkpt lat="43.5922817" lon="11.60212"><ele>304.0</ele><time>2026-05-01T10:08:40.209Z</time></trkpt><trkpt lat="43.5923583" lon="11.6020533"><ele>304.0</ele><time>2026-05-01T10:08:41.21Z</time></trkpt><trkpt lat="43.5924333" lon="11.6020033"><ele>304.0</ele><time>2026-05-01T10:08:42.21Z</time></trkpt><trkpt lat="43.5925017" lon="11.6019567"><ele>304.0</ele><time>2026-05-01T10:08:43.211Z</time></trkpt><trkpt lat="43.5925617" lon="11.6018967"><ele>302.8333333333333</ele><time>2026-05-01T10:08:44.209Z</time></trkpt><trkpt lat="43.5926117" lon="11.6018167"><ele>301.66666666666663</ele><time>2026-05-01T10:08:45.208Z</time></trkpt><trkpt lat="43.5926433" lon="11.6017267"><ele>300.5</ele><time>2026-05-01T10:08:46.208Z</time></trkpt><trkpt lat="43.592645" lon="11.60162"><ele>299.3333333333333</ele><time>2026-05-01T10:08:47.211Z</time></trkpt><trkpt lat="43.5926267" lon="11.6015183"><ele>298.1666666666667</ele><time>2026-05-01T10:08:48.209Z</time></trkpt><trkpt lat="43.5925883" lon="11.6014333"><ele>297.0</ele><time>2026-05-01T10:08:49.207Z</time></trkpt><trkpt lat="43.5925367" lon="11.601355"><ele>297.0</ele><time>2026-05-01T10:08:50.209Z</time></trkpt><trkpt lat="43.592475" lon="11.6012833"><ele>297.0</ele><time>2026-05-01T10:08:51.209Z</time></trkpt><trkpt lat="43.59241" lon="11.60122"><ele>297.0</ele><time>2026-05-01T10:08:52.208Z</time></trkpt><trkpt lat="43.592345" lon="11.60116"><ele>297.0</ele><time>2026-05-01T10:08:53.208Z</time></trkpt><trkpt lat="43.5922817" lon="11.6010917"><ele>297.0</ele><time>2026-05-01T10:08:54.208Z</time></trkpt><trkpt lat="43.5922183" lon="11.6010183"><ele>297.0</ele><time>2026-05-01T10:08:55.208Z</time></trkpt><trkpt lat="43.5921633" lon="11.6009467"><ele>297.7142857142857</ele><time>2026-05-01T10:08:56.209Z</time></trkpt><trkpt lat="43.592115" lon="11.600865"><ele>298.42857142857144</ele><time>2026-05-01T10:08:57.208Z</time></trkpt><trkpt lat="43.59207" lon="11.600775"><ele>299.14285714285717</ele><time>2026-05-01T10:08:58.208Z</time></trkpt><trkpt lat="43.5920317" lon="11.6006883"><ele>299.8571428571429</ele><time>2026-05-01T10:08:59.21Z</time></trkpt><trkpt lat="43.591995" lon="11.6006033"><ele>300.57142857142856</ele><time>2026-05-01T10:09:00.209Z</time></trkpt><trkpt lat="43.59196" lon="11.600515"><ele>301.28571428571433</ele><time>2026-05-01T10:09:01.21Z</time></trkpt><trkpt lat="43.5919233" lon="11.60043"><ele>302.0</ele><time>2026-05-01T10:09:02.208Z</time></trkpt><trkpt lat="43.5918883" lon="11.60034"><ele>300.5</ele><time>2026-05-01T10:09:03.207Z</time></trkpt><trkpt lat="43.5918517" lon="11.6002517"><ele>299.0</ele><time>2026-05-01T10:09:04.208Z</time></trkpt><trkpt lat="43.5918167" lon="11.6001633"><ele>297.5</ele><time>2026-05-01T10:09:05.205Z</time></trkpt><trkpt lat="43.591785" lon="11.600065"><ele>296.0</ele><time>2026-05-01T10:09:06.207Z</time></trkpt><trkpt lat="43.5917517" lon="11.5999667"><ele>294.5</ele><time>2026-05-01T10:09:07.208Z</time></trkpt><trkpt lat="43.5917217" lon="11.59986"><ele>293.0</ele><time>2026-05-01T10:09:08.208Z</time></trkpt><trkpt lat="43.5916917" lon="11.5997533"><ele>293.0</ele><time>2026-05-01T10:09:09.207Z</time></trkpt><trkpt lat="43.5916667" lon="11.5996417"><ele>293.0</ele><time>2026-05-01T10:09:10.206Z</time></trkpt><trkpt lat="43.5916517" lon="11.599525"><ele>293.0</ele><time>2026-05-01T10:09:11.205Z</time></trkpt><trkpt lat="43.591645" lon="11.5994067"><ele>293.0</ele><time>2026-05-01T10:09:12.207Z</time></trkpt><trkpt lat="43.59165" lon="11.5992883"><ele>293.0</ele><time>2026-05-01T10:09:13.207Z</time></trkpt><trkpt lat="43.5916683" lon="11.59917"><ele>293.0</ele><time>2026-05-01T10:09:14.209Z</time></trkpt><trkpt lat="43.5916983" lon="11.5990583"><ele>293.0</ele><time>2026-05-01T10:09:15.21Z</time></trkpt><trkpt lat="43.5917383" lon="11.59895"><ele>293.0</ele><time>2026-05-01T10:09:16.208Z</time></trkpt><trkpt lat="43.5917867" lon="11.5988517"><ele>293.0</ele><time>2026-05-01T10:09:17.208Z</time></trkpt><trkpt lat="43.5918467" lon="11.5987567"><ele>293.0</ele><time>2026-05-01T10:09:18.208Z</time></trkpt><trkpt lat="43.59191" lon="11.598665"><ele>293.0</ele><time>2026-05-01T10:09:19.209Z</time></trkpt><trkpt lat="43.5919733" lon="11.5985733"><ele>293.0</ele><time>2026-05-01T10:09:20.208Z</time></trkpt><trkpt lat="43.5920317" lon="11.59848"><ele>293.5</ele><time>2026-05-01T10:09:21.208Z</time></trkpt><trkpt lat="43.5920783" lon="11.5983783"><ele>294.0</ele><time>2026-05-01T10:09:22.209Z</time></trkpt><trkpt lat="43.5921167" lon="11.5982667"><ele>294.5</ele><time>2026-05-01T10:09:23.209Z</time></trkpt><trkpt lat="43.592135" lon="11.5981517"><ele>295.0</ele><time>2026-05-01T10:09:24.207Z</time></trkpt><trkpt lat="43.5921367" lon="11.5980333"><ele>295.5</ele><time>2026-05-01T10:09:25.209Z</time></trkpt><trkpt lat="43.5921283" lon="11.5979183"><ele>296.0</ele><time>2026-05-01T10:09:26.212Z</time></trkpt><trkpt lat="43.5921217" lon="11.5978017"><ele>296.0</ele><time>2026-05-01T10:09:27.21Z</time></trkpt><trkpt lat="43.592125" lon="11.5976917"><ele>296.0</ele><time>2026-05-01T10:09:28.207Z</time></trkpt><trkpt lat="43.5921417" lon="11.597585"><ele>296.0</ele><time>2026-05-01T10:09:29.21Z</time></trkpt><trkpt lat="43.5921733" lon="11.597485"><ele>296.0</ele><time>2026-05-01T10:09:30.21Z</time></trkpt><trkpt lat="43.5922167" lon="11.5974"><ele>296.0</ele><time>2026-05-01T10:09:31.208Z</time></trkpt><trkpt lat="43.5922717" lon="11.5973267"><ele>296.0</ele><time>2026-05-01T10:09:32.21Z</time></trkpt><trkpt lat="43.5923333" lon="11.597255"><ele>296.0</ele><time>2026-05-01T10:09:33.208Z</time></trkpt><trkpt lat="43.5923933" lon="11.59719"><ele>296.0</ele><time>2026-05-01T10:09:34.207Z</time></trkpt><trkpt lat="43.5924583" lon="11.5971317"><ele>296.0</ele><time>2026-05-01T10:09:35.209Z</time></trkpt><trkpt lat="43.5925233" lon="11.5970733"><ele>296.0</ele><time>2026-05-01T10:09:36.208Z</time></trkpt><trkpt lat="43.5925883" lon="11.5970133"><ele>296.0</ele><time>2026-05-01T10:09:37.211Z</time></trkpt><trkpt lat="43.5926483" lon="11.5969533"><ele>296.0</ele><time>2026-05-01T10:09:38.209Z</time></trkpt><trkpt lat="43.59271" lon="11.5968867"><ele>296.7142857142857</ele><time>2026-05-01T10:09:39.209Z</time></trkpt><trkpt lat="43.5927733" lon="11.5968283"><ele>297.42857142857144</ele><time>2026-05-01T10:09:40.208Z</time></trkpt><trkpt lat="43.5928333" lon="11.5967733"><ele>298.1428571428571</ele><time>2026-05-01T10:09:41.211Z</time></trkpt><trkpt lat="43.5928967" lon="11.5967333"><ele>298.8571428571429</ele><time>2026-05-01T10:09:42.21Z</time></trkpt><trkpt lat="43.5929683" lon="11.5967"><ele>299.57142857142856</ele><time>2026-05-01T10:09:43.208Z</time></trkpt><trkpt lat="43.593035" lon="11.5966617"><ele>300.2857142857143</ele><time>2026-05-01T10:09:44.21Z</time></trkpt><trkpt lat="43.593095" lon="11.596615"><ele>301.0</ele><time>2026-05-01T10:09:45.209Z</time></trkpt><trkpt lat="43.5931417" lon="11.5965433"><ele>301.0</ele><time>2026-05-01T10:09:46.209Z</time></trkpt><trkpt lat="43.5931617" lon="11.59646"><ele>301.0</ele><time>2026-05-01T10:09:47.208Z</time></trkpt><trkpt lat="43.5931233" lon="11.5962933"><ele>301.0</ele><time>2026-05-01T10:09:49.208Z</time></trkpt><trkpt lat="43.5930633" lon="11.5962317"><ele>301.0</ele><time>2026-05-01T10:09:50.21Z</time></trkpt><trkpt lat="43.5929933" lon="11.5961883"><ele>301.0</ele><time>2026-05-01T10:09:51.208Z</time></trkpt><trkpt lat="43.592915" lon="11.596145"><ele>301.0</ele><time>2026-05-01T10:09:52.208Z</time></trkpt><trkpt lat="43.5928317" lon="11.5960967"><ele>299.5</ele><time>2026-05-01T10:09:53.208Z</time></trkpt><trkpt lat="43.59275" lon="11.5960433"><ele>298.0</ele><time>2026-05-01T10:09:54.21Z</time></trkpt><trkpt lat="43.5926683" lon="11.5959817"><ele>296.5</ele><time>2026-05-01T10:09:55.208Z</time></trkpt><trkpt lat="43.592595" lon="11.59591"><ele>295.0</ele><time>2026-05-01T10:09:56.208Z</time></trkpt><trkpt lat="43.5925283" lon="11.5958333"><ele>293.5</ele><time>2026-05-01T10:09:57.209Z</time></trkpt><trkpt lat="43.59247" lon="11.5957517"><ele>292.0</ele><time>2026-05-01T10:09:58.207Z</time></trkpt><trkpt lat="43.5924183" lon="11.5956633"><ele>292.0</ele><time>2026-05-01T10:09:59.208Z</time></trkpt><trkpt lat="43.5923767" lon="11.5955717"><ele>292.0</ele><time>2026-05-01T10:10:00.208Z</time></trkpt><trkpt lat="43.592345" lon="11.5954767"><ele>292.0</ele><time>2026-05-01T10:10:01.208Z</time></trkpt><trkpt lat="43.592325" lon="11.5953783"><ele>292.0</ele><time>2026-05-01T10:10:02.21Z</time></trkpt><trkpt lat="43.5923167" lon="11.5952783"><ele>292.0</ele><time>2026-05-01T10:10:03.208Z</time></trkpt><trkpt lat="43.5923167" lon="11.5951683"><ele>292.0</ele><time>2026-05-01T10:10:04.207Z</time></trkpt><trkpt lat="43.5923217" lon="11.5950667"><ele>292.5</ele><time>2026-05-01T10:10:05.207Z</time></trkpt><trkpt lat="43.5923367" lon="11.5949683"><ele>293.0</ele><time>2026-05-01T10:10:06.209Z</time></trkpt><trkpt lat="43.59236" lon="11.5948683"><ele>293.5</ele><time>2026-05-01T10:10:07.207Z</time></trkpt><trkpt lat="43.5923917" lon="11.5947717"><ele>294.0</ele><time>2026-05-01T10:10:08.209Z</time></trkpt><trkpt lat="43.592435" lon="11.594685"><ele>294.5</ele><time>2026-05-01T10:10:09.209Z</time></trkpt><trkpt lat="43.5924933" lon="11.5945983"><ele>295.0</ele><time>2026-05-01T10:10:10.207Z</time></trkpt><trkpt lat="43.5925583" lon="11.59452"><ele>294.6</ele><time>2026-05-01T10:10:11.208Z</time></trkpt><trkpt lat="43.592635" lon="11.594445"><ele>294.2</ele><time>2026-05-01T10:10:12.208Z</time></trkpt><trkpt lat="43.5927133" lon="11.59438"><ele>293.8</ele><time>2026-05-01T10:10:13.208Z</time></trkpt><trkpt lat="43.5927917" lon="11.5943183"><ele>293.4</ele><time>2026-05-01T10:10:14.209Z</time></trkpt><trkpt lat="43.5928767" lon="11.59425"><ele>293.0</ele><time>2026-05-01T10:10:15.208Z</time></trkpt><trkpt lat="43.592965" lon="11.59418"><ele>292.8</ele><time>2026-05-01T10:10:16.209Z</time></trkpt><trkpt lat="43.5930567" lon="11.5941067"><ele>292.6</ele><time>2026-05-01T10:10:17.208Z</time></trkpt><trkpt lat="43.5931433" lon="11.594035"><ele>292.4</ele><time>2026-05-01T10:10:18.207Z</time></trkpt><trkpt lat="43.5932283" lon="11.59396"><ele>292.2</ele><time>2026-05-01T10:10:19.207Z</time></trkpt><trkpt lat="43.5933067" lon="11.5938833"><ele>292.0</ele><time>2026-05-01T10:10:20.21Z</time></trkpt><trkpt lat="43.593375" lon="11.5937983"><ele>292.0</ele><time>2026-05-01T10:10:21.207Z</time></trkpt><trkpt lat="43.5934317" lon="11.5937017"><ele>292.0</ele><time>2026-05-01T10:10:22.207Z</time></trkpt><trkpt lat="43.5934667" lon="11.5935933"><ele>292.0</ele><time>2026-05-01T10:10:23.208Z</time></trkpt><trkpt lat="43.5934667" lon="11.5934767"><ele>292.0</ele><time>2026-05-01T10:10:24.209Z</time></trkpt><trkpt lat="43.5934417" lon="11.5933467"><ele>292.0</ele><time>2026-05-01T10:10:25.207Z</time></trkpt><trkpt lat="43.5934067" lon="11.5932267"><ele>290.8</ele><time>2026-05-01T10:10:26.208Z</time></trkpt><trkpt lat="43.5933733" lon="11.593095"><ele>289.6</ele><time>2026-05-01T10:10:27.207Z</time></trkpt><trkpt lat="43.5933383" lon="11.59297"><ele>288.40000000000003</ele><time>2026-05-01T10:10:28.207Z</time></trkpt><trkpt lat="43.5933033" lon="11.5928483"><ele>287.2</ele><time>2026-05-01T10:10:29.209Z</time></trkpt><trkpt lat="43.5932717" lon="11.5927233"><ele>286.0</ele><time>2026-05-01T10:10:30.208Z</time></trkpt><trkpt lat="43.5932417" lon="11.5926"><ele>285.8</ele><time>2026-05-01T10:10:31.207Z</time></trkpt><trkpt lat="43.593215" lon="11.5924833"><ele>285.6</ele><time>2026-05-01T10:10:32.21Z</time></trkpt><trkpt lat="43.593195" lon="11.5923683"><ele>285.4</ele><time>2026-05-01T10:10:33.209Z</time></trkpt><trkpt lat="43.5931917" lon="11.5922367"><ele>285.2</ele><time>2026-05-01T10:10:34.207Z</time></trkpt><trkpt lat="43.59321" lon="11.5921117"><ele>285.0</ele><time>2026-05-01T10:10:35.207Z</time></trkpt><trkpt lat="43.5932567" lon="11.5920017"><ele>285.8</ele><time>2026-05-01T10:10:36.207Z</time></trkpt><trkpt lat="43.5933333" lon="11.5919167"><ele>286.6</ele><time>2026-05-01T10:10:37.209Z</time></trkpt><trkpt lat="43.5934367" lon="11.5918883"><ele>287.4</ele><time>2026-05-01T10:10:38.209Z</time></trkpt><trkpt lat="43.593535" lon="11.591865"><ele>288.2</ele><time>2026-05-01T10:10:39.207Z</time></trkpt><trkpt lat="43.5936383" lon="11.5918333"><ele>289.0</ele><time>2026-05-01T10:10:40.206Z</time></trkpt><trkpt lat="43.5937283" lon="11.5917883"><ele>289.0</ele><time>2026-05-01T10:10:41.209Z</time></trkpt><trkpt lat="43.5937967" lon="11.5917117"><ele>289.0</ele><time>2026-05-01T10:10:42.207Z</time></trkpt><trkpt lat="43.5938333" lon="11.59161"><ele>289.0</ele><time>2026-05-01T10:10:43.208Z</time></trkpt><trkpt lat="43.5938467" lon="11.5914933"><ele>289.0</ele><time>2026-05-01T10:10:44.207Z</time></trkpt><trkpt lat="43.593845" lon="11.5913667"><ele>289.0</ele><time>2026-05-01T10:10:45.207Z</time></trkpt><trkpt lat="43.593845" lon="11.5912417"><ele>289.0</ele><time>2026-05-01T10:10:46.207Z</time></trkpt><trkpt lat="43.5938583" lon="11.591125"><ele>288.66666666666663</ele><time>2026-05-01T10:10:47.21Z</time></trkpt><trkpt lat="43.593885" lon="11.591015"><ele>288.3333333333333</ele><time>2026-05-01T10:10:48.209Z</time></trkpt><trkpt lat="43.59392" lon="11.590905"><ele>288.0</ele><time>2026-05-01T10:10:49.208Z</time></trkpt><trkpt lat="43.593955" lon="11.590805"><ele>287.6666666666667</ele><time>2026-05-01T10:10:50.208Z</time></trkpt><trkpt lat="43.593995" lon="11.5907033"><ele>287.33333333333337</ele><time>2026-05-01T10:10:51.208Z</time></trkpt><trkpt lat="43.59404" lon="11.5906083"><ele>287.0</ele><time>2026-05-01T10:10:52.21Z</time></trkpt><trkpt lat="43.5940833" lon="11.5905183"><ele>287.0</ele><time>2026-05-01T10:10:53.209Z</time></trkpt><trkpt lat="43.5941267" lon="11.5904283"><ele>287.0</ele><time>2026-05-01T10:10:54.208Z</time></trkpt><trkpt lat="43.5941733" lon="11.590335"><ele>287.0</ele><time>2026-05-01T10:10:55.209Z</time></trkpt><trkpt lat="43.5942183" lon="11.5902417"><ele>287.0</ele><time>2026-05-01T10:10:56.21Z</time></trkpt><trkpt lat="43.5942633" lon="11.59015"><ele>287.0</ele><time>2026-05-01T10:10:57.208Z</time></trkpt><trkpt lat="43.5943067" lon="11.5900567"><ele>287.0</ele><time>2026-05-01T10:10:58.207Z</time></trkpt><trkpt lat="43.59435" lon="11.5899633"><ele>287.83333333333337</ele><time>2026-05-01T10:10:59.209Z</time></trkpt><trkpt lat="43.59439" lon="11.5898717"><ele>288.6666666666667</ele><time>2026-05-01T10:11:00.208Z</time></trkpt><trkpt lat="43.5944267" lon="11.589775"><ele>289.5</ele><time>2026-05-01T10:11:01.208Z</time></trkpt><trkpt lat="43.59446" lon="11.5896783"><ele>290.3333333333333</ele><time>2026-05-01T10:11:02.208Z</time></trkpt><trkpt lat="43.594495" lon="11.5895767"><ele>291.16666666666663</ele><time>2026-05-01T10:11:03.208Z</time></trkpt><trkpt lat="43.5945233" lon="11.5894783"><ele>292.0</ele><time>2026-05-01T10:11:04.208Z</time></trkpt><trkpt lat="43.59455" lon="11.5893783"><ele>292.0</ele><time>2026-05-01T10:11:05.208Z</time></trkpt><trkpt lat="43.5945717" lon="11.5892733"><ele>292.0</ele><time>2026-05-01T10:11:06.208Z</time></trkpt><trkpt lat="43.5945883" lon="11.589165"><ele>292.0</ele><time>2026-05-01T10:11:07.21Z</time></trkpt><trkpt lat="43.594595" lon="11.5890617"><ele>292.0</ele><time>2026-05-01T10:11:08.208Z</time></trkpt><trkpt lat="43.59459" lon="11.5889533"><ele>292.0</ele><time>2026-05-01T10:11:09.208Z</time></trkpt><trkpt lat="43.5945767" lon="11.5888417"><ele>292.0</ele><time>2026-05-01T10:11:10.207Z</time></trkpt><trkpt lat="43.5945567" lon="11.5887333"><ele>292.16666666666663</ele><time>2026-05-01T10:11:11.207Z</time></trkpt><trkpt lat="43.5945333" lon="11.5886317"><ele>292.3333333333333</ele><time>2026-05-01T10:11:12.208Z</time></trkpt><trkpt lat="43.5945083" lon="11.5885283"><ele>292.5</ele><time>2026-05-01T10:11:13.208Z</time></trkpt><trkpt lat="43.5944833" lon="11.58843"><ele>292.6666666666667</ele><time>2026-05-01T10:11:14.208Z</time></trkpt><trkpt lat="43.59446" lon="11.5883333"><ele>292.83333333333337</ele><time>2026-05-01T10:11:15.208Z</time></trkpt><trkpt lat="43.5944417" lon="11.5882367"><ele>293.0</ele><time>2026-05-01T10:11:16.209Z</time></trkpt><trkpt lat="43.5944317" lon="11.588135"><ele>292.71428571428567</ele><time>2026-05-01T10:11:17.207Z</time></trkpt><trkpt lat="43.5944317" lon="11.58803"><ele>292.42857142857144</ele><time>2026-05-01T10:11:18.208Z</time></trkpt><trkpt lat="43.5944383" lon="11.5879317"><ele>292.1428571428571</ele><time>2026-05-01T10:11:19.209Z</time></trkpt><trkpt lat="43.59445" lon="11.5878333"><ele>291.85714285714283</ele><time>2026-05-01T10:11:20.207Z</time></trkpt><trkpt lat="43.5944683" lon="11.5877333"><ele>291.57142857142856</ele><time>2026-05-01T10:11:21.209Z</time></trkpt><trkpt lat="43.5944933" lon="11.5876367"><ele>291.2857142857143</ele><time>2026-05-01T10:11:22.207Z</time></trkpt><trkpt lat="43.5945233" lon="11.587545"><ele>291.0</ele><time>2026-05-01T10:11:23.209Z</time></trkpt><trkpt lat="43.594555" lon="11.58745"><ele>291.0</ele><time>2026-05-01T10:11:24.208Z</time></trkpt><trkpt lat="43.5945867" lon="11.5873617"><ele>291.0</ele><time>2026-05-01T10:11:25.208Z</time></trkpt><trkpt lat="43.5946217" lon="11.5872783"><ele>291.0</ele><time>2026-05-01T10:11:26.208Z</time></trkpt><trkpt lat="43.5946633" lon="11.5871983"><ele>291.0</ele><time>2026-05-01T10:11:27.208Z</time></trkpt><trkpt lat="43.5947117" lon="11.5871267"><ele>291.0</ele><time>2026-05-01T10:11:28.209Z</time></trkpt><trkpt lat="43.59477" lon="11.5870617"><ele>291.0</ele><time>2026-05-01T10:11:29.208Z</time></trkpt><trkpt lat="43.594835" lon="11.5870067"><ele>291.0</ele><time>2026-05-01T10:11:30.211Z</time></trkpt><trkpt lat="43.5949017" lon="11.5869583"><ele>289.6666666666667</ele><time>2026-05-01T10:11:31.209Z</time></trkpt><trkpt lat="43.5949733" lon="11.5869083"><ele>288.3333333333333</ele><time>2026-05-01T10:11:32.208Z</time></trkpt><trkpt lat="43.595045" lon="11.5868667"><ele>287.0</ele><time>2026-05-01T10:11:33.208Z</time></trkpt><trkpt lat="43.5951183" lon="11.5868367"><ele>285.66666666666663</ele><time>2026-05-01T10:11:34.207Z</time></trkpt><trkpt lat="43.59519" lon="11.5868233"><ele>284.3333333333333</ele><time>2026-05-01T10:11:35.208Z</time></trkpt><trkpt lat="43.595265" lon="11.5868233"><ele>283.0</ele><time>2026-05-01T10:11:36.209Z</time></trkpt><trkpt lat="43.5953417" lon="11.5868333"><ele>282.5</ele><time>2026-05-01T10:11:37.208Z</time></trkpt><trkpt lat="43.5954167" lon="11.586855"><ele>282.0</ele><time>2026-05-01T10:11:38.209Z</time></trkpt><trkpt lat="43.595495" lon="11.5868967"><ele>281.5</ele><time>2026-05-01T10:11:39.208Z</time></trkpt><trkpt lat="43.59558" lon="11.58694"><ele>281.0</ele><time>2026-05-01T10:11:40.207Z</time></trkpt><trkpt lat="43.5956583" lon="11.5869833"><ele>280.5</ele><time>2026-05-01T10:11:41.208Z</time></trkpt><trkpt lat="43.595735" lon="11.5870267"><ele>280.0</ele><time>2026-05-01T10:11:42.208Z</time></trkpt><trkpt lat="43.595815" lon="11.587065"><ele>281.5</ele><time>2026-05-01T10:11:43.208Z</time></trkpt><trkpt lat="43.5958967" lon="11.587105"><ele>283.0</ele><time>2026-05-01T10:11:44.208Z</time></trkpt><trkpt lat="43.5959783" lon="11.58715"><ele>284.5</ele><time>2026-05-01T10:11:45.208Z</time></trkpt><trkpt lat="43.5960633" lon="11.587195"><ele>286.0</ele><time>2026-05-01T10:11:46.208Z</time></trkpt><trkpt lat="43.5961417" lon="11.587225"><ele>287.5</ele><time>2026-05-01T10:11:47.208Z</time></trkpt><trkpt lat="43.5962233" lon="11.5872367"><ele>289.0</ele><time>2026-05-01T10:11:48.207Z</time></trkpt><trkpt lat="43.596305" lon="11.5872267"><ele>289.0</ele><time>2026-05-01T10:11:49.208Z</time></trkpt><trkpt lat="43.596375" lon="11.587175"><ele>289.0</ele><time>2026-05-01T10:11:50.21Z</time></trkpt><trkpt lat="43.5964433" lon="11.58711"><ele>289.0</ele><time>2026-05-01T10:11:51.208Z</time></trkpt><trkpt lat="43.5965033" lon="11.5870317"><ele>289.0</ele><time>2026-05-01T10:11:52.207Z</time></trkpt><trkpt lat="43.5965633" lon="11.58696"><ele>289.0</ele><time>2026-05-01T10:11:53.208Z</time></trkpt><trkpt lat="43.5966183" lon="11.58689"><ele>289.0</ele><time>2026-05-01T10:11:54.208Z</time></trkpt><trkpt lat="43.5966717" lon="11.5868133"><ele>288.2</ele><time>2026-05-01T10:11:55.209Z</time></trkpt><trkpt lat="43.5967117" lon="11.5867333"><ele>287.4</ele><time>2026-05-01T10:11:56.208Z</time></trkpt><trkpt lat="43.5967417" lon="11.586645"><ele>286.6</ele><time>2026-05-01T10:11:57.208Z</time></trkpt><trkpt lat="43.5967517" lon="11.5865517"><ele>285.8</ele><time>2026-05-01T10:11:58.207Z</time></trkpt><trkpt lat="43.5967517" lon="11.5863817"><ele>285.0</ele><time>2026-05-01T10:12:00.208Z</time></trkpt><trkpt lat="43.596755" lon="11.5862133"><ele>284.8</ele><time>2026-05-01T10:12:02.208Z</time></trkpt><trkpt lat="43.596785" lon="11.5860567"><ele>284.6</ele><time>2026-05-01T10:12:04.209Z</time></trkpt><trkpt lat="43.596845" lon="11.585925"><ele>284.4</ele><time>2026-05-01T10:12:06.21Z</time></trkpt><trkpt lat="43.596915" lon="11.5858233"><ele>284.2</ele><time>2026-05-01T10:12:08.208Z</time></trkpt><trkpt lat="43.5970083" lon="11.5857317"><ele>284.0</ele><time>2026-05-01T10:12:10.208Z</time></trkpt><trkpt lat="43.59711" lon="11.5856633"><ele>286.2</ele><time>2026-05-01T10:12:12.208Z</time></trkpt><trkpt lat="43.5972183" lon="11.585605"><ele>288.4</ele><time>2026-05-01T10:12:14.208Z</time></trkpt><trkpt lat="43.5973283" lon="11.585545"><ele>290.6</ele><time>2026-05-01T10:12:16.206Z</time></trkpt><trkpt lat="43.5974217" lon="11.5854967"><ele>292.8</ele><time>2026-05-01T10:12:18.209Z</time></trkpt><trkpt lat="43.597515" lon="11.585455"><ele>295.0</ele><time>2026-05-01T10:12:20.208Z</time></trkpt><trkpt lat="43.5976083" lon="11.5853983"><ele>295.0</ele><time>2026-05-01T10:12:22.208Z</time></trkpt><trkpt lat="43.597705" lon="11.5853633"><ele>295.0</ele><time>2026-05-01T10:12:24.209Z</time></trkpt><trkpt lat="43.5978017" lon="11.585305"><ele>295.0</ele><time>2026-05-01T10:12:26.208Z</time></trkpt><trkpt lat="43.5978917" lon="11.5852333"><ele>295.0</ele><time>2026-05-01T10:12:28.207Z</time></trkpt><trkpt lat="43.5979617" lon="11.5851383"><ele>295.0</ele><time>2026-05-01T10:12:30.208Z</time></trkpt><trkpt lat="43.59802" lon="11.5850233"><ele>294.6</ele><time>2026-05-01T10:12:32.207Z</time></trkpt><trkpt lat="43.5980717" lon="11.58491"><ele>294.2</ele><time>2026-05-01T10:12:34.208Z</time></trkpt><trkpt lat="43.59812" lon="11.5847883"><ele>293.8</ele><time>2026-05-01T10:12:36.207Z</time></trkpt><trkpt lat="43.59817" lon="11.584675"><ele>293.4</ele><time>2026-05-01T10:12:38.208Z</time></trkpt><trkpt lat="43.5982133" lon="11.5845683"><ele>293.0</ele><time>2026-05-01T10:12:40.207Z</time></trkpt><trkpt lat="43.598275" lon="11.584465"><ele>293.0</ele><time>2026-05-01T10:12:42.207Z</time></trkpt><trkpt lat="43.5983583" lon="11.5843717"><ele>293.0</ele><time>2026-05-01T10:12:44.209Z</time></trkpt><trkpt lat="43.5984567" lon="11.5843133"><ele>293.0</ele><time>2026-05-01T10:12:46.209Z</time></trkpt><trkpt lat="43.5985633" lon="11.5842883"><ele>293.0</ele><time>2026-05-01T10:12:48.208Z</time></trkpt><trkpt lat="43.598665" lon="11.5842683"><ele>293.0</ele><time>2026-05-01T10:12:50.209Z</time></trkpt><trkpt lat="43.5987683" lon="11.5842167"><ele>294.4</ele><time>2026-05-01T10:12:52.208Z</time></trkpt><trkpt lat="43.5988483" lon="11.58411"><ele>295.8</ele><time>2026-05-01T10:12:54.209Z</time></trkpt><trkpt lat="43.5988817" lon="11.5839917"><ele>297.2</ele><time>2026-05-01T10:12:56.208Z</time></trkpt><trkpt lat="43.598885" lon="11.5838833"><ele>298.6</ele><time>2026-05-01T10:12:58.207Z</time></trkpt><trkpt lat="43.5988817" lon="11.5837583"><ele>300.0</ele><time>2026-05-01T10:13:00.208Z</time></trkpt><trkpt lat="43.59887" lon="11.583635"><ele>300.0</ele><time>2026-05-01T10:13:02.21Z</time></trkpt><trkpt lat="43.5988533" lon="11.5835133"><ele>300.0</ele><time>2026-05-01T10:13:04.207Z</time></trkpt><trkpt lat="43.59884" lon="11.5833783"><ele>300.0</ele><time>2026-05-01T10:13:06.21Z</time></trkpt><trkpt lat="43.598835" lon="11.58324"><ele>300.0</ele><time>2026-05-01T10:13:08.211Z</time></trkpt><trkpt lat="43.5988333" lon="11.5830917"><ele>300.0</ele><time>2026-05-01T10:13:10.208Z</time></trkpt><trkpt lat="43.5988417" lon="11.582935"><ele>299.57142857142856</ele><time>2026-05-01T10:13:12.209Z</time></trkpt><trkpt lat="43.5988533" lon="11.5828467"><ele>299.1428571428571</ele><time>2026-05-01T10:13:13.209Z</time></trkpt><trkpt lat="43.598865" lon="11.582755"><ele>298.7142857142857</ele><time>2026-05-01T10:13:14.209Z</time></trkpt><trkpt lat="43.5988783" lon="11.5826583"><ele>298.2857142857143</ele><time>2026-05-01T10:13:15.209Z</time></trkpt><trkpt lat="43.5988933" lon="11.582555"><ele>297.8571428571429</ele><time>2026-05-01T10:13:16.209Z</time></trkpt><trkpt lat="43.59891" lon="11.5824533"><ele>297.42857142857144</ele><time>2026-05-01T10:13:17.209Z</time></trkpt><trkpt lat="43.5989283" lon="11.5823483"><ele>297.0</ele><time>2026-05-01T10:13:18.21Z</time></trkpt><trkpt lat="43.5989483" lon="11.5822433"><ele>297.0</ele><time>2026-05-01T10:13:19.209Z</time></trkpt><trkpt lat="43.5989683" lon="11.5821433"><ele>297.0</ele><time>2026-05-01T10:13:20.209Z</time></trkpt><trkpt lat="43.5989933" lon="11.58204"><ele>297.0</ele><time>2026-05-01T10:13:21.208Z</time></trkpt><trkpt lat="43.5990167" lon="11.5819383"><ele>297.0</ele><time>2026-05-01T10:13:22.208Z</time></trkpt><trkpt lat="43.5990433" lon="11.5818317"><ele>297.0</ele><time>2026-05-01T10:13:23.208Z</time></trkpt><trkpt lat="43.5990817" lon="11.58173"><ele>297.0</ele><time>2026-05-01T10:13:24.208Z</time></trkpt><trkpt lat="43.599135" lon="11.5816367"><ele>296.3333333333333</ele><time>2026-05-01T10:13:25.208Z</time></trkpt><trkpt lat="43.5991983" lon="11.5815667"><ele>295.6666666666667</ele><time>2026-05-01T10:13:26.209Z</time></trkpt><trkpt lat="43.5992683" lon="11.5815133"><ele>295.0</ele><time>2026-05-01T10:13:27.209Z</time></trkpt><trkpt lat="43.5993533" lon="11.581485"><ele>294.33333333333337</ele><time>2026-05-01T10:13:28.208Z</time></trkpt><trkpt lat="43.59944" lon="11.5814883"><ele>293.6666666666667</ele><time>2026-05-01T10:13:29.208Z</time></trkpt><trkpt lat="43.5995233" lon="11.5815183"><ele>293.0</ele><time>2026-05-01T10:13:30.208Z</time></trkpt><trkpt lat="43.5995983" lon="11.5815567"><ele>292.0</ele><time>2026-05-01T10:13:31.209Z</time></trkpt><trkpt lat="43.59967" lon="11.58161"><ele>291.0</ele><time>2026-05-01T10:13:32.208Z</time></trkpt><trkpt lat="43.59974" lon="11.581695"><ele>290.0</ele><time>2026-05-01T10:13:33.21Z</time></trkpt><trkpt lat="43.5998017" lon="11.5817883"><ele>289.0</ele><time>2026-05-01T10:13:34.207Z</time></trkpt><trkpt lat="43.5998683" lon="11.581885"><ele>288.0</ele><time>2026-05-01T10:13:35.209Z</time></trkpt><trkpt lat="43.5999367" lon="11.5819783"><ele>290.0</ele><time>2026-05-01T10:13:36.208Z</time></trkpt><trkpt lat="43.6000067" lon="11.5820717"><ele>292.0</ele><time>2026-05-01T10:13:37.207Z</time></trkpt><trkpt lat="43.6000783" lon="11.58216"><ele>294.0</ele><time>2026-05-01T10:13:38.209Z</time></trkpt><trkpt lat="43.6001483" lon="11.5822433"><ele>296.0</ele><time>2026-05-01T10:13:39.209Z</time></trkpt><trkpt lat="43.6002167" lon="11.5823233"><ele>298.0</ele><time>2026-05-01T10:13:40.207Z</time></trkpt><trkpt lat="43.6002817" lon="11.5824083"><ele>297.5</ele><time>2026-05-01T10:13:41.209Z</time></trkpt><trkpt lat="43.6003483" lon="11.5824917"><ele>297.0</ele><time>2026-05-01T10:13:42.208Z</time></trkpt><trkpt lat="43.6004117" lon="11.5825767"><ele>296.5</ele><time>2026-05-01T10:13:43.209Z</time></trkpt><trkpt lat="43.6004717" lon="11.5826583"><ele>296.0</ele><time>2026-05-01T10:13:44.21Z</time></trkpt><trkpt lat="43.6005367" lon="11.5827333"><ele>295.5</ele><time>2026-05-01T10:13:45.211Z</time></trkpt><trkpt lat="43.6006067" lon="11.582785"><ele>295.0</ele><time>2026-05-01T10:13:46.207Z</time></trkpt><trkpt lat="43.6006867" lon="11.5827733"><ele>295.0</ele><time>2026-05-01T10:13:47.207Z</time></trkpt><trkpt lat="43.6007533" lon="11.5827183"><ele>295.0</ele><time>2026-05-01T10:13:48.208Z</time></trkpt><trkpt lat="43.6008133" lon="11.582635"><ele>295.0</ele><time>2026-05-01T10:13:49.208Z</time></trkpt><trkpt lat="43.6008533" lon="11.5825417"><ele>295.0</ele><time>2026-05-01T10:13:50.208Z</time></trkpt><trkpt lat="43.6008717" lon="11.5824483"><ele>295.0</ele><time>2026-05-01T10:13:51.208Z</time></trkpt><trkpt lat="43.600865" lon="11.5822817"><ele>295.0</ele><time>2026-05-01T10:13:53.208Z</time></trkpt><trkpt lat="43.6008317" lon="11.5822"><ele>295.0</ele><time>2026-05-01T10:13:54.208Z</time></trkpt><trkpt lat="43.6007933" lon="11.5821083"><ele>295.0</ele><time>2026-05-01T10:13:55.21Z</time></trkpt><trkpt lat="43.6007517" lon="11.5820267"><ele>295.0</ele><time>2026-05-01T10:13:56.209Z</time></trkpt><trkpt lat="43.6007183" lon="11.5819467"><ele>295.0</ele><time>2026-05-01T10:13:57.211Z</time></trkpt><trkpt lat="43.6006917" lon="11.5818633"><ele>295.0</ele><time>2026-05-01T10:13:58.208Z</time></trkpt><trkpt lat="43.600645" lon="11.581715"><ele>295.0</ele><time>2026-05-01T10:14:00.21Z</time></trkpt><trkpt lat="43.6006133" lon="11.5815617"><ele>295.4</ele><time>2026-05-01T10:14:02.207Z</time></trkpt><trkpt lat="43.6005767" lon="11.5814133"><ele>295.8</ele><time>2026-05-01T10:14:04.207Z</time></trkpt><trkpt lat="43.6005283" lon="11.5812717"><ele>296.2</ele><time>2026-05-01T10:14:06.208Z</time></trkpt><trkpt lat="43.60049" lon="11.5811267"><ele>296.6</ele><time>2026-05-01T10:14:08.207Z</time></trkpt><trkpt lat="43.6004467" lon="11.580995"><ele>297.0</ele><time>2026-05-01T10:14:10.208Z</time></trkpt><trkpt lat="43.6004117" lon="11.58084"><ele>297.2</ele><time>2026-05-01T10:14:12.208Z</time></trkpt><trkpt lat="43.6004" lon="11.5807467"><ele>297.4</ele><time>2026-05-01T10:14:13.21Z</time></trkpt><trkpt lat="43.600365" lon="11.58058"><ele>297.6</ele><time>2026-05-01T10:14:15.207Z</time></trkpt><trkpt lat="43.6003633" lon="11.5804917"><ele>297.8</ele><time>2026-05-01T10:14:16.209Z</time></trkpt><trkpt lat="43.6003767" lon="11.580325"><ele>298.0</ele><time>2026-05-01T10:14:18.21Z</time></trkpt><trkpt lat="43.6004117" lon="11.5801733"><ele>297.6</ele><time>2026-05-01T10:14:20.21Z</time></trkpt><trkpt lat="43.6004683" lon="11.5800417"><ele>297.20000000000005</ele><time>2026-05-01T10:14:22.21Z</time></trkpt><trkpt lat="43.600525" lon="11.579925"><ele>296.8</ele><time>2026-05-01T10:14:24.206Z</time></trkpt><trkpt lat="43.6005683" lon="11.5798183"><ele>296.40000000000003</ele><time>2026-05-01T10:14:26.208Z</time></trkpt><trkpt lat="43.600615" lon="11.5797167"><ele>296.0</ele><time>2026-05-01T10:14:28.206Z</time></trkpt><trkpt lat="43.60066" lon="11.579625"><ele>296.0</ele><time>2026-05-01T10:14:30.206Z</time></trkpt><trkpt lat="43.6007017" lon="11.57955"><ele>296.0</ele><time>2026-05-01T10:14:32.208Z</time></trkpt><trkpt lat="43.6007667" lon="11.5794633"><ele>296.0</ele><time>2026-05-01T10:14:35.206Z</time></trkpt><trkpt lat="43.6008433" lon="11.5793817"><ele>296.0</ele><time>2026-05-01T10:14:38.207Z</time></trkpt><trkpt lat="43.6008983" lon="11.5793233"><ele>296.0</ele><time>2026-05-01T10:14:42.204Z</time></trkpt><trkpt lat="43.60096" lon="11.5792483"><ele>296.0</ele><time>2026-05-01T10:14:48.204Z</time></trkpt><trkpt lat="43.60102" lon="11.5792217"><ele>295.8</ele><time>2026-05-01T10:14:51.207Z</time></trkpt><trkpt lat="43.60112" lon="11.579185"><ele>295.6</ele><time>2026-05-01T10:14:54.207Z</time></trkpt><trkpt lat="43.6012067" lon="11.5791633"><ele>295.4</ele><time>2026-05-01T10:14:56.207Z</time></trkpt><trkpt lat="43.6013033" lon="11.5791583"><ele>295.2</ele><time>2026-05-01T10:14:58.206Z</time></trkpt><trkpt lat="43.6014033" lon="11.57918"><ele>295.0</ele><time>2026-05-01T10:15:00.207Z</time></trkpt><trkpt lat="43.60152" lon="11.5792217"><ele>295.4</ele><time>2026-05-01T10:15:02.207Z</time></trkpt><trkpt lat="43.6016383" lon="11.57923"><ele>295.8</ele><time>2026-05-01T10:15:04.206Z</time></trkpt><trkpt lat="43.601765" lon="11.579215"><ele>296.2</ele><time>2026-05-01T10:15:06.209Z</time></trkpt><trkpt lat="43.60189" lon="11.579185"><ele>296.6</ele><time>2026-05-01T10:15:08.207Z</time></trkpt><trkpt lat="43.6019567" lon="11.579175"><ele>297.0</ele><time>2026-05-01T10:15:09.207Z</time></trkpt><trkpt lat="43.60202" lon="11.5791583"><ele>297.8571428571429</ele><time>2026-05-01T10:15:10.209Z</time></trkpt><trkpt lat="43.6020817" lon="11.5791383"><ele>298.7142857142857</ele><time>2026-05-01T10:15:11.209Z</time></trkpt><trkpt lat="43.6021467" lon="11.5791183"><ele>299.57142857142856</ele><time>2026-05-01T10:15:12.209Z</time></trkpt><trkpt lat="43.6022083" lon="11.5790933"><ele>300.42857142857144</ele><time>2026-05-01T10:15:13.208Z</time></trkpt><trkpt lat="43.60227" lon="11.5790667"><ele>301.2857142857143</ele><time>2026-05-01T10:15:14.207Z</time></trkpt><trkpt lat="43.6023383" lon="11.5790433"><ele>302.14285714285717</ele><time>2026-05-01T10:15:15.209Z</time></trkpt><trkpt lat="43.6024" lon="11.579005"><ele>303.0</ele><time>2026-05-01T10:15:16.206Z</time></trkpt><trkpt lat="43.6024633" lon="11.5789633"><ele>303.0</ele><time>2026-05-01T10:15:17.207Z</time></trkpt><trkpt lat="43.60252" lon="11.5789083"><ele>303.0</ele><time>2026-05-01T10:15:18.207Z</time></trkpt><trkpt lat="43.6025717" lon="11.578845"><ele>303.0</ele><time>2026-05-01T10:15:19.207Z</time></trkpt><trkpt lat="43.6026133" lon="11.5787783"><ele>303.0</ele><time>2026-05-01T10:15:20.208Z</time></trkpt><trkpt lat="43.6026533" lon="11.5787017"><ele>303.0</ele><time>2026-05-01T10:15:21.207Z</time></trkpt><trkpt lat="43.602695" lon="11.5786217"><ele>303.0</ele><time>2026-05-01T10:15:22.207Z</time></trkpt><trkpt lat="43.60274" lon="11.5785483"><ele>303.0</ele><time>2026-05-01T10:15:23.208Z</time></trkpt><trkpt lat="43.6027967" lon="11.5784833"><ele>303.0</ele><time>2026-05-01T10:15:24.207Z</time></trkpt><trkpt lat="43.6028633" lon="11.5784367"><ele>303.0</ele><time>2026-05-01T10:15:25.207Z</time></trkpt><trkpt lat="43.6029333" lon="11.578395"><ele>303.0</ele><time>2026-05-01T10:15:26.208Z</time></trkpt><trkpt lat="43.6030067" lon="11.57835"><ele>303.0</ele><time>2026-05-01T10:15:27.208Z</time></trkpt><trkpt lat="43.6030733" lon="11.5782917"><ele>303.0</ele><time>2026-05-01T10:15:28.207Z</time></trkpt><trkpt lat="43.6031233" lon="11.5782133"><ele>303.0</ele><time>2026-05-01T10:15:29.207Z</time></trkpt><trkpt lat="43.6031583" lon="11.578115"><ele>303.0</ele><time>2026-05-01T10:15:30.209Z</time></trkpt><trkpt lat="43.6031767" lon="11.5779983"><ele>303.0</ele><time>2026-05-01T10:15:31.209Z</time></trkpt><trkpt lat="43.6031783" lon="11.5778783"><ele>303.0</ele><time>2026-05-01T10:15:32.21Z</time></trkpt><trkpt lat="43.60317" lon="11.57775"><ele>303.0</ele><time>2026-05-01T10:15:33.207Z</time></trkpt><trkpt lat="43.6031617" lon="11.577625"><ele>303.0</ele><time>2026-05-01T10:15:34.208Z</time></trkpt><trkpt lat="43.6031583" lon="11.5774917"><ele>301.8</ele><time>2026-05-01T10:15:35.208Z</time></trkpt><trkpt lat="43.6031683" lon="11.577355"><ele>300.6</ele><time>2026-05-01T10:15:36.207Z</time></trkpt><trkpt lat="43.6032033" lon="11.5772233"><ele>299.4</ele><time>2026-05-01T10:15:37.208Z</time></trkpt><trkpt lat="43.6032533" lon="11.577105"><ele>298.2</ele><time>2026-05-01T10:15:38.207Z</time></trkpt><trkpt lat="43.6033183" lon="11.5769933"><ele>297.0</ele><time>2026-05-01T10:15:39.208Z</time></trkpt><trkpt lat="43.6033967" lon="11.5768883"><ele>295.8</ele><time>2026-05-01T10:15:40.208Z</time></trkpt><trkpt lat="43.6034783" lon="11.5767917"><ele>294.6</ele><time>2026-05-01T10:15:41.208Z</time></trkpt><trkpt lat="43.6035667" lon="11.5766967"><ele>293.40000000000003</ele><time>2026-05-01T10:15:42.209Z</time></trkpt><trkpt lat="43.603655" lon="11.57662"><ele>292.2</ele><time>2026-05-01T10:15:43.207Z</time></trkpt><trkpt lat="43.603745" lon="11.57657"><ele>291.0</ele><time>2026-05-01T10:15:44.208Z</time></trkpt><trkpt lat="43.6038467" lon="11.5765567"><ele>291.0</ele><time>2026-05-01T10:15:45.208Z</time></trkpt><trkpt lat="43.6039533" lon="11.5765733"><ele>291.0</ele><time>2026-05-01T10:15:46.207Z</time></trkpt><trkpt lat="43.60406" lon="11.5766067"><ele>291.0</ele><time>2026-05-01T10:15:47.207Z</time></trkpt><trkpt lat="43.6041667" lon="11.5766483"><ele>291.0</ele><time>2026-05-01T10:15:48.207Z</time></trkpt><trkpt lat="43.6042783" lon="11.57669"><ele>291.0</ele><time>2026-05-01T10:15:49.207Z</time></trkpt><trkpt lat="43.60439" lon="11.5767183"><ele>290.75</ele><time>2026-05-01T10:15:50.207Z</time></trkpt><trkpt lat="43.6045083" lon="11.576745"><ele>290.5</ele><time>2026-05-01T10:15:51.207Z</time></trkpt><trkpt lat="43.6046217" lon="11.5767517"><ele>290.25</ele><time>2026-05-01T10:15:52.207Z</time></trkpt><trkpt lat="43.6047333" lon="11.5767317"><ele>290.0</ele><time>2026-05-01T10:15:53.208Z</time></trkpt><trkpt lat="43.6048383" lon="11.5766733"><ele>290.0</ele><time>2026-05-01T10:15:54.209Z</time></trkpt><trkpt lat="43.6049283" lon="11.57658"><ele>290.0</ele><time>2026-05-01T10:15:55.208Z</time></trkpt><trkpt lat="43.6049933" lon="11.5764567"><ele>290.0</ele><time>2026-05-01T10:15:56.209Z</time></trkpt><trkpt lat="43.6050383" lon="11.576315"><ele>290.0</ele><time>2026-05-01T10:15:57.207Z</time></trkpt><trkpt lat="43.6050633" lon="11.5761617"><ele>290.0</ele><time>2026-05-01T10:15:58.208Z</time></trkpt><trkpt lat="43.605075" lon="11.576005"><ele>288.6</ele><time>2026-05-01T10:15:59.209Z</time></trkpt><trkpt lat="43.6050817" lon="11.575845"><ele>287.2</ele><time>2026-05-01T10:16:00.207Z</time></trkpt><trkpt lat="43.605085" lon="11.5756833"><ele>285.8</ele><time>2026-05-01T10:16:01.207Z</time></trkpt><trkpt lat="43.6050917" lon="11.57553"><ele>284.4</ele><time>2026-05-01T10:16:02.21Z</time></trkpt><trkpt lat="43.6051167" lon="11.57539"><ele>283.0</ele><time>2026-05-01T10:16:03.208Z</time></trkpt><trkpt lat="43.60517" lon="11.575265"><ele>283.4</ele><time>2026-05-01T10:16:04.209Z</time></trkpt><trkpt lat="43.605245" lon="11.57517"><ele>283.8</ele><time>2026-05-01T10:16:05.208Z</time></trkpt><trkpt lat="43.605335" lon="11.575105"><ele>284.2</ele><time>2026-05-01T10:16:06.206Z</time></trkpt><trkpt lat="43.6054283" lon="11.57505"><ele>284.6</ele><time>2026-05-01T10:16:07.208Z</time></trkpt><trkpt lat="43.6055183" lon="11.5749967"><ele>285.0</ele><time>2026-05-01T10:16:08.21Z</time></trkpt><trkpt lat="43.6056117" lon="11.5749367"><ele>285.0</ele><time>2026-05-01T10:16:09.206Z</time></trkpt><trkpt lat="43.6057033" lon="11.5748733"><ele>285.0</ele><time>2026-05-01T10:16:10.206Z</time></trkpt><trkpt lat="43.605795" lon="11.5747967"><ele>285.0</ele><time>2026-05-01T10:16:11.209Z</time></trkpt><trkpt lat="43.6058733" lon="11.5747083"><ele>285.0</ele><time>2026-05-01T10:16:12.207Z</time></trkpt><trkpt lat="43.60594" lon="11.5746117"><ele>285.0</ele><time>2026-05-01T10:16:13.207Z</time></trkpt><trkpt lat="43.606" lon="11.5745083"><ele>285.6</ele><time>2026-05-01T10:16:14.209Z</time></trkpt><trkpt lat="43.6060583" lon="11.5744"><ele>286.2</ele><time>2026-05-01T10:16:15.209Z</time></trkpt><trkpt lat="43.606115" lon="11.574295"><ele>286.8</ele><time>2026-05-01T10:16:16.208Z</time></trkpt><trkpt lat="43.60618" lon="11.5741917"><ele>287.4</ele><time>2026-05-01T10:16:17.207Z</time></trkpt><trkpt lat="43.6062483" lon="11.5741017"><ele>288.0</ele><time>2026-05-01T10:16:18.209Z</time></trkpt><trkpt lat="43.6063217" lon="11.5740183"><ele>288.0</ele><time>2026-05-01T10:16:19.208Z</time></trkpt><trkpt lat="43.606395" lon="11.5739433"><ele>288.0</ele><time>2026-05-01T10:16:20.21Z</time></trkpt><trkpt lat="43.6064667" lon="11.57387"><ele>288.0</ele><time>2026-05-01T10:16:21.207Z</time></trkpt><trkpt lat="43.6065333" lon="11.5738017"><ele>288.0</ele><time>2026-05-01T10:16:22.206Z</time></trkpt><trkpt lat="43.606605" lon="11.5737317"><ele>288.0</ele><time>2026-05-01T10:16:23.207Z</time></trkpt><trkpt lat="43.6066867" lon="11.573665"><ele>288.0</ele><time>2026-05-01T10:16:24.208Z</time></trkpt><trkpt lat="43.6067717" lon="11.573615"><ele>287.5</ele><time>2026-05-01T10:16:25.206Z</time></trkpt><trkpt lat="43.60686" lon="11.5735867"><ele>287.0</ele><time>2026-05-01T10:16:26.207Z</time></trkpt><trkpt lat="43.60695" lon="11.5735817"><ele>286.5</ele><time>2026-05-01T10:16:27.207Z</time></trkpt><trkpt lat="43.6070367" lon="11.5735917"><ele>286.0</ele><time>2026-05-01T10:16:28.207Z</time></trkpt><trkpt lat="43.6071233" lon="11.573605"><ele>285.5</ele><time>2026-05-01T10:16:29.209Z</time></trkpt><trkpt lat="43.6072117" lon="11.5736117"><ele>285.0</ele><time>2026-05-01T10:16:30.209Z</time></trkpt><trkpt lat="43.6072917" lon="11.5735917"><ele>285.0</ele><time>2026-05-01T10:16:31.208Z</time></trkpt><trkpt lat="43.607355" lon="11.5735233"><ele>285.0</ele><time>2026-05-01T10:16:32.207Z</time></trkpt><trkpt lat="43.6073917" lon="11.5734267"><ele>285.0</ele><time>2026-05-01T10:16:33.207Z</time></trkpt><trkpt lat="43.6074017" lon="11.5733183"><ele>285.0</ele><time>2026-05-01T10:16:34.21Z</time></trkpt><trkpt lat="43.6073983" lon="11.5732033"><ele>285.0</ele><time>2026-05-01T10:16:35.208Z</time></trkpt><trkpt lat="43.60738" lon="11.573095"><ele>285.0</ele><time>2026-05-01T10:16:36.209Z</time></trkpt><trkpt lat="43.60736" lon="11.572985"><ele>285.0</ele><time>2026-05-01T10:16:37.209Z</time></trkpt><trkpt lat="43.6073383" lon="11.572885"><ele>285.0</ele><time>2026-05-01T10:16:38.208Z</time></trkpt><trkpt lat="43.6073167" lon="11.57278"><ele>285.0</ele><time>2026-05-01T10:16:39.208Z</time></trkpt><trkpt lat="43.6072983" lon="11.5726717"><ele>285.0</ele><time>2026-05-01T10:16:40.207Z</time></trkpt><trkpt lat="43.6072833" lon="11.572565"><ele>285.0</ele><time>2026-05-01T10:16:41.207Z</time></trkpt><trkpt lat="43.6072683" lon="11.5724617"><ele>285.0</ele><time>2026-05-01T10:16:42.208Z</time></trkpt><trkpt lat="43.6072633" lon="11.5723567"><ele>285.0</ele><time>2026-05-01T10:16:43.209Z</time></trkpt><trkpt lat="43.60726" lon="11.5722667"><ele>285.0</ele><time>2026-05-01T10:16:44.208Z</time></trkpt><trkpt lat="43.60727" lon="11.57218"><ele>285.0</ele><time>2026-05-01T10:16:45.209Z</time></trkpt><trkpt lat="43.607295" lon="11.5720917"><ele>285.0</ele><time>2026-05-01T10:16:46.208Z</time></trkpt><trkpt lat="43.6073283" lon="11.5720033"><ele>285.0</ele><time>2026-05-01T10:16:47.208Z</time></trkpt><trkpt lat="43.6073717" lon="11.5719167"><ele>285.0</ele><time>2026-05-01T10:16:48.209Z</time></trkpt><trkpt lat="43.6074183" lon="11.5718383"><ele>285.0</ele><time>2026-05-01T10:16:49.208Z</time></trkpt><trkpt lat="43.60747" lon="11.571765"><ele>285.0</ele><time>2026-05-01T10:16:50.209Z</time></trkpt><trkpt lat="43.607525" lon="11.5717017"><ele>285.0</ele><time>2026-05-01T10:16:51.208Z</time></trkpt><trkpt lat="43.60758" lon="11.5716533"><ele>285.0</ele><time>2026-05-01T10:16:52.208Z</time></trkpt><trkpt lat="43.60764" lon="11.5716117"><ele>285.0</ele><time>2026-05-01T10:16:53.208Z</time></trkpt><trkpt lat="43.6077033" lon="11.5715633"><ele>285.0</ele><time>2026-05-01T10:16:54.207Z</time></trkpt><trkpt lat="43.607765" lon="11.571515"><ele>285.0</ele><time>2026-05-01T10:16:55.207Z</time></trkpt><trkpt lat="43.6078233" lon="11.571475"><ele>285.0</ele><time>2026-05-01T10:16:56.208Z</time></trkpt><trkpt lat="43.6078883" lon="11.5714417"><ele>285.8333333333333</ele><time>2026-05-01T10:16:57.209Z</time></trkpt><trkpt lat="43.60796" lon="11.5714133"><ele>286.6666666666667</ele><time>2026-05-01T10:16:58.21Z</time></trkpt><trkpt lat="43.608035" lon="11.5713917"><ele>287.5</ele><time>2026-05-01T10:16:59.208Z</time></trkpt><trkpt lat="43.608115" lon="11.57138"><ele>288.33333333333337</ele><time>2026-05-01T10:17:00.207Z</time></trkpt><trkpt lat="43.6081933" lon="11.5713683"><ele>289.1666666666667</ele><time>2026-05-01T10:17:01.207Z</time></trkpt><trkpt lat="43.6082717" lon="11.5713567"><ele>290.0</ele><time>2026-05-01T10:17:02.21Z</time></trkpt><trkpt lat="43.6083483" lon="11.571345"><ele>290.0</ele><time>2026-05-01T10:17:03.208Z</time></trkpt><trkpt lat="43.6084267" lon="11.5713333"><ele>290.0</ele><time>2026-05-01T10:17:04.207Z</time></trkpt><trkpt lat="43.6085033" lon="11.57132"><ele>290.0</ele><time>2026-05-01T10:17:05.207Z</time></trkpt><trkpt lat="43.6085817" lon="11.5713067"><ele>290.0</ele><time>2026-05-01T10:17:06.207Z</time></trkpt><trkpt lat="43.6086583" lon="11.5712933"><ele>290.0</ele><time>2026-05-01T10:17:07.208Z</time></trkpt><trkpt lat="43.6087367" lon="11.5712783"><ele>290.0</ele><time>2026-05-01T10:17:08.208Z</time></trkpt><trkpt lat="43.608815" lon="11.5712617"><ele>289.6666666666667</ele><time>2026-05-01T10:17:09.207Z</time></trkpt><trkpt lat="43.60889" lon="11.571245"><ele>289.33333333333337</ele><time>2026-05-01T10:17:10.208Z</time></trkpt><trkpt lat="43.6089683" lon="11.57123"><ele>289.0</ele><time>2026-05-01T10:17:11.208Z</time></trkpt><trkpt lat="43.609045" lon="11.5712133"><ele>288.6666666666667</ele><time>2026-05-01T10:17:12.209Z</time></trkpt><trkpt lat="43.6091217" lon="11.5711967"><ele>288.3333333333333</ele><time>2026-05-01T10:17:13.208Z</time></trkpt><trkpt lat="43.609195" lon="11.5711767"><ele>288.0</ele><time>2026-05-01T10:17:14.208Z</time></trkpt><trkpt lat="43.60927" lon="11.5711533"><ele>288.0</ele><time>2026-05-01T10:17:15.208Z</time></trkpt><trkpt lat="43.60935" lon="11.571135"><ele>288.0</ele><time>2026-05-01T10:17:16.207Z</time></trkpt><trkpt lat="43.6094233" lon="11.5711133"><ele>288.0</ele><time>2026-05-01T10:17:17.207Z</time></trkpt><trkpt lat="43.6095033" lon="11.5710983"><ele>288.0</ele><time>2026-05-01T10:17:18.209Z</time></trkpt><trkpt lat="43.6095833" lon="11.571085"><ele>288.0</ele><time>2026-05-01T10:17:19.208Z</time></trkpt><trkpt lat="43.6096617" lon="11.5710767"><ele>288.0</ele><time>2026-05-01T10:17:20.208Z</time></trkpt><trkpt lat="43.6097367" lon="11.571065"><ele>288.5714285714286</ele><time>2026-05-01T10:17:21.208Z</time></trkpt><trkpt lat="43.609805" lon="11.5710483"><ele>289.14285714285717</ele><time>2026-05-01T10:17:22.207Z</time></trkpt><trkpt lat="43.609875" lon="11.57103"><ele>289.7142857142857</ele><time>2026-05-01T10:17:23.208Z</time></trkpt><trkpt lat="43.6099433" lon="11.5710083"><ele>290.28571428571433</ele><time>2026-05-01T10:17:24.21Z</time></trkpt><trkpt lat="43.61001" lon="11.57099"><ele>290.8571428571429</ele><time>2026-05-01T10:17:25.207Z</time></trkpt><trkpt lat="43.61008" lon="11.5709817"><ele>291.42857142857144</ele><time>2026-05-01T10:17:26.209Z</time></trkpt><trkpt lat="43.6101483" lon="11.570985"><ele>292.0</ele><time>2026-05-01T10:17:27.207Z</time></trkpt><trkpt lat="43.6102167" lon="11.5709983"><ele>292.0</ele><time>2026-05-01T10:17:28.208Z</time></trkpt><trkpt lat="43.61028" lon="11.5710167"><ele>292.0</ele><time>2026-05-01T10:17:29.207Z</time></trkpt><trkpt lat="43.61035" lon="11.5710417"><ele>292.0</ele><time>2026-05-01T10:17:30.209Z</time></trkpt><trkpt lat="43.610415" lon="11.571075"><ele>292.0</ele><time>2026-05-01T10:17:31.207Z</time></trkpt><trkpt lat="43.61048" lon="11.5711233"><ele>292.0</ele><time>2026-05-01T10:17:32.207Z</time></trkpt><trkpt lat="43.610535" lon="11.571175"><ele>292.0</ele><time>2026-05-01T10:17:33.209Z</time></trkpt><trkpt lat="43.6105817" lon="11.5712433"><ele>292.0</ele><time>2026-05-01T10:17:34.208Z</time></trkpt><trkpt lat="43.61062" lon="11.5713267"><ele>292.1428571428571</ele><time>2026-05-01T10:17:35.209Z</time></trkpt><trkpt lat="43.61065" lon="11.5714183"><ele>292.2857142857143</ele><time>2026-05-01T10:17:36.207Z</time></trkpt><trkpt lat="43.610675" lon="11.571515"><ele>292.42857142857144</ele><time>2026-05-01T10:17:37.207Z</time></trkpt><trkpt lat="43.6107" lon="11.5716117"><ele>292.57142857142856</ele><time>2026-05-01T10:17:38.208Z</time></trkpt><trkpt lat="43.6107233" lon="11.5717083"><ele>292.7142857142857</ele><time>2026-05-01T10:17:39.207Z</time></trkpt><trkpt lat="43.610745" lon="11.5718067"><ele>292.85714285714283</ele><time>2026-05-01T10:17:40.209Z</time></trkpt><trkpt lat="43.6107717" lon="11.5719"><ele>293.0</ele><time>2026-05-01T10:17:41.209Z</time></trkpt><trkpt lat="43.6108" lon="11.5719967"><ele>294.0</ele><time>2026-05-01T10:17:42.208Z</time></trkpt><trkpt lat="43.6108267" lon="11.5720917"><ele>295.0</ele><time>2026-05-01T10:17:43.207Z</time></trkpt><trkpt lat="43.6108533" lon="11.5721967"><ele>296.0</ele><time>2026-05-01T10:17:44.21Z</time></trkpt><trkpt lat="43.6108833" lon="11.5723033"><ele>297.0</ele><time>2026-05-01T10:17:45.209Z</time></trkpt><trkpt lat="43.610905" lon="11.572405"><ele>298.0</ele><time>2026-05-01T10:17:46.208Z</time></trkpt><trkpt lat="43.6109317" lon="11.572515"><ele>299.0</ele><time>2026-05-01T10:17:47.207Z</time></trkpt><trkpt lat="43.6109533" lon="11.5726267"><ele>299.0</ele><time>2026-05-01T10:17:48.207Z</time></trkpt><trkpt lat="43.6109783" lon="11.572725"><ele>299.0</ele><time>2026-05-01T10:17:49.207Z</time></trkpt><trkpt lat="43.611" lon="11.5728233"><ele>299.0</ele><time>2026-05-01T10:17:50.208Z</time></trkpt><trkpt lat="43.611025" lon="11.5729183"><ele>299.0</ele><time>2026-05-01T10:17:51.207Z</time></trkpt><trkpt lat="43.611055" lon="11.5730083"><ele>299.0</ele><time>2026-05-01T10:17:52.209Z</time></trkpt><trkpt lat="43.6110917" lon="11.5730983"><ele>299.0</ele><time>2026-05-01T10:17:53.207Z</time></trkpt><trkpt lat="43.61114" lon="11.5731667"><ele>299.0</ele><time>2026-05-01T10:17:54.208Z</time></trkpt><trkpt lat="43.6112033" lon="11.5732167"><ele>299.1666666666667</ele><time>2026-05-01T10:17:55.207Z</time></trkpt><trkpt lat="43.6112667" lon="11.5732233"><ele>299.33333333333337</ele><time>2026-05-01T10:17:56.207Z</time></trkpt><trkpt lat="43.6113417" lon="11.5732033"><ele>299.5</ele><time>2026-05-01T10:17:57.206Z</time></trkpt><trkpt lat="43.6114" lon="11.5731017"><ele>299.6666666666667</ele><time>2026-05-01T10:17:58.207Z</time></trkpt><trkpt lat="43.6114567" lon="11.572985"><ele>299.8333333333333</ele><time>2026-05-01T10:17:59.207Z</time></trkpt><trkpt lat="43.6115067" lon="11.5728567"><ele>300.0</ele><time>2026-05-01T10:18:00.209Z</time></trkpt><trkpt lat="43.6115333" lon="11.5727383"><ele>300.0</ele><time>2026-05-01T10:18:01.209Z</time></trkpt><trkpt lat="43.6115483" lon="11.5726183"><ele>300.0</ele><time>2026-05-01T10:18:02.206Z</time></trkpt><trkpt lat="43.6115533" lon="11.5725067"><ele>300.0</ele><time>2026-05-01T10:18:03.207Z</time></trkpt><trkpt lat="43.6115583" lon="11.572395"><ele>300.0</ele><time>2026-05-01T10:18:04.209Z</time></trkpt><trkpt lat="43.6115617" lon="11.57229"><ele>300.0</ele><time>2026-05-01T10:18:05.209Z</time></trkpt><trkpt lat="43.6115667" lon="11.57219"><ele>300.0</ele><time>2026-05-01T10:18:06.207Z</time></trkpt><trkpt lat="43.61157" lon="11.5720983"><ele>299.71428571428567</ele><time>2026-05-01T10:18:07.208Z</time></trkpt><trkpt lat="43.611575" lon="11.572"><ele>299.42857142857144</ele><time>2026-05-01T10:18:08.207Z</time></trkpt><trkpt lat="43.6115817" lon="11.5719033"><ele>299.1428571428571</ele><time>2026-05-01T10:18:09.208Z</time></trkpt><trkpt lat="43.6115883" lon="11.5718033"><ele>298.85714285714283</ele><time>2026-05-01T10:18:10.207Z</time></trkpt><trkpt lat="43.611595" lon="11.5717083"><ele>298.57142857142856</ele><time>2026-05-01T10:18:11.208Z</time></trkpt><trkpt lat="43.6115983" lon="11.5716133"><ele>298.2857142857143</ele><time>2026-05-01T10:18:12.208Z</time></trkpt><trkpt lat="43.6116" lon="11.5715217"><ele>298.0</ele><time>2026-05-01T10:18:13.207Z</time></trkpt><trkpt lat="43.611605" lon="11.5713483"><ele>298.0</ele><time>2026-05-01T10:18:15.208Z</time></trkpt><trkpt lat="43.6116133" lon="11.5712583"><ele>298.0</ele><time>2026-05-01T10:18:16.21Z</time></trkpt><trkpt lat="43.6116317" lon="11.571095"><ele>298.0</ele><time>2026-05-01T10:18:18.207Z</time></trkpt><trkpt lat="43.61167" lon="11.5709467"><ele>298.0</ele><time>2026-05-01T10:18:20.208Z</time></trkpt><trkpt lat="43.6117683" lon="11.5708033"><ele>298.0</ele><time>2026-05-01T10:18:22.209Z</time></trkpt><trkpt lat="43.61185" lon="11.57073"><ele>297.5</ele><time>2026-05-01T10:18:23.209Z</time></trkpt><trkpt lat="43.6119367" lon="11.5706817"><ele>297.0</ele><time>2026-05-01T10:18:24.208Z</time></trkpt><trkpt lat="43.6120167" lon="11.5706583"><ele>296.5</ele><time>2026-05-01T10:18:25.207Z</time></trkpt><trkpt lat="43.6120983" lon="11.5706433"><ele>296.0</ele><time>2026-05-01T10:18:26.209Z</time></trkpt><trkpt lat="43.6121767" lon="11.5706233"><ele>295.5</ele><time>2026-05-01T10:18:27.208Z</time></trkpt><trkpt lat="43.6122583" lon="11.5706067"><ele>295.0</ele><time>2026-05-01T10:18:28.208Z</time></trkpt><trkpt lat="43.6123367" lon="11.5705933"><ele>295.0</ele><time>2026-05-01T10:18:29.207Z</time></trkpt><trkpt lat="43.61241" lon="11.5705567"><ele>295.0</ele><time>2026-05-01T10:18:30.208Z</time></trkpt><trkpt lat="43.6124783" lon="11.5705033"><ele>295.0</ele><time>2026-05-01T10:18:31.208Z</time></trkpt><trkpt lat="43.6125367" lon="11.570435"><ele>295.0</ele><time>2026-05-01T10:18:32.209Z</time></trkpt><trkpt lat="43.612585" lon="11.5703617"><ele>295.0</ele><time>2026-05-01T10:18:33.207Z</time></trkpt><trkpt lat="43.61263" lon="11.5702833"><ele>295.0</ele><time>2026-05-01T10:18:34.207Z</time></trkpt><trkpt lat="43.6126783" lon="11.570195"><ele>295.0</ele><time>2026-05-01T10:18:35.207Z</time></trkpt><trkpt lat="43.6127233" lon="11.5701067"><ele>295.0</ele><time>2026-05-01T10:18:36.208Z</time></trkpt><trkpt lat="43.6127683" lon="11.5700167"><ele>295.0</ele><time>2026-05-01T10:18:37.208Z</time></trkpt><trkpt lat="43.6128217" lon="11.5699217"><ele>295.0</ele><time>2026-05-01T10:18:38.209Z</time></trkpt><trkpt lat="43.61288" lon="11.56983"><ele>295.0</ele><time>2026-05-01T10:18:39.209Z</time></trkpt><trkpt lat="43.612945" lon="11.5697433"><ele>295.0</ele><time>2026-05-01T10:18:40.206Z</time></trkpt><trkpt lat="43.6130167" lon="11.5696667"><ele>295.3333333333333</ele><time>2026-05-01T10:18:41.207Z</time></trkpt><trkpt lat="43.6130883" lon="11.5696067"><ele>295.66666666666663</ele><time>2026-05-01T10:18:42.207Z</time></trkpt><trkpt lat="43.6131583" lon="11.5695517"><ele>296.0</ele><time>2026-05-01T10:18:43.209Z</time></trkpt><trkpt lat="43.6132333" lon="11.5695"><ele>296.3333333333333</ele><time>2026-05-01T10:18:44.209Z</time></trkpt><trkpt lat="43.6133083" lon="11.569445"><ele>296.6666666666667</ele><time>2026-05-01T10:18:45.21Z</time></trkpt><trkpt lat="43.6133833" lon="11.569385"><ele>297.0</ele><time>2026-05-01T10:18:46.208Z</time></trkpt><trkpt lat="43.6134633" lon="11.5693267"><ele>297.0</ele><time>2026-05-01T10:18:47.208Z</time></trkpt><trkpt lat="43.6135367" lon="11.5692717"><ele>297.0</ele><time>2026-05-01T10:18:48.21Z</time></trkpt><trkpt lat="43.6136133" lon="11.5692167"><ele>297.0</ele><time>2026-05-01T10:18:49.208Z</time></trkpt><trkpt lat="43.61369" lon="11.5691633"><ele>297.0</ele><time>2026-05-01T10:18:50.208Z</time></trkpt><trkpt lat="43.6137667" lon="11.5691117"><ele>297.0</ele><time>2026-05-01T10:18:51.207Z</time></trkpt><trkpt lat="43.613845" lon="11.5690583"><ele>297.0</ele><time>2026-05-01T10:18:52.208Z</time></trkpt><trkpt lat="43.6139333" lon="11.5690017"><ele>297.4</ele><time>2026-05-01T10:18:53.208Z</time></trkpt><trkpt lat="43.6140167" lon="11.5689433"><ele>297.79999999999995</ele><time>2026-05-01T10:18:54.207Z</time></trkpt><trkpt lat="43.614105" lon="11.56889"><ele>298.2</ele><time>2026-05-01T10:18:55.209Z</time></trkpt><trkpt lat="43.61419" lon="11.568845"><ele>298.59999999999997</ele><time>2026-05-01T10:18:56.21Z</time></trkpt><trkpt lat="43.6142783" lon="11.56882"><ele>299.0</ele><time>2026-05-01T10:18:57.207Z</time></trkpt><trkpt lat="43.61437" lon="11.568815"><ele>299.0</ele><time>2026-05-01T10:18:58.207Z</time></trkpt><trkpt lat="43.6144667" lon="11.5688333"><ele>299.0</ele><time>2026-05-01T10:18:59.209Z</time></trkpt><trkpt lat="43.6145517" lon="11.568885"><ele>299.0</ele><time>2026-05-01T10:19:00.209Z</time></trkpt><trkpt lat="43.6146217" lon="11.5689767"><ele>299.0</ele><time>2026-05-01T10:19:01.207Z</time></trkpt><trkpt lat="43.6146733" lon="11.5690817"><ele>299.0</ele><time>2026-05-01T10:19:02.207Z</time></trkpt><trkpt lat="43.6147183" lon="11.5691867"><ele>298.5</ele><time>2026-05-01T10:19:03.207Z</time></trkpt><trkpt lat="43.614765" lon="11.5692667"><ele>298.0</ele><time>2026-05-01T10:19:04.208Z</time></trkpt><trkpt lat="43.6148267" lon="11.5693233"><ele>297.5</ele><time>2026-05-01T10:19:05.208Z</time></trkpt><trkpt lat="43.6149017" lon="11.56935"><ele>297.0</ele><time>2026-05-01T10:19:06.208Z</time></trkpt><trkpt lat="43.6149833" lon="11.5692933"><ele>296.5</ele><time>2026-05-01T10:19:07.21Z</time></trkpt><trkpt lat="43.6150517" lon="11.5692067"><ele>296.0</ele><time>2026-05-01T10:19:08.209Z</time></trkpt><trkpt lat="43.61509" lon="11.5690933"><ele>296.0</ele><time>2026-05-01T10:19:09.208Z</time></trkpt><trkpt lat="43.6151067" lon="11.568965"><ele>296.0</ele><time>2026-05-01T10:19:10.209Z</time></trkpt><trkpt lat="43.6151183" lon="11.5688367"><ele>296.0</ele><time>2026-05-01T10:19:11.207Z</time></trkpt><trkpt lat="43.61513" lon="11.5687067"><ele>296.0</ele><time>2026-05-01T10:19:12.208Z</time></trkpt><trkpt lat="43.6151383" lon="11.5685833"><ele>296.0</ele><time>2026-05-01T10:19:13.209Z</time></trkpt><trkpt lat="43.615145" lon="11.56846"><ele>295.8</ele><time>2026-05-01T10:19:14.209Z</time></trkpt><trkpt lat="43.6151517" lon="11.5683333"><ele>295.6</ele><time>2026-05-01T10:19:15.208Z</time></trkpt><trkpt lat="43.6151517" lon="11.568215"><ele>295.4</ele><time>2026-05-01T10:19:16.207Z</time></trkpt><trkpt lat="43.6151517" lon="11.5680883"><ele>295.2</ele><time>2026-05-01T10:19:17.208Z</time></trkpt><trkpt lat="43.61515" lon="11.5679633"><ele>295.0</ele><time>2026-05-01T10:19:18.209Z</time></trkpt><trkpt lat="43.6151467" lon="11.567835"><ele>293.8</ele><time>2026-05-01T10:19:19.207Z</time></trkpt><trkpt lat="43.6151483" lon="11.567705"><ele>292.6</ele><time>2026-05-01T10:19:20.209Z</time></trkpt><trkpt lat="43.61516" lon="11.5675717"><ele>291.4</ele><time>2026-05-01T10:19:21.208Z</time></trkpt><trkpt lat="43.6151783" lon="11.5674467"><ele>290.2</ele><time>2026-05-01T10:19:22.207Z</time></trkpt><trkpt lat="43.6152033" lon="11.5673233"><ele>289.0</ele><time>2026-05-01T10:19:23.208Z</time></trkpt><trkpt lat="43.615235" lon="11.5671967"><ele>289.0</ele><time>2026-05-01T10:19:24.207Z</time></trkpt><trkpt lat="43.6152667" lon="11.5670683"><ele>289.0</ele><time>2026-05-01T10:19:25.206Z</time></trkpt><trkpt lat="43.6153017" lon="11.56694"><ele>289.0</ele><time>2026-05-01T10:19:26.21Z</time></trkpt><trkpt lat="43.6153417" lon="11.5668017"><ele>289.0</ele><time>2026-05-01T10:19:27.207Z</time></trkpt><trkpt lat="43.6153783" lon="11.5666667"><ele>289.0</ele><time>2026-05-01T10:19:28.208Z</time></trkpt><trkpt lat="43.6154183" lon="11.5665283"><ele>287.8</ele><time>2026-05-01T10:19:29.207Z</time></trkpt><trkpt lat="43.61546" lon="11.5663917"><ele>286.59999999999997</ele><time>2026-05-01T10:19:30.208Z</time></trkpt><trkpt lat="43.615505" lon="11.566265"><ele>285.4</ele><time>2026-05-01T10:19:31.21Z</time></trkpt><trkpt lat="43.6155667" lon="11.5661367"><ele>284.2</ele><time>2026-05-01T10:19:32.209Z</time></trkpt><trkpt lat="43.61564" lon="11.5660283"><ele>283.0</ele><time>2026-05-01T10:19:33.207Z</time></trkpt><trkpt lat="43.61572" lon="11.5659417"><ele>283.0</ele><time>2026-05-01T10:19:34.209Z</time></trkpt><trkpt lat="43.6158133" lon="11.56587"><ele>283.0</ele><time>2026-05-01T10:19:35.207Z</time></trkpt><trkpt lat="43.61591" lon="11.5658217"><ele>283.0</ele><time>2026-05-01T10:19:36.209Z</time></trkpt><trkpt lat="43.6160133" lon="11.5657867"><ele>283.0</ele><time>2026-05-01T10:19:37.207Z</time></trkpt><trkpt lat="43.6161183" lon="11.5657617"><ele>283.0</ele><time>2026-05-01T10:19:38.21Z</time></trkpt><trkpt lat="43.6162233" lon="11.5657383"><ele>283.4</ele><time>2026-05-01T10:19:39.207Z</time></trkpt><trkpt lat="43.6163283" lon="11.5657217"><ele>283.8</ele><time>2026-05-01T10:19:40.208Z</time></trkpt><trkpt lat="43.6164367" lon="11.5657117"><ele>284.2</ele><time>2026-05-01T10:19:41.208Z</time></trkpt><trkpt lat="43.6165433" lon="11.5656983"><ele>284.6</ele><time>2026-05-01T10:19:42.21Z</time></trkpt><trkpt lat="43.6166533" lon="11.5656917"><ele>285.0</ele><time>2026-05-01T10:19:43.209Z</time></trkpt><trkpt lat="43.6167633" lon="11.5656783"><ele>285.0</ele><time>2026-05-01T10:19:44.208Z</time></trkpt><trkpt lat="43.61687" lon="11.5656467"><ele>285.0</ele><time>2026-05-01T10:19:45.207Z</time></trkpt><trkpt lat="43.61697" lon="11.5655867"><ele>285.0</ele><time>2026-05-01T10:19:46.207Z</time></trkpt><trkpt lat="43.6170517" lon="11.5654933"><ele>285.0</ele><time>2026-05-01T10:19:47.208Z</time></trkpt><trkpt lat="43.617115" lon="11.56538"><ele>285.0</ele><time>2026-05-01T10:19:48.207Z</time></trkpt><trkpt lat="43.61716" lon="11.5652617"><ele>285.4</ele><time>2026-05-01T10:19:49.207Z</time></trkpt><trkpt lat="43.617195" lon="11.56514"><ele>285.8</ele><time>2026-05-01T10:19:50.209Z</time></trkpt><trkpt lat="43.61722" lon="11.5650217"><ele>286.2</ele><time>2026-05-01T10:19:51.21Z</time></trkpt><trkpt lat="43.6172483" lon="11.5649"><ele>286.6</ele><time>2026-05-01T10:19:52.207Z</time></trkpt><trkpt lat="43.6172733" lon="11.5647833"><ele>287.0</ele><time>2026-05-01T10:19:53.207Z</time></trkpt><trkpt lat="43.6173033" lon="11.5646733"><ele>287.0</ele><time>2026-05-01T10:19:54.209Z</time></trkpt><trkpt lat="43.6173433" lon="11.56457"><ele>287.0</ele><time>2026-05-01T10:19:55.208Z</time></trkpt><trkpt lat="43.617395" lon="11.5644767"><ele>287.0</ele><time>2026-05-01T10:19:56.208Z</time></trkpt><trkpt lat="43.617455" lon="11.5643967"><ele>287.0</ele><time>2026-05-01T10:19:57.207Z</time></trkpt><trkpt lat="43.6175217" lon="11.5643183"><ele>287.0</ele><time>2026-05-01T10:19:58.21Z</time></trkpt><trkpt lat="43.6175933" lon="11.5642483"><ele>287.0</ele><time>2026-05-01T10:19:59.211Z</time></trkpt><trkpt lat="43.6176667" lon="11.5641833"><ele>286.4</ele><time>2026-05-01T10:20:00.207Z</time></trkpt><trkpt lat="43.6177483" lon="11.5641217"><ele>285.79999999999995</ele><time>2026-05-01T10:20:01.208Z</time></trkpt><trkpt lat="43.617835" lon="11.5640683"><ele>285.2</ele><time>2026-05-01T10:20:02.209Z</time></trkpt><trkpt lat="43.617925" lon="11.56403"><ele>284.59999999999997</ele><time>2026-05-01T10:20:03.208Z</time></trkpt><trkpt lat="43.6180233" lon="11.5640033"><ele>284.0</ele><time>2026-05-01T10:20:04.207Z</time></trkpt><trkpt lat="43.618125" lon="11.56399"><ele>284.0</ele><time>2026-05-01T10:20:05.207Z</time></trkpt><trkpt lat="43.6182283" lon="11.5639767"><ele>284.0</ele><time>2026-05-01T10:20:06.208Z</time></trkpt><trkpt lat="43.6183367" lon="11.5639583"><ele>284.0</ele><time>2026-05-01T10:20:07.208Z</time></trkpt><trkpt lat="43.6184417" lon="11.56392"><ele>284.0</ele><time>2026-05-01T10:20:08.208Z</time></trkpt><trkpt lat="43.6185383" lon="11.5638583"><ele>284.0</ele><time>2026-05-01T10:20:09.209Z</time></trkpt><trkpt lat="43.6186267" lon="11.5637767"><ele>282.59999999999997</ele><time>2026-05-01T10:20:10.207Z</time></trkpt><trkpt lat="43.6187083" lon="11.5636817"><ele>281.2</ele><time>2026-05-01T10:20:11.208Z</time></trkpt><trkpt lat="43.6187883" lon="11.5635833"><ele>279.79999999999995</ele><time>2026-05-01T10:20:12.208Z</time></trkpt><trkpt lat="43.6188733" lon="11.56349"><ele>278.4</ele><time>2026-05-01T10:20:13.208Z</time></trkpt><trkpt lat="43.6189633" lon="11.5634167"><ele>277.0</ele><time>2026-05-01T10:20:14.209Z</time></trkpt><trkpt lat="43.619065" lon="11.5633617"><ele>277.0</ele><time>2026-05-01T10:20:15.209Z</time></trkpt><trkpt lat="43.6191733" lon="11.56332"><ele>277.0</ele><time>2026-05-01T10:20:16.207Z</time></trkpt><trkpt lat="43.619285" lon="11.563285"><ele>277.0</ele><time>2026-05-01T10:20:17.209Z</time></trkpt><trkpt lat="43.6193933" lon="11.5632517"><ele>277.0</ele><time>2026-05-01T10:20:18.208Z</time></trkpt><trkpt lat="43.6195067" lon="11.56321"><ele>277.4</ele><time>2026-05-01T10:20:19.209Z</time></trkpt><trkpt lat="43.6196117" lon="11.5631633"><ele>277.79999999999995</ele><time>2026-05-01T10:20:20.209Z</time></trkpt><trkpt lat="43.6197083" lon="11.5631067"><ele>278.2</ele><time>2026-05-01T10:20:21.209Z</time></trkpt><trkpt lat="43.6197983" lon="11.5630367"><ele>278.59999999999997</ele><time>2026-05-01T10:20:22.21Z</time></trkpt><trkpt lat="43.61988" lon="11.56295"><ele>279.0</ele><time>2026-05-01T10:20:23.208Z</time></trkpt><trkpt lat="43.61995" lon="11.56285"><ele>279.0</ele><time>2026-05-01T10:20:24.207Z</time></trkpt><trkpt lat="43.6200117" lon="11.5627433"><ele>279.0</ele><time>2026-05-01T10:20:25.21Z</time></trkpt><trkpt lat="43.6200683" lon="11.5626333"><ele>279.0</ele><time>2026-05-01T10:20:26.209Z</time></trkpt><trkpt lat="43.6201183" lon="11.562525"><ele>279.0</ele><time>2026-05-01T10:20:27.209Z</time></trkpt><trkpt lat="43.620165" lon="11.56242"><ele>279.0</ele><time>2026-05-01T10:20:28.207Z</time></trkpt><trkpt lat="43.6202067" lon="11.562325"><ele>279.0</ele><time>2026-05-01T10:20:29.208Z</time></trkpt><trkpt lat="43.6202483" lon="11.5622283"><ele>279.0</ele><time>2026-05-01T10:20:30.208Z</time></trkpt><trkpt lat="43.62029" lon="11.5621283"><ele>279.0</ele><time>2026-05-01T10:20:31.209Z</time></trkpt><trkpt lat="43.6203317" lon="11.5620317"><ele>279.0</ele><time>2026-05-01T10:20:32.209Z</time></trkpt><trkpt lat="43.6203733" lon="11.5619383"><ele>279.0</ele><time>2026-05-01T10:20:33.208Z</time></trkpt><trkpt lat="43.620415" lon="11.5618467"><ele>279.0</ele><time>2026-05-01T10:20:34.208Z</time></trkpt><trkpt lat="43.620455" lon="11.5617633"><ele>280.1428571428571</ele><time>2026-05-01T10:20:35.208Z</time></trkpt><trkpt lat="43.6204933" lon="11.56168"><ele>281.2857142857143</ele><time>2026-05-01T10:20:36.208Z</time></trkpt><trkpt lat="43.6205317" lon="11.5615967"><ele>282.42857142857144</ele><time>2026-05-01T10:20:37.208Z</time></trkpt><trkpt lat="43.6205667" lon="11.561505"><ele>283.57142857142856</ele><time>2026-05-01T10:20:38.211Z</time></trkpt><trkpt lat="43.6206017" lon="11.5614217"><ele>284.7142857142857</ele><time>2026-05-01T10:20:39.209Z</time></trkpt><trkpt lat="43.6206383" lon="11.5613417"><ele>285.85714285714283</ele><time>2026-05-01T10:20:40.208Z</time></trkpt><trkpt lat="43.620675" lon="11.5612567"><ele>287.0</ele><time>2026-05-01T10:20:41.208Z</time></trkpt><trkpt lat="43.6207133" lon="11.561175"><ele>287.0</ele><time>2026-05-01T10:20:42.21Z</time></trkpt><trkpt lat="43.62075" lon="11.56109"><ele>287.0</ele><time>2026-05-01T10:20:43.209Z</time></trkpt><trkpt lat="43.6207867" lon="11.561005"><ele>287.0</ele><time>2026-05-01T10:20:44.209Z</time></trkpt><trkpt lat="43.620825" lon="11.56093"><ele>287.0</ele><time>2026-05-01T10:20:45.208Z</time></trkpt><trkpt lat="43.62086" lon="11.560855"><ele>287.0</ele><time>2026-05-01T10:20:46.207Z</time></trkpt><trkpt lat="43.6208967" lon="11.5607767"><ele>287.0</ele><time>2026-05-01T10:20:47.208Z</time></trkpt><trkpt lat="43.620935" lon="11.560695"><ele>287.0</ele><time>2026-05-01T10:20:48.211Z</time></trkpt><trkpt lat="43.6209717" lon="11.5606167"><ele>287.0</ele><time>2026-05-01T10:20:49.21Z</time></trkpt><trkpt lat="43.6210083" lon="11.5605367"><ele>287.0</ele><time>2026-05-01T10:20:50.208Z</time></trkpt><trkpt lat="43.6210467" lon="11.5604583"><ele>287.0</ele><time>2026-05-01T10:20:51.208Z</time></trkpt><trkpt lat="43.6210883" lon="11.5603817"><ele>287.0</ele><time>2026-05-01T10:20:52.209Z</time></trkpt><trkpt lat="43.62113" lon="11.5603067"><ele>287.0</ele><time>2026-05-01T10:20:53.208Z</time></trkpt><trkpt lat="43.62117" lon="11.5602367"><ele>287.0</ele><time>2026-05-01T10:20:54.208Z</time></trkpt><trkpt lat="43.6212117" lon="11.5601667"><ele>287.0</ele><time>2026-05-01T10:20:55.208Z</time></trkpt><trkpt lat="43.6212517" lon="11.560095"><ele>287.0</ele><time>2026-05-01T10:20:56.209Z</time></trkpt><trkpt lat="43.6212967" lon="11.5600217"><ele>287.0</ele><time>2026-05-01T10:20:57.209Z</time></trkpt><trkpt lat="43.62134" lon="11.5599433"><ele>287.0</ele><time>2026-05-01T10:20:58.208Z</time></trkpt><trkpt lat="43.6213817" lon="11.5598733"><ele>287.0</ele><time>2026-05-01T10:20:59.208Z</time></trkpt><trkpt lat="43.6214267" lon="11.559805"><ele>287.0</ele><time>2026-05-01T10:21:00.208Z</time></trkpt><trkpt lat="43.6215217" lon="11.5596883"><ele>287.0</ele><time>2026-05-01T10:21:02.208Z</time></trkpt><trkpt lat="43.6215733" lon="11.559635"><ele>287.0</ele><time>2026-05-01T10:21:03.208Z</time></trkpt><trkpt lat="43.6216283" lon="11.5595867"><ele>287.0</ele><time>2026-05-01T10:21:04.209Z</time></trkpt><trkpt lat="43.621685" lon="11.559545"><ele>287.0</ele><time>2026-05-01T10:21:05.21Z</time></trkpt><trkpt lat="43.6217433" lon="11.55951"><ele>287.0</ele><time>2026-05-01T10:21:06.21Z</time></trkpt><trkpt lat="43.6218033" lon="11.5594833"><ele>287.0</ele><time>2026-05-01T10:21:07.208Z</time></trkpt><trkpt lat="43.62187" lon="11.5594567"><ele>287.0</ele><time>2026-05-01T10:21:08.209Z</time></trkpt><trkpt lat="43.6219367" lon="11.5594333"><ele>287.0</ele><time>2026-05-01T10:21:09.209Z</time></trkpt><trkpt lat="43.622" lon="11.559415"><ele>286.83333333333337</ele><time>2026-05-01T10:21:10.207Z</time></trkpt><trkpt lat="43.622125" lon="11.559385"><ele>286.6666666666667</ele><time>2026-05-01T10:21:12.208Z</time></trkpt><trkpt lat="43.6221883" lon="11.5593817"><ele>286.5</ele><time>2026-05-01T10:21:13.208Z</time></trkpt><trkpt lat="43.6222533" lon="11.5593933"><ele>286.3333333333333</ele><time>2026-05-01T10:21:14.208Z</time></trkpt><trkpt lat="43.622315" lon="11.5594117"><ele>286.16666666666663</ele><time>2026-05-01T10:21:15.208Z</time></trkpt><trkpt lat="43.6224367" lon="11.559465"><ele>286.0</ele><time>2026-05-01T10:21:17.208Z</time></trkpt><trkpt lat="43.622495" lon="11.5595033"><ele>285.66666666666663</ele><time>2026-05-01T10:21:18.209Z</time></trkpt><trkpt lat="43.6225483" lon="11.5595517"><ele>285.3333333333333</ele><time>2026-05-01T10:21:19.208Z</time></trkpt><trkpt lat="43.6226483" lon="11.5596567"><ele>285.0</ele><time>2026-05-01T10:21:21.208Z</time></trkpt><trkpt lat="43.6227" lon="11.5597133"><ele>284.6666666666667</ele><time>2026-05-01T10:21:22.207Z</time></trkpt><trkpt lat="43.6227467" lon="11.5597717"><ele>284.33333333333337</ele><time>2026-05-01T10:21:23.207Z</time></trkpt><trkpt lat="43.6227933" lon="11.5598383"><ele>284.0</ele><time>2026-05-01T10:21:24.208Z</time></trkpt><trkpt lat="43.6228717" lon="11.55997"><ele>284.0</ele><time>2026-05-01T10:21:26.21Z</time></trkpt><trkpt lat="43.62294" lon="11.5601183"><ele>284.0</ele><time>2026-05-01T10:21:28.208Z</time></trkpt><trkpt lat="43.6230017" lon="11.5602667"><ele>284.0</ele><time>2026-05-01T10:21:30.209Z</time></trkpt><trkpt lat="43.6230333" lon="11.5603467"><ele>284.0</ele><time>2026-05-01T10:21:31.208Z</time></trkpt><trkpt lat="43.6230617" lon="11.5604283"><ele>284.0</ele><time>2026-05-01T10:21:32.208Z</time></trkpt><trkpt lat="43.6231167" lon="11.5605817"><ele>286.2</ele><time>2026-05-01T10:21:34.207Z</time></trkpt><trkpt lat="43.6231733" lon="11.56073"><ele>288.4</ele><time>2026-05-01T10:21:36.207Z</time></trkpt><trkpt lat="43.623225" lon="11.5608533"><ele>290.6</ele><time>2026-05-01T10:21:38.209Z</time></trkpt><trkpt lat="43.623285" lon="11.56096"><ele>292.8</ele><time>2026-05-01T10:21:40.209Z</time></trkpt><trkpt lat="43.62335" lon="11.5610717"><ele>295.0</ele><time>2026-05-01T10:21:42.21Z</time></trkpt><trkpt lat="43.6234133" lon="11.5611767"><ele>295.4</ele><time>2026-05-01T10:21:44.209Z</time></trkpt><trkpt lat="43.623475" lon="11.5612867"><ele>295.8</ele><time>2026-05-01T10:21:46.21Z</time></trkpt><trkpt lat="43.6235417" lon="11.5613817"><ele>296.2</ele><time>2026-05-01T10:21:48.211Z</time></trkpt><trkpt lat="43.6236183" lon="11.5614933"><ele>296.6</ele><time>2026-05-01T10:21:50.209Z</time></trkpt><trkpt lat="43.6236933" lon="11.5616117"><ele>297.0</ele><time>2026-05-01T10:21:52.208Z</time></trkpt><trkpt lat="43.6237667" lon="11.5617117"><ele>297.0</ele><time>2026-05-01T10:21:54.209Z</time></trkpt><trkpt lat="43.6238467" lon="11.56181"><ele>297.0</ele><time>2026-05-01T10:21:56.209Z</time></trkpt><trkpt lat="43.62393" lon="11.5618917"><ele>297.0</ele><time>2026-05-01T10:21:58.209Z</time></trkpt><trkpt lat="43.6239833" lon="11.5619383"><ele>297.0</ele><time>2026-05-01T10:21:59.209Z</time></trkpt><trkpt lat="43.62409" lon="11.562"><ele>297.0</ele><time>2026-05-01T10:22:01.208Z</time></trkpt><trkpt lat="43.6241983" lon="11.562035"><ele>298.0</ele><time>2026-05-01T10:22:03.208Z</time></trkpt><trkpt lat="43.62431" lon="11.56207"><ele>299.0</ele><time>2026-05-01T10:22:05.209Z</time></trkpt><trkpt lat="43.6244283" lon="11.56211"><ele>300.0</ele><time>2026-05-01T10:22:07.209Z</time></trkpt><trkpt lat="43.6245483" lon="11.5621583"><ele>301.0</ele><time>2026-05-01T10:22:09.207Z</time></trkpt><trkpt lat="43.6246083" lon="11.5621917"><ele>302.0</ele><time>2026-05-01T10:22:10.207Z</time></trkpt><trkpt lat="43.6247167" lon="11.5622683"><ele>302.0</ele><time>2026-05-01T10:22:12.207Z</time></trkpt><trkpt lat="43.6248183" lon="11.5623667"><ele>302.0</ele><time>2026-05-01T10:22:14.21Z</time></trkpt><trkpt lat="43.62492" lon="11.562485"><ele>302.0</ele><time>2026-05-01T10:22:16.207Z</time></trkpt><trkpt lat="43.62497" lon="11.5625467"><ele>302.0</ele><time>2026-05-01T10:22:17.209Z</time></trkpt><trkpt lat="43.6250167" lon="11.56261"><ele>302.0</ele><time>2026-05-01T10:22:18.207Z</time></trkpt><trkpt lat="43.625065" lon="11.5626733"><ele>302.0</ele><time>2026-05-01T10:22:19.208Z</time></trkpt><trkpt lat="43.625115" lon="11.562735"><ele>302.0</ele><time>2026-05-01T10:22:20.207Z</time></trkpt><trkpt lat="43.6252083" lon="11.5628433"><ele>302.0</ele><time>2026-05-01T10:22:22.207Z</time></trkpt><trkpt lat="43.625265" lon="11.5628817"><ele>302.0</ele><time>2026-05-01T10:22:23.207Z</time></trkpt><trkpt lat="43.6253283" lon="11.5629017"><ele>302.0</ele><time>2026-05-01T10:22:24.207Z</time></trkpt><trkpt lat="43.6253983" lon="11.5629117"><ele>302.0</ele><time>2026-05-01T10:22:25.209Z</time></trkpt><trkpt lat="43.6254717" lon="11.56292"><ele>301.83333333333337</ele><time>2026-05-01T10:22:26.208Z</time></trkpt><trkpt lat="43.6255417" lon="11.56292"><ele>301.6666666666667</ele><time>2026-05-01T10:22:27.208Z</time></trkpt><trkpt lat="43.6256183" lon="11.5629167"><ele>301.5</ele><time>2026-05-01T10:22:28.207Z</time></trkpt><trkpt lat="43.6256933" lon="11.5629083"><ele>301.3333333333333</ele><time>2026-05-01T10:22:29.209Z</time></trkpt><trkpt lat="43.6257717" lon="11.5629017"><ele>301.16666666666663</ele><time>2026-05-01T10:22:30.207Z</time></trkpt><trkpt lat="43.6258467" lon="11.5628883"><ele>301.0</ele><time>2026-05-01T10:22:31.207Z</time></trkpt><trkpt lat="43.6259183" lon="11.5628583"><ele>300.85714285714283</ele><time>2026-05-01T10:22:32.209Z</time></trkpt><trkpt lat="43.6259783" lon="11.5628083"><ele>300.7142857142857</ele><time>2026-05-01T10:22:33.209Z</time></trkpt><trkpt lat="43.6260217" lon="11.5627317"><ele>300.57142857142856</ele><time>2026-05-01T10:22:34.206Z</time></trkpt><trkpt lat="43.6260433" lon="11.56264"><ele>300.42857142857144</ele><time>2026-05-01T10:22:35.209Z</time></trkpt><trkpt lat="43.6260483" lon="11.5625417"><ele>300.2857142857143</ele><time>2026-05-01T10:22:36.207Z</time></trkpt><trkpt lat="43.6260517" lon="11.5624367"><ele>300.1428571428571</ele><time>2026-05-01T10:22:37.207Z</time></trkpt><trkpt lat="43.6260517" lon="11.5623333"><ele>300.0</ele><time>2026-05-01T10:22:38.208Z</time></trkpt><trkpt lat="43.6260517" lon="11.5622283"><ele>299.99999999999994</ele><time>2026-05-01T10:22:39.208Z</time></trkpt><trkpt lat="43.6260583" lon="11.5621267"><ele>300.0</ele><time>2026-05-01T10:22:40.207Z</time></trkpt><trkpt lat="43.6260833" lon="11.5620283"><ele>300.0</ele><time>2026-05-01T10:22:41.207Z</time></trkpt><trkpt lat="43.6261267" lon="11.5619417"><ele>300.0</ele><time>2026-05-01T10:22:42.208Z</time></trkpt><trkpt lat="43.6261817" lon="11.5618733"><ele>300.0</ele><time>2026-05-01T10:22:43.208Z</time></trkpt><trkpt lat="43.626245" lon="11.5618283"><ele>299.99999999999994</ele><time>2026-05-01T10:22:44.207Z</time></trkpt><trkpt lat="43.6263167" lon="11.5617967"><ele>300.0</ele><time>2026-05-01T10:22:45.208Z</time></trkpt><trkpt lat="43.6263917" lon="11.5617783"><ele>301.1428571428571</ele><time>2026-05-01T10:22:46.207Z</time></trkpt><trkpt lat="43.62647" lon="11.5617567"><ele>302.2857142857143</ele><time>2026-05-01T10:22:47.207Z</time></trkpt><trkpt lat="43.62655" lon="11.5617367"><ele>303.42857142857144</ele><time>2026-05-01T10:22:48.207Z</time></trkpt><trkpt lat="43.626625" lon="11.56172"><ele>304.57142857142856</ele><time>2026-05-01T10:22:49.208Z</time></trkpt><trkpt lat="43.6266983" lon="11.5617083"><ele>305.7142857142857</ele><time>2026-05-01T10:22:50.207Z</time></trkpt><trkpt lat="43.626765" lon="11.5616983"><ele>306.85714285714283</ele><time>2026-05-01T10:22:51.21Z</time></trkpt><trkpt lat="43.62683" lon="11.56169"><ele>308.0</ele><time>2026-05-01T10:22:52.208Z</time></trkpt><trkpt lat="43.6268933" lon="11.5616817"><ele>308.4</ele><time>2026-05-01T10:22:53.208Z</time></trkpt><trkpt lat="43.6270067" lon="11.5616667"><ele>308.8</ele><time>2026-05-01T10:22:55.207Z</time></trkpt><trkpt lat="43.627105" lon="11.5616467"><ele>309.2</ele><time>2026-05-01T10:22:57.207Z</time></trkpt><trkpt lat="43.6272167" lon="11.561625"><ele>309.6</ele><time>2026-05-01T10:22:59.207Z</time></trkpt><trkpt lat="43.6273233" lon="11.5616017"><ele>310.0</ele><time>2026-05-01T10:23:01.207Z</time></trkpt><trkpt lat="43.627435" lon="11.5616133"><ele>310.0</ele><time>2026-05-01T10:23:03.209Z</time></trkpt><trkpt lat="43.627535" lon="11.5616617"><ele>310.0</ele><time>2026-05-01T10:23:05.209Z</time></trkpt><trkpt lat="43.62764" lon="11.5617217"><ele>310.0</ele><time>2026-05-01T10:23:07.21Z</time></trkpt><trkpt lat="43.6277467" lon="11.56176"><ele>310.0</ele><time>2026-05-01T10:23:09.207Z</time></trkpt><trkpt lat="43.6278567" lon="11.56178"><ele>310.0</ele><time>2026-05-01T10:23:11.209Z</time></trkpt><trkpt lat="43.627965" lon="11.56173"><ele>310.75</ele><time>2026-05-01T10:23:13.208Z</time></trkpt><trkpt lat="43.6280583" lon="11.5616317"><ele>311.5</ele><time>2026-05-01T10:23:15.209Z</time></trkpt><trkpt lat="43.628135" lon="11.5615083"><ele>312.25</ele><time>2026-05-01T10:23:17.207Z</time></trkpt><trkpt lat="43.62821" lon="11.5613667"><ele>313.0</ele><time>2026-05-01T10:23:19.208Z</time></trkpt><trkpt lat="43.62829" lon="11.5612317"><ele>312.2857142857143</ele><time>2026-05-01T10:23:21.207Z</time></trkpt><trkpt lat="43.6283333" lon="11.5611667"><ele>311.57142857142856</ele><time>2026-05-01T10:23:22.206Z</time></trkpt><trkpt lat="43.6283817" lon="11.56111"><ele>310.8571428571429</ele><time>2026-05-01T10:23:23.207Z</time></trkpt><trkpt lat="43.6284383" lon="11.5610667"><ele>310.1428571428571</ele><time>2026-05-01T10:23:24.208Z</time></trkpt><trkpt lat="43.6285033" lon="11.5610433"><ele>309.42857142857144</ele><time>2026-05-01T10:23:25.209Z</time></trkpt><trkpt lat="43.62857" lon="11.561035"><ele>308.7142857142857</ele><time>2026-05-01T10:23:26.207Z</time></trkpt><trkpt lat="43.6286367" lon="11.5610533"><ele>308.0</ele><time>2026-05-01T10:23:27.208Z</time></trkpt><trkpt lat="43.6287033" lon="11.5610983"><ele>307.5</ele><time>2026-05-01T10:23:28.207Z</time></trkpt><trkpt lat="43.6287617" lon="11.5611667"><ele>307.0</ele><time>2026-05-01T10:23:29.208Z</time></trkpt><trkpt lat="43.628815" lon="11.56125"><ele>306.5</ele><time>2026-05-01T10:23:30.207Z</time></trkpt><trkpt lat="43.6288633" lon="11.5613467"><ele>306.0</ele><time>2026-05-01T10:23:31.207Z</time></trkpt><trkpt lat="43.6289067" lon="11.5614483"><ele>305.5</ele><time>2026-05-01T10:23:32.207Z</time></trkpt><trkpt lat="43.6289483" lon="11.5615517"><ele>305.0</ele><time>2026-05-01T10:23:33.207Z</time></trkpt><trkpt lat="43.62899" lon="11.5616567"><ele>305.0</ele><time>2026-05-01T10:23:34.207Z</time></trkpt><trkpt lat="43.6290333" lon="11.5617633"><ele>305.0</ele><time>2026-05-01T10:23:35.208Z</time></trkpt><trkpt lat="43.6290767" lon="11.561875"><ele>305.0</ele><time>2026-05-01T10:23:36.207Z</time></trkpt><trkpt lat="43.629115" lon="11.561985"><ele>305.0</ele><time>2026-05-01T10:23:37.207Z</time></trkpt><trkpt lat="43.6291517" lon="11.562095"><ele>305.0</ele><time>2026-05-01T10:23:38.208Z</time></trkpt><trkpt lat="43.629185" lon="11.5622083"><ele>305.0</ele><time>2026-05-01T10:23:39.208Z</time></trkpt><trkpt lat="43.6292183" lon="11.562325"><ele>306.2</ele><time>2026-05-01T10:23:40.207Z</time></trkpt><trkpt lat="43.62925" lon="11.5624417"><ele>307.4</ele><time>2026-05-01T10:23:41.207Z</time></trkpt><trkpt lat="43.62928" lon="11.5625617"><ele>308.6</ele><time>2026-05-01T10:23:42.207Z</time></trkpt><trkpt lat="43.6293" lon="11.5626833"><ele>309.8</ele><time>2026-05-01T10:23:43.209Z</time></trkpt><trkpt lat="43.6293067" lon="11.5628067"><ele>311.0</ele><time>2026-05-01T10:23:44.209Z</time></trkpt><trkpt lat="43.629305" lon="11.5629333"><ele>312.0</ele><time>2026-05-01T10:23:45.209Z</time></trkpt><trkpt lat="43.6293067" lon="11.5630617"><ele>313.0</ele><time>2026-05-01T10:23:46.208Z</time></trkpt><trkpt lat="43.6293183" lon="11.5631817"><ele>314.0</ele><time>2026-05-01T10:23:47.21Z</time></trkpt><trkpt lat="43.629345" lon="11.5632983"><ele>315.0</ele><time>2026-05-01T10:23:48.21Z</time></trkpt><trkpt lat="43.629385" lon="11.5634017"><ele>316.0</ele><time>2026-05-01T10:23:49.207Z</time></trkpt><trkpt lat="43.6294417" lon="11.5634917"><ele>317.0</ele><time>2026-05-01T10:23:50.207Z</time></trkpt><trkpt lat="43.6295083" lon="11.56355"><ele>317.0</ele><time>2026-05-01T10:23:51.209Z</time></trkpt><trkpt lat="43.6295833" lon="11.5635833"><ele>317.0</ele><time>2026-05-01T10:23:52.208Z</time></trkpt><trkpt lat="43.6296583" lon="11.5635833"><ele>317.0</ele><time>2026-05-01T10:23:53.207Z</time></trkpt><trkpt lat="43.629725" lon="11.563555"><ele>317.0</ele><time>2026-05-01T10:23:54.207Z</time></trkpt><trkpt lat="43.6297717" lon="11.563465"><ele>317.0</ele><time>2026-05-01T10:23:55.208Z</time></trkpt><trkpt lat="43.629805" lon="11.56337"><ele>317.0</ele><time>2026-05-01T10:23:56.208Z</time></trkpt><trkpt lat="43.6298267" lon="11.5632533"><ele>317.0</ele><time>2026-05-01T10:23:57.208Z</time></trkpt><trkpt lat="43.629845" lon="11.5631333"><ele>317.0</ele><time>2026-05-01T10:23:58.207Z</time></trkpt><trkpt lat="43.6298633" lon="11.56301"><ele>317.0</ele><time>2026-05-01T10:23:59.209Z</time></trkpt><trkpt lat="43.629885" lon="11.5628783"><ele>317.0</ele><time>2026-05-01T10:24:00.207Z</time></trkpt><trkpt lat="43.6299067" lon="11.5627467"><ele>317.0</ele><time>2026-05-01T10:24:01.207Z</time></trkpt><trkpt lat="43.62993" lon="11.5626117"><ele>316.0</ele><time>2026-05-01T10:24:02.208Z</time></trkpt><trkpt lat="43.6299583" lon="11.5624783"><ele>315.0</ele><time>2026-05-01T10:24:03.211Z</time></trkpt><trkpt lat="43.629985" lon="11.5623433"><ele>314.0</ele><time>2026-05-01T10:24:04.208Z</time></trkpt><trkpt lat="43.6300117" lon="11.5622083"><ele>313.0</ele><time>2026-05-01T10:24:05.207Z</time></trkpt><trkpt lat="43.63004" lon="11.562075"><ele>312.0</ele><time>2026-05-01T10:24:06.209Z</time></trkpt><trkpt lat="43.630065" lon="11.5619383"><ele>309.8</ele><time>2026-05-01T10:24:07.209Z</time></trkpt><trkpt lat="43.6300933" lon="11.5618017"><ele>307.6</ele><time>2026-05-01T10:24:08.207Z</time></trkpt><trkpt lat="43.6301233" lon="11.5616617"><ele>305.40000000000003</ele><time>2026-05-01T10:24:09.207Z</time></trkpt><trkpt lat="43.6301533" lon="11.5615217"><ele>303.2</ele><time>2026-05-01T10:24:10.207Z</time></trkpt><trkpt lat="43.630185" lon="11.5613833"><ele>301.0</ele><time>2026-05-01T10:24:11.206Z</time></trkpt><trkpt lat="43.6302167" lon="11.56125"><ele>299.6</ele><time>2026-05-01T10:24:12.209Z</time></trkpt><trkpt lat="43.630255" lon="11.561115"><ele>298.20000000000005</ele><time>2026-05-01T10:24:13.207Z</time></trkpt><trkpt lat="43.6303017" lon="11.5609817"><ele>296.79999999999995</ele><time>2026-05-01T10:24:14.209Z</time></trkpt><trkpt lat="43.63035" lon="11.5608533"><ele>295.4</ele><time>2026-05-01T10:24:15.207Z</time></trkpt><trkpt lat="43.630405" lon="11.5607233"><ele>294.0</ele><time>2026-05-01T10:24:16.207Z</time></trkpt><trkpt lat="43.6304667" lon="11.5606083"><ele>294.8</ele><time>2026-05-01T10:24:17.208Z</time></trkpt><trkpt lat="43.6305383" lon="11.5605117"><ele>295.59999999999997</ele><time>2026-05-01T10:24:18.207Z</time></trkpt><trkpt lat="43.630625" lon="11.5604317"><ele>296.4</ele><time>2026-05-01T10:24:19.207Z</time></trkpt><trkpt lat="43.6307117" lon="11.560385"><ele>297.2</ele><time>2026-05-01T10:24:20.208Z</time></trkpt><trkpt lat="43.6308067" lon="11.5603533"><ele>298.0</ele><time>2026-05-01T10:24:21.208Z</time></trkpt><trkpt lat="43.6308967" lon="11.56032"><ele>298.0</ele><time>2026-05-01T10:24:22.209Z</time></trkpt><trkpt lat="43.6309733" lon="11.5602633"><ele>298.0</ele><time>2026-05-01T10:24:23.209Z</time></trkpt><trkpt lat="43.63104" lon="11.56018"><ele>298.0</ele><time>2026-05-01T10:24:24.207Z</time></trkpt><trkpt lat="43.6310783" lon="11.5600783"><ele>298.0</ele><time>2026-05-01T10:24:25.208Z</time></trkpt><trkpt lat="43.6311067" lon="11.559965"><ele>298.0</ele><time>2026-05-01T10:24:26.208Z</time></trkpt><trkpt lat="43.6311333" lon="11.5598517"><ele>298.0</ele><time>2026-05-01T10:24:27.209Z</time></trkpt><trkpt lat="43.63117" lon="11.5597417"><ele>300.0</ele><time>2026-05-01T10:24:28.207Z</time></trkpt><trkpt lat="43.6312133" lon="11.5596383"><ele>302.0</ele><time>2026-05-01T10:24:29.207Z</time></trkpt><trkpt lat="43.63127" lon="11.5595383"><ele>304.0</ele><time>2026-05-01T10:24:30.208Z</time></trkpt><trkpt lat="43.631335" lon="11.5594483"><ele>306.0</ele><time>2026-05-01T10:24:31.207Z</time></trkpt><trkpt lat="43.6314067" lon="11.559365"><ele>308.0</ele><time>2026-05-01T10:24:32.208Z</time></trkpt><trkpt lat="43.6314783" lon="11.5592817"><ele>308.0</ele><time>2026-05-01T10:24:33.209Z</time></trkpt><trkpt lat="43.6315533" lon="11.5591933"><ele>308.0</ele><time>2026-05-01T10:24:34.21Z</time></trkpt><trkpt lat="43.6316233" lon="11.55911"><ele>308.0</ele><time>2026-05-01T10:24:35.207Z</time></trkpt><trkpt lat="43.631695" lon="11.5590283"><ele>308.0</ele><time>2026-05-01T10:24:36.208Z</time></trkpt><trkpt lat="43.6317633" lon="11.55895"><ele>308.0</ele><time>2026-05-01T10:24:37.209Z</time></trkpt><trkpt lat="43.6318283" lon="11.5588717"><ele>308.0</ele><time>2026-05-01T10:24:38.207Z</time></trkpt><trkpt lat="43.6318917" lon="11.5587933"><ele>308.0</ele><time>2026-05-01T10:24:39.207Z</time></trkpt><trkpt lat="43.6319567" lon="11.5587183"><ele>308.0</ele><time>2026-05-01T10:24:40.208Z</time></trkpt><trkpt lat="43.6320283" lon="11.5586533"><ele>308.0</ele><time>2026-05-01T10:24:41.208Z</time></trkpt><trkpt lat="43.6321083" lon="11.5586033"><ele>308.0</ele><time>2026-05-01T10:24:42.209Z</time></trkpt><trkpt lat="43.632195" lon="11.5585633"><ele>308.0</ele><time>2026-05-01T10:24:43.207Z</time></trkpt><trkpt lat="43.632275" lon="11.5585417"><ele>307.1666666666667</ele><time>2026-05-01T10:24:44.207Z</time></trkpt><trkpt lat="43.632355" lon="11.5585283"><ele>306.33333333333337</ele><time>2026-05-01T10:24:45.208Z</time></trkpt><trkpt lat="43.6324367" lon="11.55852"><ele>305.5</ele><time>2026-05-01T10:24:46.207Z</time></trkpt><trkpt lat="43.6325167" lon="11.558515"><ele>304.6666666666667</ele><time>2026-05-01T10:24:47.209Z</time></trkpt><trkpt lat="43.632595" lon="11.5585133"><ele>303.8333333333333</ele><time>2026-05-01T10:24:48.207Z</time></trkpt><trkpt lat="43.6326683" lon="11.558525"><ele>303.0</ele><time>2026-05-01T10:24:49.208Z</time></trkpt><trkpt lat="43.6327367" lon="11.558555"><ele>303.0</ele><time>2026-05-01T10:24:50.212Z</time></trkpt><trkpt lat="43.6327983" lon="11.5586033"><ele>303.0</ele><time>2026-05-01T10:24:51.208Z</time></trkpt><trkpt lat="43.6328483" lon="11.5586717"><ele>303.0</ele><time>2026-05-01T10:24:52.207Z</time></trkpt><trkpt lat="43.632895" lon="11.5587483"><ele>303.0</ele><time>2026-05-01T10:24:53.21Z</time></trkpt><trkpt lat="43.63294" lon="11.5588267"><ele>303.0</ele><time>2026-05-01T10:24:54.207Z</time></trkpt><trkpt lat="43.6329833" lon="11.5589067"><ele>303.0</ele><time>2026-05-01T10:24:55.207Z</time></trkpt><trkpt lat="43.6330267" lon="11.5589833"><ele>303.0</ele><time>2026-05-01T10:24:56.208Z</time></trkpt><trkpt lat="43.63307" lon="11.55906"><ele>304.0</ele><time>2026-05-01T10:24:57.209Z</time></trkpt><trkpt lat="43.6331133" lon="11.5591367"><ele>305.0</ele><time>2026-05-01T10:24:58.209Z</time></trkpt><trkpt lat="43.6331567" lon="11.5592067"><ele>306.0</ele><time>2026-05-01T10:24:59.207Z</time></trkpt><trkpt lat="43.6332" lon="11.55928"><ele>307.0</ele><time>2026-05-01T10:25:00.209Z</time></trkpt><trkpt lat="43.6332433" lon="11.5593533"><ele>308.0</ele><time>2026-05-01T10:25:01.209Z</time></trkpt><trkpt lat="43.633285" lon="11.5594233"><ele>309.0</ele><time>2026-05-01T10:25:02.209Z</time></trkpt><trkpt lat="43.6333717" lon="11.55956"><ele>309.5</ele><time>2026-05-01T10:25:04.207Z</time></trkpt><trkpt lat="43.6334133" lon="11.55964"><ele>310.0</ele><time>2026-05-01T10:25:05.208Z</time></trkpt><trkpt lat="43.6334583" lon="11.5597067"><ele>310.5</ele><time>2026-05-01T10:25:06.207Z</time></trkpt><trkpt lat="43.6335033" lon="11.55978"><ele>311.0</ele><time>2026-05-01T10:25:07.208Z</time></trkpt><trkpt lat="43.6335467" lon="11.5598517"><ele>311.5</ele><time>2026-05-01T10:25:08.207Z</time></trkpt><trkpt lat="43.6335883" lon="11.5599217"><ele>312.0</ele><time>2026-05-01T10:25:09.212Z</time></trkpt><trkpt lat="43.633665" lon="11.56006"><ele>312.0</ele><time>2026-05-01T10:25:11.207Z</time></trkpt><trkpt lat="43.6337467" lon="11.5601817"><ele>312.0</ele><time>2026-05-01T10:25:13.208Z</time></trkpt><trkpt lat="43.6338617" lon="11.5602583"><ele>312.0</ele><time>2026-05-01T10:25:15.208Z</time></trkpt><trkpt lat="43.6339283" lon="11.560295"><ele>312.0</ele><time>2026-05-01T10:25:16.209Z</time></trkpt><trkpt lat="43.634" lon="11.5602917"><ele>312.0</ele><time>2026-05-01T10:25:17.211Z</time></trkpt><trkpt lat="43.634065" lon="11.5602617"><ele>312.0</ele><time>2026-05-01T10:25:18.209Z</time></trkpt><trkpt lat="43.6341183" lon="11.5601983"><ele>312.0</ele><time>2026-05-01T10:25:19.208Z</time></trkpt><trkpt lat="43.6341667" lon="11.560125"><ele>312.0</ele><time>2026-05-01T10:25:20.208Z</time></trkpt><trkpt lat="43.63421" lon="11.5600483"><ele>312.0</ele><time>2026-05-01T10:25:21.208Z</time></trkpt><trkpt lat="43.6342467" lon="11.55997"><ele>312.0</ele><time>2026-05-01T10:25:22.209Z</time></trkpt><trkpt lat="43.6342833" lon="11.5598883"><ele>312.0</ele><time>2026-05-01T10:25:23.208Z</time></trkpt><trkpt lat="43.6343233" lon="11.5598017"><ele>312.0</ele><time>2026-05-01T10:25:24.208Z</time></trkpt><trkpt lat="43.6343617" lon="11.55972"><ele>312.0</ele><time>2026-05-01T10:25:25.209Z</time></trkpt><trkpt lat="43.6344017" lon="11.5596367"><ele>312.0</ele><time>2026-05-01T10:25:26.207Z</time></trkpt><trkpt lat="43.63444" lon="11.559555"><ele>312.0</ele><time>2026-05-01T10:25:27.208Z</time></trkpt><trkpt lat="43.6344783" lon="11.559475"><ele>312.0</ele><time>2026-05-01T10:25:28.207Z</time></trkpt><trkpt lat="43.6345183" lon="11.5593933"><ele>312.0</ele><time>2026-05-01T10:25:29.207Z</time></trkpt><trkpt lat="43.634555" lon="11.559315"><ele>312.0</ele><time>2026-05-01T10:25:30.207Z</time></trkpt><trkpt lat="43.6345883" lon="11.55924"><ele>312.0</ele><time>2026-05-01T10:25:31.207Z</time></trkpt><trkpt lat="43.6346233" lon="11.5591633"><ele>312.0</ele><time>2026-05-01T10:25:32.209Z</time></trkpt><trkpt lat="43.63466" lon="11.5590817"><ele>312.0</ele><time>2026-05-01T10:25:33.208Z</time></trkpt><trkpt lat="43.6346983" lon="11.559005"><ele>312.0</ele><time>2026-05-01T10:25:34.207Z</time></trkpt><trkpt lat="43.63474" lon="11.5589183"><ele>312.0</ele><time>2026-05-01T10:25:35.207Z</time></trkpt><trkpt lat="43.6347817" lon="11.5588317"><ele>312.0</ele><time>2026-05-01T10:25:36.208Z</time></trkpt><trkpt lat="43.63482" lon="11.5587483"><ele>312.0</ele><time>2026-05-01T10:25:37.207Z</time></trkpt><trkpt lat="43.6348583" lon="11.55867"><ele>312.0</ele><time>2026-05-01T10:25:38.209Z</time></trkpt><trkpt lat="43.6349" lon="11.5585917"><ele>312.0</ele><time>2026-05-01T10:25:39.207Z</time></trkpt><trkpt lat="43.6349417" lon="11.5585117"><ele>312.0</ele><time>2026-05-01T10:25:40.207Z</time></trkpt><trkpt lat="43.6349867" lon="11.55844"><ele>312.0</ele><time>2026-05-01T10:25:41.209Z</time></trkpt><trkpt lat="43.63504" lon="11.55838"><ele>312.0</ele><time>2026-05-01T10:25:42.209Z</time></trkpt><trkpt lat="43.6351067" lon="11.558335"><ele>312.0</ele><time>2026-05-01T10:25:43.208Z</time></trkpt><trkpt lat="43.63518" lon="11.558315"><ele>312.0</ele><time>2026-05-01T10:25:44.208Z</time></trkpt><trkpt lat="43.6352567" lon="11.558315"><ele>312.0</ele><time>2026-05-01T10:25:45.206Z</time></trkpt><trkpt lat="43.6353317" lon="11.55834"><ele>312.3333333333333</ele><time>2026-05-01T10:25:46.209Z</time></trkpt><trkpt lat="43.635405" lon="11.5583883"><ele>312.6666666666667</ele><time>2026-05-01T10:25:47.209Z</time></trkpt><trkpt lat="43.635475" lon="11.5584467"><ele>313.0</ele><time>2026-05-01T10:25:48.207Z</time></trkpt><trkpt lat="43.6355433" lon="11.5585117"><ele>313.33333333333337</ele><time>2026-05-01T10:25:49.208Z</time></trkpt><trkpt lat="43.6356083" lon="11.5585733"><ele>313.6666666666667</ele><time>2026-05-01T10:25:50.207Z</time></trkpt><trkpt lat="43.6356767" lon="11.55861"><ele>314.0</ele><time>2026-05-01T10:25:51.207Z</time></trkpt><trkpt lat="43.6357417" lon="11.5586167"><ele>314.0</ele><time>2026-05-01T10:25:52.21Z</time></trkpt><trkpt lat="43.635845" lon="11.55852"><ele>314.0</ele><time>2026-05-01T10:25:54.208Z</time></trkpt><trkpt lat="43.63587" lon="11.5583967"><ele>314.0</ele><time>2026-05-01T10:25:55.208Z</time></trkpt><trkpt lat="43.63588" lon="11.5582667"><ele>314.0</ele><time>2026-05-01T10:25:56.21Z</time></trkpt><trkpt lat="43.6358767" lon="11.558135"><ele>314.0</ele><time>2026-05-01T10:25:57.21Z</time></trkpt><trkpt lat="43.6358667" lon="11.5580083"><ele>314.0</ele><time>2026-05-01T10:25:58.208Z</time></trkpt><trkpt lat="43.6358667" lon="11.55788"><ele>314.0</ele><time>2026-05-01T10:25:59.208Z</time></trkpt><trkpt lat="43.6358883" lon="11.55776"><ele>314.0</ele><time>2026-05-01T10:26:00.208Z</time></trkpt><trkpt lat="43.6359317" lon="11.5576517"><ele>314.0</ele><time>2026-05-01T10:26:01.208Z</time></trkpt><trkpt lat="43.635995" lon="11.55756"><ele>314.0</ele><time>2026-05-01T10:26:02.209Z</time></trkpt><trkpt lat="43.6360717" lon="11.55747"><ele>314.4</ele><time>2026-05-01T10:26:03.207Z</time></trkpt><trkpt lat="43.6361533" lon="11.557375"><ele>314.79999999999995</ele><time>2026-05-01T10:26:04.207Z</time></trkpt><trkpt lat="43.6362333" lon="11.5572733"><ele>315.20000000000005</ele><time>2026-05-01T10:26:05.208Z</time></trkpt><trkpt lat="43.6363117" lon="11.5571717"><ele>315.6</ele><time>2026-05-01T10:26:06.208Z</time></trkpt><trkpt lat="43.6363867" lon="11.5570767"><ele>316.0</ele><time>2026-05-01T10:26:07.207Z</time></trkpt><trkpt lat="43.6364583" lon="11.5569833"><ele>314.6</ele><time>2026-05-01T10:26:08.208Z</time></trkpt><trkpt lat="43.636525" lon="11.556895"><ele>313.20000000000005</ele><time>2026-05-01T10:26:09.208Z</time></trkpt><trkpt lat="43.636595" lon="11.556805"><ele>311.79999999999995</ele><time>2026-05-01T10:26:10.207Z</time></trkpt><trkpt lat="43.6366683" lon="11.55672"><ele>310.4</ele><time>2026-05-01T10:26:11.208Z</time></trkpt><trkpt lat="43.636745" lon="11.5566333"><ele>309.0</ele><time>2026-05-01T10:26:12.207Z</time></trkpt><trkpt lat="43.63683" lon="11.5565567"><ele>309.0</ele><time>2026-05-01T10:26:13.207Z</time></trkpt><trkpt lat="43.6369167" lon="11.55651"><ele>309.0</ele><time>2026-05-01T10:26:14.208Z</time></trkpt><trkpt lat="43.6370067" lon="11.556495"><ele>309.0</ele><time>2026-05-01T10:26:15.207Z</time></trkpt><trkpt lat="43.6370983" lon="11.5565017"><ele>309.0</ele><time>2026-05-01T10:26:16.209Z</time></trkpt><trkpt lat="43.6371867" lon="11.5565317"><ele>309.0</ele><time>2026-05-01T10:26:17.21Z</time></trkpt><trkpt lat="43.637275" lon="11.5565767"><ele>309.5</ele><time>2026-05-01T10:26:18.208Z</time></trkpt><trkpt lat="43.6373567" lon="11.55662"><ele>310.0</ele><time>2026-05-01T10:26:19.208Z</time></trkpt><trkpt lat="43.637435" lon="11.5566667"><ele>310.5</ele><time>2026-05-01T10:26:20.21Z</time></trkpt><trkpt lat="43.6375117" lon="11.5567267"><ele>311.0</ele><time>2026-05-01T10:26:21.207Z</time></trkpt><trkpt lat="43.6375883" lon="11.5567867"><ele>311.5</ele><time>2026-05-01T10:26:22.208Z</time></trkpt><trkpt lat="43.637665" lon="11.5568567"><ele>312.0</ele><time>2026-05-01T10:26:23.208Z</time></trkpt><trkpt lat="43.6377383" lon="11.5569267"><ele>312.3333333333333</ele><time>2026-05-01T10:26:24.211Z</time></trkpt><trkpt lat="43.6378133" lon="11.556995"><ele>312.6666666666667</ele><time>2026-05-01T10:26:25.21Z</time></trkpt><trkpt lat="43.6378867" lon="11.55706"><ele>313.0</ele><time>2026-05-01T10:26:26.208Z</time></trkpt><trkpt lat="43.6379617" lon="11.5570983"><ele>313.33333333333337</ele><time>2026-05-01T10:26:27.207Z</time></trkpt><trkpt lat="43.6380383" lon="11.5571067"><ele>313.6666666666667</ele><time>2026-05-01T10:26:28.207Z</time></trkpt><trkpt lat="43.6381183" lon="11.55708"><ele>314.0</ele><time>2026-05-01T10:26:29.21Z</time></trkpt><trkpt lat="43.6381867" lon="11.55701"><ele>314.0</ele><time>2026-05-01T10:26:30.208Z</time></trkpt><trkpt lat="43.6382383" lon="11.556895"><ele>314.0</ele><time>2026-05-01T10:26:31.211Z</time></trkpt><trkpt lat="43.63826" lon="11.5567817"><ele>314.0</ele><time>2026-05-01T10:26:32.208Z</time></trkpt><trkpt lat="43.6382667" lon="11.5566667"><ele>314.0</ele><time>2026-05-01T10:26:33.209Z</time></trkpt><trkpt lat="43.6382633" lon="11.5565617"><ele>314.0</ele><time>2026-05-01T10:26:34.205Z</time></trkpt><trkpt lat="43.6382567" lon="11.5564667"><ele>314.0</ele><time>2026-05-01T10:26:35.209Z</time></trkpt><trkpt lat="43.6382533" lon="11.556375"><ele>314.0</ele><time>2026-05-01T10:26:36.21Z</time></trkpt><trkpt lat="43.638275" lon="11.5562233"><ele>314.0</ele><time>2026-05-01T10:26:38.208Z</time></trkpt><trkpt lat="43.638345" lon="11.5561033"><ele>314.0</ele><time>2026-05-01T10:26:40.207Z</time></trkpt><trkpt lat="43.638435" lon="11.55603"><ele>314.0</ele><time>2026-05-01T10:26:42.208Z</time></trkpt><trkpt lat="43.638535" lon="11.5559583"><ele>314.0</ele><time>2026-05-01T10:26:44.209Z</time></trkpt><trkpt lat="43.6386383" lon="11.555895"><ele>315.25</ele><time>2026-05-01T10:26:46.207Z</time></trkpt><trkpt lat="43.638755" lon="11.5558333"><ele>316.5</ele><time>2026-05-01T10:26:48.211Z</time></trkpt><trkpt lat="43.6388683" lon="11.5557883"><ele>317.75</ele><time>2026-05-01T10:26:50.209Z</time></trkpt><trkpt lat="43.6389733" lon="11.55575"><ele>319.0</ele><time>2026-05-01T10:26:52.207Z</time></trkpt><trkpt lat="43.639075" lon="11.555725"><ele>319.0</ele><time>2026-05-01T10:26:54.208Z</time></trkpt><trkpt lat="43.6391767" lon="11.5557167"><ele>319.0</ele><time>2026-05-01T10:26:56.207Z</time></trkpt><trkpt lat="43.6392783" lon="11.5557283"><ele>319.0</ele><time>2026-05-01T10:26:58.207Z</time></trkpt><trkpt lat="43.6393817" lon="11.5557467"><ele>319.0</ele><time>2026-05-01T10:27:00.209Z</time></trkpt><trkpt lat="43.639485" lon="11.555765"><ele>319.0</ele><time>2026-05-01T10:27:02.208Z</time></trkpt><trkpt lat="43.6395883" lon="11.5557833"><ele>320.0</ele><time>2026-05-01T10:27:04.208Z</time></trkpt><trkpt lat="43.6396933" lon="11.55581"><ele>321.0</ele><time>2026-05-01T10:27:06.207Z</time></trkpt><trkpt lat="43.6397967" lon="11.55584"><ele>322.0</ele><time>2026-05-01T10:27:08.21Z</time></trkpt><trkpt lat="43.6399" lon="11.5558667"><ele>323.0</ele><time>2026-05-01T10:27:10.209Z</time></trkpt><trkpt lat="43.6400017" lon="11.5558933"><ele>324.0</ele><time>2026-05-01T10:27:12.207Z</time></trkpt><trkpt lat="43.6401067" lon="11.5559267"><ele>324.0</ele><time>2026-05-01T10:27:14.209Z</time></trkpt><trkpt lat="43.640215" lon="11.5559633"><ele>324.0</ele><time>2026-05-01T10:27:16.208Z</time></trkpt><trkpt lat="43.6403167" lon="11.5559883"><ele>324.0</ele><time>2026-05-01T10:27:18.208Z</time></trkpt><trkpt lat="43.64042" lon="11.5560117"><ele>324.0</ele><time>2026-05-01T10:27:20.211Z</time></trkpt><trkpt lat="43.6405283" lon="11.55601"><ele>324.0</ele><time>2026-05-01T10:27:22.207Z</time></trkpt><trkpt lat="43.64062" lon="11.5559367"><ele>324.79999999999995</ele><time>2026-05-01T10:27:24.21Z</time></trkpt><trkpt lat="43.64067" lon="11.5558083"><ele>325.59999999999997</ele><time>2026-05-01T10:27:26.209Z</time></trkpt><trkpt lat="43.6406883" lon="11.55566"><ele>326.4</ele><time>2026-05-01T10:27:28.21Z</time></trkpt><trkpt lat="43.64069" lon="11.5555167"><ele>327.2</ele><time>2026-05-01T10:27:30.209Z</time></trkpt><trkpt lat="43.64068" lon="11.5553767"><ele>328.0</ele><time>2026-05-01T10:27:32.211Z</time></trkpt><trkpt lat="43.6406667" lon="11.5552417"><ele>328.4</ele><time>2026-05-01T10:27:34.208Z</time></trkpt><trkpt lat="43.6406533" lon="11.5551067"><ele>328.79999999999995</ele><time>2026-05-01T10:27:36.209Z</time></trkpt><trkpt lat="43.6406467" lon="11.5549767"><ele>329.2</ele><time>2026-05-01T10:27:38.21Z</time></trkpt><trkpt lat="43.6406633" lon="11.5548483"><ele>329.6</ele><time>2026-05-01T10:27:40.207Z</time></trkpt><trkpt lat="43.6407117" lon="11.5547283"><ele>330.0</ele><time>2026-05-01T10:27:42.208Z</time></trkpt><trkpt lat="43.6407933" lon="11.5546133"><ele>329.6</ele><time>2026-05-01T10:27:44.208Z</time></trkpt><trkpt lat="43.6409" lon="11.5545333"><ele>329.2</ele><time>2026-05-01T10:27:46.207Z</time></trkpt><trkpt lat="43.6410183" lon="11.554495"><ele>328.79999999999995</ele><time>2026-05-01T10:27:48.207Z</time></trkpt><trkpt lat="43.6411367" lon="11.5544467"><ele>328.4</ele><time>2026-05-01T10:27:50.207Z</time></trkpt><trkpt lat="43.6411917" lon="11.5544017"><ele>328.0</ele><time>2026-05-01T10:27:51.206Z</time></trkpt><trkpt lat="43.641235" lon="11.5543383"><ele>329.1428571428571</ele><time>2026-05-01T10:27:52.208Z</time></trkpt><trkpt lat="43.6412633" lon="11.55426"><ele>330.2857142857143</ele><time>2026-05-01T10:27:53.207Z</time></trkpt><trkpt lat="43.64127" lon="11.5541733"><ele>331.42857142857144</ele><time>2026-05-01T10:27:54.207Z</time></trkpt><trkpt lat="43.6412683" lon="11.5540817"><ele>332.57142857142856</ele><time>2026-05-01T10:27:55.208Z</time></trkpt><trkpt lat="43.641255" lon="11.5539933"><ele>333.7142857142857</ele><time>2026-05-01T10:27:56.209Z</time></trkpt><trkpt lat="43.6412367" lon="11.5539083"><ele>334.85714285714283</ele><time>2026-05-01T10:27:57.207Z</time></trkpt><trkpt lat="43.6412133" lon="11.5538233"><ele>336.0</ele><time>2026-05-01T10:27:58.207Z</time></trkpt><trkpt lat="43.6411933" lon="11.5537367"><ele>335.8333333333333</ele><time>2026-05-01T10:27:59.209Z</time></trkpt><trkpt lat="43.6411833" lon="11.5536433"><ele>335.6666666666667</ele><time>2026-05-01T10:28:00.206Z</time></trkpt><trkpt lat="43.64118" lon="11.5535533"><ele>335.5</ele><time>2026-05-01T10:28:01.206Z</time></trkpt><trkpt lat="43.6411867" lon="11.5534667"><ele>335.33333333333337</ele><time>2026-05-01T10:28:02.207Z</time></trkpt><trkpt lat="43.641205" lon="11.55338"><ele>335.1666666666667</ele><time>2026-05-01T10:28:03.209Z</time></trkpt><trkpt lat="43.6412733" lon="11.5532417"><ele>335.0</ele><time>2026-05-01T10:28:05.206Z</time></trkpt><trkpt lat="43.6413683" lon="11.5531467"><ele>335.0</ele><time>2026-05-01T10:28:07.208Z</time></trkpt><trkpt lat="43.641475" lon="11.55307"><ele>335.0</ele><time>2026-05-01T10:28:09.209Z</time></trkpt><trkpt lat="43.6415733" lon="11.5529983"><ele>335.0</ele><time>2026-05-01T10:28:11.21Z</time></trkpt><trkpt lat="43.64168" lon="11.552935"><ele>335.0</ele><time>2026-05-01T10:28:13.21Z</time></trkpt><trkpt lat="43.641795" lon="11.5529017"><ele>335.0</ele><time>2026-05-01T10:28:15.208Z</time></trkpt><trkpt lat="43.641905" lon="11.5529017"><ele>335.0</ele><time>2026-05-01T10:28:17.211Z</time></trkpt><trkpt lat="43.6420083" lon="11.55294"><ele>335.0</ele><time>2026-05-01T10:28:19.21Z</time></trkpt><trkpt lat="43.6421083" lon="11.5529717"><ele>335.0</ele><time>2026-05-01T10:28:21.209Z</time></trkpt><trkpt lat="43.6422117" lon="11.5529583"><ele>335.0</ele><time>2026-05-01T10:28:23.209Z</time></trkpt><trkpt lat="43.6423017" lon="11.5528717"><ele>335.8</ele><time>2026-05-01T10:28:25.208Z</time></trkpt><trkpt lat="43.6423467" lon="11.5527383"><ele>336.6</ele><time>2026-05-01T10:28:27.207Z</time></trkpt><trkpt lat="43.64237" lon="11.5525883"><ele>337.4</ele><time>2026-05-01T10:28:29.21Z</time></trkpt><trkpt lat="43.6423833" lon="11.5524383"><ele>338.2</ele><time>2026-05-01T10:28:31.206Z</time></trkpt><trkpt lat="43.6423883" lon="11.55229"><ele>339.0</ele><time>2026-05-01T10:28:33.208Z</time></trkpt><trkpt lat="43.6423967" lon="11.5521367"><ele>339.4</ele><time>2026-05-01T10:28:35.208Z</time></trkpt><trkpt lat="43.64241" lon="11.5519917"><ele>339.79999999999995</ele><time>2026-05-01T10:28:37.207Z</time></trkpt><trkpt lat="43.6424383" lon="11.5518483"><ele>340.20000000000005</ele><time>2026-05-01T10:28:39.209Z</time></trkpt><trkpt lat="43.6424917" lon="11.5517083"><ele>340.6</ele><time>2026-05-01T10:28:41.209Z</time></trkpt><trkpt lat="43.64255" lon="11.5515683"><ele>341.0</ele><time>2026-05-01T10:28:43.21Z</time></trkpt><trkpt lat="43.6426267" lon="11.5514417"><ele>341.0</ele><time>2026-05-01T10:28:45.205Z</time></trkpt><trkpt lat="43.6426933" lon="11.55133"><ele>341.0</ele><time>2026-05-01T10:28:47.206Z</time></trkpt><trkpt lat="43.6427633" lon="11.5512167"><ele>341.0</ele><time>2026-05-01T10:28:49.205Z</time></trkpt><trkpt lat="43.6428467" lon="11.551095"><ele>341.0</ele><time>2026-05-01T10:28:51.205Z</time></trkpt><trkpt lat="43.6428967" lon="11.551035"><ele>341.0</ele><time>2026-05-01T10:28:52.206Z</time></trkpt><trkpt lat="43.6429517" lon="11.5509733"><ele>341.1666666666667</ele><time>2026-05-01T10:28:53.208Z</time></trkpt><trkpt lat="43.6430433" lon="11.5508367"><ele>341.33333333333337</ele><time>2026-05-01T10:28:55.208Z</time></trkpt><trkpt lat="43.6430917" lon="11.5507583"><ele>341.5</ele><time>2026-05-01T10:28:56.209Z</time></trkpt><trkpt lat="43.6431367" lon="11.5506783"><ele>341.6666666666667</ele><time>2026-05-01T10:28:57.207Z</time></trkpt><trkpt lat="43.6431733" lon="11.550595"><ele>341.8333333333333</ele><time>2026-05-01T10:28:58.207Z</time></trkpt><trkpt lat="43.6432117" lon="11.5505083"><ele>342.0</ele><time>2026-05-01T10:28:59.209Z</time></trkpt><trkpt lat="43.6432467" lon="11.550425"><ele>341.99999999999994</ele><time>2026-05-01T10:29:00.207Z</time></trkpt><trkpt lat="43.64329" lon="11.5503317"><ele>342.0</ele><time>2026-05-01T10:29:01.208Z</time></trkpt><trkpt lat="43.6433217" lon="11.55024"><ele>342.0</ele><time>2026-05-01T10:29:02.208Z</time></trkpt><trkpt lat="43.64335" lon="11.5501483"><ele>342.0</ele><time>2026-05-01T10:29:03.207Z</time></trkpt><trkpt lat="43.6433767" lon="11.550055"><ele>342.0</ele><time>2026-05-01T10:29:04.207Z</time></trkpt><trkpt lat="43.6434" lon="11.5499667"><ele>341.99999999999994</ele><time>2026-05-01T10:29:05.207Z</time></trkpt><trkpt lat="43.6434217" lon="11.5498783"><ele>342.0</ele><time>2026-05-01T10:29:06.207Z</time></trkpt><trkpt lat="43.6434467" lon="11.5497967"><ele>342.0</ele><time>2026-05-01T10:29:07.209Z</time></trkpt><trkpt lat="43.6434867" lon="11.5496367"><ele>342.0</ele><time>2026-05-01T10:29:09.206Z</time></trkpt><trkpt lat="43.6435267" lon="11.5494783"><ele>342.0</ele><time>2026-05-01T10:29:11.208Z</time></trkpt><trkpt lat="43.6435717" lon="11.5493317"><ele>342.0</ele><time>2026-05-01T10:29:13.207Z</time></trkpt><trkpt lat="43.6436217" lon="11.5491567"><ele>343.0</ele><time>2026-05-01T10:29:15.207Z</time></trkpt><trkpt lat="43.6436733" lon="11.548985"><ele>344.0</ele><time>2026-05-01T10:29:17.208Z</time></trkpt><trkpt lat="43.6437017" lon="11.5488967"><ele>345.0</ele><time>2026-05-01T10:29:18.208Z</time></trkpt><trkpt lat="43.6437333" lon="11.5488183"><ele>346.0</ele><time>2026-05-01T10:29:19.208Z</time></trkpt><trkpt lat="43.6437717" lon="11.548745"><ele>347.0</ele><time>2026-05-01T10:29:20.208Z</time></trkpt><trkpt lat="43.643815" lon="11.5486733"><ele>348.0</ele><time>2026-05-01T10:29:21.207Z</time></trkpt><trkpt lat="43.643855" lon="11.5485983"><ele>348.0</ele><time>2026-05-01T10:29:22.208Z</time></trkpt><trkpt lat="43.6438967" lon="11.5485267"><ele>348.0</ele><time>2026-05-01T10:29:23.208Z</time></trkpt><trkpt lat="43.6439667" lon="11.5483933"><ele>348.0</ele><time>2026-05-01T10:29:25.207Z</time></trkpt><trkpt lat="43.644035" lon="11.5482633"><ele>348.0</ele><time>2026-05-01T10:29:27.209Z</time></trkpt><trkpt lat="43.6441067" lon="11.5481283"><ele>348.0</ele><time>2026-05-01T10:29:29.208Z</time></trkpt><trkpt lat="43.6441783" lon="11.5479933"><ele>348.0</ele><time>2026-05-01T10:29:31.207Z</time></trkpt><trkpt lat="43.6442233" lon="11.5479283"><ele>348.0</ele><time>2026-05-01T10:29:32.208Z</time></trkpt><trkpt lat="43.6443033" lon="11.5478083"><ele>348.0</ele><time>2026-05-01T10:29:34.208Z</time></trkpt><trkpt lat="43.6443967" lon="11.5477117"><ele>348.0</ele><time>2026-05-01T10:29:36.208Z</time></trkpt><trkpt lat="43.6445067" lon="11.5477133"><ele>348.0</ele><time>2026-05-01T10:29:38.207Z</time></trkpt><trkpt lat="43.6446133" lon="11.5477567"><ele>348.2</ele><time>2026-05-01T10:29:40.207Z</time></trkpt><trkpt lat="43.644705" lon="11.547825"><ele>348.4</ele><time>2026-05-01T10:29:42.209Z</time></trkpt><trkpt lat="43.6447833" lon="11.547905"><ele>348.59999999999997</ele><time>2026-05-01T10:29:44.207Z</time></trkpt><trkpt lat="43.6448883" lon="11.5479633"><ele>348.79999999999995</ele><time>2026-05-01T10:29:46.206Z</time></trkpt><trkpt lat="43.644965" lon="11.5480333"><ele>349.0</ele><time>2026-05-01T10:29:48.208Z</time></trkpt><trkpt lat="43.6450433" lon="11.5481117"><ele>349.0</ele><time>2026-05-01T10:29:50.208Z</time></trkpt><trkpt lat="43.64512" lon="11.5481983"><ele>349.0</ele><time>2026-05-01T10:29:52.205Z</time></trkpt><trkpt lat="43.6451983" lon="11.5482717"><ele>349.0</ele><time>2026-05-01T10:29:54.209Z</time></trkpt><trkpt lat="43.6452767" lon="11.5483483"><ele>349.0</ele><time>2026-05-01T10:29:56.208Z</time></trkpt><trkpt lat="43.6453617" lon="11.54843"><ele>349.0</ele><time>2026-05-01T10:29:58.209Z</time></trkpt><trkpt lat="43.6454417" lon="11.5485083"><ele>348.66666666666663</ele><time>2026-05-01T10:30:00.208Z</time></trkpt><trkpt lat="43.645505" lon="11.5485667"><ele>348.3333333333333</ele><time>2026-05-01T10:30:02.209Z</time></trkpt><trkpt lat="43.6455683" lon="11.5486267"><ele>348.0</ele><time>2026-05-01T10:30:04.207Z</time></trkpt><trkpt lat="43.64563" lon="11.54868"><ele>347.6666666666667</ele><time>2026-05-01T10:30:06.207Z</time></trkpt><trkpt lat="43.6456967" lon="11.548745"><ele>347.33333333333337</ele><time>2026-05-01T10:30:08.207Z</time></trkpt><trkpt lat="43.645765" lon="11.5488167"><ele>347.0</ele><time>2026-05-01T10:30:10.208Z</time></trkpt><trkpt lat="43.6458333" lon="11.5488917"><ele>348.0</ele><time>2026-05-01T10:30:12.207Z</time></trkpt><trkpt lat="43.6458983" lon="11.5489767"><ele>349.0</ele><time>2026-05-01T10:30:14.207Z</time></trkpt><trkpt lat="43.645965" lon="11.5490767"><ele>350.0</ele><time>2026-05-01T10:30:16.205Z</time></trkpt><trkpt lat="43.64601" lon="11.5491683"><ele>351.0</ele><time>2026-05-01T10:30:18.208Z</time></trkpt><trkpt lat="43.646035" lon="11.5492667"><ele>352.0</ele><time>2026-05-01T10:30:20.207Z</time></trkpt><trkpt lat="43.6460467" lon="11.5493833"><ele>353.0</ele><time>2026-05-01T10:30:22.207Z</time></trkpt><trkpt lat="43.6460617" lon="11.549495"><ele>352.0</ele><time>2026-05-01T10:30:24.208Z</time></trkpt><trkpt lat="43.64608" lon="11.549615"><ele>351.0</ele><time>2026-05-01T10:30:26.208Z</time></trkpt><trkpt lat="43.646095" lon="11.5497267"><ele>350.0</ele><time>2026-05-01T10:30:28.208Z</time></trkpt><trkpt lat="43.6461183" lon="11.5498333"><ele>349.0</ele><time>2026-05-01T10:30:30.207Z</time></trkpt><trkpt lat="43.64615" lon="11.5499367"><ele>348.0</ele><time>2026-05-01T10:30:32.208Z</time></trkpt><trkpt lat="43.64619" lon="11.5500267"><ele>347.0</ele><time>2026-05-01T10:30:34.208Z</time></trkpt><trkpt lat="43.64624" lon="11.5501117"><ele>347.0</ele><time>2026-05-01T10:30:36.208Z</time></trkpt><trkpt lat="43.64629" lon="11.5502083"><ele>347.0</ele><time>2026-05-01T10:30:38.208Z</time></trkpt><trkpt lat="43.64634" lon="11.5503033"><ele>347.0</ele><time>2026-05-01T10:30:40.207Z</time></trkpt><trkpt lat="43.6463917" lon="11.5503917"><ele>347.0</ele><time>2026-05-01T10:30:42.209Z</time></trkpt><trkpt lat="43.6464433" lon="11.550475"><ele>347.0</ele><time>2026-05-01T10:30:44.207Z</time></trkpt><trkpt lat="43.6464983" lon="11.5505533"><ele>347.0</ele><time>2026-05-01T10:30:46.206Z</time></trkpt><trkpt lat="43.646555" lon="11.5506383"><ele>349.6</ele><time>2026-05-01T10:30:48.208Z</time></trkpt><trkpt lat="43.64661" lon="11.5507317"><ele>352.20000000000005</ele><time>2026-05-01T10:30:50.209Z</time></trkpt><trkpt lat="43.6466683" lon="11.5508417"><ele>354.8</ele><time>2026-05-01T10:30:52.205Z</time></trkpt><trkpt lat="43.6467383" lon="11.55095"><ele>357.4</ele><time>2026-05-01T10:30:54.207Z</time></trkpt><trkpt lat="43.6468083" lon="11.5510533"><ele>360.0</ele><time>2026-05-01T10:30:56.208Z</time></trkpt><trkpt lat="43.6468667" lon="11.551175"><ele>359.2</ele><time>2026-05-01T10:30:58.208Z</time></trkpt><trkpt lat="43.6469283" lon="11.5512983"><ele>358.4</ele><time>2026-05-01T10:31:00.207Z</time></trkpt><trkpt lat="43.6469933" lon="11.5514167"><ele>357.6</ele><time>2026-05-01T10:31:02.21Z</time></trkpt><trkpt lat="43.6470617" lon="11.5515317"><ele>356.8</ele><time>2026-05-01T10:31:04.207Z</time></trkpt><trkpt lat="43.6471367" lon="11.5516567"><ele>356.0</ele><time>2026-05-01T10:31:06.206Z</time></trkpt><trkpt lat="43.647215" lon="11.5517717"><ele>356.0</ele><time>2026-05-01T10:31:08.208Z</time></trkpt><trkpt lat="43.6472967" lon="11.5518733"><ele>356.0</ele><time>2026-05-01T10:31:10.208Z</time></trkpt><trkpt lat="43.6474" lon="11.5519567"><ele>356.0</ele><time>2026-05-01T10:31:12.207Z</time></trkpt><trkpt lat="43.647465" lon="11.552"><ele>356.0</ele><time>2026-05-01T10:31:13.208Z</time></trkpt><trkpt lat="43.6475233" lon="11.5520533"><ele>356.0</ele><time>2026-05-01T10:31:14.211Z</time></trkpt><trkpt lat="43.647585" lon="11.5521167"><ele>356.0</ele><time>2026-05-01T10:31:15.209Z</time></trkpt><trkpt lat="43.6476533" lon="11.5521833"><ele>356.83333333333337</ele><time>2026-05-01T10:31:16.207Z</time></trkpt><trkpt lat="43.6477217" lon="11.5522583"><ele>357.6666666666667</ele><time>2026-05-01T10:31:17.207Z</time></trkpt><trkpt lat="43.6477867" lon="11.5523233"><ele>358.5</ele><time>2026-05-01T10:31:18.209Z</time></trkpt><trkpt lat="43.6478483" lon="11.5523933"><ele>359.3333333333333</ele><time>2026-05-01T10:31:19.209Z</time></trkpt><trkpt lat="43.6479067" lon="11.5524533"><ele>360.16666666666663</ele><time>2026-05-01T10:31:20.207Z</time></trkpt><trkpt lat="43.6479633" lon="11.5525117"><ele>361.0</ele><time>2026-05-01T10:31:21.208Z</time></trkpt><trkpt lat="43.6480183" lon="11.55257"><ele>361.0</ele><time>2026-05-01T10:31:22.207Z</time></trkpt><trkpt lat="43.648075" lon="11.5526233"><ele>361.0</ele><time>2026-05-01T10:31:23.209Z</time></trkpt><trkpt lat="43.6481317" lon="11.55268"><ele>361.0</ele><time>2026-05-01T10:31:24.209Z</time></trkpt><trkpt lat="43.6481867" lon="11.5527367"><ele>361.0</ele><time>2026-05-01T10:31:25.207Z</time></trkpt><trkpt lat="43.64825" lon="11.5528017"><ele>361.0</ele><time>2026-05-01T10:31:26.208Z</time></trkpt><trkpt lat="43.648305" lon="11.5528483"><ele>361.0</ele><time>2026-05-01T10:31:27.207Z</time></trkpt><trkpt lat="43.6483617" lon="11.5529017"><ele>361.0</ele><time>2026-05-01T10:31:28.207Z</time></trkpt><trkpt lat="43.6484733" lon="11.5529967"><ele>362.14285714285717</ele><time>2026-05-01T10:31:30.207Z</time></trkpt><trkpt lat="43.6485333" lon="11.55305"><ele>363.2857142857143</ele><time>2026-05-01T10:31:31.207Z</time></trkpt><trkpt lat="43.6485917" lon="11.5531"><ele>364.42857142857144</ele><time>2026-05-01T10:31:32.208Z</time></trkpt><trkpt lat="43.6486517" lon="11.5531533"><ele>365.57142857142856</ele><time>2026-05-01T10:31:33.208Z</time></trkpt><trkpt lat="43.6487133" lon="11.55321"><ele>366.71428571428567</ele><time>2026-05-01T10:31:34.209Z</time></trkpt><trkpt lat="43.6487733" lon="11.5532633"><ele>367.85714285714283</ele><time>2026-05-01T10:31:35.209Z</time></trkpt><trkpt lat="43.6488333" lon="11.5533183"><ele>369.0</ele><time>2026-05-01T10:31:36.21Z</time></trkpt><trkpt lat="43.6488933" lon="11.55337"><ele>369.0</ele><time>2026-05-01T10:31:37.207Z</time></trkpt><trkpt lat="43.64895" lon="11.55342"><ele>369.0</ele><time>2026-05-01T10:31:38.209Z</time></trkpt><trkpt lat="43.6490067" lon="11.553465"><ele>369.0</ele><time>2026-05-01T10:31:39.207Z</time></trkpt><trkpt lat="43.6490683" lon="11.553495"><ele>369.0</ele><time>2026-05-01T10:31:40.207Z</time></trkpt><trkpt lat="43.6491333" lon="11.55351"><ele>369.0</ele><time>2026-05-01T10:31:41.21Z</time></trkpt><trkpt lat="43.64921" lon="11.55352"><ele>369.0</ele><time>2026-05-01T10:31:42.208Z</time></trkpt><trkpt lat="43.649315" lon="11.5533933"><ele>369.0</ele><time>2026-05-01T10:31:44.207Z</time></trkpt><trkpt lat="43.649365" lon="11.5532983"><ele>369.0</ele><time>2026-05-01T10:31:45.207Z</time></trkpt><trkpt lat="43.6494083" lon="11.5531933"><ele>369.0</ele><time>2026-05-01T10:31:46.209Z</time></trkpt><trkpt lat="43.6494433" lon="11.55309"><ele>369.0</ele><time>2026-05-01T10:31:47.207Z</time></trkpt><trkpt lat="43.6494617" lon="11.5529883"><ele>369.0</ele><time>2026-05-01T10:31:48.207Z</time></trkpt><trkpt lat="43.649465" lon="11.552875"><ele>369.0</ele><time>2026-05-01T10:31:49.207Z</time></trkpt><trkpt lat="43.6494417" lon="11.552765"><ele>368.2857142857143</ele><time>2026-05-01T10:31:50.209Z</time></trkpt><trkpt lat="43.6494133" lon="11.5526617"><ele>367.57142857142856</ele><time>2026-05-01T10:31:51.208Z</time></trkpt><trkpt lat="43.64938" lon="11.5525667"><ele>366.8571428571429</ele><time>2026-05-01T10:31:52.207Z</time></trkpt><trkpt lat="43.649345" lon="11.552475"><ele>366.1428571428571</ele><time>2026-05-01T10:31:53.21Z</time></trkpt><trkpt lat="43.64931" lon="11.5523867"><ele>365.42857142857144</ele><time>2026-05-01T10:31:54.207Z</time></trkpt><trkpt lat="43.6492767" lon="11.5523017"><ele>364.7142857142857</ele><time>2026-05-01T10:31:55.208Z</time></trkpt><trkpt lat="43.6492417" lon="11.5522117"><ele>364.0</ele><time>2026-05-01T10:31:56.207Z</time></trkpt><trkpt lat="43.649205" lon="11.5521283"><ele>364.57142857142856</ele><time>2026-05-01T10:31:57.209Z</time></trkpt><trkpt lat="43.6491633" lon="11.5520383"><ele>365.1428571428571</ele><time>2026-05-01T10:31:58.209Z</time></trkpt><trkpt lat="43.6491183" lon="11.551955"><ele>365.7142857142857</ele><time>2026-05-01T10:31:59.207Z</time></trkpt><trkpt lat="43.649075" lon="11.5518733"><ele>366.2857142857143</ele><time>2026-05-01T10:32:00.207Z</time></trkpt><trkpt lat="43.649035" lon="11.5518"><ele>366.85714285714283</ele><time>2026-05-01T10:32:01.207Z</time></trkpt><trkpt lat="43.648995" lon="11.5517233"><ele>367.42857142857144</ele><time>2026-05-01T10:32:02.209Z</time></trkpt><trkpt lat="43.6489583" lon="11.5516433"><ele>368.0</ele><time>2026-05-01T10:32:03.208Z</time></trkpt><trkpt lat="43.6489233" lon="11.551565"><ele>368.0</ele><time>2026-05-01T10:32:04.208Z</time></trkpt><trkpt lat="43.6489017" lon="11.5514767"><ele>368.0</ele><time>2026-05-01T10:32:05.208Z</time></trkpt><trkpt lat="43.6488833" lon="11.5513833"><ele>368.0</ele><time>2026-05-01T10:32:06.211Z</time></trkpt><trkpt lat="43.6488717" lon="11.55129"><ele>368.0</ele><time>2026-05-01T10:32:07.208Z</time></trkpt><trkpt lat="43.6488633" lon="11.5512017"><ele>368.0</ele><time>2026-05-01T10:32:08.208Z</time></trkpt><trkpt lat="43.6488433" lon="11.5510483"><ele>368.0</ele><time>2026-05-01T10:32:10.207Z</time></trkpt><trkpt lat="43.6488183" lon="11.5508783"><ele>368.5714285714286</ele><time>2026-05-01T10:32:12.206Z</time></trkpt><trkpt lat="43.648805" lon="11.5507867"><ele>369.1428571428571</ele><time>2026-05-01T10:32:13.209Z</time></trkpt><trkpt lat="43.6487917" lon="11.5507"><ele>369.7142857142857</ele><time>2026-05-01T10:32:14.21Z</time></trkpt><trkpt lat="43.6487733" lon="11.550615"><ele>370.28571428571433</ele><time>2026-05-01T10:32:15.209Z</time></trkpt><trkpt lat="43.6487533" lon="11.55053"><ele>370.8571428571429</ele><time>2026-05-01T10:32:16.207Z</time></trkpt><trkpt lat="43.648735" lon="11.5504333"><ele>371.42857142857144</ele><time>2026-05-01T10:32:17.209Z</time></trkpt><trkpt lat="43.6487233" lon="11.5503383"><ele>372.0</ele><time>2026-05-01T10:32:18.211Z</time></trkpt><trkpt lat="43.64871" lon="11.55025"><ele>372.0</ele><time>2026-05-01T10:32:19.207Z</time></trkpt><trkpt lat="43.6486967" lon="11.5501633"><ele>372.0</ele><time>2026-05-01T10:32:20.209Z</time></trkpt><trkpt lat="43.648685" lon="11.550075"><ele>372.0</ele><time>2026-05-01T10:32:21.207Z</time></trkpt><trkpt lat="43.6486767" lon="11.5499067"><ele>372.0</ele><time>2026-05-01T10:32:23.207Z</time></trkpt><trkpt lat="43.6486817" lon="11.54974"><ele>372.0</ele><time>2026-05-01T10:32:25.207Z</time></trkpt><trkpt lat="43.64869" lon="11.5495733"><ele>371.8333333333333</ele><time>2026-05-01T10:32:27.209Z</time></trkpt><trkpt lat="43.6487017" lon="11.54941"><ele>371.6666666666667</ele><time>2026-05-01T10:32:29.209Z</time></trkpt><trkpt lat="43.6487083" lon="11.5493233"><ele>371.5</ele><time>2026-05-01T10:32:30.209Z</time></trkpt><trkpt lat="43.64872" lon="11.5492367"><ele>371.33333333333337</ele><time>2026-05-01T10:32:31.209Z</time></trkpt><trkpt lat="43.6487383" lon="11.5491533"><ele>371.1666666666667</ele><time>2026-05-01T10:32:32.207Z</time></trkpt><trkpt lat="43.6487617" lon="11.5490717"><ele>371.0</ele><time>2026-05-01T10:32:33.208Z</time></trkpt><trkpt lat="43.6488183" lon="11.54892"><ele>371.0</ele><time>2026-05-01T10:32:35.208Z</time></trkpt><trkpt lat="43.6488617" lon="11.5488483"><ele>371.0</ele><time>2026-05-01T10:32:36.207Z</time></trkpt><trkpt lat="43.6489117" lon="11.54879"><ele>371.0</ele><time>2026-05-01T10:32:37.207Z</time></trkpt><trkpt lat="43.6489683" lon="11.5487417"><ele>371.0</ele><time>2026-05-01T10:32:38.207Z</time></trkpt><trkpt lat="43.6490283" lon="11.5487067"><ele>371.0</ele><time>2026-05-01T10:32:39.209Z</time></trkpt><trkpt lat="43.6490933" lon="11.5486783"><ele>371.0</ele><time>2026-05-01T10:32:40.207Z</time></trkpt><trkpt lat="43.6491567" lon="11.5486683"><ele>371.0</ele><time>2026-05-01T10:32:41.208Z</time></trkpt><trkpt lat="43.6492217" lon="11.548675"><ele>371.0</ele><time>2026-05-01T10:32:42.21Z</time></trkpt><trkpt lat="43.6492867" lon="11.5486933"><ele>371.0</ele><time>2026-05-01T10:32:43.207Z</time></trkpt><trkpt lat="43.649405" lon="11.5487367"><ele>371.0</ele><time>2026-05-01T10:32:45.208Z</time></trkpt><trkpt lat="43.6494667" lon="11.5487583"><ele>371.0</ele><time>2026-05-01T10:32:46.207Z</time></trkpt><trkpt lat="43.6495317" lon="11.5487833"><ele>371.0</ele><time>2026-05-01T10:32:47.209Z</time></trkpt><trkpt lat="43.6495983" lon="11.54881"><ele>371.0</ele><time>2026-05-01T10:32:48.207Z</time></trkpt><trkpt lat="43.649665" lon="11.5488417"><ele>370.33333333333337</ele><time>2026-05-01T10:32:49.207Z</time></trkpt><trkpt lat="43.649735" lon="11.5488833"><ele>369.6666666666667</ele><time>2026-05-01T10:32:50.208Z</time></trkpt><trkpt lat="43.6498033" lon="11.5489283"><ele>369.0</ele><time>2026-05-01T10:32:51.208Z</time></trkpt><trkpt lat="43.6498733" lon="11.548975"><ele>368.3333333333333</ele><time>2026-05-01T10:32:52.206Z</time></trkpt><trkpt lat="43.6499417" lon="11.54902"><ele>367.66666666666663</ele><time>2026-05-01T10:32:53.208Z</time></trkpt><trkpt lat="43.6500133" lon="11.549065"><ele>367.0</ele><time>2026-05-01T10:32:54.208Z</time></trkpt><trkpt lat="43.650085" lon="11.5491133"><ele>367.0</ele><time>2026-05-01T10:32:55.207Z</time></trkpt><trkpt lat="43.65016" lon="11.5491667"><ele>367.0</ele><time>2026-05-01T10:32:56.21Z</time></trkpt><trkpt lat="43.6502333" lon="11.549225"><ele>367.0</ele><time>2026-05-01T10:32:57.208Z</time></trkpt><trkpt lat="43.650305" lon="11.5492783"><ele>367.0</ele><time>2026-05-01T10:32:58.209Z</time></trkpt><trkpt lat="43.650375" lon="11.5493367"><ele>367.0</ele><time>2026-05-01T10:32:59.21Z</time></trkpt><trkpt lat="43.6504433" lon="11.5494017"><ele>367.0</ele><time>2026-05-01T10:33:00.208Z</time></trkpt><trkpt lat="43.6505133" lon="11.5494717"><ele>366.0</ele><time>2026-05-01T10:33:01.208Z</time></trkpt><trkpt lat="43.6505817" lon="11.5495367"><ele>365.0</ele><time>2026-05-01T10:33:02.208Z</time></trkpt><trkpt lat="43.650655" lon="11.54959"><ele>364.0</ele><time>2026-05-01T10:33:03.209Z</time></trkpt><trkpt lat="43.650735" lon="11.5496267"><ele>363.0</ele><time>2026-05-01T10:33:04.207Z</time></trkpt><trkpt lat="43.65082" lon="11.54964"><ele>362.0</ele><time>2026-05-01T10:33:05.209Z</time></trkpt><trkpt lat="43.650905" lon="11.54963"><ele>361.0</ele><time>2026-05-01T10:33:06.209Z</time></trkpt><trkpt lat="43.6509883" lon="11.5496117"><ele>363.5</ele><time>2026-05-01T10:33:07.207Z</time></trkpt><trkpt lat="43.6510717" lon="11.5495917"><ele>366.0</ele><time>2026-05-01T10:33:08.207Z</time></trkpt><trkpt lat="43.65116" lon="11.5495917"><ele>368.5</ele><time>2026-05-01T10:33:09.207Z</time></trkpt><trkpt lat="43.6512417" lon="11.5496133"><ele>371.0</ele><time>2026-05-01T10:33:10.209Z</time></trkpt><trkpt lat="43.6513183" lon="11.5496467"><ele>373.5</ele><time>2026-05-01T10:33:11.208Z</time></trkpt><trkpt lat="43.65139" lon="11.5496767"><ele>376.0</ele><time>2026-05-01T10:33:12.208Z</time></trkpt><trkpt lat="43.6515017" lon="11.5496767"><ele>376.5</ele><time>2026-05-01T10:33:14.211Z</time></trkpt><trkpt lat="43.65157" lon="11.5495633"><ele>377.0</ele><time>2026-05-01T10:33:16.207Z</time></trkpt><trkpt lat="43.6515733" lon="11.5494733"><ele>377.5</ele><time>2026-05-01T10:33:17.208Z</time></trkpt><trkpt lat="43.651565" lon="11.5493667"><ele>378.0</ele><time>2026-05-01T10:33:18.207Z</time></trkpt><trkpt lat="43.6515433" lon="11.5492633"><ele>378.5</ele><time>2026-05-01T10:33:19.208Z</time></trkpt><trkpt lat="43.6515183" lon="11.5491633"><ele>379.0</ele><time>2026-05-01T10:33:20.207Z</time></trkpt><trkpt lat="43.6514883" lon="11.5490583"><ele>377.8333333333333</ele><time>2026-05-01T10:33:21.209Z</time></trkpt><trkpt lat="43.6514583" lon="11.5489567"><ele>376.66666666666663</ele><time>2026-05-01T10:33:22.205Z</time></trkpt><trkpt lat="43.6514283" lon="11.54886"><ele>375.5</ele><time>2026-05-01T10:33:23.206Z</time></trkpt><trkpt lat="43.6514017" lon="11.548755"><ele>374.3333333333333</ele><time>2026-05-01T10:33:24.204Z</time></trkpt><trkpt lat="43.6513833" lon="11.54865"><ele>373.1666666666667</ele><time>2026-05-01T10:33:25.206Z</time></trkpt><trkpt lat="43.6513683" lon="11.548535"><ele>372.0</ele><time>2026-05-01T10:33:26.206Z</time></trkpt><trkpt lat="43.65138" lon="11.548435"><ele>371.5</ele><time>2026-05-01T10:33:27.206Z</time></trkpt><trkpt lat="43.6514133" lon="11.548345"><ele>371.0</ele><time>2026-05-01T10:33:28.205Z</time></trkpt><trkpt lat="43.6514617" lon="11.548245"><ele>370.5</ele><time>2026-05-01T10:33:29.205Z</time></trkpt><trkpt lat="43.65153" lon="11.548175"><ele>370.0</ele><time>2026-05-01T10:33:30.204Z</time></trkpt><trkpt lat="43.6516017" lon="11.5481017"><ele>369.5</ele><time>2026-05-01T10:33:31.208Z</time></trkpt><trkpt lat="43.6516717" lon="11.54802"><ele>369.0</ele><time>2026-05-01T10:33:32.208Z</time></trkpt><trkpt lat="43.6517233" lon="11.54793"><ele>368.3333333333333</ele><time>2026-05-01T10:33:33.209Z</time></trkpt><trkpt lat="43.651765" lon="11.547825"><ele>367.6666666666667</ele><time>2026-05-01T10:33:34.21Z</time></trkpt><trkpt lat="43.6517933" lon="11.5477217"><ele>367.0</ele><time>2026-05-01T10:33:35.207Z</time></trkpt><trkpt lat="43.6518167" lon="11.5476033"><ele>366.33333333333337</ele><time>2026-05-01T10:33:36.207Z</time></trkpt><trkpt lat="43.6518417" lon="11.547485"><ele>365.6666666666667</ele><time>2026-05-01T10:33:37.207Z</time></trkpt><trkpt lat="43.6518683" lon="11.5473583"><ele>365.0</ele><time>2026-05-01T10:33:38.21Z</time></trkpt><trkpt lat="43.6518983" lon="11.5472317"><ele>365.0</ele><time>2026-05-01T10:33:39.207Z</time></trkpt><trkpt lat="43.6519433" lon="11.5471"><ele>365.0</ele><time>2026-05-01T10:33:40.207Z</time></trkpt><trkpt lat="43.6519933" lon="11.546975"><ele>365.0</ele><time>2026-05-01T10:33:41.207Z</time></trkpt><trkpt lat="43.6520383" lon="11.546845"><ele>365.0</ele><time>2026-05-01T10:33:42.21Z</time></trkpt><trkpt lat="43.652065" lon="11.5467133"><ele>365.0</ele><time>2026-05-01T10:33:43.209Z</time></trkpt><trkpt lat="43.6520783" lon="11.5465717"><ele>365.4</ele><time>2026-05-01T10:33:44.208Z</time></trkpt><trkpt lat="43.652085" lon="11.5464267"><ele>365.8</ele><time>2026-05-01T10:33:45.209Z</time></trkpt><trkpt lat="43.6520917" lon="11.5462783"><ele>366.20000000000005</ele><time>2026-05-01T10:33:46.208Z</time></trkpt><trkpt lat="43.6521083" lon="11.5461333"><ele>366.6</ele><time>2026-05-01T10:33:47.207Z</time></trkpt><trkpt lat="43.652135" lon="11.5459883"><ele>367.0</ele><time>2026-05-01T10:33:48.208Z</time></trkpt><trkpt lat="43.652175" lon="11.5458583"><ele>365.40000000000003</ele><time>2026-05-01T10:33:49.207Z</time></trkpt><trkpt lat="43.6522333" lon="11.545745"><ele>363.8</ele><time>2026-05-01T10:33:50.21Z</time></trkpt><trkpt lat="43.6523017" lon="11.54565"><ele>362.2</ele><time>2026-05-01T10:33:51.208Z</time></trkpt><trkpt lat="43.6523833" lon="11.5455733"><ele>360.6</ele><time>2026-05-01T10:33:52.208Z</time></trkpt><trkpt lat="43.65247" lon="11.5455217"><ele>359.0</ele><time>2026-05-01T10:33:53.207Z</time></trkpt><trkpt lat="43.652565" lon="11.545495"><ele>359.0</ele><time>2026-05-01T10:33:54.209Z</time></trkpt><trkpt lat="43.6526667" lon="11.5454917"><ele>359.0</ele><time>2026-05-01T10:33:55.208Z</time></trkpt><trkpt lat="43.6527583" lon="11.5455233"><ele>359.0</ele><time>2026-05-01T10:33:56.209Z</time></trkpt><trkpt lat="43.6528417" lon="11.5455817"><ele>359.0</ele><time>2026-05-01T10:33:57.207Z</time></trkpt><trkpt lat="43.6529283" lon="11.5456317"><ele>359.0</ele><time>2026-05-01T10:33:58.208Z</time></trkpt><trkpt lat="43.6530233" lon="11.5456533"><ele>359.79999999999995</ele><time>2026-05-01T10:33:59.209Z</time></trkpt><trkpt lat="43.6531217" lon="11.545645"><ele>360.59999999999997</ele><time>2026-05-01T10:34:00.207Z</time></trkpt><trkpt lat="43.6532217" lon="11.5456217"><ele>361.4</ele><time>2026-05-01T10:34:01.207Z</time></trkpt><trkpt lat="43.65332" lon="11.5455917"><ele>362.2</ele><time>2026-05-01T10:34:02.208Z</time></trkpt><trkpt lat="43.6534167" lon="11.5455633"><ele>363.0</ele><time>2026-05-01T10:34:03.207Z</time></trkpt><trkpt lat="43.6535117" lon="11.5455433"><ele>363.0</ele><time>2026-05-01T10:34:04.207Z</time></trkpt><trkpt lat="43.6535983" lon="11.5455183"><ele>363.0</ele><time>2026-05-01T10:34:05.207Z</time></trkpt><trkpt lat="43.6536633" lon="11.545455"><ele>363.0</ele><time>2026-05-01T10:34:06.207Z</time></trkpt><trkpt lat="43.6537033" lon="11.5453717"><ele>363.0</ele><time>2026-05-01T10:34:07.208Z</time></trkpt><trkpt lat="43.653715" lon="11.5452517"><ele>363.0</ele><time>2026-05-01T10:34:08.208Z</time></trkpt><trkpt lat="43.6537133" lon="11.545125"><ele>363.0</ele><time>2026-05-01T10:34:09.206Z</time></trkpt><trkpt lat="43.6537217" lon="11.5449983"><ele>363.2</ele><time>2026-05-01T10:34:10.206Z</time></trkpt><trkpt lat="43.65375" lon="11.5448767"><ele>363.4</ele><time>2026-05-01T10:34:11.208Z</time></trkpt><trkpt lat="43.6538033" lon="11.544775"><ele>363.59999999999997</ele><time>2026-05-01T10:34:12.207Z</time></trkpt><trkpt lat="43.653875" lon="11.5447017"><ele>363.79999999999995</ele><time>2026-05-01T10:34:13.207Z</time></trkpt><trkpt lat="43.6539617" lon="11.5446683"><ele>364.0</ele><time>2026-05-01T10:34:14.208Z</time></trkpt><trkpt lat="43.65405" lon="11.5446317"><ele>364.0</ele><time>2026-05-01T10:34:15.208Z</time></trkpt><trkpt lat="43.65413" lon="11.5445683"><ele>364.0</ele><time>2026-05-01T10:34:16.208Z</time></trkpt><trkpt lat="43.6541917" lon="11.5444717"><ele>364.0</ele><time>2026-05-01T10:34:17.207Z</time></trkpt><trkpt lat="43.6542267" lon="11.5443533"><ele>364.0</ele><time>2026-05-01T10:34:18.208Z</time></trkpt><trkpt lat="43.6542367" lon="11.544225"><ele>364.0</ele><time>2026-05-01T10:34:19.209Z</time></trkpt><trkpt lat="43.654235" lon="11.544095"><ele>361.79999999999995</ele><time>2026-05-01T10:34:20.207Z</time></trkpt><trkpt lat="43.65424" lon="11.5439633"><ele>359.59999999999997</ele><time>2026-05-01T10:34:21.208Z</time></trkpt><trkpt lat="43.65426" lon="11.5438317"><ele>357.4</ele><time>2026-05-01T10:34:22.207Z</time></trkpt><trkpt lat="43.6542917" lon="11.5437083"><ele>355.2</ele><time>2026-05-01T10:34:23.207Z</time></trkpt><trkpt lat="43.6543367" lon="11.54359"><ele>353.0</ele><time>2026-05-01T10:34:24.207Z</time></trkpt><trkpt lat="43.65439" lon="11.5434717"><ele>354.2</ele><time>2026-05-01T10:34:25.206Z</time></trkpt><trkpt lat="43.6544483" lon="11.5433583"><ele>355.4</ele><time>2026-05-01T10:34:26.209Z</time></trkpt><trkpt lat="43.6545133" lon="11.5432533"><ele>356.59999999999997</ele><time>2026-05-01T10:34:27.208Z</time></trkpt><trkpt lat="43.6545817" lon="11.5431633"><ele>357.79999999999995</ele><time>2026-05-01T10:34:28.207Z</time></trkpt><trkpt lat="43.65466" lon="11.5430767"><ele>359.0</ele><time>2026-05-01T10:34:29.207Z</time></trkpt><trkpt lat="43.654745" lon="11.5429967"><ele>359.0</ele><time>2026-05-01T10:34:30.209Z</time></trkpt><trkpt lat="43.654835" lon="11.5429267"><ele>359.0</ele><time>2026-05-01T10:34:31.207Z</time></trkpt><trkpt lat="43.6549283" lon="11.5428767"><ele>359.0</ele><time>2026-05-01T10:34:32.208Z</time></trkpt><trkpt lat="43.6550317" lon="11.5428567"><ele>359.0</ele><time>2026-05-01T10:34:33.206Z</time></trkpt><trkpt lat="43.6551283" lon="11.5428583"><ele>359.0</ele><time>2026-05-01T10:34:34.209Z</time></trkpt><trkpt lat="43.6552233" lon="11.5428583"><ele>357.83333333333337</ele><time>2026-05-01T10:34:35.208Z</time></trkpt><trkpt lat="43.6553183" lon="11.54284"><ele>356.6666666666667</ele><time>2026-05-01T10:34:36.206Z</time></trkpt><trkpt lat="43.6554017" lon="11.5428033"><ele>355.5</ele><time>2026-05-01T10:34:37.207Z</time></trkpt><trkpt lat="43.655465" lon="11.5427383"><ele>354.3333333333333</ele><time>2026-05-01T10:34:38.208Z</time></trkpt><trkpt lat="43.6555217" lon="11.5426533"><ele>353.16666666666663</ele><time>2026-05-01T10:34:39.207Z</time></trkpt><trkpt lat="43.6555767" lon="11.54255"><ele>352.0</ele><time>2026-05-01T10:34:40.208Z</time></trkpt><trkpt lat="43.65564" lon="11.542435"><ele>352.0</ele><time>2026-05-01T10:34:41.207Z</time></trkpt><trkpt lat="43.6557" lon="11.5423317"><ele>352.0</ele><time>2026-05-01T10:34:42.21Z</time></trkpt><trkpt lat="43.6557683" lon="11.542245"><ele>352.0</ele><time>2026-05-01T10:34:43.207Z</time></trkpt><trkpt lat="43.6558517" lon="11.5421767"><ele>352.0</ele><time>2026-05-01T10:34:44.207Z</time></trkpt><trkpt lat="43.65594" lon="11.5421517"><ele>352.0</ele><time>2026-05-01T10:34:45.207Z</time></trkpt><trkpt lat="43.656025" lon="11.5421717"><ele>352.0</ele><time>2026-05-01T10:34:46.208Z</time></trkpt><trkpt lat="43.6561" lon="11.5422283"><ele>352.0</ele><time>2026-05-01T10:34:47.207Z</time></trkpt><trkpt lat="43.656155" lon="11.5423117"><ele>352.0</ele><time>2026-05-01T10:34:48.208Z</time></trkpt><trkpt lat="43.6561933" lon="11.54241"><ele>352.0</ele><time>2026-05-01T10:34:49.207Z</time></trkpt><trkpt lat="43.6562167" lon="11.54253"><ele>352.0</ele><time>2026-05-01T10:34:50.207Z</time></trkpt><trkpt lat="43.65623" lon="11.542655"><ele>352.0</ele><time>2026-05-01T10:34:51.206Z</time></trkpt><trkpt lat="43.6562433" lon="11.5427767"><ele>350.66666666666663</ele><time>2026-05-01T10:34:52.208Z</time></trkpt><trkpt lat="43.65625" lon="11.5428983"><ele>349.3333333333333</ele><time>2026-05-01T10:34:53.209Z</time></trkpt><trkpt lat="43.6562467" lon="11.5430217"><ele>348.0</ele><time>2026-05-01T10:34:54.207Z</time></trkpt><trkpt lat="43.6562367" lon="11.5431417"><ele>346.6666666666667</ele><time>2026-05-01T10:34:55.207Z</time></trkpt><trkpt lat="43.6562217" lon="11.5432617"><ele>345.33333333333337</ele><time>2026-05-01T10:34:56.208Z</time></trkpt><trkpt lat="43.6562083" lon="11.5433917"><ele>344.0</ele><time>2026-05-01T10:34:57.208Z</time></trkpt><trkpt lat="43.656205" lon="11.5435117"><ele>344.0</ele><time>2026-05-01T10:34:58.206Z</time></trkpt><trkpt lat="43.6562267" lon="11.5436283"><ele>344.0</ele><time>2026-05-01T10:34:59.206Z</time></trkpt><trkpt lat="43.656265" lon="11.543735"><ele>344.0</ele><time>2026-05-01T10:35:00.206Z</time></trkpt><trkpt lat="43.6563133" lon="11.54383"><ele>344.0</ele><time>2026-05-01T10:35:01.207Z</time></trkpt><trkpt lat="43.65637" lon="11.5439183"><ele>344.0</ele><time>2026-05-01T10:35:02.209Z</time></trkpt><trkpt lat="43.6564317" lon="11.5440033"><ele>344.0</ele><time>2026-05-01T10:35:03.208Z</time></trkpt><trkpt lat="43.6564967" lon="11.5440817"><ele>345.6666666666667</ele><time>2026-05-01T10:35:04.206Z</time></trkpt><trkpt lat="43.6565617" lon="11.5441583"><ele>347.33333333333337</ele><time>2026-05-01T10:35:05.206Z</time></trkpt><trkpt lat="43.6566233" lon="11.544235"><ele>349.0</ele><time>2026-05-01T10:35:06.209Z</time></trkpt><trkpt lat="43.6566867" lon="11.544305"><ele>350.6666666666667</ele><time>2026-05-01T10:35:07.208Z</time></trkpt><trkpt lat="43.6567533" lon="11.5443667"><ele>352.3333333333333</ele><time>2026-05-01T10:35:08.21Z</time></trkpt><trkpt lat="43.6568267" lon="11.5444167"><ele>354.0</ele><time>2026-05-01T10:35:09.206Z</time></trkpt><trkpt lat="43.6569" lon="11.5444617"><ele>355.14285714285717</ele><time>2026-05-01T10:35:10.207Z</time></trkpt><trkpt lat="43.6569733" lon="11.5445067"><ele>356.2857142857143</ele><time>2026-05-01T10:35:11.208Z</time></trkpt><trkpt lat="43.6570483" lon="11.5445433"><ele>357.42857142857144</ele><time>2026-05-01T10:35:12.208Z</time></trkpt><trkpt lat="43.6571233" lon="11.5445683"><ele>358.57142857142856</ele><time>2026-05-01T10:35:13.208Z</time></trkpt><trkpt lat="43.6571883" lon="11.544555"><ele>359.71428571428567</ele><time>2026-05-01T10:35:14.21Z</time></trkpt><trkpt lat="43.657245" lon="11.5445067"><ele>360.85714285714283</ele><time>2026-05-01T10:35:15.209Z</time></trkpt><trkpt lat="43.657295" lon="11.5444433"><ele>362.0</ele><time>2026-05-01T10:35:16.207Z</time></trkpt><trkpt lat="43.6573217" lon="11.5443483"><ele>362.0</ele><time>2026-05-01T10:35:17.207Z</time></trkpt><trkpt lat="43.657335" lon="11.5442233"><ele>362.0</ele><time>2026-05-01T10:35:18.207Z</time></trkpt><trkpt lat="43.6573483" lon="11.5441"><ele>362.0</ele><time>2026-05-01T10:35:19.209Z</time></trkpt><trkpt lat="43.6573633" lon="11.5439783"><ele>362.0</ele><time>2026-05-01T10:35:20.209Z</time></trkpt><trkpt lat="43.657375" lon="11.5438583"><ele>362.0</ele><time>2026-05-01T10:35:21.207Z</time></trkpt><trkpt lat="43.6573917" lon="11.5437417"><ele>362.0</ele><time>2026-05-01T10:35:22.207Z</time></trkpt><trkpt lat="43.657395" lon="11.54361"><ele>360.5</ele><time>2026-05-01T10:35:23.208Z</time></trkpt><trkpt lat="43.6573933" lon="11.54349"><ele>359.0</ele><time>2026-05-01T10:35:24.207Z</time></trkpt><trkpt lat="43.6573833" lon="11.543365"><ele>357.5</ele><time>2026-05-01T10:35:25.205Z</time></trkpt><trkpt lat="43.6573767" lon="11.543235"><ele>356.0</ele><time>2026-05-01T10:35:26.209Z</time></trkpt><trkpt lat="43.6573783" lon="11.5431067"><ele>354.5</ele><time>2026-05-01T10:35:27.207Z</time></trkpt><trkpt lat="43.65738" lon="11.54299"><ele>353.0</ele><time>2026-05-01T10:35:28.207Z</time></trkpt><trkpt lat="43.657385" lon="11.5428667"><ele>352.0</ele><time>2026-05-01T10:35:29.208Z</time></trkpt><trkpt lat="43.657395" lon="11.5427467"><ele>351.0</ele><time>2026-05-01T10:35:30.207Z</time></trkpt><trkpt lat="43.6574067" lon="11.542625"><ele>350.0</ele><time>2026-05-01T10:35:31.209Z</time></trkpt><trkpt lat="43.65742" lon="11.5425067"><ele>349.0</ele><time>2026-05-01T10:35:32.208Z</time></trkpt><trkpt lat="43.65744" lon="11.5423883"><ele>348.0</ele><time>2026-05-01T10:35:33.207Z</time></trkpt><trkpt lat="43.6574717" lon="11.54228"><ele>347.0</ele><time>2026-05-01T10:35:34.209Z</time></trkpt><trkpt lat="43.6575267" lon="11.5421667"><ele>347.0</ele><time>2026-05-01T10:35:35.208Z</time></trkpt><trkpt lat="43.657595" lon="11.542085"><ele>347.0</ele><time>2026-05-01T10:35:36.207Z</time></trkpt><trkpt lat="43.657675" lon="11.542025"><ele>347.0</ele><time>2026-05-01T10:35:37.207Z</time></trkpt><trkpt lat="43.65776" lon="11.5419817"><ele>347.0</ele><time>2026-05-01T10:35:38.208Z</time></trkpt><trkpt lat="43.65785" lon="11.541965"><ele>347.0</ele><time>2026-05-01T10:35:39.209Z</time></trkpt><trkpt lat="43.65794" lon="11.541955"><ele>346.1666666666667</ele><time>2026-05-01T10:35:40.207Z</time></trkpt><trkpt lat="43.6580283" lon="11.5419417"><ele>345.33333333333337</ele><time>2026-05-01T10:35:41.207Z</time></trkpt><trkpt lat="43.6581183" lon="11.5419367"><ele>344.5</ele><time>2026-05-01T10:35:42.207Z</time></trkpt><trkpt lat="43.658205" lon="11.5419333"><ele>343.6666666666667</ele><time>2026-05-01T10:35:43.207Z</time></trkpt><trkpt lat="43.6582917" lon="11.5419217"><ele>342.8333333333333</ele><time>2026-05-01T10:35:44.206Z</time></trkpt><trkpt lat="43.65838" lon="11.5419133"><ele>342.0</ele><time>2026-05-01T10:35:45.207Z</time></trkpt><trkpt lat="43.6584667" lon="11.5419067"><ele>342.0</ele><time>2026-05-01T10:35:46.208Z</time></trkpt><trkpt lat="43.65856" lon="11.5419"><ele>342.0</ele><time>2026-05-01T10:35:47.208Z</time></trkpt><trkpt lat="43.65865" lon="11.5419033"><ele>342.0</ele><time>2026-05-01T10:35:48.207Z</time></trkpt><trkpt lat="43.6587333" lon="11.5419133"><ele>342.0</ele><time>2026-05-01T10:35:49.208Z</time></trkpt><trkpt lat="43.65881" lon="11.5419533"><ele>342.0</ele><time>2026-05-01T10:35:50.208Z</time></trkpt><trkpt lat="43.6588767" lon="11.542025"><ele>342.0</ele><time>2026-05-01T10:35:51.209Z</time></trkpt><trkpt lat="43.65893" lon="11.5421083"><ele>343.8333333333333</ele><time>2026-05-01T10:35:52.205Z</time></trkpt><trkpt lat="43.658985" lon="11.5422083"><ele>345.6666666666667</ele><time>2026-05-01T10:35:53.207Z</time></trkpt><trkpt lat="43.6590417" lon="11.5423"><ele>347.5</ele><time>2026-05-01T10:35:54.208Z</time></trkpt><trkpt lat="43.6591067" lon="11.5423867"><ele>349.33333333333337</ele><time>2026-05-01T10:35:55.209Z</time></trkpt><trkpt lat="43.659175" lon="11.5424617"><ele>351.1666666666667</ele><time>2026-05-01T10:35:56.209Z</time></trkpt><trkpt lat="43.6592417" lon="11.5425383"><ele>353.0</ele><time>2026-05-01T10:35:57.208Z</time></trkpt><trkpt lat="43.6593117" lon="11.5426033"><ele>353.0</ele><time>2026-05-01T10:35:58.209Z</time></trkpt><trkpt lat="43.6593767" lon="11.5426683"><ele>353.0</ele><time>2026-05-01T10:35:59.207Z</time></trkpt><trkpt lat="43.6594417" lon="11.5427367"><ele>353.0</ele><time>2026-05-01T10:36:00.207Z</time></trkpt><trkpt lat="43.659505" lon="11.542805"><ele>353.0</ele><time>2026-05-01T10:36:01.208Z</time></trkpt><trkpt lat="43.6595667" lon="11.5428783"><ele>353.0</ele><time>2026-05-01T10:36:02.208Z</time></trkpt><trkpt lat="43.6596267" lon="11.542945"><ele>353.0</ele><time>2026-05-01T10:36:03.209Z</time></trkpt><trkpt lat="43.65969" lon="11.542995"><ele>352.6666666666667</ele><time>2026-05-01T10:36:04.208Z</time></trkpt><trkpt lat="43.6597567" lon="11.5430083"><ele>352.33333333333337</ele><time>2026-05-01T10:36:05.206Z</time></trkpt><trkpt lat="43.659875" lon="11.542965"><ele>352.0</ele><time>2026-05-01T10:36:07.208Z</time></trkpt><trkpt lat="43.6599233" lon="11.5428917"><ele>351.6666666666667</ele><time>2026-05-01T10:36:08.207Z</time></trkpt><trkpt lat="43.6599367" lon="11.5427783"><ele>351.3333333333333</ele><time>2026-05-01T10:36:09.207Z</time></trkpt><trkpt lat="43.6599433" lon="11.5426717"><ele>351.0</ele><time>2026-05-01T10:36:10.207Z</time></trkpt><trkpt lat="43.6599417" lon="11.54256"><ele>351.0</ele><time>2026-05-01T10:36:11.208Z</time></trkpt><trkpt lat="43.6599267" lon="11.542435"><ele>351.0</ele><time>2026-05-01T10:36:12.207Z</time></trkpt><trkpt lat="43.6599117" lon="11.5423033"><ele>351.0</ele><time>2026-05-01T10:36:13.207Z</time></trkpt><trkpt lat="43.6599033" lon="11.54218"><ele>351.0</ele><time>2026-05-01T10:36:14.207Z</time></trkpt><trkpt lat="43.659895" lon="11.5420517"><ele>351.0</ele><time>2026-05-01T10:36:15.207Z</time></trkpt><trkpt lat="43.6598933" lon="11.541925"><ele>350.0</ele><time>2026-05-01T10:36:16.208Z</time></trkpt><trkpt lat="43.659895" lon="11.5417967"><ele>349.0</ele><time>2026-05-01T10:36:17.208Z</time></trkpt><trkpt lat="43.6599017" lon="11.5416717"><ele>348.0</ele><time>2026-05-01T10:36:18.21Z</time></trkpt><trkpt lat="43.6599117" lon="11.5415433"><ele>347.0</ele><time>2026-05-01T10:36:19.207Z</time></trkpt><trkpt lat="43.6599183" lon="11.541415"><ele>346.0</ele><time>2026-05-01T10:36:20.207Z</time></trkpt><trkpt lat="43.65994" lon="11.5412867"><ele>344.4</ele><time>2026-05-01T10:36:21.208Z</time></trkpt><trkpt lat="43.6599717" lon="11.54117"><ele>342.8</ele><time>2026-05-01T10:36:22.209Z</time></trkpt><trkpt lat="43.660025" lon="11.5410633"><ele>341.2</ele><time>2026-05-01T10:36:23.209Z</time></trkpt><trkpt lat="43.6601" lon="11.5409717"><ele>339.59999999999997</ele><time>2026-05-01T10:36:24.208Z</time></trkpt><trkpt lat="43.6601867" lon="11.5408917"><ele>338.0</ele><time>2026-05-01T10:36:25.207Z</time></trkpt><trkpt lat="43.6602733" lon="11.5408183"><ele>339.4</ele><time>2026-05-01T10:36:26.207Z</time></trkpt><trkpt lat="43.66036" lon="11.5407433"><ele>340.79999999999995</ele><time>2026-05-01T10:36:27.209Z</time></trkpt><trkpt lat="43.660445" lon="11.5406683"><ele>342.2</ele><time>2026-05-01T10:36:28.207Z</time></trkpt><trkpt lat="43.6605283" lon="11.5405883"><ele>343.6</ele><time>2026-05-01T10:36:29.208Z</time></trkpt><trkpt lat="43.6606067" lon="11.540515"><ele>345.0</ele><time>2026-05-01T10:36:30.208Z</time></trkpt><trkpt lat="43.6606867" lon="11.5404567"><ele>345.0</ele><time>2026-05-01T10:36:31.209Z</time></trkpt><trkpt lat="43.66077" lon="11.5404267"><ele>345.0</ele><time>2026-05-01T10:36:32.209Z</time></trkpt><trkpt lat="43.6608683" lon="11.5404217"><ele>345.0</ele><time>2026-05-01T10:36:33.207Z</time></trkpt><trkpt lat="43.660965" lon="11.5404383"><ele>345.0</ele><time>2026-05-01T10:36:34.207Z</time></trkpt><trkpt lat="43.6610683" lon="11.54047"><ele>345.0</ele><time>2026-05-01T10:36:35.209Z</time></trkpt><trkpt lat="43.66117" lon="11.5405017"><ele>344.6</ele><time>2026-05-01T10:36:36.207Z</time></trkpt><trkpt lat="43.66127" lon="11.540535"><ele>344.2</ele><time>2026-05-01T10:36:37.207Z</time></trkpt><trkpt lat="43.66137" lon="11.5405667"><ele>343.79999999999995</ele><time>2026-05-01T10:36:38.209Z</time></trkpt><trkpt lat="43.6614683" lon="11.5405983"><ele>343.4</ele><time>2026-05-01T10:36:39.208Z</time></trkpt><trkpt lat="43.6615667" lon="11.5406317"><ele>343.0</ele><time>2026-05-01T10:36:40.208Z</time></trkpt><trkpt lat="43.6616633" lon="11.5406717"><ele>343.0</ele><time>2026-05-01T10:36:41.207Z</time></trkpt><trkpt lat="43.6617533" lon="11.540725"><ele>343.0</ele><time>2026-05-01T10:36:42.207Z</time></trkpt><trkpt lat="43.6618333" lon="11.5407983"><ele>343.0</ele><time>2026-05-01T10:36:43.209Z</time></trkpt><trkpt lat="43.6619033" lon="11.5408833"><ele>343.0</ele><time>2026-05-01T10:36:44.207Z</time></trkpt><trkpt lat="43.6619683" lon="11.5409717"><ele>343.0</ele><time>2026-05-01T10:36:45.207Z</time></trkpt><trkpt lat="43.6620383" lon="11.5410583"><ele>342.8333333333333</ele><time>2026-05-01T10:36:46.208Z</time></trkpt><trkpt lat="43.66211" lon="11.54114"><ele>342.66666666666663</ele><time>2026-05-01T10:36:47.207Z</time></trkpt><trkpt lat="43.6621817" lon="11.5412217"><ele>342.5</ele><time>2026-05-01T10:36:48.208Z</time></trkpt><trkpt lat="43.66225" lon="11.5412917"><ele>342.3333333333333</ele><time>2026-05-01T10:36:49.207Z</time></trkpt><trkpt lat="43.6623233" lon="11.54134"><ele>342.1666666666667</ele><time>2026-05-01T10:36:50.207Z</time></trkpt><trkpt lat="43.66239" lon="11.54136"><ele>342.0</ele><time>2026-05-01T10:36:51.207Z</time></trkpt><trkpt lat="43.6624633" lon="11.5413483"><ele>342.0</ele><time>2026-05-01T10:36:52.208Z</time></trkpt><trkpt lat="43.6625217" lon="11.5412867"><ele>342.0</ele><time>2026-05-01T10:36:53.206Z</time></trkpt><trkpt lat="43.66257" lon="11.5412"><ele>342.0</ele><time>2026-05-01T10:36:54.207Z</time></trkpt><trkpt lat="43.6626017" lon="11.5410967"><ele>342.0</ele><time>2026-05-01T10:36:55.209Z</time></trkpt><trkpt lat="43.6626" lon="11.5409833"><ele>342.0</ele><time>2026-05-01T10:36:56.211Z</time></trkpt><trkpt lat="43.6625717" lon="11.5408767"><ele>342.0</ele><time>2026-05-01T10:36:57.208Z</time></trkpt><trkpt lat="43.6625367" lon="11.540775"><ele>342.0</ele><time>2026-05-01T10:36:58.207Z</time></trkpt><trkpt lat="43.6624967" lon="11.540675"><ele>342.0</ele><time>2026-05-01T10:36:59.208Z</time></trkpt><trkpt lat="43.6624633" lon="11.54057"><ele>342.0</ele><time>2026-05-01T10:37:00.207Z</time></trkpt><trkpt lat="43.6624383" lon="11.540455"><ele>342.0</ele><time>2026-05-01T10:37:01.21Z</time></trkpt><trkpt lat="43.6624217" lon="11.5403417"><ele>342.0</ele><time>2026-05-01T10:37:02.207Z</time></trkpt><trkpt lat="43.6624183" lon="11.5402283"><ele>342.0</ele><time>2026-05-01T10:37:03.208Z</time></trkpt><trkpt lat="43.6624283" lon="11.5401117"><ele>341.3333333333333</ele><time>2026-05-01T10:37:04.208Z</time></trkpt><trkpt lat="43.6624517" lon="11.5399917"><ele>340.6666666666667</ele><time>2026-05-01T10:37:05.208Z</time></trkpt><trkpt lat="43.6624883" lon="11.539885"><ele>340.0</ele><time>2026-05-01T10:37:06.207Z</time></trkpt><trkpt lat="43.662535" lon="11.539785"><ele>339.33333333333337</ele><time>2026-05-01T10:37:07.209Z</time></trkpt><trkpt lat="43.6625883" lon="11.5396833"><ele>338.6666666666667</ele><time>2026-05-01T10:37:08.207Z</time></trkpt><trkpt lat="43.6626483" lon="11.5395933"><ele>338.0</ele><time>2026-05-01T10:37:09.206Z</time></trkpt><trkpt lat="43.6627083" lon="11.5395133"><ele>338.0</ele><time>2026-05-01T10:37:10.207Z</time></trkpt><trkpt lat="43.66277" lon="11.5394317"><ele>338.0</ele><time>2026-05-01T10:37:11.205Z</time></trkpt><trkpt lat="43.6628317" lon="11.539345"><ele>338.0</ele><time>2026-05-01T10:37:12.208Z</time></trkpt><trkpt lat="43.6628967" lon="11.539265"><ele>338.0</ele><time>2026-05-01T10:37:13.208Z</time></trkpt><trkpt lat="43.66297" lon="11.5391967"><ele>338.0</ele><time>2026-05-01T10:37:14.209Z</time></trkpt><trkpt lat="43.6630483" lon="11.5391417"><ele>338.0</ele><time>2026-05-01T10:37:15.207Z</time></trkpt><trkpt lat="43.6631333" lon="11.5391017"><ele>338.0</ele><time>2026-05-01T10:37:16.208Z</time></trkpt><trkpt lat="43.6632233" lon="11.5390767"><ele>338.0</ele><time>2026-05-01T10:37:17.207Z</time></trkpt><trkpt lat="43.6633133" lon="11.539075"><ele>338.0</ele><time>2026-05-01T10:37:18.207Z</time></trkpt><trkpt lat="43.6634" lon="11.5390933"><ele>338.0</ele><time>2026-05-01T10:37:19.209Z</time></trkpt><trkpt lat="43.6634867" lon="11.5391283"><ele>338.0</ele><time>2026-05-01T10:37:20.209Z</time></trkpt><trkpt lat="43.6635717" lon="11.5391717"><ele>337.0</ele><time>2026-05-01T10:37:21.208Z</time></trkpt><trkpt lat="43.663655" lon="11.539225"><ele>336.0</ele><time>2026-05-01T10:37:22.208Z</time></trkpt><trkpt lat="43.66374" lon="11.5392783"><ele>335.0</ele><time>2026-05-01T10:37:23.21Z</time></trkpt><trkpt lat="43.66382" lon="11.5393267"><ele>334.0</ele><time>2026-05-01T10:37:24.208Z</time></trkpt><trkpt lat="43.6639017" lon="11.5393783"><ele>333.0</ele><time>2026-05-01T10:37:25.208Z</time></trkpt><trkpt lat="43.6639883" lon="11.539425"><ele>333.0</ele><time>2026-05-01T10:37:26.208Z</time></trkpt><trkpt lat="43.6640717" lon="11.539465"><ele>333.0</ele><time>2026-05-01T10:37:27.209Z</time></trkpt><trkpt lat="43.6641617" lon="11.5395"><ele>333.0</ele><time>2026-05-01T10:37:28.207Z</time></trkpt><trkpt lat="43.6642517" lon="11.53951"><ele>333.0</ele><time>2026-05-01T10:37:29.207Z</time></trkpt><trkpt lat="43.6643433" lon="11.5394867"><ele>333.0</ele><time>2026-05-01T10:37:30.209Z</time></trkpt><trkpt lat="43.6644233" lon="11.5394333"><ele>335.0</ele><time>2026-05-01T10:37:31.21Z</time></trkpt><trkpt lat="43.6644933" lon="11.539355"><ele>337.0</ele><time>2026-05-01T10:37:32.207Z</time></trkpt><trkpt lat="43.6645517" lon="11.539255"><ele>339.0</ele><time>2026-05-01T10:37:33.207Z</time></trkpt><trkpt lat="43.6646" lon="11.5391467"><ele>341.0</ele><time>2026-05-01T10:37:34.207Z</time></trkpt><trkpt lat="43.6646333" lon="11.5390233"><ele>343.0</ele><time>2026-05-01T10:37:35.207Z</time></trkpt><trkpt lat="43.6646583" lon="11.538895"><ele>343.0</ele><time>2026-05-01T10:37:36.207Z</time></trkpt><trkpt lat="43.664675" lon="11.5387617"><ele>343.0</ele><time>2026-05-01T10:37:37.208Z</time></trkpt><trkpt lat="43.6646833" lon="11.5386267"><ele>343.0</ele><time>2026-05-01T10:37:38.207Z</time></trkpt><trkpt lat="43.66469" lon="11.53849"><ele>343.0</ele><time>2026-05-01T10:37:39.208Z</time></trkpt><trkpt lat="43.6647067" lon="11.5383533"><ele>343.0</ele><time>2026-05-01T10:37:40.207Z</time></trkpt><trkpt lat="43.6647367" lon="11.5382283"><ele>341.79999999999995</ele><time>2026-05-01T10:37:41.207Z</time></trkpt><trkpt lat="43.6647933" lon="11.5381217"><ele>340.6</ele><time>2026-05-01T10:37:42.207Z</time></trkpt><trkpt lat="43.6648717" lon="11.53804"><ele>339.4</ele><time>2026-05-01T10:37:43.209Z</time></trkpt><trkpt lat="43.6649583" lon="11.5379783"><ele>338.20000000000005</ele><time>2026-05-01T10:37:44.209Z</time></trkpt><trkpt lat="43.66503" lon="11.537905"><ele>337.0</ele><time>2026-05-01T10:37:45.207Z</time></trkpt><trkpt lat="43.66508" lon="11.5378033"><ele>335.40000000000003</ele><time>2026-05-01T10:37:46.207Z</time></trkpt><trkpt lat="43.6651067" lon="11.5376867"><ele>333.8</ele><time>2026-05-01T10:37:47.207Z</time></trkpt><trkpt lat="43.6651233" lon="11.5375617"><ele>332.2</ele><time>2026-05-01T10:37:48.208Z</time></trkpt><trkpt lat="43.6651333" lon="11.53744"><ele>330.6</ele><time>2026-05-01T10:37:49.209Z</time></trkpt><trkpt lat="43.6651517" lon="11.537315"><ele>329.0</ele><time>2026-05-01T10:37:50.207Z</time></trkpt><trkpt lat="43.6651867" lon="11.5371967"><ele>329.0</ele><time>2026-05-01T10:37:51.209Z</time></trkpt><trkpt lat="43.6652417" lon="11.5370817"><ele>329.0</ele><time>2026-05-01T10:37:52.206Z</time></trkpt><trkpt lat="43.6653117" lon="11.5369933"><ele>329.0</ele><time>2026-05-01T10:37:53.207Z</time></trkpt><trkpt lat="43.6653933" lon="11.5369133"><ele>329.0</ele><time>2026-05-01T10:37:54.207Z</time></trkpt><trkpt lat="43.66548" lon="11.5368517"><ele>329.0</ele><time>2026-05-01T10:37:55.21Z</time></trkpt><trkpt lat="43.6655683" lon="11.5367983"><ele>329.6</ele><time>2026-05-01T10:37:56.21Z</time></trkpt><trkpt lat="43.6656567" lon="11.53674"><ele>330.2</ele><time>2026-05-01T10:37:57.207Z</time></trkpt><trkpt lat="43.6657417" lon="11.5366683"><ele>330.8</ele><time>2026-05-01T10:37:58.207Z</time></trkpt><trkpt lat="43.6658217" lon="11.5365867"><ele>331.40000000000003</ele><time>2026-05-01T10:37:59.209Z</time></trkpt><trkpt lat="43.665895" lon="11.536505"><ele>332.0</ele><time>2026-05-01T10:38:00.207Z</time></trkpt><trkpt lat="43.6659683" lon="11.5364217"><ele>332.0</ele><time>2026-05-01T10:38:01.207Z</time></trkpt><trkpt lat="43.6660483" lon="11.5363433"><ele>332.0</ele><time>2026-05-01T10:38:02.207Z</time></trkpt><trkpt lat="43.66614" lon="11.53629"><ele>332.0</ele><time>2026-05-01T10:38:03.208Z</time></trkpt><trkpt lat="43.66623" lon="11.5362717"><ele>332.0</ele><time>2026-05-01T10:38:04.207Z</time></trkpt><trkpt lat="43.6663217" lon="11.5362767"><ele>332.0</ele><time>2026-05-01T10:38:05.211Z</time></trkpt><trkpt lat="43.6664167" lon="11.5362833"><ele>331.5</ele><time>2026-05-01T10:38:06.209Z</time></trkpt><trkpt lat="43.6665067" lon="11.5362733"><ele>331.0</ele><time>2026-05-01T10:38:07.207Z</time></trkpt><trkpt lat="43.6666" lon="11.5362517"><ele>330.5</ele><time>2026-05-01T10:38:08.208Z</time></trkpt><trkpt lat="43.6666783" lon="11.5362117"><ele>330.0</ele><time>2026-05-01T10:38:09.209Z</time></trkpt><trkpt lat="43.6667467" lon="11.5361533"><ele>329.5</ele><time>2026-05-01T10:38:10.21Z</time></trkpt><trkpt lat="43.6668083" lon="11.53607"><ele>329.0</ele><time>2026-05-01T10:38:11.207Z</time></trkpt><trkpt lat="43.6668683" lon="11.5359767"><ele>329.0</ele><time>2026-05-01T10:38:12.208Z</time></trkpt><trkpt lat="43.66694" lon="11.5358733"><ele>329.0</ele><time>2026-05-01T10:38:13.208Z</time></trkpt><trkpt lat="43.66704" lon="11.5358"><ele>329.0</ele><time>2026-05-01T10:38:14.209Z</time></trkpt><trkpt lat="43.6671233" lon="11.5357583"><ele>329.0</ele><time>2026-05-01T10:38:15.207Z</time></trkpt><trkpt lat="43.66721" lon="11.5357317"><ele>329.0</ele><time>2026-05-01T10:38:16.209Z</time></trkpt><trkpt lat="43.6672883" lon="11.5357133"><ele>328.5</ele><time>2026-05-01T10:38:17.208Z</time></trkpt><trkpt lat="43.6673633" lon="11.5356967"><ele>328.0</ele><time>2026-05-01T10:38:18.207Z</time></trkpt><trkpt lat="43.6674467" lon="11.535695"><ele>327.5</ele><time>2026-05-01T10:38:19.208Z</time></trkpt><trkpt lat="43.667535" lon="11.53571"><ele>327.0</ele><time>2026-05-01T10:38:20.207Z</time></trkpt><trkpt lat="43.6676233" lon="11.5357267"><ele>326.5</ele><time>2026-05-01T10:38:21.207Z</time></trkpt><trkpt lat="43.6677083" lon="11.5357417"><ele>326.0</ele><time>2026-05-01T10:38:22.208Z</time></trkpt><trkpt lat="43.6677967" lon="11.5357567"><ele>326.0</ele><time>2026-05-01T10:38:23.207Z</time></trkpt><trkpt lat="43.6678867" lon="11.5357683"><ele>326.0</ele><time>2026-05-01T10:38:24.211Z</time></trkpt><trkpt lat="43.66797" lon="11.5357817"><ele>326.0</ele><time>2026-05-01T10:38:25.207Z</time></trkpt><trkpt lat="43.6680533" lon="11.5357967"><ele>326.0</ele><time>2026-05-01T10:38:26.209Z</time></trkpt><trkpt lat="43.6681367" lon="11.5358233"><ele>326.0</ele><time>2026-05-01T10:38:27.209Z</time></trkpt><trkpt lat="43.6682267" lon="11.5358767"><ele>326.0</ele><time>2026-05-01T10:38:28.208Z</time></trkpt><trkpt lat="43.6683033" lon="11.5359417"><ele>326.0</ele><time>2026-05-01T10:38:29.207Z</time></trkpt><trkpt lat="43.668375" lon="11.5360217"><ele>326.0</ele><time>2026-05-01T10:38:30.21Z</time></trkpt><trkpt lat="43.6684367" lon="11.53611"><ele>326.0</ele><time>2026-05-01T10:38:31.208Z</time></trkpt><trkpt lat="43.6684983" lon="11.5362"><ele>326.0</ele><time>2026-05-01T10:38:32.208Z</time></trkpt><trkpt lat="43.668565" lon="11.5362833"><ele>326.0</ele><time>2026-05-01T10:38:33.207Z</time></trkpt><trkpt lat="43.6686433" lon="11.5363367"><ele>326.0</ele><time>2026-05-01T10:38:34.208Z</time></trkpt><trkpt lat="43.6687317" lon="11.5363567"><ele>327.6666666666667</ele><time>2026-05-01T10:38:35.208Z</time></trkpt><trkpt lat="43.66882" lon="11.536345"><ele>329.33333333333337</ele><time>2026-05-01T10:38:36.208Z</time></trkpt><trkpt lat="43.6689133" lon="11.5363183"><ele>331.0</ele><time>2026-05-01T10:38:37.207Z</time></trkpt><trkpt lat="43.6690017" lon="11.5362967"><ele>332.6666666666667</ele><time>2026-05-01T10:38:38.208Z</time></trkpt><trkpt lat="43.66909" lon="11.5362983"><ele>334.3333333333333</ele><time>2026-05-01T10:38:39.207Z</time></trkpt><trkpt lat="43.669175" lon="11.5363233"><ele>336.0</ele><time>2026-05-01T10:38:40.207Z</time></trkpt><trkpt lat="43.6692617" lon="11.5363867"><ele>336.0</ele><time>2026-05-01T10:38:41.206Z</time></trkpt><trkpt lat="43.6693383" lon="11.536445"><ele>336.0</ele><time>2026-05-01T10:38:42.208Z</time></trkpt><trkpt lat="43.66941" lon="11.5365"><ele>336.0</ele><time>2026-05-01T10:38:43.207Z</time></trkpt><trkpt lat="43.6694867" lon="11.53657"><ele>336.0</ele><time>2026-05-01T10:38:44.209Z</time></trkpt><trkpt lat="43.6695633" lon="11.5366483"><ele>336.0</ele><time>2026-05-01T10:38:45.208Z</time></trkpt><trkpt lat="43.66965" lon="11.5367483"><ele>335.1666666666667</ele><time>2026-05-01T10:38:46.207Z</time></trkpt><trkpt lat="43.66972" lon="11.5368333"><ele>334.3333333333333</ele><time>2026-05-01T10:38:47.21Z</time></trkpt><trkpt lat="43.6697783" lon="11.5369317"><ele>333.5</ele><time>2026-05-01T10:38:48.209Z</time></trkpt><trkpt lat="43.6698217" lon="11.5370367"><ele>332.66666666666663</ele><time>2026-05-01T10:38:49.207Z</time></trkpt><trkpt lat="43.6698567" lon="11.53714"><ele>331.8333333333333</ele><time>2026-05-01T10:38:50.208Z</time></trkpt><trkpt lat="43.6698767" lon="11.5372567"><ele>331.0</ele><time>2026-05-01T10:38:51.21Z</time></trkpt><trkpt lat="43.6699017" lon="11.53738"><ele>331.0</ele><time>2026-05-01T10:38:52.207Z</time></trkpt><trkpt lat="43.6699267" lon="11.5374933"><ele>331.0</ele><time>2026-05-01T10:38:53.208Z</time></trkpt><trkpt lat="43.6699767" lon="11.5375867"><ele>331.0</ele><time>2026-05-01T10:38:54.208Z</time></trkpt><trkpt lat="43.67003" lon="11.537675"><ele>331.0</ele><time>2026-05-01T10:38:55.21Z</time></trkpt><trkpt lat="43.6700883" lon="11.5377733"><ele>331.0</ele><time>2026-05-01T10:38:56.211Z</time></trkpt><trkpt lat="43.6701483" lon="11.5378567"><ele>331.0</ele><time>2026-05-01T10:38:57.207Z</time></trkpt><trkpt lat="43.6702033" lon="11.5379417"><ele>331.0</ele><time>2026-05-01T10:38:58.207Z</time></trkpt><trkpt lat="43.6702633" lon="11.538025"><ele>331.0</ele><time>2026-05-01T10:38:59.208Z</time></trkpt><trkpt lat="43.670325" lon="11.53811"><ele>331.0</ele><time>2026-05-01T10:39:00.206Z</time></trkpt><trkpt lat="43.6703917" lon="11.53819"><ele>331.0</ele><time>2026-05-01T10:39:01.208Z</time></trkpt><trkpt lat="43.6704583" lon="11.538265"><ele>331.0</ele><time>2026-05-01T10:39:02.209Z</time></trkpt><trkpt lat="43.670525" lon="11.5383367"><ele>331.0</ele><time>2026-05-01T10:39:03.21Z</time></trkpt><trkpt lat="43.67059" lon="11.5384"><ele>331.0</ele><time>2026-05-01T10:39:04.209Z</time></trkpt><trkpt lat="43.6706583" lon="11.5384767"><ele>331.0</ele><time>2026-05-01T10:39:05.21Z</time></trkpt><trkpt lat="43.6707217" lon="11.53854"><ele>331.0</ele><time>2026-05-01T10:39:06.209Z</time></trkpt><trkpt lat="43.6707883" lon="11.538625"><ele>331.0</ele><time>2026-05-01T10:39:07.207Z</time></trkpt><trkpt lat="43.67085" lon="11.5386867"><ele>331.0</ele><time>2026-05-01T10:39:08.207Z</time></trkpt><trkpt lat="43.6709117" lon="11.5387583"><ele>331.0</ele><time>2026-05-01T10:39:09.208Z</time></trkpt><trkpt lat="43.670975" lon="11.538805"><ele>332.66666666666663</ele><time>2026-05-01T10:39:10.207Z</time></trkpt><trkpt lat="43.6710417" lon="11.5388333"><ele>334.3333333333333</ele><time>2026-05-01T10:39:11.21Z</time></trkpt><trkpt lat="43.6711083" lon="11.538835"><ele>336.0</ele><time>2026-05-01T10:39:12.207Z</time></trkpt><trkpt lat="43.671175" lon="11.5388233"><ele>337.6666666666667</ele><time>2026-05-01T10:39:13.208Z</time></trkpt><trkpt lat="43.67127" lon="11.5387283"><ele>339.33333333333337</ele><time>2026-05-01T10:39:15.209Z</time></trkpt><trkpt lat="43.6713" lon="11.5386383"><ele>341.0</ele><time>2026-05-01T10:39:16.208Z</time></trkpt><trkpt lat="43.67132" lon="11.5385417"><ele>341.20000000000005</ele><time>2026-05-01T10:39:17.208Z</time></trkpt><trkpt lat="43.6713283" lon="11.5384467"><ele>341.40000000000003</ele><time>2026-05-01T10:39:18.207Z</time></trkpt><trkpt lat="43.6713233" lon="11.53827"><ele>341.6</ele><time>2026-05-01T10:39:20.209Z</time></trkpt><trkpt lat="43.6713217" lon="11.53818"><ele>341.8</ele><time>2026-05-01T10:39:21.207Z</time></trkpt><trkpt lat="43.671325" lon="11.5380917"><ele>342.0</ele><time>2026-05-01T10:39:22.208Z</time></trkpt><trkpt lat="43.6713267" lon="11.53792"><ele>341.40000000000003</ele><time>2026-05-01T10:39:24.208Z</time></trkpt><trkpt lat="43.67132" lon="11.5378283"><ele>340.8</ele><time>2026-05-01T10:39:25.207Z</time></trkpt><trkpt lat="43.6713217" lon="11.53774"><ele>340.2</ele><time>2026-05-01T10:39:26.209Z</time></trkpt><trkpt lat="43.6713317" lon="11.53757"><ele>339.6</ele><time>2026-05-01T10:39:28.209Z</time></trkpt><trkpt lat="43.6713667" lon="11.5374183"><ele>339.0</ele><time>2026-05-01T10:39:30.208Z</time></trkpt><trkpt lat="43.6714217" lon="11.5373033"><ele>339.0</ele><time>2026-05-01T10:39:32.208Z</time></trkpt><trkpt lat="43.67149" lon="11.537195"><ele>339.0</ele><time>2026-05-01T10:39:34.21Z</time></trkpt><trkpt lat="43.67153" lon="11.53705"><ele>339.0</ele><time>2026-05-01T10:39:36.208Z</time></trkpt><trkpt lat="43.67151" lon="11.5368967"><ele>339.0</ele><time>2026-05-01T10:39:38.206Z</time></trkpt><trkpt lat="43.6714283" lon="11.5367933"><ele>339.0</ele><time>2026-05-01T10:39:40.207Z</time></trkpt><trkpt lat="43.67132" lon="11.53673"><ele>340.0</ele><time>2026-05-01T10:39:42.207Z</time></trkpt><trkpt lat="43.6712183" lon="11.53665"><ele>341.0</ele><time>2026-05-01T10:39:44.207Z</time></trkpt><trkpt lat="43.6711333" lon="11.5365317"><ele>342.0</ele><time>2026-05-01T10:39:46.208Z</time></trkpt><trkpt lat="43.6710717" lon="11.5364067"><ele>343.0</ele><time>2026-05-01T10:39:48.206Z</time></trkpt><trkpt lat="43.6710283" lon="11.5362933"><ele>344.0</ele><time>2026-05-01T10:39:50.207Z</time></trkpt><trkpt lat="43.6709883" lon="11.5361583"><ele>340.75</ele><time>2026-05-01T10:39:52.205Z</time></trkpt><trkpt lat="43.67096" lon="11.536005"><ele>337.5</ele><time>2026-05-01T10:39:54.206Z</time></trkpt><trkpt lat="43.6709383" lon="11.5358583"><ele>334.25</ele><time>2026-05-01T10:39:56.206Z</time></trkpt><trkpt lat="43.6709483" lon="11.5356867"><ele>331.0</ele><time>2026-05-01T10:39:58.208Z</time></trkpt><trkpt lat="43.670975" lon="11.53553"><ele>330.8333333333333</ele><time>2026-05-01T10:40:00.207Z</time></trkpt><trkpt lat="43.6710317" lon="11.5353683"><ele>330.66666666666663</ele><time>2026-05-01T10:40:02.206Z</time></trkpt><trkpt lat="43.671065" lon="11.5352933"><ele>330.5</ele><time>2026-05-01T10:40:03.208Z</time></trkpt><trkpt lat="43.6711317" lon="11.5351567"><ele>330.3333333333333</ele><time>2026-05-01T10:40:05.208Z</time></trkpt><trkpt lat="43.67117" lon="11.5350833"><ele>330.1666666666667</ele><time>2026-05-01T10:40:06.209Z</time></trkpt><trkpt lat="43.6712067" lon="11.535005"><ele>330.0</ele><time>2026-05-01T10:40:07.209Z</time></trkpt><trkpt lat="43.6712367" lon="11.53492"><ele>332.6</ele><time>2026-05-01T10:40:08.208Z</time></trkpt><trkpt lat="43.671265" lon="11.5348367"><ele>335.2</ele><time>2026-05-01T10:40:09.206Z</time></trkpt><trkpt lat="43.671305" lon="11.534675"><ele>337.79999999999995</ele><time>2026-05-01T10:40:11.208Z</time></trkpt><trkpt lat="43.6713317" lon="11.53452"><ele>340.4</ele><time>2026-05-01T10:40:13.209Z</time></trkpt><trkpt lat="43.6713517" lon="11.53437"><ele>343.0</ele><time>2026-05-01T10:40:15.207Z</time></trkpt><trkpt lat="43.6713767" lon="11.5342183"><ele>343.25</ele><time>2026-05-01T10:40:17.207Z</time></trkpt><trkpt lat="43.6714167" lon="11.5340633"><ele>343.5</ele><time>2026-05-01T10:40:19.207Z</time></trkpt><trkpt lat="43.6714767" lon="11.5339217"><ele>343.75</ele><time>2026-05-01T10:40:21.207Z</time></trkpt><trkpt lat="43.67156" lon="11.5338"><ele>344.0</ele><time>2026-05-01T10:40:23.207Z</time></trkpt><trkpt lat="43.671655" lon="11.5337133"><ele>343.25</ele><time>2026-05-01T10:40:25.208Z</time></trkpt><trkpt lat="43.6717617" lon="11.5336483"><ele>342.5</ele><time>2026-05-01T10:40:27.207Z</time></trkpt><trkpt lat="43.67187" lon="11.5335933"><ele>341.75</ele><time>2026-05-01T10:40:29.208Z</time></trkpt><trkpt lat="43.6719733" lon="11.5335467"><ele>341.0</ele><time>2026-05-01T10:40:31.209Z</time></trkpt><trkpt lat="43.6720783" lon="11.5334967"><ele>341.0</ele><time>2026-05-01T10:40:33.207Z</time></trkpt><trkpt lat="43.6721833" lon="11.5334517"><ele>341.0</ele><time>2026-05-01T10:40:35.208Z</time></trkpt><trkpt lat="43.6722883" lon="11.5334033"><ele>341.0</ele><time>2026-05-01T10:40:37.208Z</time></trkpt><trkpt lat="43.6724" lon="11.53335"><ele>341.0</ele><time>2026-05-01T10:40:39.208Z</time></trkpt><trkpt lat="43.6725017" lon="11.533295"><ele>341.0</ele><time>2026-05-01T10:40:41.207Z</time></trkpt><trkpt lat="43.6725983" lon="11.5332417"><ele>341.0</ele><time>2026-05-01T10:40:43.207Z</time></trkpt><trkpt lat="43.672695" lon="11.5331917"><ele>341.0</ele><time>2026-05-01T10:40:45.208Z</time></trkpt><trkpt lat="43.6727917" lon="11.533145"><ele>341.0</ele><time>2026-05-01T10:40:47.208Z</time></trkpt><trkpt lat="43.6728917" lon="11.5330967"><ele>341.0</ele><time>2026-05-01T10:40:49.208Z</time></trkpt><trkpt lat="43.672985" lon="11.5330533"><ele>341.0</ele><time>2026-05-01T10:40:51.206Z</time></trkpt><trkpt lat="43.673075" lon="11.533015"><ele>342.8</ele><time>2026-05-01T10:40:53.209Z</time></trkpt><trkpt lat="43.6731583" lon="11.5329817"><ele>344.6</ele><time>2026-05-01T10:40:55.207Z</time></trkpt><trkpt lat="43.673245" lon="11.532965"><ele>346.4</ele><time>2026-05-01T10:40:57.206Z</time></trkpt><trkpt lat="43.6733283" lon="11.5329583"><ele>348.2</ele><time>2026-05-01T10:40:59.208Z</time></trkpt><trkpt lat="43.67342" lon="11.5329567"><ele>350.0</ele><time>2026-05-01T10:41:01.208Z</time></trkpt><trkpt lat="43.67352" lon="11.5329733"><ele>350.6</ele><time>2026-05-01T10:41:03.208Z</time></trkpt><trkpt lat="43.67361" lon="11.5329867"><ele>351.2</ele><time>2026-05-01T10:41:05.208Z</time></trkpt><trkpt lat="43.6737033" lon="11.5330133"><ele>351.79999999999995</ele><time>2026-05-01T10:41:07.208Z</time></trkpt><trkpt lat="43.673795" lon="11.5330317"><ele>352.4</ele><time>2026-05-01T10:41:09.208Z</time></trkpt><trkpt lat="43.6738917" lon="11.5330533"><ele>353.0</ele><time>2026-05-01T10:41:11.208Z</time></trkpt><trkpt lat="43.6739883" lon="11.5330783"><ele>353.0</ele><time>2026-05-01T10:41:13.209Z</time></trkpt><trkpt lat="43.6740783" lon="11.53311"><ele>353.0</ele><time>2026-05-01T10:41:15.207Z</time></trkpt><trkpt lat="43.67416" lon="11.5331433"><ele>353.0</ele><time>2026-05-01T10:41:17.209Z</time></trkpt><trkpt lat="43.6742383" lon="11.5331733"><ele>353.0</ele><time>2026-05-01T10:41:19.206Z</time></trkpt><trkpt lat="43.67432" lon="11.5332033"><ele>353.0</ele><time>2026-05-01T10:41:21.208Z</time></trkpt><trkpt lat="43.6744067" lon="11.533245"><ele>353.0</ele><time>2026-05-01T10:41:23.207Z</time></trkpt><trkpt lat="43.6744917" lon="11.5332983"><ele>352.83333333333337</ele><time>2026-05-01T10:41:25.208Z</time></trkpt><trkpt lat="43.6745717" lon="11.5333433"><ele>352.6666666666667</ele><time>2026-05-01T10:41:27.205Z</time></trkpt><trkpt lat="43.674645" lon="11.53339"><ele>352.5</ele><time>2026-05-01T10:41:29.207Z</time></trkpt><trkpt lat="43.6747233" lon="11.5334433"><ele>352.3333333333333</ele><time>2026-05-01T10:41:31.207Z</time></trkpt><trkpt lat="43.6748067" lon="11.5335117"><ele>352.16666666666663</ele><time>2026-05-01T10:41:33.207Z</time></trkpt><trkpt lat="43.6748867" lon="11.533575"><ele>352.0</ele><time>2026-05-01T10:41:35.207Z</time></trkpt><trkpt lat="43.6749683" lon="11.5336283"><ele>352.0</ele><time>2026-05-01T10:41:37.207Z</time></trkpt><trkpt lat="43.675055" lon="11.533675"><ele>352.0</ele><time>2026-05-01T10:41:39.207Z</time></trkpt><trkpt lat="43.67515" lon="11.5337017"><ele>352.0</ele><time>2026-05-01T10:41:41.205Z</time></trkpt><trkpt lat="43.6752467" lon="11.5337083"><ele>352.0</ele><time>2026-05-01T10:41:43.207Z</time></trkpt><trkpt lat="43.6753467" lon="11.5336867"><ele>352.0</ele><time>2026-05-01T10:41:45.206Z</time></trkpt><trkpt lat="43.6754467" lon="11.533625"><ele>354.75</ele><time>2026-05-01T10:41:47.207Z</time></trkpt><trkpt lat="43.675515" lon="11.5335"><ele>357.5</ele><time>2026-05-01T10:41:49.209Z</time></trkpt><trkpt lat="43.6755317" lon="11.5333383"><ele>360.25</ele><time>2026-05-01T10:41:51.207Z</time></trkpt><trkpt lat="43.6755117" lon="11.533175"><ele>363.0</ele><time>2026-05-01T10:41:53.209Z</time></trkpt><trkpt lat="43.6754917" lon="11.5330183"><ele>359.0</ele><time>2026-05-01T10:41:55.208Z</time></trkpt><trkpt lat="43.67551" lon="11.532855"><ele>355.0</ele><time>2026-05-01T10:41:57.207Z</time></trkpt><trkpt lat="43.6755783" lon="11.5327467"><ele>351.0</ele><time>2026-05-01T10:41:59.207Z</time></trkpt><trkpt lat="43.6756767" lon="11.5327"><ele>347.0</ele><time>2026-05-01T10:42:01.207Z</time></trkpt><trkpt lat="43.6758033" lon="11.5327267"><ele>347.0</ele><time>2026-05-01T10:42:03.207Z</time></trkpt><trkpt lat="43.67587" lon="11.5327617"><ele>347.0</ele><time>2026-05-01T10:42:04.208Z</time></trkpt><trkpt lat="43.6759367" lon="11.53279"><ele>347.0</ele><time>2026-05-01T10:42:05.21Z</time></trkpt><trkpt lat="43.6760083" lon="11.53282"><ele>347.0</ele><time>2026-05-01T10:42:06.21Z</time></trkpt><trkpt lat="43.676075" lon="11.5328467"><ele>347.0</ele><time>2026-05-01T10:42:07.209Z</time></trkpt><trkpt lat="43.67614" lon="11.5328767"><ele>347.0</ele><time>2026-05-01T10:42:08.207Z</time></trkpt><trkpt lat="43.6762033" lon="11.53291"><ele>347.0</ele><time>2026-05-01T10:42:09.209Z</time></trkpt><trkpt lat="43.6762667" lon="11.5329467"><ele>350.33333333333337</ele><time>2026-05-01T10:42:10.207Z</time></trkpt><trkpt lat="43.6763267" lon="11.5329833"><ele>353.6666666666667</ele><time>2026-05-01T10:42:11.207Z</time></trkpt><trkpt lat="43.676385" lon="11.5330217"><ele>357.0</ele><time>2026-05-01T10:42:12.207Z</time></trkpt><trkpt lat="43.6764433" lon="11.53306"><ele>360.3333333333333</ele><time>2026-05-01T10:42:13.209Z</time></trkpt><trkpt lat="43.6765567" lon="11.53314"><ele>363.66666666666663</ele><time>2026-05-01T10:42:15.208Z</time></trkpt><trkpt lat="43.6766133" lon="11.5331833"><ele>367.0</ele><time>2026-05-01T10:42:16.211Z</time></trkpt><trkpt lat="43.67667" lon="11.5332283"><ele>367.0</ele><time>2026-05-01T10:42:17.207Z</time></trkpt><trkpt lat="43.6767267" lon="11.53327"><ele>367.0</ele><time>2026-05-01T10:42:18.209Z</time></trkpt><trkpt lat="43.6768283" lon="11.533335"><ele>367.0</ele><time>2026-05-01T10:42:20.207Z</time></trkpt><trkpt lat="43.67694" lon="11.533415"><ele>367.0</ele><time>2026-05-01T10:42:22.208Z</time></trkpt><trkpt lat="43.6769967" lon="11.533455"><ele>367.0</ele><time>2026-05-01T10:42:23.21Z</time></trkpt><trkpt lat="43.6770517" lon="11.5334983"><ele>367.0</ele><time>2026-05-01T10:42:24.208Z</time></trkpt><trkpt lat="43.67716" lon="11.5335767"><ele>365.20000000000005</ele><time>2026-05-01T10:42:26.209Z</time></trkpt><trkpt lat="43.6772683" lon="11.53366"><ele>363.4</ele><time>2026-05-01T10:42:28.207Z</time></trkpt><trkpt lat="43.677325" lon="11.5337033"><ele>361.6</ele><time>2026-05-01T10:42:29.209Z</time></trkpt><trkpt lat="43.6773817" lon="11.5337483"><ele>359.79999999999995</ele><time>2026-05-01T10:42:30.209Z</time></trkpt><trkpt lat="43.6774917" lon="11.533835"><ele>358.0</ele><time>2026-05-01T10:42:32.209Z</time></trkpt><trkpt lat="43.6776" lon="11.5339117"><ele>360.25</ele><time>2026-05-01T10:42:34.208Z</time></trkpt><trkpt lat="43.67771" lon="11.5339783"><ele>362.5</ele><time>2026-05-01T10:42:36.207Z</time></trkpt><trkpt lat="43.6778183" lon="11.53406"><ele>364.75</ele><time>2026-05-01T10:42:38.207Z</time></trkpt><trkpt lat="43.67793" lon="11.5341333"><ele>367.0</ele><time>2026-05-01T10:42:40.21Z</time></trkpt><trkpt lat="43.6780417" lon="11.5342067"><ele>367.0</ele><time>2026-05-01T10:42:42.209Z</time></trkpt><trkpt lat="43.6781467" lon="11.5342833"><ele>367.0</ele><time>2026-05-01T10:42:44.208Z</time></trkpt><trkpt lat="43.6782533" lon="11.53436"><ele>367.0</ele><time>2026-05-01T10:42:46.207Z</time></trkpt><trkpt lat="43.6783467" lon="11.5344217"><ele>367.0</ele><time>2026-05-01T10:42:48.206Z</time></trkpt><trkpt lat="43.6784483" lon="11.534495"><ele>368.6</ele><time>2026-05-01T10:42:50.208Z</time></trkpt><trkpt lat="43.6785517" lon="11.5345733"><ele>370.20000000000005</ele><time>2026-05-01T10:42:52.208Z</time></trkpt><trkpt lat="43.6786533" lon="11.534645"><ele>371.8</ele><time>2026-05-01T10:42:54.208Z</time></trkpt><trkpt lat="43.6787417" lon="11.534715"><ele>373.4</ele><time>2026-05-01T10:42:56.209Z</time></trkpt><trkpt lat="43.6788333" lon="11.5347817"><ele>375.0</ele><time>2026-05-01T10:42:58.207Z</time></trkpt><trkpt lat="43.6789167" lon="11.534865"><ele>375.0</ele><time>2026-05-01T10:43:00.207Z</time></trkpt><trkpt lat="43.6790017" lon="11.53496"><ele>375.0</ele><time>2026-05-01T10:43:02.209Z</time></trkpt><trkpt lat="43.6790833" lon="11.5350467"><ele>375.0</ele><time>2026-05-01T10:43:04.208Z</time></trkpt><trkpt lat="43.6791667" lon="11.5351383"><ele>375.0</ele><time>2026-05-01T10:43:06.21Z</time></trkpt><trkpt lat="43.6792483" lon="11.53523"><ele>375.0</ele><time>2026-05-01T10:43:08.207Z</time></trkpt><trkpt lat="43.67933" lon="11.5353217"><ele>377.0</ele><time>2026-05-01T10:43:10.207Z</time></trkpt><trkpt lat="43.67942" lon="11.5354033"><ele>379.0</ele><time>2026-05-01T10:43:12.207Z</time></trkpt><trkpt lat="43.6795167" lon="11.5354583"><ele>381.0</ele><time>2026-05-01T10:43:14.209Z</time></trkpt><trkpt lat="43.6796117" lon="11.5354983"><ele>383.0</ele><time>2026-05-01T10:43:16.207Z</time></trkpt><trkpt lat="43.67971" lon="11.5355267"><ele>385.0</ele><time>2026-05-01T10:43:18.207Z</time></trkpt><trkpt lat="43.6798033" lon="11.5355483"><ele>385.0</ele><time>2026-05-01T10:43:20.208Z</time></trkpt><trkpt lat="43.6798983" lon="11.5355683"><ele>385.0</ele><time>2026-05-01T10:43:22.209Z</time></trkpt><trkpt lat="43.679985" lon="11.5355717"><ele>385.0</ele><time>2026-05-01T10:43:24.208Z</time></trkpt><trkpt lat="43.6800683" lon="11.5355767"><ele>385.0</ele><time>2026-05-01T10:43:26.209Z</time></trkpt><trkpt lat="43.6801567" lon="11.5355917"><ele>385.0</ele><time>2026-05-01T10:43:28.207Z</time></trkpt><trkpt lat="43.6802533" lon="11.5356083"><ele>384.2</ele><time>2026-05-01T10:43:30.209Z</time></trkpt><trkpt lat="43.680355" lon="11.535645"><ele>383.4</ele><time>2026-05-01T10:43:32.208Z</time></trkpt><trkpt lat="43.680445" lon="11.535695"><ele>382.6</ele><time>2026-05-01T10:43:34.209Z</time></trkpt><trkpt lat="43.6805417" lon="11.5357717"><ele>381.8</ele><time>2026-05-01T10:43:36.207Z</time></trkpt><trkpt lat="43.680625" lon="11.5358483"><ele>381.0</ele><time>2026-05-01T10:43:38.21Z</time></trkpt><trkpt lat="43.680705" lon="11.5359267"><ele>381.0</ele><time>2026-05-01T10:43:40.207Z</time></trkpt><trkpt lat="43.6807867" lon="11.5360067"><ele>381.0</ele><time>2026-05-01T10:43:42.207Z</time></trkpt><trkpt lat="43.68087" lon="11.5360867"><ele>381.0</ele><time>2026-05-01T10:43:44.207Z</time></trkpt><trkpt lat="43.6809383" lon="11.536175"><ele>381.0</ele><time>2026-05-01T10:43:46.208Z</time></trkpt><trkpt lat="43.6810083" lon="11.5362267"><ele>381.0</ele><time>2026-05-01T10:43:48.208Z</time></trkpt><trkpt lat="43.6810683" lon="11.536275"><ele>381.0</ele><time>2026-05-01T10:43:50.207Z</time></trkpt><trkpt lat="43.6811217" lon="11.5363233"><ele>382.5</ele><time>2026-05-01T10:43:52.207Z</time></trkpt><trkpt lat="43.6811917" lon="11.5363967"><ele>384.0</ele><time>2026-05-01T10:43:55.207Z</time></trkpt><trkpt lat="43.6812383" lon="11.5364567"><ele>385.5</ele><time>2026-05-01T10:43:57.208Z</time></trkpt><trkpt lat="43.6812867" lon="11.5365333"><ele>387.0</ele><time>2026-05-01T10:43:59.205Z</time></trkpt><trkpt lat="43.681345" lon="11.5365967"><ele>388.5</ele><time>2026-05-01T10:44:01.209Z</time></trkpt><trkpt lat="43.6814183" lon="11.536655"><ele>390.0</ele><time>2026-05-01T10:44:04.206Z</time></trkpt><trkpt lat="43.681475" lon="11.5367217"><ele>390.0</ele><time>2026-05-01T10:44:06.206Z</time></trkpt><trkpt lat="43.6815617" lon="11.5366783"><ele>390.0</ele><time>2026-05-01T10:44:09.207Z</time></trkpt><trkpt lat="43.68163" lon="11.536635"><ele>390.0</ele><time>2026-05-01T10:44:11.207Z</time></trkpt><trkpt lat="43.6817017" lon="11.5365867"><ele>390.0</ele><time>2026-05-01T10:44:13.209Z</time></trkpt><trkpt lat="43.681765" lon="11.536535"><ele>390.0</ele><time>2026-05-01T10:44:15.206Z</time></trkpt><trkpt lat="43.6818867" lon="11.536495"><ele>390.0</ele><time>2026-05-01T10:44:19.207Z</time></trkpt><trkpt lat="43.6819733" lon="11.5364783"><ele>390.6666666666667</ele><time>2026-05-01T10:44:22.206Z</time></trkpt><trkpt lat="43.6820683" lon="11.536465"><ele>391.33333333333337</ele><time>2026-05-01T10:44:27.211Z</time></trkpt><trkpt lat="43.68213" lon="11.53642"><ele>392.0</ele><time>2026-05-01T10:44:29.206Z</time></trkpt><trkpt lat="43.68221" lon="11.5363917"><ele>392.6666666666667</ele><time>2026-05-01T10:44:31.207Z</time></trkpt><trkpt lat="43.682285" lon="11.536355"><ele>393.33333333333337</ele><time>2026-05-01T10:44:34.205Z</time></trkpt><trkpt lat="43.6823433" lon="11.5363083"><ele>394.0</ele><time>2026-05-01T10:44:37.203Z</time></trkpt><trkpt lat="43.682485" lon="11.5362717"><ele>394.1666666666667</ele><time>2026-05-01T10:44:42.208Z</time></trkpt><trkpt lat="43.6825267" lon="11.5361967"><ele>394.33333333333337</ele><time>2026-05-01T10:44:44.205Z</time></trkpt><trkpt lat="43.6825533" lon="11.5361017"><ele>394.5</ele><time>2026-05-01T10:44:46.204Z</time></trkpt><trkpt lat="43.6825617" lon="11.5360017"><ele>394.66666666666663</ele><time>2026-05-01T10:44:48.207Z</time></trkpt><trkpt lat="43.6825567" lon="11.5358867"><ele>394.8333333333333</ele><time>2026-05-01T10:44:50.209Z</time></trkpt><trkpt lat="43.6825467" lon="11.53575"><ele>395.0</ele><time>2026-05-01T10:44:52.206Z</time></trkpt><trkpt lat="43.6825333" lon="11.5356133"><ele>394.99999999999994</ele><time>2026-05-01T10:44:54.207Z</time></trkpt><trkpt lat="43.682525" lon="11.535525"><ele>395.0</ele><time>2026-05-01T10:44:55.207Z</time></trkpt><trkpt lat="43.68252" lon="11.53536"><ele>395.0</ele><time>2026-05-01T10:44:57.207Z</time></trkpt><trkpt lat="43.682515" lon="11.5352567"><ele>395.0</ele><time>2026-05-01T10:44:58.209Z</time></trkpt><trkpt lat="43.6825067" lon="11.5351667"><ele>394.99999999999994</ele><time>2026-05-01T10:44:59.211Z</time></trkpt><trkpt lat="43.68246" lon="11.535015"><ele>395.0</ele><time>2026-05-01T10:45:01.209Z</time></trkpt><trkpt lat="43.682375" lon="11.53493"><ele>395.16666666666663</ele><time>2026-05-01T10:45:03.207Z</time></trkpt><trkpt lat="43.6823133" lon="11.53491"><ele>395.3333333333333</ele><time>2026-05-01T10:45:04.208Z</time></trkpt><trkpt lat="43.6822467" lon="11.5348767"><ele>395.5</ele><time>2026-05-01T10:45:05.207Z</time></trkpt><trkpt lat="43.6821783" lon="11.5348217"><ele>395.66666666666663</ele><time>2026-05-01T10:45:06.207Z</time></trkpt><trkpt lat="43.682115" lon="11.5347483"><ele>395.8333333333333</ele><time>2026-05-01T10:45:07.207Z</time></trkpt><trkpt lat="43.6820583" lon="11.5346733"><ele>396.0</ele><time>2026-05-01T10:45:08.208Z</time></trkpt><trkpt lat="43.6819983" lon="11.5345967"><ele>394.8</ele><time>2026-05-01T10:45:09.209Z</time></trkpt><trkpt lat="43.6819367" lon="11.5345033"><ele>393.6</ele><time>2026-05-01T10:45:10.208Z</time></trkpt><trkpt lat="43.6818717" lon="11.53442"><ele>392.4</ele><time>2026-05-01T10:45:11.207Z</time></trkpt><trkpt lat="43.6818067" lon="11.5343317"><ele>391.2</ele><time>2026-05-01T10:45:12.208Z</time></trkpt><trkpt lat="43.68174" lon="11.5342317"><ele>390.0</ele><time>2026-05-01T10:45:13.207Z</time></trkpt><trkpt lat="43.6816733" lon="11.5341267"><ele>389.0</ele><time>2026-05-01T10:45:14.209Z</time></trkpt><trkpt lat="43.681605" lon="11.5340167"><ele>388.0</ele><time>2026-05-01T10:45:15.209Z</time></trkpt><trkpt lat="43.68153" lon="11.5339117"><ele>387.0</ele><time>2026-05-01T10:45:16.206Z</time></trkpt><trkpt lat="43.681445" lon="11.5337967"><ele>386.0</ele><time>2026-05-01T10:45:17.207Z</time></trkpt><trkpt lat="43.6813683" lon="11.5336883"><ele>385.0</ele><time>2026-05-01T10:45:18.208Z</time></trkpt><trkpt lat="43.6812867" lon="11.5335783"><ele>384.75</ele><time>2026-05-01T10:45:19.207Z</time></trkpt><trkpt lat="43.6812033" lon="11.5334667"><ele>384.5</ele><time>2026-05-01T10:45:20.207Z</time></trkpt><trkpt lat="43.6811167" lon="11.5333517"><ele>384.25</ele><time>2026-05-01T10:45:21.207Z</time></trkpt><trkpt lat="43.6810317" lon="11.5332283"><ele>384.0</ele><time>2026-05-01T10:45:22.208Z</time></trkpt><trkpt lat="43.680945" lon="11.5330983"><ele>382.0</ele><time>2026-05-01T10:45:23.208Z</time></trkpt><trkpt lat="43.680855" lon="11.532975"><ele>380.0</ele><time>2026-05-01T10:45:24.208Z</time></trkpt><trkpt lat="43.6807667" lon="11.5328517"><ele>378.0</ele><time>2026-05-01T10:45:25.207Z</time></trkpt><trkpt lat="43.6806733" lon="11.532725"><ele>376.0</ele><time>2026-05-01T10:45:26.21Z</time></trkpt><trkpt lat="43.6805767" lon="11.532605"><ele>376.0</ele><time>2026-05-01T10:45:27.208Z</time></trkpt><trkpt lat="43.6804817" lon="11.5324883"><ele>376.0</ele><time>2026-05-01T10:45:28.207Z</time></trkpt><trkpt lat="43.6803867" lon="11.53237"><ele>376.0</ele><time>2026-05-01T10:45:29.207Z</time></trkpt><trkpt lat="43.6802883" lon="11.53225"><ele>376.0</ele><time>2026-05-01T10:45:30.208Z</time></trkpt><trkpt lat="43.680185" lon="11.5321383"><ele>374.25</ele><time>2026-05-01T10:45:31.207Z</time></trkpt><trkpt lat="43.68008" lon="11.532025"><ele>372.5</ele><time>2026-05-01T10:45:32.209Z</time></trkpt><trkpt lat="43.67997" lon="11.5319117"><ele>370.75</ele><time>2026-05-01T10:45:33.207Z</time></trkpt><trkpt lat="43.6798617" lon="11.531805"><ele>369.0</ele><time>2026-05-01T10:45:34.207Z</time></trkpt><trkpt lat="43.67975" lon="11.5316967"><ele>369.0</ele><time>2026-05-01T10:45:35.207Z</time></trkpt><trkpt lat="43.679635" lon="11.5315967"><ele>369.0</ele><time>2026-05-01T10:45:36.207Z</time></trkpt><trkpt lat="43.6795217" lon="11.531505"><ele>369.0</ele><time>2026-05-01T10:45:37.205Z</time></trkpt><trkpt lat="43.6794067" lon="11.53142"><ele>369.0</ele><time>2026-05-01T10:45:38.208Z</time></trkpt><trkpt lat="43.6792883" lon="11.5313467"><ele>367.75</ele><time>2026-05-01T10:45:39.207Z</time></trkpt><trkpt lat="43.679165" lon="11.531275"><ele>366.5</ele><time>2026-05-01T10:45:40.207Z</time></trkpt><trkpt lat="43.6790383" lon="11.53121"><ele>365.25</ele><time>2026-05-01T10:45:41.207Z</time></trkpt><trkpt lat="43.6789117" lon="11.531145"><ele>364.0</ele><time>2026-05-01T10:45:42.207Z</time></trkpt><trkpt lat="43.6787867" lon="11.53108"><ele>364.0</ele><time>2026-05-01T10:45:43.209Z</time></trkpt><trkpt lat="43.6786633" lon="11.5310183"><ele>364.0</ele><time>2026-05-01T10:45:44.206Z</time></trkpt><trkpt lat="43.678535" lon="11.5309483"><ele>364.0</ele><time>2026-05-01T10:45:45.207Z</time></trkpt><trkpt lat="43.6784167" lon="11.5308767"><ele>364.0</ele><time>2026-05-01T10:45:46.206Z</time></trkpt><trkpt lat="43.6783083" lon="11.53081"><ele>362.4</ele><time>2026-05-01T10:45:47.205Z</time></trkpt><trkpt lat="43.6782083" lon="11.530745"><ele>360.79999999999995</ele><time>2026-05-01T10:45:48.208Z</time></trkpt><trkpt lat="43.6781167" lon="11.5306883"><ele>359.20000000000005</ele><time>2026-05-01T10:45:49.209Z</time></trkpt><trkpt lat="43.6780283" lon="11.530635"><ele>357.6</ele><time>2026-05-01T10:45:50.207Z</time></trkpt><trkpt lat="43.6779483" lon="11.5305783"><ele>356.0</ele><time>2026-05-01T10:45:51.208Z</time></trkpt><trkpt lat="43.677875" lon="11.5305133"><ele>356.0</ele><time>2026-05-01T10:45:52.207Z</time></trkpt><trkpt lat="43.677815" lon="11.5304283"><ele>356.0</ele><time>2026-05-01T10:45:53.207Z</time></trkpt><trkpt lat="43.6777717" lon="11.53032"><ele>356.0</ele><time>2026-05-01T10:45:54.207Z</time></trkpt><trkpt lat="43.67776" lon="11.5302083"><ele>356.0</ele><time>2026-05-01T10:45:55.206Z</time></trkpt><trkpt lat="43.67776" lon="11.5301067"><ele>356.0</ele><time>2026-05-01T10:45:56.208Z</time></trkpt><trkpt lat="43.677755" lon="11.5300183"><ele>356.0</ele><time>2026-05-01T10:45:57.207Z</time></trkpt><trkpt lat="43.6777083" lon="11.5298817"><ele>355.6666666666667</ele><time>2026-05-01T10:45:59.207Z</time></trkpt><trkpt lat="43.6775883" lon="11.5298183"><ele>355.33333333333337</ele><time>2026-05-01T10:46:01.206Z</time></trkpt><trkpt lat="43.67752" lon="11.5297967"><ele>355.0</ele><time>2026-05-01T10:46:02.207Z</time></trkpt><trkpt lat="43.6774533" lon="11.5297667"><ele>354.6666666666667</ele><time>2026-05-01T10:46:03.209Z</time></trkpt><trkpt lat="43.6773833" lon="11.5297333"><ele>354.3333333333333</ele><time>2026-05-01T10:46:04.208Z</time></trkpt><trkpt lat="43.6773117" lon="11.5297"><ele>354.0</ele><time>2026-05-01T10:46:05.205Z</time></trkpt><trkpt lat="43.67724" lon="11.5296617"><ele>354.0</ele><time>2026-05-01T10:46:06.207Z</time></trkpt><trkpt lat="43.677165" lon="11.52962"><ele>354.0</ele><time>2026-05-01T10:46:07.209Z</time></trkpt><trkpt lat="43.677085" lon="11.529575"><ele>354.0</ele><time>2026-05-01T10:46:08.208Z</time></trkpt><trkpt lat="43.677" lon="11.52953"><ele>354.0</ele><time>2026-05-01T10:46:09.207Z</time></trkpt><trkpt lat="43.6769167" lon="11.52948"><ele>354.0</ele><time>2026-05-01T10:46:10.209Z</time></trkpt><trkpt lat="43.6768317" lon="11.529425"><ele>354.0</ele><time>2026-05-01T10:46:11.207Z</time></trkpt><trkpt lat="43.67675" lon="11.5293633"><ele>353.0</ele><time>2026-05-01T10:46:12.209Z</time></trkpt><trkpt lat="43.6766683" lon="11.5292917"><ele>352.0</ele><time>2026-05-01T10:46:13.206Z</time></trkpt><trkpt lat="43.6765867" lon="11.5292067"><ele>351.0</ele><time>2026-05-01T10:46:14.208Z</time></trkpt><trkpt lat="43.6765033" lon="11.5291133"><ele>350.0</ele><time>2026-05-01T10:46:15.208Z</time></trkpt><trkpt lat="43.6764233" lon="11.52902"><ele>349.0</ele><time>2026-05-01T10:46:16.208Z</time></trkpt><trkpt lat="43.6763517" lon="11.52893"><ele>349.0</ele><time>2026-05-01T10:46:17.207Z</time></trkpt><trkpt lat="43.6762867" lon="11.5288483"><ele>349.0</ele><time>2026-05-01T10:46:18.209Z</time></trkpt><trkpt lat="43.6762317" lon="11.5287733"><ele>349.0</ele><time>2026-05-01T10:46:19.208Z</time></trkpt><trkpt lat="43.67618" lon="11.5286983"><ele>349.0</ele><time>2026-05-01T10:46:20.208Z</time></trkpt><trkpt lat="43.6761317" lon="11.5286317"><ele>349.0</ele><time>2026-05-01T10:46:21.207Z</time></trkpt><trkpt lat="43.6760667" lon="11.528535"><ele>349.0</ele><time>2026-05-01T10:46:23.209Z</time></trkpt><trkpt lat="43.6760117" lon="11.52843"><ele>348.16666666666663</ele><time>2026-05-01T10:46:29.206Z</time></trkpt><trkpt lat="43.6759783" lon="11.5283483"><ele>347.3333333333333</ele><time>2026-05-01T10:46:31.207Z</time></trkpt><trkpt lat="43.6759167" lon="11.5282867"><ele>346.5</ele><time>2026-05-01T10:46:33.207Z</time></trkpt><trkpt lat="43.6758167" lon="11.528275"><ele>345.6666666666667</ele><time>2026-05-01T10:46:35.209Z</time></trkpt><trkpt lat="43.6757017" lon="11.5282333"><ele>344.83333333333337</ele><time>2026-05-01T10:46:37.207Z</time></trkpt><trkpt lat="43.6756367" lon="11.5282017"><ele>344.0</ele><time>2026-05-01T10:46:38.207Z</time></trkpt><trkpt lat="43.6755683" lon="11.5281667"><ele>344.0</ele><time>2026-05-01T10:46:39.207Z</time></trkpt><trkpt lat="43.6754983" lon="11.5281267"><ele>344.0</ele><time>2026-05-01T10:46:40.207Z</time></trkpt><trkpt lat="43.6754267" lon="11.52809"><ele>344.0</ele><time>2026-05-01T10:46:41.207Z</time></trkpt><trkpt lat="43.675355" lon="11.5280517"><ele>344.0</ele><time>2026-05-01T10:46:42.207Z</time></trkpt><trkpt lat="43.6752867" lon="11.528015"><ele>344.0</ele><time>2026-05-01T10:46:43.207Z</time></trkpt><trkpt lat="43.6751767" lon="11.5279567"><ele>344.0</ele><time>2026-05-01T10:46:45.208Z</time></trkpt><trkpt lat="43.67507" lon="11.527885"><ele>343.00000000000006</ele><time>2026-05-01T10:46:47.208Z</time></trkpt><trkpt lat="43.6750183" lon="11.5278283"><ele>342.0</ele><time>2026-05-01T10:46:48.207Z</time></trkpt><trkpt lat="43.6749717" lon="11.5277567"><ele>341.0</ele><time>2026-05-01T10:46:49.206Z</time></trkpt><trkpt lat="43.67494" lon="11.5276683"><ele>340.0</ele><time>2026-05-01T10:46:50.206Z</time></trkpt><trkpt lat="43.6749183" lon="11.5275717"><ele>339.0</ele><time>2026-05-01T10:46:51.207Z</time></trkpt><trkpt lat="43.6748983" lon="11.5274717"><ele>338.00000000000006</ele><time>2026-05-01T10:46:52.208Z</time></trkpt><trkpt lat="43.6748783" lon="11.5273717"><ele>337.0</ele><time>2026-05-01T10:46:53.209Z</time></trkpt><trkpt lat="43.6748567" lon="11.5272667"><ele>337.0</ele><time>2026-05-01T10:46:54.207Z</time></trkpt><trkpt lat="43.6748367" lon="11.5271567"><ele>337.0</ele><time>2026-05-01T10:46:55.207Z</time></trkpt><trkpt lat="43.674815" lon="11.527045"><ele>337.0</ele><time>2026-05-01T10:46:56.207Z</time></trkpt><trkpt lat="43.6747933" lon="11.526935"><ele>337.0</ele><time>2026-05-01T10:46:57.208Z</time></trkpt><trkpt lat="43.6747717" lon="11.5268217"><ele>337.0</ele><time>2026-05-01T10:46:58.207Z</time></trkpt><trkpt lat="43.6747483" lon="11.52671"><ele>337.0</ele><time>2026-05-01T10:46:59.207Z</time></trkpt><trkpt lat="43.674725" lon="11.5265933"><ele>336.66666666666663</ele><time>2026-05-01T10:47:00.207Z</time></trkpt><trkpt lat="43.6747033" lon="11.526475"><ele>336.3333333333333</ele><time>2026-05-01T10:47:01.208Z</time></trkpt><trkpt lat="43.6746783" lon="11.526355"><ele>336.0</ele><time>2026-05-01T10:47:02.208Z</time></trkpt><trkpt lat="43.6746533" lon="11.52624"><ele>335.6666666666667</ele><time>2026-05-01T10:47:03.204Z</time></trkpt><trkpt lat="43.6746317" lon="11.52613"><ele>335.33333333333337</ele><time>2026-05-01T10:47:04.205Z</time></trkpt><trkpt lat="43.67461" lon="11.52603"><ele>335.0</ele><time>2026-05-01T10:47:05.205Z</time></trkpt><trkpt lat="43.6745967" lon="11.5259383"><ele>334.6666666666667</ele><time>2026-05-01T10:47:06.205Z</time></trkpt><trkpt lat="43.6745883" lon="11.52585"><ele>334.33333333333337</ele><time>2026-05-01T10:47:07.205Z</time></trkpt><trkpt lat="43.6745483" lon="11.5257167"><ele>334.0</ele><time>2026-05-01T10:47:09.205Z</time></trkpt><trkpt lat="43.674455" lon="11.525685"><ele>333.6666666666667</ele><time>2026-05-01T10:47:11.207Z</time></trkpt><trkpt lat="43.6743917" lon="11.5257083"><ele>333.3333333333333</ele><time>2026-05-01T10:47:12.21Z</time></trkpt><trkpt lat="43.6743217" lon="11.5257383"><ele>333.0</ele><time>2026-05-01T10:47:13.206Z</time></trkpt><trkpt lat="43.6742483" lon="11.5257667"><ele>332.6666666666667</ele><time>2026-05-01T10:47:14.208Z</time></trkpt><trkpt lat="43.6741717" lon="11.5257933"><ele>332.3333333333333</ele><time>2026-05-01T10:47:15.206Z</time></trkpt><trkpt lat="43.67409" lon="11.5258233"><ele>332.0</ele><time>2026-05-01T10:47:16.207Z</time></trkpt><trkpt lat="43.6740083" lon="11.5258517"><ele>331.66666666666663</ele><time>2026-05-01T10:47:17.207Z</time></trkpt><trkpt lat="43.6739267" lon="11.5258817"><ele>331.3333333333333</ele><time>2026-05-01T10:47:18.208Z</time></trkpt><trkpt lat="43.6738417" lon="11.5259133"><ele>331.0</ele><time>2026-05-01T10:47:19.206Z</time></trkpt><trkpt lat="43.6737583" lon="11.5259483"><ele>331.0</ele><time>2026-05-01T10:47:20.208Z</time></trkpt><trkpt lat="43.6736733" lon="11.52598"><ele>331.0</ele><time>2026-05-01T10:47:21.207Z</time></trkpt><trkpt lat="43.673585" lon="11.5260167"><ele>331.0</ele><time>2026-05-01T10:47:22.208Z</time></trkpt><trkpt lat="43.6735" lon="11.526065"><ele>331.0</ele><time>2026-05-01T10:47:23.208Z</time></trkpt><trkpt lat="43.6734133" lon="11.52612"><ele>331.0</ele><time>2026-05-01T10:47:24.208Z</time></trkpt><trkpt lat="43.673325" lon="11.5261817"><ele>330.6</ele><time>2026-05-01T10:47:25.207Z</time></trkpt><trkpt lat="43.673235" lon="11.5262433"><ele>330.20000000000005</ele><time>2026-05-01T10:47:26.207Z</time></trkpt><trkpt lat="43.673145" lon="11.5263067"><ele>329.79999999999995</ele><time>2026-05-01T10:47:27.208Z</time></trkpt><trkpt lat="43.6730517" lon="11.52637"><ele>329.4</ele><time>2026-05-01T10:47:28.207Z</time></trkpt><trkpt lat="43.6729583" lon="11.5264333"><ele>329.0</ele><time>2026-05-01T10:47:29.208Z</time></trkpt><trkpt lat="43.6728667" lon="11.526495"><ele>329.0</ele><time>2026-05-01T10:47:30.208Z</time></trkpt><trkpt lat="43.6727783" lon="11.52656"><ele>329.0</ele><time>2026-05-01T10:47:31.209Z</time></trkpt><trkpt lat="43.6726933" lon="11.5266317"><ele>329.0</ele><time>2026-05-01T10:47:32.209Z</time></trkpt><trkpt lat="43.6726167" lon="11.5267133"><ele>329.0</ele><time>2026-05-01T10:47:33.207Z</time></trkpt><trkpt lat="43.6725433" lon="11.5268"><ele>329.0</ele><time>2026-05-01T10:47:34.207Z</time></trkpt><trkpt lat="43.6724767" lon="11.5269017"><ele>329.2</ele><time>2026-05-01T10:47:35.208Z</time></trkpt><trkpt lat="43.6724183" lon="11.52701"><ele>329.4</ele><time>2026-05-01T10:47:36.207Z</time></trkpt><trkpt lat="43.672365" lon="11.52712"><ele>329.6</ele><time>2026-05-01T10:47:37.208Z</time></trkpt><trkpt lat="43.6723117" lon="11.5272317"><ele>329.8</ele><time>2026-05-01T10:47:38.207Z</time></trkpt><trkpt lat="43.6722567" lon="11.5273383"><ele>330.0</ele><time>2026-05-01T10:47:39.21Z</time></trkpt><trkpt lat="43.6722033" lon="11.5274417"><ele>330.0</ele><time>2026-05-01T10:47:40.207Z</time></trkpt><trkpt lat="43.67215" lon="11.527545"><ele>330.0</ele><time>2026-05-01T10:47:41.21Z</time></trkpt><trkpt lat="43.6720883" lon="11.5276417"><ele>330.0</ele><time>2026-05-01T10:47:42.208Z</time></trkpt><trkpt lat="43.6720183" lon="11.527725"><ele>330.0</ele><time>2026-05-01T10:47:43.209Z</time></trkpt><trkpt lat="43.6719283" lon="11.5277833"><ele>330.0</ele><time>2026-05-01T10:47:44.21Z</time></trkpt><trkpt lat="43.67183" lon="11.5278183"><ele>329.2</ele><time>2026-05-01T10:47:45.208Z</time></trkpt><trkpt lat="43.6717367" lon="11.5278283"><ele>328.4</ele><time>2026-05-01T10:47:46.207Z</time></trkpt><trkpt lat="43.671635" lon="11.52782"><ele>327.6</ele><time>2026-05-01T10:47:47.207Z</time></trkpt><trkpt lat="43.671535" lon="11.527805"><ele>326.8</ele><time>2026-05-01T10:47:48.208Z</time></trkpt><trkpt lat="43.6714283" lon="11.52779"><ele>326.0</ele><time>2026-05-01T10:47:49.208Z</time></trkpt><trkpt lat="43.6713233" lon="11.5277783"><ele>326.0</ele><time>2026-05-01T10:47:50.21Z</time></trkpt><trkpt lat="43.6712167" lon="11.5277667"><ele>326.0</ele><time>2026-05-01T10:47:51.208Z</time></trkpt><trkpt lat="43.6711083" lon="11.5277533"><ele>326.0</ele><time>2026-05-01T10:47:52.206Z</time></trkpt><trkpt lat="43.6710033" lon="11.5277383"><ele>326.0</ele><time>2026-05-01T10:47:53.209Z</time></trkpt><trkpt lat="43.6708967" lon="11.5277233"><ele>326.0</ele><time>2026-05-01T10:47:54.206Z</time></trkpt><trkpt lat="43.6707867" lon="11.5277067"><ele>324.25</ele><time>2026-05-01T10:47:55.206Z</time></trkpt><trkpt lat="43.67067" lon="11.52769"><ele>322.5</ele><time>2026-05-01T10:47:56.207Z</time></trkpt><trkpt lat="43.6705517" lon="11.527675"><ele>320.75</ele><time>2026-05-01T10:47:57.208Z</time></trkpt><trkpt lat="43.670435" lon="11.52766"><ele>319.0</ele><time>2026-05-01T10:47:58.207Z</time></trkpt><trkpt lat="43.67032" lon="11.52764"><ele>317.8</ele><time>2026-05-01T10:47:59.207Z</time></trkpt><trkpt lat="43.6702117" lon="11.5276117"><ele>316.59999999999997</ele><time>2026-05-01T10:48:00.208Z</time></trkpt><trkpt lat="43.6701067" lon="11.52756"><ele>315.4</ele><time>2026-05-01T10:48:01.207Z</time></trkpt><trkpt lat="43.6700017" lon="11.5274983"><ele>314.2</ele><time>2026-05-01T10:48:02.208Z</time></trkpt><trkpt lat="43.6699017" lon="11.527435"><ele>313.0</ele><time>2026-05-01T10:48:03.207Z</time></trkpt><trkpt lat="43.6698" lon="11.5273683"><ele>313.0</ele><time>2026-05-01T10:48:04.207Z</time></trkpt><trkpt lat="43.6697" lon="11.5272933"><ele>313.0</ele><time>2026-05-01T10:48:05.205Z</time></trkpt><trkpt lat="43.669605" lon="11.52721"><ele>313.0</ele><time>2026-05-01T10:48:06.207Z</time></trkpt><trkpt lat="43.6695117" lon="11.5271183"><ele>313.0</ele><time>2026-05-01T10:48:07.206Z</time></trkpt><trkpt lat="43.6694217" lon="11.5270267"><ele>313.0</ele><time>2026-05-01T10:48:08.209Z</time></trkpt><trkpt lat="43.6693333" lon="11.52693"><ele>313.0</ele><time>2026-05-01T10:48:09.206Z</time></trkpt><trkpt lat="43.66925" lon="11.5268333"><ele>313.0</ele><time>2026-05-01T10:48:10.206Z</time></trkpt><trkpt lat="43.669165" lon="11.5267333"><ele>313.0</ele><time>2026-05-01T10:48:11.208Z</time></trkpt><trkpt lat="43.66908" lon="11.5266317"><ele>313.0</ele><time>2026-05-01T10:48:12.207Z</time></trkpt><trkpt lat="43.6689967" lon="11.5265283"><ele>313.0</ele><time>2026-05-01T10:48:13.206Z</time></trkpt><trkpt lat="43.6689083" lon="11.5264317"><ele>313.0</ele><time>2026-05-01T10:48:14.208Z</time></trkpt><trkpt lat="43.6688117" lon="11.52634"><ele>313.0</ele><time>2026-05-01T10:48:15.209Z</time></trkpt><trkpt lat="43.668715" lon="11.5262483"><ele>313.0</ele><time>2026-05-01T10:48:16.208Z</time></trkpt><trkpt lat="43.6686233" lon="11.5261533"><ele>311.5</ele><time>2026-05-01T10:48:17.206Z</time></trkpt><trkpt lat="43.6685267" lon="11.5260517"><ele>310.0</ele><time>2026-05-01T10:48:18.207Z</time></trkpt><trkpt lat="43.6684267" lon="11.52595"><ele>308.5</ele><time>2026-05-01T10:48:19.205Z</time></trkpt><trkpt lat="43.6683233" lon="11.5258517"><ele>307.0</ele><time>2026-05-01T10:48:20.209Z</time></trkpt><trkpt lat="43.66822" lon="11.5257533"><ele>307.0</ele><time>2026-05-01T10:48:21.208Z</time></trkpt><trkpt lat="43.6681117" lon="11.52566"><ele>307.0</ele><time>2026-05-01T10:48:22.207Z</time></trkpt><trkpt lat="43.6679983" lon="11.5255733"><ele>307.0</ele><time>2026-05-01T10:48:23.207Z</time></trkpt><trkpt lat="43.6678833" lon="11.5254883"><ele>307.0</ele><time>2026-05-01T10:48:24.208Z</time></trkpt><trkpt lat="43.6677667" lon="11.525405"><ele>306.25</ele><time>2026-05-01T10:48:25.207Z</time></trkpt><trkpt lat="43.6676517" lon="11.52532"><ele>305.5</ele><time>2026-05-01T10:48:26.208Z</time></trkpt><trkpt lat="43.6675367" lon="11.525235"><ele>304.75</ele><time>2026-05-01T10:48:27.207Z</time></trkpt><trkpt lat="43.6674217" lon="11.52515"><ele>304.0</ele><time>2026-05-01T10:48:28.209Z</time></trkpt><trkpt lat="43.6673083" lon="11.5250667"><ele>304.0</ele><time>2026-05-01T10:48:29.207Z</time></trkpt><trkpt lat="43.6671983" lon="11.5249733"><ele>304.0</ele><time>2026-05-01T10:48:30.207Z</time></trkpt><trkpt lat="43.6670867" lon="11.5248833"><ele>304.0</ele><time>2026-05-01T10:48:31.207Z</time></trkpt><trkpt lat="43.6669717" lon="11.5247983"><ele>304.0</ele><time>2026-05-01T10:48:32.208Z</time></trkpt><trkpt lat="43.6668533" lon="11.5247217"><ele>302.75</ele><time>2026-05-01T10:48:33.207Z</time></trkpt><trkpt lat="43.6667283" lon="11.5246483"><ele>301.5</ele><time>2026-05-01T10:48:34.207Z</time></trkpt><trkpt lat="43.6666017" lon="11.5245767"><ele>300.25</ele><time>2026-05-01T10:48:35.207Z</time></trkpt><trkpt lat="43.6664767" lon="11.5245067"><ele>299.0</ele><time>2026-05-01T10:48:36.207Z</time></trkpt><trkpt lat="43.6663533" lon="11.524435"><ele>298.5</ele><time>2026-05-01T10:48:37.208Z</time></trkpt><trkpt lat="43.6662317" lon="11.524365"><ele>298.0</ele><time>2026-05-01T10:48:38.207Z</time></trkpt><trkpt lat="43.6661117" lon="11.5242967"><ele>297.5</ele><time>2026-05-01T10:48:39.207Z</time></trkpt><trkpt lat="43.6659867" lon="11.5242317"><ele>297.0</ele><time>2026-05-01T10:48:40.208Z</time></trkpt><trkpt lat="43.6658617" lon="11.524175"><ele>296.5</ele><time>2026-05-01T10:48:41.207Z</time></trkpt><trkpt lat="43.665735" lon="11.5241167"><ele>296.0</ele><time>2026-05-01T10:48:42.207Z</time></trkpt><trkpt lat="43.665605" lon="11.5240567"><ele>295.5</ele><time>2026-05-01T10:48:43.209Z</time></trkpt><trkpt lat="43.66548" lon="11.523995"><ele>295.0</ele><time>2026-05-01T10:48:44.209Z</time></trkpt><trkpt lat="43.6653567" lon="11.5239283"><ele>294.0</ele><time>2026-05-01T10:48:45.207Z</time></trkpt><trkpt lat="43.6652317" lon="11.5238583"><ele>293.0</ele><time>2026-05-01T10:48:46.207Z</time></trkpt><trkpt lat="43.6651083" lon="11.523785"><ele>292.0</ele><time>2026-05-01T10:48:47.208Z</time></trkpt><trkpt lat="43.6649867" lon="11.5237133"><ele>291.0</ele><time>2026-05-01T10:48:48.208Z</time></trkpt><trkpt lat="43.6648667" lon="11.5236367"><ele>291.0</ele><time>2026-05-01T10:48:49.208Z</time></trkpt><trkpt lat="43.6647467" lon="11.5235567"><ele>291.0</ele><time>2026-05-01T10:48:50.208Z</time></trkpt><trkpt lat="43.66463" lon="11.523475"><ele>291.0</ele><time>2026-05-01T10:48:51.206Z</time></trkpt><trkpt lat="43.6645167" lon="11.5233883"><ele>291.0</ele><time>2026-05-01T10:48:52.208Z</time></trkpt><trkpt lat="43.664405" lon="11.5232983"><ele>290.0</ele><time>2026-05-01T10:48:53.209Z</time></trkpt><trkpt lat="43.6642933" lon="11.5232017"><ele>289.0</ele><time>2026-05-01T10:48:54.207Z</time></trkpt><trkpt lat="43.6641883" lon="11.5230983"><ele>288.0</ele><time>2026-05-01T10:48:55.206Z</time></trkpt><trkpt lat="43.6640883" lon="11.5229883"><ele>287.0</ele><time>2026-05-01T10:48:56.208Z</time></trkpt><trkpt lat="43.66399" lon="11.52287"><ele>286.5</ele><time>2026-05-01T10:48:57.208Z</time></trkpt><trkpt lat="43.6638967" lon="11.5227517"><ele>286.0</ele><time>2026-05-01T10:48:58.207Z</time></trkpt><trkpt lat="43.6638067" lon="11.5226383"><ele>285.5</ele><time>2026-05-01T10:48:59.207Z</time></trkpt><trkpt lat="43.6637183" lon="11.5225267"><ele>285.0</ele><time>2026-05-01T10:49:00.206Z</time></trkpt><trkpt lat="43.66363" lon="11.52242"><ele>284.75</ele><time>2026-05-01T10:49:01.208Z</time></trkpt><trkpt lat="43.6635467" lon="11.5223133"><ele>284.5</ele><time>2026-05-01T10:49:02.207Z</time></trkpt><trkpt lat="43.6634683" lon="11.5221983"><ele>284.25</ele><time>2026-05-01T10:49:03.21Z</time></trkpt><trkpt lat="43.66339" lon="11.5220767"><ele>284.0</ele><time>2026-05-01T10:49:04.21Z</time></trkpt><trkpt lat="43.6633133" lon="11.5219567"><ele>283.5</ele><time>2026-05-01T10:49:05.207Z</time></trkpt><trkpt lat="43.663235" lon="11.521835"><ele>283.0</ele><time>2026-05-01T10:49:06.207Z</time></trkpt><trkpt lat="43.663155" lon="11.521715"><ele>282.5</ele><time>2026-05-01T10:49:07.206Z</time></trkpt><trkpt lat="43.6630767" lon="11.5215917"><ele>282.0</ele><time>2026-05-01T10:49:08.21Z</time></trkpt><trkpt lat="43.662995" lon="11.5214733"><ele>282.0</ele><time>2026-05-01T10:49:09.208Z</time></trkpt><trkpt lat="43.6629067" lon="11.5213667"><ele>282.0</ele><time>2026-05-01T10:49:10.208Z</time></trkpt><trkpt lat="43.662805" lon="11.5212833"><ele>282.0</ele><time>2026-05-01T10:49:11.208Z</time></trkpt><trkpt lat="43.6626917" lon="11.5212317"><ele>282.0</ele><time>2026-05-01T10:49:12.207Z</time></trkpt><trkpt lat="43.6625767" lon="11.5212117"><ele>281.25</ele><time>2026-05-01T10:49:13.207Z</time></trkpt><trkpt lat="43.6624583" lon="11.5212167"><ele>280.5</ele><time>2026-05-01T10:49:14.209Z</time></trkpt><trkpt lat="43.6623383" lon="11.5212283"><ele>279.75</ele><time>2026-05-01T10:49:15.206Z</time></trkpt><trkpt lat="43.662215" lon="11.52124"><ele>279.0</ele><time>2026-05-01T10:49:16.208Z</time></trkpt><trkpt lat="43.6620917" lon="11.521245"><ele>279.0</ele><time>2026-05-01T10:49:17.208Z</time></trkpt><trkpt lat="43.6619667" lon="11.521235"><ele>279.0</ele><time>2026-05-01T10:49:18.207Z</time></trkpt><trkpt lat="43.6618417" lon="11.521205"><ele>279.0</ele><time>2026-05-01T10:49:19.207Z</time></trkpt><trkpt lat="43.6617217" lon="11.5211567"><ele>279.0</ele><time>2026-05-01T10:49:20.208Z</time></trkpt><trkpt lat="43.6616033" lon="11.5210867"><ele>278.25</ele><time>2026-05-01T10:49:21.207Z</time></trkpt><trkpt lat="43.6614883" lon="11.521"><ele>277.5</ele><time>2026-05-01T10:49:22.208Z</time></trkpt><trkpt lat="43.6613767" lon="11.5209067"><ele>276.75</ele><time>2026-05-01T10:49:23.207Z</time></trkpt><trkpt lat="43.661265" lon="11.5208083"><ele>276.0</ele><time>2026-05-01T10:49:24.208Z</time></trkpt><trkpt lat="43.6611533" lon="11.5207117"><ele>274.75</ele><time>2026-05-01T10:49:25.207Z</time></trkpt><trkpt lat="43.66104" lon="11.5206133"><ele>273.5</ele><time>2026-05-01T10:49:26.208Z</time></trkpt><trkpt lat="43.66093" lon="11.520525"><ele>272.25</ele><time>2026-05-01T10:49:27.207Z</time></trkpt><trkpt lat="43.6608167" lon="11.5204333"><ele>271.0</ele><time>2026-05-01T10:49:28.208Z</time></trkpt><trkpt lat="43.6607117" lon="11.5203317"><ele>271.0</ele><time>2026-05-01T10:49:29.207Z</time></trkpt><trkpt lat="43.6606167" lon="11.52021"><ele>271.0</ele><time>2026-05-01T10:49:30.209Z</time></trkpt><trkpt lat="43.6605233" lon="11.5200733"><ele>271.0</ele><time>2026-05-01T10:49:31.209Z</time></trkpt><trkpt lat="43.6604367" lon="11.519935"><ele>271.0</ele><time>2026-05-01T10:49:32.207Z</time></trkpt><trkpt lat="43.6603533" lon="11.5197983"><ele>270.5</ele><time>2026-05-01T10:49:33.21Z</time></trkpt><trkpt lat="43.6602717" lon="11.5196767"><ele>270.0</ele><time>2026-05-01T10:49:34.208Z</time></trkpt><trkpt lat="43.66018" lon="11.5195733"><ele>269.5</ele><time>2026-05-01T10:49:35.207Z</time></trkpt><trkpt lat="43.6600717" lon="11.5195033"><ele>269.0</ele><time>2026-05-01T10:49:36.209Z</time></trkpt><trkpt lat="43.65995" lon="11.5194717"><ele>269.0</ele><time>2026-05-01T10:49:37.207Z</time></trkpt><trkpt lat="43.6598217" lon="11.5194767"><ele>269.0</ele><time>2026-05-01T10:49:38.209Z</time></trkpt><trkpt lat="43.6596917" lon="11.5195083"><ele>269.0</ele><time>2026-05-01T10:49:39.206Z</time></trkpt><trkpt lat="43.659565" lon="11.519555"><ele>269.0</ele><time>2026-05-01T10:49:40.209Z</time></trkpt><trkpt lat="43.6594383" lon="11.5196133"><ele>265.75</ele><time>2026-05-01T10:49:41.207Z</time></trkpt><trkpt lat="43.65931" lon="11.5196767"><ele>262.5</ele><time>2026-05-01T10:49:42.208Z</time></trkpt><trkpt lat="43.6591817" lon="11.5197517"><ele>259.25</ele><time>2026-05-01T10:49:43.207Z</time></trkpt><trkpt lat="43.6590567" lon="11.519835"><ele>256.0</ele><time>2026-05-01T10:49:44.208Z</time></trkpt><trkpt lat="43.6589333" lon="11.5199083"><ele>256.0</ele><time>2026-05-01T10:49:45.209Z</time></trkpt><trkpt lat="43.6588" lon="11.51996"><ele>256.0</ele><time>2026-05-01T10:49:46.208Z</time></trkpt><trkpt lat="43.6586733" lon="11.5199983"><ele>256.0</ele><time>2026-05-01T10:49:47.207Z</time></trkpt><trkpt lat="43.6585533" lon="11.520025"><ele>256.0</ele><time>2026-05-01T10:49:48.207Z</time></trkpt><trkpt lat="43.6584467" lon="11.52004"><ele>254.4</ele><time>2026-05-01T10:49:49.207Z</time></trkpt><trkpt lat="43.6583417" lon="11.5200283"><ele>252.8</ele><time>2026-05-01T10:49:50.208Z</time></trkpt><trkpt lat="43.6582483" lon="11.51998"><ele>251.20000000000002</ele><time>2026-05-01T10:49:51.208Z</time></trkpt><trkpt lat="43.6581583" lon="11.5198817"><ele>249.60000000000002</ele><time>2026-05-01T10:49:52.21Z</time></trkpt><trkpt lat="43.6580867" lon="11.51975"><ele>248.0</ele><time>2026-05-01T10:49:53.209Z</time></trkpt><trkpt lat="43.65803" lon="11.51961"><ele>245.75</ele><time>2026-05-01T10:49:54.208Z</time></trkpt><trkpt lat="43.6579633" lon="11.5194733"><ele>243.5</ele><time>2026-05-01T10:49:55.207Z</time></trkpt><trkpt lat="43.6578783" lon="11.519355"><ele>241.25</ele><time>2026-05-01T10:49:56.209Z</time></trkpt><trkpt lat="43.6577817" lon="11.519265"><ele>239.0</ele><time>2026-05-01T10:49:57.209Z</time></trkpt><trkpt lat="43.65768" lon="11.51918"><ele>239.0</ele><time>2026-05-01T10:49:58.208Z</time></trkpt><trkpt lat="43.6575783" lon="11.5190783"><ele>239.0</ele><time>2026-05-01T10:49:59.208Z</time></trkpt><trkpt lat="43.6574867" lon="11.518955"><ele>239.0</ele><time>2026-05-01T10:50:00.208Z</time></trkpt><trkpt lat="43.6573967" lon="11.518825"><ele>239.0</ele><time>2026-05-01T10:50:01.209Z</time></trkpt><trkpt lat="43.6572967" lon="11.5187083"><ele>238.75</ele><time>2026-05-01T10:50:02.207Z</time></trkpt><trkpt lat="43.6571817" lon="11.5186367"><ele>238.5</ele><time>2026-05-01T10:50:03.208Z</time></trkpt><trkpt lat="43.6570617" lon="11.5185983"><ele>238.25</ele><time>2026-05-01T10:50:04.207Z</time></trkpt><trkpt lat="43.6569333" lon="11.5185683"><ele>238.0</ele><time>2026-05-01T10:50:05.207Z</time></trkpt><trkpt lat="43.656805" lon="11.518505"><ele>238.0</ele><time>2026-05-01T10:50:06.208Z</time></trkpt><trkpt lat="43.65668" lon="11.51841"><ele>238.0</ele><time>2026-05-01T10:50:07.209Z</time></trkpt><trkpt lat="43.6565583" lon="11.5183017"><ele>238.0</ele><time>2026-05-01T10:50:08.209Z</time></trkpt><trkpt lat="43.6564383" lon="11.5181883"><ele>238.0</ele><time>2026-05-01T10:50:09.21Z</time></trkpt><trkpt lat="43.6563117" lon="11.51808"><ele>238.0</ele><time>2026-05-01T10:50:10.208Z</time></trkpt><trkpt lat="43.6561817" lon="11.5179867"><ele>238.0</ele><time>2026-05-01T10:50:11.207Z</time></trkpt><trkpt lat="43.6560483" lon="11.517905"><ele>238.0</ele><time>2026-05-01T10:50:12.207Z</time></trkpt><trkpt lat="43.6559117" lon="11.517825"><ele>238.0</ele><time>2026-05-01T10:50:13.208Z</time></trkpt><trkpt lat="43.6557733" lon="11.5177483"><ele>238.0</ele><time>2026-05-01T10:50:14.209Z</time></trkpt><trkpt lat="43.6556333" lon="11.5176517"><ele>238.0</ele><time>2026-05-01T10:50:15.207Z</time></trkpt><trkpt lat="43.6555" lon="11.5175433"><ele>238.0</ele><time>2026-05-01T10:50:16.208Z</time></trkpt><trkpt lat="43.6553733" lon="11.5174133"><ele>235.0</ele><time>2026-05-01T10:50:17.207Z</time></trkpt><trkpt lat="43.6552467" lon="11.5172783"><ele>232.0</ele><time>2026-05-01T10:50:18.208Z</time></trkpt><trkpt lat="43.655115" lon="11.5171517"><ele>229.0</ele><time>2026-05-01T10:50:19.209Z</time></trkpt><trkpt lat="43.65498" lon="11.5170217"><ele>229.0</ele><time>2026-05-01T10:50:20.209Z</time></trkpt><trkpt lat="43.6548433" lon="11.5168983"><ele>229.0</ele><time>2026-05-01T10:50:21.208Z</time></trkpt><trkpt lat="43.6547" lon="11.5167883"><ele>229.0</ele><time>2026-05-01T10:50:22.208Z</time></trkpt><trkpt lat="43.65455" lon="11.5166917"><ele>224.33333333333331</ele><time>2026-05-01T10:50:23.207Z</time></trkpt><trkpt lat="43.6544" lon="11.5166"><ele>219.66666666666669</ele><time>2026-05-01T10:50:24.207Z</time></trkpt><trkpt lat="43.6542533" lon="11.5165217"><ele>215.0</ele><time>2026-05-01T10:50:25.207Z</time></trkpt><trkpt lat="43.65411" lon="11.5164367"><ele>215.0</ele><time>2026-05-01T10:50:26.207Z</time></trkpt><trkpt lat="43.6539683" lon="11.5163533"><ele>215.0</ele><time>2026-05-01T10:50:27.207Z</time></trkpt><trkpt lat="43.6538267" lon="11.5162683"><ele>215.0</ele><time>2026-05-01T10:50:28.209Z</time></trkpt><trkpt lat="43.6536967" lon="11.5161783"><ele>213.5</ele><time>2026-05-01T10:50:29.209Z</time></trkpt><trkpt lat="43.65358" lon="11.5160883"><ele>212.0</ele><time>2026-05-01T10:50:30.208Z</time></trkpt><trkpt lat="43.6534817" lon="11.515985"><ele>210.5</ele><time>2026-05-01T10:50:31.209Z</time></trkpt><trkpt lat="43.6533983" lon="11.515865"><ele>209.0</ele><time>2026-05-01T10:50:32.206Z</time></trkpt><trkpt lat="43.6533317" lon="11.5157183"><ele>209.0</ele><time>2026-05-01T10:50:33.206Z</time></trkpt><trkpt lat="43.6532867" lon="11.5155583"><ele>209.0</ele><time>2026-05-01T10:50:34.208Z</time></trkpt><trkpt lat="43.65325" lon="11.515395"><ele>209.0</ele><time>2026-05-01T10:50:35.207Z</time></trkpt><trkpt lat="43.6532017" lon="11.51524"><ele>209.0</ele><time>2026-05-01T10:50:36.209Z</time></trkpt><trkpt lat="43.6531317" lon="11.51511"><ele>207.75</ele><time>2026-05-01T10:50:37.208Z</time></trkpt><trkpt lat="43.65304" lon="11.5150117"><ele>206.5</ele><time>2026-05-01T10:50:38.209Z</time></trkpt><trkpt lat="43.6529383" lon="11.5149383"><ele>205.25</ele><time>2026-05-01T10:50:39.208Z</time></trkpt><trkpt lat="43.65283" lon="11.514885"><ele>204.0</ele><time>2026-05-01T10:50:40.206Z</time></trkpt><trkpt lat="43.6527133" lon="11.514845"><ele>204.0</ele><time>2026-05-01T10:50:41.207Z</time></trkpt><trkpt lat="43.6525967" lon="11.514805"><ele>204.0</ele><time>2026-05-01T10:50:42.208Z</time></trkpt><trkpt lat="43.6524767" lon="11.5147617"><ele>204.0</ele><time>2026-05-01T10:50:43.207Z</time></trkpt><trkpt lat="43.65235" lon="11.51471"><ele>204.0</ele><time>2026-05-01T10:50:44.21Z</time></trkpt><trkpt lat="43.6522267" lon="11.5146383"><ele>204.5</ele><time>2026-05-01T10:50:45.207Z</time></trkpt><trkpt lat="43.6521083" lon="11.514545"><ele>205.0</ele><time>2026-05-01T10:50:46.207Z</time></trkpt><trkpt lat="43.6519883" lon="11.51444"><ele>205.5</ele><time>2026-05-01T10:50:47.208Z</time></trkpt><trkpt lat="43.6518683" lon="11.5143317"><ele>206.0</ele><time>2026-05-01T10:50:48.207Z</time></trkpt><trkpt lat="43.6517417" lon="11.5142367"><ele>206.0</ele><time>2026-05-01T10:50:49.209Z</time></trkpt><trkpt lat="43.6516117" lon="11.514145"><ele>206.0</ele><time>2026-05-01T10:50:50.208Z</time></trkpt><trkpt lat="43.6514817" lon="11.5140667"><ele>206.0</ele><time>2026-05-01T10:50:51.209Z</time></trkpt><trkpt lat="43.65135" lon="11.51399"><ele>206.0</ele><time>2026-05-01T10:50:52.209Z</time></trkpt><trkpt lat="43.6512183" lon="11.51392"><ele>208.5</ele><time>2026-05-01T10:50:53.208Z</time></trkpt><trkpt lat="43.6510817" lon="11.5138433"><ele>211.0</ele><time>2026-05-01T10:50:54.207Z</time></trkpt><trkpt lat="43.6509483" lon="11.5137583"><ele>213.5</ele><time>2026-05-01T10:50:55.21Z</time></trkpt><trkpt lat="43.6508183" lon="11.5136633"><ele>216.0</ele><time>2026-05-01T10:50:56.21Z</time></trkpt><trkpt lat="43.65069" lon="11.5135533"><ele>216.0</ele><time>2026-05-01T10:50:57.208Z</time></trkpt><trkpt lat="43.6505683" lon="11.5134333"><ele>216.0</ele><time>2026-05-01T10:50:58.207Z</time></trkpt><trkpt lat="43.65045" lon="11.5133067"><ele>216.0</ele><time>2026-05-01T10:50:59.207Z</time></trkpt><trkpt lat="43.65034" lon="11.51318"><ele>216.0</ele><time>2026-05-01T10:51:00.206Z</time></trkpt><trkpt lat="43.6502367" lon="11.5130567"><ele>212.0</ele><time>2026-05-01T10:51:01.21Z</time></trkpt><trkpt lat="43.6501433" lon="11.5129333"><ele>208.0</ele><time>2026-05-01T10:51:02.208Z</time></trkpt><trkpt lat="43.6500617" lon="11.512815"><ele>204.0</ele><time>2026-05-01T10:51:03.209Z</time></trkpt><trkpt lat="43.6499883" lon="11.5126933"><ele>200.0</ele><time>2026-05-01T10:51:04.207Z</time></trkpt><trkpt lat="43.6499017" lon="11.51258"><ele>200.0</ele><time>2026-05-01T10:51:05.207Z</time></trkpt><trkpt lat="43.6497967" lon="11.5125017"><ele>200.0</ele><time>2026-05-01T10:51:06.208Z</time></trkpt><trkpt lat="43.6496833" lon="11.512465"><ele>200.0</ele><time>2026-05-01T10:51:07.208Z</time></trkpt><trkpt lat="43.649565" lon="11.51246"><ele>200.0</ele><time>2026-05-01T10:51:08.208Z</time></trkpt><trkpt lat="43.6494433" lon="11.5124783"><ele>197.0</ele><time>2026-05-01T10:51:09.208Z</time></trkpt><trkpt lat="43.64932" lon="11.5125067"><ele>194.0</ele><time>2026-05-01T10:51:10.209Z</time></trkpt><trkpt lat="43.6491917" lon="11.512535"><ele>191.0</ele><time>2026-05-01T10:51:11.211Z</time></trkpt><trkpt lat="43.64906" lon="11.5125583"><ele>188.0</ele><time>2026-05-01T10:51:12.21Z</time></trkpt><trkpt lat="43.64893" lon="11.5125717"><ele>188.0</ele><time>2026-05-01T10:51:13.208Z</time></trkpt><trkpt lat="43.648795" lon="11.512585"><ele>188.0</ele><time>2026-05-01T10:51:14.208Z</time></trkpt><trkpt lat="43.6486617" lon="11.512595"><ele>188.0</ele><time>2026-05-01T10:51:15.208Z</time></trkpt><trkpt lat="43.6485233" lon="11.512595"><ele>188.0</ele><time>2026-05-01T10:51:16.208Z</time></trkpt><trkpt lat="43.6483817" lon="11.5125983"><ele>187.75</ele><time>2026-05-01T10:51:17.209Z</time></trkpt><trkpt lat="43.64824" lon="11.5125817"><ele>187.5</ele><time>2026-05-01T10:51:18.208Z</time></trkpt><trkpt lat="43.648095" lon="11.5125583"><ele>187.25</ele><time>2026-05-01T10:51:19.208Z</time></trkpt><trkpt lat="43.6479517" lon="11.5125233"><ele>187.0</ele><time>2026-05-01T10:51:20.207Z</time></trkpt><trkpt lat="43.6478083" lon="11.51249"><ele>184.5</ele><time>2026-05-01T10:51:21.208Z</time></trkpt><trkpt lat="43.6476683" lon="11.5124617"><ele>182.0</ele><time>2026-05-01T10:51:22.208Z</time></trkpt><trkpt lat="43.6475233" lon="11.5124383"><ele>179.5</ele><time>2026-05-01T10:51:23.207Z</time></trkpt><trkpt lat="43.6473767" lon="11.51242"><ele>177.0</ele><time>2026-05-01T10:51:24.208Z</time></trkpt><trkpt lat="43.6472283" lon="11.51242"><ele>177.0</ele><time>2026-05-01T10:51:25.207Z</time></trkpt><trkpt lat="43.6470783" lon="11.5124283"><ele>177.0</ele><time>2026-05-01T10:51:26.209Z</time></trkpt><trkpt lat="43.646925" lon="11.51244"><ele>177.0</ele><time>2026-05-01T10:51:27.208Z</time></trkpt><trkpt lat="43.6467667" lon="11.512465"><ele>175.0</ele><time>2026-05-01T10:51:28.207Z</time></trkpt><trkpt lat="43.64661" lon="11.5124833"><ele>173.0</ele><time>2026-05-01T10:51:29.21Z</time></trkpt><trkpt lat="43.6464567" lon="11.5125117"><ele>171.0</ele><time>2026-05-01T10:51:30.207Z</time></trkpt><trkpt lat="43.6463083" lon="11.512555"><ele>171.0</ele><time>2026-05-01T10:51:31.208Z</time></trkpt><trkpt lat="43.64616" lon="11.5126167"><ele>171.0</ele><time>2026-05-01T10:51:32.21Z</time></trkpt><trkpt lat="43.64602" lon="11.5126933"><ele>171.0</ele><time>2026-05-01T10:51:33.207Z</time></trkpt><trkpt lat="43.6458817" lon="11.51278"><ele>170.5</ele><time>2026-05-01T10:51:34.207Z</time></trkpt><trkpt lat="43.6457467" lon="11.512865"><ele>170.0</ele><time>2026-05-01T10:51:35.21Z</time></trkpt><trkpt lat="43.645615" lon="11.5129433"><ele>169.5</ele><time>2026-05-01T10:51:36.209Z</time></trkpt><trkpt lat="43.64549" lon="11.5130167"><ele>169.0</ele><time>2026-05-01T10:51:37.208Z</time></trkpt><trkpt lat="43.6453767" lon="11.5130767"><ele>167.39999999999998</ele><time>2026-05-01T10:51:38.209Z</time></trkpt><trkpt lat="43.6452733" lon="11.5131167"><ele>165.8</ele><time>2026-05-01T10:51:39.209Z</time></trkpt><trkpt lat="43.6451683" lon="11.5131283"><ele>164.2</ele><time>2026-05-01T10:51:40.207Z</time></trkpt><trkpt lat="43.6450667" lon="11.5130983"><ele>162.60000000000002</ele><time>2026-05-01T10:51:41.207Z</time></trkpt><trkpt lat="43.644975" lon="11.5130233"><ele>161.0</ele><time>2026-05-01T10:51:42.207Z</time></trkpt><trkpt lat="43.6448933" lon="11.512915"><ele>161.75</ele><time>2026-05-01T10:51:43.21Z</time></trkpt><trkpt lat="43.6448217" lon="11.512795"><ele>162.5</ele><time>2026-05-01T10:51:44.211Z</time></trkpt><trkpt lat="43.6447517" lon="11.5126683"><ele>163.25</ele><time>2026-05-01T10:51:45.207Z</time></trkpt><trkpt lat="43.6446883" lon="11.5125367"><ele>164.0</ele><time>2026-05-01T10:51:46.208Z</time></trkpt><trkpt lat="43.6446217" lon="11.51241"><ele>164.0</ele><time>2026-05-01T10:51:47.207Z</time></trkpt><trkpt lat="43.644555" lon="11.5122867"><ele>164.0</ele><time>2026-05-01T10:51:48.21Z</time></trkpt><trkpt lat="43.6444867" lon="11.51216"><ele>164.0</ele><time>2026-05-01T10:51:49.209Z</time></trkpt><trkpt lat="43.6444217" lon="11.5120383"><ele>164.0</ele><time>2026-05-01T10:51:50.209Z</time></trkpt><trkpt lat="43.64435" lon="11.5119133"><ele>163.6</ele><time>2026-05-01T10:51:51.207Z</time></trkpt><trkpt lat="43.6442767" lon="11.5118017"><ele>163.2</ele><time>2026-05-01T10:51:52.206Z</time></trkpt><trkpt lat="43.6441983" lon="11.5116933"><ele>162.79999999999998</ele><time>2026-05-01T10:51:53.207Z</time></trkpt><trkpt lat="43.6441117" lon="11.511595"><ele>162.39999999999998</ele><time>2026-05-01T10:51:54.208Z</time></trkpt><trkpt lat="43.64402" lon="11.5115117"><ele>162.0</ele><time>2026-05-01T10:51:55.206Z</time></trkpt><trkpt lat="43.643925" lon="11.5114467"><ele>162.0</ele><time>2026-05-01T10:51:56.208Z</time></trkpt><trkpt lat="43.6438317" lon="11.511385"><ele>162.0</ele><time>2026-05-01T10:51:57.206Z</time></trkpt><trkpt lat="43.6437367" lon="11.511325"><ele>162.0</ele><time>2026-05-01T10:51:58.207Z</time></trkpt><trkpt lat="43.64364" lon="11.5112683"><ele>162.0</ele><time>2026-05-01T10:51:59.205Z</time></trkpt><trkpt lat="43.6435417" lon="11.5112133"><ele>162.0</ele><time>2026-05-01T10:52:00.206Z</time></trkpt><trkpt lat="43.6434433" lon="11.5111517"><ele>161.6</ele><time>2026-05-01T10:52:01.207Z</time></trkpt><trkpt lat="43.64335" lon="11.5110733"><ele>161.2</ele><time>2026-05-01T10:52:02.207Z</time></trkpt><trkpt lat="43.64327" lon="11.51097"><ele>160.8</ele><time>2026-05-01T10:52:03.207Z</time></trkpt><trkpt lat="43.6432" lon="11.5108467"><ele>160.4</ele><time>2026-05-01T10:52:04.207Z</time></trkpt><trkpt lat="43.6431367" lon="11.5107217"><ele>160.0</ele><time>2026-05-01T10:52:05.207Z</time></trkpt><trkpt lat="43.643075" lon="11.5106083"><ele>160.0</ele><time>2026-05-01T10:52:06.206Z</time></trkpt><trkpt lat="43.6430083" lon="11.5104833"><ele>160.0</ele><time>2026-05-01T10:52:07.207Z</time></trkpt><trkpt lat="43.6429417" lon="11.51036"><ele>160.0</ele><time>2026-05-01T10:52:08.207Z</time></trkpt><trkpt lat="43.6428733" lon="11.5102383"><ele>160.0</ele><time>2026-05-01T10:52:09.208Z</time></trkpt><trkpt lat="43.642805" lon="11.5101083"><ele>159.25</ele><time>2026-05-01T10:52:10.206Z</time></trkpt><trkpt lat="43.6427367" lon="11.50998"><ele>158.5</ele><time>2026-05-01T10:52:11.207Z</time></trkpt><trkpt lat="43.6426883" lon="11.5098333"><ele>157.75</ele><time>2026-05-01T10:52:12.207Z</time></trkpt><trkpt lat="43.642645" lon="11.5096917"><ele>157.0</ele><time>2026-05-01T10:52:13.208Z</time></trkpt><trkpt lat="43.642605" lon="11.5095483"><ele>156.75</ele><time>2026-05-01T10:52:14.207Z</time></trkpt><trkpt lat="43.6425667" lon="11.5094"><ele>156.5</ele><time>2026-05-01T10:52:15.208Z</time></trkpt><trkpt lat="43.6425233" lon="11.5092467"><ele>156.25</ele><time>2026-05-01T10:52:16.207Z</time></trkpt><trkpt lat="43.6424817" lon="11.5090983"><ele>156.0</ele><time>2026-05-01T10:52:17.207Z</time></trkpt><trkpt lat="43.6424383" lon="11.50895"><ele>156.0</ele><time>2026-05-01T10:52:18.207Z</time></trkpt><trkpt lat="43.6424033" lon="11.5088033"><ele>156.0</ele><time>2026-05-01T10:52:19.207Z</time></trkpt><trkpt lat="43.64236" lon="11.5086517"><ele>156.0</ele><time>2026-05-01T10:52:20.207Z</time></trkpt><trkpt lat="43.6423033" lon="11.5085083"><ele>156.0</ele><time>2026-05-01T10:52:21.208Z</time></trkpt><trkpt lat="43.6422267" lon="11.5083817"><ele>156.25</ele><time>2026-05-01T10:52:22.206Z</time></trkpt><trkpt lat="43.6421383" lon="11.5082833"><ele>156.5</ele><time>2026-05-01T10:52:23.205Z</time></trkpt><trkpt lat="43.6420317" lon="11.5082033"><ele>156.75</ele><time>2026-05-01T10:52:24.206Z</time></trkpt><trkpt lat="43.641915" lon="11.5081433"><ele>157.0</ele><time>2026-05-01T10:52:25.207Z</time></trkpt><trkpt lat="43.6418017" lon="11.5080867"><ele>156.25</ele><time>2026-05-01T10:52:26.206Z</time></trkpt><trkpt lat="43.6416883" lon="11.50804"><ele>155.5</ele><time>2026-05-01T10:52:27.207Z</time></trkpt><trkpt lat="43.6415767" lon="11.50799"><ele>154.75</ele><time>2026-05-01T10:52:28.206Z</time></trkpt><trkpt lat="43.64147" lon="11.5079333"><ele>154.0</ele><time>2026-05-01T10:52:29.207Z</time></trkpt><trkpt lat="43.6413633" lon="11.5078683"><ele>154.0</ele><time>2026-05-01T10:52:30.206Z</time></trkpt><trkpt lat="43.6412567" lon="11.5078083"><ele>154.0</ele><time>2026-05-01T10:52:31.207Z</time></trkpt><trkpt lat="43.6411533" lon="11.50775"><ele>154.0</ele><time>2026-05-01T10:52:32.207Z</time></trkpt><trkpt lat="43.6410533" lon="11.507685"><ele>154.0</ele><time>2026-05-01T10:52:33.207Z</time></trkpt><trkpt lat="43.6409583" lon="11.5076133"><ele>154.0</ele><time>2026-05-01T10:52:34.208Z</time></trkpt><trkpt lat="43.6408667" lon="11.5075367"><ele>153.25</ele><time>2026-05-01T10:52:35.207Z</time></trkpt><trkpt lat="43.6407717" lon="11.5074467"><ele>152.5</ele><time>2026-05-01T10:52:36.206Z</time></trkpt><trkpt lat="43.6406783" lon="11.5073583"><ele>151.75</ele><time>2026-05-01T10:52:37.207Z</time></trkpt><trkpt lat="43.6405833" lon="11.5072567"><ele>151.0</ele><time>2026-05-01T10:52:38.206Z</time></trkpt><trkpt lat="43.6404933" lon="11.5071483"><ele>151.0</ele><time>2026-05-01T10:52:39.208Z</time></trkpt><trkpt lat="43.640405" lon="11.5070333"><ele>151.0</ele><time>2026-05-01T10:52:40.208Z</time></trkpt><trkpt lat="43.6403167" lon="11.50692"><ele>151.0</ele><time>2026-05-01T10:52:41.206Z</time></trkpt><trkpt lat="43.6402333" lon="11.5068083"><ele>151.0</ele><time>2026-05-01T10:52:42.207Z</time></trkpt><trkpt lat="43.6401467" lon="11.5066933"><ele>150.25</ele><time>2026-05-01T10:52:43.208Z</time></trkpt><trkpt lat="43.6400583" lon="11.5065733"><ele>149.5</ele><time>2026-05-01T10:52:44.208Z</time></trkpt><trkpt lat="43.63997" lon="11.5064617"><ele>148.75</ele><time>2026-05-01T10:52:45.206Z</time></trkpt><trkpt lat="43.6398833" lon="11.5063517"><ele>148.0</ele><time>2026-05-01T10:52:46.206Z</time></trkpt><trkpt lat="43.6398" lon="11.5062433"><ele>148.0</ele><time>2026-05-01T10:52:47.208Z</time></trkpt><trkpt lat="43.6397167" lon="11.506135"><ele>148.0</ele><time>2026-05-01T10:52:48.206Z</time></trkpt><trkpt lat="43.639635" lon="11.50603"><ele>148.0</ele><time>2026-05-01T10:52:49.208Z</time></trkpt><trkpt lat="43.6395533" lon="11.5059217"><ele>148.0</ele><time>2026-05-01T10:52:50.207Z</time></trkpt><trkpt lat="43.6394767" lon="11.5058083"><ele>147.75</ele><time>2026-05-01T10:52:51.206Z</time></trkpt><trkpt lat="43.6393983" lon="11.5056933"><ele>147.5</ele><time>2026-05-01T10:52:52.207Z</time></trkpt><trkpt lat="43.63932" lon="11.505575"><ele>147.25</ele><time>2026-05-01T10:52:53.209Z</time></trkpt><trkpt lat="43.6392433" lon="11.50546"><ele>147.0</ele><time>2026-05-01T10:52:54.206Z</time></trkpt><trkpt lat="43.6391733" lon="11.5053433"><ele>147.0</ele><time>2026-05-01T10:52:55.207Z</time></trkpt><trkpt lat="43.6391067" lon="11.5052267"><ele>147.0</ele><time>2026-05-01T10:52:56.207Z</time></trkpt><trkpt lat="43.63904" lon="11.5051083"><ele>147.0</ele><time>2026-05-01T10:52:57.208Z</time></trkpt><trkpt lat="43.638975" lon="11.504985"><ele>147.0</ele><time>2026-05-01T10:52:58.207Z</time></trkpt><trkpt lat="43.63891" lon="11.5048667"><ele>147.0</ele><time>2026-05-01T10:52:59.209Z</time></trkpt><trkpt lat="43.6388467" lon="11.5047483"><ele>147.0</ele><time>2026-05-01T10:53:00.207Z</time></trkpt><trkpt lat="43.6387833" lon="11.50463"><ele>147.0</ele><time>2026-05-01T10:53:01.207Z</time></trkpt><trkpt lat="43.6387217" lon="11.5045183"><ele>147.0</ele><time>2026-05-01T10:53:02.209Z</time></trkpt><trkpt lat="43.6386583" lon="11.5044017"><ele>147.0</ele><time>2026-05-01T10:53:03.209Z</time></trkpt><trkpt lat="43.6385967" lon="11.50429"><ele>147.0</ele><time>2026-05-01T10:53:04.207Z</time></trkpt><trkpt lat="43.638535" lon="11.504175"><ele>146.79999999999998</ele><time>2026-05-01T10:53:05.207Z</time></trkpt><trkpt lat="43.6384717" lon="11.50406"><ele>146.6</ele><time>2026-05-01T10:53:06.208Z</time></trkpt><trkpt lat="43.63841" lon="11.503945"><ele>146.39999999999998</ele><time>2026-05-01T10:53:07.207Z</time></trkpt><trkpt lat="43.6383467" lon="11.5038267"><ele>146.2</ele><time>2026-05-01T10:53:08.209Z</time></trkpt><trkpt lat="43.6382867" lon="11.5037083"><ele>146.0</ele><time>2026-05-01T10:53:09.207Z</time></trkpt><trkpt lat="43.6382283" lon="11.5035933"><ele>146.0</ele><time>2026-05-01T10:53:10.208Z</time></trkpt><trkpt lat="43.6381667" lon="11.5034783"><ele>146.0</ele><time>2026-05-01T10:53:11.208Z</time></trkpt><trkpt lat="43.638105" lon="11.5033633"><ele>146.0</ele><time>2026-05-01T10:53:12.207Z</time></trkpt><trkpt lat="43.6380483" lon="11.5032483"><ele>146.0</ele><time>2026-05-01T10:53:13.206Z</time></trkpt><trkpt lat="43.6379933" lon="11.5031317"><ele>146.0</ele><time>2026-05-01T10:53:14.207Z</time></trkpt><trkpt lat="43.6379417" lon="11.503015"><ele>146.2</ele><time>2026-05-01T10:53:15.208Z</time></trkpt><trkpt lat="43.637895" lon="11.5028967"><ele>146.39999999999998</ele><time>2026-05-01T10:53:16.209Z</time></trkpt><trkpt lat="43.6378567" lon="11.5027783"><ele>146.6</ele><time>2026-05-01T10:53:17.208Z</time></trkpt><trkpt lat="43.6378317" lon="11.5026583"><ele>146.79999999999998</ele><time>2026-05-01T10:53:18.206Z</time></trkpt><trkpt lat="43.6378267" lon="11.5025367"><ele>147.0</ele><time>2026-05-01T10:53:19.207Z</time></trkpt><trkpt lat="43.6378317" lon="11.5024217"><ele>147.0</ele><time>2026-05-01T10:53:20.208Z</time></trkpt><trkpt lat="43.6378233" lon="11.50233"><ele>147.0</ele><time>2026-05-01T10:53:21.208Z</time></trkpt><trkpt lat="43.637795" lon="11.5022517"><ele>147.0</ele><time>2026-05-01T10:53:22.206Z</time></trkpt><trkpt lat="43.6376983" lon="11.5021833"><ele>147.0</ele><time>2026-05-01T10:53:24.209Z</time></trkpt><trkpt lat="43.637595" lon="11.5022983"><ele>147.0</ele><time>2026-05-01T10:53:26.207Z</time></trkpt><trkpt lat="43.6375583" lon="11.5023967"><ele>146.0</ele><time>2026-05-01T10:53:27.208Z</time></trkpt><trkpt lat="43.63752" lon="11.5025"><ele>145.0</ele><time>2026-05-01T10:53:28.208Z</time></trkpt><trkpt lat="43.6374717" lon="11.5025917"><ele>144.0</ele><time>2026-05-01T10:53:29.206Z</time></trkpt><trkpt lat="43.6374167" lon="11.50267"><ele>143.0</ele><time>2026-05-01T10:53:30.21Z</time></trkpt><trkpt lat="43.637365" lon="11.5027367"><ele>142.0</ele><time>2026-05-01T10:53:31.208Z</time></trkpt><trkpt lat="43.6373133" lon="11.502805"><ele>141.0</ele><time>2026-05-01T10:53:32.208Z</time></trkpt><trkpt lat="43.6372583" lon="11.5028733"><ele>141.16666666666666</ele><time>2026-05-01T10:53:33.208Z</time></trkpt><trkpt lat="43.6372" lon="11.5029417"><ele>141.33333333333334</ele><time>2026-05-01T10:53:34.206Z</time></trkpt><trkpt lat="43.6371433" lon="11.5030183"><ele>141.5</ele><time>2026-05-01T10:53:35.208Z</time></trkpt><trkpt lat="43.6370983" lon="11.503115"><ele>141.66666666666669</ele><time>2026-05-01T10:53:36.208Z</time></trkpt><trkpt lat="43.6370767" lon="11.5032283"><ele>141.83333333333334</ele><time>2026-05-01T10:53:37.208Z</time></trkpt><trkpt lat="43.6370767" lon="11.5033483"><ele>142.0</ele><time>2026-05-01T10:53:38.209Z</time></trkpt><trkpt lat="43.6370883" lon="11.5034717"><ele>142.0</ele><time>2026-05-01T10:53:39.209Z</time></trkpt><trkpt lat="43.6371033" lon="11.5035933"><ele>142.0</ele><time>2026-05-01T10:53:40.206Z</time></trkpt><trkpt lat="43.63712" lon="11.503715"><ele>142.0</ele><time>2026-05-01T10:53:41.206Z</time></trkpt><trkpt lat="43.63714" lon="11.5038283"><ele>142.0</ele><time>2026-05-01T10:53:42.21Z</time></trkpt><trkpt lat="43.63716" lon="11.5039433"><ele>142.0</ele><time>2026-05-01T10:53:43.208Z</time></trkpt><trkpt lat="43.6371817" lon="11.5040517"><ele>142.0</ele><time>2026-05-01T10:53:44.208Z</time></trkpt><trkpt lat="43.63721" lon="11.5041567"><ele>142.0</ele><time>2026-05-01T10:53:45.204Z</time></trkpt><trkpt lat="43.637245" lon="11.504255"><ele>142.0</ele><time>2026-05-01T10:53:46.211Z</time></trkpt><trkpt lat="43.6372867" lon="11.5043483"><ele>142.0</ele><time>2026-05-01T10:53:47.208Z</time></trkpt><trkpt lat="43.6373267" lon="11.50444"><ele>142.0</ele><time>2026-05-01T10:53:48.207Z</time></trkpt><trkpt lat="43.6373567" lon="11.5045317"><ele>142.0</ele><time>2026-05-01T10:53:49.209Z</time></trkpt><trkpt lat="43.63737" lon="11.5046283"><ele>142.0</ele><time>2026-05-01T10:53:50.209Z</time></trkpt><trkpt lat="43.6373667" lon="11.50473"><ele>142.5</ele><time>2026-05-01T10:53:51.207Z</time></trkpt><trkpt lat="43.6373417" lon="11.504825"><ele>143.0</ele><time>2026-05-01T10:53:52.208Z</time></trkpt><trkpt lat="43.6373017" lon="11.5049083"><ele>143.5</ele><time>2026-05-01T10:53:53.208Z</time></trkpt><trkpt lat="43.6372617" lon="11.5049767"><ele>144.0</ele><time>2026-05-01T10:53:54.208Z</time></trkpt><trkpt lat="43.6372217" lon="11.50505"><ele>144.5</ele><time>2026-05-01T10:53:55.207Z</time></trkpt><trkpt lat="43.6371783" lon="11.5051133"><ele>145.0</ele><time>2026-05-01T10:53:56.209Z</time></trkpt><trkpt lat="43.637095" lon="11.5052383"><ele>145.0</ele><time>2026-05-01T10:53:58.207Z</time></trkpt><trkpt lat="43.637025" lon="11.5053683"><ele>145.0</ele><time>2026-05-01T10:54:00.207Z</time></trkpt><trkpt lat="43.63696" lon="11.5054717"><ele>145.0</ele><time>2026-05-01T10:54:02.209Z</time></trkpt><trkpt lat="43.6369083" lon="11.505555"><ele>145.0</ele><time>2026-05-01T10:54:04.208Z</time></trkpt><trkpt lat="43.636855" lon="11.5056383"><ele>145.0</ele><time>2026-05-01T10:54:06.207Z</time></trkpt><trkpt lat="43.6368067" lon="11.5057183"><ele>146.33333333333334</ele><time>2026-05-01T10:54:08.209Z</time></trkpt><trkpt lat="43.6367683" lon="11.5058017"><ele>147.66666666666669</ele><time>2026-05-01T10:54:10.207Z</time></trkpt><trkpt lat="43.6367283" lon="11.50589"><ele>149.0</ele><time>2026-05-01T10:54:12.207Z</time></trkpt><trkpt lat="43.6366883" lon="11.5059767"><ele>150.33333333333334</ele><time>2026-05-01T10:54:14.208Z</time></trkpt><trkpt lat="43.63665" lon="11.5060667"><ele>151.66666666666666</ele><time>2026-05-01T10:54:16.207Z</time></trkpt><trkpt lat="43.6366117" lon="11.50616"><ele>153.0</ele><time>2026-05-01T10:54:18.207Z</time></trkpt><trkpt lat="43.6365783" lon="11.5062667"><ele>153.6</ele><time>2026-05-01T10:54:20.207Z</time></trkpt><trkpt lat="43.636545" lon="11.506375"><ele>154.20000000000002</ele><time>2026-05-01T10:54:22.207Z</time></trkpt><trkpt lat="43.6365117" lon="11.506495"><ele>154.8</ele><time>2026-05-01T10:54:24.208Z</time></trkpt><trkpt lat="43.6364617" lon="11.5066083"><ele>155.4</ele><time>2026-05-01T10:54:26.208Z</time></trkpt><trkpt lat="43.6364117" lon="11.5067283"><ele>156.0</ele><time>2026-05-01T10:54:28.208Z</time></trkpt><trkpt lat="43.6363683" lon="11.5068517"><ele>156.0</ele><time>2026-05-01T10:54:30.21Z</time></trkpt><trkpt lat="43.6363233" lon="11.5069733"><ele>156.0</ele><time>2026-05-01T10:54:32.207Z</time></trkpt><trkpt lat="43.6362817" lon="11.5070983"><ele>156.0</ele><time>2026-05-01T10:54:34.207Z</time></trkpt><trkpt lat="43.63624" lon="11.5072283"><ele>156.0</ele><time>2026-05-01T10:54:36.208Z</time></trkpt><trkpt lat="43.636195" lon="11.50736"><ele>156.0</ele><time>2026-05-01T10:54:38.207Z</time></trkpt><trkpt lat="43.636155" lon="11.5074867"><ele>156.0</ele><time>2026-05-01T10:54:40.207Z</time></trkpt><trkpt lat="43.6361133" lon="11.5076133"><ele>156.0</ele><time>2026-05-01T10:54:42.207Z</time></trkpt><trkpt lat="43.6360667" lon="11.50774"><ele>156.0</ele><time>2026-05-01T10:54:44.208Z</time></trkpt><trkpt lat="43.63602" lon="11.507865"><ele>156.0</ele><time>2026-05-01T10:54:46.207Z</time></trkpt><trkpt lat="43.635975" lon="11.5079883"><ele>156.0</ele><time>2026-05-01T10:54:48.207Z</time></trkpt><trkpt lat="43.63593" lon="11.5081167"><ele>156.8</ele><time>2026-05-01T10:54:50.209Z</time></trkpt><trkpt lat="43.6358867" lon="11.5082433"><ele>157.6</ele><time>2026-05-01T10:54:52.21Z</time></trkpt><trkpt lat="43.6358383" lon="11.5083667"><ele>158.4</ele><time>2026-05-01T10:54:54.208Z</time></trkpt><trkpt lat="43.6357917" lon="11.5084917"><ele>159.2</ele><time>2026-05-01T10:54:56.208Z</time></trkpt><trkpt lat="43.6357433" lon="11.5086133"><ele>160.0</ele><time>2026-05-01T10:54:58.208Z</time></trkpt><trkpt lat="43.6356983" lon="11.50872"><ele>161.0</ele><time>2026-05-01T10:55:00.207Z</time></trkpt><trkpt lat="43.6356517" lon="11.5088117"><ele>162.0</ele><time>2026-05-01T10:55:02.209Z</time></trkpt><trkpt lat="43.6355967" lon="11.5088883"><ele>163.0</ele><time>2026-05-01T10:55:04.209Z</time></trkpt><trkpt lat="43.63554" lon="11.508955"><ele>164.0</ele><time>2026-05-01T10:55:06.207Z</time></trkpt><trkpt lat="43.6354817" lon="11.5090233"><ele>165.0</ele><time>2026-05-01T10:55:08.207Z</time></trkpt><trkpt lat="43.6354183" lon="11.509085"><ele>166.0</ele><time>2026-05-01T10:55:10.206Z</time></trkpt><trkpt lat="43.6353683" lon="11.5091433"><ele>167.5</ele><time>2026-05-01T10:55:12.205Z</time></trkpt><trkpt lat="43.6353017" lon="11.5092"><ele>169.0</ele><time>2026-05-01T10:55:14.207Z</time></trkpt><trkpt lat="43.6352383" lon="11.5092633"><ele>170.5</ele><time>2026-05-01T10:55:16.207Z</time></trkpt><trkpt lat="43.6351617" lon="11.5093183"><ele>172.0</ele><time>2026-05-01T10:55:18.207Z</time></trkpt><trkpt lat="43.6350983" lon="11.50938"><ele>173.5</ele><time>2026-05-01T10:55:20.209Z</time></trkpt><trkpt lat="43.6350283" lon="11.5094333"><ele>175.0</ele><time>2026-05-01T10:55:22.209Z</time></trkpt><trkpt lat="43.6349683" lon="11.5094817"><ele>175.0</ele><time>2026-05-01T10:55:24.207Z</time></trkpt><trkpt lat="43.634895" lon="11.5095217"><ele>175.0</ele><time>2026-05-01T10:55:26.207Z</time></trkpt><trkpt lat="43.6348283" lon="11.5095583"><ele>175.0</ele><time>2026-05-01T10:55:28.208Z</time></trkpt><trkpt lat="43.63475" lon="11.5096067"><ele>175.0</ele><time>2026-05-01T10:55:31.208Z</time></trkpt><trkpt lat="43.6346817" lon="11.509645"><ele>175.0</ele><time>2026-05-01T10:55:34.205Z</time></trkpt><trkpt lat="43.6346" lon="11.5096883"><ele>175.0</ele><time>2026-05-01T10:55:37.207Z</time></trkpt><trkpt lat="43.63454" lon="11.50973"><ele>175.83333333333334</ele><time>2026-05-01T10:55:40.207Z</time></trkpt><trkpt lat="43.63447" lon="11.5097733"><ele>176.66666666666669</ele><time>2026-05-01T10:55:43.206Z</time></trkpt><trkpt lat="43.634395" lon="11.5098"><ele>177.5</ele><time>2026-05-01T10:55:45.205Z</time></trkpt><trkpt lat="43.6343133" lon="11.5098317"><ele>178.33333333333334</ele><time>2026-05-01T10:55:47.207Z</time></trkpt><trkpt lat="43.634235" lon="11.5098633"><ele>179.16666666666666</ele><time>2026-05-01T10:55:49.207Z</time></trkpt><trkpt lat="43.6341517" lon="11.5099"><ele>180.0</ele><time>2026-05-01T10:55:51.207Z</time></trkpt><trkpt lat="43.634065" lon="11.50994"><ele>180.0</ele><time>2026-05-01T10:55:53.207Z</time></trkpt><trkpt lat="43.633985" lon="11.509985"><ele>180.0</ele><time>2026-05-01T10:55:55.206Z</time></trkpt><trkpt lat="43.6339117" lon="11.5100367"><ele>180.0</ele><time>2026-05-01T10:55:57.205Z</time></trkpt><trkpt lat="43.6338417" lon="11.5100983"><ele>180.0</ele><time>2026-05-01T10:55:59.207Z</time></trkpt><trkpt lat="43.6337567" lon="11.5101683"><ele>180.0</ele><time>2026-05-01T10:56:01.207Z</time></trkpt><trkpt lat="43.63365" lon="11.5102517"><ele>180.66666666666666</ele><time>2026-05-01T10:56:03.207Z</time></trkpt><trkpt lat="43.6335933" lon="11.5102983"><ele>181.33333333333334</ele><time>2026-05-01T10:56:04.207Z</time></trkpt><trkpt lat="43.6335333" lon="11.5103517"><ele>182.0</ele><time>2026-05-01T10:56:05.206Z</time></trkpt><trkpt lat="43.6334717" lon="11.510405"><ele>182.66666666666669</ele><time>2026-05-01T10:56:06.208Z</time></trkpt><trkpt lat="43.6334" lon="11.5104683"><ele>183.33333333333334</ele><time>2026-05-01T10:56:07.21Z</time></trkpt><trkpt lat="43.633325" lon="11.5105417"><ele>184.0</ele><time>2026-05-01T10:56:08.207Z</time></trkpt><trkpt lat="43.6332533" lon="11.5106117"><ele>182.2</ele><time>2026-05-01T10:56:09.208Z</time></trkpt><trkpt lat="43.633175" lon="11.5106767"><ele>180.39999999999998</ele><time>2026-05-01T10:56:10.207Z</time></trkpt><trkpt lat="43.6331017" lon="11.51074"><ele>178.6</ele><time>2026-05-01T10:56:11.209Z</time></trkpt><trkpt lat="43.6330133" lon="11.5108033"><ele>176.8</ele><time>2026-05-01T10:56:12.209Z</time></trkpt><trkpt lat="43.6329267" lon="11.51086"><ele>175.0</ele><time>2026-05-01T10:56:13.208Z</time></trkpt><trkpt lat="43.632825" lon="11.5109067"><ele>172.75</ele><time>2026-05-01T10:56:14.209Z</time></trkpt><trkpt lat="43.6327233" lon="11.5109483"><ele>170.5</ele><time>2026-05-01T10:56:15.207Z</time></trkpt><trkpt lat="43.6326167" lon="11.510985"><ele>168.25</ele><time>2026-05-01T10:56:16.208Z</time></trkpt><trkpt lat="43.6325067" lon="11.5110267"><ele>166.0</ele><time>2026-05-01T10:56:17.209Z</time></trkpt><trkpt lat="43.6323817" lon="11.51107"><ele>166.0</ele><time>2026-05-01T10:56:18.208Z</time></trkpt><trkpt lat="43.6322617" lon="11.5111067"><ele>166.0</ele><time>2026-05-01T10:56:19.21Z</time></trkpt><trkpt lat="43.63214" lon="11.51114"><ele>166.0</ele><time>2026-05-01T10:56:20.209Z</time></trkpt><trkpt lat="43.632005" lon="11.5111583"><ele>166.0</ele><time>2026-05-01T10:56:21.207Z</time></trkpt><trkpt lat="43.6318783" lon="11.5111583"><ele>163.75</ele><time>2026-05-01T10:56:22.205Z</time></trkpt><trkpt lat="43.6317483" lon="11.5111467"><ele>161.5</ele><time>2026-05-01T10:56:23.207Z</time></trkpt><trkpt lat="43.6316167" lon="11.5111233"><ele>159.25</ele><time>2026-05-01T10:56:24.207Z</time></trkpt><trkpt lat="43.63148" lon="11.511095"><ele>157.0</ele><time>2026-05-01T10:56:25.207Z</time></trkpt><trkpt lat="43.6313383" lon="11.5110717"><ele>157.0</ele><time>2026-05-01T10:56:26.207Z</time></trkpt><trkpt lat="43.6312067" lon="11.511055"><ele>157.0</ele><time>2026-05-01T10:56:27.208Z</time></trkpt><trkpt lat="43.6310833" lon="11.5110517"><ele>157.0</ele><time>2026-05-01T10:56:28.21Z</time></trkpt><trkpt lat="43.63096" lon="11.5110683"><ele>157.0</ele><time>2026-05-01T10:56:29.208Z</time></trkpt><trkpt lat="43.6308433" lon="11.5111017"><ele>156.75</ele><time>2026-05-01T10:56:30.21Z</time></trkpt><trkpt lat="43.6307283" lon="11.5111467"><ele>156.5</ele><time>2026-05-01T10:56:31.208Z</time></trkpt><trkpt lat="43.6306183" lon="11.511195"><ele>156.25</ele><time>2026-05-01T10:56:32.208Z</time></trkpt><trkpt lat="43.63051" lon="11.5112433"><ele>156.0</ele><time>2026-05-01T10:56:33.207Z</time></trkpt><trkpt lat="43.630405" lon="11.511295"><ele>154.8</ele><time>2026-05-01T10:56:34.207Z</time></trkpt><trkpt lat="43.6303033" lon="11.511355"><ele>153.6</ele><time>2026-05-01T10:56:35.208Z</time></trkpt><trkpt lat="43.630215" lon="11.5114317"><ele>152.4</ele><time>2026-05-01T10:56:36.207Z</time></trkpt><trkpt lat="43.6301433" lon="11.511535"><ele>151.2</ele><time>2026-05-01T10:56:37.208Z</time></trkpt><trkpt lat="43.6300917" lon="11.5116583"><ele>150.0</ele><time>2026-05-01T10:56:38.208Z</time></trkpt><trkpt lat="43.6300517" lon="11.51179"><ele>150.0</ele><time>2026-05-01T10:56:39.209Z</time></trkpt><trkpt lat="43.6300233" lon="11.5119233"><ele>150.0</ele><time>2026-05-01T10:56:40.208Z</time></trkpt><trkpt lat="43.6299967" lon="11.5120617"><ele>150.0</ele><time>2026-05-01T10:56:41.207Z</time></trkpt><trkpt lat="43.6299783" lon="11.5121917"><ele>150.0</ele><time>2026-05-01T10:56:42.206Z</time></trkpt><trkpt lat="43.6299567" lon="11.51232"><ele>150.0</ele><time>2026-05-01T10:56:43.211Z</time></trkpt><trkpt lat="43.629925" lon="11.5124433"><ele>149.4</ele><time>2026-05-01T10:56:44.207Z</time></trkpt><trkpt lat="43.6298733" lon="11.5125567"><ele>148.8</ele><time>2026-05-01T10:56:45.207Z</time></trkpt><trkpt lat="43.629805" lon="11.5126467"><ele>148.2</ele><time>2026-05-01T10:56:46.207Z</time></trkpt><trkpt lat="43.6297233" lon="11.51271"><ele>147.6</ele><time>2026-05-01T10:56:47.209Z</time></trkpt><trkpt lat="43.6296317" lon="11.51275"><ele>147.0</ele><time>2026-05-01T10:56:48.207Z</time></trkpt><trkpt lat="43.629535" lon="11.5127817"><ele>147.0</ele><time>2026-05-01T10:56:49.207Z</time></trkpt><trkpt lat="43.6294367" lon="11.5128067"><ele>147.0</ele><time>2026-05-01T10:56:50.208Z</time></trkpt><trkpt lat="43.6293367" lon="11.51283"><ele>147.0</ele><time>2026-05-01T10:56:51.207Z</time></trkpt><trkpt lat="43.6292367" lon="11.5128567"><ele>147.0</ele><time>2026-05-01T10:56:52.208Z</time></trkpt><trkpt lat="43.62914" lon="11.5128833"><ele>147.0</ele><time>2026-05-01T10:56:53.207Z</time></trkpt><trkpt lat="43.629045" lon="11.5129117"><ele>147.0</ele><time>2026-05-01T10:56:54.208Z</time></trkpt><trkpt lat="43.6289533" lon="11.5129433"><ele>147.0</ele><time>2026-05-01T10:56:55.209Z</time></trkpt><trkpt lat="43.6288633" lon="11.5129717"><ele>147.0</ele><time>2026-05-01T10:56:56.21Z</time></trkpt><trkpt lat="43.6287733" lon="11.5130033"><ele>147.0</ele><time>2026-05-01T10:56:57.207Z</time></trkpt><trkpt lat="43.628685" lon="11.51303"><ele>147.0</ele><time>2026-05-01T10:56:58.206Z</time></trkpt><trkpt lat="43.6286017" lon="11.51306"><ele>146.66666666666666</ele><time>2026-05-01T10:56:59.209Z</time></trkpt><trkpt lat="43.628515" lon="11.5130883"><ele>146.33333333333334</ele><time>2026-05-01T10:57:00.209Z</time></trkpt><trkpt lat="43.6284333" lon="11.5131133"><ele>146.0</ele><time>2026-05-01T10:57:01.208Z</time></trkpt><trkpt lat="43.62835" lon="11.5131383"><ele>145.66666666666669</ele><time>2026-05-01T10:57:02.207Z</time></trkpt><trkpt lat="43.6282717" lon="11.513165"><ele>145.33333333333334</ele><time>2026-05-01T10:57:03.21Z</time></trkpt><trkpt lat="43.6281933" lon="11.5131917"><ele>145.0</ele><time>2026-05-01T10:57:04.206Z</time></trkpt><trkpt lat="43.6281167" lon="11.5132133"><ele>145.0</ele><time>2026-05-01T10:57:05.207Z</time></trkpt><trkpt lat="43.62804" lon="11.5132317"><ele>145.0</ele><time>2026-05-01T10:57:06.207Z</time></trkpt><trkpt lat="43.6279667" lon="11.5132467"><ele>145.0</ele><time>2026-05-01T10:57:07.207Z</time></trkpt><trkpt lat="43.6279017" lon="11.5132517"><ele>145.0</ele><time>2026-05-01T10:57:08.207Z</time></trkpt><trkpt lat="43.6278383" lon="11.51325"><ele>145.0</ele><time>2026-05-01T10:57:09.207Z</time></trkpt><trkpt lat="43.6277167" lon="11.5132417"><ele>145.0</ele><time>2026-05-01T10:57:11.209Z</time></trkpt><trkpt lat="43.62762" lon="11.513305"><ele>145.0</ele><time>2026-05-01T10:57:13.208Z</time></trkpt><trkpt lat="43.6276067" lon="11.51344"><ele>145.0</ele><time>2026-05-01T10:57:15.207Z</time></trkpt><trkpt lat="43.62762" lon="11.5135767"><ele>145.0</ele><time>2026-05-01T10:57:17.207Z</time></trkpt><trkpt lat="43.627645" lon="11.5137067"><ele>145.0</ele><time>2026-05-01T10:57:19.207Z</time></trkpt><trkpt lat="43.627665" lon="11.5138283"><ele>145.0</ele><time>2026-05-01T10:57:21.207Z</time></trkpt><trkpt lat="43.6276767" lon="11.5139367"><ele>145.0</ele><time>2026-05-01T10:57:23.206Z</time></trkpt><trkpt lat="43.6276833" lon="11.5140483"><ele>145.0</ele><time>2026-05-01T10:57:25.204Z</time></trkpt><trkpt lat="43.6276967" lon="11.5141583"><ele>145.0</ele><time>2026-05-01T10:57:27.207Z</time></trkpt><trkpt lat="43.62771" lon="11.51427"><ele>145.0</ele><time>2026-05-01T10:57:29.209Z</time></trkpt><trkpt lat="43.6277233" lon="11.5143833"><ele>145.0</ele><time>2026-05-01T10:57:31.208Z</time></trkpt><trkpt lat="43.6277333" lon="11.5145"><ele>145.0</ele><time>2026-05-01T10:57:33.209Z</time></trkpt><trkpt lat="43.6277417" lon="11.5146183"><ele>145.2</ele><time>2026-05-01T10:57:35.208Z</time></trkpt><trkpt lat="43.6277467" lon="11.5147533"><ele>145.4</ele><time>2026-05-01T10:57:37.207Z</time></trkpt><trkpt lat="43.6277533" lon="11.5148833"><ele>145.6</ele><time>2026-05-01T10:57:39.21Z</time></trkpt><trkpt lat="43.62776" lon="11.51502"><ele>145.8</ele><time>2026-05-01T10:57:41.209Z</time></trkpt><trkpt lat="43.627765" lon="11.5151533"><ele>146.0</ele><time>2026-05-01T10:57:43.209Z</time></trkpt><trkpt lat="43.6277683" lon="11.515285"><ele>145.83333333333331</ele><time>2026-05-01T10:57:45.207Z</time></trkpt><trkpt lat="43.62777" lon="11.515425"><ele>145.66666666666666</ele><time>2026-05-01T10:57:47.21Z</time></trkpt><trkpt lat="43.627775" lon="11.5155617"><ele>145.5</ele><time>2026-05-01T10:57:49.207Z</time></trkpt><trkpt lat="43.62777" lon="11.5156883"><ele>145.33333333333334</ele><time>2026-05-01T10:57:51.207Z</time></trkpt><trkpt lat="43.6277617" lon="11.515775"><ele>145.16666666666669</ele><time>2026-05-01T10:57:53.208Z</time></trkpt><trkpt lat="43.6277583" lon="11.5158883"><ele>145.0</ele><time>2026-05-01T10:57:56.21Z</time></trkpt><trkpt lat="43.6277633" lon="11.5159883"><ele>145.0</ele><time>2026-05-01T10:57:58.206Z</time></trkpt><trkpt lat="43.6277667" lon="11.5161033"><ele>145.0</ele><time>2026-05-01T10:58:00.205Z</time></trkpt><trkpt lat="43.627765" lon="11.516235"><ele>145.0</ele><time>2026-05-01T10:58:02.209Z</time></trkpt><trkpt lat="43.62777" lon="11.516365"><ele>145.0</ele><time>2026-05-01T10:58:04.205Z</time></trkpt><trkpt lat="43.6277883" lon="11.51649"><ele>145.0</ele><time>2026-05-01T10:58:06.208Z</time></trkpt><trkpt lat="43.6277917" lon="11.5166117"><ele>145.4</ele><time>2026-05-01T10:58:08.207Z</time></trkpt><trkpt lat="43.6278017" lon="11.516725"><ele>145.8</ele><time>2026-05-01T10:58:10.206Z</time></trkpt><trkpt lat="43.6278017" lon="11.5168633"><ele>146.2</ele><time>2026-05-01T10:58:12.208Z</time></trkpt><trkpt lat="43.6277917" lon="11.517005"><ele>146.6</ele><time>2026-05-01T10:58:14.209Z</time></trkpt><trkpt lat="43.6277767" lon="11.5171283"><ele>147.0</ele><time>2026-05-01T10:58:16.207Z</time></trkpt><trkpt lat="43.6277083" lon="11.5172517"><ele>147.0</ele><time>2026-05-01T10:58:19.207Z</time></trkpt><trkpt lat="43.6276467" lon="11.5172983"><ele>147.0</ele><time>2026-05-01T10:58:21.208Z</time></trkpt><trkpt lat="43.627545" lon="11.517315"><ele>147.0</ele><time>2026-05-01T10:58:23.207Z</time></trkpt><trkpt lat="43.62744" lon="11.5172717"><ele>147.0</ele><time>2026-05-01T10:58:25.207Z</time></trkpt><trkpt lat="43.62741" lon="11.5171467"><ele>147.0</ele><time>2026-05-01T10:58:27.208Z</time></trkpt><trkpt lat="43.6274283" lon="11.5170117"><ele>147.0</ele><time>2026-05-01T10:58:29.207Z</time></trkpt><trkpt lat="43.627445" lon="11.5168567"><ele>147.0</ele><time>2026-05-01T10:58:31.207Z</time></trkpt><trkpt lat="43.6274417" lon="11.516735"><ele>147.0</ele><time>2026-05-01T10:58:33.209Z</time></trkpt><trkpt lat="43.627435" lon="11.51661"><ele>147.0</ele><time>2026-05-01T10:58:36.208Z</time></trkpt><trkpt lat="43.6274433" lon="11.5165183"><ele>147.0</ele><time>2026-05-01T10:58:38.208Z</time></trkpt><trkpt lat="43.6274433" lon="11.5164033"><ele>147.0</ele><time>2026-05-01T10:58:41.208Z</time></trkpt><trkpt lat="43.6275333" lon="11.5163983"><ele>147.0</ele><time>2026-05-01T10:59:03.207Z</time></trkpt><trkpt lat="43.6274417" lon="11.516455"><ele>147.0</ele><time>2026-05-01T10:59:33.208Z</time></trkpt><trkpt lat="43.6274483" lon="11.516545"><ele>147.0</ele><time>2026-05-01T10:59:46.207Z</time></trkpt><trkpt lat="43.6275017" lon="11.51661"><ele>147.0</ele><time>2026-05-01T10:59:50.207Z</time></trkpt><trkpt lat="43.6273726" lon="11.5162075"><ele>147.0</ele><time>2026-05-01T11:00:16.81Z</time></trkpt><trkpt lat="43.6273833" lon="11.5164217"><ele>147.0</ele><time>2026-05-01T11:01:32.207Z</time></trkpt><trkpt lat="43.6273676" lon="11.5161889"><ele>147.0</ele><time>2026-05-01T11:02:04.533Z</time></trkpt><trkpt lat="43.6273633" lon="11.5165"><ele>147.0</ele><time>2026-05-01T11:02:21.208Z</time></trkpt><trkpt lat="43.62723" lon="11.516545"><ele>147.0</ele><time>2026-05-01T11:02:25.206Z</time></trkpt><trkpt lat="43.6273711" lon="11.5161491"><ele>147.0</ele><time>2026-05-01T11:02:50.763Z</time></trkpt><trkpt lat="43.6272701" lon="11.5164808"><ele>147.0</ele><time>2026-05-01T11:02:58.512Z</time></trkpt><trkpt lat="43.6273298" lon="11.5164387"><ele>147.0</ele><time>2026-05-01T11:03:12.272Z</time></trkpt><trkpt lat="43.6273792" lon="11.5163755"><ele>147.0</ele><time>2026-05-01T11:03:18.293Z</time></trkpt><trkpt lat="43.6274162" lon="11.5163044"><ele>147.0</ele><time>2026-05-01T11:03:28.227Z</time></trkpt><trkpt lat="43.6274733" lon="11.5163783"><ele>147.0</ele><time>2026-05-01T11:04:48.207Z</time></trkpt></trkseg></trk></gpx>